<?xml version="1.0" encoding="utf-8" standalone="yes"?>
<gpx version="1.1" creator="Locus Map, Android"
 xmlns="http://www.topografix.com/GPX/1/1"
 xmlns:xsi="http://www.w3.org/2001/XMLSchema-instance"
 xsi:schemaLocation="http://www.topografix.com/GPX/1/1 http://www.topografix.com/GPX/1/1/gpx.xsd"
 xmlns:gpxx="http://www.garmin.com/xmlschemas/GpxExtensions/v3"
 xmlns:gpxtrkx="http://www.garmin.com/xmlschemas/TrackStatsExtension/v1"
 xmlns:gpxtpx="http://www.garmin.com/xmlschemas/TrackPointExtension/v2"
 xmlns:locus="http://www.locusmap.eu">
	<metadata>
		<desc>File with points/tracks from Locus Map Classic/3.70.13</desc>
		<time>2024-10-21T18:59:58.351Z</time>
	</metadata>
<trk>
<name>Rifugio Prudenzini </name>
	<extensions>
		<line xmlns="http://www.topografix.com/GPX/gpx_style/0/2">
			<color>0000FF</color>
			<opacity>0.59</opacity>
			<width>6.0</width>
			<extensions>
				<locus:lsColorBase>#960000FF</locus:lsColorBase>
				<locus:lsWidth>6.0</locus:lsWidth>
				<locus:lsUnits>PIXELS</locus:lsUnits>
			</extensions>
		</line>
		<locus:activity>hiking</locus:activity>
	</extensions>
<trkseg>
<trkpt lat="46.0941380" lon="10.4301750">
	<ele>1310.80</ele>
	<time>2024-07-25T07:08:47.000Z</time>
</trkpt>
<trkpt lat="46.0941400" lon="10.4301730">
	<ele>1310.80</ele>
	<time>2024-07-25T07:08:48.000Z</time>
</trkpt>
<trkpt lat="46.0941410" lon="10.4301720">
	<ele>1310.80</ele>
	<time>2024-07-25T07:08:49.000Z</time>
</trkpt>
<trkpt lat="46.0941420" lon="10.4301710">
	<ele>1310.80</ele>
	<time>2024-07-25T07:08:50.000Z</time>
</trkpt>
<trkpt lat="46.0941430" lon="10.4301710">
	<ele>1310.80</ele>
	<time>2024-07-25T07:08:51.000Z</time>
</trkpt>
<trkpt lat="46.0941440" lon="10.4301710">
	<ele>1310.80</ele>
	<time>2024-07-25T07:08:52.000Z</time>
</trkpt>
<trkpt lat="46.0941440" lon="10.4301700">
	<ele>1310.80</ele>
	<time>2024-07-25T07:08:53.000Z</time>
</trkpt>
<trkpt lat="46.0941450" lon="10.4301700">
	<ele>1310.80</ele>
	<time>2024-07-25T07:08:54.000Z</time>
</trkpt>
<trkpt lat="46.0941460" lon="10.4301700">
	<ele>1310.80</ele>
	<time>2024-07-25T07:08:55.000Z</time>
</trkpt>
<trkpt lat="46.0941470" lon="10.4301700">
	<ele>1310.80</ele>
	<time>2024-07-25T07:08:56.000Z</time>
</trkpt>
<trkpt lat="46.0941500" lon="10.4301700">
	<ele>1310.80</ele>
	<time>2024-07-25T07:08:57.000Z</time>
</trkpt>
<trkpt lat="46.0941520" lon="10.4301700">
	<ele>1310.80</ele>
	<time>2024-07-25T07:08:58.000Z</time>
</trkpt>
<trkpt lat="46.0941540" lon="10.4301700">
	<ele>1310.80</ele>
	<time>2024-07-25T07:08:59.000Z</time>
</trkpt>
<trkpt lat="46.0941550" lon="10.4301700">
	<ele>1310.80</ele>
	<time>2024-07-25T07:09:00.000Z</time>
</trkpt>
<trkpt lat="46.0941550" lon="10.4301710">
	<ele>1310.80</ele>
	<time>2024-07-25T07:09:01.000Z</time>
</trkpt>
<trkpt lat="46.0941560" lon="10.4301720">
	<ele>1310.80</ele>
	<time>2024-07-25T07:09:02.000Z</time>
</trkpt>
<trkpt lat="46.0941560" lon="10.4301730">
	<ele>1310.80</ele>
	<time>2024-07-25T07:09:03.000Z</time>
</trkpt>
<trkpt lat="46.0941560" lon="10.4301740">
	<ele>1310.80</ele>
	<time>2024-07-25T07:09:04.000Z</time>
</trkpt>
<trkpt lat="46.0941570" lon="10.4301740">
	<ele>1310.80</ele>
	<time>2024-07-25T07:09:05.000Z</time>
</trkpt>
<trkpt lat="46.0941580" lon="10.4301750">
	<ele>1310.80</ele>
	<time>2024-07-25T07:09:06.000Z</time>
</trkpt>
<trkpt lat="46.0941590" lon="10.4301750">
	<ele>1310.80</ele>
	<time>2024-07-25T07:09:07.000Z</time>
</trkpt>
<trkpt lat="46.0941600" lon="10.4301750">
	<ele>1310.80</ele>
	<time>2024-07-25T07:09:08.000Z</time>
</trkpt>
<trkpt lat="46.0941610" lon="10.4301750">
	<ele>1310.80</ele>
	<time>2024-07-25T07:09:09.000Z</time>
</trkpt>
<trkpt lat="46.0941620" lon="10.4301750">
	<ele>1310.80</ele>
	<time>2024-07-25T07:09:10.000Z</time>
</trkpt>
<trkpt lat="46.0941630" lon="10.4301750">
	<ele>1310.80</ele>
	<time>2024-07-25T07:09:11.000Z</time>
</trkpt>
<trkpt lat="46.0941640" lon="10.4301750">
	<ele>1310.80</ele>
	<time>2024-07-25T07:09:12.000Z</time>
</trkpt>
<trkpt lat="46.0941650" lon="10.4301750">
	<ele>1310.80</ele>
	<time>2024-07-25T07:09:13.000Z</time>
</trkpt>
<trkpt lat="46.0941660" lon="10.4301750">
	<ele>1310.80</ele>
	<time>2024-07-25T07:09:14.000Z</time>
</trkpt>
<trkpt lat="46.0941670" lon="10.4301750">
	<ele>1310.80</ele>
	<time>2024-07-25T07:09:15.000Z</time>
</trkpt>
<trkpt lat="46.0941680" lon="10.4301750">
	<ele>1310.80</ele>
	<time>2024-07-25T07:09:16.000Z</time>
</trkpt>
<trkpt lat="46.0941680" lon="10.4301750">
	<ele>1310.80</ele>
	<time>2024-07-25T07:09:17.000Z</time>
</trkpt>
<trkpt lat="46.0941690" lon="10.4301740">
	<ele>1310.80</ele>
	<time>2024-07-25T07:09:18.000Z</time>
</trkpt>
<trkpt lat="46.0941690" lon="10.4301700">
	<ele>1310.80</ele>
	<time>2024-07-25T07:09:19.000Z</time>
</trkpt>
<trkpt lat="46.0941710" lon="10.4301660">
	<ele>1310.80</ele>
	<time>2024-07-25T07:09:20.000Z</time>
</trkpt>
<trkpt lat="46.0941740" lon="10.4301630">
	<ele>1310.80</ele>
	<time>2024-07-25T07:09:21.000Z</time>
</trkpt>
<trkpt lat="46.0941770" lon="10.4301600">
	<ele>1310.80</ele>
	<time>2024-07-25T07:09:22.000Z</time>
</trkpt>
<trkpt lat="46.0941820" lon="10.4301570">
	<ele>1310.80</ele>
	<time>2024-07-25T07:09:23.000Z</time>
</trkpt>
<trkpt lat="46.0941860" lon="10.4301540">
	<ele>1310.80</ele>
	<time>2024-07-25T07:09:24.000Z</time>
</trkpt>
<trkpt lat="46.0941920" lon="10.4301530">
	<ele>1310.80</ele>
	<time>2024-07-25T07:09:25.000Z</time>
</trkpt>
<trkpt lat="46.0942020" lon="10.4301530">
	<ele>1310.80</ele>
	<time>2024-07-25T07:09:26.000Z</time>
</trkpt>
<trkpt lat="46.0942120" lon="10.4301550">
	<ele>1310.80</ele>
	<time>2024-07-25T07:09:27.000Z</time>
</trkpt>
<trkpt lat="46.0942280" lon="10.4301530">
	<ele>1310.80</ele>
	<time>2024-07-25T07:09:28.000Z</time>
</trkpt>
<trkpt lat="46.0942430" lon="10.4301500">
	<ele>1310.80</ele>
	<time>2024-07-25T07:09:29.000Z</time>
</trkpt>
<trkpt lat="46.0942560" lon="10.4301510">
	<ele>1310.80</ele>
	<time>2024-07-25T07:09:30.000Z</time>
</trkpt>
<trkpt lat="46.0942700" lon="10.4301540">
	<ele>1310.80</ele>
	<time>2024-07-25T07:09:31.000Z</time>
</trkpt>
<trkpt lat="46.0942870" lon="10.4301610">
	<ele>1310.80</ele>
	<time>2024-07-25T07:09:32.000Z</time>
</trkpt>
<trkpt lat="46.0943040" lon="10.4301720">
	<ele>1310.80</ele>
	<time>2024-07-25T07:09:33.000Z</time>
</trkpt>
<trkpt lat="46.0943220" lon="10.4301790">
	<ele>1310.80</ele>
	<time>2024-07-25T07:09:34.000Z</time>
</trkpt>
<trkpt lat="46.0943280" lon="10.4301910">
	<ele>1310.80</ele>
	<time>2024-07-25T07:09:35.000Z</time>
</trkpt>
<trkpt lat="46.0943310" lon="10.4302050">
	<ele>1310.80</ele>
	<time>2024-07-25T07:09:36.000Z</time>
</trkpt>
<trkpt lat="46.0943290" lon="10.4302190">
	<ele>1310.80</ele>
	<time>2024-07-25T07:09:37.000Z</time>
</trkpt>
<trkpt lat="46.0943270" lon="10.4302310">
	<ele>1310.80</ele>
	<time>2024-07-25T07:09:38.000Z</time>
</trkpt>
<trkpt lat="46.0943250" lon="10.4302440">
	<ele>1310.80</ele>
	<time>2024-07-25T07:09:39.000Z</time>
</trkpt>
<trkpt lat="46.0943260" lon="10.4302550">
	<ele>1311.60</ele>
	<time>2024-07-25T07:09:40.000Z</time>
</trkpt>
<trkpt lat="46.0943240" lon="10.4302660">
	<ele>1312.00</ele>
	<time>2024-07-25T07:09:41.000Z</time>
</trkpt>
<trkpt lat="46.0943210" lon="10.4302800">
	<ele>1312.20</ele>
	<time>2024-07-25T07:09:42.000Z</time>
</trkpt>
<trkpt lat="46.0943160" lon="10.4302960">
	<ele>1312.40</ele>
	<time>2024-07-25T07:09:43.000Z</time>
</trkpt>
<trkpt lat="46.0943130" lon="10.4303150">
	<ele>1312.60</ele>
	<time>2024-07-25T07:09:44.000Z</time>
</trkpt>
<trkpt lat="46.0943130" lon="10.4303300">
	<ele>1312.60</ele>
	<time>2024-07-25T07:09:45.000Z</time>
</trkpt>
<trkpt lat="46.0943110" lon="10.4303390">
	<ele>1312.80</ele>
	<time>2024-07-25T07:09:46.000Z</time>
</trkpt>
<trkpt lat="46.0943100" lon="10.4303490">
	<ele>1313.00</ele>
	<time>2024-07-25T07:09:47.000Z</time>
</trkpt>
<trkpt lat="46.0943100" lon="10.4303650">
	<ele>1313.20</ele>
	<time>2024-07-25T07:09:48.000Z</time>
</trkpt>
<trkpt lat="46.0943110" lon="10.4303760">
	<ele>1313.40</ele>
	<time>2024-07-25T07:09:49.000Z</time>
</trkpt>
<trkpt lat="46.0943070" lon="10.4303890">
	<ele>1313.40</ele>
	<time>2024-07-25T07:09:50.000Z</time>
</trkpt>
<trkpt lat="46.0943040" lon="10.4304040">
	<ele>1313.60</ele>
	<time>2024-07-25T07:09:51.000Z</time>
</trkpt>
<trkpt lat="46.0942980" lon="10.4304170">
	<ele>1313.80</ele>
	<time>2024-07-25T07:09:52.000Z</time>
</trkpt>
<trkpt lat="46.0942910" lon="10.4304300">
	<ele>1313.80</ele>
	<time>2024-07-25T07:09:53.000Z</time>
</trkpt>
<trkpt lat="46.0942840" lon="10.4304380">
	<ele>1313.80</ele>
	<time>2024-07-25T07:09:54.000Z</time>
</trkpt>
<trkpt lat="46.0942790" lon="10.4304460">
	<ele>1314.00</ele>
	<time>2024-07-25T07:09:55.000Z</time>
</trkpt>
<trkpt lat="46.0942680" lon="10.4304520">
	<ele>1314.20</ele>
	<time>2024-07-25T07:09:56.000Z</time>
</trkpt>
<trkpt lat="46.0942660" lon="10.4304650">
	<ele>1314.40</ele>
	<time>2024-07-25T07:09:57.000Z</time>
</trkpt>
<trkpt lat="46.0942640" lon="10.4304800">
	<ele>1314.60</ele>
	<time>2024-07-25T07:09:58.000Z</time>
</trkpt>
<trkpt lat="46.0942600" lon="10.4304960">
	<ele>1314.60</ele>
	<time>2024-07-25T07:09:59.000Z</time>
</trkpt>
<trkpt lat="46.0942580" lon="10.4305140">
	<ele>1314.80</ele>
	<time>2024-07-25T07:10:00.000Z</time>
</trkpt>
<trkpt lat="46.0942570" lon="10.4305340">
	<ele>1315.00</ele>
	<time>2024-07-25T07:10:01.000Z</time>
</trkpt>
<trkpt lat="46.0942550" lon="10.4305540">
	<ele>1315.20</ele>
	<time>2024-07-25T07:10:02.000Z</time>
</trkpt>
<trkpt lat="46.0942530" lon="10.4305730">
	<ele>1315.20</ele>
	<time>2024-07-25T07:10:03.000Z</time>
</trkpt>
<trkpt lat="46.0942520" lon="10.4305940">
	<ele>1315.40</ele>
	<time>2024-07-25T07:10:04.000Z</time>
</trkpt>
<trkpt lat="46.0942520" lon="10.4306150">
	<ele>1315.40</ele>
	<time>2024-07-25T07:10:05.000Z</time>
</trkpt>
<trkpt lat="46.0942530" lon="10.4306330">
	<ele>1315.60</ele>
	<time>2024-07-25T07:10:06.000Z</time>
</trkpt>
<trkpt lat="46.0942590" lon="10.4306510">
	<ele>1315.80</ele>
	<time>2024-07-25T07:10:07.000Z</time>
</trkpt>
<trkpt lat="46.0942640" lon="10.4306690">
	<ele>1316.00</ele>
	<time>2024-07-25T07:10:08.000Z</time>
</trkpt>
<trkpt lat="46.0942660" lon="10.4306880">
	<ele>1316.20</ele>
	<time>2024-07-25T07:10:09.000Z</time>
</trkpt>
<trkpt lat="46.0942680" lon="10.4307100">
	<ele>1316.40</ele>
	<time>2024-07-25T07:10:10.000Z</time>
</trkpt>
<trkpt lat="46.0942700" lon="10.4307310">
	<ele>1316.40</ele>
	<time>2024-07-25T07:10:11.000Z</time>
</trkpt>
<trkpt lat="46.0942700" lon="10.4307540">
	<ele>1316.60</ele>
	<time>2024-07-25T07:10:12.000Z</time>
</trkpt>
<trkpt lat="46.0942710" lon="10.4307760">
	<ele>1316.60</ele>
	<time>2024-07-25T07:10:13.000Z</time>
</trkpt>
<trkpt lat="46.0942750" lon="10.4307960">
	<ele>1316.80</ele>
	<time>2024-07-25T07:10:14.000Z</time>
</trkpt>
<trkpt lat="46.0942810" lon="10.4308200">
	<ele>1317.00</ele>
	<time>2024-07-25T07:10:15.000Z</time>
</trkpt>
<trkpt lat="46.0942860" lon="10.4308440">
	<ele>1317.20</ele>
	<time>2024-07-25T07:10:16.000Z</time>
</trkpt>
<trkpt lat="46.0942900" lon="10.4308640">
	<ele>1317.40</ele>
	<time>2024-07-25T07:10:17.000Z</time>
</trkpt>
<trkpt lat="46.0942910" lon="10.4308830">
	<ele>1317.60</ele>
	<time>2024-07-25T07:10:18.000Z</time>
</trkpt>
<trkpt lat="46.0942900" lon="10.4309030">
	<ele>1317.80</ele>
	<time>2024-07-25T07:10:19.000Z</time>
</trkpt>
<trkpt lat="46.0942890" lon="10.4309230">
	<ele>1317.80</ele>
	<time>2024-07-25T07:10:20.000Z</time>
</trkpt>
<trkpt lat="46.0942860" lon="10.4309430">
	<ele>1318.00</ele>
	<time>2024-07-25T07:10:21.000Z</time>
</trkpt>
<trkpt lat="46.0942850" lon="10.4309610">
	<ele>1318.00</ele>
	<time>2024-07-25T07:10:22.000Z</time>
</trkpt>
<trkpt lat="46.0942810" lon="10.4309800">
	<ele>1318.20</ele>
	<time>2024-07-25T07:10:23.000Z</time>
</trkpt>
<trkpt lat="46.0942780" lon="10.4309970">
	<ele>1318.40</ele>
	<time>2024-07-25T07:10:24.000Z</time>
</trkpt>
<trkpt lat="46.0942740" lon="10.4310120">
	<ele>1318.60</ele>
	<time>2024-07-25T07:10:25.000Z</time>
</trkpt>
<trkpt lat="46.0942690" lon="10.4310290">
	<ele>1318.80</ele>
	<time>2024-07-25T07:10:26.000Z</time>
</trkpt>
<trkpt lat="46.0942640" lon="10.4310410">
	<ele>1319.00</ele>
	<time>2024-07-25T07:10:27.000Z</time>
</trkpt>
<trkpt lat="46.0942560" lon="10.4310550">
	<ele>1319.20</ele>
	<time>2024-07-25T07:10:28.000Z</time>
</trkpt>
<trkpt lat="46.0942500" lon="10.4310710">
	<ele>1319.40</ele>
	<time>2024-07-25T07:10:29.000Z</time>
</trkpt>
<trkpt lat="46.0942460" lon="10.4310890">
	<ele>1319.60</ele>
	<time>2024-07-25T07:10:30.000Z</time>
</trkpt>
<trkpt lat="46.0942420" lon="10.4311090">
	<ele>1319.80</ele>
	<time>2024-07-25T07:10:31.000Z</time>
</trkpt>
<trkpt lat="46.0942410" lon="10.4311280">
	<ele>1319.80</ele>
	<time>2024-07-25T07:10:32.000Z</time>
</trkpt>
<trkpt lat="46.0942380" lon="10.4311480">
	<ele>1320.00</ele>
	<time>2024-07-25T07:10:33.000Z</time>
</trkpt>
<trkpt lat="46.0942360" lon="10.4311670">
	<ele>1320.20</ele>
	<time>2024-07-25T07:10:34.000Z</time>
</trkpt>
<trkpt lat="46.0942340" lon="10.4311850">
	<ele>1320.20</ele>
	<time>2024-07-25T07:10:35.000Z</time>
</trkpt>
<trkpt lat="46.0942280" lon="10.4312110">
	<ele>1320.40</ele>
	<time>2024-07-25T07:10:36.000Z</time>
</trkpt>
<trkpt lat="46.0942270" lon="10.4312310">
	<ele>1320.60</ele>
	<time>2024-07-25T07:10:37.000Z</time>
</trkpt>
<trkpt lat="46.0942240" lon="10.4312510">
	<ele>1320.80</ele>
	<time>2024-07-25T07:10:38.000Z</time>
</trkpt>
<trkpt lat="46.0942230" lon="10.4312730">
	<ele>1320.80</ele>
	<time>2024-07-25T07:10:39.000Z</time>
</trkpt>
<trkpt lat="46.0942220" lon="10.4312930">
	<ele>1321.00</ele>
	<time>2024-07-25T07:10:40.000Z</time>
</trkpt>
<trkpt lat="46.0942250" lon="10.4313110">
	<ele>1321.20</ele>
	<time>2024-07-25T07:10:41.000Z</time>
</trkpt>
<trkpt lat="46.0942210" lon="10.4313290">
	<ele>1321.40</ele>
	<time>2024-07-25T07:10:42.000Z</time>
</trkpt>
<trkpt lat="46.0942220" lon="10.4313460">
	<ele>1321.60</ele>
	<time>2024-07-25T07:10:43.000Z</time>
</trkpt>
<trkpt lat="46.0942200" lon="10.4313630">
	<ele>1321.80</ele>
	<time>2024-07-25T07:10:44.000Z</time>
</trkpt>
<trkpt lat="46.0942170" lon="10.4313800">
	<ele>1322.00</ele>
	<time>2024-07-25T07:10:45.000Z</time>
</trkpt>
<trkpt lat="46.0942130" lon="10.4314000">
	<ele>1322.00</ele>
	<time>2024-07-25T07:10:46.000Z</time>
</trkpt>
<trkpt lat="46.0942100" lon="10.4314230">
	<ele>1322.00</ele>
	<time>2024-07-25T07:10:47.000Z</time>
</trkpt>
<trkpt lat="46.0942070" lon="10.4314470">
	<ele>1322.20</ele>
	<time>2024-07-25T07:10:48.000Z</time>
</trkpt>
<trkpt lat="46.0942050" lon="10.4314680">
	<ele>1322.20</ele>
	<time>2024-07-25T07:10:49.000Z</time>
</trkpt>
<trkpt lat="46.0942050" lon="10.4314860">
	<ele>1322.40</ele>
	<time>2024-07-25T07:10:50.000Z</time>
</trkpt>
<trkpt lat="46.0942040" lon="10.4315060">
	<ele>1322.60</ele>
	<time>2024-07-25T07:10:51.000Z</time>
</trkpt>
<trkpt lat="46.0942030" lon="10.4315290">
	<ele>1322.80</ele>
	<time>2024-07-25T07:10:52.000Z</time>
</trkpt>
<trkpt lat="46.0942010" lon="10.4315580">
	<ele>1323.00</ele>
	<time>2024-07-25T07:10:53.000Z</time>
</trkpt>
<trkpt lat="46.0941990" lon="10.4315760">
	<ele>1323.00</ele>
	<time>2024-07-25T07:10:54.000Z</time>
</trkpt>
<trkpt lat="46.0942020" lon="10.4315960">
	<ele>1323.20</ele>
	<time>2024-07-25T07:10:55.000Z</time>
</trkpt>
<trkpt lat="46.0942050" lon="10.4316130">
	<ele>1323.20</ele>
	<time>2024-07-25T07:10:56.000Z</time>
</trkpt>
<trkpt lat="46.0942120" lon="10.4316290">
	<ele>1323.40</ele>
	<time>2024-07-25T07:10:57.000Z</time>
</trkpt>
<trkpt lat="46.0942170" lon="10.4316490">
	<ele>1323.60</ele>
	<time>2024-07-25T07:10:58.000Z</time>
</trkpt>
<trkpt lat="46.0942220" lon="10.4316680">
	<ele>1323.80</ele>
	<time>2024-07-25T07:10:59.000Z</time>
</trkpt>
<trkpt lat="46.0942230" lon="10.4316830">
	<ele>1324.00</ele>
	<time>2024-07-25T07:11:00.000Z</time>
</trkpt>
<trkpt lat="46.0942290" lon="10.4317050">
	<ele>1324.00</ele>
	<time>2024-07-25T07:11:01.000Z</time>
</trkpt>
<trkpt lat="46.0942330" lon="10.4317270">
	<ele>1324.40</ele>
	<time>2024-07-25T07:11:02.000Z</time>
</trkpt>
<trkpt lat="46.0942410" lon="10.4317440">
	<ele>1324.60</ele>
	<time>2024-07-25T07:11:03.000Z</time>
</trkpt>
<trkpt lat="46.0942470" lon="10.4317640">
	<ele>1324.80</ele>
	<time>2024-07-25T07:11:04.000Z</time>
</trkpt>
<trkpt lat="46.0942520" lon="10.4317840">
	<ele>1324.80</ele>
	<time>2024-07-25T07:11:05.000Z</time>
</trkpt>
<trkpt lat="46.0942600" lon="10.4318030">
	<ele>1325.00</ele>
	<time>2024-07-25T07:11:06.000Z</time>
</trkpt>
<trkpt lat="46.0942660" lon="10.4318240">
	<ele>1325.00</ele>
	<time>2024-07-25T07:11:07.000Z</time>
</trkpt>
<trkpt lat="46.0942710" lon="10.4318400">
	<ele>1325.00</ele>
	<time>2024-07-25T07:11:08.000Z</time>
</trkpt>
<trkpt lat="46.0942730" lon="10.4318540">
	<ele>1325.20</ele>
	<time>2024-07-25T07:11:09.000Z</time>
</trkpt>
<trkpt lat="46.0942740" lon="10.4318730">
	<ele>1325.20</ele>
	<time>2024-07-25T07:11:10.000Z</time>
</trkpt>
<trkpt lat="46.0942760" lon="10.4318930">
	<ele>1325.40</ele>
	<time>2024-07-25T07:11:11.000Z</time>
</trkpt>
<trkpt lat="46.0942780" lon="10.4319170">
	<ele>1325.40</ele>
	<time>2024-07-25T07:11:12.000Z</time>
</trkpt>
<trkpt lat="46.0942790" lon="10.4319390">
	<ele>1325.60</ele>
	<time>2024-07-25T07:11:13.000Z</time>
</trkpt>
<trkpt lat="46.0942800" lon="10.4319610">
	<ele>1325.80</ele>
	<time>2024-07-25T07:11:14.000Z</time>
</trkpt>
<trkpt lat="46.0942840" lon="10.4319830">
	<ele>1326.00</ele>
	<time>2024-07-25T07:11:15.000Z</time>
</trkpt>
<trkpt lat="46.0942880" lon="10.4319990">
	<ele>1326.20</ele>
	<time>2024-07-25T07:11:16.000Z</time>
</trkpt>
<trkpt lat="46.0942890" lon="10.4320200">
	<ele>1326.40</ele>
	<time>2024-07-25T07:11:17.000Z</time>
</trkpt>
<trkpt lat="46.0942900" lon="10.4320440">
	<ele>1326.40</ele>
	<time>2024-07-25T07:11:18.000Z</time>
</trkpt>
<trkpt lat="46.0942910" lon="10.4320610">
	<ele>1326.40</ele>
	<time>2024-07-25T07:11:19.000Z</time>
</trkpt>
<trkpt lat="46.0942920" lon="10.4320770">
	<ele>1326.60</ele>
	<time>2024-07-25T07:11:20.000Z</time>
</trkpt>
<trkpt lat="46.0942970" lon="10.4320940">
	<ele>1326.80</ele>
	<time>2024-07-25T07:11:21.000Z</time>
</trkpt>
<trkpt lat="46.0942960" lon="10.4321090">
	<ele>1326.80</ele>
	<time>2024-07-25T07:11:22.000Z</time>
</trkpt>
<trkpt lat="46.0942950" lon="10.4321300">
	<ele>1327.00</ele>
	<time>2024-07-25T07:11:23.000Z</time>
</trkpt>
<trkpt lat="46.0942940" lon="10.4321500">
	<ele>1327.00</ele>
	<time>2024-07-25T07:11:24.000Z</time>
</trkpt>
<trkpt lat="46.0942940" lon="10.4321690">
	<ele>1327.20</ele>
	<time>2024-07-25T07:11:25.000Z</time>
</trkpt>
<trkpt lat="46.0942940" lon="10.4321890">
	<ele>1327.20</ele>
	<time>2024-07-25T07:11:26.000Z</time>
</trkpt>
<trkpt lat="46.0942950" lon="10.4322090">
	<ele>1327.40</ele>
	<time>2024-07-25T07:11:27.000Z</time>
</trkpt>
<trkpt lat="46.0942920" lon="10.4322310">
	<ele>1327.60</ele>
	<time>2024-07-25T07:11:28.000Z</time>
</trkpt>
<trkpt lat="46.0942890" lon="10.4322500">
	<ele>1327.60</ele>
	<time>2024-07-25T07:11:29.000Z</time>
</trkpt>
<trkpt lat="46.0942870" lon="10.4322740">
	<ele>1327.80</ele>
	<time>2024-07-25T07:11:30.000Z</time>
</trkpt>
<trkpt lat="46.0942850" lon="10.4322890">
	<ele>1328.00</ele>
	<time>2024-07-25T07:11:31.000Z</time>
</trkpt>
<trkpt lat="46.0942840" lon="10.4323080">
	<ele>1328.00</ele>
	<time>2024-07-25T07:11:32.000Z</time>
</trkpt>
<trkpt lat="46.0942810" lon="10.4323250">
	<ele>1328.20</ele>
	<time>2024-07-25T07:11:33.000Z</time>
</trkpt>
<trkpt lat="46.0942810" lon="10.4323460">
	<ele>1328.20</ele>
	<time>2024-07-25T07:11:34.000Z</time>
</trkpt>
<trkpt lat="46.0942820" lon="10.4323660">
	<ele>1328.40</ele>
	<time>2024-07-25T07:11:35.000Z</time>
</trkpt>
<trkpt lat="46.0942830" lon="10.4323860">
	<ele>1328.60</ele>
	<time>2024-07-25T07:11:36.000Z</time>
</trkpt>
<trkpt lat="46.0942810" lon="10.4324080">
	<ele>1328.80</ele>
	<time>2024-07-25T07:11:37.000Z</time>
</trkpt>
<trkpt lat="46.0942790" lon="10.4324270">
	<ele>1329.00</ele>
	<time>2024-07-25T07:11:38.000Z</time>
</trkpt>
<trkpt lat="46.0942800" lon="10.4324490">
	<ele>1329.00</ele>
	<time>2024-07-25T07:11:39.000Z</time>
</trkpt>
<trkpt lat="46.0942780" lon="10.4324720">
	<ele>1329.40</ele>
	<time>2024-07-25T07:11:40.000Z</time>
</trkpt>
<trkpt lat="46.0942770" lon="10.4324890">
	<ele>1329.60</ele>
	<time>2024-07-25T07:11:41.000Z</time>
</trkpt>
<trkpt lat="46.0942790" lon="10.4325060">
	<ele>1329.60</ele>
	<time>2024-07-25T07:11:42.000Z</time>
</trkpt>
<trkpt lat="46.0942880" lon="10.4325150">
	<ele>1329.60</ele>
	<time>2024-07-25T07:11:43.000Z</time>
</trkpt>
<trkpt lat="46.0942970" lon="10.4325360">
	<ele>1329.80</ele>
	<time>2024-07-25T07:11:44.000Z</time>
</trkpt>
<trkpt lat="46.0943080" lon="10.4325640">
	<ele>1329.80</ele>
	<time>2024-07-25T07:11:45.000Z</time>
</trkpt>
<trkpt lat="46.0943150" lon="10.4325840">
	<ele>1330.00</ele>
	<time>2024-07-25T07:11:46.000Z</time>
</trkpt>
<trkpt lat="46.0943220" lon="10.4325950">
	<ele>1330.20</ele>
	<time>2024-07-25T07:11:47.000Z</time>
</trkpt>
<trkpt lat="46.0943260" lon="10.4326130">
	<ele>1330.40</ele>
	<time>2024-07-25T07:11:48.000Z</time>
</trkpt>
<trkpt lat="46.0943310" lon="10.4326310">
	<ele>1330.60</ele>
	<time>2024-07-25T07:11:49.000Z</time>
</trkpt>
<trkpt lat="46.0943370" lon="10.4326490">
	<ele>1330.60</ele>
	<time>2024-07-25T07:11:50.000Z</time>
</trkpt>
<trkpt lat="46.0943410" lon="10.4326610">
	<ele>1330.80</ele>
	<time>2024-07-25T07:11:51.000Z</time>
</trkpt>
<trkpt lat="46.0943490" lon="10.4326740">
	<ele>1331.00</ele>
	<time>2024-07-25T07:11:52.000Z</time>
</trkpt>
<trkpt lat="46.0943560" lon="10.4326870">
	<ele>1331.00</ele>
	<time>2024-07-25T07:11:53.000Z</time>
</trkpt>
<trkpt lat="46.0943570" lon="10.4327070">
	<ele>1331.20</ele>
	<time>2024-07-25T07:11:54.000Z</time>
</trkpt>
<trkpt lat="46.0943590" lon="10.4327230">
	<ele>1331.40</ele>
	<time>2024-07-25T07:11:55.000Z</time>
</trkpt>
<trkpt lat="46.0943640" lon="10.4327380">
	<ele>1331.40</ele>
	<time>2024-07-25T07:11:56.000Z</time>
</trkpt>
<trkpt lat="46.0943700" lon="10.4327520">
	<ele>1331.60</ele>
	<time>2024-07-25T07:11:57.000Z</time>
</trkpt>
<trkpt lat="46.0943730" lon="10.4327600">
	<ele>1331.80</ele>
	<time>2024-07-25T07:11:58.000Z</time>
</trkpt>
<trkpt lat="46.0943780" lon="10.4327780">
	<ele>1332.00</ele>
	<time>2024-07-25T07:11:59.000Z</time>
</trkpt>
<trkpt lat="46.0943800" lon="10.4327940">
	<ele>1332.00</ele>
	<time>2024-07-25T07:12:00.000Z</time>
</trkpt>
<trkpt lat="46.0943850" lon="10.4328180">
	<ele>1332.20</ele>
	<time>2024-07-25T07:12:01.000Z</time>
</trkpt>
<trkpt lat="46.0943910" lon="10.4328360">
	<ele>1332.40</ele>
	<time>2024-07-25T07:12:02.000Z</time>
</trkpt>
<trkpt lat="46.0943960" lon="10.4328530">
	<ele>1332.60</ele>
	<time>2024-07-25T07:12:03.000Z</time>
</trkpt>
<trkpt lat="46.0943980" lon="10.4328690">
	<ele>1332.80</ele>
	<time>2024-07-25T07:12:04.000Z</time>
</trkpt>
<trkpt lat="46.0944000" lon="10.4328830">
	<ele>1333.00</ele>
	<time>2024-07-25T07:12:05.000Z</time>
</trkpt>
<trkpt lat="46.0944030" lon="10.4328990">
	<ele>1333.20</ele>
	<time>2024-07-25T07:12:06.000Z</time>
</trkpt>
<trkpt lat="46.0944050" lon="10.4329160">
	<ele>1333.40</ele>
	<time>2024-07-25T07:12:07.000Z</time>
</trkpt>
<trkpt lat="46.0944080" lon="10.4329320">
	<ele>1333.40</ele>
	<time>2024-07-25T07:12:08.000Z</time>
</trkpt>
<trkpt lat="46.0944100" lon="10.4329490">
	<ele>1333.60</ele>
	<time>2024-07-25T07:12:09.000Z</time>
</trkpt>
<trkpt lat="46.0944120" lon="10.4329660">
	<ele>1333.80</ele>
	<time>2024-07-25T07:12:10.000Z</time>
</trkpt>
<trkpt lat="46.0944150" lon="10.4329820">
	<ele>1333.80</ele>
	<time>2024-07-25T07:12:11.000Z</time>
</trkpt>
<trkpt lat="46.0944150" lon="10.4329970">
	<ele>1334.00</ele>
	<time>2024-07-25T07:12:12.000Z</time>
</trkpt>
<trkpt lat="46.0944150" lon="10.4330170">
	<ele>1334.00</ele>
	<time>2024-07-25T07:12:13.000Z</time>
</trkpt>
<trkpt lat="46.0944150" lon="10.4330360">
	<ele>1334.20</ele>
	<time>2024-07-25T07:12:14.000Z</time>
</trkpt>
<trkpt lat="46.0944170" lon="10.4330550">
	<ele>1334.20</ele>
	<time>2024-07-25T07:12:15.000Z</time>
</trkpt>
<trkpt lat="46.0944200" lon="10.4330720">
	<ele>1334.40</ele>
	<time>2024-07-25T07:12:16.000Z</time>
</trkpt>
<trkpt lat="46.0944240" lon="10.4330880">
	<ele>1334.60</ele>
	<time>2024-07-25T07:12:17.000Z</time>
</trkpt>
<trkpt lat="46.0944270" lon="10.4331040">
	<ele>1334.60</ele>
	<time>2024-07-25T07:12:18.000Z</time>
</trkpt>
<trkpt lat="46.0944280" lon="10.4331250">
	<ele>1335.00</ele>
	<time>2024-07-25T07:12:19.000Z</time>
</trkpt>
<trkpt lat="46.0944270" lon="10.4331400">
	<ele>1335.20</ele>
	<time>2024-07-25T07:12:20.000Z</time>
</trkpt>
<trkpt lat="46.0944290" lon="10.4331560">
	<ele>1335.20</ele>
	<time>2024-07-25T07:12:21.000Z</time>
</trkpt>
<trkpt lat="46.0944310" lon="10.4331710">
	<ele>1335.40</ele>
	<time>2024-07-25T07:12:22.000Z</time>
</trkpt>
<trkpt lat="46.0944330" lon="10.4331900">
	<ele>1335.60</ele>
	<time>2024-07-25T07:12:23.000Z</time>
</trkpt>
<trkpt lat="46.0944360" lon="10.4332090">
	<ele>1335.80</ele>
	<time>2024-07-25T07:12:24.000Z</time>
</trkpt>
<trkpt lat="46.0944360" lon="10.4332300">
	<ele>1335.80</ele>
	<time>2024-07-25T07:12:25.000Z</time>
</trkpt>
<trkpt lat="46.0944390" lon="10.4332500">
	<ele>1336.00</ele>
	<time>2024-07-25T07:12:26.000Z</time>
</trkpt>
<trkpt lat="46.0944410" lon="10.4332650">
	<ele>1336.40</ele>
	<time>2024-07-25T07:12:27.000Z</time>
</trkpt>
<trkpt lat="46.0944450" lon="10.4332790">
	<ele>1336.60</ele>
	<time>2024-07-25T07:12:28.000Z</time>
</trkpt>
<trkpt lat="46.0944470" lon="10.4332990">
	<ele>1336.60</ele>
	<time>2024-07-25T07:12:29.000Z</time>
</trkpt>
<trkpt lat="46.0944480" lon="10.4333180">
	<ele>1336.80</ele>
	<time>2024-07-25T07:12:30.000Z</time>
</trkpt>
<trkpt lat="46.0944510" lon="10.4333370">
	<ele>1336.80</ele>
	<time>2024-07-25T07:12:31.000Z</time>
</trkpt>
<trkpt lat="46.0944520" lon="10.4333540">
	<ele>1337.00</ele>
	<time>2024-07-25T07:12:32.000Z</time>
</trkpt>
<trkpt lat="46.0944560" lon="10.4333750">
	<ele>1337.20</ele>
	<time>2024-07-25T07:12:33.000Z</time>
</trkpt>
<trkpt lat="46.0944550" lon="10.4333940">
	<ele>1337.40</ele>
	<time>2024-07-25T07:12:34.000Z</time>
</trkpt>
<trkpt lat="46.0944570" lon="10.4334090">
	<ele>1337.40</ele>
	<time>2024-07-25T07:12:35.000Z</time>
</trkpt>
<trkpt lat="46.0944580" lon="10.4334230">
	<ele>1337.40</ele>
	<time>2024-07-25T07:12:36.000Z</time>
</trkpt>
<trkpt lat="46.0944610" lon="10.4334400">
	<ele>1337.40</ele>
	<time>2024-07-25T07:12:37.000Z</time>
</trkpt>
<trkpt lat="46.0944630" lon="10.4334590">
	<ele>1337.60</ele>
	<time>2024-07-25T07:12:38.000Z</time>
</trkpt>
<trkpt lat="46.0944650" lon="10.4334750">
	<ele>1337.80</ele>
	<time>2024-07-25T07:12:39.000Z</time>
</trkpt>
<trkpt lat="46.0944660" lon="10.4334950">
	<ele>1337.80</ele>
	<time>2024-07-25T07:12:40.000Z</time>
</trkpt>
<trkpt lat="46.0944690" lon="10.4335110">
	<ele>1338.00</ele>
	<time>2024-07-25T07:12:41.000Z</time>
</trkpt>
<trkpt lat="46.0944710" lon="10.4335360">
	<ele>1338.00</ele>
	<time>2024-07-25T07:12:42.000Z</time>
</trkpt>
<trkpt lat="46.0944720" lon="10.4335600">
	<ele>1338.20</ele>
	<time>2024-07-25T07:12:43.000Z</time>
</trkpt>
<trkpt lat="46.0944740" lon="10.4335790">
	<ele>1338.40</ele>
	<time>2024-07-25T07:12:44.000Z</time>
</trkpt>
<trkpt lat="46.0944770" lon="10.4335980">
	<ele>1338.60</ele>
	<time>2024-07-25T07:12:45.000Z</time>
</trkpt>
<trkpt lat="46.0944770" lon="10.4336100">
	<ele>1338.80</ele>
	<time>2024-07-25T07:12:46.000Z</time>
</trkpt>
<trkpt lat="46.0944780" lon="10.4336260">
	<ele>1338.80</ele>
	<time>2024-07-25T07:12:47.000Z</time>
</trkpt>
<trkpt lat="46.0944770" lon="10.4336460">
	<ele>1339.00</ele>
	<time>2024-07-25T07:12:48.000Z</time>
</trkpt>
<trkpt lat="46.0944780" lon="10.4336630">
	<ele>1339.20</ele>
	<time>2024-07-25T07:12:49.000Z</time>
</trkpt>
<trkpt lat="46.0944810" lon="10.4336820">
	<ele>1339.20</ele>
	<time>2024-07-25T07:12:50.000Z</time>
</trkpt>
<trkpt lat="46.0944820" lon="10.4337010">
	<ele>1339.40</ele>
	<time>2024-07-25T07:12:51.000Z</time>
</trkpt>
<trkpt lat="46.0944840" lon="10.4337180">
	<ele>1339.40</ele>
	<time>2024-07-25T07:12:52.000Z</time>
</trkpt>
<trkpt lat="46.0944820" lon="10.4337320">
	<ele>1339.60</ele>
	<time>2024-07-25T07:12:53.000Z</time>
</trkpt>
<trkpt lat="46.0944810" lon="10.4337500">
	<ele>1339.80</ele>
	<time>2024-07-25T07:12:54.000Z</time>
</trkpt>
<trkpt lat="46.0944810" lon="10.4337730">
	<ele>1340.00</ele>
	<time>2024-07-25T07:12:55.000Z</time>
</trkpt>
<trkpt lat="46.0944810" lon="10.4337990">
	<ele>1340.20</ele>
	<time>2024-07-25T07:12:56.000Z</time>
</trkpt>
<trkpt lat="46.0944780" lon="10.4338180">
	<ele>1340.20</ele>
	<time>2024-07-25T07:12:57.000Z</time>
</trkpt>
<trkpt lat="46.0944780" lon="10.4338330">
	<ele>1340.40</ele>
	<time>2024-07-25T07:12:58.000Z</time>
</trkpt>
<trkpt lat="46.0944780" lon="10.4338490">
	<ele>1340.60</ele>
	<time>2024-07-25T07:12:59.000Z</time>
</trkpt>
<trkpt lat="46.0944780" lon="10.4338680">
	<ele>1340.60</ele>
	<time>2024-07-25T07:13:00.000Z</time>
</trkpt>
<trkpt lat="46.0944790" lon="10.4338880">
	<ele>1340.60</ele>
	<time>2024-07-25T07:13:01.000Z</time>
</trkpt>
<trkpt lat="46.0944790" lon="10.4339040">
	<ele>1341.00</ele>
	<time>2024-07-25T07:13:02.000Z</time>
</trkpt>
<trkpt lat="46.0944780" lon="10.4339300">
	<ele>1341.20</ele>
	<time>2024-07-25T07:13:03.000Z</time>
</trkpt>
<trkpt lat="46.0944820" lon="10.4339510">
	<ele>1341.40</ele>
	<time>2024-07-25T07:13:04.000Z</time>
</trkpt>
<trkpt lat="46.0944860" lon="10.4339670">
	<ele>1341.60</ele>
	<time>2024-07-25T07:13:05.000Z</time>
</trkpt>
<trkpt lat="46.0944850" lon="10.4339820">
	<ele>1341.60</ele>
	<time>2024-07-25T07:13:06.000Z</time>
</trkpt>
<trkpt lat="46.0944830" lon="10.4339980">
	<ele>1341.80</ele>
	<time>2024-07-25T07:13:07.000Z</time>
</trkpt>
<trkpt lat="46.0944820" lon="10.4340150">
	<ele>1341.80</ele>
	<time>2024-07-25T07:13:08.000Z</time>
</trkpt>
<trkpt lat="46.0944840" lon="10.4340400">
	<ele>1342.00</ele>
	<time>2024-07-25T07:13:09.000Z</time>
</trkpt>
<trkpt lat="46.0944840" lon="10.4340610">
	<ele>1342.20</ele>
	<time>2024-07-25T07:13:10.000Z</time>
</trkpt>
<trkpt lat="46.0944860" lon="10.4340760">
	<ele>1342.20</ele>
	<time>2024-07-25T07:13:11.000Z</time>
</trkpt>
<trkpt lat="46.0944910" lon="10.4341010">
	<ele>1342.20</ele>
	<time>2024-07-25T07:13:12.000Z</time>
</trkpt>
<trkpt lat="46.0944930" lon="10.4341240">
	<ele>1342.40</ele>
	<time>2024-07-25T07:13:13.000Z</time>
</trkpt>
<trkpt lat="46.0944920" lon="10.4341420">
	<ele>1342.60</ele>
	<time>2024-07-25T07:13:14.000Z</time>
</trkpt>
<trkpt lat="46.0944970" lon="10.4341600">
	<ele>1342.80</ele>
	<time>2024-07-25T07:13:15.000Z</time>
</trkpt>
<trkpt lat="46.0944990" lon="10.4341740">
	<ele>1343.00</ele>
	<time>2024-07-25T07:13:16.000Z</time>
</trkpt>
<trkpt lat="46.0944990" lon="10.4341930">
	<ele>1343.00</ele>
	<time>2024-07-25T07:13:17.000Z</time>
</trkpt>
<trkpt lat="46.0945030" lon="10.4342080">
	<ele>1343.20</ele>
	<time>2024-07-25T07:13:18.000Z</time>
</trkpt>
<trkpt lat="46.0945060" lon="10.4342260">
	<ele>1343.40</ele>
	<time>2024-07-25T07:13:19.000Z</time>
</trkpt>
<trkpt lat="46.0945100" lon="10.4342430">
	<ele>1343.40</ele>
	<time>2024-07-25T07:13:20.000Z</time>
</trkpt>
<trkpt lat="46.0945120" lon="10.4342650">
	<ele>1343.40</ele>
	<time>2024-07-25T07:13:21.000Z</time>
</trkpt>
<trkpt lat="46.0945140" lon="10.4342800">
	<ele>1343.60</ele>
	<time>2024-07-25T07:13:22.000Z</time>
</trkpt>
<trkpt lat="46.0945180" lon="10.4342930">
	<ele>1343.80</ele>
	<time>2024-07-25T07:13:23.000Z</time>
</trkpt>
<trkpt lat="46.0945220" lon="10.4343090">
	<ele>1344.00</ele>
	<time>2024-07-25T07:13:24.000Z</time>
</trkpt>
<trkpt lat="46.0945270" lon="10.4343260">
	<ele>1344.20</ele>
	<time>2024-07-25T07:13:25.000Z</time>
</trkpt>
<trkpt lat="46.0945310" lon="10.4343430">
	<ele>1344.40</ele>
	<time>2024-07-25T07:13:26.000Z</time>
</trkpt>
<trkpt lat="46.0945380" lon="10.4343620">
	<ele>1344.60</ele>
	<time>2024-07-25T07:13:27.000Z</time>
</trkpt>
<trkpt lat="46.0945430" lon="10.4343840">
	<ele>1344.60</ele>
	<time>2024-07-25T07:13:28.000Z</time>
</trkpt>
<trkpt lat="46.0945490" lon="10.4344040">
	<ele>1344.80</ele>
	<time>2024-07-25T07:13:29.000Z</time>
</trkpt>
<trkpt lat="46.0945530" lon="10.4344230">
	<ele>1345.00</ele>
	<time>2024-07-25T07:13:30.000Z</time>
</trkpt>
<trkpt lat="46.0945570" lon="10.4344390">
	<ele>1345.00</ele>
	<time>2024-07-25T07:13:31.000Z</time>
</trkpt>
<trkpt lat="46.0945590" lon="10.4344560">
	<ele>1345.20</ele>
	<time>2024-07-25T07:13:32.000Z</time>
</trkpt>
<trkpt lat="46.0945640" lon="10.4344690">
	<ele>1345.20</ele>
	<time>2024-07-25T07:13:33.000Z</time>
</trkpt>
<trkpt lat="46.0945700" lon="10.4344820">
	<ele>1345.40</ele>
	<time>2024-07-25T07:13:34.000Z</time>
</trkpt>
<trkpt lat="46.0945740" lon="10.4344960">
	<ele>1345.60</ele>
	<time>2024-07-25T07:13:35.000Z</time>
</trkpt>
<trkpt lat="46.0945770" lon="10.4345150">
	<ele>1345.80</ele>
	<time>2024-07-25T07:13:36.000Z</time>
</trkpt>
<trkpt lat="46.0945830" lon="10.4345330">
	<ele>1346.00</ele>
	<time>2024-07-25T07:13:37.000Z</time>
</trkpt>
<trkpt lat="46.0945890" lon="10.4345480">
	<ele>1346.00</ele>
	<time>2024-07-25T07:13:38.000Z</time>
</trkpt>
<trkpt lat="46.0945940" lon="10.4345610">
	<ele>1346.20</ele>
	<time>2024-07-25T07:13:39.000Z</time>
</trkpt>
<trkpt lat="46.0946010" lon="10.4345810">
	<ele>1346.20</ele>
	<time>2024-07-25T07:13:40.000Z</time>
</trkpt>
<trkpt lat="46.0946040" lon="10.4345970">
	<ele>1346.40</ele>
	<time>2024-07-25T07:13:41.000Z</time>
</trkpt>
<trkpt lat="46.0946100" lon="10.4346120">
	<ele>1346.60</ele>
	<time>2024-07-25T07:13:42.000Z</time>
</trkpt>
<trkpt lat="46.0946160" lon="10.4346230">
	<ele>1346.80</ele>
	<time>2024-07-25T07:13:43.000Z</time>
</trkpt>
<trkpt lat="46.0946180" lon="10.4346410">
	<ele>1346.80</ele>
	<time>2024-07-25T07:13:44.000Z</time>
</trkpt>
<trkpt lat="46.0946220" lon="10.4346560">
	<ele>1347.00</ele>
	<time>2024-07-25T07:13:45.000Z</time>
</trkpt>
<trkpt lat="46.0946230" lon="10.4346760">
	<ele>1347.20</ele>
	<time>2024-07-25T07:13:46.000Z</time>
</trkpt>
<trkpt lat="46.0946260" lon="10.4346950">
	<ele>1347.20</ele>
	<time>2024-07-25T07:13:47.000Z</time>
</trkpt>
<trkpt lat="46.0946310" lon="10.4347140">
	<ele>1347.40</ele>
	<time>2024-07-25T07:13:48.000Z</time>
</trkpt>
<trkpt lat="46.0946350" lon="10.4347330">
	<ele>1347.60</ele>
	<time>2024-07-25T07:13:49.000Z</time>
</trkpt>
<trkpt lat="46.0946370" lon="10.4347490">
	<ele>1347.60</ele>
	<time>2024-07-25T07:13:50.000Z</time>
</trkpt>
<trkpt lat="46.0946410" lon="10.4347680">
	<ele>1347.80</ele>
	<time>2024-07-25T07:13:51.000Z</time>
</trkpt>
<trkpt lat="46.0946460" lon="10.4347870">
	<ele>1348.00</ele>
	<time>2024-07-25T07:13:52.000Z</time>
</trkpt>
<trkpt lat="46.0946480" lon="10.4348070">
	<ele>1348.20</ele>
	<time>2024-07-25T07:13:53.000Z</time>
</trkpt>
<trkpt lat="46.0946510" lon="10.4348250">
	<ele>1348.20</ele>
	<time>2024-07-25T07:13:54.000Z</time>
</trkpt>
<trkpt lat="46.0946540" lon="10.4348430">
	<ele>1348.40</ele>
	<time>2024-07-25T07:13:55.000Z</time>
</trkpt>
<trkpt lat="46.0946540" lon="10.4348610">
	<ele>1348.60</ele>
	<time>2024-07-25T07:13:56.000Z</time>
</trkpt>
<trkpt lat="46.0946560" lon="10.4348790">
	<ele>1348.80</ele>
	<time>2024-07-25T07:13:57.000Z</time>
</trkpt>
<trkpt lat="46.0946600" lon="10.4348930">
	<ele>1348.80</ele>
	<time>2024-07-25T07:13:58.000Z</time>
</trkpt>
<trkpt lat="46.0946650" lon="10.4349120">
	<ele>1349.00</ele>
	<time>2024-07-25T07:13:59.000Z</time>
</trkpt>
<trkpt lat="46.0946720" lon="10.4349300">
	<ele>1349.20</ele>
	<time>2024-07-25T07:14:00.000Z</time>
</trkpt>
<trkpt lat="46.0946760" lon="10.4349470">
	<ele>1349.40</ele>
	<time>2024-07-25T07:14:01.000Z</time>
</trkpt>
<trkpt lat="46.0946840" lon="10.4349600">
	<ele>1349.60</ele>
	<time>2024-07-25T07:14:02.000Z</time>
</trkpt>
<trkpt lat="46.0946890" lon="10.4349780">
	<ele>1349.60</ele>
	<time>2024-07-25T07:14:03.000Z</time>
</trkpt>
<trkpt lat="46.0946940" lon="10.4349990">
	<ele>1349.80</ele>
	<time>2024-07-25T07:14:04.000Z</time>
</trkpt>
<trkpt lat="46.0947010" lon="10.4350160">
	<ele>1350.20</ele>
	<time>2024-07-25T07:14:05.000Z</time>
</trkpt>
<trkpt lat="46.0947090" lon="10.4350280">
	<ele>1350.20</ele>
	<time>2024-07-25T07:14:06.000Z</time>
</trkpt>
<trkpt lat="46.0947170" lon="10.4350420">
	<ele>1350.60</ele>
	<time>2024-07-25T07:14:07.000Z</time>
</trkpt>
<trkpt lat="46.0947240" lon="10.4350540">
	<ele>1350.80</ele>
	<time>2024-07-25T07:14:08.000Z</time>
</trkpt>
<trkpt lat="46.0947310" lon="10.4350620">
	<ele>1351.00</ele>
	<time>2024-07-25T07:14:09.000Z</time>
</trkpt>
<trkpt lat="46.0947410" lon="10.4350750">
	<ele>1351.00</ele>
	<time>2024-07-25T07:14:10.000Z</time>
</trkpt>
<trkpt lat="46.0947490" lon="10.4350900">
	<ele>1351.20</ele>
	<time>2024-07-25T07:14:11.000Z</time>
</trkpt>
<trkpt lat="46.0947590" lon="10.4351030">
	<ele>1351.20</ele>
	<time>2024-07-25T07:14:12.000Z</time>
</trkpt>
<trkpt lat="46.0947720" lon="10.4351120">
	<ele>1351.40</ele>
	<time>2024-07-25T07:14:13.000Z</time>
</trkpt>
<trkpt lat="46.0947840" lon="10.4351250">
	<ele>1351.40</ele>
	<time>2024-07-25T07:14:14.000Z</time>
</trkpt>
<trkpt lat="46.0947910" lon="10.4351340">
	<ele>1351.60</ele>
	<time>2024-07-25T07:14:15.000Z</time>
</trkpt>
<trkpt lat="46.0948000" lon="10.4351540">
	<ele>1351.80</ele>
	<time>2024-07-25T07:14:16.000Z</time>
</trkpt>
<trkpt lat="46.0948060" lon="10.4351690">
	<ele>1351.80</ele>
	<time>2024-07-25T07:14:17.000Z</time>
</trkpt>
<trkpt lat="46.0948100" lon="10.4351870">
	<ele>1352.00</ele>
	<time>2024-07-25T07:14:18.000Z</time>
</trkpt>
<trkpt lat="46.0948180" lon="10.4352000">
	<ele>1352.20</ele>
	<time>2024-07-25T07:14:19.000Z</time>
</trkpt>
<trkpt lat="46.0948270" lon="10.4352120">
	<ele>1352.40</ele>
	<time>2024-07-25T07:14:20.000Z</time>
</trkpt>
<trkpt lat="46.0948350" lon="10.4352260">
	<ele>1352.60</ele>
	<time>2024-07-25T07:14:21.000Z</time>
</trkpt>
<trkpt lat="46.0948410" lon="10.4352410">
	<ele>1352.80</ele>
	<time>2024-07-25T07:14:22.000Z</time>
</trkpt>
<trkpt lat="46.0948480" lon="10.4352530">
	<ele>1353.00</ele>
	<time>2024-07-25T07:14:23.000Z</time>
</trkpt>
<trkpt lat="46.0948560" lon="10.4352630">
	<ele>1353.20</ele>
	<time>2024-07-25T07:14:24.000Z</time>
</trkpt>
<trkpt lat="46.0948630" lon="10.4352800">
	<ele>1353.20</ele>
	<time>2024-07-25T07:14:25.000Z</time>
</trkpt>
<trkpt lat="46.0948730" lon="10.4352880">
	<ele>1353.60</ele>
	<time>2024-07-25T07:14:26.000Z</time>
</trkpt>
<trkpt lat="46.0948790" lon="10.4353000">
	<ele>1353.80</ele>
	<time>2024-07-25T07:14:27.000Z</time>
</trkpt>
<trkpt lat="46.0948890" lon="10.4353190">
	<ele>1353.80</ele>
	<time>2024-07-25T07:14:28.000Z</time>
</trkpt>
<trkpt lat="46.0948980" lon="10.4353370">
	<ele>1354.00</ele>
	<time>2024-07-25T07:14:29.000Z</time>
</trkpt>
<trkpt lat="46.0949000" lon="10.4353560">
	<ele>1354.20</ele>
	<time>2024-07-25T07:14:30.000Z</time>
</trkpt>
<trkpt lat="46.0949040" lon="10.4353710">
	<ele>1354.40</ele>
	<time>2024-07-25T07:14:31.000Z</time>
</trkpt>
<trkpt lat="46.0949030" lon="10.4353840">
	<ele>1354.60</ele>
	<time>2024-07-25T07:14:32.000Z</time>
</trkpt>
<trkpt lat="46.0949030" lon="10.4353980">
	<ele>1354.60</ele>
	<time>2024-07-25T07:14:33.000Z</time>
</trkpt>
<trkpt lat="46.0948960" lon="10.4354160">
	<ele>1354.80</ele>
	<time>2024-07-25T07:14:34.000Z</time>
</trkpt>
<trkpt lat="46.0948930" lon="10.4354340">
	<ele>1354.80</ele>
	<time>2024-07-25T07:14:35.000Z</time>
</trkpt>
<trkpt lat="46.0948930" lon="10.4354530">
	<ele>1354.80</ele>
	<time>2024-07-25T07:14:36.000Z</time>
</trkpt>
<trkpt lat="46.0948960" lon="10.4354690">
	<ele>1354.80</ele>
	<time>2024-07-25T07:14:37.000Z</time>
</trkpt>
<trkpt lat="46.0948980" lon="10.4354850">
	<ele>1355.00</ele>
	<time>2024-07-25T07:14:38.000Z</time>
</trkpt>
<trkpt lat="46.0948970" lon="10.4355000">
	<ele>1355.00</ele>
	<time>2024-07-25T07:14:39.000Z</time>
</trkpt>
<trkpt lat="46.0948960" lon="10.4355210">
	<ele>1355.20</ele>
	<time>2024-07-25T07:14:40.000Z</time>
</trkpt>
<trkpt lat="46.0948930" lon="10.4355410">
	<ele>1355.40</ele>
	<time>2024-07-25T07:14:41.000Z</time>
</trkpt>
<trkpt lat="46.0948920" lon="10.4355540">
	<ele>1355.40</ele>
	<time>2024-07-25T07:14:42.000Z</time>
</trkpt>
<trkpt lat="46.0948880" lon="10.4355570">
	<ele>1355.60</ele>
	<time>2024-07-25T07:14:43.000Z</time>
</trkpt>
<trkpt lat="46.0948820" lon="10.4355610">
	<ele>1355.60</ele>
	<time>2024-07-25T07:14:44.000Z</time>
</trkpt>
<trkpt lat="46.0948780" lon="10.4355600">
	<ele>1355.60</ele>
	<time>2024-07-25T07:14:45.000Z</time>
</trkpt>
<trkpt lat="46.0948740" lon="10.4355580">
	<ele>1355.80</ele>
	<time>2024-07-25T07:14:46.000Z</time>
</trkpt>
<trkpt lat="46.0948710" lon="10.4355580">
	<ele>1355.80</ele>
	<time>2024-07-25T07:14:47.000Z</time>
</trkpt>
<trkpt lat="46.0948720" lon="10.4355550">
	<ele>1355.80</ele>
	<time>2024-07-25T07:14:48.000Z</time>
</trkpt>
<trkpt lat="46.0948710" lon="10.4355570">
	<ele>1355.80</ele>
	<time>2024-07-25T07:14:49.000Z</time>
</trkpt>
<trkpt lat="46.0948740" lon="10.4355650">
	<ele>1355.80</ele>
	<time>2024-07-25T07:14:50.000Z</time>
</trkpt>
<trkpt lat="46.0948790" lon="10.4355760">
	<ele>1355.80</ele>
	<time>2024-07-25T07:14:51.000Z</time>
</trkpt>
<trkpt lat="46.0948880" lon="10.4355900">
	<ele>1355.80</ele>
	<time>2024-07-25T07:14:52.000Z</time>
</trkpt>
<trkpt lat="46.0948890" lon="10.4356080">
	<ele>1355.80</ele>
	<time>2024-07-25T07:14:53.000Z</time>
</trkpt>
<trkpt lat="46.0948880" lon="10.4356280">
	<ele>1355.80</ele>
	<time>2024-07-25T07:14:54.000Z</time>
</trkpt>
<trkpt lat="46.0948800" lon="10.4356420">
	<ele>1355.80</ele>
	<time>2024-07-25T07:14:55.000Z</time>
</trkpt>
<trkpt lat="46.0948770" lon="10.4356630">
	<ele>1355.80</ele>
	<time>2024-07-25T07:14:56.000Z</time>
</trkpt>
<trkpt lat="46.0948770" lon="10.4356840">
	<ele>1356.00</ele>
	<time>2024-07-25T07:14:57.000Z</time>
</trkpt>
<trkpt lat="46.0948750" lon="10.4357010">
	<ele>1356.20</ele>
	<time>2024-07-25T07:14:58.000Z</time>
</trkpt>
<trkpt lat="46.0948730" lon="10.4357210">
	<ele>1356.40</ele>
	<time>2024-07-25T07:14:59.000Z</time>
</trkpt>
<trkpt lat="46.0948710" lon="10.4357420">
	<ele>1356.40</ele>
	<time>2024-07-25T07:15:00.000Z</time>
</trkpt>
<trkpt lat="46.0948760" lon="10.4357550">
	<ele>1356.60</ele>
	<time>2024-07-25T07:15:01.000Z</time>
</trkpt>
<trkpt lat="46.0948820" lon="10.4357730">
	<ele>1356.80</ele>
	<time>2024-07-25T07:15:02.000Z</time>
</trkpt>
<trkpt lat="46.0948900" lon="10.4357860">
	<ele>1357.00</ele>
	<time>2024-07-25T07:15:03.000Z</time>
</trkpt>
<trkpt lat="46.0948950" lon="10.4358000">
	<ele>1357.20</ele>
	<time>2024-07-25T07:15:04.000Z</time>
</trkpt>
<trkpt lat="46.0949030" lon="10.4358160">
	<ele>1357.20</ele>
	<time>2024-07-25T07:15:05.000Z</time>
</trkpt>
<trkpt lat="46.0949120" lon="10.4358270">
	<ele>1357.40</ele>
	<time>2024-07-25T07:15:06.000Z</time>
</trkpt>
<trkpt lat="46.0949180" lon="10.4358360">
	<ele>1357.60</ele>
	<time>2024-07-25T07:15:07.000Z</time>
</trkpt>
<trkpt lat="46.0949230" lon="10.4358470">
	<ele>1357.60</ele>
	<time>2024-07-25T07:15:08.000Z</time>
</trkpt>
<trkpt lat="46.0949220" lon="10.4358710">
	<ele>1357.80</ele>
	<time>2024-07-25T07:15:09.000Z</time>
</trkpt>
<trkpt lat="46.0949190" lon="10.4358880">
	<ele>1357.80</ele>
	<time>2024-07-25T07:15:10.000Z</time>
</trkpt>
<trkpt lat="46.0949160" lon="10.4359050">
	<ele>1358.00</ele>
	<time>2024-07-25T07:15:11.000Z</time>
</trkpt>
<trkpt lat="46.0949100" lon="10.4359210">
	<ele>1358.00</ele>
	<time>2024-07-25T07:15:12.000Z</time>
</trkpt>
<trkpt lat="46.0948940" lon="10.4359450">
	<ele>1358.00</ele>
	<time>2024-07-25T07:15:13.000Z</time>
</trkpt>
<trkpt lat="46.0948860" lon="10.4359640">
	<ele>1358.20</ele>
	<time>2024-07-25T07:15:14.000Z</time>
</trkpt>
<trkpt lat="46.0948790" lon="10.4359770">
	<ele>1358.40</ele>
	<time>2024-07-25T07:15:15.000Z</time>
</trkpt>
<trkpt lat="46.0948770" lon="10.4359870">
	<ele>1358.60</ele>
	<time>2024-07-25T07:15:16.000Z</time>
</trkpt>
<trkpt lat="46.0948720" lon="10.4360000">
	<ele>1358.60</ele>
	<time>2024-07-25T07:15:17.000Z</time>
</trkpt>
<trkpt lat="46.0948690" lon="10.4360100">
	<ele>1358.80</ele>
	<time>2024-07-25T07:15:18.000Z</time>
</trkpt>
<trkpt lat="46.0948620" lon="10.4360220">
	<ele>1358.80</ele>
	<time>2024-07-25T07:15:19.000Z</time>
</trkpt>
<trkpt lat="46.0948520" lon="10.4360370">
	<ele>1359.00</ele>
	<time>2024-07-25T07:15:20.000Z</time>
</trkpt>
<trkpt lat="46.0948470" lon="10.4360460">
	<ele>1359.20</ele>
	<time>2024-07-25T07:15:21.000Z</time>
</trkpt>
<trkpt lat="46.0948410" lon="10.4360610">
	<ele>1359.20</ele>
	<time>2024-07-25T07:15:22.000Z</time>
</trkpt>
<trkpt lat="46.0948400" lon="10.4360730">
	<ele>1359.40</ele>
	<time>2024-07-25T07:15:23.000Z</time>
</trkpt>
<trkpt lat="46.0948410" lon="10.4360790">
	<ele>1359.60</ele>
	<time>2024-07-25T07:15:24.000Z</time>
</trkpt>
<trkpt lat="46.0948360" lon="10.4360930">
	<ele>1359.80</ele>
	<time>2024-07-25T07:15:25.000Z</time>
</trkpt>
<trkpt lat="46.0948180" lon="10.4361160">
	<ele>1359.80</ele>
	<time>2024-07-25T07:15:26.000Z</time>
</trkpt>
<trkpt lat="46.0948120" lon="10.4361410">
	<ele>1360.00</ele>
	<time>2024-07-25T07:15:27.000Z</time>
</trkpt>
<trkpt lat="46.0948080" lon="10.4361630">
	<ele>1360.00</ele>
	<time>2024-07-25T07:15:28.000Z</time>
</trkpt>
<trkpt lat="46.0947950" lon="10.4361820">
	<ele>1360.20</ele>
	<time>2024-07-25T07:15:29.000Z</time>
</trkpt>
<trkpt lat="46.0947900" lon="10.4362010">
	<ele>1360.20</ele>
	<time>2024-07-25T07:15:30.000Z</time>
</trkpt>
<trkpt lat="46.0947870" lon="10.4362230">
	<ele>1360.20</ele>
	<time>2024-07-25T07:15:31.000Z</time>
</trkpt>
<trkpt lat="46.0947820" lon="10.4362460">
	<ele>1360.40</ele>
	<time>2024-07-25T07:15:32.000Z</time>
</trkpt>
<trkpt lat="46.0947710" lon="10.4362700">
	<ele>1360.40</ele>
	<time>2024-07-25T07:15:33.000Z</time>
</trkpt>
<trkpt lat="46.0947680" lon="10.4362850">
	<ele>1360.60</ele>
	<time>2024-07-25T07:15:34.000Z</time>
</trkpt>
<trkpt lat="46.0947650" lon="10.4362970">
	<ele>1360.80</ele>
	<time>2024-07-25T07:15:35.000Z</time>
</trkpt>
<trkpt lat="46.0947570" lon="10.4363160">
	<ele>1361.00</ele>
	<time>2024-07-25T07:15:36.000Z</time>
</trkpt>
<trkpt lat="46.0947520" lon="10.4363370">
	<ele>1361.00</ele>
	<time>2024-07-25T07:15:37.000Z</time>
</trkpt>
<trkpt lat="46.0947490" lon="10.4363460">
	<ele>1361.20</ele>
	<time>2024-07-25T07:15:38.000Z</time>
</trkpt>
<trkpt lat="46.0947490" lon="10.4363500">
	<ele>1361.20</ele>
	<time>2024-07-25T07:15:39.000Z</time>
</trkpt>
<trkpt lat="46.0947410" lon="10.4363670">
	<ele>1361.40</ele>
	<time>2024-07-25T07:15:40.000Z</time>
</trkpt>
<trkpt lat="46.0947290" lon="10.4363830">
	<ele>1361.60</ele>
	<time>2024-07-25T07:15:41.000Z</time>
</trkpt>
<trkpt lat="46.0947250" lon="10.4363950">
	<ele>1361.60</ele>
	<time>2024-07-25T07:15:42.000Z</time>
</trkpt>
<trkpt lat="46.0947260" lon="10.4364100">
	<ele>1361.60</ele>
	<time>2024-07-25T07:15:43.000Z</time>
</trkpt>
<trkpt lat="46.0947210" lon="10.4364290">
	<ele>1361.80</ele>
	<time>2024-07-25T07:15:44.000Z</time>
</trkpt>
<trkpt lat="46.0947220" lon="10.4364490">
	<ele>1362.00</ele>
	<time>2024-07-25T07:15:45.000Z</time>
</trkpt>
<trkpt lat="46.0947260" lon="10.4364720">
	<ele>1362.20</ele>
	<time>2024-07-25T07:15:46.000Z</time>
</trkpt>
<trkpt lat="46.0947250" lon="10.4364930">
	<ele>1362.60</ele>
	<time>2024-07-25T07:15:47.000Z</time>
</trkpt>
<trkpt lat="46.0947250" lon="10.4365120">
	<ele>1362.60</ele>
	<time>2024-07-25T07:15:48.000Z</time>
</trkpt>
<trkpt lat="46.0947260" lon="10.4365260">
	<ele>1362.80</ele>
	<time>2024-07-25T07:15:49.000Z</time>
</trkpt>
<trkpt lat="46.0947230" lon="10.4365360">
	<ele>1363.00</ele>
	<time>2024-07-25T07:15:50.000Z</time>
</trkpt>
<trkpt lat="46.0947210" lon="10.4365480">
	<ele>1363.00</ele>
	<time>2024-07-25T07:15:51.000Z</time>
</trkpt>
<trkpt lat="46.0947150" lon="10.4365620">
	<ele>1363.20</ele>
	<time>2024-07-25T07:15:52.000Z</time>
</trkpt>
<trkpt lat="46.0947080" lon="10.4365780">
	<ele>1363.20</ele>
	<time>2024-07-25T07:15:53.000Z</time>
</trkpt>
<trkpt lat="46.0947030" lon="10.4365910">
	<ele>1363.40</ele>
	<time>2024-07-25T07:15:54.000Z</time>
</trkpt>
<trkpt lat="46.0946920" lon="10.4366030">
	<ele>1363.60</ele>
	<time>2024-07-25T07:15:55.000Z</time>
</trkpt>
<trkpt lat="46.0946810" lon="10.4366040">
	<ele>1363.60</ele>
	<time>2024-07-25T07:15:56.000Z</time>
</trkpt>
<trkpt lat="46.0946710" lon="10.4366090">
	<ele>1363.80</ele>
	<time>2024-07-25T07:15:57.000Z</time>
</trkpt>
<trkpt lat="46.0946580" lon="10.4366240">
	<ele>1364.00</ele>
	<time>2024-07-25T07:15:58.000Z</time>
</trkpt>
<trkpt lat="46.0946460" lon="10.4366390">
	<ele>1364.00</ele>
	<time>2024-07-25T07:15:59.000Z</time>
</trkpt>
<trkpt lat="46.0946370" lon="10.4366500">
	<ele>1364.20</ele>
	<time>2024-07-25T07:16:00.000Z</time>
</trkpt>
<trkpt lat="46.0946300" lon="10.4366640">
	<ele>1364.20</ele>
	<time>2024-07-25T07:16:01.000Z</time>
</trkpt>
<trkpt lat="46.0946210" lon="10.4366760">
	<ele>1364.40</ele>
	<time>2024-07-25T07:16:02.000Z</time>
</trkpt>
<trkpt lat="46.0946140" lon="10.4366900">
	<ele>1364.40</ele>
	<time>2024-07-25T07:16:03.000Z</time>
</trkpt>
<trkpt lat="46.0946060" lon="10.4367030">
	<ele>1364.60</ele>
	<time>2024-07-25T07:16:04.000Z</time>
</trkpt>
<trkpt lat="46.0945990" lon="10.4367130">
	<ele>1364.80</ele>
	<time>2024-07-25T07:16:05.000Z</time>
</trkpt>
<trkpt lat="46.0945920" lon="10.4367210">
	<ele>1365.00</ele>
	<time>2024-07-25T07:16:06.000Z</time>
</trkpt>
<trkpt lat="46.0945820" lon="10.4367280">
	<ele>1365.00</ele>
	<time>2024-07-25T07:16:07.000Z</time>
</trkpt>
<trkpt lat="46.0945730" lon="10.4367400">
	<ele>1365.40</ele>
	<time>2024-07-25T07:16:08.000Z</time>
</trkpt>
<trkpt lat="46.0945660" lon="10.4367530">
	<ele>1365.40</ele>
	<time>2024-07-25T07:16:09.000Z</time>
</trkpt>
<trkpt lat="46.0945590" lon="10.4367700">
	<ele>1365.60</ele>
	<time>2024-07-25T07:16:10.000Z</time>
</trkpt>
<trkpt lat="46.0945570" lon="10.4367860">
	<ele>1365.80</ele>
	<time>2024-07-25T07:16:11.000Z</time>
</trkpt>
<trkpt lat="46.0945550" lon="10.4368030">
	<ele>1365.80</ele>
	<time>2024-07-25T07:16:12.000Z</time>
</trkpt>
<trkpt lat="46.0945630" lon="10.4368120">
	<ele>1366.00</ele>
	<time>2024-07-25T07:16:13.000Z</time>
</trkpt>
<trkpt lat="46.0945700" lon="10.4368190">
	<ele>1366.00</ele>
	<time>2024-07-25T07:16:14.000Z</time>
</trkpt>
<trkpt lat="46.0945770" lon="10.4368250">
	<ele>1366.20</ele>
	<time>2024-07-25T07:16:15.000Z</time>
</trkpt>
<trkpt lat="46.0945850" lon="10.4368350">
	<ele>1366.60</ele>
	<time>2024-07-25T07:16:16.000Z</time>
</trkpt>
<trkpt lat="46.0945910" lon="10.4368430">
	<ele>1366.80</ele>
	<time>2024-07-25T07:16:17.000Z</time>
</trkpt>
<trkpt lat="46.0945980" lon="10.4368500">
	<ele>1367.00</ele>
	<time>2024-07-25T07:16:18.000Z</time>
</trkpt>
<trkpt lat="46.0946050" lon="10.4368550">
	<ele>1367.20</ele>
	<time>2024-07-25T07:16:19.000Z</time>
</trkpt>
<trkpt lat="46.0946120" lon="10.4368630">
	<ele>1367.40</ele>
	<time>2024-07-25T07:16:20.000Z</time>
</trkpt>
<trkpt lat="46.0946170" lon="10.4368660">
	<ele>1367.60</ele>
	<time>2024-07-25T07:16:21.000Z</time>
</trkpt>
<trkpt lat="46.0946210" lon="10.4368600">
	<ele>1367.60</ele>
	<time>2024-07-25T07:16:22.000Z</time>
</trkpt>
<trkpt lat="46.0946240" lon="10.4368600">
	<ele>1367.80</ele>
	<time>2024-07-25T07:16:23.000Z</time>
</trkpt>
<trkpt lat="46.0946310" lon="10.4368640">
	<ele>1367.80</ele>
	<time>2024-07-25T07:16:24.000Z</time>
</trkpt>
<trkpt lat="46.0946370" lon="10.4368710">
	<ele>1367.80</ele>
	<time>2024-07-25T07:16:25.000Z</time>
</trkpt>
<trkpt lat="46.0946470" lon="10.4368840">
	<ele>1368.00</ele>
	<time>2024-07-25T07:16:26.000Z</time>
</trkpt>
<trkpt lat="46.0946570" lon="10.4368910">
	<ele>1368.00</ele>
	<time>2024-07-25T07:16:27.000Z</time>
</trkpt>
<trkpt lat="46.0946660" lon="10.4368970">
	<ele>1368.20</ele>
	<time>2024-07-25T07:16:28.000Z</time>
</trkpt>
<trkpt lat="46.0946720" lon="10.4369000">
	<ele>1368.20</ele>
	<time>2024-07-25T07:16:29.000Z</time>
</trkpt>
<trkpt lat="46.0946810" lon="10.4369030">
	<ele>1368.40</ele>
	<time>2024-07-25T07:16:30.000Z</time>
</trkpt>
<trkpt lat="46.0946850" lon="10.4369020">
	<ele>1368.60</ele>
	<time>2024-07-25T07:16:31.000Z</time>
</trkpt>
<trkpt lat="46.0946860" lon="10.4369000">
	<ele>1368.80</ele>
	<time>2024-07-25T07:16:32.000Z</time>
</trkpt>
<trkpt lat="46.0946870" lon="10.4369000">
	<ele>1369.00</ele>
	<time>2024-07-25T07:16:33.000Z</time>
</trkpt>
<trkpt lat="46.0946870" lon="10.4369010">
	<ele>1369.20</ele>
	<time>2024-07-25T07:16:34.000Z</time>
</trkpt>
<trkpt lat="46.0946870" lon="10.4369020">
	<ele>1369.20</ele>
	<time>2024-07-25T07:16:35.000Z</time>
</trkpt>
<trkpt lat="46.0946880" lon="10.4369040">
	<ele>1369.40</ele>
	<time>2024-07-25T07:16:36.000Z</time>
</trkpt>
<trkpt lat="46.0946890" lon="10.4369050">
	<ele>1369.40</ele>
	<time>2024-07-25T07:16:37.000Z</time>
</trkpt>
<trkpt lat="46.0946890" lon="10.4369070">
	<ele>1369.20</ele>
	<time>2024-07-25T07:16:38.000Z</time>
</trkpt>
<trkpt lat="46.0946880" lon="10.4369120">
	<ele>1369.20</ele>
	<time>2024-07-25T07:16:39.000Z</time>
</trkpt>
<trkpt lat="46.0946900" lon="10.4369210">
	<ele>1369.20</ele>
	<time>2024-07-25T07:16:40.000Z</time>
</trkpt>
<trkpt lat="46.0946970" lon="10.4369340">
	<ele>1369.20</ele>
	<time>2024-07-25T07:16:41.000Z</time>
</trkpt>
<trkpt lat="46.0947050" lon="10.4369430">
	<ele>1369.20</ele>
	<time>2024-07-25T07:16:42.000Z</time>
</trkpt>
<trkpt lat="46.0947150" lon="10.4369530">
	<ele>1369.20</ele>
	<time>2024-07-25T07:16:43.000Z</time>
</trkpt>
<trkpt lat="46.0947210" lon="10.4369640">
	<ele>1369.20</ele>
	<time>2024-07-25T07:16:44.000Z</time>
</trkpt>
<trkpt lat="46.0947230" lon="10.4369670">
	<ele>1369.40</ele>
	<time>2024-07-25T07:16:45.000Z</time>
</trkpt>
<trkpt lat="46.0947220" lon="10.4369700">
	<ele>1369.80</ele>
	<time>2024-07-25T07:16:46.000Z</time>
</trkpt>
<trkpt lat="46.0947210" lon="10.4369720">
	<ele>1370.00</ele>
	<time>2024-07-25T07:16:47.000Z</time>
</trkpt>
<trkpt lat="46.0947200" lon="10.4369730">
	<ele>1370.20</ele>
	<time>2024-07-25T07:16:48.000Z</time>
</trkpt>
<trkpt lat="46.0947210" lon="10.4369730">
	<ele>1370.20</ele>
	<time>2024-07-25T07:16:49.000Z</time>
</trkpt>
<trkpt lat="46.0947210" lon="10.4369720">
	<ele>1370.20</ele>
	<time>2024-07-25T07:16:50.000Z</time>
</trkpt>
<trkpt lat="46.0947200" lon="10.4369710">
	<ele>1370.40</ele>
	<time>2024-07-25T07:16:51.000Z</time>
</trkpt>
<trkpt lat="46.0947220" lon="10.4369700">
	<ele>1370.40</ele>
	<time>2024-07-25T07:16:52.000Z</time>
</trkpt>
<trkpt lat="46.0947220" lon="10.4369720">
	<ele>1370.20</ele>
	<time>2024-07-25T07:16:53.000Z</time>
</trkpt>
<trkpt lat="46.0947210" lon="10.4369760">
	<ele>1370.00</ele>
	<time>2024-07-25T07:16:54.000Z</time>
</trkpt>
<trkpt lat="46.0947210" lon="10.4369770">
	<ele>1369.80</ele>
	<time>2024-07-25T07:16:55.000Z</time>
</trkpt>
<trkpt lat="46.0947210" lon="10.4369770">
	<ele>1369.80</ele>
	<time>2024-07-25T07:16:56.000Z</time>
</trkpt>
<trkpt lat="46.0947210" lon="10.4369770">
	<ele>1370.00</ele>
	<time>2024-07-25T07:16:57.000Z</time>
</trkpt>
<trkpt lat="46.0947210" lon="10.4369770">
	<ele>1370.00</ele>
	<time>2024-07-25T07:16:58.000Z</time>
</trkpt>
<trkpt lat="46.0947210" lon="10.4369770">
	<ele>1370.00</ele>
	<time>2024-07-25T07:16:59.000Z</time>
</trkpt>
<trkpt lat="46.0947210" lon="10.4369770">
	<ele>1370.00</ele>
	<time>2024-07-25T07:17:00.000Z</time>
</trkpt>
<trkpt lat="46.0947210" lon="10.4369770">
	<ele>1370.00</ele>
	<time>2024-07-25T07:17:01.000Z</time>
</trkpt>
<trkpt lat="46.0947210" lon="10.4369770">
	<ele>1370.00</ele>
	<time>2024-07-25T07:17:02.000Z</time>
</trkpt>
<trkpt lat="46.0947210" lon="10.4369770">
	<ele>1370.00</ele>
	<time>2024-07-25T07:17:03.000Z</time>
</trkpt>
<trkpt lat="46.0947210" lon="10.4369770">
	<ele>1370.00</ele>
	<time>2024-07-25T07:17:04.000Z</time>
</trkpt>
<trkpt lat="46.0947210" lon="10.4369770">
	<ele>1370.00</ele>
	<time>2024-07-25T07:17:05.000Z</time>
</trkpt>
<trkpt lat="46.0947210" lon="10.4369770">
	<ele>1370.00</ele>
	<time>2024-07-25T07:17:06.000Z</time>
</trkpt>
<trkpt lat="46.0947210" lon="10.4369770">
	<ele>1370.00</ele>
	<time>2024-07-25T07:17:07.000Z</time>
</trkpt>
<trkpt lat="46.0947210" lon="10.4369770">
	<ele>1369.80</ele>
	<time>2024-07-25T07:17:08.000Z</time>
</trkpt>
<trkpt lat="46.0947210" lon="10.4369770">
	<ele>1369.80</ele>
	<time>2024-07-25T07:17:09.000Z</time>
</trkpt>
<trkpt lat="46.0947210" lon="10.4369770">
	<ele>1369.80</ele>
	<time>2024-07-25T07:17:10.000Z</time>
</trkpt>
<trkpt lat="46.0947210" lon="10.4369770">
	<ele>1370.00</ele>
	<time>2024-07-25T07:17:11.000Z</time>
</trkpt>
<trkpt lat="46.0947210" lon="10.4369770">
	<ele>1370.00</ele>
	<time>2024-07-25T07:17:12.000Z</time>
</trkpt>
<trkpt lat="46.0947210" lon="10.4369780">
	<ele>1370.00</ele>
	<time>2024-07-25T07:17:13.000Z</time>
</trkpt>
<trkpt lat="46.0947210" lon="10.4369780">
	<ele>1370.20</ele>
	<time>2024-07-25T07:17:14.000Z</time>
</trkpt>
<trkpt lat="46.0947210" lon="10.4369780">
	<ele>1370.20</ele>
	<time>2024-07-25T07:17:15.000Z</time>
</trkpt>
<trkpt lat="46.0947210" lon="10.4369780">
	<ele>1370.20</ele>
	<time>2024-07-25T07:17:16.000Z</time>
</trkpt>
<trkpt lat="46.0947200" lon="10.4369780">
	<ele>1370.20</ele>
	<time>2024-07-25T07:17:17.000Z</time>
</trkpt>
<trkpt lat="46.0947200" lon="10.4369780">
	<ele>1370.20</ele>
	<time>2024-07-25T07:17:18.000Z</time>
</trkpt>
<trkpt lat="46.0947200" lon="10.4369780">
	<ele>1370.20</ele>
	<time>2024-07-25T07:17:19.000Z</time>
</trkpt>
<trkpt lat="46.0947200" lon="10.4369790">
	<ele>1370.20</ele>
	<time>2024-07-25T07:17:20.000Z</time>
</trkpt>
<trkpt lat="46.0947200" lon="10.4369820">
	<ele>1370.20</ele>
	<time>2024-07-25T07:17:21.000Z</time>
</trkpt>
<trkpt lat="46.0947230" lon="10.4369820">
	<ele>1370.20</ele>
	<time>2024-07-25T07:17:22.000Z</time>
</trkpt>
<trkpt lat="46.0947390" lon="10.4369790">
	<ele>1370.20</ele>
	<time>2024-07-25T07:17:23.000Z</time>
</trkpt>
<trkpt lat="46.0947510" lon="10.4369760">
	<ele>1370.20</ele>
	<time>2024-07-25T07:17:24.000Z</time>
</trkpt>
<trkpt lat="46.0947640" lon="10.4369740">
	<ele>1370.40</ele>
	<time>2024-07-25T07:17:25.000Z</time>
</trkpt>
<trkpt lat="46.0947810" lon="10.4369800">
	<ele>1370.60</ele>
	<time>2024-07-25T07:17:26.000Z</time>
</trkpt>
<trkpt lat="46.0947950" lon="10.4369890">
	<ele>1370.80</ele>
	<time>2024-07-25T07:17:27.000Z</time>
</trkpt>
<trkpt lat="46.0948040" lon="10.4369990">
	<ele>1371.00</ele>
	<time>2024-07-25T07:17:28.000Z</time>
</trkpt>
<trkpt lat="46.0948140" lon="10.4370110">
	<ele>1371.00</ele>
	<time>2024-07-25T07:17:29.000Z</time>
</trkpt>
<trkpt lat="46.0948240" lon="10.4370190">
	<ele>1371.20</ele>
	<time>2024-07-25T07:17:30.000Z</time>
</trkpt>
<trkpt lat="46.0948370" lon="10.4370220">
	<ele>1371.40</ele>
	<time>2024-07-25T07:17:31.000Z</time>
</trkpt>
<trkpt lat="46.0948500" lon="10.4370170">
	<ele>1371.60</ele>
	<time>2024-07-25T07:17:32.000Z</time>
</trkpt>
<trkpt lat="46.0948670" lon="10.4370150">
	<ele>1371.60</ele>
	<time>2024-07-25T07:17:33.000Z</time>
</trkpt>
<trkpt lat="46.0948790" lon="10.4370150">
	<ele>1371.80</ele>
	<time>2024-07-25T07:17:34.000Z</time>
</trkpt>
<trkpt lat="46.0948920" lon="10.4370160">
	<ele>1372.00</ele>
	<time>2024-07-25T07:17:35.000Z</time>
</trkpt>
<trkpt lat="46.0949040" lon="10.4370160">
	<ele>1372.20</ele>
	<time>2024-07-25T07:17:36.000Z</time>
</trkpt>
<trkpt lat="46.0949130" lon="10.4370150">
	<ele>1372.40</ele>
	<time>2024-07-25T07:17:37.000Z</time>
</trkpt>
<trkpt lat="46.0949230" lon="10.4370120">
	<ele>1372.60</ele>
	<time>2024-07-25T07:17:38.000Z</time>
</trkpt>
<trkpt lat="46.0949330" lon="10.4370050">
	<ele>1372.80</ele>
	<time>2024-07-25T07:17:39.000Z</time>
</trkpt>
<trkpt lat="46.0949400" lon="10.4370030">
	<ele>1373.20</ele>
	<time>2024-07-25T07:17:40.000Z</time>
</trkpt>
<trkpt lat="46.0949500" lon="10.4370030">
	<ele>1373.20</ele>
	<time>2024-07-25T07:17:41.000Z</time>
</trkpt>
<trkpt lat="46.0949630" lon="10.4369980">
	<ele>1373.40</ele>
	<time>2024-07-25T07:17:42.000Z</time>
</trkpt>
<trkpt lat="46.0949720" lon="10.4369950">
	<ele>1373.60</ele>
	<time>2024-07-25T07:17:43.000Z</time>
</trkpt>
<trkpt lat="46.0949790" lon="10.4369950">
	<ele>1373.80</ele>
	<time>2024-07-25T07:17:44.000Z</time>
</trkpt>
<trkpt lat="46.0949880" lon="10.4369940">
	<ele>1374.20</ele>
	<time>2024-07-25T07:17:45.000Z</time>
</trkpt>
<trkpt lat="46.0949960" lon="10.4369870">
	<ele>1374.40</ele>
	<time>2024-07-25T07:17:46.000Z</time>
</trkpt>
<trkpt lat="46.0950040" lon="10.4369790">
	<ele>1374.40</ele>
	<time>2024-07-25T07:17:47.000Z</time>
</trkpt>
<trkpt lat="46.0950160" lon="10.4369720">
	<ele>1374.60</ele>
	<time>2024-07-25T07:17:48.000Z</time>
</trkpt>
<trkpt lat="46.0950250" lon="10.4369700">
	<ele>1374.80</ele>
	<time>2024-07-25T07:17:49.000Z</time>
</trkpt>
<trkpt lat="46.0950330" lon="10.4369700">
	<ele>1375.00</ele>
	<time>2024-07-25T07:17:50.000Z</time>
</trkpt>
<trkpt lat="46.0950420" lon="10.4369670">
	<ele>1375.00</ele>
	<time>2024-07-25T07:17:51.000Z</time>
</trkpt>
<trkpt lat="46.0950490" lon="10.4369690">
	<ele>1375.40</ele>
	<time>2024-07-25T07:17:52.000Z</time>
</trkpt>
<trkpt lat="46.0950570" lon="10.4369680">
	<ele>1375.60</ele>
	<time>2024-07-25T07:17:53.000Z</time>
</trkpt>
<trkpt lat="46.0950640" lon="10.4369630">
	<ele>1376.00</ele>
	<time>2024-07-25T07:17:54.000Z</time>
</trkpt>
<trkpt lat="46.0950700" lon="10.4369580">
	<ele>1376.20</ele>
	<time>2024-07-25T07:17:55.000Z</time>
</trkpt>
<trkpt lat="46.0950780" lon="10.4369500">
	<ele>1376.60</ele>
	<time>2024-07-25T07:17:56.000Z</time>
</trkpt>
<trkpt lat="46.0950890" lon="10.4369440">
	<ele>1376.80</ele>
	<time>2024-07-25T07:17:57.000Z</time>
</trkpt>
<trkpt lat="46.0951010" lon="10.4369380">
	<ele>1377.00</ele>
	<time>2024-07-25T07:17:58.000Z</time>
</trkpt>
<trkpt lat="46.0951120" lon="10.4369320">
	<ele>1377.40</ele>
	<time>2024-07-25T07:17:59.000Z</time>
</trkpt>
<trkpt lat="46.0951230" lon="10.4369290">
	<ele>1377.60</ele>
	<time>2024-07-25T07:18:00.000Z</time>
</trkpt>
<trkpt lat="46.0951380" lon="10.4369280">
	<ele>1377.80</ele>
	<time>2024-07-25T07:18:01.000Z</time>
</trkpt>
<trkpt lat="46.0951510" lon="10.4369250">
	<ele>1378.00</ele>
	<time>2024-07-25T07:18:02.000Z</time>
</trkpt>
<trkpt lat="46.0951610" lon="10.4369120">
	<ele>1378.20</ele>
	<time>2024-07-25T07:18:03.000Z</time>
</trkpt>
<trkpt lat="46.0951680" lon="10.4368990">
	<ele>1378.40</ele>
	<time>2024-07-25T07:18:04.000Z</time>
</trkpt>
<trkpt lat="46.0951720" lon="10.4368890">
	<ele>1378.80</ele>
	<time>2024-07-25T07:18:05.000Z</time>
</trkpt>
<trkpt lat="46.0951810" lon="10.4368810">
	<ele>1379.00</ele>
	<time>2024-07-25T07:18:06.000Z</time>
</trkpt>
<trkpt lat="46.0951890" lon="10.4368780">
	<ele>1379.20</ele>
	<time>2024-07-25T07:18:07.000Z</time>
</trkpt>
<trkpt lat="46.0952010" lon="10.4368740">
	<ele>1379.40</ele>
	<time>2024-07-25T07:18:08.000Z</time>
</trkpt>
<trkpt lat="46.0952110" lon="10.4368770">
	<ele>1379.60</ele>
	<time>2024-07-25T07:18:09.000Z</time>
</trkpt>
<trkpt lat="46.0952210" lon="10.4368810">
	<ele>1380.00</ele>
	<time>2024-07-25T07:18:10.000Z</time>
</trkpt>
<trkpt lat="46.0952340" lon="10.4368840">
	<ele>1380.00</ele>
	<time>2024-07-25T07:18:11.000Z</time>
</trkpt>
<trkpt lat="46.0952480" lon="10.4368890">
	<ele>1380.40</ele>
	<time>2024-07-25T07:18:12.000Z</time>
</trkpt>
<trkpt lat="46.0952570" lon="10.4368940">
	<ele>1380.60</ele>
	<time>2024-07-25T07:18:13.000Z</time>
</trkpt>
<trkpt lat="46.0952700" lon="10.4369030">
	<ele>1380.80</ele>
	<time>2024-07-25T07:18:14.000Z</time>
</trkpt>
<trkpt lat="46.0952790" lon="10.4369080">
	<ele>1381.00</ele>
	<time>2024-07-25T07:18:15.000Z</time>
</trkpt>
<trkpt lat="46.0952890" lon="10.4369180">
	<ele>1381.20</ele>
	<time>2024-07-25T07:18:16.000Z</time>
</trkpt>
<trkpt lat="46.0952980" lon="10.4369300">
	<ele>1381.40</ele>
	<time>2024-07-25T07:18:17.000Z</time>
</trkpt>
<trkpt lat="46.0953070" lon="10.4369420">
	<ele>1381.40</ele>
	<time>2024-07-25T07:18:18.000Z</time>
</trkpt>
<trkpt lat="46.0953170" lon="10.4369550">
	<ele>1381.60</ele>
	<time>2024-07-25T07:18:19.000Z</time>
</trkpt>
<trkpt lat="46.0953210" lon="10.4369640">
	<ele>1381.80</ele>
	<time>2024-07-25T07:18:20.000Z</time>
</trkpt>
<trkpt lat="46.0953270" lon="10.4369700">
	<ele>1382.00</ele>
	<time>2024-07-25T07:18:21.000Z</time>
</trkpt>
<trkpt lat="46.0953330" lon="10.4369840">
	<ele>1382.00</ele>
	<time>2024-07-25T07:18:22.000Z</time>
</trkpt>
<trkpt lat="46.0953400" lon="10.4370040">
	<ele>1382.00</ele>
	<time>2024-07-25T07:18:23.000Z</time>
</trkpt>
<trkpt lat="46.0953480" lon="10.4370190">
	<ele>1382.20</ele>
	<time>2024-07-25T07:18:24.000Z</time>
</trkpt>
<trkpt lat="46.0953520" lon="10.4370360">
	<ele>1382.20</ele>
	<time>2024-07-25T07:18:25.000Z</time>
</trkpt>
<trkpt lat="46.0953560" lon="10.4370520">
	<ele>1382.20</ele>
	<time>2024-07-25T07:18:26.000Z</time>
</trkpt>
<trkpt lat="46.0953620" lon="10.4370720">
	<ele>1382.40</ele>
	<time>2024-07-25T07:18:27.000Z</time>
</trkpt>
<trkpt lat="46.0953670" lon="10.4370860">
	<ele>1382.40</ele>
	<time>2024-07-25T07:18:28.000Z</time>
</trkpt>
<trkpt lat="46.0953730" lon="10.4371020">
	<ele>1382.40</ele>
	<time>2024-07-25T07:18:29.000Z</time>
</trkpt>
<trkpt lat="46.0953750" lon="10.4371220">
	<ele>1382.40</ele>
	<time>2024-07-25T07:18:30.000Z</time>
</trkpt>
<trkpt lat="46.0953770" lon="10.4371410">
	<ele>1382.40</ele>
	<time>2024-07-25T07:18:31.000Z</time>
</trkpt>
<trkpt lat="46.0953830" lon="10.4371640">
	<ele>1382.60</ele>
	<time>2024-07-25T07:18:32.000Z</time>
</trkpt>
<trkpt lat="46.0953800" lon="10.4371770">
	<ele>1382.80</ele>
	<time>2024-07-25T07:18:33.000Z</time>
</trkpt>
<trkpt lat="46.0953870" lon="10.4371840">
	<ele>1383.00</ele>
	<time>2024-07-25T07:18:34.000Z</time>
</trkpt>
<trkpt lat="46.0953900" lon="10.4371940">
	<ele>1383.00</ele>
	<time>2024-07-25T07:18:35.000Z</time>
</trkpt>
<trkpt lat="46.0953920" lon="10.4372040">
	<ele>1383.00</ele>
	<time>2024-07-25T07:18:36.000Z</time>
</trkpt>
<trkpt lat="46.0953900" lon="10.4372190">
	<ele>1383.20</ele>
	<time>2024-07-25T07:18:37.000Z</time>
</trkpt>
<trkpt lat="46.0953810" lon="10.4372380">
	<ele>1383.20</ele>
	<time>2024-07-25T07:18:38.000Z</time>
</trkpt>
<trkpt lat="46.0953740" lon="10.4372560">
	<ele>1383.20</ele>
	<time>2024-07-25T07:18:39.000Z</time>
</trkpt>
<trkpt lat="46.0953700" lon="10.4372740">
	<ele>1383.00</ele>
	<time>2024-07-25T07:18:40.000Z</time>
</trkpt>
<trkpt lat="46.0953660" lon="10.4372950">
	<ele>1383.00</ele>
	<time>2024-07-25T07:18:41.000Z</time>
</trkpt>
<trkpt lat="46.0953610" lon="10.4373060">
	<ele>1383.00</ele>
	<time>2024-07-25T07:18:42.000Z</time>
</trkpt>
<trkpt lat="46.0953560" lon="10.4373250">
	<ele>1383.00</ele>
	<time>2024-07-25T07:18:43.000Z</time>
</trkpt>
<trkpt lat="46.0953570" lon="10.4373460">
	<ele>1383.00</ele>
	<time>2024-07-25T07:18:44.000Z</time>
</trkpt>
<trkpt lat="46.0953590" lon="10.4373650">
	<ele>1383.00</ele>
	<time>2024-07-25T07:18:45.000Z</time>
</trkpt>
<trkpt lat="46.0953570" lon="10.4373900">
	<ele>1383.00</ele>
	<time>2024-07-25T07:18:46.000Z</time>
</trkpt>
<trkpt lat="46.0953580" lon="10.4373970">
	<ele>1383.00</ele>
	<time>2024-07-25T07:18:47.000Z</time>
</trkpt>
<trkpt lat="46.0953540" lon="10.4374130">
	<ele>1383.00</ele>
	<time>2024-07-25T07:18:48.000Z</time>
</trkpt>
<trkpt lat="46.0953440" lon="10.4374220">
	<ele>1383.20</ele>
	<time>2024-07-25T07:18:49.000Z</time>
</trkpt>
<trkpt lat="46.0953380" lon="10.4374350">
	<ele>1383.40</ele>
	<time>2024-07-25T07:18:50.000Z</time>
</trkpt>
<trkpt lat="46.0953330" lon="10.4374490">
	<ele>1383.40</ele>
	<time>2024-07-25T07:18:51.000Z</time>
</trkpt>
<trkpt lat="46.0953300" lon="10.4374630">
	<ele>1383.60</ele>
	<time>2024-07-25T07:18:52.000Z</time>
</trkpt>
<trkpt lat="46.0953210" lon="10.4374730">
	<ele>1383.60</ele>
	<time>2024-07-25T07:18:53.000Z</time>
</trkpt>
<trkpt lat="46.0953080" lon="10.4374790">
	<ele>1383.60</ele>
	<time>2024-07-25T07:18:54.000Z</time>
</trkpt>
<trkpt lat="46.0952990" lon="10.4374840">
	<ele>1383.80</ele>
	<time>2024-07-25T07:18:55.000Z</time>
</trkpt>
<trkpt lat="46.0952870" lon="10.4374930">
	<ele>1384.00</ele>
	<time>2024-07-25T07:18:56.000Z</time>
</trkpt>
<trkpt lat="46.0952770" lon="10.4375040">
	<ele>1384.00</ele>
	<time>2024-07-25T07:18:57.000Z</time>
</trkpt>
<trkpt lat="46.0952690" lon="10.4375110">
	<ele>1384.20</ele>
	<time>2024-07-25T07:18:58.000Z</time>
</trkpt>
<trkpt lat="46.0952620" lon="10.4375170">
	<ele>1384.40</ele>
	<time>2024-07-25T07:18:59.000Z</time>
</trkpt>
<trkpt lat="46.0952580" lon="10.4375230">
	<ele>1384.60</ele>
	<time>2024-07-25T07:19:00.000Z</time>
</trkpt>
<trkpt lat="46.0952520" lon="10.4375380">
	<ele>1384.80</ele>
	<time>2024-07-25T07:19:01.000Z</time>
</trkpt>
<trkpt lat="46.0952450" lon="10.4375510">
	<ele>1385.00</ele>
	<time>2024-07-25T07:19:02.000Z</time>
</trkpt>
<trkpt lat="46.0952380" lon="10.4375640">
	<ele>1385.20</ele>
	<time>2024-07-25T07:19:03.000Z</time>
</trkpt>
<trkpt lat="46.0952330" lon="10.4375720">
	<ele>1385.40</ele>
	<time>2024-07-25T07:19:04.000Z</time>
</trkpt>
<trkpt lat="46.0952260" lon="10.4375870">
	<ele>1385.60</ele>
	<time>2024-07-25T07:19:05.000Z</time>
</trkpt>
<trkpt lat="46.0952190" lon="10.4375980">
	<ele>1385.80</ele>
	<time>2024-07-25T07:19:06.000Z</time>
</trkpt>
<trkpt lat="46.0952100" lon="10.4376050">
	<ele>1386.00</ele>
	<time>2024-07-25T07:19:07.000Z</time>
</trkpt>
<trkpt lat="46.0952020" lon="10.4376120">
	<ele>1386.20</ele>
	<time>2024-07-25T07:19:08.000Z</time>
</trkpt>
<trkpt lat="46.0951950" lon="10.4376190">
	<ele>1386.20</ele>
	<time>2024-07-25T07:19:09.000Z</time>
</trkpt>
<trkpt lat="46.0951910" lon="10.4376250">
	<ele>1386.40</ele>
	<time>2024-07-25T07:19:10.000Z</time>
</trkpt>
<trkpt lat="46.0951830" lon="10.4376350">
	<ele>1386.60</ele>
	<time>2024-07-25T07:19:11.000Z</time>
</trkpt>
<trkpt lat="46.0951740" lon="10.4376480">
	<ele>1387.00</ele>
	<time>2024-07-25T07:19:12.000Z</time>
</trkpt>
<trkpt lat="46.0951660" lon="10.4376590">
	<ele>1387.20</ele>
	<time>2024-07-25T07:19:13.000Z</time>
</trkpt>
<trkpt lat="46.0951610" lon="10.4376700">
	<ele>1387.20</ele>
	<time>2024-07-25T07:19:14.000Z</time>
</trkpt>
<trkpt lat="46.0951590" lon="10.4376860">
	<ele>1387.40</ele>
	<time>2024-07-25T07:19:15.000Z</time>
</trkpt>
<trkpt lat="46.0951580" lon="10.4377010">
	<ele>1387.40</ele>
	<time>2024-07-25T07:19:16.000Z</time>
</trkpt>
<trkpt lat="46.0951540" lon="10.4377160">
	<ele>1387.60</ele>
	<time>2024-07-25T07:19:17.000Z</time>
</trkpt>
<trkpt lat="46.0951510" lon="10.4377330">
	<ele>1387.80</ele>
	<time>2024-07-25T07:19:18.000Z</time>
</trkpt>
<trkpt lat="46.0951510" lon="10.4377520">
	<ele>1388.00</ele>
	<time>2024-07-25T07:19:19.000Z</time>
</trkpt>
<trkpt lat="46.0951530" lon="10.4377680">
	<ele>1388.00</ele>
	<time>2024-07-25T07:19:20.000Z</time>
</trkpt>
<trkpt lat="46.0951600" lon="10.4377780">
	<ele>1388.20</ele>
	<time>2024-07-25T07:19:21.000Z</time>
</trkpt>
<trkpt lat="46.0951630" lon="10.4377980">
	<ele>1388.40</ele>
	<time>2024-07-25T07:19:22.000Z</time>
</trkpt>
<trkpt lat="46.0951630" lon="10.4378270">
	<ele>1388.60</ele>
	<time>2024-07-25T07:19:23.000Z</time>
</trkpt>
<trkpt lat="46.0951630" lon="10.4378570">
	<ele>1388.80</ele>
	<time>2024-07-25T07:19:24.000Z</time>
</trkpt>
<trkpt lat="46.0951670" lon="10.4378760">
	<ele>1389.00</ele>
	<time>2024-07-25T07:19:25.000Z</time>
</trkpt>
<trkpt lat="46.0951750" lon="10.4378850">
	<ele>1389.20</ele>
	<time>2024-07-25T07:19:26.000Z</time>
</trkpt>
<trkpt lat="46.0951830" lon="10.4378950">
	<ele>1389.40</ele>
	<time>2024-07-25T07:19:27.000Z</time>
</trkpt>
<trkpt lat="46.0951960" lon="10.4378960">
	<ele>1389.40</ele>
	<time>2024-07-25T07:19:28.000Z</time>
</trkpt>
<trkpt lat="46.0952040" lon="10.4379030">
	<ele>1389.80</ele>
	<time>2024-07-25T07:19:29.000Z</time>
</trkpt>
<trkpt lat="46.0952090" lon="10.4379020">
	<ele>1390.00</ele>
	<time>2024-07-25T07:19:30.000Z</time>
</trkpt>
<trkpt lat="46.0952160" lon="10.4379080">
	<ele>1390.20</ele>
	<time>2024-07-25T07:19:31.000Z</time>
</trkpt>
<trkpt lat="46.0952250" lon="10.4379150">
	<ele>1390.40</ele>
	<time>2024-07-25T07:19:32.000Z</time>
</trkpt>
<trkpt lat="46.0952300" lon="10.4379260">
	<ele>1390.60</ele>
	<time>2024-07-25T07:19:33.000Z</time>
</trkpt>
<trkpt lat="46.0952360" lon="10.4379380">
	<ele>1390.80</ele>
	<time>2024-07-25T07:19:34.000Z</time>
</trkpt>
<trkpt lat="46.0952450" lon="10.4379460">
	<ele>1391.00</ele>
	<time>2024-07-25T07:19:35.000Z</time>
</trkpt>
<trkpt lat="46.0952530" lon="10.4379570">
	<ele>1391.00</ele>
	<time>2024-07-25T07:19:36.000Z</time>
</trkpt>
<trkpt lat="46.0952620" lon="10.4379630">
	<ele>1391.20</ele>
	<time>2024-07-25T07:19:37.000Z</time>
</trkpt>
<trkpt lat="46.0952720" lon="10.4379720">
	<ele>1391.20</ele>
	<time>2024-07-25T07:19:38.000Z</time>
</trkpt>
<trkpt lat="46.0952790" lon="10.4379810">
	<ele>1391.60</ele>
	<time>2024-07-25T07:19:39.000Z</time>
</trkpt>
<trkpt lat="46.0952870" lon="10.4379870">
	<ele>1391.60</ele>
	<time>2024-07-25T07:19:40.000Z</time>
</trkpt>
<trkpt lat="46.0952970" lon="10.4379870">
	<ele>1391.80</ele>
	<time>2024-07-25T07:19:41.000Z</time>
</trkpt>
<trkpt lat="46.0953070" lon="10.4379970">
	<ele>1391.80</ele>
	<time>2024-07-25T07:19:42.000Z</time>
</trkpt>
<trkpt lat="46.0953240" lon="10.4380040">
	<ele>1392.00</ele>
	<time>2024-07-25T07:19:43.000Z</time>
</trkpt>
<trkpt lat="46.0953420" lon="10.4380040">
	<ele>1392.20</ele>
	<time>2024-07-25T07:19:44.000Z</time>
</trkpt>
<trkpt lat="46.0953570" lon="10.4380080">
	<ele>1392.40</ele>
	<time>2024-07-25T07:19:45.000Z</time>
</trkpt>
<trkpt lat="46.0953690" lon="10.4380120">
	<ele>1392.60</ele>
	<time>2024-07-25T07:19:46.000Z</time>
</trkpt>
<trkpt lat="46.0953840" lon="10.4380130">
	<ele>1392.60</ele>
	<time>2024-07-25T07:19:47.000Z</time>
</trkpt>
<trkpt lat="46.0953980" lon="10.4380160">
	<ele>1392.80</ele>
	<time>2024-07-25T07:19:48.000Z</time>
</trkpt>
<trkpt lat="46.0954090" lon="10.4380250">
	<ele>1392.80</ele>
	<time>2024-07-25T07:19:49.000Z</time>
</trkpt>
<trkpt lat="46.0954140" lon="10.4380370">
	<ele>1393.00</ele>
	<time>2024-07-25T07:19:50.000Z</time>
</trkpt>
<trkpt lat="46.0954160" lon="10.4380500">
	<ele>1393.00</ele>
	<time>2024-07-25T07:19:51.000Z</time>
</trkpt>
<trkpt lat="46.0954200" lon="10.4380660">
	<ele>1393.00</ele>
	<time>2024-07-25T07:19:52.000Z</time>
</trkpt>
<trkpt lat="46.0954260" lon="10.4380780">
	<ele>1393.20</ele>
	<time>2024-07-25T07:19:53.000Z</time>
</trkpt>
<trkpt lat="46.0954350" lon="10.4380840">
	<ele>1393.40</ele>
	<time>2024-07-25T07:19:54.000Z</time>
</trkpt>
<trkpt lat="46.0954380" lon="10.4380880">
	<ele>1393.80</ele>
	<time>2024-07-25T07:19:55.000Z</time>
</trkpt>
<trkpt lat="46.0954410" lon="10.4380930">
	<ele>1394.00</ele>
	<time>2024-07-25T07:19:56.000Z</time>
</trkpt>
<trkpt lat="46.0954430" lon="10.4380960">
	<ele>1394.20</ele>
	<time>2024-07-25T07:19:57.000Z</time>
</trkpt>
<trkpt lat="46.0954440" lon="10.4380970">
	<ele>1394.40</ele>
	<time>2024-07-25T07:19:58.000Z</time>
</trkpt>
<trkpt lat="46.0954410" lon="10.4381050">
	<ele>1394.40</ele>
	<time>2024-07-25T07:19:59.000Z</time>
</trkpt>
<trkpt lat="46.0954440" lon="10.4381080">
	<ele>1394.40</ele>
	<time>2024-07-25T07:20:00.000Z</time>
</trkpt>
<trkpt lat="46.0954450" lon="10.4381210">
	<ele>1394.60</ele>
	<time>2024-07-25T07:20:01.000Z</time>
</trkpt>
<trkpt lat="46.0954510" lon="10.4381280">
	<ele>1394.60</ele>
	<time>2024-07-25T07:20:02.000Z</time>
</trkpt>
<trkpt lat="46.0954620" lon="10.4381330">
	<ele>1394.60</ele>
	<time>2024-07-25T07:20:03.000Z</time>
</trkpt>
<trkpt lat="46.0954690" lon="10.4381420">
	<ele>1394.60</ele>
	<time>2024-07-25T07:20:04.000Z</time>
</trkpt>
<trkpt lat="46.0954690" lon="10.4381580">
	<ele>1394.80</ele>
	<time>2024-07-25T07:20:05.000Z</time>
</trkpt>
<trkpt lat="46.0954710" lon="10.4381650">
	<ele>1394.80</ele>
	<time>2024-07-25T07:20:06.000Z</time>
</trkpt>
<trkpt lat="46.0954750" lon="10.4381730">
	<ele>1395.00</ele>
	<time>2024-07-25T07:20:07.000Z</time>
</trkpt>
<trkpt lat="46.0954840" lon="10.4381810">
	<ele>1395.00</ele>
	<time>2024-07-25T07:20:08.000Z</time>
</trkpt>
<trkpt lat="46.0954860" lon="10.4381990">
	<ele>1395.20</ele>
	<time>2024-07-25T07:20:09.000Z</time>
</trkpt>
<trkpt lat="46.0954890" lon="10.4382090">
	<ele>1395.40</ele>
	<time>2024-07-25T07:20:10.000Z</time>
</trkpt>
<trkpt lat="46.0954900" lon="10.4382140">
	<ele>1395.60</ele>
	<time>2024-07-25T07:20:11.000Z</time>
</trkpt>
<trkpt lat="46.0954940" lon="10.4382240">
	<ele>1395.80</ele>
	<time>2024-07-25T07:20:12.000Z</time>
</trkpt>
<trkpt lat="46.0954930" lon="10.4382360">
	<ele>1396.00</ele>
	<time>2024-07-25T07:20:13.000Z</time>
</trkpt>
<trkpt lat="46.0954830" lon="10.4382550">
	<ele>1396.20</ele>
	<time>2024-07-25T07:20:14.000Z</time>
</trkpt>
<trkpt lat="46.0954810" lon="10.4382720">
	<ele>1396.40</ele>
	<time>2024-07-25T07:20:15.000Z</time>
</trkpt>
<trkpt lat="46.0954800" lon="10.4382810">
	<ele>1396.40</ele>
	<time>2024-07-25T07:20:16.000Z</time>
</trkpt>
<trkpt lat="46.0954740" lon="10.4382990">
	<ele>1396.40</ele>
	<time>2024-07-25T07:20:17.000Z</time>
</trkpt>
<trkpt lat="46.0954720" lon="10.4383150">
	<ele>1396.40</ele>
	<time>2024-07-25T07:20:18.000Z</time>
</trkpt>
<trkpt lat="46.0954720" lon="10.4383280">
	<ele>1396.40</ele>
	<time>2024-07-25T07:20:19.000Z</time>
</trkpt>
<trkpt lat="46.0954740" lon="10.4383430">
	<ele>1396.20</ele>
	<time>2024-07-25T07:20:20.000Z</time>
</trkpt>
<trkpt lat="46.0954740" lon="10.4383590">
	<ele>1396.20</ele>
	<time>2024-07-25T07:20:21.000Z</time>
</trkpt>
<trkpt lat="46.0954720" lon="10.4383880">
	<ele>1396.40</ele>
	<time>2024-07-25T07:20:22.000Z</time>
</trkpt>
<trkpt lat="46.0954710" lon="10.4384120">
	<ele>1396.40</ele>
	<time>2024-07-25T07:20:23.000Z</time>
</trkpt>
<trkpt lat="46.0954750" lon="10.4384360">
	<ele>1396.40</ele>
	<time>2024-07-25T07:20:24.000Z</time>
</trkpt>
<trkpt lat="46.0954740" lon="10.4384600">
	<ele>1396.40</ele>
	<time>2024-07-25T07:20:25.000Z</time>
</trkpt>
<trkpt lat="46.0954650" lon="10.4384780">
	<ele>1396.60</ele>
	<time>2024-07-25T07:20:26.000Z</time>
</trkpt>
<trkpt lat="46.0954590" lon="10.4384960">
	<ele>1396.60</ele>
	<time>2024-07-25T07:20:27.000Z</time>
</trkpt>
<trkpt lat="46.0954510" lon="10.4385170">
	<ele>1396.80</ele>
	<time>2024-07-25T07:20:28.000Z</time>
</trkpt>
<trkpt lat="46.0954470" lon="10.4385410">
	<ele>1396.80</ele>
	<time>2024-07-25T07:20:29.000Z</time>
</trkpt>
<trkpt lat="46.0954420" lon="10.4385590">
	<ele>1396.80</ele>
	<time>2024-07-25T07:20:30.000Z</time>
</trkpt>
<trkpt lat="46.0954390" lon="10.4385780">
	<ele>1397.00</ele>
	<time>2024-07-25T07:20:31.000Z</time>
</trkpt>
<trkpt lat="46.0954400" lon="10.4385930">
	<ele>1397.00</ele>
	<time>2024-07-25T07:20:32.000Z</time>
</trkpt>
<trkpt lat="46.0954430" lon="10.4386030">
	<ele>1397.20</ele>
	<time>2024-07-25T07:20:33.000Z</time>
</trkpt>
<trkpt lat="46.0954410" lon="10.4386170">
	<ele>1397.20</ele>
	<time>2024-07-25T07:20:34.000Z</time>
</trkpt>
<trkpt lat="46.0954430" lon="10.4386260">
	<ele>1397.40</ele>
	<time>2024-07-25T07:20:35.000Z</time>
</trkpt>
<trkpt lat="46.0954460" lon="10.4386420">
	<ele>1397.60</ele>
	<time>2024-07-25T07:20:36.000Z</time>
</trkpt>
<trkpt lat="46.0954460" lon="10.4386570">
	<ele>1397.80</ele>
	<time>2024-07-25T07:20:37.000Z</time>
</trkpt>
<trkpt lat="46.0954470" lon="10.4386770">
	<ele>1398.00</ele>
	<time>2024-07-25T07:20:38.000Z</time>
</trkpt>
<trkpt lat="46.0954420" lon="10.4386940">
	<ele>1398.00</ele>
	<time>2024-07-25T07:20:39.000Z</time>
</trkpt>
<trkpt lat="46.0954400" lon="10.4387090">
	<ele>1398.20</ele>
	<time>2024-07-25T07:20:40.000Z</time>
</trkpt>
<trkpt lat="46.0954390" lon="10.4387250">
	<ele>1398.40</ele>
	<time>2024-07-25T07:20:41.000Z</time>
</trkpt>
<trkpt lat="46.0954390" lon="10.4387350">
	<ele>1398.40</ele>
	<time>2024-07-25T07:20:42.000Z</time>
</trkpt>
<trkpt lat="46.0954420" lon="10.4387470">
	<ele>1398.60</ele>
	<time>2024-07-25T07:20:43.000Z</time>
</trkpt>
<trkpt lat="46.0954370" lon="10.4387660">
	<ele>1398.60</ele>
	<time>2024-07-25T07:20:44.000Z</time>
</trkpt>
<trkpt lat="46.0954330" lon="10.4387840">
	<ele>1398.60</ele>
	<time>2024-07-25T07:20:45.000Z</time>
</trkpt>
<trkpt lat="46.0954300" lon="10.4387930">
	<ele>1398.80</ele>
	<time>2024-07-25T07:20:46.000Z</time>
</trkpt>
<trkpt lat="46.0954230" lon="10.4388110">
	<ele>1399.00</ele>
	<time>2024-07-25T07:20:47.000Z</time>
</trkpt>
<trkpt lat="46.0954170" lon="10.4388200">
	<ele>1399.20</ele>
	<time>2024-07-25T07:20:48.000Z</time>
</trkpt>
<trkpt lat="46.0954130" lon="10.4388320">
	<ele>1399.40</ele>
	<time>2024-07-25T07:20:49.000Z</time>
</trkpt>
<trkpt lat="46.0954050" lon="10.4388410">
	<ele>1399.60</ele>
	<time>2024-07-25T07:20:50.000Z</time>
</trkpt>
<trkpt lat="46.0953990" lon="10.4388460">
	<ele>1399.60</ele>
	<time>2024-07-25T07:20:51.000Z</time>
</trkpt>
<trkpt lat="46.0953880" lon="10.4388510">
	<ele>1399.80</ele>
	<time>2024-07-25T07:20:52.000Z</time>
</trkpt>
<trkpt lat="46.0953780" lon="10.4388590">
	<ele>1400.00</ele>
	<time>2024-07-25T07:20:53.000Z</time>
</trkpt>
<trkpt lat="46.0953690" lon="10.4388690">
	<ele>1400.20</ele>
	<time>2024-07-25T07:20:54.000Z</time>
</trkpt>
<trkpt lat="46.0953580" lon="10.4388750">
	<ele>1400.40</ele>
	<time>2024-07-25T07:20:55.000Z</time>
</trkpt>
<trkpt lat="46.0953490" lon="10.4388790">
	<ele>1400.40</ele>
	<time>2024-07-25T07:20:56.000Z</time>
</trkpt>
<trkpt lat="46.0953400" lon="10.4388840">
	<ele>1400.60</ele>
	<time>2024-07-25T07:20:57.000Z</time>
</trkpt>
<trkpt lat="46.0953290" lon="10.4388910">
	<ele>1400.60</ele>
	<time>2024-07-25T07:20:58.000Z</time>
</trkpt>
<trkpt lat="46.0953240" lon="10.4388950">
	<ele>1400.80</ele>
	<time>2024-07-25T07:20:59.000Z</time>
</trkpt>
<trkpt lat="46.0953130" lon="10.4388980">
	<ele>1401.00</ele>
	<time>2024-07-25T07:21:00.000Z</time>
</trkpt>
<trkpt lat="46.0953040" lon="10.4388940">
	<ele>1401.00</ele>
	<time>2024-07-25T07:21:01.000Z</time>
</trkpt>
<trkpt lat="46.0952960" lon="10.4388910">
	<ele>1401.20</ele>
	<time>2024-07-25T07:21:02.000Z</time>
</trkpt>
<trkpt lat="46.0952880" lon="10.4389000">
	<ele>1401.40</ele>
	<time>2024-07-25T07:21:03.000Z</time>
</trkpt>
<trkpt lat="46.0952790" lon="10.4389020">
	<ele>1401.60</ele>
	<time>2024-07-25T07:21:04.000Z</time>
</trkpt>
<trkpt lat="46.0952720" lon="10.4388990">
	<ele>1401.80</ele>
	<time>2024-07-25T07:21:05.000Z</time>
</trkpt>
<trkpt lat="46.0952570" lon="10.4389010">
	<ele>1402.00</ele>
	<time>2024-07-25T07:21:06.000Z</time>
</trkpt>
<trkpt lat="46.0952480" lon="10.4389080">
	<ele>1402.00</ele>
	<time>2024-07-25T07:21:07.000Z</time>
</trkpt>
<trkpt lat="46.0952380" lon="10.4389180">
	<ele>1402.00</ele>
	<time>2024-07-25T07:21:08.000Z</time>
</trkpt>
<trkpt lat="46.0952320" lon="10.4389170">
	<ele>1402.20</ele>
	<time>2024-07-25T07:21:09.000Z</time>
</trkpt>
<trkpt lat="46.0952230" lon="10.4389160">
	<ele>1402.40</ele>
	<time>2024-07-25T07:21:10.000Z</time>
</trkpt>
<trkpt lat="46.0952130" lon="10.4389120">
	<ele>1402.40</ele>
	<time>2024-07-25T07:21:11.000Z</time>
</trkpt>
<trkpt lat="46.0951960" lon="10.4389020">
	<ele>1402.40</ele>
	<time>2024-07-25T07:21:12.000Z</time>
</trkpt>
<trkpt lat="46.0951860" lon="10.4388920">
	<ele>1402.60</ele>
	<time>2024-07-25T07:21:13.000Z</time>
</trkpt>
<trkpt lat="46.0951740" lon="10.4388830">
	<ele>1402.80</ele>
	<time>2024-07-25T07:21:14.000Z</time>
</trkpt>
<trkpt lat="46.0951650" lon="10.4388850">
	<ele>1402.80</ele>
	<time>2024-07-25T07:21:15.000Z</time>
</trkpt>
<trkpt lat="46.0951600" lon="10.4388890">
	<ele>1403.00</ele>
	<time>2024-07-25T07:21:16.000Z</time>
</trkpt>
<trkpt lat="46.0951500" lon="10.4388950">
	<ele>1403.00</ele>
	<time>2024-07-25T07:21:17.000Z</time>
</trkpt>
<trkpt lat="46.0951420" lon="10.4388980">
	<ele>1403.20</ele>
	<time>2024-07-25T07:21:18.000Z</time>
</trkpt>
<trkpt lat="46.0951370" lon="10.4388960">
	<ele>1403.20</ele>
	<time>2024-07-25T07:21:19.000Z</time>
</trkpt>
<trkpt lat="46.0951350" lon="10.4388960">
	<ele>1403.40</ele>
	<time>2024-07-25T07:21:20.000Z</time>
</trkpt>
<trkpt lat="46.0951420" lon="10.4388940">
	<ele>1403.40</ele>
	<time>2024-07-25T07:21:21.000Z</time>
</trkpt>
<trkpt lat="46.0951480" lon="10.4388880">
	<ele>1403.60</ele>
	<time>2024-07-25T07:21:22.000Z</time>
</trkpt>
<trkpt lat="46.0951550" lon="10.4388840">
	<ele>1403.80</ele>
	<time>2024-07-25T07:21:23.000Z</time>
</trkpt>
<trkpt lat="46.0951600" lon="10.4388840">
	<ele>1403.80</ele>
	<time>2024-07-25T07:21:24.000Z</time>
</trkpt>
<trkpt lat="46.0951640" lon="10.4388850">
	<ele>1404.00</ele>
	<time>2024-07-25T07:21:25.000Z</time>
</trkpt>
<trkpt lat="46.0951630" lon="10.4388830">
	<ele>1403.80</ele>
	<time>2024-07-25T07:21:26.000Z</time>
</trkpt>
<trkpt lat="46.0951620" lon="10.4388820">
	<ele>1403.80</ele>
	<time>2024-07-25T07:21:27.000Z</time>
</trkpt>
<trkpt lat="46.0951600" lon="10.4388810">
	<ele>1404.00</ele>
	<time>2024-07-25T07:21:28.000Z</time>
</trkpt>
<trkpt lat="46.0951590" lon="10.4388800">
	<ele>1404.00</ele>
	<time>2024-07-25T07:21:29.000Z</time>
</trkpt>
<trkpt lat="46.0951590" lon="10.4388800">
	<ele>1403.80</ele>
	<time>2024-07-25T07:21:30.000Z</time>
</trkpt>
<trkpt lat="46.0951590" lon="10.4388800">
	<ele>1403.80</ele>
	<time>2024-07-25T07:21:31.000Z</time>
</trkpt>
<trkpt lat="46.0951590" lon="10.4388800">
	<ele>1403.60</ele>
	<time>2024-07-25T07:21:32.000Z</time>
</trkpt>
<trkpt lat="46.0951590" lon="10.4388800">
	<ele>1403.60</ele>
	<time>2024-07-25T07:21:33.000Z</time>
</trkpt>
<trkpt lat="46.0951590" lon="10.4388800">
	<ele>1403.60</ele>
	<time>2024-07-25T07:21:34.000Z</time>
</trkpt>
<trkpt lat="46.0951590" lon="10.4388800">
	<ele>1403.60</ele>
	<time>2024-07-25T07:21:35.000Z</time>
</trkpt>
<trkpt lat="46.0951590" lon="10.4388800">
	<ele>1403.60</ele>
	<time>2024-07-25T07:21:36.000Z</time>
</trkpt>
<trkpt lat="46.0951590" lon="10.4388800">
	<ele>1403.40</ele>
	<time>2024-07-25T07:21:37.000Z</time>
</trkpt>
<trkpt lat="46.0951590" lon="10.4388800">
	<ele>1403.40</ele>
	<time>2024-07-25T07:21:38.000Z</time>
</trkpt>
<trkpt lat="46.0951590" lon="10.4388800">
	<ele>1403.20</ele>
	<time>2024-07-25T07:21:39.000Z</time>
</trkpt>
<trkpt lat="46.0951590" lon="10.4388800">
	<ele>1403.40</ele>
	<time>2024-07-25T07:21:40.000Z</time>
</trkpt>
<trkpt lat="46.0951590" lon="10.4388800">
	<ele>1403.40</ele>
	<time>2024-07-25T07:21:41.000Z</time>
</trkpt>
<trkpt lat="46.0951590" lon="10.4388810">
	<ele>1403.60</ele>
	<time>2024-07-25T07:21:42.000Z</time>
</trkpt>
<trkpt lat="46.0951590" lon="10.4388810">
	<ele>1403.80</ele>
	<time>2024-07-25T07:21:43.000Z</time>
</trkpt>
<trkpt lat="46.0951590" lon="10.4388820">
	<ele>1403.80</ele>
	<time>2024-07-25T07:21:44.000Z</time>
</trkpt>
<trkpt lat="46.0951590" lon="10.4388860">
	<ele>1404.00</ele>
	<time>2024-07-25T07:21:45.000Z</time>
</trkpt>
<trkpt lat="46.0951610" lon="10.4388900">
	<ele>1404.00</ele>
	<time>2024-07-25T07:21:46.000Z</time>
</trkpt>
<trkpt lat="46.0951670" lon="10.4388940">
	<ele>1404.00</ele>
	<time>2024-07-25T07:21:47.000Z</time>
</trkpt>
<trkpt lat="46.0951720" lon="10.4389010">
	<ele>1404.00</ele>
	<time>2024-07-25T07:21:48.000Z</time>
</trkpt>
<trkpt lat="46.0951750" lon="10.4389080">
	<ele>1403.80</ele>
	<time>2024-07-25T07:21:49.000Z</time>
</trkpt>
<trkpt lat="46.0951720" lon="10.4389150">
	<ele>1403.60</ele>
	<time>2024-07-25T07:21:50.000Z</time>
</trkpt>
<trkpt lat="46.0951620" lon="10.4389230">
	<ele>1403.60</ele>
	<time>2024-07-25T07:21:51.000Z</time>
</trkpt>
<trkpt lat="46.0951590" lon="10.4389290">
	<ele>1403.60</ele>
	<time>2024-07-25T07:21:52.000Z</time>
</trkpt>
<trkpt lat="46.0951590" lon="10.4389320">
	<ele>1403.60</ele>
	<time>2024-07-25T07:21:53.000Z</time>
</trkpt>
<trkpt lat="46.0951580" lon="10.4389380">
	<ele>1404.00</ele>
	<time>2024-07-25T07:21:54.000Z</time>
</trkpt>
<trkpt lat="46.0951570" lon="10.4389380">
	<ele>1404.20</ele>
	<time>2024-07-25T07:21:55.000Z</time>
</trkpt>
<trkpt lat="46.0951560" lon="10.4389380">
	<ele>1404.20</ele>
	<time>2024-07-25T07:21:56.000Z</time>
</trkpt>
<trkpt lat="46.0951560" lon="10.4389380">
	<ele>1404.40</ele>
	<time>2024-07-25T07:21:57.000Z</time>
</trkpt>
<trkpt lat="46.0951560" lon="10.4389380">
	<ele>1404.40</ele>
	<time>2024-07-25T07:21:58.000Z</time>
</trkpt>
<trkpt lat="46.0951560" lon="10.4389380">
	<ele>1404.40</ele>
	<time>2024-07-25T07:21:59.000Z</time>
</trkpt>
<trkpt lat="46.0951560" lon="10.4389380">
	<ele>1404.20</ele>
	<time>2024-07-25T07:22:00.000Z</time>
</trkpt>
<trkpt lat="46.0951590" lon="10.4389410">
	<ele>1404.20</ele>
	<time>2024-07-25T07:22:01.000Z</time>
</trkpt>
<trkpt lat="46.0951680" lon="10.4389530">
	<ele>1404.00</ele>
	<time>2024-07-25T07:22:02.000Z</time>
</trkpt>
<trkpt lat="46.0951760" lon="10.4389600">
	<ele>1404.00</ele>
	<time>2024-07-25T07:22:03.000Z</time>
</trkpt>
<trkpt lat="46.0951820" lon="10.4389670">
	<ele>1404.00</ele>
	<time>2024-07-25T07:22:04.000Z</time>
</trkpt>
<trkpt lat="46.0951910" lon="10.4389800">
	<ele>1404.00</ele>
	<time>2024-07-25T07:22:05.000Z</time>
</trkpt>
<trkpt lat="46.0952040" lon="10.4389910">
	<ele>1404.00</ele>
	<time>2024-07-25T07:22:06.000Z</time>
</trkpt>
<trkpt lat="46.0952160" lon="10.4389990">
	<ele>1404.20</ele>
	<time>2024-07-25T07:22:07.000Z</time>
</trkpt>
<trkpt lat="46.0952290" lon="10.4390040">
	<ele>1404.20</ele>
	<time>2024-07-25T07:22:08.000Z</time>
</trkpt>
<trkpt lat="46.0952420" lon="10.4390070">
	<ele>1404.20</ele>
	<time>2024-07-25T07:22:09.000Z</time>
</trkpt>
<trkpt lat="46.0952520" lon="10.4390100">
	<ele>1404.40</ele>
	<time>2024-07-25T07:22:10.000Z</time>
</trkpt>
<trkpt lat="46.0952580" lon="10.4390150">
	<ele>1404.60</ele>
	<time>2024-07-25T07:22:11.000Z</time>
</trkpt>
<trkpt lat="46.0952650" lon="10.4390210">
	<ele>1404.80</ele>
	<time>2024-07-25T07:22:12.000Z</time>
</trkpt>
<trkpt lat="46.0952700" lon="10.4390310">
	<ele>1405.00</ele>
	<time>2024-07-25T07:22:13.000Z</time>
</trkpt>
<trkpt lat="46.0952790" lon="10.4390390">
	<ele>1405.20</ele>
	<time>2024-07-25T07:22:14.000Z</time>
</trkpt>
<trkpt lat="46.0952910" lon="10.4390420">
	<ele>1405.40</ele>
	<time>2024-07-25T07:22:15.000Z</time>
</trkpt>
<trkpt lat="46.0953000" lon="10.4390440">
	<ele>1405.40</ele>
	<time>2024-07-25T07:22:16.000Z</time>
</trkpt>
<trkpt lat="46.0953090" lon="10.4390480">
	<ele>1405.60</ele>
	<time>2024-07-25T07:22:17.000Z</time>
</trkpt>
<trkpt lat="46.0953210" lon="10.4390500">
	<ele>1405.80</ele>
	<time>2024-07-25T07:22:18.000Z</time>
</trkpt>
<trkpt lat="46.0953380" lon="10.4390500">
	<ele>1406.00</ele>
	<time>2024-07-25T07:22:19.000Z</time>
</trkpt>
<trkpt lat="46.0953490" lon="10.4390460">
	<ele>1406.00</ele>
	<time>2024-07-25T07:22:20.000Z</time>
</trkpt>
<trkpt lat="46.0953600" lon="10.4390420">
	<ele>1406.20</ele>
	<time>2024-07-25T07:22:21.000Z</time>
</trkpt>
<trkpt lat="46.0953670" lon="10.4390450">
	<ele>1406.60</ele>
	<time>2024-07-25T07:22:22.000Z</time>
</trkpt>
<trkpt lat="46.0953740" lon="10.4390470">
	<ele>1406.80</ele>
	<time>2024-07-25T07:22:23.000Z</time>
</trkpt>
<trkpt lat="46.0953800" lon="10.4390450">
	<ele>1407.00</ele>
	<time>2024-07-25T07:22:24.000Z</time>
</trkpt>
<trkpt lat="46.0953850" lon="10.4390430">
	<ele>1407.40</ele>
	<time>2024-07-25T07:22:25.000Z</time>
</trkpt>
<trkpt lat="46.0953930" lon="10.4390380">
	<ele>1407.60</ele>
	<time>2024-07-25T07:22:26.000Z</time>
</trkpt>
<trkpt lat="46.0953990" lon="10.4390410">
	<ele>1407.60</ele>
	<time>2024-07-25T07:22:27.000Z</time>
</trkpt>
<trkpt lat="46.0954080" lon="10.4390410">
	<ele>1407.80</ele>
	<time>2024-07-25T07:22:28.000Z</time>
</trkpt>
<trkpt lat="46.0954270" lon="10.4390390">
	<ele>1408.20</ele>
	<time>2024-07-25T07:22:29.000Z</time>
</trkpt>
<trkpt lat="46.0954390" lon="10.4390340">
	<ele>1408.40</ele>
	<time>2024-07-25T07:22:30.000Z</time>
</trkpt>
<trkpt lat="46.0954510" lon="10.4390340">
	<ele>1408.40</ele>
	<time>2024-07-25T07:22:31.000Z</time>
</trkpt>
<trkpt lat="46.0954630" lon="10.4390360">
	<ele>1408.60</ele>
	<time>2024-07-25T07:22:32.000Z</time>
</trkpt>
<trkpt lat="46.0954750" lon="10.4390370">
	<ele>1408.80</ele>
	<time>2024-07-25T07:22:33.000Z</time>
</trkpt>
<trkpt lat="46.0954860" lon="10.4390370">
	<ele>1408.80</ele>
	<time>2024-07-25T07:22:34.000Z</time>
</trkpt>
<trkpt lat="46.0955040" lon="10.4390290">
	<ele>1409.00</ele>
	<time>2024-07-25T07:22:35.000Z</time>
</trkpt>
<trkpt lat="46.0955110" lon="10.4390330">
	<ele>1409.20</ele>
	<time>2024-07-25T07:22:36.000Z</time>
</trkpt>
<trkpt lat="46.0955150" lon="10.4390360">
	<ele>1409.40</ele>
	<time>2024-07-25T07:22:37.000Z</time>
</trkpt>
<trkpt lat="46.0955250" lon="10.4390360">
	<ele>1409.60</ele>
	<time>2024-07-25T07:22:38.000Z</time>
</trkpt>
<trkpt lat="46.0955340" lon="10.4390330">
	<ele>1409.60</ele>
	<time>2024-07-25T07:22:39.000Z</time>
</trkpt>
<trkpt lat="46.0955390" lon="10.4390370">
	<ele>1409.80</ele>
	<time>2024-07-25T07:22:40.000Z</time>
</trkpt>
<trkpt lat="46.0955420" lon="10.4390530">
	<ele>1410.00</ele>
	<time>2024-07-25T07:22:41.000Z</time>
</trkpt>
<trkpt lat="46.0955490" lon="10.4390580">
	<ele>1410.20</ele>
	<time>2024-07-25T07:22:42.000Z</time>
</trkpt>
<trkpt lat="46.0955570" lon="10.4390530">
	<ele>1410.40</ele>
	<time>2024-07-25T07:22:43.000Z</time>
</trkpt>
<trkpt lat="46.0955700" lon="10.4390450">
	<ele>1410.40</ele>
	<time>2024-07-25T07:22:44.000Z</time>
</trkpt>
<trkpt lat="46.0955800" lon="10.4390410">
	<ele>1410.60</ele>
	<time>2024-07-25T07:22:45.000Z</time>
</trkpt>
<trkpt lat="46.0955910" lon="10.4390430">
	<ele>1410.80</ele>
	<time>2024-07-25T07:22:46.000Z</time>
</trkpt>
<trkpt lat="46.0955970" lon="10.4390410">
	<ele>1411.20</ele>
	<time>2024-07-25T07:22:47.000Z</time>
</trkpt>
<trkpt lat="46.0956020" lon="10.4390320">
	<ele>1411.40</ele>
	<time>2024-07-25T07:22:48.000Z</time>
</trkpt>
<trkpt lat="46.0956080" lon="10.4390200">
	<ele>1411.40</ele>
	<time>2024-07-25T07:22:49.000Z</time>
</trkpt>
<trkpt lat="46.0956150" lon="10.4390170">
	<ele>1411.80</ele>
	<time>2024-07-25T07:22:50.000Z</time>
</trkpt>
<trkpt lat="46.0956250" lon="10.4390150">
	<ele>1412.00</ele>
	<time>2024-07-25T07:22:51.000Z</time>
</trkpt>
<trkpt lat="46.0956340" lon="10.4390150">
	<ele>1412.20</ele>
	<time>2024-07-25T07:22:52.000Z</time>
</trkpt>
<trkpt lat="46.0956450" lon="10.4390130">
	<ele>1412.20</ele>
	<time>2024-07-25T07:22:53.000Z</time>
</trkpt>
<trkpt lat="46.0956560" lon="10.4390130">
	<ele>1412.20</ele>
	<time>2024-07-25T07:22:54.000Z</time>
</trkpt>
<trkpt lat="46.0956700" lon="10.4390090">
	<ele>1412.60</ele>
	<time>2024-07-25T07:22:55.000Z</time>
</trkpt>
<trkpt lat="46.0956810" lon="10.4390030">
	<ele>1412.60</ele>
	<time>2024-07-25T07:22:56.000Z</time>
</trkpt>
<trkpt lat="46.0956970" lon="10.4389860">
	<ele>1412.80</ele>
	<time>2024-07-25T07:22:57.000Z</time>
</trkpt>
<trkpt lat="46.0957060" lon="10.4389760">
	<ele>1413.00</ele>
	<time>2024-07-25T07:22:58.000Z</time>
</trkpt>
<trkpt lat="46.0957130" lon="10.4389690">
	<ele>1413.20</ele>
	<time>2024-07-25T07:22:59.000Z</time>
</trkpt>
<trkpt lat="46.0957200" lon="10.4389590">
	<ele>1413.40</ele>
	<time>2024-07-25T07:23:00.000Z</time>
</trkpt>
<trkpt lat="46.0957260" lon="10.4389560">
	<ele>1413.60</ele>
	<time>2024-07-25T07:23:01.000Z</time>
</trkpt>
<trkpt lat="46.0957310" lon="10.4389560">
	<ele>1413.80</ele>
	<time>2024-07-25T07:23:02.000Z</time>
</trkpt>
<trkpt lat="46.0957370" lon="10.4389530">
	<ele>1414.20</ele>
	<time>2024-07-25T07:23:03.000Z</time>
</trkpt>
<trkpt lat="46.0957470" lon="10.4389520">
	<ele>1414.20</ele>
	<time>2024-07-25T07:23:04.000Z</time>
</trkpt>
<trkpt lat="46.0957550" lon="10.4389520">
	<ele>1414.40</ele>
	<time>2024-07-25T07:23:05.000Z</time>
</trkpt>
<trkpt lat="46.0957670" lon="10.4389480">
	<ele>1414.60</ele>
	<time>2024-07-25T07:23:06.000Z</time>
</trkpt>
<trkpt lat="46.0957790" lon="10.4389440">
	<ele>1414.80</ele>
	<time>2024-07-25T07:23:07.000Z</time>
</trkpt>
<trkpt lat="46.0957890" lon="10.4389370">
	<ele>1415.00</ele>
	<time>2024-07-25T07:23:08.000Z</time>
</trkpt>
<trkpt lat="46.0957970" lon="10.4389290">
	<ele>1415.20</ele>
	<time>2024-07-25T07:23:09.000Z</time>
</trkpt>
<trkpt lat="46.0958080" lon="10.4389230">
	<ele>1415.40</ele>
	<time>2024-07-25T07:23:10.000Z</time>
</trkpt>
<trkpt lat="46.0958170" lon="10.4389150">
	<ele>1415.60</ele>
	<time>2024-07-25T07:23:11.000Z</time>
</trkpt>
<trkpt lat="46.0958230" lon="10.4389100">
	<ele>1415.80</ele>
	<time>2024-07-25T07:23:12.000Z</time>
</trkpt>
<trkpt lat="46.0958300" lon="10.4389140">
	<ele>1415.80</ele>
	<time>2024-07-25T07:23:13.000Z</time>
</trkpt>
<trkpt lat="46.0958350" lon="10.4389230">
	<ele>1416.00</ele>
	<time>2024-07-25T07:23:14.000Z</time>
</trkpt>
<trkpt lat="46.0958440" lon="10.4389200">
	<ele>1416.20</ele>
	<time>2024-07-25T07:23:15.000Z</time>
</trkpt>
<trkpt lat="46.0958520" lon="10.4389190">
	<ele>1416.40</ele>
	<time>2024-07-25T07:23:16.000Z</time>
</trkpt>
<trkpt lat="46.0958600" lon="10.4389180">
	<ele>1416.60</ele>
	<time>2024-07-25T07:23:17.000Z</time>
</trkpt>
<trkpt lat="46.0958720" lon="10.4389210">
	<ele>1416.80</ele>
	<time>2024-07-25T07:23:18.000Z</time>
</trkpt>
<trkpt lat="46.0958810" lon="10.4389150">
	<ele>1417.00</ele>
	<time>2024-07-25T07:23:19.000Z</time>
</trkpt>
<trkpt lat="46.0958860" lon="10.4389080">
	<ele>1417.00</ele>
	<time>2024-07-25T07:23:20.000Z</time>
</trkpt>
<trkpt lat="46.0958910" lon="10.4389010">
	<ele>1417.20</ele>
	<time>2024-07-25T07:23:21.000Z</time>
</trkpt>
<trkpt lat="46.0958920" lon="10.4388910">
	<ele>1417.40</ele>
	<time>2024-07-25T07:23:22.000Z</time>
</trkpt>
<trkpt lat="46.0958960" lon="10.4388840">
	<ele>1417.80</ele>
	<time>2024-07-25T07:23:23.000Z</time>
</trkpt>
<trkpt lat="46.0959060" lon="10.4388720">
	<ele>1417.80</ele>
	<time>2024-07-25T07:23:24.000Z</time>
</trkpt>
<trkpt lat="46.0959130" lon="10.4388660">
	<ele>1418.00</ele>
	<time>2024-07-25T07:23:25.000Z</time>
</trkpt>
<trkpt lat="46.0959200" lon="10.4388600">
	<ele>1418.20</ele>
	<time>2024-07-25T07:23:26.000Z</time>
</trkpt>
<trkpt lat="46.0959250" lon="10.4388530">
	<ele>1418.20</ele>
	<time>2024-07-25T07:23:27.000Z</time>
</trkpt>
<trkpt lat="46.0959320" lon="10.4388460">
	<ele>1418.60</ele>
	<time>2024-07-25T07:23:28.000Z</time>
</trkpt>
<trkpt lat="46.0959360" lon="10.4388430">
	<ele>1418.80</ele>
	<time>2024-07-25T07:23:29.000Z</time>
</trkpt>
<trkpt lat="46.0959370" lon="10.4388410">
	<ele>1419.00</ele>
	<time>2024-07-25T07:23:30.000Z</time>
</trkpt>
<trkpt lat="46.0959370" lon="10.4388400">
	<ele>1419.20</ele>
	<time>2024-07-25T07:23:31.000Z</time>
</trkpt>
<trkpt lat="46.0959370" lon="10.4388410">
	<ele>1419.20</ele>
	<time>2024-07-25T07:23:32.000Z</time>
</trkpt>
<trkpt lat="46.0959370" lon="10.4388410">
	<ele>1419.40</ele>
	<time>2024-07-25T07:23:33.000Z</time>
</trkpt>
<trkpt lat="46.0959360" lon="10.4388430">
	<ele>1419.40</ele>
	<time>2024-07-25T07:23:34.000Z</time>
</trkpt>
<trkpt lat="46.0959330" lon="10.4388440">
	<ele>1419.20</ele>
	<time>2024-07-25T07:23:35.000Z</time>
</trkpt>
<trkpt lat="46.0959300" lon="10.4388440">
	<ele>1419.20</ele>
	<time>2024-07-25T07:23:36.000Z</time>
</trkpt>
<trkpt lat="46.0959260" lon="10.4388450">
	<ele>1419.00</ele>
	<time>2024-07-25T07:23:37.000Z</time>
</trkpt>
<trkpt lat="46.0959230" lon="10.4388450">
	<ele>1419.00</ele>
	<time>2024-07-25T07:23:38.000Z</time>
</trkpt>
<trkpt lat="46.0959220" lon="10.4388460">
	<ele>1419.00</ele>
	<time>2024-07-25T07:23:39.000Z</time>
</trkpt>
<trkpt lat="46.0959220" lon="10.4388480">
	<ele>1419.00</ele>
	<time>2024-07-25T07:23:40.000Z</time>
</trkpt>
<trkpt lat="46.0959210" lon="10.4388510">
	<ele>1419.00</ele>
	<time>2024-07-25T07:23:41.000Z</time>
</trkpt>
<trkpt lat="46.0959230" lon="10.4388490">
	<ele>1419.00</ele>
	<time>2024-07-25T07:23:42.000Z</time>
</trkpt>
<trkpt lat="46.0959230" lon="10.4388540">
	<ele>1419.00</ele>
	<time>2024-07-25T07:23:43.000Z</time>
</trkpt>
<trkpt lat="46.0959220" lon="10.4388560">
	<ele>1419.00</ele>
	<time>2024-07-25T07:23:44.000Z</time>
</trkpt>
<trkpt lat="46.0959250" lon="10.4388550">
	<ele>1419.20</ele>
	<time>2024-07-25T07:23:45.000Z</time>
</trkpt>
<trkpt lat="46.0959250" lon="10.4388570">
	<ele>1419.20</ele>
	<time>2024-07-25T07:23:46.000Z</time>
</trkpt>
<trkpt lat="46.0959250" lon="10.4388600">
	<ele>1419.20</ele>
	<time>2024-07-25T07:23:47.000Z</time>
</trkpt>
<trkpt lat="46.0959210" lon="10.4388660">
	<ele>1419.20</ele>
	<time>2024-07-25T07:23:48.000Z</time>
</trkpt>
<trkpt lat="46.0959180" lon="10.4388680">
	<ele>1419.20</ele>
	<time>2024-07-25T07:23:49.000Z</time>
</trkpt>
<trkpt lat="46.0959170" lon="10.4388680">
	<ele>1419.40</ele>
	<time>2024-07-25T07:23:50.000Z</time>
</trkpt>
<trkpt lat="46.0959210" lon="10.4388700">
	<ele>1419.40</ele>
	<time>2024-07-25T07:23:51.000Z</time>
</trkpt>
<trkpt lat="46.0959240" lon="10.4388680">
	<ele>1419.40</ele>
	<time>2024-07-25T07:23:52.000Z</time>
</trkpt>
<trkpt lat="46.0959270" lon="10.4388690">
	<ele>1419.40</ele>
	<time>2024-07-25T07:23:53.000Z</time>
</trkpt>
<trkpt lat="46.0959280" lon="10.4388700">
	<ele>1419.20</ele>
	<time>2024-07-25T07:23:54.000Z</time>
</trkpt>
<trkpt lat="46.0959270" lon="10.4388700">
	<ele>1419.20</ele>
	<time>2024-07-25T07:23:55.000Z</time>
</trkpt>
<trkpt lat="46.0959300" lon="10.4388700">
	<ele>1419.20</ele>
	<time>2024-07-25T07:23:56.000Z</time>
</trkpt>
<trkpt lat="46.0959400" lon="10.4388670">
	<ele>1419.00</ele>
	<time>2024-07-25T07:23:57.000Z</time>
</trkpt>
<trkpt lat="46.0959450" lon="10.4388650">
	<ele>1419.20</ele>
	<time>2024-07-25T07:23:58.000Z</time>
</trkpt>
<trkpt lat="46.0959460" lon="10.4388640">
	<ele>1419.40</ele>
	<time>2024-07-25T07:23:59.000Z</time>
</trkpt>
<trkpt lat="46.0959450" lon="10.4388680">
	<ele>1419.60</ele>
	<time>2024-07-25T07:24:00.000Z</time>
</trkpt>
<trkpt lat="46.0959490" lon="10.4388780">
	<ele>1419.60</ele>
	<time>2024-07-25T07:24:01.000Z</time>
</trkpt>
<trkpt lat="46.0959550" lon="10.4388940">
	<ele>1419.80</ele>
	<time>2024-07-25T07:24:02.000Z</time>
</trkpt>
<trkpt lat="46.0959580" lon="10.4389050">
	<ele>1419.80</ele>
	<time>2024-07-25T07:24:03.000Z</time>
</trkpt>
<trkpt lat="46.0959580" lon="10.4389190">
	<ele>1419.80</ele>
	<time>2024-07-25T07:24:04.000Z</time>
</trkpt>
<trkpt lat="46.0959580" lon="10.4389330">
	<ele>1419.80</ele>
	<time>2024-07-25T07:24:05.000Z</time>
</trkpt>
<trkpt lat="46.0959510" lon="10.4389440">
	<ele>1419.80</ele>
	<time>2024-07-25T07:24:06.000Z</time>
</trkpt>
<trkpt lat="46.0959470" lon="10.4389550">
	<ele>1420.00</ele>
	<time>2024-07-25T07:24:07.000Z</time>
</trkpt>
<trkpt lat="46.0959440" lon="10.4389690">
	<ele>1420.20</ele>
	<time>2024-07-25T07:24:08.000Z</time>
</trkpt>
<trkpt lat="46.0959390" lon="10.4389810">
	<ele>1420.40</ele>
	<time>2024-07-25T07:24:09.000Z</time>
</trkpt>
<trkpt lat="46.0959380" lon="10.4389940">
	<ele>1420.60</ele>
	<time>2024-07-25T07:24:10.000Z</time>
</trkpt>
<trkpt lat="46.0959380" lon="10.4390090">
	<ele>1420.80</ele>
	<time>2024-07-25T07:24:11.000Z</time>
</trkpt>
<trkpt lat="46.0959310" lon="10.4390230">
	<ele>1420.80</ele>
	<time>2024-07-25T07:24:12.000Z</time>
</trkpt>
<trkpt lat="46.0959310" lon="10.4390400">
	<ele>1421.00</ele>
	<time>2024-07-25T07:24:13.000Z</time>
</trkpt>
<trkpt lat="46.0959310" lon="10.4390490">
	<ele>1421.00</ele>
	<time>2024-07-25T07:24:14.000Z</time>
</trkpt>
<trkpt lat="46.0959340" lon="10.4390580">
	<ele>1421.20</ele>
	<time>2024-07-25T07:24:15.000Z</time>
</trkpt>
<trkpt lat="46.0959370" lon="10.4390610">
	<ele>1421.40</ele>
	<time>2024-07-25T07:24:16.000Z</time>
</trkpt>
<trkpt lat="46.0959360" lon="10.4390670">
	<ele>1421.40</ele>
	<time>2024-07-25T07:24:17.000Z</time>
</trkpt>
<trkpt lat="46.0959350" lon="10.4390740">
	<ele>1421.40</ele>
	<time>2024-07-25T07:24:18.000Z</time>
</trkpt>
<trkpt lat="46.0959330" lon="10.4390800">
	<ele>1421.60</ele>
	<time>2024-07-25T07:24:19.000Z</time>
</trkpt>
<trkpt lat="46.0959330" lon="10.4390970">
	<ele>1421.80</ele>
	<time>2024-07-25T07:24:20.000Z</time>
</trkpt>
<trkpt lat="46.0959360" lon="10.4391130">
	<ele>1422.00</ele>
	<time>2024-07-25T07:24:21.000Z</time>
</trkpt>
<trkpt lat="46.0959390" lon="10.4391320">
	<ele>1422.20</ele>
	<time>2024-07-25T07:24:22.000Z</time>
</trkpt>
<trkpt lat="46.0959380" lon="10.4391410">
	<ele>1422.60</ele>
	<time>2024-07-25T07:24:23.000Z</time>
</trkpt>
<trkpt lat="46.0959380" lon="10.4391500">
	<ele>1422.80</ele>
	<time>2024-07-25T07:24:24.000Z</time>
</trkpt>
<trkpt lat="46.0959380" lon="10.4391610">
	<ele>1423.00</ele>
	<time>2024-07-25T07:24:25.000Z</time>
</trkpt>
<trkpt lat="46.0959410" lon="10.4391700">
	<ele>1423.20</ele>
	<time>2024-07-25T07:24:26.000Z</time>
</trkpt>
<trkpt lat="46.0959460" lon="10.4391820">
	<ele>1423.40</ele>
	<time>2024-07-25T07:24:27.000Z</time>
</trkpt>
<trkpt lat="46.0959540" lon="10.4391900">
	<ele>1423.40</ele>
	<time>2024-07-25T07:24:28.000Z</time>
</trkpt>
<trkpt lat="46.0959570" lon="10.4391940">
	<ele>1423.60</ele>
	<time>2024-07-25T07:24:29.000Z</time>
</trkpt>
<trkpt lat="46.0959610" lon="10.4391920">
	<ele>1423.80</ele>
	<time>2024-07-25T07:24:30.000Z</time>
</trkpt>
<trkpt lat="46.0959670" lon="10.4391890">
	<ele>1423.80</ele>
	<time>2024-07-25T07:24:31.000Z</time>
</trkpt>
<trkpt lat="46.0959760" lon="10.4391820">
	<ele>1423.80</ele>
	<time>2024-07-25T07:24:32.000Z</time>
</trkpt>
<trkpt lat="46.0959860" lon="10.4391740">
	<ele>1424.00</ele>
	<time>2024-07-25T07:24:33.000Z</time>
</trkpt>
<trkpt lat="46.0959940" lon="10.4391640">
	<ele>1424.40</ele>
	<time>2024-07-25T07:24:34.000Z</time>
</trkpt>
<trkpt lat="46.0959990" lon="10.4391620">
	<ele>1424.60</ele>
	<time>2024-07-25T07:24:35.000Z</time>
</trkpt>
<trkpt lat="46.0960000" lon="10.4391460">
	<ele>1424.80</ele>
	<time>2024-07-25T07:24:36.000Z</time>
</trkpt>
<trkpt lat="46.0960050" lon="10.4391340">
	<ele>1425.00</ele>
	<time>2024-07-25T07:24:37.000Z</time>
</trkpt>
<trkpt lat="46.0960190" lon="10.4391280">
	<ele>1425.00</ele>
	<time>2024-07-25T07:24:38.000Z</time>
</trkpt>
<trkpt lat="46.0960310" lon="10.4391190">
	<ele>1425.20</ele>
	<time>2024-07-25T07:24:39.000Z</time>
</trkpt>
<trkpt lat="46.0960430" lon="10.4391120">
	<ele>1425.40</ele>
	<time>2024-07-25T07:24:40.000Z</time>
</trkpt>
<trkpt lat="46.0960520" lon="10.4391050">
	<ele>1425.60</ele>
	<time>2024-07-25T07:24:41.000Z</time>
</trkpt>
<trkpt lat="46.0960610" lon="10.4390940">
	<ele>1425.60</ele>
	<time>2024-07-25T07:24:42.000Z</time>
</trkpt>
<trkpt lat="46.0960680" lon="10.4390820">
	<ele>1425.80</ele>
	<time>2024-07-25T07:24:43.000Z</time>
</trkpt>
<trkpt lat="46.0960750" lon="10.4390740">
	<ele>1426.00</ele>
	<time>2024-07-25T07:24:44.000Z</time>
</trkpt>
<trkpt lat="46.0960800" lon="10.4390730">
	<ele>1426.20</ele>
	<time>2024-07-25T07:24:45.000Z</time>
</trkpt>
<trkpt lat="46.0960920" lon="10.4390710">
	<ele>1426.40</ele>
	<time>2024-07-25T07:24:46.000Z</time>
</trkpt>
<trkpt lat="46.0961030" lon="10.4390670">
	<ele>1426.60</ele>
	<time>2024-07-25T07:24:47.000Z</time>
</trkpt>
<trkpt lat="46.0961100" lon="10.4390700">
	<ele>1426.80</ele>
	<time>2024-07-25T07:24:48.000Z</time>
</trkpt>
<trkpt lat="46.0961180" lon="10.4390730">
	<ele>1427.00</ele>
	<time>2024-07-25T07:24:49.000Z</time>
</trkpt>
<trkpt lat="46.0961240" lon="10.4390810">
	<ele>1427.20</ele>
	<time>2024-07-25T07:24:50.000Z</time>
</trkpt>
<trkpt lat="46.0961280" lon="10.4390880">
	<ele>1427.20</ele>
	<time>2024-07-25T07:24:51.000Z</time>
</trkpt>
<trkpt lat="46.0961300" lon="10.4390970">
	<ele>1427.40</ele>
	<time>2024-07-25T07:24:52.000Z</time>
</trkpt>
<trkpt lat="46.0961310" lon="10.4391090">
	<ele>1427.80</ele>
	<time>2024-07-25T07:24:53.000Z</time>
</trkpt>
<trkpt lat="46.0961300" lon="10.4391200">
	<ele>1428.00</ele>
	<time>2024-07-25T07:24:54.000Z</time>
</trkpt>
<trkpt lat="46.0961260" lon="10.4391240">
	<ele>1428.00</ele>
	<time>2024-07-25T07:24:55.000Z</time>
</trkpt>
<trkpt lat="46.0961210" lon="10.4391300">
	<ele>1428.20</ele>
	<time>2024-07-25T07:24:56.000Z</time>
</trkpt>
<trkpt lat="46.0961180" lon="10.4391380">
	<ele>1428.40</ele>
	<time>2024-07-25T07:24:57.000Z</time>
</trkpt>
<trkpt lat="46.0961140" lon="10.4391500">
	<ele>1428.60</ele>
	<time>2024-07-25T07:24:58.000Z</time>
</trkpt>
<trkpt lat="46.0961070" lon="10.4391560">
	<ele>1428.80</ele>
	<time>2024-07-25T07:24:59.000Z</time>
</trkpt>
<trkpt lat="46.0961040" lon="10.4391630">
	<ele>1429.20</ele>
	<time>2024-07-25T07:25:00.000Z</time>
</trkpt>
<trkpt lat="46.0960960" lon="10.4391640">
	<ele>1429.40</ele>
	<time>2024-07-25T07:25:01.000Z</time>
</trkpt>
<trkpt lat="46.0960830" lon="10.4391690">
	<ele>1429.40</ele>
	<time>2024-07-25T07:25:02.000Z</time>
</trkpt>
<trkpt lat="46.0960720" lon="10.4391770">
	<ele>1429.60</ele>
	<time>2024-07-25T07:25:03.000Z</time>
</trkpt>
<trkpt lat="46.0960670" lon="10.4391850">
	<ele>1429.80</ele>
	<time>2024-07-25T07:25:04.000Z</time>
</trkpt>
<trkpt lat="46.0960610" lon="10.4391920">
	<ele>1430.00</ele>
	<time>2024-07-25T07:25:05.000Z</time>
</trkpt>
<trkpt lat="46.0960530" lon="10.4391970">
	<ele>1430.00</ele>
	<time>2024-07-25T07:25:06.000Z</time>
</trkpt>
<trkpt lat="46.0960470" lon="10.4391990">
	<ele>1430.20</ele>
	<time>2024-07-25T07:25:07.000Z</time>
</trkpt>
<trkpt lat="46.0960390" lon="10.4392010">
	<ele>1430.40</ele>
	<time>2024-07-25T07:25:08.000Z</time>
</trkpt>
<trkpt lat="46.0960320" lon="10.4392070">
	<ele>1430.60</ele>
	<time>2024-07-25T07:25:09.000Z</time>
</trkpt>
<trkpt lat="46.0960240" lon="10.4392130">
	<ele>1430.80</ele>
	<time>2024-07-25T07:25:10.000Z</time>
</trkpt>
<trkpt lat="46.0960110" lon="10.4392170">
	<ele>1430.80</ele>
	<time>2024-07-25T07:25:11.000Z</time>
</trkpt>
<trkpt lat="46.0960010" lon="10.4392180">
	<ele>1431.20</ele>
	<time>2024-07-25T07:25:12.000Z</time>
</trkpt>
<trkpt lat="46.0959900" lon="10.4392270">
	<ele>1431.40</ele>
	<time>2024-07-25T07:25:13.000Z</time>
</trkpt>
<trkpt lat="46.0959780" lon="10.4392310">
	<ele>1431.40</ele>
	<time>2024-07-25T07:25:14.000Z</time>
</trkpt>
<trkpt lat="46.0959680" lon="10.4392340">
	<ele>1431.60</ele>
	<time>2024-07-25T07:25:15.000Z</time>
</trkpt>
<trkpt lat="46.0959630" lon="10.4392380">
	<ele>1431.80</ele>
	<time>2024-07-25T07:25:16.000Z</time>
</trkpt>
<trkpt lat="46.0959580" lon="10.4392500">
	<ele>1432.00</ele>
	<time>2024-07-25T07:25:17.000Z</time>
</trkpt>
<trkpt lat="46.0959460" lon="10.4392770">
	<ele>1432.20</ele>
	<time>2024-07-25T07:25:18.000Z</time>
</trkpt>
<trkpt lat="46.0959390" lon="10.4392800">
	<ele>1432.40</ele>
	<time>2024-07-25T07:25:19.000Z</time>
</trkpt>
<trkpt lat="46.0959280" lon="10.4392770">
	<ele>1432.40</ele>
	<time>2024-07-25T07:25:20.000Z</time>
</trkpt>
<trkpt lat="46.0959200" lon="10.4392840">
	<ele>1432.60</ele>
	<time>2024-07-25T07:25:21.000Z</time>
</trkpt>
<trkpt lat="46.0959160" lon="10.4392810">
	<ele>1432.60</ele>
	<time>2024-07-25T07:25:22.000Z</time>
</trkpt>
<trkpt lat="46.0958990" lon="10.4392850">
	<ele>1432.80</ele>
	<time>2024-07-25T07:25:23.000Z</time>
</trkpt>
<trkpt lat="46.0958870" lon="10.4393100">
	<ele>1433.00</ele>
	<time>2024-07-25T07:25:24.000Z</time>
</trkpt>
<trkpt lat="46.0958840" lon="10.4393220">
	<ele>1433.20</ele>
	<time>2024-07-25T07:25:25.000Z</time>
</trkpt>
<trkpt lat="46.0958880" lon="10.4393370">
	<ele>1433.40</ele>
	<time>2024-07-25T07:25:26.000Z</time>
</trkpt>
<trkpt lat="46.0958880" lon="10.4393480">
	<ele>1433.60</ele>
	<time>2024-07-25T07:25:27.000Z</time>
</trkpt>
<trkpt lat="46.0958810" lon="10.4393540">
	<ele>1433.80</ele>
	<time>2024-07-25T07:25:28.000Z</time>
</trkpt>
<trkpt lat="46.0958720" lon="10.4393620">
	<ele>1433.80</ele>
	<time>2024-07-25T07:25:29.000Z</time>
</trkpt>
<trkpt lat="46.0958650" lon="10.4393670">
	<ele>1434.00</ele>
	<time>2024-07-25T07:25:30.000Z</time>
</trkpt>
<trkpt lat="46.0958550" lon="10.4393750">
	<ele>1434.40</ele>
	<time>2024-07-25T07:25:31.000Z</time>
</trkpt>
<trkpt lat="46.0958450" lon="10.4393830">
	<ele>1434.40</ele>
	<time>2024-07-25T07:25:32.000Z</time>
</trkpt>
<trkpt lat="46.0958390" lon="10.4393870">
	<ele>1434.60</ele>
	<time>2024-07-25T07:25:33.000Z</time>
</trkpt>
<trkpt lat="46.0958310" lon="10.4393930">
	<ele>1434.80</ele>
	<time>2024-07-25T07:25:34.000Z</time>
</trkpt>
<trkpt lat="46.0958230" lon="10.4394000">
	<ele>1434.80</ele>
	<time>2024-07-25T07:25:35.000Z</time>
</trkpt>
<trkpt lat="46.0958190" lon="10.4394040">
	<ele>1435.00</ele>
	<time>2024-07-25T07:25:36.000Z</time>
</trkpt>
<trkpt lat="46.0958130" lon="10.4394100">
	<ele>1435.00</ele>
	<time>2024-07-25T07:25:37.000Z</time>
</trkpt>
<trkpt lat="46.0958030" lon="10.4394100">
	<ele>1435.00</ele>
	<time>2024-07-25T07:25:38.000Z</time>
</trkpt>
<trkpt lat="46.0957940" lon="10.4394110">
	<ele>1435.20</ele>
	<time>2024-07-25T07:25:39.000Z</time>
</trkpt>
<trkpt lat="46.0957830" lon="10.4394160">
	<ele>1435.40</ele>
	<time>2024-07-25T07:25:40.000Z</time>
</trkpt>
<trkpt lat="46.0957770" lon="10.4394320">
	<ele>1435.40</ele>
	<time>2024-07-25T07:25:41.000Z</time>
</trkpt>
<trkpt lat="46.0957740" lon="10.4394450">
	<ele>1435.60</ele>
	<time>2024-07-25T07:25:42.000Z</time>
</trkpt>
<trkpt lat="46.0957730" lon="10.4394560">
	<ele>1435.80</ele>
	<time>2024-07-25T07:25:43.000Z</time>
</trkpt>
<trkpt lat="46.0957740" lon="10.4394690">
	<ele>1436.00</ele>
	<time>2024-07-25T07:25:44.000Z</time>
</trkpt>
<trkpt lat="46.0957820" lon="10.4394770">
	<ele>1436.20</ele>
	<time>2024-07-25T07:25:45.000Z</time>
</trkpt>
<trkpt lat="46.0957930" lon="10.4394890">
	<ele>1436.40</ele>
	<time>2024-07-25T07:25:46.000Z</time>
</trkpt>
<trkpt lat="46.0958030" lon="10.4394970">
	<ele>1436.40</ele>
	<time>2024-07-25T07:25:47.000Z</time>
</trkpt>
<trkpt lat="46.0958140" lon="10.4395090">
	<ele>1436.60</ele>
	<time>2024-07-25T07:25:48.000Z</time>
</trkpt>
<trkpt lat="46.0958250" lon="10.4394950">
	<ele>1436.60</ele>
	<time>2024-07-25T07:25:49.000Z</time>
</trkpt>
<trkpt lat="46.0958340" lon="10.4394920">
	<ele>1436.80</ele>
	<time>2024-07-25T07:25:50.000Z</time>
</trkpt>
<trkpt lat="46.0958370" lon="10.4394930">
	<ele>1437.00</ele>
	<time>2024-07-25T07:25:51.000Z</time>
</trkpt>
<trkpt lat="46.0958480" lon="10.4394970">
	<ele>1437.20</ele>
	<time>2024-07-25T07:25:52.000Z</time>
</trkpt>
<trkpt lat="46.0958650" lon="10.4394950">
	<ele>1437.20</ele>
	<time>2024-07-25T07:25:53.000Z</time>
</trkpt>
<trkpt lat="46.0958770" lon="10.4394930">
	<ele>1437.40</ele>
	<time>2024-07-25T07:25:54.000Z</time>
</trkpt>
<trkpt lat="46.0958920" lon="10.4394870">
	<ele>1437.60</ele>
	<time>2024-07-25T07:25:55.000Z</time>
</trkpt>
<trkpt lat="46.0959060" lon="10.4394820">
	<ele>1437.60</ele>
	<time>2024-07-25T07:25:56.000Z</time>
</trkpt>
<trkpt lat="46.0959180" lon="10.4394760">
	<ele>1437.60</ele>
	<time>2024-07-25T07:25:57.000Z</time>
</trkpt>
<trkpt lat="46.0959280" lon="10.4394730">
	<ele>1437.80</ele>
	<time>2024-07-25T07:25:58.000Z</time>
</trkpt>
<trkpt lat="46.0959390" lon="10.4394640">
	<ele>1438.00</ele>
	<time>2024-07-25T07:25:59.000Z</time>
</trkpt>
<trkpt lat="46.0959520" lon="10.4394580">
	<ele>1438.00</ele>
	<time>2024-07-25T07:26:00.000Z</time>
</trkpt>
<trkpt lat="46.0959580" lon="10.4394550">
	<ele>1438.20</ele>
	<time>2024-07-25T07:26:01.000Z</time>
</trkpt>
<trkpt lat="46.0959620" lon="10.4394550">
	<ele>1438.20</ele>
	<time>2024-07-25T07:26:02.000Z</time>
</trkpt>
<trkpt lat="46.0959730" lon="10.4394460">
	<ele>1438.40</ele>
	<time>2024-07-25T07:26:03.000Z</time>
</trkpt>
<trkpt lat="46.0959750" lon="10.4394580">
	<ele>1438.60</ele>
	<time>2024-07-25T07:26:04.000Z</time>
</trkpt>
<trkpt lat="46.0959890" lon="10.4394590">
	<ele>1438.80</ele>
	<time>2024-07-25T07:26:05.000Z</time>
</trkpt>
<trkpt lat="46.0959950" lon="10.4394570">
	<ele>1439.00</ele>
	<time>2024-07-25T07:26:06.000Z</time>
</trkpt>
<trkpt lat="46.0960050" lon="10.4394570">
	<ele>1439.20</ele>
	<time>2024-07-25T07:26:07.000Z</time>
</trkpt>
<trkpt lat="46.0960140" lon="10.4394510">
	<ele>1439.40</ele>
	<time>2024-07-25T07:26:08.000Z</time>
</trkpt>
<trkpt lat="46.0960250" lon="10.4394450">
	<ele>1439.60</ele>
	<time>2024-07-25T07:26:09.000Z</time>
</trkpt>
<trkpt lat="46.0960350" lon="10.4394460">
	<ele>1439.60</ele>
	<time>2024-07-25T07:26:10.000Z</time>
</trkpt>
<trkpt lat="46.0960440" lon="10.4394480">
	<ele>1439.80</ele>
	<time>2024-07-25T07:26:11.000Z</time>
</trkpt>
<trkpt lat="46.0960560" lon="10.4394520">
	<ele>1439.80</ele>
	<time>2024-07-25T07:26:12.000Z</time>
</trkpt>
<trkpt lat="46.0960680" lon="10.4394580">
	<ele>1440.00</ele>
	<time>2024-07-25T07:26:13.000Z</time>
</trkpt>
<trkpt lat="46.0960730" lon="10.4394620">
	<ele>1440.00</ele>
	<time>2024-07-25T07:26:14.000Z</time>
</trkpt>
<trkpt lat="46.0960770" lon="10.4394660">
	<ele>1440.20</ele>
	<time>2024-07-25T07:26:15.000Z</time>
</trkpt>
<trkpt lat="46.0960850" lon="10.4394700">
	<ele>1440.20</ele>
	<time>2024-07-25T07:26:16.000Z</time>
</trkpt>
<trkpt lat="46.0960920" lon="10.4394770">
	<ele>1440.60</ele>
	<time>2024-07-25T07:26:17.000Z</time>
</trkpt>
<trkpt lat="46.0960980" lon="10.4394880">
	<ele>1440.60</ele>
	<time>2024-07-25T07:26:18.000Z</time>
</trkpt>
<trkpt lat="46.0961070" lon="10.4394920">
	<ele>1440.80</ele>
	<time>2024-07-25T07:26:19.000Z</time>
</trkpt>
<trkpt lat="46.0961230" lon="10.4394860">
	<ele>1441.00</ele>
	<time>2024-07-25T07:26:20.000Z</time>
</trkpt>
<trkpt lat="46.0961350" lon="10.4394860">
	<ele>1441.20</ele>
	<time>2024-07-25T07:26:21.000Z</time>
</trkpt>
<trkpt lat="46.0961460" lon="10.4394950">
	<ele>1441.40</ele>
	<time>2024-07-25T07:26:22.000Z</time>
</trkpt>
<trkpt lat="46.0961600" lon="10.4394950">
	<ele>1441.60</ele>
	<time>2024-07-25T07:26:23.000Z</time>
</trkpt>
<trkpt lat="46.0961650" lon="10.4394990">
	<ele>1441.80</ele>
	<time>2024-07-25T07:26:24.000Z</time>
</trkpt>
<trkpt lat="46.0961690" lon="10.4395070">
	<ele>1442.00</ele>
	<time>2024-07-25T07:26:25.000Z</time>
</trkpt>
<trkpt lat="46.0961770" lon="10.4395140">
	<ele>1442.20</ele>
	<time>2024-07-25T07:26:26.000Z</time>
</trkpt>
<trkpt lat="46.0961810" lon="10.4395230">
	<ele>1442.60</ele>
	<time>2024-07-25T07:26:27.000Z</time>
</trkpt>
<trkpt lat="46.0961860" lon="10.4395280">
	<ele>1442.60</ele>
	<time>2024-07-25T07:26:28.000Z</time>
</trkpt>
<trkpt lat="46.0961970" lon="10.4395360">
	<ele>1442.60</ele>
	<time>2024-07-25T07:26:29.000Z</time>
</trkpt>
<trkpt lat="46.0962050" lon="10.4395400">
	<ele>1442.80</ele>
	<time>2024-07-25T07:26:30.000Z</time>
</trkpt>
<trkpt lat="46.0962100" lon="10.4395430">
	<ele>1443.00</ele>
	<time>2024-07-25T07:26:31.000Z</time>
</trkpt>
<trkpt lat="46.0962140" lon="10.4395490">
	<ele>1443.20</ele>
	<time>2024-07-25T07:26:32.000Z</time>
</trkpt>
<trkpt lat="46.0962200" lon="10.4395500">
	<ele>1443.40</ele>
	<time>2024-07-25T07:26:33.000Z</time>
</trkpt>
<trkpt lat="46.0962280" lon="10.4395450">
	<ele>1443.60</ele>
	<time>2024-07-25T07:26:34.000Z</time>
</trkpt>
<trkpt lat="46.0962400" lon="10.4395410">
	<ele>1443.80</ele>
	<time>2024-07-25T07:26:35.000Z</time>
</trkpt>
<trkpt lat="46.0962490" lon="10.4395380">
	<ele>1444.00</ele>
	<time>2024-07-25T07:26:36.000Z</time>
</trkpt>
<trkpt lat="46.0962580" lon="10.4395380">
	<ele>1444.20</ele>
	<time>2024-07-25T07:26:37.000Z</time>
</trkpt>
<trkpt lat="46.0962670" lon="10.4395430">
	<ele>1444.20</ele>
	<time>2024-07-25T07:26:38.000Z</time>
</trkpt>
<trkpt lat="46.0962770" lon="10.4395480">
	<ele>1444.40</ele>
	<time>2024-07-25T07:26:39.000Z</time>
</trkpt>
<trkpt lat="46.0962860" lon="10.4395530">
	<ele>1444.60</ele>
	<time>2024-07-25T07:26:40.000Z</time>
</trkpt>
<trkpt lat="46.0962930" lon="10.4395590">
	<ele>1444.80</ele>
	<time>2024-07-25T07:26:41.000Z</time>
</trkpt>
<trkpt lat="46.0962990" lon="10.4395680">
	<ele>1445.00</ele>
	<time>2024-07-25T07:26:42.000Z</time>
</trkpt>
<trkpt lat="46.0963090" lon="10.4395760">
	<ele>1445.00</ele>
	<time>2024-07-25T07:26:43.000Z</time>
</trkpt>
<trkpt lat="46.0963160" lon="10.4395860">
	<ele>1445.20</ele>
	<time>2024-07-25T07:26:44.000Z</time>
</trkpt>
<trkpt lat="46.0963200" lon="10.4395980">
	<ele>1445.20</ele>
	<time>2024-07-25T07:26:45.000Z</time>
</trkpt>
<trkpt lat="46.0963250" lon="10.4396040">
	<ele>1445.40</ele>
	<time>2024-07-25T07:26:46.000Z</time>
</trkpt>
<trkpt lat="46.0963330" lon="10.4396080">
	<ele>1445.40</ele>
	<time>2024-07-25T07:26:47.000Z</time>
</trkpt>
<trkpt lat="46.0963440" lon="10.4396140">
	<ele>1445.80</ele>
	<time>2024-07-25T07:26:48.000Z</time>
</trkpt>
<trkpt lat="46.0963540" lon="10.4396170">
	<ele>1445.80</ele>
	<time>2024-07-25T07:26:49.000Z</time>
</trkpt>
<trkpt lat="46.0963670" lon="10.4396220">
	<ele>1446.00</ele>
	<time>2024-07-25T07:26:50.000Z</time>
</trkpt>
<trkpt lat="46.0963850" lon="10.4396330">
	<ele>1446.20</ele>
	<time>2024-07-25T07:26:51.000Z</time>
</trkpt>
<trkpt lat="46.0963980" lon="10.4396370">
	<ele>1446.20</ele>
	<time>2024-07-25T07:26:52.000Z</time>
</trkpt>
<trkpt lat="46.0964110" lon="10.4396480">
	<ele>1446.20</ele>
	<time>2024-07-25T07:26:53.000Z</time>
</trkpt>
<trkpt lat="46.0964200" lon="10.4396640">
	<ele>1446.40</ele>
	<time>2024-07-25T07:26:54.000Z</time>
</trkpt>
<trkpt lat="46.0964230" lon="10.4396830">
	<ele>1446.40</ele>
	<time>2024-07-25T07:26:55.000Z</time>
</trkpt>
<trkpt lat="46.0964240" lon="10.4397000">
	<ele>1446.60</ele>
	<time>2024-07-25T07:26:56.000Z</time>
</trkpt>
<trkpt lat="46.0964220" lon="10.4397190">
	<ele>1447.00</ele>
	<time>2024-07-25T07:26:57.000Z</time>
</trkpt>
<trkpt lat="46.0964280" lon="10.4397210">
	<ele>1447.20</ele>
	<time>2024-07-25T07:26:58.000Z</time>
</trkpt>
<trkpt lat="46.0964340" lon="10.4397230">
	<ele>1447.20</ele>
	<time>2024-07-25T07:26:59.000Z</time>
</trkpt>
<trkpt lat="46.0964320" lon="10.4397250">
	<ele>1447.40</ele>
	<time>2024-07-25T07:27:00.000Z</time>
</trkpt>
<trkpt lat="46.0964290" lon="10.4397350">
	<ele>1447.60</ele>
	<time>2024-07-25T07:27:01.000Z</time>
</trkpt>
<trkpt lat="46.0964260" lon="10.4397390">
	<ele>1447.80</ele>
	<time>2024-07-25T07:27:02.000Z</time>
</trkpt>
<trkpt lat="46.0964230" lon="10.4397370">
	<ele>1448.00</ele>
	<time>2024-07-25T07:27:03.000Z</time>
</trkpt>
<trkpt lat="46.0964150" lon="10.4397370">
	<ele>1448.20</ele>
	<time>2024-07-25T07:27:04.000Z</time>
</trkpt>
<trkpt lat="46.0964070" lon="10.4397310">
	<ele>1448.20</ele>
	<time>2024-07-25T07:27:05.000Z</time>
</trkpt>
<trkpt lat="46.0963970" lon="10.4397230">
	<ele>1448.60</ele>
	<time>2024-07-25T07:27:06.000Z</time>
</trkpt>
<trkpt lat="46.0963850" lon="10.4397150">
	<ele>1448.60</ele>
	<time>2024-07-25T07:27:07.000Z</time>
</trkpt>
<trkpt lat="46.0963740" lon="10.4397110">
	<ele>1448.80</ele>
	<time>2024-07-25T07:27:08.000Z</time>
</trkpt>
<trkpt lat="46.0963640" lon="10.4397060">
	<ele>1449.00</ele>
	<time>2024-07-25T07:27:09.000Z</time>
</trkpt>
<trkpt lat="46.0963530" lon="10.4397050">
	<ele>1449.20</ele>
	<time>2024-07-25T07:27:10.000Z</time>
</trkpt>
<trkpt lat="46.0963430" lon="10.4397080">
	<ele>1449.20</ele>
	<time>2024-07-25T07:27:11.000Z</time>
</trkpt>
<trkpt lat="46.0963340" lon="10.4397110">
	<ele>1449.40</ele>
	<time>2024-07-25T07:27:12.000Z</time>
</trkpt>
<trkpt lat="46.0963210" lon="10.4397130">
	<ele>1449.40</ele>
	<time>2024-07-25T07:27:13.000Z</time>
</trkpt>
<trkpt lat="46.0963110" lon="10.4397160">
	<ele>1449.40</ele>
	<time>2024-07-25T07:27:14.000Z</time>
</trkpt>
<trkpt lat="46.0963020" lon="10.4397210">
	<ele>1449.60</ele>
	<time>2024-07-25T07:27:15.000Z</time>
</trkpt>
<trkpt lat="46.0962930" lon="10.4397270">
	<ele>1449.60</ele>
	<time>2024-07-25T07:27:16.000Z</time>
</trkpt>
<trkpt lat="46.0962880" lon="10.4397300">
	<ele>1449.80</ele>
	<time>2024-07-25T07:27:17.000Z</time>
</trkpt>
<trkpt lat="46.0962830" lon="10.4397360">
	<ele>1450.00</ele>
	<time>2024-07-25T07:27:18.000Z</time>
</trkpt>
<trkpt lat="46.0962800" lon="10.4397440">
	<ele>1450.00</ele>
	<time>2024-07-25T07:27:19.000Z</time>
</trkpt>
<trkpt lat="46.0962760" lon="10.4397450">
	<ele>1450.20</ele>
	<time>2024-07-25T07:27:20.000Z</time>
</trkpt>
<trkpt lat="46.0962690" lon="10.4397460">
	<ele>1450.20</ele>
	<time>2024-07-25T07:27:21.000Z</time>
</trkpt>
<trkpt lat="46.0962610" lon="10.4397460">
	<ele>1450.20</ele>
	<time>2024-07-25T07:27:22.000Z</time>
</trkpt>
<trkpt lat="46.0962530" lon="10.4397470">
	<ele>1450.60</ele>
	<time>2024-07-25T07:27:23.000Z</time>
</trkpt>
<trkpt lat="46.0962490" lon="10.4397450">
	<ele>1450.80</ele>
	<time>2024-07-25T07:27:24.000Z</time>
</trkpt>
<trkpt lat="46.0962410" lon="10.4397460">
	<ele>1450.80</ele>
	<time>2024-07-25T07:27:25.000Z</time>
</trkpt>
<trkpt lat="46.0962340" lon="10.4397430">
	<ele>1451.00</ele>
	<time>2024-07-25T07:27:26.000Z</time>
</trkpt>
<trkpt lat="46.0962280" lon="10.4397420">
	<ele>1451.20</ele>
	<time>2024-07-25T07:27:27.000Z</time>
</trkpt>
<trkpt lat="46.0962190" lon="10.4397420">
	<ele>1451.20</ele>
	<time>2024-07-25T07:27:28.000Z</time>
</trkpt>
<trkpt lat="46.0962110" lon="10.4397480">
	<ele>1451.40</ele>
	<time>2024-07-25T07:27:29.000Z</time>
</trkpt>
<trkpt lat="46.0962070" lon="10.4397520">
	<ele>1451.60</ele>
	<time>2024-07-25T07:27:30.000Z</time>
</trkpt>
<trkpt lat="46.0961990" lon="10.4397590">
	<ele>1451.80</ele>
	<time>2024-07-25T07:27:31.000Z</time>
</trkpt>
<trkpt lat="46.0961890" lon="10.4397660">
	<ele>1451.80</ele>
	<time>2024-07-25T07:27:32.000Z</time>
</trkpt>
<trkpt lat="46.0961790" lon="10.4397700">
	<ele>1452.00</ele>
	<time>2024-07-25T07:27:33.000Z</time>
</trkpt>
<trkpt lat="46.0961680" lon="10.4397700">
	<ele>1452.20</ele>
	<time>2024-07-25T07:27:34.000Z</time>
</trkpt>
<trkpt lat="46.0961560" lon="10.4397680">
	<ele>1452.20</ele>
	<time>2024-07-25T07:27:35.000Z</time>
</trkpt>
<trkpt lat="46.0961480" lon="10.4397620">
	<ele>1452.40</ele>
	<time>2024-07-25T07:27:36.000Z</time>
</trkpt>
<trkpt lat="46.0961420" lon="10.4397630">
	<ele>1452.40</ele>
	<time>2024-07-25T07:27:37.000Z</time>
</trkpt>
<trkpt lat="46.0961320" lon="10.4397690">
	<ele>1452.60</ele>
	<time>2024-07-25T07:27:38.000Z</time>
</trkpt>
<trkpt lat="46.0961240" lon="10.4397730">
	<ele>1452.80</ele>
	<time>2024-07-25T07:27:39.000Z</time>
</trkpt>
<trkpt lat="46.0961150" lon="10.4397710">
	<ele>1453.00</ele>
	<time>2024-07-25T07:27:40.000Z</time>
</trkpt>
<trkpt lat="46.0961050" lon="10.4397660">
	<ele>1453.00</ele>
	<time>2024-07-25T07:27:41.000Z</time>
</trkpt>
<trkpt lat="46.0960950" lon="10.4397620">
	<ele>1453.20</ele>
	<time>2024-07-25T07:27:42.000Z</time>
</trkpt>
<trkpt lat="46.0960850" lon="10.4397630">
	<ele>1453.40</ele>
	<time>2024-07-25T07:27:43.000Z</time>
</trkpt>
<trkpt lat="46.0960740" lon="10.4397640">
	<ele>1453.40</ele>
	<time>2024-07-25T07:27:44.000Z</time>
</trkpt>
<trkpt lat="46.0960660" lon="10.4397660">
	<ele>1453.60</ele>
	<time>2024-07-25T07:27:45.000Z</time>
</trkpt>
<trkpt lat="46.0960550" lon="10.4397690">
	<ele>1453.80</ele>
	<time>2024-07-25T07:27:46.000Z</time>
</trkpt>
<trkpt lat="46.0960480" lon="10.4397760">
	<ele>1454.00</ele>
	<time>2024-07-25T07:27:47.000Z</time>
</trkpt>
<trkpt lat="46.0960400" lon="10.4397810">
	<ele>1454.20</ele>
	<time>2024-07-25T07:27:48.000Z</time>
</trkpt>
<trkpt lat="46.0960290" lon="10.4397810">
	<ele>1454.40</ele>
	<time>2024-07-25T07:27:49.000Z</time>
</trkpt>
<trkpt lat="46.0960170" lon="10.4397840">
	<ele>1454.40</ele>
	<time>2024-07-25T07:27:50.000Z</time>
</trkpt>
<trkpt lat="46.0960070" lon="10.4397890">
	<ele>1454.60</ele>
	<time>2024-07-25T07:27:51.000Z</time>
</trkpt>
<trkpt lat="46.0959980" lon="10.4397920">
	<ele>1454.80</ele>
	<time>2024-07-25T07:27:52.000Z</time>
</trkpt>
<trkpt lat="46.0959890" lon="10.4397960">
	<ele>1455.00</ele>
	<time>2024-07-25T07:27:53.000Z</time>
</trkpt>
<trkpt lat="46.0959810" lon="10.4398000">
	<ele>1455.20</ele>
	<time>2024-07-25T07:27:54.000Z</time>
</trkpt>
<trkpt lat="46.0959720" lon="10.4398080">
	<ele>1455.40</ele>
	<time>2024-07-25T07:27:55.000Z</time>
</trkpt>
<trkpt lat="46.0959650" lon="10.4398130">
	<ele>1455.60</ele>
	<time>2024-07-25T07:27:56.000Z</time>
</trkpt>
<trkpt lat="46.0959550" lon="10.4398210">
	<ele>1455.80</ele>
	<time>2024-07-25T07:27:57.000Z</time>
</trkpt>
<trkpt lat="46.0959450" lon="10.4398320">
	<ele>1455.80</ele>
	<time>2024-07-25T07:27:58.000Z</time>
</trkpt>
<trkpt lat="46.0959400" lon="10.4398360">
	<ele>1456.00</ele>
	<time>2024-07-25T07:27:59.000Z</time>
</trkpt>
<trkpt lat="46.0959320" lon="10.4398420">
	<ele>1456.20</ele>
	<time>2024-07-25T07:28:00.000Z</time>
</trkpt>
<trkpt lat="46.0959260" lon="10.4398470">
	<ele>1456.40</ele>
	<time>2024-07-25T07:28:01.000Z</time>
</trkpt>
<trkpt lat="46.0959230" lon="10.4398550">
	<ele>1456.60</ele>
	<time>2024-07-25T07:28:02.000Z</time>
</trkpt>
<trkpt lat="46.0959190" lon="10.4398650">
	<ele>1456.80</ele>
	<time>2024-07-25T07:28:03.000Z</time>
</trkpt>
<trkpt lat="46.0959150" lon="10.4398680">
	<ele>1456.80</ele>
	<time>2024-07-25T07:28:04.000Z</time>
</trkpt>
<trkpt lat="46.0959080" lon="10.4398730">
	<ele>1457.00</ele>
	<time>2024-07-25T07:28:05.000Z</time>
</trkpt>
<trkpt lat="46.0959000" lon="10.4398790">
	<ele>1457.20</ele>
	<time>2024-07-25T07:28:06.000Z</time>
</trkpt>
<trkpt lat="46.0958950" lon="10.4398860">
	<ele>1457.40</ele>
	<time>2024-07-25T07:28:07.000Z</time>
</trkpt>
<trkpt lat="46.0958890" lon="10.4398960">
	<ele>1457.40</ele>
	<time>2024-07-25T07:28:08.000Z</time>
</trkpt>
<trkpt lat="46.0958810" lon="10.4399110">
	<ele>1457.60</ele>
	<time>2024-07-25T07:28:09.000Z</time>
</trkpt>
<trkpt lat="46.0958710" lon="10.4399220">
	<ele>1457.80</ele>
	<time>2024-07-25T07:28:10.000Z</time>
</trkpt>
<trkpt lat="46.0958660" lon="10.4399320">
	<ele>1458.00</ele>
	<time>2024-07-25T07:28:11.000Z</time>
</trkpt>
<trkpt lat="46.0958620" lon="10.4399480">
	<ele>1458.40</ele>
	<time>2024-07-25T07:28:12.000Z</time>
</trkpt>
<trkpt lat="46.0958570" lon="10.4399650">
	<ele>1458.80</ele>
	<time>2024-07-25T07:28:13.000Z</time>
</trkpt>
<trkpt lat="46.0958500" lon="10.4399790">
	<ele>1459.00</ele>
	<time>2024-07-25T07:28:14.000Z</time>
</trkpt>
<trkpt lat="46.0958470" lon="10.4399830">
	<ele>1459.20</ele>
	<time>2024-07-25T07:28:15.000Z</time>
</trkpt>
<trkpt lat="46.0958380" lon="10.4399820">
	<ele>1459.40</ele>
	<time>2024-07-25T07:28:16.000Z</time>
</trkpt>
<trkpt lat="46.0958280" lon="10.4399830">
	<ele>1459.40</ele>
	<time>2024-07-25T07:28:17.000Z</time>
</trkpt>
<trkpt lat="46.0958210" lon="10.4399840">
	<ele>1459.60</ele>
	<time>2024-07-25T07:28:18.000Z</time>
</trkpt>
<trkpt lat="46.0958160" lon="10.4399880">
	<ele>1459.80</ele>
	<time>2024-07-25T07:28:19.000Z</time>
</trkpt>
<trkpt lat="46.0958040" lon="10.4399950">
	<ele>1460.00</ele>
	<time>2024-07-25T07:28:20.000Z</time>
</trkpt>
<trkpt lat="46.0957960" lon="10.4399950">
	<ele>1460.00</ele>
	<time>2024-07-25T07:28:21.000Z</time>
</trkpt>
<trkpt lat="46.0957910" lon="10.4399930">
	<ele>1460.40</ele>
	<time>2024-07-25T07:28:22.000Z</time>
</trkpt>
<trkpt lat="46.0957830" lon="10.4399910">
	<ele>1460.40</ele>
	<time>2024-07-25T07:28:23.000Z</time>
</trkpt>
<trkpt lat="46.0957740" lon="10.4399830">
	<ele>1460.60</ele>
	<time>2024-07-25T07:28:24.000Z</time>
</trkpt>
<trkpt lat="46.0957680" lon="10.4399690">
	<ele>1460.80</ele>
	<time>2024-07-25T07:28:25.000Z</time>
</trkpt>
<trkpt lat="46.0957600" lon="10.4399640">
	<ele>1461.00</ele>
	<time>2024-07-25T07:28:26.000Z</time>
</trkpt>
<trkpt lat="46.0957530" lon="10.4399580">
	<ele>1461.20</ele>
	<time>2024-07-25T07:28:27.000Z</time>
</trkpt>
<trkpt lat="46.0957440" lon="10.4399520">
	<ele>1461.40</ele>
	<time>2024-07-25T07:28:28.000Z</time>
</trkpt>
<trkpt lat="46.0957360" lon="10.4399460">
	<ele>1461.60</ele>
	<time>2024-07-25T07:28:29.000Z</time>
</trkpt>
<trkpt lat="46.0957280" lon="10.4399380">
	<ele>1461.80</ele>
	<time>2024-07-25T07:28:30.000Z</time>
</trkpt>
<trkpt lat="46.0957210" lon="10.4399340">
	<ele>1462.00</ele>
	<time>2024-07-25T07:28:31.000Z</time>
</trkpt>
<trkpt lat="46.0957140" lon="10.4399330">
	<ele>1462.00</ele>
	<time>2024-07-25T07:28:32.000Z</time>
</trkpt>
<trkpt lat="46.0957080" lon="10.4399350">
	<ele>1462.00</ele>
	<time>2024-07-25T07:28:33.000Z</time>
</trkpt>
<trkpt lat="46.0956960" lon="10.4399380">
	<ele>1462.20</ele>
	<time>2024-07-25T07:28:34.000Z</time>
</trkpt>
<trkpt lat="46.0956880" lon="10.4399390">
	<ele>1462.20</ele>
	<time>2024-07-25T07:28:35.000Z</time>
</trkpt>
<trkpt lat="46.0956800" lon="10.4399400">
	<ele>1462.60</ele>
	<time>2024-07-25T07:28:36.000Z</time>
</trkpt>
<trkpt lat="46.0956710" lon="10.4399430">
	<ele>1462.80</ele>
	<time>2024-07-25T07:28:37.000Z</time>
</trkpt>
<trkpt lat="46.0956610" lon="10.4399450">
	<ele>1463.00</ele>
	<time>2024-07-25T07:28:38.000Z</time>
</trkpt>
<trkpt lat="46.0956550" lon="10.4399420">
	<ele>1463.20</ele>
	<time>2024-07-25T07:28:39.000Z</time>
</trkpt>
<trkpt lat="46.0956540" lon="10.4399400">
	<ele>1463.40</ele>
	<time>2024-07-25T07:28:40.000Z</time>
</trkpt>
<trkpt lat="46.0956520" lon="10.4399390">
	<ele>1463.40</ele>
	<time>2024-07-25T07:28:41.000Z</time>
</trkpt>
<trkpt lat="46.0956420" lon="10.4399410">
	<ele>1463.60</ele>
	<time>2024-07-25T07:28:42.000Z</time>
</trkpt>
<trkpt lat="46.0956300" lon="10.4399420">
	<ele>1463.80</ele>
	<time>2024-07-25T07:28:43.000Z</time>
</trkpt>
<trkpt lat="46.0956180" lon="10.4399440">
	<ele>1464.00</ele>
	<time>2024-07-25T07:28:44.000Z</time>
</trkpt>
<trkpt lat="46.0956080" lon="10.4399490">
	<ele>1464.00</ele>
	<time>2024-07-25T07:28:45.000Z</time>
</trkpt>
<trkpt lat="46.0955980" lon="10.4399520">
	<ele>1464.20</ele>
	<time>2024-07-25T07:28:46.000Z</time>
</trkpt>
<trkpt lat="46.0955910" lon="10.4399540">
	<ele>1464.40</ele>
	<time>2024-07-25T07:28:47.000Z</time>
</trkpt>
<trkpt lat="46.0955820" lon="10.4399580">
	<ele>1464.60</ele>
	<time>2024-07-25T07:28:48.000Z</time>
</trkpt>
<trkpt lat="46.0955730" lon="10.4399670">
	<ele>1464.80</ele>
	<time>2024-07-25T07:28:49.000Z</time>
</trkpt>
<trkpt lat="46.0955660" lon="10.4399740">
	<ele>1465.00</ele>
	<time>2024-07-25T07:28:50.000Z</time>
</trkpt>
<trkpt lat="46.0955580" lon="10.4399760">
	<ele>1465.00</ele>
	<time>2024-07-25T07:28:51.000Z</time>
</trkpt>
<trkpt lat="46.0955520" lon="10.4399790">
	<ele>1465.20</ele>
	<time>2024-07-25T07:28:52.000Z</time>
</trkpt>
<trkpt lat="46.0955470" lon="10.4399820">
	<ele>1465.40</ele>
	<time>2024-07-25T07:28:53.000Z</time>
</trkpt>
<trkpt lat="46.0955400" lon="10.4399820">
	<ele>1465.60</ele>
	<time>2024-07-25T07:28:54.000Z</time>
</trkpt>
<trkpt lat="46.0955320" lon="10.4399760">
	<ele>1465.80</ele>
	<time>2024-07-25T07:28:55.000Z</time>
</trkpt>
<trkpt lat="46.0955240" lon="10.4399750">
	<ele>1466.00</ele>
	<time>2024-07-25T07:28:56.000Z</time>
</trkpt>
<trkpt lat="46.0955050" lon="10.4399690">
	<ele>1466.20</ele>
	<time>2024-07-25T07:28:57.000Z</time>
</trkpt>
<trkpt lat="46.0954900" lon="10.4399700">
	<ele>1466.40</ele>
	<time>2024-07-25T07:28:58.000Z</time>
</trkpt>
<trkpt lat="46.0954760" lon="10.4399720">
	<ele>1466.40</ele>
	<time>2024-07-25T07:28:59.000Z</time>
</trkpt>
<trkpt lat="46.0954640" lon="10.4399750">
	<ele>1466.80</ele>
	<time>2024-07-25T07:29:00.000Z</time>
</trkpt>
<trkpt lat="46.0954510" lon="10.4399820">
	<ele>1467.00</ele>
	<time>2024-07-25T07:29:01.000Z</time>
</trkpt>
<trkpt lat="46.0954420" lon="10.4399850">
	<ele>1467.20</ele>
	<time>2024-07-25T07:29:02.000Z</time>
</trkpt>
<trkpt lat="46.0954350" lon="10.4399900">
	<ele>1467.20</ele>
	<time>2024-07-25T07:29:03.000Z</time>
</trkpt>
<trkpt lat="46.0954270" lon="10.4399960">
	<ele>1467.40</ele>
	<time>2024-07-25T07:29:04.000Z</time>
</trkpt>
<trkpt lat="46.0954220" lon="10.4400070">
	<ele>1467.60</ele>
	<time>2024-07-25T07:29:05.000Z</time>
</trkpt>
<trkpt lat="46.0954130" lon="10.4400220">
	<ele>1467.60</ele>
	<time>2024-07-25T07:29:06.000Z</time>
</trkpt>
<trkpt lat="46.0954100" lon="10.4400380">
	<ele>1467.60</ele>
	<time>2024-07-25T07:29:07.000Z</time>
</trkpt>
<trkpt lat="46.0954120" lon="10.4400530">
	<ele>1467.80</ele>
	<time>2024-07-25T07:29:08.000Z</time>
</trkpt>
<trkpt lat="46.0954210" lon="10.4400660">
	<ele>1468.00</ele>
	<time>2024-07-25T07:29:09.000Z</time>
</trkpt>
<trkpt lat="46.0954280" lon="10.4400760">
	<ele>1468.00</ele>
	<time>2024-07-25T07:29:10.000Z</time>
</trkpt>
<trkpt lat="46.0954310" lon="10.4400770">
	<ele>1468.20</ele>
	<time>2024-07-25T07:29:11.000Z</time>
</trkpt>
<trkpt lat="46.0954400" lon="10.4400770">
	<ele>1468.20</ele>
	<time>2024-07-25T07:29:12.000Z</time>
</trkpt>
<trkpt lat="46.0954510" lon="10.4400760">
	<ele>1468.20</ele>
	<time>2024-07-25T07:29:13.000Z</time>
</trkpt>
<trkpt lat="46.0954650" lon="10.4400770">
	<ele>1468.40</ele>
	<time>2024-07-25T07:29:14.000Z</time>
</trkpt>
<trkpt lat="46.0954750" lon="10.4400780">
	<ele>1468.40</ele>
	<time>2024-07-25T07:29:15.000Z</time>
</trkpt>
<trkpt lat="46.0954850" lon="10.4400800">
	<ele>1468.60</ele>
	<time>2024-07-25T07:29:16.000Z</time>
</trkpt>
<trkpt lat="46.0954920" lon="10.4400880">
	<ele>1468.80</ele>
	<time>2024-07-25T07:29:17.000Z</time>
</trkpt>
<trkpt lat="46.0954960" lon="10.4400950">
	<ele>1468.80</ele>
	<time>2024-07-25T07:29:18.000Z</time>
</trkpt>
<trkpt lat="46.0955000" lon="10.4401000">
	<ele>1469.00</ele>
	<time>2024-07-25T07:29:19.000Z</time>
</trkpt>
<trkpt lat="46.0955060" lon="10.4401080">
	<ele>1469.00</ele>
	<time>2024-07-25T07:29:20.000Z</time>
</trkpt>
<trkpt lat="46.0955150" lon="10.4401100">
	<ele>1469.20</ele>
	<time>2024-07-25T07:29:21.000Z</time>
</trkpt>
<trkpt lat="46.0955250" lon="10.4401080">
	<ele>1469.20</ele>
	<time>2024-07-25T07:29:22.000Z</time>
</trkpt>
<trkpt lat="46.0955320" lon="10.4401020">
	<ele>1469.60</ele>
	<time>2024-07-25T07:29:23.000Z</time>
</trkpt>
<trkpt lat="46.0955440" lon="10.4401010">
	<ele>1469.60</ele>
	<time>2024-07-25T07:29:24.000Z</time>
</trkpt>
<trkpt lat="46.0955600" lon="10.4401080">
	<ele>1469.80</ele>
	<time>2024-07-25T07:29:25.000Z</time>
</trkpt>
<trkpt lat="46.0955730" lon="10.4401170">
	<ele>1470.00</ele>
	<time>2024-07-25T07:29:26.000Z</time>
</trkpt>
<trkpt lat="46.0955810" lon="10.4401210">
	<ele>1470.20</ele>
	<time>2024-07-25T07:29:27.000Z</time>
</trkpt>
<trkpt lat="46.0955880" lon="10.4401270">
	<ele>1470.20</ele>
	<time>2024-07-25T07:29:28.000Z</time>
</trkpt>
<trkpt lat="46.0955970" lon="10.4401320">
	<ele>1470.40</ele>
	<time>2024-07-25T07:29:29.000Z</time>
</trkpt>
<trkpt lat="46.0956050" lon="10.4401350">
	<ele>1470.60</ele>
	<time>2024-07-25T07:29:30.000Z</time>
</trkpt>
<trkpt lat="46.0956160" lon="10.4401420">
	<ele>1470.80</ele>
	<time>2024-07-25T07:29:31.000Z</time>
</trkpt>
<trkpt lat="46.0956230" lon="10.4401460">
	<ele>1470.80</ele>
	<time>2024-07-25T07:29:32.000Z</time>
</trkpt>
<trkpt lat="46.0956340" lon="10.4401510">
	<ele>1471.00</ele>
	<time>2024-07-25T07:29:33.000Z</time>
</trkpt>
<trkpt lat="46.0956430" lon="10.4401480">
	<ele>1471.00</ele>
	<time>2024-07-25T07:29:34.000Z</time>
</trkpt>
<trkpt lat="46.0956520" lon="10.4401510">
	<ele>1471.20</ele>
	<time>2024-07-25T07:29:35.000Z</time>
</trkpt>
<trkpt lat="46.0956590" lon="10.4401510">
	<ele>1471.40</ele>
	<time>2024-07-25T07:29:36.000Z</time>
</trkpt>
<trkpt lat="46.0956700" lon="10.4401540">
	<ele>1471.40</ele>
	<time>2024-07-25T07:29:37.000Z</time>
</trkpt>
<trkpt lat="46.0956730" lon="10.4401590">
	<ele>1471.80</ele>
	<time>2024-07-25T07:29:38.000Z</time>
</trkpt>
<trkpt lat="46.0956750" lon="10.4401670">
	<ele>1472.00</ele>
	<time>2024-07-25T07:29:39.000Z</time>
</trkpt>
<trkpt lat="46.0956790" lon="10.4401740">
	<ele>1472.00</ele>
	<time>2024-07-25T07:29:40.000Z</time>
</trkpt>
<trkpt lat="46.0956850" lon="10.4401800">
	<ele>1472.20</ele>
	<time>2024-07-25T07:29:41.000Z</time>
</trkpt>
<trkpt lat="46.0956900" lon="10.4401880">
	<ele>1472.40</ele>
	<time>2024-07-25T07:29:42.000Z</time>
</trkpt>
<trkpt lat="46.0956960" lon="10.4401970">
	<ele>1472.40</ele>
	<time>2024-07-25T07:29:43.000Z</time>
</trkpt>
<trkpt lat="46.0957050" lon="10.4402100">
	<ele>1472.60</ele>
	<time>2024-07-25T07:29:44.000Z</time>
</trkpt>
<trkpt lat="46.0957100" lon="10.4402200">
	<ele>1473.00</ele>
	<time>2024-07-25T07:29:45.000Z</time>
</trkpt>
<trkpt lat="46.0957130" lon="10.4402320">
	<ele>1473.00</ele>
	<time>2024-07-25T07:29:46.000Z</time>
</trkpt>
<trkpt lat="46.0957150" lon="10.4402370">
	<ele>1473.20</ele>
	<time>2024-07-25T07:29:47.000Z</time>
</trkpt>
<trkpt lat="46.0957200" lon="10.4402420">
	<ele>1473.40</ele>
	<time>2024-07-25T07:29:48.000Z</time>
</trkpt>
<trkpt lat="46.0957290" lon="10.4402490">
	<ele>1473.40</ele>
	<time>2024-07-25T07:29:49.000Z</time>
</trkpt>
<trkpt lat="46.0957370" lon="10.4402510">
	<ele>1473.60</ele>
	<time>2024-07-25T07:29:50.000Z</time>
</trkpt>
<trkpt lat="46.0957440" lon="10.4402550">
	<ele>1473.80</ele>
	<time>2024-07-25T07:29:51.000Z</time>
</trkpt>
<trkpt lat="46.0957550" lon="10.4402540">
	<ele>1474.00</ele>
	<time>2024-07-25T07:29:52.000Z</time>
</trkpt>
<trkpt lat="46.0957630" lon="10.4402590">
	<ele>1474.20</ele>
	<time>2024-07-25T07:29:53.000Z</time>
</trkpt>
<trkpt lat="46.0957670" lon="10.4402660">
	<ele>1474.40</ele>
	<time>2024-07-25T07:29:54.000Z</time>
</trkpt>
<trkpt lat="46.0957720" lon="10.4402750">
	<ele>1474.60</ele>
	<time>2024-07-25T07:29:55.000Z</time>
</trkpt>
<trkpt lat="46.0957720" lon="10.4402870">
	<ele>1475.00</ele>
	<time>2024-07-25T07:29:56.000Z</time>
</trkpt>
<trkpt lat="46.0957670" lon="10.4403010">
	<ele>1475.00</ele>
	<time>2024-07-25T07:29:57.000Z</time>
</trkpt>
<trkpt lat="46.0957680" lon="10.4403130">
	<ele>1475.40</ele>
	<time>2024-07-25T07:29:58.000Z</time>
</trkpt>
<trkpt lat="46.0957700" lon="10.4403220">
	<ele>1475.40</ele>
	<time>2024-07-25T07:29:59.000Z</time>
</trkpt>
<trkpt lat="46.0957760" lon="10.4403310">
	<ele>1475.60</ele>
	<time>2024-07-25T07:30:00.000Z</time>
</trkpt>
<trkpt lat="46.0957750" lon="10.4403370">
	<ele>1475.80</ele>
	<time>2024-07-25T07:30:01.000Z</time>
</trkpt>
<trkpt lat="46.0957760" lon="10.4403450">
	<ele>1476.00</ele>
	<time>2024-07-25T07:30:02.000Z</time>
</trkpt>
<trkpt lat="46.0957780" lon="10.4403510">
	<ele>1476.20</ele>
	<time>2024-07-25T07:30:03.000Z</time>
</trkpt>
<trkpt lat="46.0957790" lon="10.4403610">
	<ele>1476.40</ele>
	<time>2024-07-25T07:30:04.000Z</time>
</trkpt>
<trkpt lat="46.0957850" lon="10.4403690">
	<ele>1476.60</ele>
	<time>2024-07-25T07:30:05.000Z</time>
</trkpt>
<trkpt lat="46.0957930" lon="10.4403720">
	<ele>1476.80</ele>
	<time>2024-07-25T07:30:06.000Z</time>
</trkpt>
<trkpt lat="46.0957970" lon="10.4403740">
	<ele>1476.80</ele>
	<time>2024-07-25T07:30:07.000Z</time>
</trkpt>
<trkpt lat="46.0958080" lon="10.4403780">
	<ele>1477.00</ele>
	<time>2024-07-25T07:30:08.000Z</time>
</trkpt>
<trkpt lat="46.0958130" lon="10.4403840">
	<ele>1477.20</ele>
	<time>2024-07-25T07:30:09.000Z</time>
</trkpt>
<trkpt lat="46.0958190" lon="10.4403910">
	<ele>1477.40</ele>
	<time>2024-07-25T07:30:10.000Z</time>
</trkpt>
<trkpt lat="46.0958260" lon="10.4403970">
	<ele>1477.60</ele>
	<time>2024-07-25T07:30:11.000Z</time>
</trkpt>
<trkpt lat="46.0958320" lon="10.4404020">
	<ele>1477.60</ele>
	<time>2024-07-25T07:30:12.000Z</time>
</trkpt>
<trkpt lat="46.0958380" lon="10.4404030">
	<ele>1477.80</ele>
	<time>2024-07-25T07:30:13.000Z</time>
</trkpt>
<trkpt lat="46.0958440" lon="10.4404090">
	<ele>1478.00</ele>
	<time>2024-07-25T07:30:14.000Z</time>
</trkpt>
<trkpt lat="46.0958490" lon="10.4404170">
	<ele>1478.20</ele>
	<time>2024-07-25T07:30:15.000Z</time>
</trkpt>
<trkpt lat="46.0958550" lon="10.4404170">
	<ele>1478.40</ele>
	<time>2024-07-25T07:30:16.000Z</time>
</trkpt>
<trkpt lat="46.0958620" lon="10.4404220">
	<ele>1478.40</ele>
	<time>2024-07-25T07:30:17.000Z</time>
</trkpt>
<trkpt lat="46.0958700" lon="10.4404270">
	<ele>1478.60</ele>
	<time>2024-07-25T07:30:18.000Z</time>
</trkpt>
<trkpt lat="46.0958760" lon="10.4404290">
	<ele>1478.80</ele>
	<time>2024-07-25T07:30:19.000Z</time>
</trkpt>
<trkpt lat="46.0958790" lon="10.4404310">
	<ele>1478.80</ele>
	<time>2024-07-25T07:30:20.000Z</time>
</trkpt>
<trkpt lat="46.0958880" lon="10.4404320">
	<ele>1479.00</ele>
	<time>2024-07-25T07:30:21.000Z</time>
</trkpt>
<trkpt lat="46.0959010" lon="10.4404270">
	<ele>1479.20</ele>
	<time>2024-07-25T07:30:22.000Z</time>
</trkpt>
<trkpt lat="46.0959150" lon="10.4404300">
	<ele>1479.40</ele>
	<time>2024-07-25T07:30:23.000Z</time>
</trkpt>
<trkpt lat="46.0959250" lon="10.4404360">
	<ele>1479.60</ele>
	<time>2024-07-25T07:30:24.000Z</time>
</trkpt>
<trkpt lat="46.0959350" lon="10.4404360">
	<ele>1479.80</ele>
	<time>2024-07-25T07:30:25.000Z</time>
</trkpt>
<trkpt lat="46.0959520" lon="10.4404400">
	<ele>1480.00</ele>
	<time>2024-07-25T07:30:26.000Z</time>
</trkpt>
<trkpt lat="46.0959660" lon="10.4404390">
	<ele>1480.20</ele>
	<time>2024-07-25T07:30:27.000Z</time>
</trkpt>
<trkpt lat="46.0959760" lon="10.4404410">
	<ele>1480.40</ele>
	<time>2024-07-25T07:30:28.000Z</time>
</trkpt>
<trkpt lat="46.0959870" lon="10.4404420">
	<ele>1480.60</ele>
	<time>2024-07-25T07:30:29.000Z</time>
</trkpt>
<trkpt lat="46.0959980" lon="10.4404440">
	<ele>1480.60</ele>
	<time>2024-07-25T07:30:30.000Z</time>
</trkpt>
<trkpt lat="46.0960110" lon="10.4404470">
	<ele>1480.80</ele>
	<time>2024-07-25T07:30:31.000Z</time>
</trkpt>
<trkpt lat="46.0960160" lon="10.4404450">
	<ele>1481.00</ele>
	<time>2024-07-25T07:30:32.000Z</time>
</trkpt>
<trkpt lat="46.0960260" lon="10.4404390">
	<ele>1481.20</ele>
	<time>2024-07-25T07:30:33.000Z</time>
</trkpt>
<trkpt lat="46.0960350" lon="10.4404430">
	<ele>1481.20</ele>
	<time>2024-07-25T07:30:34.000Z</time>
</trkpt>
<trkpt lat="46.0960430" lon="10.4404460">
	<ele>1481.40</ele>
	<time>2024-07-25T07:30:35.000Z</time>
</trkpt>
<trkpt lat="46.0960490" lon="10.4404420">
	<ele>1481.60</ele>
	<time>2024-07-25T07:30:36.000Z</time>
</trkpt>
<trkpt lat="46.0960530" lon="10.4404320">
	<ele>1481.60</ele>
	<time>2024-07-25T07:30:37.000Z</time>
</trkpt>
<trkpt lat="46.0960620" lon="10.4404240">
	<ele>1481.80</ele>
	<time>2024-07-25T07:30:38.000Z</time>
</trkpt>
<trkpt lat="46.0960700" lon="10.4404200">
	<ele>1482.00</ele>
	<time>2024-07-25T07:30:39.000Z</time>
</trkpt>
<trkpt lat="46.0960780" lon="10.4404160">
	<ele>1482.00</ele>
	<time>2024-07-25T07:30:40.000Z</time>
</trkpt>
<trkpt lat="46.0960820" lon="10.4404090">
	<ele>1482.40</ele>
	<time>2024-07-25T07:30:41.000Z</time>
</trkpt>
<trkpt lat="46.0960900" lon="10.4404010">
	<ele>1482.60</ele>
	<time>2024-07-25T07:30:42.000Z</time>
</trkpt>
<trkpt lat="46.0960970" lon="10.4403960">
	<ele>1482.80</ele>
	<time>2024-07-25T07:30:43.000Z</time>
</trkpt>
<trkpt lat="46.0961030" lon="10.4403830">
	<ele>1483.00</ele>
	<time>2024-07-25T07:30:44.000Z</time>
</trkpt>
<trkpt lat="46.0961030" lon="10.4403680">
	<ele>1483.20</ele>
	<time>2024-07-25T07:30:45.000Z</time>
</trkpt>
<trkpt lat="46.0961000" lon="10.4403540">
	<ele>1483.40</ele>
	<time>2024-07-25T07:30:46.000Z</time>
</trkpt>
<trkpt lat="46.0961010" lon="10.4403410">
	<ele>1483.40</ele>
	<time>2024-07-25T07:30:47.000Z</time>
</trkpt>
<trkpt lat="46.0961020" lon="10.4403380">
	<ele>1483.60</ele>
	<time>2024-07-25T07:30:48.000Z</time>
</trkpt>
<trkpt lat="46.0960990" lon="10.4403350">
	<ele>1483.60</ele>
	<time>2024-07-25T07:30:49.000Z</time>
</trkpt>
<trkpt lat="46.0960970" lon="10.4403310">
	<ele>1483.80</ele>
	<time>2024-07-25T07:30:50.000Z</time>
</trkpt>
<trkpt lat="46.0960960" lon="10.4403270">
	<ele>1483.80</ele>
	<time>2024-07-25T07:30:51.000Z</time>
</trkpt>
<trkpt lat="46.0960920" lon="10.4403240">
	<ele>1483.60</ele>
	<time>2024-07-25T07:30:52.000Z</time>
</trkpt>
<trkpt lat="46.0960900" lon="10.4403240">
	<ele>1483.60</ele>
	<time>2024-07-25T07:30:53.000Z</time>
</trkpt>
<trkpt lat="46.0960870" lon="10.4403160">
	<ele>1483.60</ele>
	<time>2024-07-25T07:30:54.000Z</time>
</trkpt>
<trkpt lat="46.0960840" lon="10.4403140">
	<ele>1483.60</ele>
	<time>2024-07-25T07:30:55.000Z</time>
</trkpt>
<trkpt lat="46.0960810" lon="10.4403120">
	<ele>1483.60</ele>
	<time>2024-07-25T07:30:56.000Z</time>
</trkpt>
<trkpt lat="46.0960820" lon="10.4403120">
	<ele>1483.60</ele>
	<time>2024-07-25T07:30:57.000Z</time>
</trkpt>
<trkpt lat="46.0960800" lon="10.4403130">
	<ele>1483.80</ele>
	<time>2024-07-25T07:30:58.000Z</time>
</trkpt>
<trkpt lat="46.0960760" lon="10.4403120">
	<ele>1483.80</ele>
	<time>2024-07-25T07:30:59.000Z</time>
</trkpt>
<trkpt lat="46.0960770" lon="10.4403080">
	<ele>1484.00</ele>
	<time>2024-07-25T07:31:00.000Z</time>
</trkpt>
<trkpt lat="46.0960840" lon="10.4403090">
	<ele>1484.00</ele>
	<time>2024-07-25T07:31:01.000Z</time>
</trkpt>
<trkpt lat="46.0960900" lon="10.4403110">
	<ele>1484.00</ele>
	<time>2024-07-25T07:31:02.000Z</time>
</trkpt>
<trkpt lat="46.0960930" lon="10.4403040">
	<ele>1484.00</ele>
	<time>2024-07-25T07:31:03.000Z</time>
</trkpt>
<trkpt lat="46.0960930" lon="10.4403060">
	<ele>1484.00</ele>
	<time>2024-07-25T07:31:04.000Z</time>
</trkpt>
<trkpt lat="46.0960920" lon="10.4403090">
	<ele>1483.80</ele>
	<time>2024-07-25T07:31:05.000Z</time>
</trkpt>
<trkpt lat="46.0960940" lon="10.4403210">
	<ele>1483.60</ele>
	<time>2024-07-25T07:31:06.000Z</time>
</trkpt>
<trkpt lat="46.0960930" lon="10.4403310">
	<ele>1483.60</ele>
	<time>2024-07-25T07:31:07.000Z</time>
</trkpt>
<trkpt lat="46.0960910" lon="10.4403420">
	<ele>1483.60</ele>
	<time>2024-07-25T07:31:08.000Z</time>
</trkpt>
<trkpt lat="46.0960900" lon="10.4403530">
	<ele>1483.80</ele>
	<time>2024-07-25T07:31:09.000Z</time>
</trkpt>
<trkpt lat="46.0960880" lon="10.4403650">
	<ele>1483.80</ele>
	<time>2024-07-25T07:31:10.000Z</time>
</trkpt>
<trkpt lat="46.0960820" lon="10.4403770">
	<ele>1483.80</ele>
	<time>2024-07-25T07:31:11.000Z</time>
</trkpt>
<trkpt lat="46.0960830" lon="10.4403880">
	<ele>1484.20</ele>
	<time>2024-07-25T07:31:12.000Z</time>
</trkpt>
<trkpt lat="46.0960840" lon="10.4403990">
	<ele>1484.40</ele>
	<time>2024-07-25T07:31:13.000Z</time>
</trkpt>
<trkpt lat="46.0960820" lon="10.4404110">
	<ele>1484.40</ele>
	<time>2024-07-25T07:31:14.000Z</time>
</trkpt>
<trkpt lat="46.0960790" lon="10.4404240">
	<ele>1484.60</ele>
	<time>2024-07-25T07:31:15.000Z</time>
</trkpt>
<trkpt lat="46.0960750" lon="10.4404300">
	<ele>1484.80</ele>
	<time>2024-07-25T07:31:16.000Z</time>
</trkpt>
<trkpt lat="46.0960690" lon="10.4404410">
	<ele>1485.00</ele>
	<time>2024-07-25T07:31:17.000Z</time>
</trkpt>
<trkpt lat="46.0960610" lon="10.4404550">
	<ele>1485.20</ele>
	<time>2024-07-25T07:31:18.000Z</time>
</trkpt>
<trkpt lat="46.0960560" lon="10.4404630">
	<ele>1485.40</ele>
	<time>2024-07-25T07:31:19.000Z</time>
</trkpt>
<trkpt lat="46.0960480" lon="10.4404730">
	<ele>1485.60</ele>
	<time>2024-07-25T07:31:20.000Z</time>
</trkpt>
<trkpt lat="46.0960410" lon="10.4404810">
	<ele>1485.80</ele>
	<time>2024-07-25T07:31:21.000Z</time>
</trkpt>
<trkpt lat="46.0960390" lon="10.4404820">
	<ele>1486.00</ele>
	<time>2024-07-25T07:31:22.000Z</time>
</trkpt>
<trkpt lat="46.0960390" lon="10.4404820">
	<ele>1486.00</ele>
	<time>2024-07-25T07:31:23.000Z</time>
</trkpt>
<trkpt lat="46.0960320" lon="10.4404880">
	<ele>1486.20</ele>
	<time>2024-07-25T07:31:24.000Z</time>
</trkpt>
<trkpt lat="46.0960250" lon="10.4404970">
	<ele>1486.40</ele>
	<time>2024-07-25T07:31:25.000Z</time>
</trkpt>
<trkpt lat="46.0960210" lon="10.4405090">
	<ele>1486.60</ele>
	<time>2024-07-25T07:31:26.000Z</time>
</trkpt>
<trkpt lat="46.0960280" lon="10.4405210">
	<ele>1486.80</ele>
	<time>2024-07-25T07:31:27.000Z</time>
</trkpt>
<trkpt lat="46.0960370" lon="10.4405360">
	<ele>1487.20</ele>
	<time>2024-07-25T07:31:28.000Z</time>
</trkpt>
<trkpt lat="46.0960400" lon="10.4405460">
	<ele>1487.20</ele>
	<time>2024-07-25T07:31:29.000Z</time>
</trkpt>
<trkpt lat="46.0960400" lon="10.4405540">
	<ele>1487.40</ele>
	<time>2024-07-25T07:31:30.000Z</time>
</trkpt>
<trkpt lat="46.0960410" lon="10.4405570">
	<ele>1487.60</ele>
	<time>2024-07-25T07:31:31.000Z</time>
</trkpt>
<trkpt lat="46.0960390" lon="10.4405580">
	<ele>1488.00</ele>
	<time>2024-07-25T07:31:32.000Z</time>
</trkpt>
<trkpt lat="46.0960330" lon="10.4405610">
	<ele>1488.20</ele>
	<time>2024-07-25T07:31:33.000Z</time>
</trkpt>
<trkpt lat="46.0960200" lon="10.4405670">
	<ele>1488.40</ele>
	<time>2024-07-25T07:31:34.000Z</time>
</trkpt>
<trkpt lat="46.0960100" lon="10.4405740">
	<ele>1488.60</ele>
	<time>2024-07-25T07:31:35.000Z</time>
</trkpt>
<trkpt lat="46.0960050" lon="10.4405770">
	<ele>1488.80</ele>
	<time>2024-07-25T07:31:36.000Z</time>
</trkpt>
<trkpt lat="46.0960040" lon="10.4405840">
	<ele>1489.00</ele>
	<time>2024-07-25T07:31:37.000Z</time>
</trkpt>
<trkpt lat="46.0960060" lon="10.4405940">
	<ele>1489.00</ele>
	<time>2024-07-25T07:31:38.000Z</time>
</trkpt>
<trkpt lat="46.0960010" lon="10.4406090">
	<ele>1489.40</ele>
	<time>2024-07-25T07:31:39.000Z</time>
</trkpt>
<trkpt lat="46.0959950" lon="10.4406180">
	<ele>1489.60</ele>
	<time>2024-07-25T07:31:40.000Z</time>
</trkpt>
<trkpt lat="46.0959840" lon="10.4406260">
	<ele>1489.80</ele>
	<time>2024-07-25T07:31:41.000Z</time>
</trkpt>
<trkpt lat="46.0959730" lon="10.4406300">
	<ele>1490.00</ele>
	<time>2024-07-25T07:31:42.000Z</time>
</trkpt>
<trkpt lat="46.0959710" lon="10.4406400">
	<ele>1490.20</ele>
	<time>2024-07-25T07:31:43.000Z</time>
</trkpt>
<trkpt lat="46.0959710" lon="10.4406460">
	<ele>1490.20</ele>
	<time>2024-07-25T07:31:44.000Z</time>
</trkpt>
<trkpt lat="46.0959640" lon="10.4406490">
	<ele>1490.40</ele>
	<time>2024-07-25T07:31:45.000Z</time>
</trkpt>
<trkpt lat="46.0959530" lon="10.4406450">
	<ele>1490.60</ele>
	<time>2024-07-25T07:31:46.000Z</time>
</trkpt>
<trkpt lat="46.0959430" lon="10.4406410">
	<ele>1490.80</ele>
	<time>2024-07-25T07:31:47.000Z</time>
</trkpt>
<trkpt lat="46.0959290" lon="10.4406350">
	<ele>1491.00</ele>
	<time>2024-07-25T07:31:48.000Z</time>
</trkpt>
<trkpt lat="46.0959150" lon="10.4406280">
	<ele>1491.00</ele>
	<time>2024-07-25T07:31:49.000Z</time>
</trkpt>
<trkpt lat="46.0959040" lon="10.4406220">
	<ele>1491.20</ele>
	<time>2024-07-25T07:31:50.000Z</time>
</trkpt>
<trkpt lat="46.0958960" lon="10.4406130">
	<ele>1491.20</ele>
	<time>2024-07-25T07:31:51.000Z</time>
</trkpt>
<trkpt lat="46.0958890" lon="10.4406000">
	<ele>1491.40</ele>
	<time>2024-07-25T07:31:52.000Z</time>
</trkpt>
<trkpt lat="46.0958780" lon="10.4405950">
	<ele>1491.60</ele>
	<time>2024-07-25T07:31:53.000Z</time>
</trkpt>
<trkpt lat="46.0958670" lon="10.4405880">
	<ele>1491.60</ele>
	<time>2024-07-25T07:31:54.000Z</time>
</trkpt>
<trkpt lat="46.0958540" lon="10.4405730">
	<ele>1491.80</ele>
	<time>2024-07-25T07:31:55.000Z</time>
</trkpt>
<trkpt lat="46.0958420" lon="10.4405710">
	<ele>1491.80</ele>
	<time>2024-07-25T07:31:56.000Z</time>
</trkpt>
<trkpt lat="46.0958280" lon="10.4405730">
	<ele>1492.00</ele>
	<time>2024-07-25T07:31:57.000Z</time>
</trkpt>
<trkpt lat="46.0958190" lon="10.4405830">
	<ele>1492.00</ele>
	<time>2024-07-25T07:31:58.000Z</time>
</trkpt>
<trkpt lat="46.0958120" lon="10.4405930">
	<ele>1492.20</ele>
	<time>2024-07-25T07:31:59.000Z</time>
</trkpt>
<trkpt lat="46.0958060" lon="10.4405950">
	<ele>1492.40</ele>
	<time>2024-07-25T07:32:00.000Z</time>
</trkpt>
<trkpt lat="46.0957990" lon="10.4406010">
	<ele>1492.40</ele>
	<time>2024-07-25T07:32:01.000Z</time>
</trkpt>
<trkpt lat="46.0957920" lon="10.4406020">
	<ele>1492.60</ele>
	<time>2024-07-25T07:32:02.000Z</time>
</trkpt>
<trkpt lat="46.0957850" lon="10.4405960">
	<ele>1492.80</ele>
	<time>2024-07-25T07:32:03.000Z</time>
</trkpt>
<trkpt lat="46.0957820" lon="10.4405810">
	<ele>1492.80</ele>
	<time>2024-07-25T07:32:04.000Z</time>
</trkpt>
<trkpt lat="46.0957770" lon="10.4405650">
	<ele>1493.00</ele>
	<time>2024-07-25T07:32:05.000Z</time>
</trkpt>
<trkpt lat="46.0957740" lon="10.4405560">
	<ele>1493.20</ele>
	<time>2024-07-25T07:32:06.000Z</time>
</trkpt>
<trkpt lat="46.0957700" lon="10.4405490">
	<ele>1493.40</ele>
	<time>2024-07-25T07:32:07.000Z</time>
</trkpt>
<trkpt lat="46.0957640" lon="10.4405390">
	<ele>1493.60</ele>
	<time>2024-07-25T07:32:08.000Z</time>
</trkpt>
<trkpt lat="46.0957570" lon="10.4405340">
	<ele>1493.60</ele>
	<time>2024-07-25T07:32:09.000Z</time>
</trkpt>
<trkpt lat="46.0957470" lon="10.4405300">
	<ele>1493.80</ele>
	<time>2024-07-25T07:32:10.000Z</time>
</trkpt>
<trkpt lat="46.0957390" lon="10.4405330">
	<ele>1494.00</ele>
	<time>2024-07-25T07:32:11.000Z</time>
</trkpt>
<trkpt lat="46.0957290" lon="10.4405420">
	<ele>1494.00</ele>
	<time>2024-07-25T07:32:12.000Z</time>
</trkpt>
<trkpt lat="46.0957200" lon="10.4405510">
	<ele>1494.20</ele>
	<time>2024-07-25T07:32:13.000Z</time>
</trkpt>
<trkpt lat="46.0957120" lon="10.4405610">
	<ele>1494.40</ele>
	<time>2024-07-25T07:32:14.000Z</time>
</trkpt>
<trkpt lat="46.0957060" lon="10.4405650">
	<ele>1494.40</ele>
	<time>2024-07-25T07:32:15.000Z</time>
</trkpt>
<trkpt lat="46.0957000" lon="10.4405640">
	<ele>1494.60</ele>
	<time>2024-07-25T07:32:16.000Z</time>
</trkpt>
<trkpt lat="46.0956950" lon="10.4405610">
	<ele>1494.80</ele>
	<time>2024-07-25T07:32:17.000Z</time>
</trkpt>
<trkpt lat="46.0956820" lon="10.4405620">
	<ele>1495.00</ele>
	<time>2024-07-25T07:32:18.000Z</time>
</trkpt>
<trkpt lat="46.0956750" lon="10.4405550">
	<ele>1495.20</ele>
	<time>2024-07-25T07:32:19.000Z</time>
</trkpt>
<trkpt lat="46.0956690" lon="10.4405500">
	<ele>1495.40</ele>
	<time>2024-07-25T07:32:20.000Z</time>
</trkpt>
<trkpt lat="46.0956590" lon="10.4405490">
	<ele>1495.40</ele>
	<time>2024-07-25T07:32:21.000Z</time>
</trkpt>
<trkpt lat="46.0956500" lon="10.4405500">
	<ele>1495.60</ele>
	<time>2024-07-25T07:32:22.000Z</time>
</trkpt>
<trkpt lat="46.0956440" lon="10.4405490">
	<ele>1495.60</ele>
	<time>2024-07-25T07:32:23.000Z</time>
</trkpt>
<trkpt lat="46.0956370" lon="10.4405500">
	<ele>1495.80</ele>
	<time>2024-07-25T07:32:24.000Z</time>
</trkpt>
<trkpt lat="46.0956260" lon="10.4405540">
	<ele>1496.00</ele>
	<time>2024-07-25T07:32:25.000Z</time>
</trkpt>
<trkpt lat="46.0956150" lon="10.4405580">
	<ele>1496.20</ele>
	<time>2024-07-25T07:32:26.000Z</time>
</trkpt>
<trkpt lat="46.0956030" lon="10.4405670">
	<ele>1496.20</ele>
	<time>2024-07-25T07:32:27.000Z</time>
</trkpt>
<trkpt lat="46.0955930" lon="10.4405730">
	<ele>1496.20</ele>
	<time>2024-07-25T07:32:28.000Z</time>
</trkpt>
<trkpt lat="46.0955840" lon="10.4405790">
	<ele>1496.60</ele>
	<time>2024-07-25T07:32:29.000Z</time>
</trkpt>
<trkpt lat="46.0955770" lon="10.4405870">
	<ele>1497.00</ele>
	<time>2024-07-25T07:32:30.000Z</time>
</trkpt>
<trkpt lat="46.0955720" lon="10.4405960">
	<ele>1497.00</ele>
	<time>2024-07-25T07:32:31.000Z</time>
</trkpt>
<trkpt lat="46.0955660" lon="10.4406070">
	<ele>1497.20</ele>
	<time>2024-07-25T07:32:32.000Z</time>
</trkpt>
<trkpt lat="46.0955590" lon="10.4406160">
	<ele>1497.40</ele>
	<time>2024-07-25T07:32:33.000Z</time>
</trkpt>
<trkpt lat="46.0955540" lon="10.4406250">
	<ele>1497.40</ele>
	<time>2024-07-25T07:32:34.000Z</time>
</trkpt>
<trkpt lat="46.0955550" lon="10.4406300">
	<ele>1497.60</ele>
	<time>2024-07-25T07:32:35.000Z</time>
</trkpt>
<trkpt lat="46.0955510" lon="10.4406370">
	<ele>1497.60</ele>
	<time>2024-07-25T07:32:36.000Z</time>
</trkpt>
<trkpt lat="46.0955470" lon="10.4406420">
	<ele>1497.80</ele>
	<time>2024-07-25T07:32:37.000Z</time>
</trkpt>
<trkpt lat="46.0955380" lon="10.4406590">
	<ele>1498.00</ele>
	<time>2024-07-25T07:32:38.000Z</time>
</trkpt>
<trkpt lat="46.0955240" lon="10.4406700">
	<ele>1498.20</ele>
	<time>2024-07-25T07:32:39.000Z</time>
</trkpt>
<trkpt lat="46.0955120" lon="10.4406830">
	<ele>1498.60</ele>
	<time>2024-07-25T07:32:40.000Z</time>
</trkpt>
<trkpt lat="46.0955070" lon="10.4406870">
	<ele>1498.80</ele>
	<time>2024-07-25T07:32:41.000Z</time>
</trkpt>
<trkpt lat="46.0954960" lon="10.4406960">
	<ele>1498.80</ele>
	<time>2024-07-25T07:32:42.000Z</time>
</trkpt>
<trkpt lat="46.0954860" lon="10.4407010">
	<ele>1499.00</ele>
	<time>2024-07-25T07:32:43.000Z</time>
</trkpt>
<trkpt lat="46.0954790" lon="10.4407090">
	<ele>1499.20</ele>
	<time>2024-07-25T07:32:44.000Z</time>
</trkpt>
<trkpt lat="46.0954700" lon="10.4407150">
	<ele>1499.20</ele>
	<time>2024-07-25T07:32:45.000Z</time>
</trkpt>
<trkpt lat="46.0954630" lon="10.4407190">
	<ele>1499.40</ele>
	<time>2024-07-25T07:32:46.000Z</time>
</trkpt>
<trkpt lat="46.0954630" lon="10.4407220">
	<ele>1499.40</ele>
	<time>2024-07-25T07:32:47.000Z</time>
</trkpt>
<trkpt lat="46.0954620" lon="10.4407220">
	<ele>1499.80</ele>
	<time>2024-07-25T07:32:48.000Z</time>
</trkpt>
<trkpt lat="46.0954550" lon="10.4407200">
	<ele>1500.00</ele>
	<time>2024-07-25T07:32:49.000Z</time>
</trkpt>
<trkpt lat="46.0954500" lon="10.4407170">
	<ele>1500.00</ele>
	<time>2024-07-25T07:32:50.000Z</time>
</trkpt>
<trkpt lat="46.0954490" lon="10.4407170">
	<ele>1500.20</ele>
	<time>2024-07-25T07:32:51.000Z</time>
</trkpt>
<trkpt lat="46.0954460" lon="10.4407300">
	<ele>1500.40</ele>
	<time>2024-07-25T07:32:52.000Z</time>
</trkpt>
<trkpt lat="46.0954400" lon="10.4407330">
	<ele>1500.60</ele>
	<time>2024-07-25T07:32:53.000Z</time>
</trkpt>
<trkpt lat="46.0954310" lon="10.4407370">
	<ele>1500.60</ele>
	<time>2024-07-25T07:32:54.000Z</time>
</trkpt>
<trkpt lat="46.0954190" lon="10.4407440">
	<ele>1501.00</ele>
	<time>2024-07-25T07:32:55.000Z</time>
</trkpt>
<trkpt lat="46.0954090" lon="10.4407430">
	<ele>1501.20</ele>
	<time>2024-07-25T07:32:56.000Z</time>
</trkpt>
<trkpt lat="46.0954000" lon="10.4407400">
	<ele>1501.20</ele>
	<time>2024-07-25T07:32:57.000Z</time>
</trkpt>
<trkpt lat="46.0953910" lon="10.4407420">
	<ele>1501.40</ele>
	<time>2024-07-25T07:32:58.000Z</time>
</trkpt>
<trkpt lat="46.0953830" lon="10.4407420">
	<ele>1501.60</ele>
	<time>2024-07-25T07:32:59.000Z</time>
</trkpt>
<trkpt lat="46.0953730" lon="10.4407400">
	<ele>1501.80</ele>
	<time>2024-07-25T07:33:00.000Z</time>
</trkpt>
<trkpt lat="46.0953670" lon="10.4407380">
	<ele>1502.00</ele>
	<time>2024-07-25T07:33:01.000Z</time>
</trkpt>
<trkpt lat="46.0953600" lon="10.4407360">
	<ele>1502.00</ele>
	<time>2024-07-25T07:33:02.000Z</time>
</trkpt>
<trkpt lat="46.0953480" lon="10.4407350">
	<ele>1502.20</ele>
	<time>2024-07-25T07:33:03.000Z</time>
</trkpt>
<trkpt lat="46.0953320" lon="10.4407370">
	<ele>1502.20</ele>
	<time>2024-07-25T07:33:04.000Z</time>
</trkpt>
<trkpt lat="46.0953180" lon="10.4407360">
	<ele>1502.40</ele>
	<time>2024-07-25T07:33:05.000Z</time>
</trkpt>
<trkpt lat="46.0953060" lon="10.4407300">
	<ele>1502.60</ele>
	<time>2024-07-25T07:33:06.000Z</time>
</trkpt>
<trkpt lat="46.0952940" lon="10.4407230">
	<ele>1502.80</ele>
	<time>2024-07-25T07:33:07.000Z</time>
</trkpt>
<trkpt lat="46.0952830" lon="10.4407220">
	<ele>1503.00</ele>
	<time>2024-07-25T07:33:08.000Z</time>
</trkpt>
<trkpt lat="46.0952730" lon="10.4407240">
	<ele>1503.20</ele>
	<time>2024-07-25T07:33:09.000Z</time>
</trkpt>
<trkpt lat="46.0952630" lon="10.4407220">
	<ele>1503.20</ele>
	<time>2024-07-25T07:33:10.000Z</time>
</trkpt>
<trkpt lat="46.0952590" lon="10.4407210">
	<ele>1503.40</ele>
	<time>2024-07-25T07:33:11.000Z</time>
</trkpt>
<trkpt lat="46.0952540" lon="10.4407150">
	<ele>1503.60</ele>
	<time>2024-07-25T07:33:12.000Z</time>
</trkpt>
<trkpt lat="46.0952470" lon="10.4407040">
	<ele>1503.80</ele>
	<time>2024-07-25T07:33:13.000Z</time>
</trkpt>
<trkpt lat="46.0952430" lon="10.4406930">
	<ele>1504.00</ele>
	<time>2024-07-25T07:33:14.000Z</time>
</trkpt>
<trkpt lat="46.0952320" lon="10.4406910">
	<ele>1504.20</ele>
	<time>2024-07-25T07:33:15.000Z</time>
</trkpt>
<trkpt lat="46.0952240" lon="10.4406870">
	<ele>1504.40</ele>
	<time>2024-07-25T07:33:16.000Z</time>
</trkpt>
<trkpt lat="46.0952200" lon="10.4406900">
	<ele>1504.60</ele>
	<time>2024-07-25T07:33:17.000Z</time>
</trkpt>
<trkpt lat="46.0952090" lon="10.4406880">
	<ele>1504.80</ele>
	<time>2024-07-25T07:33:18.000Z</time>
</trkpt>
<trkpt lat="46.0951940" lon="10.4406870">
	<ele>1504.80</ele>
	<time>2024-07-25T07:33:19.000Z</time>
</trkpt>
<trkpt lat="46.0951800" lon="10.4406880">
	<ele>1505.00</ele>
	<time>2024-07-25T07:33:20.000Z</time>
</trkpt>
<trkpt lat="46.0951730" lon="10.4406890">
	<ele>1505.20</ele>
	<time>2024-07-25T07:33:21.000Z</time>
</trkpt>
<trkpt lat="46.0951690" lon="10.4406920">
	<ele>1505.40</ele>
	<time>2024-07-25T07:33:22.000Z</time>
</trkpt>
<trkpt lat="46.0951580" lon="10.4406990">
	<ele>1505.60</ele>
	<time>2024-07-25T07:33:23.000Z</time>
</trkpt>
<trkpt lat="46.0951430" lon="10.4407130">
	<ele>1505.80</ele>
	<time>2024-07-25T07:33:24.000Z</time>
</trkpt>
<trkpt lat="46.0951340" lon="10.4407240">
	<ele>1506.00</ele>
	<time>2024-07-25T07:33:25.000Z</time>
</trkpt>
<trkpt lat="46.0951240" lon="10.4407240">
	<ele>1506.00</ele>
	<time>2024-07-25T07:33:26.000Z</time>
</trkpt>
<trkpt lat="46.0951120" lon="10.4407220">
	<ele>1506.20</ele>
	<time>2024-07-25T07:33:27.000Z</time>
</trkpt>
<trkpt lat="46.0951020" lon="10.4407220">
	<ele>1506.40</ele>
	<time>2024-07-25T07:33:28.000Z</time>
</trkpt>
<trkpt lat="46.0950950" lon="10.4407300">
	<ele>1506.40</ele>
	<time>2024-07-25T07:33:29.000Z</time>
</trkpt>
<trkpt lat="46.0950930" lon="10.4407320">
	<ele>1506.60</ele>
	<time>2024-07-25T07:33:30.000Z</time>
</trkpt>
<trkpt lat="46.0950900" lon="10.4407380">
	<ele>1506.80</ele>
	<time>2024-07-25T07:33:31.000Z</time>
</trkpt>
<trkpt lat="46.0950830" lon="10.4407450">
	<ele>1506.80</ele>
	<time>2024-07-25T07:33:32.000Z</time>
</trkpt>
<trkpt lat="46.0950760" lon="10.4407460">
	<ele>1507.20</ele>
	<time>2024-07-25T07:33:33.000Z</time>
</trkpt>
<trkpt lat="46.0950640" lon="10.4407410">
	<ele>1507.20</ele>
	<time>2024-07-25T07:33:34.000Z</time>
</trkpt>
<trkpt lat="46.0950520" lon="10.4407400">
	<ele>1507.40</ele>
	<time>2024-07-25T07:33:35.000Z</time>
</trkpt>
<trkpt lat="46.0950450" lon="10.4407380">
	<ele>1507.60</ele>
	<time>2024-07-25T07:33:36.000Z</time>
</trkpt>
<trkpt lat="46.0950400" lon="10.4407300">
	<ele>1507.80</ele>
	<time>2024-07-25T07:33:37.000Z</time>
</trkpt>
<trkpt lat="46.0950380" lon="10.4407280">
	<ele>1508.00</ele>
	<time>2024-07-25T07:33:38.000Z</time>
</trkpt>
<trkpt lat="46.0950340" lon="10.4407230">
	<ele>1508.00</ele>
	<time>2024-07-25T07:33:39.000Z</time>
</trkpt>
<trkpt lat="46.0950270" lon="10.4407230">
	<ele>1508.20</ele>
	<time>2024-07-25T07:33:40.000Z</time>
</trkpt>
<trkpt lat="46.0950240" lon="10.4407240">
	<ele>1508.20</ele>
	<time>2024-07-25T07:33:41.000Z</time>
</trkpt>
<trkpt lat="46.0950180" lon="10.4407290">
	<ele>1508.40</ele>
	<time>2024-07-25T07:33:42.000Z</time>
</trkpt>
<trkpt lat="46.0950110" lon="10.4407350">
	<ele>1508.40</ele>
	<time>2024-07-25T07:33:43.000Z</time>
</trkpt>
<trkpt lat="46.0950030" lon="10.4407360">
	<ele>1508.60</ele>
	<time>2024-07-25T07:33:44.000Z</time>
</trkpt>
<trkpt lat="46.0949880" lon="10.4407400">
	<ele>1508.80</ele>
	<time>2024-07-25T07:33:45.000Z</time>
</trkpt>
<trkpt lat="46.0949760" lon="10.4407440">
	<ele>1508.80</ele>
	<time>2024-07-25T07:33:46.000Z</time>
</trkpt>
<trkpt lat="46.0949670" lon="10.4407490">
	<ele>1509.00</ele>
	<time>2024-07-25T07:33:47.000Z</time>
</trkpt>
<trkpt lat="46.0949600" lon="10.4407550">
	<ele>1509.20</ele>
	<time>2024-07-25T07:33:48.000Z</time>
</trkpt>
<trkpt lat="46.0949480" lon="10.4407620">
	<ele>1509.40</ele>
	<time>2024-07-25T07:33:49.000Z</time>
</trkpt>
<trkpt lat="46.0949350" lon="10.4407640">
	<ele>1509.40</ele>
	<time>2024-07-25T07:33:50.000Z</time>
</trkpt>
<trkpt lat="46.0949180" lon="10.4407700">
	<ele>1509.60</ele>
	<time>2024-07-25T07:33:51.000Z</time>
</trkpt>
<trkpt lat="46.0949080" lon="10.4407770">
	<ele>1509.60</ele>
	<time>2024-07-25T07:33:52.000Z</time>
</trkpt>
<trkpt lat="46.0948970" lon="10.4407860">
	<ele>1509.80</ele>
	<time>2024-07-25T07:33:53.000Z</time>
</trkpt>
<trkpt lat="46.0948860" lon="10.4407880">
	<ele>1510.00</ele>
	<time>2024-07-25T07:33:54.000Z</time>
</trkpt>
<trkpt lat="46.0948780" lon="10.4407920">
	<ele>1510.20</ele>
	<time>2024-07-25T07:33:55.000Z</time>
</trkpt>
<trkpt lat="46.0948740" lon="10.4407930">
	<ele>1510.40</ele>
	<time>2024-07-25T07:33:56.000Z</time>
</trkpt>
<trkpt lat="46.0948650" lon="10.4407970">
	<ele>1510.60</ele>
	<time>2024-07-25T07:33:57.000Z</time>
</trkpt>
<trkpt lat="46.0948580" lon="10.4408040">
	<ele>1511.00</ele>
	<time>2024-07-25T07:33:58.000Z</time>
</trkpt>
<trkpt lat="46.0948520" lon="10.4408050">
	<ele>1511.20</ele>
	<time>2024-07-25T07:33:59.000Z</time>
</trkpt>
<trkpt lat="46.0948420" lon="10.4408090">
	<ele>1511.40</ele>
	<time>2024-07-25T07:34:00.000Z</time>
</trkpt>
<trkpt lat="46.0948320" lon="10.4408150">
	<ele>1511.60</ele>
	<time>2024-07-25T07:34:01.000Z</time>
</trkpt>
<trkpt lat="46.0948210" lon="10.4408250">
	<ele>1511.60</ele>
	<time>2024-07-25T07:34:02.000Z</time>
</trkpt>
<trkpt lat="46.0948160" lon="10.4408390">
	<ele>1511.80</ele>
	<time>2024-07-25T07:34:03.000Z</time>
</trkpt>
<trkpt lat="46.0948130" lon="10.4408590">
	<ele>1511.80</ele>
	<time>2024-07-25T07:34:04.000Z</time>
</trkpt>
<trkpt lat="46.0948170" lon="10.4408730">
	<ele>1511.80</ele>
	<time>2024-07-25T07:34:05.000Z</time>
</trkpt>
<trkpt lat="46.0948230" lon="10.4408820">
	<ele>1512.00</ele>
	<time>2024-07-25T07:34:06.000Z</time>
</trkpt>
<trkpt lat="46.0948320" lon="10.4408920">
	<ele>1512.00</ele>
	<time>2024-07-25T07:34:07.000Z</time>
</trkpt>
<trkpt lat="46.0948400" lon="10.4409000">
	<ele>1512.20</ele>
	<time>2024-07-25T07:34:08.000Z</time>
</trkpt>
<trkpt lat="46.0948500" lon="10.4409100">
	<ele>1512.40</ele>
	<time>2024-07-25T07:34:09.000Z</time>
</trkpt>
<trkpt lat="46.0948630" lon="10.4409240">
	<ele>1512.40</ele>
	<time>2024-07-25T07:34:10.000Z</time>
</trkpt>
<trkpt lat="46.0948730" lon="10.4409360">
	<ele>1512.60</ele>
	<time>2024-07-25T07:34:11.000Z</time>
</trkpt>
<trkpt lat="46.0948810" lon="10.4409420">
	<ele>1512.80</ele>
	<time>2024-07-25T07:34:12.000Z</time>
</trkpt>
<trkpt lat="46.0948880" lon="10.4409370">
	<ele>1513.00</ele>
	<time>2024-07-25T07:34:13.000Z</time>
</trkpt>
<trkpt lat="46.0948940" lon="10.4409360">
	<ele>1513.00</ele>
	<time>2024-07-25T07:34:14.000Z</time>
</trkpt>
<trkpt lat="46.0949010" lon="10.4409370">
	<ele>1513.20</ele>
	<time>2024-07-25T07:34:15.000Z</time>
</trkpt>
<trkpt lat="46.0949070" lon="10.4409370">
	<ele>1513.20</ele>
	<time>2024-07-25T07:34:16.000Z</time>
</trkpt>
<trkpt lat="46.0949160" lon="10.4409400">
	<ele>1513.40</ele>
	<time>2024-07-25T07:34:17.000Z</time>
</trkpt>
<trkpt lat="46.0949240" lon="10.4409460">
	<ele>1513.40</ele>
	<time>2024-07-25T07:34:18.000Z</time>
</trkpt>
<trkpt lat="46.0949280" lon="10.4409570">
	<ele>1513.40</ele>
	<time>2024-07-25T07:34:19.000Z</time>
</trkpt>
<trkpt lat="46.0949340" lon="10.4409570">
	<ele>1513.40</ele>
	<time>2024-07-25T07:34:20.000Z</time>
</trkpt>
<trkpt lat="46.0949440" lon="10.4409470">
	<ele>1513.60</ele>
	<time>2024-07-25T07:34:21.000Z</time>
</trkpt>
<trkpt lat="46.0949500" lon="10.4409370">
	<ele>1513.80</ele>
	<time>2024-07-25T07:34:22.000Z</time>
</trkpt>
<trkpt lat="46.0949590" lon="10.4409410">
	<ele>1514.00</ele>
	<time>2024-07-25T07:34:23.000Z</time>
</trkpt>
<trkpt lat="46.0949640" lon="10.4409510">
	<ele>1514.20</ele>
	<time>2024-07-25T07:34:24.000Z</time>
</trkpt>
<trkpt lat="46.0949720" lon="10.4409580">
	<ele>1514.20</ele>
	<time>2024-07-25T07:34:25.000Z</time>
</trkpt>
<trkpt lat="46.0949810" lon="10.4409630">
	<ele>1514.40</ele>
	<time>2024-07-25T07:34:26.000Z</time>
</trkpt>
<trkpt lat="46.0949850" lon="10.4409790">
	<ele>1514.60</ele>
	<time>2024-07-25T07:34:27.000Z</time>
</trkpt>
<trkpt lat="46.0949900" lon="10.4409910">
	<ele>1514.80</ele>
	<time>2024-07-25T07:34:28.000Z</time>
</trkpt>
<trkpt lat="46.0949940" lon="10.4409990">
	<ele>1514.80</ele>
	<time>2024-07-25T07:34:29.000Z</time>
</trkpt>
<trkpt lat="46.0950030" lon="10.4410070">
	<ele>1515.00</ele>
	<time>2024-07-25T07:34:30.000Z</time>
</trkpt>
<trkpt lat="46.0950120" lon="10.4410140">
	<ele>1515.00</ele>
	<time>2024-07-25T07:34:31.000Z</time>
</trkpt>
<trkpt lat="46.0950210" lon="10.4410220">
	<ele>1515.20</ele>
	<time>2024-07-25T07:34:32.000Z</time>
</trkpt>
<trkpt lat="46.0950240" lon="10.4410300">
	<ele>1515.40</ele>
	<time>2024-07-25T07:34:33.000Z</time>
</trkpt>
<trkpt lat="46.0950260" lon="10.4410360">
	<ele>1515.60</ele>
	<time>2024-07-25T07:34:34.000Z</time>
</trkpt>
<trkpt lat="46.0950310" lon="10.4410410">
	<ele>1515.80</ele>
	<time>2024-07-25T07:34:35.000Z</time>
</trkpt>
<trkpt lat="46.0950350" lon="10.4410390">
	<ele>1516.00</ele>
	<time>2024-07-25T07:34:36.000Z</time>
</trkpt>
<trkpt lat="46.0950350" lon="10.4410390">
	<ele>1516.20</ele>
	<time>2024-07-25T07:34:37.000Z</time>
</trkpt>
<trkpt lat="46.0950400" lon="10.4410380">
	<ele>1516.40</ele>
	<time>2024-07-25T07:34:38.000Z</time>
</trkpt>
<trkpt lat="46.0950540" lon="10.4410340">
	<ele>1516.40</ele>
	<time>2024-07-25T07:34:39.000Z</time>
</trkpt>
<trkpt lat="46.0950670" lon="10.4410340">
	<ele>1516.60</ele>
	<time>2024-07-25T07:34:40.000Z</time>
</trkpt>
<trkpt lat="46.0950790" lon="10.4410390">
	<ele>1516.80</ele>
	<time>2024-07-25T07:34:41.000Z</time>
</trkpt>
<trkpt lat="46.0950890" lon="10.4410480">
	<ele>1517.00</ele>
	<time>2024-07-25T07:34:42.000Z</time>
</trkpt>
<trkpt lat="46.0950980" lon="10.4410500">
	<ele>1517.00</ele>
	<time>2024-07-25T07:34:43.000Z</time>
</trkpt>
<trkpt lat="46.0951060" lon="10.4410480">
	<ele>1517.20</ele>
	<time>2024-07-25T07:34:44.000Z</time>
</trkpt>
<trkpt lat="46.0951170" lon="10.4410460">
	<ele>1517.20</ele>
	<time>2024-07-25T07:34:45.000Z</time>
</trkpt>
<trkpt lat="46.0951190" lon="10.4410500">
	<ele>1517.40</ele>
	<time>2024-07-25T07:34:46.000Z</time>
</trkpt>
<trkpt lat="46.0951250" lon="10.4410530">
	<ele>1517.60</ele>
	<time>2024-07-25T07:34:47.000Z</time>
</trkpt>
<trkpt lat="46.0951300" lon="10.4410510">
	<ele>1517.80</ele>
	<time>2024-07-25T07:34:48.000Z</time>
</trkpt>
<trkpt lat="46.0951370" lon="10.4410600">
	<ele>1518.00</ele>
	<time>2024-07-25T07:34:49.000Z</time>
</trkpt>
<trkpt lat="46.0951430" lon="10.4410740">
	<ele>1518.20</ele>
	<time>2024-07-25T07:34:50.000Z</time>
</trkpt>
<trkpt lat="46.0951470" lon="10.4410820">
	<ele>1518.40</ele>
	<time>2024-07-25T07:34:51.000Z</time>
</trkpt>
<trkpt lat="46.0951490" lon="10.4410870">
	<ele>1518.40</ele>
	<time>2024-07-25T07:34:52.000Z</time>
</trkpt>
<trkpt lat="46.0951540" lon="10.4410890">
	<ele>1518.60</ele>
	<time>2024-07-25T07:34:53.000Z</time>
</trkpt>
<trkpt lat="46.0951520" lon="10.4410910">
	<ele>1518.80</ele>
	<time>2024-07-25T07:34:54.000Z</time>
</trkpt>
<trkpt lat="46.0951540" lon="10.4410990">
	<ele>1519.00</ele>
	<time>2024-07-25T07:34:55.000Z</time>
</trkpt>
<trkpt lat="46.0951590" lon="10.4411060">
	<ele>1519.20</ele>
	<time>2024-07-25T07:34:56.000Z</time>
</trkpt>
<trkpt lat="46.0951660" lon="10.4411080">
	<ele>1519.40</ele>
	<time>2024-07-25T07:34:57.000Z</time>
</trkpt>
<trkpt lat="46.0951720" lon="10.4411070">
	<ele>1519.40</ele>
	<time>2024-07-25T07:34:58.000Z</time>
</trkpt>
<trkpt lat="46.0951770" lon="10.4411100">
	<ele>1519.60</ele>
	<time>2024-07-25T07:34:59.000Z</time>
</trkpt>
<trkpt lat="46.0951790" lon="10.4411220">
	<ele>1519.80</ele>
	<time>2024-07-25T07:35:00.000Z</time>
</trkpt>
<trkpt lat="46.0951820" lon="10.4411230">
	<ele>1520.00</ele>
	<time>2024-07-25T07:35:01.000Z</time>
</trkpt>
<trkpt lat="46.0951810" lon="10.4411220">
	<ele>1520.20</ele>
	<time>2024-07-25T07:35:02.000Z</time>
</trkpt>
<trkpt lat="46.0951850" lon="10.4411210">
	<ele>1520.40</ele>
	<time>2024-07-25T07:35:03.000Z</time>
</trkpt>
<trkpt lat="46.0951930" lon="10.4411340">
	<ele>1520.40</ele>
	<time>2024-07-25T07:35:04.000Z</time>
</trkpt>
<trkpt lat="46.0952000" lon="10.4411500">
	<ele>1520.60</ele>
	<time>2024-07-25T07:35:05.000Z</time>
</trkpt>
<trkpt lat="46.0952050" lon="10.4411520">
	<ele>1520.80</ele>
	<time>2024-07-25T07:35:06.000Z</time>
</trkpt>
<trkpt lat="46.0952030" lon="10.4411580">
	<ele>1521.20</ele>
	<time>2024-07-25T07:35:07.000Z</time>
</trkpt>
<trkpt lat="46.0952050" lon="10.4411600">
	<ele>1521.40</ele>
	<time>2024-07-25T07:35:08.000Z</time>
</trkpt>
<trkpt lat="46.0952130" lon="10.4411670">
	<ele>1521.60</ele>
	<time>2024-07-25T07:35:09.000Z</time>
</trkpt>
<trkpt lat="46.0952160" lon="10.4411660">
	<ele>1521.80</ele>
	<time>2024-07-25T07:35:10.000Z</time>
</trkpt>
<trkpt lat="46.0952200" lon="10.4411670">
	<ele>1522.00</ele>
	<time>2024-07-25T07:35:11.000Z</time>
</trkpt>
<trkpt lat="46.0952220" lon="10.4411650">
	<ele>1522.00</ele>
	<time>2024-07-25T07:35:12.000Z</time>
</trkpt>
<trkpt lat="46.0952310" lon="10.4411670">
	<ele>1522.20</ele>
	<time>2024-07-25T07:35:13.000Z</time>
</trkpt>
<trkpt lat="46.0952430" lon="10.4411760">
	<ele>1522.40</ele>
	<time>2024-07-25T07:35:14.000Z</time>
</trkpt>
<trkpt lat="46.0952590" lon="10.4411940">
	<ele>1522.60</ele>
	<time>2024-07-25T07:35:15.000Z</time>
</trkpt>
<trkpt lat="46.0952710" lon="10.4412060">
	<ele>1522.80</ele>
	<time>2024-07-25T07:35:16.000Z</time>
</trkpt>
<trkpt lat="46.0952760" lon="10.4412150">
	<ele>1523.00</ele>
	<time>2024-07-25T07:35:17.000Z</time>
</trkpt>
<trkpt lat="46.0952840" lon="10.4412250">
	<ele>1523.20</ele>
	<time>2024-07-25T07:35:18.000Z</time>
</trkpt>
<trkpt lat="46.0952890" lon="10.4412300">
	<ele>1523.40</ele>
	<time>2024-07-25T07:35:19.000Z</time>
</trkpt>
<trkpt lat="46.0952960" lon="10.4412340">
	<ele>1523.60</ele>
	<time>2024-07-25T07:35:20.000Z</time>
</trkpt>
<trkpt lat="46.0953040" lon="10.4412320">
	<ele>1523.80</ele>
	<time>2024-07-25T07:35:21.000Z</time>
</trkpt>
<trkpt lat="46.0953140" lon="10.4412270">
	<ele>1523.80</ele>
	<time>2024-07-25T07:35:22.000Z</time>
</trkpt>
<trkpt lat="46.0953300" lon="10.4412240">
	<ele>1524.00</ele>
	<time>2024-07-25T07:35:23.000Z</time>
</trkpt>
<trkpt lat="46.0953450" lon="10.4412290">
	<ele>1524.20</ele>
	<time>2024-07-25T07:35:24.000Z</time>
</trkpt>
<trkpt lat="46.0953570" lon="10.4412350">
	<ele>1524.40</ele>
	<time>2024-07-25T07:35:25.000Z</time>
</trkpt>
<trkpt lat="46.0953650" lon="10.4412460">
	<ele>1524.60</ele>
	<time>2024-07-25T07:35:26.000Z</time>
</trkpt>
<trkpt lat="46.0953760" lon="10.4412560">
	<ele>1524.80</ele>
	<time>2024-07-25T07:35:27.000Z</time>
</trkpt>
<trkpt lat="46.0953850" lon="10.4412630">
	<ele>1524.80</ele>
	<time>2024-07-25T07:35:28.000Z</time>
</trkpt>
<trkpt lat="46.0953950" lon="10.4412690">
	<ele>1525.00</ele>
	<time>2024-07-25T07:35:29.000Z</time>
</trkpt>
<trkpt lat="46.0954070" lon="10.4412790">
	<ele>1525.20</ele>
	<time>2024-07-25T07:35:30.000Z</time>
</trkpt>
<trkpt lat="46.0954170" lon="10.4412860">
	<ele>1525.60</ele>
	<time>2024-07-25T07:35:31.000Z</time>
</trkpt>
<trkpt lat="46.0954220" lon="10.4412900">
	<ele>1525.80</ele>
	<time>2024-07-25T07:35:32.000Z</time>
</trkpt>
<trkpt lat="46.0954260" lon="10.4412970">
	<ele>1526.00</ele>
	<time>2024-07-25T07:35:33.000Z</time>
</trkpt>
<trkpt lat="46.0954260" lon="10.4413010">
	<ele>1526.20</ele>
	<time>2024-07-25T07:35:34.000Z</time>
</trkpt>
<trkpt lat="46.0954360" lon="10.4413100">
	<ele>1526.40</ele>
	<time>2024-07-25T07:35:35.000Z</time>
</trkpt>
<trkpt lat="46.0954480" lon="10.4413190">
	<ele>1526.80</ele>
	<time>2024-07-25T07:35:36.000Z</time>
</trkpt>
<trkpt lat="46.0954570" lon="10.4413250">
	<ele>1527.00</ele>
	<time>2024-07-25T07:35:37.000Z</time>
</trkpt>
<trkpt lat="46.0954690" lon="10.4413270">
	<ele>1527.00</ele>
	<time>2024-07-25T07:35:38.000Z</time>
</trkpt>
<trkpt lat="46.0954850" lon="10.4413290">
	<ele>1527.00</ele>
	<time>2024-07-25T07:35:39.000Z</time>
</trkpt>
<trkpt lat="46.0954940" lon="10.4413300">
	<ele>1527.20</ele>
	<time>2024-07-25T07:35:40.000Z</time>
</trkpt>
<trkpt lat="46.0955070" lon="10.4413300">
	<ele>1527.20</ele>
	<time>2024-07-25T07:35:41.000Z</time>
</trkpt>
<trkpt lat="46.0955160" lon="10.4413250">
	<ele>1527.60</ele>
	<time>2024-07-25T07:35:42.000Z</time>
</trkpt>
<trkpt lat="46.0955210" lon="10.4413180">
	<ele>1527.80</ele>
	<time>2024-07-25T07:35:43.000Z</time>
</trkpt>
<trkpt lat="46.0955260" lon="10.4413100">
	<ele>1527.80</ele>
	<time>2024-07-25T07:35:44.000Z</time>
</trkpt>
<trkpt lat="46.0955350" lon="10.4413050">
	<ele>1528.00</ele>
	<time>2024-07-25T07:35:45.000Z</time>
</trkpt>
<trkpt lat="46.0955410" lon="10.4413010">
	<ele>1528.20</ele>
	<time>2024-07-25T07:35:46.000Z</time>
</trkpt>
<trkpt lat="46.0955530" lon="10.4413030">
	<ele>1528.40</ele>
	<time>2024-07-25T07:35:47.000Z</time>
</trkpt>
<trkpt lat="46.0955670" lon="10.4413050">
	<ele>1528.60</ele>
	<time>2024-07-25T07:35:48.000Z</time>
</trkpt>
<trkpt lat="46.0955790" lon="10.4413060">
	<ele>1528.80</ele>
	<time>2024-07-25T07:35:49.000Z</time>
</trkpt>
<trkpt lat="46.0955960" lon="10.4413100">
	<ele>1528.80</ele>
	<time>2024-07-25T07:35:50.000Z</time>
</trkpt>
<trkpt lat="46.0956080" lon="10.4413080">
	<ele>1528.80</ele>
	<time>2024-07-25T07:35:51.000Z</time>
</trkpt>
<trkpt lat="46.0956140" lon="10.4412980">
	<ele>1529.20</ele>
	<time>2024-07-25T07:35:52.000Z</time>
</trkpt>
<trkpt lat="46.0956210" lon="10.4412950">
	<ele>1529.40</ele>
	<time>2024-07-25T07:35:53.000Z</time>
</trkpt>
<trkpt lat="46.0956280" lon="10.4412910">
	<ele>1529.60</ele>
	<time>2024-07-25T07:35:54.000Z</time>
</trkpt>
<trkpt lat="46.0956290" lon="10.4412910">
	<ele>1529.80</ele>
	<time>2024-07-25T07:35:55.000Z</time>
</trkpt>
<trkpt lat="46.0956350" lon="10.4412900">
	<ele>1529.80</ele>
	<time>2024-07-25T07:35:56.000Z</time>
</trkpt>
<trkpt lat="46.0956480" lon="10.4412950">
	<ele>1530.00</ele>
	<time>2024-07-25T07:35:57.000Z</time>
</trkpt>
<trkpt lat="46.0956590" lon="10.4413050">
	<ele>1530.20</ele>
	<time>2024-07-25T07:35:58.000Z</time>
</trkpt>
<trkpt lat="46.0956630" lon="10.4413070">
	<ele>1530.20</ele>
	<time>2024-07-25T07:35:59.000Z</time>
</trkpt>
<trkpt lat="46.0956730" lon="10.4413140">
	<ele>1530.40</ele>
	<time>2024-07-25T07:36:00.000Z</time>
</trkpt>
<trkpt lat="46.0956790" lon="10.4413270">
	<ele>1530.60</ele>
	<time>2024-07-25T07:36:01.000Z</time>
</trkpt>
<trkpt lat="46.0956810" lon="10.4413290">
	<ele>1531.00</ele>
	<time>2024-07-25T07:36:02.000Z</time>
</trkpt>
<trkpt lat="46.0956900" lon="10.4413290">
	<ele>1531.20</ele>
	<time>2024-07-25T07:36:03.000Z</time>
</trkpt>
<trkpt lat="46.0956920" lon="10.4413300">
	<ele>1531.40</ele>
	<time>2024-07-25T07:36:04.000Z</time>
</trkpt>
<trkpt lat="46.0957020" lon="10.4413280">
	<ele>1531.40</ele>
	<time>2024-07-25T07:36:05.000Z</time>
</trkpt>
<trkpt lat="46.0957140" lon="10.4413230">
	<ele>1531.60</ele>
	<time>2024-07-25T07:36:06.000Z</time>
</trkpt>
<trkpt lat="46.0957250" lon="10.4413270">
	<ele>1531.80</ele>
	<time>2024-07-25T07:36:07.000Z</time>
</trkpt>
<trkpt lat="46.0957320" lon="10.4413280">
	<ele>1532.00</ele>
	<time>2024-07-25T07:36:08.000Z</time>
</trkpt>
<trkpt lat="46.0957380" lon="10.4413360">
	<ele>1532.20</ele>
	<time>2024-07-25T07:36:09.000Z</time>
</trkpt>
<trkpt lat="46.0957420" lon="10.4413450">
	<ele>1532.40</ele>
	<time>2024-07-25T07:36:10.000Z</time>
</trkpt>
<trkpt lat="46.0957480" lon="10.4413480">
	<ele>1532.60</ele>
	<time>2024-07-25T07:36:11.000Z</time>
</trkpt>
<trkpt lat="46.0957590" lon="10.4413500">
	<ele>1532.60</ele>
	<time>2024-07-25T07:36:12.000Z</time>
</trkpt>
<trkpt lat="46.0957720" lon="10.4413500">
	<ele>1532.80</ele>
	<time>2024-07-25T07:36:13.000Z</time>
</trkpt>
<trkpt lat="46.0957780" lon="10.4413500">
	<ele>1533.00</ele>
	<time>2024-07-25T07:36:14.000Z</time>
</trkpt>
<trkpt lat="46.0957810" lon="10.4413590">
	<ele>1533.20</ele>
	<time>2024-07-25T07:36:15.000Z</time>
</trkpt>
<trkpt lat="46.0957850" lon="10.4413660">
	<ele>1533.40</ele>
	<time>2024-07-25T07:36:16.000Z</time>
</trkpt>
<trkpt lat="46.0957890" lon="10.4413750">
	<ele>1533.60</ele>
	<time>2024-07-25T07:36:17.000Z</time>
</trkpt>
<trkpt lat="46.0957930" lon="10.4413780">
	<ele>1533.80</ele>
	<time>2024-07-25T07:36:18.000Z</time>
</trkpt>
<trkpt lat="46.0957960" lon="10.4413840">
	<ele>1534.00</ele>
	<time>2024-07-25T07:36:19.000Z</time>
</trkpt>
<trkpt lat="46.0958040" lon="10.4413890">
	<ele>1534.20</ele>
	<time>2024-07-25T07:36:20.000Z</time>
</trkpt>
<trkpt lat="46.0958070" lon="10.4413930">
	<ele>1534.20</ele>
	<time>2024-07-25T07:36:21.000Z</time>
</trkpt>
<trkpt lat="46.0958110" lon="10.4414020">
	<ele>1534.40</ele>
	<time>2024-07-25T07:36:22.000Z</time>
</trkpt>
<trkpt lat="46.0958130" lon="10.4414180">
	<ele>1534.40</ele>
	<time>2024-07-25T07:36:23.000Z</time>
</trkpt>
<trkpt lat="46.0958140" lon="10.4414270">
	<ele>1534.40</ele>
	<time>2024-07-25T07:36:24.000Z</time>
</trkpt>
<trkpt lat="46.0958160" lon="10.4414330">
	<ele>1534.60</ele>
	<time>2024-07-25T07:36:25.000Z</time>
</trkpt>
<trkpt lat="46.0958170" lon="10.4414350">
	<ele>1534.80</ele>
	<time>2024-07-25T07:36:26.000Z</time>
</trkpt>
<trkpt lat="46.0958240" lon="10.4414390">
	<ele>1535.00</ele>
	<time>2024-07-25T07:36:27.000Z</time>
</trkpt>
<trkpt lat="46.0958360" lon="10.4414440">
	<ele>1535.20</ele>
	<time>2024-07-25T07:36:28.000Z</time>
</trkpt>
<trkpt lat="46.0958480" lon="10.4414480">
	<ele>1535.40</ele>
	<time>2024-07-25T07:36:29.000Z</time>
</trkpt>
<trkpt lat="46.0958580" lon="10.4414580">
	<ele>1535.80</ele>
	<time>2024-07-25T07:36:30.000Z</time>
</trkpt>
<trkpt lat="46.0958660" lon="10.4414670">
	<ele>1536.00</ele>
	<time>2024-07-25T07:36:31.000Z</time>
</trkpt>
<trkpt lat="46.0958730" lon="10.4414780">
	<ele>1536.00</ele>
	<time>2024-07-25T07:36:32.000Z</time>
</trkpt>
<trkpt lat="46.0958820" lon="10.4414880">
	<ele>1536.40</ele>
	<time>2024-07-25T07:36:33.000Z</time>
</trkpt>
<trkpt lat="46.0958870" lon="10.4414910">
	<ele>1536.60</ele>
	<time>2024-07-25T07:36:34.000Z</time>
</trkpt>
<trkpt lat="46.0958970" lon="10.4414980">
	<ele>1536.60</ele>
	<time>2024-07-25T07:36:35.000Z</time>
</trkpt>
<trkpt lat="46.0959080" lon="10.4414980">
	<ele>1536.80</ele>
	<time>2024-07-25T07:36:36.000Z</time>
</trkpt>
<trkpt lat="46.0959140" lon="10.4414980">
	<ele>1537.00</ele>
	<time>2024-07-25T07:36:37.000Z</time>
</trkpt>
<trkpt lat="46.0959230" lon="10.4415140">
	<ele>1537.20</ele>
	<time>2024-07-25T07:36:38.000Z</time>
</trkpt>
<trkpt lat="46.0959330" lon="10.4415300">
	<ele>1537.20</ele>
	<time>2024-07-25T07:36:39.000Z</time>
</trkpt>
<trkpt lat="46.0959330" lon="10.4415490">
	<ele>1537.40</ele>
	<time>2024-07-25T07:36:40.000Z</time>
</trkpt>
<trkpt lat="46.0959370" lon="10.4415610">
	<ele>1537.60</ele>
	<time>2024-07-25T07:36:41.000Z</time>
</trkpt>
<trkpt lat="46.0959360" lon="10.4415780">
	<ele>1537.80</ele>
	<time>2024-07-25T07:36:42.000Z</time>
</trkpt>
<trkpt lat="46.0959370" lon="10.4415870">
	<ele>1537.80</ele>
	<time>2024-07-25T07:36:43.000Z</time>
</trkpt>
<trkpt lat="46.0959410" lon="10.4416000">
	<ele>1538.00</ele>
	<time>2024-07-25T07:36:44.000Z</time>
</trkpt>
<trkpt lat="46.0959480" lon="10.4416060">
	<ele>1538.00</ele>
	<time>2024-07-25T07:36:45.000Z</time>
</trkpt>
<trkpt lat="46.0959570" lon="10.4416080">
	<ele>1538.20</ele>
	<time>2024-07-25T07:36:46.000Z</time>
</trkpt>
<trkpt lat="46.0959640" lon="10.4416140">
	<ele>1538.20</ele>
	<time>2024-07-25T07:36:47.000Z</time>
</trkpt>
<trkpt lat="46.0959750" lon="10.4416120">
	<ele>1538.40</ele>
	<time>2024-07-25T07:36:48.000Z</time>
</trkpt>
<trkpt lat="46.0959870" lon="10.4416130">
	<ele>1538.60</ele>
	<time>2024-07-25T07:36:49.000Z</time>
</trkpt>
<trkpt lat="46.0959910" lon="10.4416270">
	<ele>1538.80</ele>
	<time>2024-07-25T07:36:50.000Z</time>
</trkpt>
<trkpt lat="46.0959960" lon="10.4416330">
	<ele>1539.00</ele>
	<time>2024-07-25T07:36:51.000Z</time>
</trkpt>
<trkpt lat="46.0960020" lon="10.4416380">
	<ele>1539.00</ele>
	<time>2024-07-25T07:36:52.000Z</time>
</trkpt>
<trkpt lat="46.0960080" lon="10.4416440">
	<ele>1539.20</ele>
	<time>2024-07-25T07:36:53.000Z</time>
</trkpt>
<trkpt lat="46.0960170" lon="10.4416490">
	<ele>1539.60</ele>
	<time>2024-07-25T07:36:54.000Z</time>
</trkpt>
<trkpt lat="46.0960280" lon="10.4416520">
	<ele>1539.80</ele>
	<time>2024-07-25T07:36:55.000Z</time>
</trkpt>
<trkpt lat="46.0960400" lon="10.4416530">
	<ele>1539.80</ele>
	<time>2024-07-25T07:36:56.000Z</time>
</trkpt>
<trkpt lat="46.0960440" lon="10.4416500">
	<ele>1540.00</ele>
	<time>2024-07-25T07:36:57.000Z</time>
</trkpt>
<trkpt lat="46.0960460" lon="10.4416500">
	<ele>1540.20</ele>
	<time>2024-07-25T07:36:58.000Z</time>
</trkpt>
<trkpt lat="46.0960530" lon="10.4416570">
	<ele>1540.40</ele>
	<time>2024-07-25T07:36:59.000Z</time>
</trkpt>
<trkpt lat="46.0960590" lon="10.4416660">
	<ele>1540.40</ele>
	<time>2024-07-25T07:37:00.000Z</time>
</trkpt>
<trkpt lat="46.0960620" lon="10.4416790">
	<ele>1540.60</ele>
	<time>2024-07-25T07:37:01.000Z</time>
</trkpt>
<trkpt lat="46.0960670" lon="10.4416950">
	<ele>1540.80</ele>
	<time>2024-07-25T07:37:02.000Z</time>
</trkpt>
<trkpt lat="46.0960740" lon="10.4417040">
	<ele>1541.00</ele>
	<time>2024-07-25T07:37:03.000Z</time>
</trkpt>
<trkpt lat="46.0960770" lon="10.4417050">
	<ele>1541.20</ele>
	<time>2024-07-25T07:37:04.000Z</time>
</trkpt>
<trkpt lat="46.0960840" lon="10.4417070">
	<ele>1541.20</ele>
	<time>2024-07-25T07:37:05.000Z</time>
</trkpt>
<trkpt lat="46.0960890" lon="10.4417110">
	<ele>1541.40</ele>
	<time>2024-07-25T07:37:06.000Z</time>
</trkpt>
<trkpt lat="46.0961020" lon="10.4417140">
	<ele>1541.60</ele>
	<time>2024-07-25T07:37:07.000Z</time>
</trkpt>
<trkpt lat="46.0961060" lon="10.4417140">
	<ele>1541.80</ele>
	<time>2024-07-25T07:37:08.000Z</time>
</trkpt>
<trkpt lat="46.0961010" lon="10.4417060">
	<ele>1542.00</ele>
	<time>2024-07-25T07:37:09.000Z</time>
</trkpt>
<trkpt lat="46.0960980" lon="10.4416990">
	<ele>1542.20</ele>
	<time>2024-07-25T07:37:10.000Z</time>
</trkpt>
<trkpt lat="46.0960950" lon="10.4416960">
	<ele>1542.60</ele>
	<time>2024-07-25T07:37:11.000Z</time>
</trkpt>
<trkpt lat="46.0961020" lon="10.4416920">
	<ele>1542.60</ele>
	<time>2024-07-25T07:37:12.000Z</time>
</trkpt>
<trkpt lat="46.0961040" lon="10.4416910">
	<ele>1542.80</ele>
	<time>2024-07-25T07:37:13.000Z</time>
</trkpt>
<trkpt lat="46.0961120" lon="10.4416920">
	<ele>1543.00</ele>
	<time>2024-07-25T07:37:14.000Z</time>
</trkpt>
<trkpt lat="46.0961190" lon="10.4416950">
	<ele>1543.20</ele>
	<time>2024-07-25T07:37:15.000Z</time>
</trkpt>
<trkpt lat="46.0961220" lon="10.4417000">
	<ele>1543.20</ele>
	<time>2024-07-25T07:37:16.000Z</time>
</trkpt>
<trkpt lat="46.0961280" lon="10.4417060">
	<ele>1543.40</ele>
	<time>2024-07-25T07:37:17.000Z</time>
</trkpt>
<trkpt lat="46.0961380" lon="10.4417100">
	<ele>1543.40</ele>
	<time>2024-07-25T07:37:18.000Z</time>
</trkpt>
<trkpt lat="46.0961460" lon="10.4417110">
	<ele>1543.40</ele>
	<time>2024-07-25T07:37:19.000Z</time>
</trkpt>
<trkpt lat="46.0961530" lon="10.4417150">
	<ele>1543.60</ele>
	<time>2024-07-25T07:37:20.000Z</time>
</trkpt>
<trkpt lat="46.0961610" lon="10.4417190">
	<ele>1543.80</ele>
	<time>2024-07-25T07:37:21.000Z</time>
</trkpt>
<trkpt lat="46.0961710" lon="10.4417210">
	<ele>1544.00</ele>
	<time>2024-07-25T07:37:22.000Z</time>
</trkpt>
<trkpt lat="46.0961790" lon="10.4417240">
	<ele>1544.00</ele>
	<time>2024-07-25T07:37:23.000Z</time>
</trkpt>
<trkpt lat="46.0961870" lon="10.4417250">
	<ele>1544.20</ele>
	<time>2024-07-25T07:37:24.000Z</time>
</trkpt>
<trkpt lat="46.0961980" lon="10.4417230">
	<ele>1544.40</ele>
	<time>2024-07-25T07:37:25.000Z</time>
</trkpt>
<trkpt lat="46.0962100" lon="10.4417190">
	<ele>1544.80</ele>
	<time>2024-07-25T07:37:26.000Z</time>
</trkpt>
<trkpt lat="46.0962200" lon="10.4417140">
	<ele>1545.00</ele>
	<time>2024-07-25T07:37:27.000Z</time>
</trkpt>
<trkpt lat="46.0962280" lon="10.4417070">
	<ele>1545.20</ele>
	<time>2024-07-25T07:37:28.000Z</time>
</trkpt>
<trkpt lat="46.0962370" lon="10.4417040">
	<ele>1545.40</ele>
	<time>2024-07-25T07:37:29.000Z</time>
</trkpt>
<trkpt lat="46.0962480" lon="10.4417110">
	<ele>1545.40</ele>
	<time>2024-07-25T07:37:30.000Z</time>
</trkpt>
<trkpt lat="46.0962600" lon="10.4417220">
	<ele>1545.60</ele>
	<time>2024-07-25T07:37:31.000Z</time>
</trkpt>
<trkpt lat="46.0962700" lon="10.4417330">
	<ele>1545.80</ele>
	<time>2024-07-25T07:37:32.000Z</time>
</trkpt>
<trkpt lat="46.0962740" lon="10.4417350">
	<ele>1546.00</ele>
	<time>2024-07-25T07:37:33.000Z</time>
</trkpt>
<trkpt lat="46.0962760" lon="10.4417370">
	<ele>1546.40</ele>
	<time>2024-07-25T07:37:34.000Z</time>
</trkpt>
<trkpt lat="46.0962780" lon="10.4417370">
	<ele>1546.60</ele>
	<time>2024-07-25T07:37:35.000Z</time>
</trkpt>
<trkpt lat="46.0962800" lon="10.4417540">
	<ele>1546.80</ele>
	<time>2024-07-25T07:37:36.000Z</time>
</trkpt>
<trkpt lat="46.0962800" lon="10.4417620">
	<ele>1547.00</ele>
	<time>2024-07-25T07:37:37.000Z</time>
</trkpt>
<trkpt lat="46.0962860" lon="10.4417700">
	<ele>1547.20</ele>
	<time>2024-07-25T07:37:38.000Z</time>
</trkpt>
<trkpt lat="46.0962900" lon="10.4417750">
	<ele>1547.20</ele>
	<time>2024-07-25T07:37:39.000Z</time>
</trkpt>
<trkpt lat="46.0962980" lon="10.4417720">
	<ele>1547.40</ele>
	<time>2024-07-25T07:37:40.000Z</time>
</trkpt>
<trkpt lat="46.0963080" lon="10.4417700">
	<ele>1547.40</ele>
	<time>2024-07-25T07:37:41.000Z</time>
</trkpt>
<trkpt lat="46.0963160" lon="10.4417620">
	<ele>1547.60</ele>
	<time>2024-07-25T07:37:42.000Z</time>
</trkpt>
<trkpt lat="46.0963260" lon="10.4417570">
	<ele>1547.60</ele>
	<time>2024-07-25T07:37:43.000Z</time>
</trkpt>
<trkpt lat="46.0963340" lon="10.4417540">
	<ele>1547.80</ele>
	<time>2024-07-25T07:37:44.000Z</time>
</trkpt>
<trkpt lat="46.0963370" lon="10.4417510">
	<ele>1548.00</ele>
	<time>2024-07-25T07:37:45.000Z</time>
</trkpt>
<trkpt lat="46.0963410" lon="10.4417510">
	<ele>1548.00</ele>
	<time>2024-07-25T07:37:46.000Z</time>
</trkpt>
<trkpt lat="46.0963440" lon="10.4417520">
	<ele>1548.20</ele>
	<time>2024-07-25T07:37:47.000Z</time>
</trkpt>
<trkpt lat="46.0963560" lon="10.4417660">
	<ele>1548.40</ele>
	<time>2024-07-25T07:37:48.000Z</time>
</trkpt>
<trkpt lat="46.0963690" lon="10.4417760">
	<ele>1548.60</ele>
	<time>2024-07-25T07:37:49.000Z</time>
</trkpt>
<trkpt lat="46.0963860" lon="10.4417760">
	<ele>1548.60</ele>
	<time>2024-07-25T07:37:50.000Z</time>
</trkpt>
<trkpt lat="46.0964020" lon="10.4417690">
	<ele>1548.80</ele>
	<time>2024-07-25T07:37:51.000Z</time>
</trkpt>
<trkpt lat="46.0964120" lon="10.4417680">
	<ele>1549.00</ele>
	<time>2024-07-25T07:37:52.000Z</time>
</trkpt>
<trkpt lat="46.0964200" lon="10.4417690">
	<ele>1549.20</ele>
	<time>2024-07-25T07:37:53.000Z</time>
</trkpt>
<trkpt lat="46.0964290" lon="10.4417730">
	<ele>1549.20</ele>
	<time>2024-07-25T07:37:54.000Z</time>
</trkpt>
<trkpt lat="46.0964350" lon="10.4417790">
	<ele>1549.40</ele>
	<time>2024-07-25T07:37:55.000Z</time>
</trkpt>
<trkpt lat="46.0964390" lon="10.4417870">
	<ele>1549.60</ele>
	<time>2024-07-25T07:37:56.000Z</time>
</trkpt>
<trkpt lat="46.0964500" lon="10.4417910">
	<ele>1549.80</ele>
	<time>2024-07-25T07:37:57.000Z</time>
</trkpt>
<trkpt lat="46.0964550" lon="10.4417950">
	<ele>1550.00</ele>
	<time>2024-07-25T07:37:58.000Z</time>
</trkpt>
<trkpt lat="46.0964610" lon="10.4417970">
	<ele>1550.20</ele>
	<time>2024-07-25T07:37:59.000Z</time>
</trkpt>
<trkpt lat="46.0964660" lon="10.4418010">
	<ele>1550.20</ele>
	<time>2024-07-25T07:38:00.000Z</time>
</trkpt>
<trkpt lat="46.0964730" lon="10.4418040">
	<ele>1550.40</ele>
	<time>2024-07-25T07:38:01.000Z</time>
</trkpt>
<trkpt lat="46.0964830" lon="10.4418000">
	<ele>1550.40</ele>
	<time>2024-07-25T07:38:02.000Z</time>
</trkpt>
<trkpt lat="46.0964900" lon="10.4418010">
	<ele>1550.60</ele>
	<time>2024-07-25T07:38:03.000Z</time>
</trkpt>
<trkpt lat="46.0964970" lon="10.4417980">
	<ele>1550.80</ele>
	<time>2024-07-25T07:38:04.000Z</time>
</trkpt>
<trkpt lat="46.0965090" lon="10.4417960">
	<ele>1550.80</ele>
	<time>2024-07-25T07:38:05.000Z</time>
</trkpt>
<trkpt lat="46.0965190" lon="10.4417970">
	<ele>1551.00</ele>
	<time>2024-07-25T07:38:06.000Z</time>
</trkpt>
<trkpt lat="46.0965280" lon="10.4418040">
	<ele>1551.00</ele>
	<time>2024-07-25T07:38:07.000Z</time>
</trkpt>
<trkpt lat="46.0965380" lon="10.4418090">
	<ele>1551.20</ele>
	<time>2024-07-25T07:38:08.000Z</time>
</trkpt>
<trkpt lat="46.0965420" lon="10.4418120">
	<ele>1551.40</ele>
	<time>2024-07-25T07:38:09.000Z</time>
</trkpt>
<trkpt lat="46.0965440" lon="10.4418220">
	<ele>1551.40</ele>
	<time>2024-07-25T07:38:10.000Z</time>
</trkpt>
<trkpt lat="46.0965470" lon="10.4418270">
	<ele>1551.60</ele>
	<time>2024-07-25T07:38:11.000Z</time>
</trkpt>
<trkpt lat="46.0965490" lon="10.4418320">
	<ele>1551.80</ele>
	<time>2024-07-25T07:38:12.000Z</time>
</trkpt>
<trkpt lat="46.0965500" lon="10.4418360">
	<ele>1552.00</ele>
	<time>2024-07-25T07:38:13.000Z</time>
</trkpt>
<trkpt lat="46.0965560" lon="10.4418480">
	<ele>1552.20</ele>
	<time>2024-07-25T07:38:14.000Z</time>
</trkpt>
<trkpt lat="46.0965650" lon="10.4418610">
	<ele>1552.40</ele>
	<time>2024-07-25T07:38:15.000Z</time>
</trkpt>
<trkpt lat="46.0965700" lon="10.4418690">
	<ele>1552.40</ele>
	<time>2024-07-25T07:38:16.000Z</time>
</trkpt>
<trkpt lat="46.0965770" lon="10.4418610">
	<ele>1552.60</ele>
	<time>2024-07-25T07:38:17.000Z</time>
</trkpt>
<trkpt lat="46.0965860" lon="10.4418570">
	<ele>1552.60</ele>
	<time>2024-07-25T07:38:18.000Z</time>
</trkpt>
<trkpt lat="46.0965910" lon="10.4418530">
	<ele>1552.80</ele>
	<time>2024-07-25T07:38:19.000Z</time>
</trkpt>
<trkpt lat="46.0965970" lon="10.4418580">
	<ele>1553.00</ele>
	<time>2024-07-25T07:38:20.000Z</time>
</trkpt>
<trkpt lat="46.0966020" lon="10.4418600">
	<ele>1553.20</ele>
	<time>2024-07-25T07:38:21.000Z</time>
</trkpt>
<trkpt lat="46.0966040" lon="10.4418560">
	<ele>1553.20</ele>
	<time>2024-07-25T07:38:22.000Z</time>
</trkpt>
<trkpt lat="46.0966080" lon="10.4418460">
	<ele>1553.40</ele>
	<time>2024-07-25T07:38:23.000Z</time>
</trkpt>
<trkpt lat="46.0966110" lon="10.4418370">
	<ele>1553.40</ele>
	<time>2024-07-25T07:38:24.000Z</time>
</trkpt>
<trkpt lat="46.0966140" lon="10.4418230">
	<ele>1553.40</ele>
	<time>2024-07-25T07:38:25.000Z</time>
</trkpt>
<trkpt lat="46.0966180" lon="10.4418090">
	<ele>1553.40</ele>
	<time>2024-07-25T07:38:26.000Z</time>
</trkpt>
<trkpt lat="46.0966200" lon="10.4417990">
	<ele>1553.40</ele>
	<time>2024-07-25T07:38:27.000Z</time>
</trkpt>
<trkpt lat="46.0966080" lon="10.4417930">
	<ele>1553.40</ele>
	<time>2024-07-25T07:38:28.000Z</time>
</trkpt>
<trkpt lat="46.0966100" lon="10.4418000">
	<ele>1553.40</ele>
	<time>2024-07-25T07:38:29.000Z</time>
</trkpt>
<trkpt lat="46.0966090" lon="10.4418050">
	<ele>1553.60</ele>
	<time>2024-07-25T07:38:30.000Z</time>
</trkpt>
<trkpt lat="46.0966060" lon="10.4418080">
	<ele>1553.60</ele>
	<time>2024-07-25T07:38:31.000Z</time>
</trkpt>
<trkpt lat="46.0966050" lon="10.4418040">
	<ele>1553.60</ele>
	<time>2024-07-25T07:38:32.000Z</time>
</trkpt>
<trkpt lat="46.0966030" lon="10.4418060">
	<ele>1553.60</ele>
	<time>2024-07-25T07:38:33.000Z</time>
</trkpt>
<trkpt lat="46.0966010" lon="10.4418050">
	<ele>1553.60</ele>
	<time>2024-07-25T07:38:34.000Z</time>
</trkpt>
<trkpt lat="46.0966050" lon="10.4418050">
	<ele>1553.60</ele>
	<time>2024-07-25T07:38:35.000Z</time>
</trkpt>
<trkpt lat="46.0966120" lon="10.4418050">
	<ele>1553.60</ele>
	<time>2024-07-25T07:38:36.000Z</time>
</trkpt>
<trkpt lat="46.0966200" lon="10.4418040">
	<ele>1553.60</ele>
	<time>2024-07-25T07:38:37.000Z</time>
</trkpt>
<trkpt lat="46.0966290" lon="10.4417980">
	<ele>1553.80</ele>
	<time>2024-07-25T07:38:38.000Z</time>
</trkpt>
<trkpt lat="46.0966450" lon="10.4417950">
	<ele>1553.60</ele>
	<time>2024-07-25T07:38:39.000Z</time>
</trkpt>
<trkpt lat="46.0966480" lon="10.4417970">
	<ele>1553.60</ele>
	<time>2024-07-25T07:38:40.000Z</time>
</trkpt>
<trkpt lat="46.0966670" lon="10.4417880">
	<ele>1553.80</ele>
	<time>2024-07-25T07:38:41.000Z</time>
</trkpt>
<trkpt lat="46.0966750" lon="10.4417830">
	<ele>1553.80</ele>
	<time>2024-07-25T07:38:42.000Z</time>
</trkpt>
<trkpt lat="46.0966880" lon="10.4417750">
	<ele>1554.00</ele>
	<time>2024-07-25T07:38:43.000Z</time>
</trkpt>
<trkpt lat="46.0966890" lon="10.4417720">
	<ele>1554.20</ele>
	<time>2024-07-25T07:38:44.000Z</time>
</trkpt>
<trkpt lat="46.0966910" lon="10.4417690">
	<ele>1554.20</ele>
	<time>2024-07-25T07:38:45.000Z</time>
</trkpt>
<trkpt lat="46.0966940" lon="10.4417670">
	<ele>1554.40</ele>
	<time>2024-07-25T07:38:46.000Z</time>
</trkpt>
<trkpt lat="46.0966990" lon="10.4417850">
	<ele>1554.60</ele>
	<time>2024-07-25T07:38:47.000Z</time>
</trkpt>
<trkpt lat="46.0967020" lon="10.4417990">
	<ele>1554.60</ele>
	<time>2024-07-25T07:38:48.000Z</time>
</trkpt>
<trkpt lat="46.0966990" lon="10.4418080">
	<ele>1554.80</ele>
	<time>2024-07-25T07:38:49.000Z</time>
</trkpt>
<trkpt lat="46.0966960" lon="10.4418140">
	<ele>1555.00</ele>
	<time>2024-07-25T07:38:50.000Z</time>
</trkpt>
<trkpt lat="46.0966930" lon="10.4418170">
	<ele>1555.20</ele>
	<time>2024-07-25T07:38:51.000Z</time>
</trkpt>
<trkpt lat="46.0966910" lon="10.4418250">
	<ele>1555.40</ele>
	<time>2024-07-25T07:38:52.000Z</time>
</trkpt>
<trkpt lat="46.0966870" lon="10.4418320">
	<ele>1555.60</ele>
	<time>2024-07-25T07:38:53.000Z</time>
</trkpt>
<trkpt lat="46.0966770" lon="10.4418380">
	<ele>1555.80</ele>
	<time>2024-07-25T07:38:54.000Z</time>
</trkpt>
<trkpt lat="46.0966700" lon="10.4418430">
	<ele>1556.00</ele>
	<time>2024-07-25T07:38:55.000Z</time>
</trkpt>
<trkpt lat="46.0966670" lon="10.4418450">
	<ele>1556.20</ele>
	<time>2024-07-25T07:38:56.000Z</time>
</trkpt>
<trkpt lat="46.0966620" lon="10.4418450">
	<ele>1556.60</ele>
	<time>2024-07-25T07:38:57.000Z</time>
</trkpt>
<trkpt lat="46.0966580" lon="10.4418480">
	<ele>1556.80</ele>
	<time>2024-07-25T07:38:58.000Z</time>
</trkpt>
<trkpt lat="46.0966520" lon="10.4418530">
	<ele>1557.00</ele>
	<time>2024-07-25T07:38:59.000Z</time>
</trkpt>
<trkpt lat="46.0966470" lon="10.4418670">
	<ele>1557.00</ele>
	<time>2024-07-25T07:39:00.000Z</time>
</trkpt>
<trkpt lat="46.0966420" lon="10.4418720">
	<ele>1557.20</ele>
	<time>2024-07-25T07:39:01.000Z</time>
</trkpt>
<trkpt lat="46.0966380" lon="10.4418730">
	<ele>1557.20</ele>
	<time>2024-07-25T07:39:02.000Z</time>
</trkpt>
<trkpt lat="46.0966270" lon="10.4418810">
	<ele>1557.40</ele>
	<time>2024-07-25T07:39:03.000Z</time>
</trkpt>
<trkpt lat="46.0966120" lon="10.4418870">
	<ele>1557.40</ele>
	<time>2024-07-25T07:39:04.000Z</time>
</trkpt>
<trkpt lat="46.0966050" lon="10.4418860">
	<ele>1557.80</ele>
	<time>2024-07-25T07:39:05.000Z</time>
</trkpt>
<trkpt lat="46.0966040" lon="10.4418900">
	<ele>1557.80</ele>
	<time>2024-07-25T07:39:06.000Z</time>
</trkpt>
<trkpt lat="46.0966010" lon="10.4418940">
	<ele>1558.00</ele>
	<time>2024-07-25T07:39:07.000Z</time>
</trkpt>
<trkpt lat="46.0966030" lon="10.4419050">
	<ele>1558.00</ele>
	<time>2024-07-25T07:39:08.000Z</time>
</trkpt>
<trkpt lat="46.0965900" lon="10.4419150">
	<ele>1558.00</ele>
	<time>2024-07-25T07:39:09.000Z</time>
</trkpt>
<trkpt lat="46.0965830" lon="10.4419200">
	<ele>1558.20</ele>
	<time>2024-07-25T07:39:10.000Z</time>
</trkpt>
<trkpt lat="46.0965770" lon="10.4419210">
	<ele>1558.40</ele>
	<time>2024-07-25T07:39:11.000Z</time>
</trkpt>
<trkpt lat="46.0965780" lon="10.4419240">
	<ele>1558.40</ele>
	<time>2024-07-25T07:39:12.000Z</time>
</trkpt>
<trkpt lat="46.0965710" lon="10.4419290">
	<ele>1558.60</ele>
	<time>2024-07-25T07:39:13.000Z</time>
</trkpt>
<trkpt lat="46.0965640" lon="10.4419320">
	<ele>1558.80</ele>
	<time>2024-07-25T07:39:14.000Z</time>
</trkpt>
<trkpt lat="46.0965620" lon="10.4419340">
	<ele>1559.00</ele>
	<time>2024-07-25T07:39:15.000Z</time>
</trkpt>
<trkpt lat="46.0965590" lon="10.4419380">
	<ele>1559.20</ele>
	<time>2024-07-25T07:39:16.000Z</time>
</trkpt>
<trkpt lat="46.0965520" lon="10.4419450">
	<ele>1559.20</ele>
	<time>2024-07-25T07:39:17.000Z</time>
</trkpt>
<trkpt lat="46.0965440" lon="10.4419440">
	<ele>1559.40</ele>
	<time>2024-07-25T07:39:18.000Z</time>
</trkpt>
<trkpt lat="46.0965350" lon="10.4419450">
	<ele>1559.60</ele>
	<time>2024-07-25T07:39:19.000Z</time>
</trkpt>
<trkpt lat="46.0965300" lon="10.4419510">
	<ele>1559.60</ele>
	<time>2024-07-25T07:39:20.000Z</time>
</trkpt>
<trkpt lat="46.0965270" lon="10.4419550">
	<ele>1559.80</ele>
	<time>2024-07-25T07:39:21.000Z</time>
</trkpt>
<trkpt lat="46.0965200" lon="10.4419670">
	<ele>1560.00</ele>
	<time>2024-07-25T07:39:22.000Z</time>
</trkpt>
<trkpt lat="46.0965030" lon="10.4419760">
	<ele>1560.00</ele>
	<time>2024-07-25T07:39:23.000Z</time>
</trkpt>
<trkpt lat="46.0964930" lon="10.4419810">
	<ele>1560.40</ele>
	<time>2024-07-25T07:39:24.000Z</time>
</trkpt>
<trkpt lat="46.0964850" lon="10.4419810">
	<ele>1560.80</ele>
	<time>2024-07-25T07:39:25.000Z</time>
</trkpt>
<trkpt lat="46.0964750" lon="10.4419800">
	<ele>1560.80</ele>
	<time>2024-07-25T07:39:26.000Z</time>
</trkpt>
<trkpt lat="46.0964620" lon="10.4419810">
	<ele>1561.00</ele>
	<time>2024-07-25T07:39:27.000Z</time>
</trkpt>
<trkpt lat="46.0964470" lon="10.4419790">
	<ele>1561.20</ele>
	<time>2024-07-25T07:39:28.000Z</time>
</trkpt>
<trkpt lat="46.0964400" lon="10.4419800">
	<ele>1561.20</ele>
	<time>2024-07-25T07:39:29.000Z</time>
</trkpt>
<trkpt lat="46.0964320" lon="10.4419850">
	<ele>1561.40</ele>
	<time>2024-07-25T07:39:30.000Z</time>
</trkpt>
<trkpt lat="46.0964240" lon="10.4419960">
	<ele>1561.60</ele>
	<time>2024-07-25T07:39:31.000Z</time>
</trkpt>
<trkpt lat="46.0964150" lon="10.4420140">
	<ele>1561.60</ele>
	<time>2024-07-25T07:39:32.000Z</time>
</trkpt>
<trkpt lat="46.0964120" lon="10.4420290">
	<ele>1562.00</ele>
	<time>2024-07-25T07:39:33.000Z</time>
</trkpt>
<trkpt lat="46.0964140" lon="10.4420460">
	<ele>1562.20</ele>
	<time>2024-07-25T07:39:34.000Z</time>
</trkpt>
<trkpt lat="46.0964160" lon="10.4420490">
	<ele>1562.20</ele>
	<time>2024-07-25T07:39:35.000Z</time>
</trkpt>
<trkpt lat="46.0964250" lon="10.4420520">
	<ele>1562.40</ele>
	<time>2024-07-25T07:39:36.000Z</time>
</trkpt>
<trkpt lat="46.0964340" lon="10.4420600">
	<ele>1562.40</ele>
	<time>2024-07-25T07:39:37.000Z</time>
</trkpt>
<trkpt lat="46.0964460" lon="10.4420680">
	<ele>1562.60</ele>
	<time>2024-07-25T07:39:38.000Z</time>
</trkpt>
<trkpt lat="46.0964580" lon="10.4420770">
	<ele>1563.00</ele>
	<time>2024-07-25T07:39:39.000Z</time>
</trkpt>
<trkpt lat="46.0964650" lon="10.4420860">
	<ele>1563.00</ele>
	<time>2024-07-25T07:39:40.000Z</time>
</trkpt>
<trkpt lat="46.0964720" lon="10.4420980">
	<ele>1563.20</ele>
	<time>2024-07-25T07:39:41.000Z</time>
</trkpt>
<trkpt lat="46.0964790" lon="10.4421150">
	<ele>1563.40</ele>
	<time>2024-07-25T07:39:42.000Z</time>
</trkpt>
<trkpt lat="46.0964860" lon="10.4421240">
	<ele>1563.40</ele>
	<time>2024-07-25T07:39:43.000Z</time>
</trkpt>
<trkpt lat="46.0964940" lon="10.4421280">
	<ele>1563.60</ele>
	<time>2024-07-25T07:39:44.000Z</time>
</trkpt>
<trkpt lat="46.0965010" lon="10.4421340">
	<ele>1563.60</ele>
	<time>2024-07-25T07:39:45.000Z</time>
</trkpt>
<trkpt lat="46.0965100" lon="10.4421450">
	<ele>1563.80</ele>
	<time>2024-07-25T07:39:46.000Z</time>
</trkpt>
<trkpt lat="46.0965130" lon="10.4421550">
	<ele>1563.80</ele>
	<time>2024-07-25T07:39:47.000Z</time>
</trkpt>
<trkpt lat="46.0965150" lon="10.4421610">
	<ele>1564.00</ele>
	<time>2024-07-25T07:39:48.000Z</time>
</trkpt>
<trkpt lat="46.0965180" lon="10.4421810">
	<ele>1564.00</ele>
	<time>2024-07-25T07:39:49.000Z</time>
</trkpt>
<trkpt lat="46.0965260" lon="10.4421890">
	<ele>1564.20</ele>
	<time>2024-07-25T07:39:50.000Z</time>
</trkpt>
<trkpt lat="46.0965360" lon="10.4422070">
	<ele>1564.40</ele>
	<time>2024-07-25T07:39:51.000Z</time>
</trkpt>
<trkpt lat="46.0965410" lon="10.4422230">
	<ele>1564.60</ele>
	<time>2024-07-25T07:39:52.000Z</time>
</trkpt>
<trkpt lat="46.0965450" lon="10.4422340">
	<ele>1564.80</ele>
	<time>2024-07-25T07:39:53.000Z</time>
</trkpt>
<trkpt lat="46.0965540" lon="10.4422380">
	<ele>1564.80</ele>
	<time>2024-07-25T07:39:54.000Z</time>
</trkpt>
<trkpt lat="46.0965630" lon="10.4422490">
	<ele>1565.00</ele>
	<time>2024-07-25T07:39:55.000Z</time>
</trkpt>
<trkpt lat="46.0965700" lon="10.4422560">
	<ele>1565.20</ele>
	<time>2024-07-25T07:39:56.000Z</time>
</trkpt>
<trkpt lat="46.0965750" lon="10.4422580">
	<ele>1565.20</ele>
	<time>2024-07-25T07:39:57.000Z</time>
</trkpt>
<trkpt lat="46.0965800" lon="10.4422600">
	<ele>1565.60</ele>
	<time>2024-07-25T07:39:58.000Z</time>
</trkpt>
<trkpt lat="46.0965860" lon="10.4422600">
	<ele>1565.80</ele>
	<time>2024-07-25T07:39:59.000Z</time>
</trkpt>
<trkpt lat="46.0965900" lon="10.4422590">
	<ele>1566.00</ele>
	<time>2024-07-25T07:40:00.000Z</time>
</trkpt>
<trkpt lat="46.0965960" lon="10.4422550">
	<ele>1566.20</ele>
	<time>2024-07-25T07:40:01.000Z</time>
</trkpt>
<trkpt lat="46.0966030" lon="10.4422520">
	<ele>1566.20</ele>
	<time>2024-07-25T07:40:02.000Z</time>
</trkpt>
<trkpt lat="46.0966120" lon="10.4422550">
	<ele>1566.40</ele>
	<time>2024-07-25T07:40:03.000Z</time>
</trkpt>
<trkpt lat="46.0966210" lon="10.4422590">
	<ele>1566.60</ele>
	<time>2024-07-25T07:40:04.000Z</time>
</trkpt>
<trkpt lat="46.0966300" lon="10.4422600">
	<ele>1566.80</ele>
	<time>2024-07-25T07:40:05.000Z</time>
</trkpt>
<trkpt lat="46.0966340" lon="10.4422740">
	<ele>1566.80</ele>
	<time>2024-07-25T07:40:06.000Z</time>
</trkpt>
<trkpt lat="46.0966360" lon="10.4422870">
	<ele>1567.00</ele>
	<time>2024-07-25T07:40:07.000Z</time>
</trkpt>
<trkpt lat="46.0966370" lon="10.4423000">
	<ele>1567.20</ele>
	<time>2024-07-25T07:40:08.000Z</time>
</trkpt>
<trkpt lat="46.0966390" lon="10.4423130">
	<ele>1567.40</ele>
	<time>2024-07-25T07:40:09.000Z</time>
</trkpt>
<trkpt lat="46.0966440" lon="10.4423220">
	<ele>1567.40</ele>
	<time>2024-07-25T07:40:10.000Z</time>
</trkpt>
<trkpt lat="46.0966500" lon="10.4423260">
	<ele>1567.60</ele>
	<time>2024-07-25T07:40:11.000Z</time>
</trkpt>
<trkpt lat="46.0966560" lon="10.4423250">
	<ele>1567.80</ele>
	<time>2024-07-25T07:40:12.000Z</time>
</trkpt>
<trkpt lat="46.0966630" lon="10.4423260">
	<ele>1568.00</ele>
	<time>2024-07-25T07:40:13.000Z</time>
</trkpt>
<trkpt lat="46.0966670" lon="10.4423270">
	<ele>1568.20</ele>
	<time>2024-07-25T07:40:14.000Z</time>
</trkpt>
<trkpt lat="46.0966760" lon="10.4423310">
	<ele>1568.20</ele>
	<time>2024-07-25T07:40:15.000Z</time>
</trkpt>
<trkpt lat="46.0966880" lon="10.4423300">
	<ele>1568.40</ele>
	<time>2024-07-25T07:40:16.000Z</time>
</trkpt>
<trkpt lat="46.0967020" lon="10.4423230">
	<ele>1568.60</ele>
	<time>2024-07-25T07:40:17.000Z</time>
</trkpt>
<trkpt lat="46.0967130" lon="10.4423290">
	<ele>1568.80</ele>
	<time>2024-07-25T07:40:18.000Z</time>
</trkpt>
<trkpt lat="46.0967280" lon="10.4423270">
	<ele>1569.00</ele>
	<time>2024-07-25T07:40:19.000Z</time>
</trkpt>
<trkpt lat="46.0967410" lon="10.4423220">
	<ele>1569.00</ele>
	<time>2024-07-25T07:40:20.000Z</time>
</trkpt>
<trkpt lat="46.0967530" lon="10.4423130">
	<ele>1569.20</ele>
	<time>2024-07-25T07:40:21.000Z</time>
</trkpt>
<trkpt lat="46.0967660" lon="10.4423060">
	<ele>1569.40</ele>
	<time>2024-07-25T07:40:22.000Z</time>
</trkpt>
<trkpt lat="46.0967740" lon="10.4423010">
	<ele>1569.60</ele>
	<time>2024-07-25T07:40:23.000Z</time>
</trkpt>
<trkpt lat="46.0967810" lon="10.4422930">
	<ele>1569.80</ele>
	<time>2024-07-25T07:40:24.000Z</time>
</trkpt>
<trkpt lat="46.0967890" lon="10.4422950">
	<ele>1570.00</ele>
	<time>2024-07-25T07:40:25.000Z</time>
</trkpt>
<trkpt lat="46.0967990" lon="10.4422900">
	<ele>1570.20</ele>
	<time>2024-07-25T07:40:26.000Z</time>
</trkpt>
<trkpt lat="46.0968050" lon="10.4422780">
	<ele>1570.20</ele>
	<time>2024-07-25T07:40:27.000Z</time>
</trkpt>
<trkpt lat="46.0968090" lon="10.4422770">
	<ele>1570.40</ele>
	<time>2024-07-25T07:40:28.000Z</time>
</trkpt>
<trkpt lat="46.0968090" lon="10.4422770">
	<ele>1570.60</ele>
	<time>2024-07-25T07:40:29.000Z</time>
</trkpt>
<trkpt lat="46.0968120" lon="10.4422770">
	<ele>1570.80</ele>
	<time>2024-07-25T07:40:30.000Z</time>
</trkpt>
<trkpt lat="46.0968180" lon="10.4422760">
	<ele>1571.00</ele>
	<time>2024-07-25T07:40:31.000Z</time>
</trkpt>
<trkpt lat="46.0968230" lon="10.4422760">
	<ele>1571.20</ele>
	<time>2024-07-25T07:40:32.000Z</time>
</trkpt>
<trkpt lat="46.0968270" lon="10.4422870">
	<ele>1571.20</ele>
	<time>2024-07-25T07:40:33.000Z</time>
</trkpt>
<trkpt lat="46.0968320" lon="10.4422960">
	<ele>1571.40</ele>
	<time>2024-07-25T07:40:34.000Z</time>
</trkpt>
<trkpt lat="46.0968450" lon="10.4423010">
	<ele>1571.40</ele>
	<time>2024-07-25T07:40:35.000Z</time>
</trkpt>
<trkpt lat="46.0968480" lon="10.4422990">
	<ele>1571.60</ele>
	<time>2024-07-25T07:40:36.000Z</time>
</trkpt>
<trkpt lat="46.0968550" lon="10.4422920">
	<ele>1572.00</ele>
	<time>2024-07-25T07:40:37.000Z</time>
</trkpt>
<trkpt lat="46.0968610" lon="10.4422830">
	<ele>1572.20</ele>
	<time>2024-07-25T07:40:38.000Z</time>
</trkpt>
<trkpt lat="46.0968670" lon="10.4422740">
	<ele>1572.40</ele>
	<time>2024-07-25T07:40:39.000Z</time>
</trkpt>
<trkpt lat="46.0968760" lon="10.4422640">
	<ele>1572.40</ele>
	<time>2024-07-25T07:40:40.000Z</time>
</trkpt>
<trkpt lat="46.0968910" lon="10.4422650">
	<ele>1572.60</ele>
	<time>2024-07-25T07:40:41.000Z</time>
</trkpt>
<trkpt lat="46.0969030" lon="10.4422670">
	<ele>1572.60</ele>
	<time>2024-07-25T07:40:42.000Z</time>
</trkpt>
<trkpt lat="46.0969210" lon="10.4422840">
	<ele>1572.80</ele>
	<time>2024-07-25T07:40:43.000Z</time>
</trkpt>
<trkpt lat="46.0969460" lon="10.4423030">
	<ele>1573.00</ele>
	<time>2024-07-25T07:40:44.000Z</time>
</trkpt>
<trkpt lat="46.0969480" lon="10.4423110">
	<ele>1573.20</ele>
	<time>2024-07-25T07:40:45.000Z</time>
</trkpt>
<trkpt lat="46.0969450" lon="10.4423110">
	<ele>1573.40</ele>
	<time>2024-07-25T07:40:46.000Z</time>
</trkpt>
<trkpt lat="46.0969470" lon="10.4423120">
	<ele>1573.60</ele>
	<time>2024-07-25T07:40:47.000Z</time>
</trkpt>
<trkpt lat="46.0969440" lon="10.4423020">
	<ele>1573.60</ele>
	<time>2024-07-25T07:40:48.000Z</time>
</trkpt>
<trkpt lat="46.0969440" lon="10.4422920">
	<ele>1573.80</ele>
	<time>2024-07-25T07:40:49.000Z</time>
</trkpt>
<trkpt lat="46.0969420" lon="10.4422870">
	<ele>1573.80</ele>
	<time>2024-07-25T07:40:50.000Z</time>
</trkpt>
<trkpt lat="46.0969410" lon="10.4422800">
	<ele>1573.80</ele>
	<time>2024-07-25T07:40:51.000Z</time>
</trkpt>
<trkpt lat="46.0969380" lon="10.4422750">
	<ele>1574.00</ele>
	<time>2024-07-25T07:40:52.000Z</time>
</trkpt>
<trkpt lat="46.0969370" lon="10.4422760">
	<ele>1574.00</ele>
	<time>2024-07-25T07:40:53.000Z</time>
</trkpt>
<trkpt lat="46.0969390" lon="10.4422830">
	<ele>1574.00</ele>
	<time>2024-07-25T07:40:54.000Z</time>
</trkpt>
<trkpt lat="46.0969370" lon="10.4422800">
	<ele>1574.00</ele>
	<time>2024-07-25T07:40:55.000Z</time>
</trkpt>
<trkpt lat="46.0969380" lon="10.4422850">
	<ele>1574.00</ele>
	<time>2024-07-25T07:40:56.000Z</time>
</trkpt>
<trkpt lat="46.0969460" lon="10.4422820">
	<ele>1574.00</ele>
	<time>2024-07-25T07:40:57.000Z</time>
</trkpt>
<trkpt lat="46.0969490" lon="10.4422780">
	<ele>1574.00</ele>
	<time>2024-07-25T07:40:58.000Z</time>
</trkpt>
<trkpt lat="46.0969450" lon="10.4422740">
	<ele>1574.00</ele>
	<time>2024-07-25T07:40:59.000Z</time>
</trkpt>
<trkpt lat="46.0969410" lon="10.4422700">
	<ele>1573.80</ele>
	<time>2024-07-25T07:41:00.000Z</time>
</trkpt>
<trkpt lat="46.0969420" lon="10.4422580">
	<ele>1573.80</ele>
	<time>2024-07-25T07:41:01.000Z</time>
</trkpt>
<trkpt lat="46.0969420" lon="10.4422490">
	<ele>1574.00</ele>
	<time>2024-07-25T07:41:02.000Z</time>
</trkpt>
<trkpt lat="46.0969450" lon="10.4422450">
	<ele>1574.20</ele>
	<time>2024-07-25T07:41:03.000Z</time>
</trkpt>
<trkpt lat="46.0969550" lon="10.4422430">
	<ele>1574.40</ele>
	<time>2024-07-25T07:41:04.000Z</time>
</trkpt>
<trkpt lat="46.0969630" lon="10.4422390">
	<ele>1574.60</ele>
	<time>2024-07-25T07:41:05.000Z</time>
</trkpt>
<trkpt lat="46.0969640" lon="10.4422340">
	<ele>1574.80</ele>
	<time>2024-07-25T07:41:06.000Z</time>
</trkpt>
<trkpt lat="46.0969710" lon="10.4422250">
	<ele>1575.00</ele>
	<time>2024-07-25T07:41:07.000Z</time>
</trkpt>
<trkpt lat="46.0969790" lon="10.4422180">
	<ele>1575.20</ele>
	<time>2024-07-25T07:41:08.000Z</time>
</trkpt>
<trkpt lat="46.0969900" lon="10.4422140">
	<ele>1575.40</ele>
	<time>2024-07-25T07:41:09.000Z</time>
</trkpt>
<trkpt lat="46.0970010" lon="10.4422120">
	<ele>1575.60</ele>
	<time>2024-07-25T07:41:10.000Z</time>
</trkpt>
<trkpt lat="46.0970110" lon="10.4422100">
	<ele>1575.80</ele>
	<time>2024-07-25T07:41:11.000Z</time>
</trkpt>
<trkpt lat="46.0970200" lon="10.4422200">
	<ele>1576.00</ele>
	<time>2024-07-25T07:41:12.000Z</time>
</trkpt>
<trkpt lat="46.0970280" lon="10.4422240">
	<ele>1576.20</ele>
	<time>2024-07-25T07:41:13.000Z</time>
</trkpt>
<trkpt lat="46.0970410" lon="10.4422230">
	<ele>1576.20</ele>
	<time>2024-07-25T07:41:14.000Z</time>
</trkpt>
<trkpt lat="46.0970550" lon="10.4422220">
	<ele>1576.40</ele>
	<time>2024-07-25T07:41:15.000Z</time>
</trkpt>
<trkpt lat="46.0970680" lon="10.4422220">
	<ele>1576.40</ele>
	<time>2024-07-25T07:41:16.000Z</time>
</trkpt>
<trkpt lat="46.0970730" lon="10.4422190">
	<ele>1576.80</ele>
	<time>2024-07-25T07:41:17.000Z</time>
</trkpt>
<trkpt lat="46.0970730" lon="10.4422190">
	<ele>1577.20</ele>
	<time>2024-07-25T07:41:18.000Z</time>
</trkpt>
<trkpt lat="46.0970830" lon="10.4422170">
	<ele>1577.40</ele>
	<time>2024-07-25T07:41:19.000Z</time>
</trkpt>
<trkpt lat="46.0970860" lon="10.4422140">
	<ele>1577.60</ele>
	<time>2024-07-25T07:41:20.000Z</time>
</trkpt>
<trkpt lat="46.0970960" lon="10.4422210">
	<ele>1577.80</ele>
	<time>2024-07-25T07:41:21.000Z</time>
</trkpt>
<trkpt lat="46.0971040" lon="10.4422330">
	<ele>1578.00</ele>
	<time>2024-07-25T07:41:22.000Z</time>
</trkpt>
<trkpt lat="46.0971150" lon="10.4422480">
	<ele>1578.00</ele>
	<time>2024-07-25T07:41:23.000Z</time>
</trkpt>
<trkpt lat="46.0971260" lon="10.4422510">
	<ele>1578.20</ele>
	<time>2024-07-25T07:41:24.000Z</time>
</trkpt>
<trkpt lat="46.0971350" lon="10.4422490">
	<ele>1578.40</ele>
	<time>2024-07-25T07:41:25.000Z</time>
</trkpt>
<trkpt lat="46.0971430" lon="10.4422490">
	<ele>1578.60</ele>
	<time>2024-07-25T07:41:26.000Z</time>
</trkpt>
<trkpt lat="46.0971510" lon="10.4422470">
	<ele>1578.60</ele>
	<time>2024-07-25T07:41:27.000Z</time>
</trkpt>
<trkpt lat="46.0971580" lon="10.4422390">
	<ele>1578.80</ele>
	<time>2024-07-25T07:41:28.000Z</time>
</trkpt>
<trkpt lat="46.0971660" lon="10.4422250">
	<ele>1579.00</ele>
	<time>2024-07-25T07:41:29.000Z</time>
</trkpt>
<trkpt lat="46.0971750" lon="10.4422140">
	<ele>1579.20</ele>
	<time>2024-07-25T07:41:30.000Z</time>
</trkpt>
<trkpt lat="46.0971850" lon="10.4422050">
	<ele>1579.60</ele>
	<time>2024-07-25T07:41:31.000Z</time>
</trkpt>
<trkpt lat="46.0971940" lon="10.4421940">
	<ele>1580.00</ele>
	<time>2024-07-25T07:41:32.000Z</time>
</trkpt>
<trkpt lat="46.0972020" lon="10.4421860">
	<ele>1580.00</ele>
	<time>2024-07-25T07:41:33.000Z</time>
</trkpt>
<trkpt lat="46.0972090" lon="10.4421880">
	<ele>1580.20</ele>
	<time>2024-07-25T07:41:34.000Z</time>
</trkpt>
<trkpt lat="46.0972150" lon="10.4421910">
	<ele>1580.40</ele>
	<time>2024-07-25T07:41:35.000Z</time>
</trkpt>
<trkpt lat="46.0972220" lon="10.4421940">
	<ele>1580.60</ele>
	<time>2024-07-25T07:41:36.000Z</time>
</trkpt>
<trkpt lat="46.0972280" lon="10.4421900">
	<ele>1581.00</ele>
	<time>2024-07-25T07:41:37.000Z</time>
</trkpt>
<trkpt lat="46.0972380" lon="10.4421860">
	<ele>1581.40</ele>
	<time>2024-07-25T07:41:38.000Z</time>
</trkpt>
<trkpt lat="46.0972450" lon="10.4421870">
	<ele>1581.60</ele>
	<time>2024-07-25T07:41:39.000Z</time>
</trkpt>
<trkpt lat="46.0972500" lon="10.4421880">
	<ele>1581.60</ele>
	<time>2024-07-25T07:41:40.000Z</time>
</trkpt>
<trkpt lat="46.0972560" lon="10.4421900">
	<ele>1581.80</ele>
	<time>2024-07-25T07:41:41.000Z</time>
</trkpt>
<trkpt lat="46.0972600" lon="10.4421900">
	<ele>1582.00</ele>
	<time>2024-07-25T07:41:42.000Z</time>
</trkpt>
<trkpt lat="46.0972740" lon="10.4421870">
	<ele>1582.20</ele>
	<time>2024-07-25T07:41:43.000Z</time>
</trkpt>
<trkpt lat="46.0972860" lon="10.4421860">
	<ele>1582.40</ele>
	<time>2024-07-25T07:41:44.000Z</time>
</trkpt>
<trkpt lat="46.0972970" lon="10.4421860">
	<ele>1582.40</ele>
	<time>2024-07-25T07:41:45.000Z</time>
</trkpt>
<trkpt lat="46.0973080" lon="10.4421820">
	<ele>1582.60</ele>
	<time>2024-07-25T07:41:46.000Z</time>
</trkpt>
<trkpt lat="46.0973210" lon="10.4421830">
	<ele>1582.80</ele>
	<time>2024-07-25T07:41:47.000Z</time>
</trkpt>
<trkpt lat="46.0973370" lon="10.4421890">
	<ele>1582.80</ele>
	<time>2024-07-25T07:41:48.000Z</time>
</trkpt>
<trkpt lat="46.0973530" lon="10.4421960">
	<ele>1583.00</ele>
	<time>2024-07-25T07:41:49.000Z</time>
</trkpt>
<trkpt lat="46.0973660" lon="10.4422000">
	<ele>1583.40</ele>
	<time>2024-07-25T07:41:50.000Z</time>
</trkpt>
<trkpt lat="46.0973730" lon="10.4421930">
	<ele>1583.60</ele>
	<time>2024-07-25T07:41:51.000Z</time>
</trkpt>
<trkpt lat="46.0973770" lon="10.4421900">
	<ele>1584.00</ele>
	<time>2024-07-25T07:41:52.000Z</time>
</trkpt>
<trkpt lat="46.0973850" lon="10.4421840">
	<ele>1584.20</ele>
	<time>2024-07-25T07:41:53.000Z</time>
</trkpt>
<trkpt lat="46.0973950" lon="10.4421870">
	<ele>1584.40</ele>
	<time>2024-07-25T07:41:54.000Z</time>
</trkpt>
<trkpt lat="46.0974060" lon="10.4421830">
	<ele>1584.60</ele>
	<time>2024-07-25T07:41:55.000Z</time>
</trkpt>
<trkpt lat="46.0974180" lon="10.4421900">
	<ele>1584.60</ele>
	<time>2024-07-25T07:41:56.000Z</time>
</trkpt>
<trkpt lat="46.0974260" lon="10.4421880">
	<ele>1584.80</ele>
	<time>2024-07-25T07:41:57.000Z</time>
</trkpt>
<trkpt lat="46.0974310" lon="10.4421800">
	<ele>1584.80</ele>
	<time>2024-07-25T07:41:58.000Z</time>
</trkpt>
<trkpt lat="46.0974350" lon="10.4421710">
	<ele>1585.00</ele>
	<time>2024-07-25T07:41:59.000Z</time>
</trkpt>
<trkpt lat="46.0974370" lon="10.4421630">
	<ele>1585.20</ele>
	<time>2024-07-25T07:42:00.000Z</time>
</trkpt>
<trkpt lat="46.0974400" lon="10.4421580">
	<ele>1585.20</ele>
	<time>2024-07-25T07:42:01.000Z</time>
</trkpt>
<trkpt lat="46.0974440" lon="10.4421520">
	<ele>1585.40</ele>
	<time>2024-07-25T07:42:02.000Z</time>
</trkpt>
<trkpt lat="46.0974510" lon="10.4421510">
	<ele>1585.80</ele>
	<time>2024-07-25T07:42:03.000Z</time>
</trkpt>
<trkpt lat="46.0974530" lon="10.4421510">
	<ele>1586.00</ele>
	<time>2024-07-25T07:42:04.000Z</time>
</trkpt>
<trkpt lat="46.0974550" lon="10.4421450">
	<ele>1586.00</ele>
	<time>2024-07-25T07:42:05.000Z</time>
</trkpt>
<trkpt lat="46.0974480" lon="10.4421350">
	<ele>1586.20</ele>
	<time>2024-07-25T07:42:06.000Z</time>
</trkpt>
<trkpt lat="46.0974520" lon="10.4421280">
	<ele>1586.40</ele>
	<time>2024-07-25T07:42:07.000Z</time>
</trkpt>
<trkpt lat="46.0974620" lon="10.4421210">
	<ele>1586.80</ele>
	<time>2024-07-25T07:42:08.000Z</time>
</trkpt>
<trkpt lat="46.0974730" lon="10.4421180">
	<ele>1587.20</ele>
	<time>2024-07-25T07:42:09.000Z</time>
</trkpt>
<trkpt lat="46.0974810" lon="10.4421170">
	<ele>1587.40</ele>
	<time>2024-07-25T07:42:10.000Z</time>
</trkpt>
<trkpt lat="46.0974850" lon="10.4421140">
	<ele>1587.40</ele>
	<time>2024-07-25T07:42:11.000Z</time>
</trkpt>
<trkpt lat="46.0974940" lon="10.4421140">
	<ele>1587.60</ele>
	<time>2024-07-25T07:42:12.000Z</time>
</trkpt>
<trkpt lat="46.0975010" lon="10.4421140">
	<ele>1587.80</ele>
	<time>2024-07-25T07:42:13.000Z</time>
</trkpt>
<trkpt lat="46.0975090" lon="10.4421110">
	<ele>1587.80</ele>
	<time>2024-07-25T07:42:14.000Z</time>
</trkpt>
<trkpt lat="46.0975120" lon="10.4421090">
	<ele>1588.00</ele>
	<time>2024-07-25T07:42:15.000Z</time>
</trkpt>
<trkpt lat="46.0975180" lon="10.4421080">
	<ele>1588.20</ele>
	<time>2024-07-25T07:42:16.000Z</time>
</trkpt>
<trkpt lat="46.0975260" lon="10.4421050">
	<ele>1588.20</ele>
	<time>2024-07-25T07:42:17.000Z</time>
</trkpt>
<trkpt lat="46.0975360" lon="10.4421040">
	<ele>1588.40</ele>
	<time>2024-07-25T07:42:18.000Z</time>
</trkpt>
<trkpt lat="46.0975460" lon="10.4421070">
	<ele>1588.60</ele>
	<time>2024-07-25T07:42:19.000Z</time>
</trkpt>
<trkpt lat="46.0975520" lon="10.4421070">
	<ele>1588.80</ele>
	<time>2024-07-25T07:42:20.000Z</time>
</trkpt>
<trkpt lat="46.0975570" lon="10.4421070">
	<ele>1589.00</ele>
	<time>2024-07-25T07:42:21.000Z</time>
</trkpt>
<trkpt lat="46.0975670" lon="10.4421190">
	<ele>1589.20</ele>
	<time>2024-07-25T07:42:22.000Z</time>
</trkpt>
<trkpt lat="46.0975840" lon="10.4421200">
	<ele>1589.40</ele>
	<time>2024-07-25T07:42:23.000Z</time>
</trkpt>
<trkpt lat="46.0975880" lon="10.4421220">
	<ele>1589.60</ele>
	<time>2024-07-25T07:42:24.000Z</time>
</trkpt>
<trkpt lat="46.0975960" lon="10.4421220">
	<ele>1589.80</ele>
	<time>2024-07-25T07:42:25.000Z</time>
</trkpt>
<trkpt lat="46.0975980" lon="10.4421240">
	<ele>1590.00</ele>
	<time>2024-07-25T07:42:26.000Z</time>
</trkpt>
<trkpt lat="46.0976000" lon="10.4421270">
	<ele>1590.20</ele>
	<time>2024-07-25T07:42:27.000Z</time>
</trkpt>
<trkpt lat="46.0976040" lon="10.4421180">
	<ele>1590.20</ele>
	<time>2024-07-25T07:42:28.000Z</time>
</trkpt>
<trkpt lat="46.0976100" lon="10.4421030">
	<ele>1590.20</ele>
	<time>2024-07-25T07:42:29.000Z</time>
</trkpt>
<trkpt lat="46.0976150" lon="10.4421010">
	<ele>1590.40</ele>
	<time>2024-07-25T07:42:30.000Z</time>
</trkpt>
<trkpt lat="46.0976460" lon="10.4421160">
	<ele>1590.40</ele>
	<time>2024-07-25T07:42:31.000Z</time>
</trkpt>
<trkpt lat="46.0976470" lon="10.4421150">
	<ele>1590.40</ele>
	<time>2024-07-25T07:42:32.000Z</time>
</trkpt>
<trkpt lat="46.0976570" lon="10.4421050">
	<ele>1590.40</ele>
	<time>2024-07-25T07:42:33.000Z</time>
</trkpt>
<trkpt lat="46.0976570" lon="10.4421040">
	<ele>1590.40</ele>
	<time>2024-07-25T07:42:34.000Z</time>
</trkpt>
<trkpt lat="46.0976570" lon="10.4421150">
	<ele>1590.40</ele>
	<time>2024-07-25T07:42:35.000Z</time>
</trkpt>
<trkpt lat="46.0976580" lon="10.4421210">
	<ele>1590.60</ele>
	<time>2024-07-25T07:42:36.000Z</time>
</trkpt>
<trkpt lat="46.0976630" lon="10.4421300">
	<ele>1590.60</ele>
	<time>2024-07-25T07:42:37.000Z</time>
</trkpt>
<trkpt lat="46.0976710" lon="10.4421350">
	<ele>1590.60</ele>
	<time>2024-07-25T07:42:38.000Z</time>
</trkpt>
<trkpt lat="46.0976770" lon="10.4421380">
	<ele>1590.80</ele>
	<time>2024-07-25T07:42:39.000Z</time>
</trkpt>
<trkpt lat="46.0976880" lon="10.4421500">
	<ele>1590.80</ele>
	<time>2024-07-25T07:42:40.000Z</time>
</trkpt>
<trkpt lat="46.0976960" lon="10.4421540">
	<ele>1590.80</ele>
	<time>2024-07-25T07:42:41.000Z</time>
</trkpt>
<trkpt lat="46.0977030" lon="10.4421560">
	<ele>1591.00</ele>
	<time>2024-07-25T07:42:42.000Z</time>
</trkpt>
<trkpt lat="46.0977080" lon="10.4421710">
	<ele>1591.20</ele>
	<time>2024-07-25T07:42:43.000Z</time>
</trkpt>
<trkpt lat="46.0977130" lon="10.4421750">
	<ele>1591.40</ele>
	<time>2024-07-25T07:42:44.000Z</time>
</trkpt>
<trkpt lat="46.0977210" lon="10.4421810">
	<ele>1591.60</ele>
	<time>2024-07-25T07:42:45.000Z</time>
</trkpt>
<trkpt lat="46.0977250" lon="10.4421780">
	<ele>1591.60</ele>
	<time>2024-07-25T07:42:46.000Z</time>
</trkpt>
<trkpt lat="46.0977250" lon="10.4421750">
	<ele>1591.80</ele>
	<time>2024-07-25T07:42:47.000Z</time>
</trkpt>
<trkpt lat="46.0977340" lon="10.4421750">
	<ele>1592.00</ele>
	<time>2024-07-25T07:42:48.000Z</time>
</trkpt>
<trkpt lat="46.0977370" lon="10.4421750">
	<ele>1592.00</ele>
	<time>2024-07-25T07:42:49.000Z</time>
</trkpt>
<trkpt lat="46.0977400" lon="10.4421710">
	<ele>1592.20</ele>
	<time>2024-07-25T07:42:50.000Z</time>
</trkpt>
<trkpt lat="46.0977430" lon="10.4421700">
	<ele>1592.40</ele>
	<time>2024-07-25T07:42:51.000Z</time>
</trkpt>
<trkpt lat="46.0977470" lon="10.4421670">
	<ele>1592.60</ele>
	<time>2024-07-25T07:42:52.000Z</time>
</trkpt>
<trkpt lat="46.0977500" lon="10.4421650">
	<ele>1592.80</ele>
	<time>2024-07-25T07:42:53.000Z</time>
</trkpt>
<trkpt lat="46.0977580" lon="10.4421630">
	<ele>1592.80</ele>
	<time>2024-07-25T07:42:54.000Z</time>
</trkpt>
<trkpt lat="46.0977730" lon="10.4421640">
	<ele>1593.00</ele>
	<time>2024-07-25T07:42:55.000Z</time>
</trkpt>
<trkpt lat="46.0977880" lon="10.4421670">
	<ele>1593.40</ele>
	<time>2024-07-25T07:42:56.000Z</time>
</trkpt>
<trkpt lat="46.0977980" lon="10.4421760">
	<ele>1593.60</ele>
	<time>2024-07-25T07:42:57.000Z</time>
</trkpt>
<trkpt lat="46.0978060" lon="10.4421840">
	<ele>1593.80</ele>
	<time>2024-07-25T07:42:58.000Z</time>
</trkpt>
<trkpt lat="46.0978190" lon="10.4422070">
	<ele>1593.80</ele>
	<time>2024-07-25T07:42:59.000Z</time>
</trkpt>
<trkpt lat="46.0978280" lon="10.4422170">
	<ele>1594.00</ele>
	<time>2024-07-25T07:43:00.000Z</time>
</trkpt>
<trkpt lat="46.0978370" lon="10.4422230">
	<ele>1594.20</ele>
	<time>2024-07-25T07:43:01.000Z</time>
</trkpt>
<trkpt lat="46.0978440" lon="10.4422270">
	<ele>1594.40</ele>
	<time>2024-07-25T07:43:02.000Z</time>
</trkpt>
<trkpt lat="46.0978520" lon="10.4422360">
	<ele>1594.40</ele>
	<time>2024-07-25T07:43:03.000Z</time>
</trkpt>
<trkpt lat="46.0978560" lon="10.4422440">
	<ele>1594.60</ele>
	<time>2024-07-25T07:43:04.000Z</time>
</trkpt>
<trkpt lat="46.0978600" lon="10.4422470">
	<ele>1594.80</ele>
	<time>2024-07-25T07:43:05.000Z</time>
</trkpt>
<trkpt lat="46.0978590" lon="10.4422580">
	<ele>1595.00</ele>
	<time>2024-07-25T07:43:06.000Z</time>
</trkpt>
<trkpt lat="46.0978610" lon="10.4422660">
	<ele>1595.20</ele>
	<time>2024-07-25T07:43:07.000Z</time>
</trkpt>
<trkpt lat="46.0978650" lon="10.4422660">
	<ele>1595.40</ele>
	<time>2024-07-25T07:43:08.000Z</time>
</trkpt>
<trkpt lat="46.0978630" lon="10.4422560">
	<ele>1595.40</ele>
	<time>2024-07-25T07:43:09.000Z</time>
</trkpt>
<trkpt lat="46.0978710" lon="10.4422620">
	<ele>1595.60</ele>
	<time>2024-07-25T07:43:10.000Z</time>
</trkpt>
<trkpt lat="46.0978730" lon="10.4422660">
	<ele>1595.80</ele>
	<time>2024-07-25T07:43:11.000Z</time>
</trkpt>
<trkpt lat="46.0978800" lon="10.4422830">
	<ele>1596.00</ele>
	<time>2024-07-25T07:43:12.000Z</time>
</trkpt>
<trkpt lat="46.0978890" lon="10.4422990">
	<ele>1596.20</ele>
	<time>2024-07-25T07:43:13.000Z</time>
</trkpt>
<trkpt lat="46.0979010" lon="10.4423040">
	<ele>1596.20</ele>
	<time>2024-07-25T07:43:14.000Z</time>
</trkpt>
<trkpt lat="46.0979150" lon="10.4423090">
	<ele>1596.40</ele>
	<time>2024-07-25T07:43:15.000Z</time>
</trkpt>
<trkpt lat="46.0979250" lon="10.4423130">
	<ele>1596.60</ele>
	<time>2024-07-25T07:43:16.000Z</time>
</trkpt>
<trkpt lat="46.0979320" lon="10.4423160">
	<ele>1596.60</ele>
	<time>2024-07-25T07:43:17.000Z</time>
</trkpt>
<trkpt lat="46.0979370" lon="10.4423160">
	<ele>1596.80</ele>
	<time>2024-07-25T07:43:18.000Z</time>
</trkpt>
<trkpt lat="46.0979450" lon="10.4423200">
	<ele>1596.80</ele>
	<time>2024-07-25T07:43:19.000Z</time>
</trkpt>
<trkpt lat="46.0979500" lon="10.4423230">
	<ele>1597.20</ele>
	<time>2024-07-25T07:43:20.000Z</time>
</trkpt>
<trkpt lat="46.0979550" lon="10.4423330">
	<ele>1597.40</ele>
	<time>2024-07-25T07:43:21.000Z</time>
</trkpt>
<trkpt lat="46.0979640" lon="10.4423500">
	<ele>1597.60</ele>
	<time>2024-07-25T07:43:22.000Z</time>
</trkpt>
<trkpt lat="46.0979770" lon="10.4423700">
	<ele>1597.60</ele>
	<time>2024-07-25T07:43:23.000Z</time>
</trkpt>
<trkpt lat="46.0979960" lon="10.4423770">
	<ele>1597.80</ele>
	<time>2024-07-25T07:43:24.000Z</time>
</trkpt>
<trkpt lat="46.0980030" lon="10.4423790">
	<ele>1597.80</ele>
	<time>2024-07-25T07:43:25.000Z</time>
</trkpt>
<trkpt lat="46.0980100" lon="10.4423870">
	<ele>1598.00</ele>
	<time>2024-07-25T07:43:26.000Z</time>
</trkpt>
<trkpt lat="46.0980200" lon="10.4423990">
	<ele>1598.20</ele>
	<time>2024-07-25T07:43:27.000Z</time>
</trkpt>
<trkpt lat="46.0980390" lon="10.4424250">
	<ele>1598.40</ele>
	<time>2024-07-25T07:43:28.000Z</time>
</trkpt>
<trkpt lat="46.0980540" lon="10.4424430">
	<ele>1598.40</ele>
	<time>2024-07-25T07:43:29.000Z</time>
</trkpt>
<trkpt lat="46.0980620" lon="10.4424540">
	<ele>1598.60</ele>
	<time>2024-07-25T07:43:30.000Z</time>
</trkpt>
<trkpt lat="46.0980690" lon="10.4424680">
	<ele>1598.80</ele>
	<time>2024-07-25T07:43:31.000Z</time>
</trkpt>
<trkpt lat="46.0980780" lon="10.4424770">
	<ele>1599.00</ele>
	<time>2024-07-25T07:43:32.000Z</time>
</trkpt>
<trkpt lat="46.0980860" lon="10.4424810">
	<ele>1599.00</ele>
	<time>2024-07-25T07:43:33.000Z</time>
</trkpt>
<trkpt lat="46.0980980" lon="10.4424850">
	<ele>1599.20</ele>
	<time>2024-07-25T07:43:34.000Z</time>
</trkpt>
<trkpt lat="46.0981090" lon="10.4424880">
	<ele>1599.20</ele>
	<time>2024-07-25T07:43:35.000Z</time>
</trkpt>
<trkpt lat="46.0981200" lon="10.4424960">
	<ele>1599.20</ele>
	<time>2024-07-25T07:43:36.000Z</time>
</trkpt>
<trkpt lat="46.0981440" lon="10.4424930">
	<ele>1599.40</ele>
	<time>2024-07-25T07:43:37.000Z</time>
</trkpt>
<trkpt lat="46.0981440" lon="10.4425090">
	<ele>1599.60</ele>
	<time>2024-07-25T07:43:38.000Z</time>
</trkpt>
<trkpt lat="46.0981500" lon="10.4425170">
	<ele>1599.60</ele>
	<time>2024-07-25T07:43:39.000Z</time>
</trkpt>
<trkpt lat="46.0981500" lon="10.4425240">
	<ele>1599.80</ele>
	<time>2024-07-25T07:43:40.000Z</time>
</trkpt>
<trkpt lat="46.0981520" lon="10.4425480">
	<ele>1599.80</ele>
	<time>2024-07-25T07:43:41.000Z</time>
</trkpt>
<trkpt lat="46.0981580" lon="10.4425680">
	<ele>1599.80</ele>
	<time>2024-07-25T07:43:42.000Z</time>
</trkpt>
<trkpt lat="46.0981680" lon="10.4425760">
	<ele>1600.00</ele>
	<time>2024-07-25T07:43:43.000Z</time>
</trkpt>
<trkpt lat="46.0981890" lon="10.4425770">
	<ele>1600.00</ele>
	<time>2024-07-25T07:43:44.000Z</time>
</trkpt>
<trkpt lat="46.0981930" lon="10.4425940">
	<ele>1600.20</ele>
	<time>2024-07-25T07:43:45.000Z</time>
</trkpt>
<trkpt lat="46.0981940" lon="10.4425970">
	<ele>1600.20</ele>
	<time>2024-07-25T07:43:46.000Z</time>
</trkpt>
<trkpt lat="46.0982010" lon="10.4426010">
	<ele>1600.20</ele>
	<time>2024-07-25T07:43:47.000Z</time>
</trkpt>
<trkpt lat="46.0982060" lon="10.4426020">
	<ele>1600.40</ele>
	<time>2024-07-25T07:43:48.000Z</time>
</trkpt>
<trkpt lat="46.0982170" lon="10.4426090">
	<ele>1600.40</ele>
	<time>2024-07-25T07:43:49.000Z</time>
</trkpt>
<trkpt lat="46.0982230" lon="10.4426170">
	<ele>1600.40</ele>
	<time>2024-07-25T07:43:50.000Z</time>
</trkpt>
<trkpt lat="46.0982330" lon="10.4426370">
	<ele>1600.60</ele>
	<time>2024-07-25T07:43:51.000Z</time>
</trkpt>
<trkpt lat="46.0982440" lon="10.4426530">
	<ele>1600.60</ele>
	<time>2024-07-25T07:43:52.000Z</time>
</trkpt>
<trkpt lat="46.0982550" lon="10.4426660">
	<ele>1600.80</ele>
	<time>2024-07-25T07:43:53.000Z</time>
</trkpt>
<trkpt lat="46.0982630" lon="10.4426840">
	<ele>1600.80</ele>
	<time>2024-07-25T07:43:54.000Z</time>
</trkpt>
<trkpt lat="46.0982680" lon="10.4426970">
	<ele>1601.00</ele>
	<time>2024-07-25T07:43:55.000Z</time>
</trkpt>
<trkpt lat="46.0982670" lon="10.4427140">
	<ele>1601.00</ele>
	<time>2024-07-25T07:43:56.000Z</time>
</trkpt>
<trkpt lat="46.0982690" lon="10.4427280">
	<ele>1601.00</ele>
	<time>2024-07-25T07:43:57.000Z</time>
</trkpt>
<trkpt lat="46.0982730" lon="10.4427360">
	<ele>1601.20</ele>
	<time>2024-07-25T07:43:58.000Z</time>
</trkpt>
<trkpt lat="46.0982830" lon="10.4427410">
	<ele>1601.20</ele>
	<time>2024-07-25T07:43:59.000Z</time>
</trkpt>
<trkpt lat="46.0982880" lon="10.4427520">
	<ele>1601.20</ele>
	<time>2024-07-25T07:44:00.000Z</time>
</trkpt>
<trkpt lat="46.0982940" lon="10.4427550">
	<ele>1601.40</ele>
	<time>2024-07-25T07:44:01.000Z</time>
</trkpt>
<trkpt lat="46.0983040" lon="10.4427550">
	<ele>1601.40</ele>
	<time>2024-07-25T07:44:02.000Z</time>
</trkpt>
<trkpt lat="46.0983190" lon="10.4427500">
	<ele>1601.40</ele>
	<time>2024-07-25T07:44:03.000Z</time>
</trkpt>
<trkpt lat="46.0983300" lon="10.4427540">
	<ele>1601.40</ele>
	<time>2024-07-25T07:44:04.000Z</time>
</trkpt>
<trkpt lat="46.0983380" lon="10.4427550">
	<ele>1601.60</ele>
	<time>2024-07-25T07:44:05.000Z</time>
</trkpt>
<trkpt lat="46.0983480" lon="10.4427530">
	<ele>1601.60</ele>
	<time>2024-07-25T07:44:06.000Z</time>
</trkpt>
<trkpt lat="46.0983580" lon="10.4427490">
	<ele>1601.80</ele>
	<time>2024-07-25T07:44:07.000Z</time>
</trkpt>
<trkpt lat="46.0983710" lon="10.4427470">
	<ele>1601.80</ele>
	<time>2024-07-25T07:44:08.000Z</time>
</trkpt>
<trkpt lat="46.0983850" lon="10.4427500">
	<ele>1602.00</ele>
	<time>2024-07-25T07:44:09.000Z</time>
</trkpt>
<trkpt lat="46.0983960" lon="10.4427620">
	<ele>1602.20</ele>
	<time>2024-07-25T07:44:10.000Z</time>
</trkpt>
<trkpt lat="46.0984050" lon="10.4427660">
	<ele>1602.20</ele>
	<time>2024-07-25T07:44:11.000Z</time>
</trkpt>
<trkpt lat="46.0984150" lon="10.4427730">
	<ele>1602.40</ele>
	<time>2024-07-25T07:44:12.000Z</time>
</trkpt>
<trkpt lat="46.0984250" lon="10.4427790">
	<ele>1602.40</ele>
	<time>2024-07-25T07:44:13.000Z</time>
</trkpt>
<trkpt lat="46.0984310" lon="10.4427870">
	<ele>1602.60</ele>
	<time>2024-07-25T07:44:14.000Z</time>
</trkpt>
<trkpt lat="46.0984380" lon="10.4427950">
	<ele>1602.80</ele>
	<time>2024-07-25T07:44:15.000Z</time>
</trkpt>
<trkpt lat="46.0984470" lon="10.4428030">
	<ele>1603.20</ele>
	<time>2024-07-25T07:44:16.000Z</time>
</trkpt>
<trkpt lat="46.0984570" lon="10.4428120">
	<ele>1603.40</ele>
	<time>2024-07-25T07:44:17.000Z</time>
</trkpt>
<trkpt lat="46.0984670" lon="10.4428180">
	<ele>1603.60</ele>
	<time>2024-07-25T07:44:18.000Z</time>
</trkpt>
<trkpt lat="46.0984800" lon="10.4428240">
	<ele>1603.80</ele>
	<time>2024-07-25T07:44:19.000Z</time>
</trkpt>
<trkpt lat="46.0984910" lon="10.4428320">
	<ele>1603.80</ele>
	<time>2024-07-25T07:44:20.000Z</time>
</trkpt>
<trkpt lat="46.0985000" lon="10.4428470">
	<ele>1604.00</ele>
	<time>2024-07-25T07:44:21.000Z</time>
</trkpt>
<trkpt lat="46.0985040" lon="10.4428610">
	<ele>1604.00</ele>
	<time>2024-07-25T07:44:22.000Z</time>
</trkpt>
<trkpt lat="46.0985090" lon="10.4428760">
	<ele>1604.00</ele>
	<time>2024-07-25T07:44:23.000Z</time>
</trkpt>
<trkpt lat="46.0985180" lon="10.4428890">
	<ele>1604.20</ele>
	<time>2024-07-25T07:44:24.000Z</time>
</trkpt>
<trkpt lat="46.0985270" lon="10.4428990">
	<ele>1604.20</ele>
	<time>2024-07-25T07:44:25.000Z</time>
</trkpt>
<trkpt lat="46.0985360" lon="10.4429110">
	<ele>1604.40</ele>
	<time>2024-07-25T07:44:26.000Z</time>
</trkpt>
<trkpt lat="46.0985450" lon="10.4429190">
	<ele>1604.60</ele>
	<time>2024-07-25T07:44:27.000Z</time>
</trkpt>
<trkpt lat="46.0985540" lon="10.4429220">
	<ele>1604.60</ele>
	<time>2024-07-25T07:44:28.000Z</time>
</trkpt>
<trkpt lat="46.0985630" lon="10.4429310">
	<ele>1604.60</ele>
	<time>2024-07-25T07:44:29.000Z</time>
</trkpt>
<trkpt lat="46.0985670" lon="10.4429370">
	<ele>1604.80</ele>
	<time>2024-07-25T07:44:30.000Z</time>
</trkpt>
<trkpt lat="46.0985740" lon="10.4429400">
	<ele>1605.00</ele>
	<time>2024-07-25T07:44:31.000Z</time>
</trkpt>
<trkpt lat="46.0985730" lon="10.4429480">
	<ele>1605.20</ele>
	<time>2024-07-25T07:44:32.000Z</time>
</trkpt>
<trkpt lat="46.0985720" lon="10.4429570">
	<ele>1605.20</ele>
	<time>2024-07-25T07:44:33.000Z</time>
</trkpt>
<trkpt lat="46.0985770" lon="10.4429680">
	<ele>1605.20</ele>
	<time>2024-07-25T07:44:34.000Z</time>
</trkpt>
<trkpt lat="46.0985820" lon="10.4429730">
	<ele>1605.40</ele>
	<time>2024-07-25T07:44:35.000Z</time>
</trkpt>
<trkpt lat="46.0985870" lon="10.4429840">
	<ele>1605.40</ele>
	<time>2024-07-25T07:44:36.000Z</time>
</trkpt>
<trkpt lat="46.0985890" lon="10.4429900">
	<ele>1605.60</ele>
	<time>2024-07-25T07:44:37.000Z</time>
</trkpt>
<trkpt lat="46.0985950" lon="10.4429890">
	<ele>1605.60</ele>
	<time>2024-07-25T07:44:38.000Z</time>
</trkpt>
<trkpt lat="46.0986050" lon="10.4429850">
	<ele>1605.80</ele>
	<time>2024-07-25T07:44:39.000Z</time>
</trkpt>
<trkpt lat="46.0986020" lon="10.4429910">
	<ele>1605.80</ele>
	<time>2024-07-25T07:44:40.000Z</time>
</trkpt>
<trkpt lat="46.0986050" lon="10.4429920">
	<ele>1606.00</ele>
	<time>2024-07-25T07:44:41.000Z</time>
</trkpt>
<trkpt lat="46.0986100" lon="10.4429920">
	<ele>1606.00</ele>
	<time>2024-07-25T07:44:42.000Z</time>
</trkpt>
<trkpt lat="46.0986180" lon="10.4429920">
	<ele>1606.00</ele>
	<time>2024-07-25T07:44:43.000Z</time>
</trkpt>
<trkpt lat="46.0986280" lon="10.4429970">
	<ele>1606.20</ele>
	<time>2024-07-25T07:44:44.000Z</time>
</trkpt>
<trkpt lat="46.0986410" lon="10.4430040">
	<ele>1606.20</ele>
	<time>2024-07-25T07:44:45.000Z</time>
</trkpt>
<trkpt lat="46.0986560" lon="10.4430180">
	<ele>1606.40</ele>
	<time>2024-07-25T07:44:46.000Z</time>
</trkpt>
<trkpt lat="46.0986720" lon="10.4430250">
	<ele>1606.40</ele>
	<time>2024-07-25T07:44:47.000Z</time>
</trkpt>
<trkpt lat="46.0986850" lon="10.4430340">
	<ele>1606.60</ele>
	<time>2024-07-25T07:44:48.000Z</time>
</trkpt>
<trkpt lat="46.0986960" lon="10.4430430">
	<ele>1606.60</ele>
	<time>2024-07-25T07:44:49.000Z</time>
</trkpt>
<trkpt lat="46.0987100" lon="10.4430510">
	<ele>1606.60</ele>
	<time>2024-07-25T07:44:50.000Z</time>
</trkpt>
<trkpt lat="46.0987240" lon="10.4430550">
	<ele>1606.60</ele>
	<time>2024-07-25T07:44:51.000Z</time>
</trkpt>
<trkpt lat="46.0987330" lon="10.4430570">
	<ele>1606.60</ele>
	<time>2024-07-25T07:44:52.000Z</time>
</trkpt>
<trkpt lat="46.0987420" lon="10.4430660">
	<ele>1606.60</ele>
	<time>2024-07-25T07:44:53.000Z</time>
</trkpt>
<trkpt lat="46.0987540" lon="10.4430770">
	<ele>1606.60</ele>
	<time>2024-07-25T07:44:54.000Z</time>
</trkpt>
<trkpt lat="46.0987660" lon="10.4430890">
	<ele>1606.60</ele>
	<time>2024-07-25T07:44:55.000Z</time>
</trkpt>
<trkpt lat="46.0987760" lon="10.4431030">
	<ele>1606.60</ele>
	<time>2024-07-25T07:44:56.000Z</time>
</trkpt>
<trkpt lat="46.0987930" lon="10.4431120">
	<ele>1606.60</ele>
	<time>2024-07-25T07:44:57.000Z</time>
</trkpt>
<trkpt lat="46.0988070" lon="10.4431220">
	<ele>1606.60</ele>
	<time>2024-07-25T07:44:58.000Z</time>
</trkpt>
<trkpt lat="46.0988260" lon="10.4431390">
	<ele>1606.60</ele>
	<time>2024-07-25T07:44:59.000Z</time>
</trkpt>
<trkpt lat="46.0988370" lon="10.4431520">
	<ele>1606.60</ele>
	<time>2024-07-25T07:45:00.000Z</time>
</trkpt>
<trkpt lat="46.0988480" lon="10.4431580">
	<ele>1606.80</ele>
	<time>2024-07-25T07:45:01.000Z</time>
</trkpt>
<trkpt lat="46.0988580" lon="10.4431700">
	<ele>1606.80</ele>
	<time>2024-07-25T07:45:02.000Z</time>
</trkpt>
<trkpt lat="46.0988680" lon="10.4431760">
	<ele>1606.80</ele>
	<time>2024-07-25T07:45:03.000Z</time>
</trkpt>
<trkpt lat="46.0988810" lon="10.4431860">
	<ele>1607.00</ele>
	<time>2024-07-25T07:45:04.000Z</time>
</trkpt>
<trkpt lat="46.0988940" lon="10.4431970">
	<ele>1607.20</ele>
	<time>2024-07-25T07:45:05.000Z</time>
</trkpt>
<trkpt lat="46.0989010" lon="10.4432150">
	<ele>1607.20</ele>
	<time>2024-07-25T07:45:06.000Z</time>
</trkpt>
<trkpt lat="46.0989210" lon="10.4432350">
	<ele>1607.40</ele>
	<time>2024-07-25T07:45:07.000Z</time>
</trkpt>
<trkpt lat="46.0989370" lon="10.4432430">
	<ele>1607.40</ele>
	<time>2024-07-25T07:45:08.000Z</time>
</trkpt>
<trkpt lat="46.0989480" lon="10.4432520">
	<ele>1607.60</ele>
	<time>2024-07-25T07:45:09.000Z</time>
</trkpt>
<trkpt lat="46.0989660" lon="10.4432680">
	<ele>1607.60</ele>
	<time>2024-07-25T07:45:10.000Z</time>
</trkpt>
<trkpt lat="46.0989830" lon="10.4432840">
	<ele>1607.60</ele>
	<time>2024-07-25T07:45:11.000Z</time>
</trkpt>
<trkpt lat="46.0989910" lon="10.4432980">
	<ele>1607.80</ele>
	<time>2024-07-25T07:45:12.000Z</time>
</trkpt>
<trkpt lat="46.0989970" lon="10.4433110">
	<ele>1607.80</ele>
	<time>2024-07-25T07:45:13.000Z</time>
</trkpt>
<trkpt lat="46.0990020" lon="10.4433270">
	<ele>1607.80</ele>
	<time>2024-07-25T07:45:14.000Z</time>
</trkpt>
<trkpt lat="46.0990080" lon="10.4433430">
	<ele>1607.80</ele>
	<time>2024-07-25T07:45:15.000Z</time>
</trkpt>
<trkpt lat="46.0990140" lon="10.4433560">
	<ele>1607.80</ele>
	<time>2024-07-25T07:45:16.000Z</time>
</trkpt>
<trkpt lat="46.0990220" lon="10.4433660">
	<ele>1608.00</ele>
	<time>2024-07-25T07:45:17.000Z</time>
</trkpt>
<trkpt lat="46.0990340" lon="10.4433850">
	<ele>1608.00</ele>
	<time>2024-07-25T07:45:18.000Z</time>
</trkpt>
<trkpt lat="46.0990430" lon="10.4434020">
	<ele>1608.20</ele>
	<time>2024-07-25T07:45:19.000Z</time>
</trkpt>
<trkpt lat="46.0990560" lon="10.4434160">
	<ele>1608.20</ele>
	<time>2024-07-25T07:45:20.000Z</time>
</trkpt>
<trkpt lat="46.0990640" lon="10.4434310">
	<ele>1608.40</ele>
	<time>2024-07-25T07:45:21.000Z</time>
</trkpt>
<trkpt lat="46.0990710" lon="10.4434400">
	<ele>1608.40</ele>
	<time>2024-07-25T07:45:22.000Z</time>
</trkpt>
<trkpt lat="46.0990760" lon="10.4434540">
	<ele>1608.40</ele>
	<time>2024-07-25T07:45:23.000Z</time>
</trkpt>
<trkpt lat="46.0990910" lon="10.4434580">
	<ele>1608.60</ele>
	<time>2024-07-25T07:45:24.000Z</time>
</trkpt>
<trkpt lat="46.0991070" lon="10.4434610">
	<ele>1608.60</ele>
	<time>2024-07-25T07:45:25.000Z</time>
</trkpt>
<trkpt lat="46.0991180" lon="10.4434690">
	<ele>1608.80</ele>
	<time>2024-07-25T07:45:26.000Z</time>
</trkpt>
<trkpt lat="46.0991240" lon="10.4434740">
	<ele>1608.80</ele>
	<time>2024-07-25T07:45:27.000Z</time>
</trkpt>
<trkpt lat="46.0991240" lon="10.4434730">
	<ele>1608.80</ele>
	<time>2024-07-25T07:45:28.000Z</time>
</trkpt>
<trkpt lat="46.0991270" lon="10.4434720">
	<ele>1608.80</ele>
	<time>2024-07-25T07:45:29.000Z</time>
</trkpt>
<trkpt lat="46.0991270" lon="10.4434730">
	<ele>1609.00</ele>
	<time>2024-07-25T07:45:30.000Z</time>
</trkpt>
<trkpt lat="46.0991290" lon="10.4434750">
	<ele>1609.00</ele>
	<time>2024-07-25T07:45:31.000Z</time>
</trkpt>
<trkpt lat="46.0991300" lon="10.4434760">
	<ele>1609.00</ele>
	<time>2024-07-25T07:45:32.000Z</time>
</trkpt>
<trkpt lat="46.0991300" lon="10.4434770">
	<ele>1609.00</ele>
	<time>2024-07-25T07:45:33.000Z</time>
</trkpt>
<trkpt lat="46.0991290" lon="10.4434760">
	<ele>1609.20</ele>
	<time>2024-07-25T07:45:34.000Z</time>
</trkpt>
<trkpt lat="46.0991310" lon="10.4434750">
	<ele>1609.20</ele>
	<time>2024-07-25T07:45:35.000Z</time>
</trkpt>
<trkpt lat="46.0991300" lon="10.4434740">
	<ele>1609.40</ele>
	<time>2024-07-25T07:45:36.000Z</time>
</trkpt>
<trkpt lat="46.0991270" lon="10.4434730">
	<ele>1609.40</ele>
	<time>2024-07-25T07:45:37.000Z</time>
</trkpt>
<trkpt lat="46.0991280" lon="10.4434740">
	<ele>1609.60</ele>
	<time>2024-07-25T07:45:38.000Z</time>
</trkpt>
<trkpt lat="46.0991340" lon="10.4434810">
	<ele>1609.60</ele>
	<time>2024-07-25T07:45:39.000Z</time>
</trkpt>
<trkpt lat="46.0991400" lon="10.4434880">
	<ele>1609.40</ele>
	<time>2024-07-25T07:45:40.000Z</time>
</trkpt>
<trkpt lat="46.0991480" lon="10.4434940">
	<ele>1609.40</ele>
	<time>2024-07-25T07:45:41.000Z</time>
</trkpt>
<trkpt lat="46.0991580" lon="10.4435050">
	<ele>1609.40</ele>
	<time>2024-07-25T07:45:42.000Z</time>
</trkpt>
<trkpt lat="46.0991690" lon="10.4435140">
	<ele>1609.40</ele>
	<time>2024-07-25T07:45:43.000Z</time>
</trkpt>
<trkpt lat="46.0991760" lon="10.4435230">
	<ele>1609.40</ele>
	<time>2024-07-25T07:45:44.000Z</time>
</trkpt>
<trkpt lat="46.0991840" lon="10.4435370">
	<ele>1609.60</ele>
	<time>2024-07-25T07:45:45.000Z</time>
</trkpt>
<trkpt lat="46.0991880" lon="10.4435510">
	<ele>1609.60</ele>
	<time>2024-07-25T07:45:46.000Z</time>
</trkpt>
<trkpt lat="46.0991900" lon="10.4435750">
	<ele>1609.80</ele>
	<time>2024-07-25T07:45:47.000Z</time>
</trkpt>
<trkpt lat="46.0991940" lon="10.4435960">
	<ele>1609.80</ele>
	<time>2024-07-25T07:45:48.000Z</time>
</trkpt>
<trkpt lat="46.0992010" lon="10.4436100">
	<ele>1610.00</ele>
	<time>2024-07-25T07:45:49.000Z</time>
</trkpt>
<trkpt lat="46.0992100" lon="10.4436290">
	<ele>1610.20</ele>
	<time>2024-07-25T07:45:50.000Z</time>
</trkpt>
<trkpt lat="46.0992190" lon="10.4436430">
	<ele>1610.20</ele>
	<time>2024-07-25T07:45:51.000Z</time>
</trkpt>
<trkpt lat="46.0992280" lon="10.4436620">
	<ele>1610.40</ele>
	<time>2024-07-25T07:45:52.000Z</time>
</trkpt>
<trkpt lat="46.0992350" lon="10.4436790">
	<ele>1610.40</ele>
	<time>2024-07-25T07:45:53.000Z</time>
</trkpt>
<trkpt lat="46.0992380" lon="10.4436960">
	<ele>1610.40</ele>
	<time>2024-07-25T07:45:54.000Z</time>
</trkpt>
<trkpt lat="46.0992400" lon="10.4437100">
	<ele>1610.40</ele>
	<time>2024-07-25T07:45:55.000Z</time>
</trkpt>
<trkpt lat="46.0992430" lon="10.4437240">
	<ele>1610.40</ele>
	<time>2024-07-25T07:45:56.000Z</time>
</trkpt>
<trkpt lat="46.0992470" lon="10.4437370">
	<ele>1610.60</ele>
	<time>2024-07-25T07:45:57.000Z</time>
</trkpt>
<trkpt lat="46.0992510" lon="10.4437500">
	<ele>1610.60</ele>
	<time>2024-07-25T07:45:58.000Z</time>
</trkpt>
<trkpt lat="46.0992590" lon="10.4437650">
	<ele>1610.80</ele>
	<time>2024-07-25T07:45:59.000Z</time>
</trkpt>
<trkpt lat="46.0992570" lon="10.4437690">
	<ele>1610.80</ele>
	<time>2024-07-25T07:46:00.000Z</time>
</trkpt>
<trkpt lat="46.0992610" lon="10.4437700">
	<ele>1611.00</ele>
	<time>2024-07-25T07:46:01.000Z</time>
</trkpt>
<trkpt lat="46.0992610" lon="10.4437820">
	<ele>1611.00</ele>
	<time>2024-07-25T07:46:02.000Z</time>
</trkpt>
<trkpt lat="46.0992690" lon="10.4437880">
	<ele>1611.20</ele>
	<time>2024-07-25T07:46:03.000Z</time>
</trkpt>
<trkpt lat="46.0992800" lon="10.4437970">
	<ele>1611.20</ele>
	<time>2024-07-25T07:46:04.000Z</time>
</trkpt>
<trkpt lat="46.0992900" lon="10.4438130">
	<ele>1611.20</ele>
	<time>2024-07-25T07:46:05.000Z</time>
</trkpt>
<trkpt lat="46.0992940" lon="10.4438300">
	<ele>1611.20</ele>
	<time>2024-07-25T07:46:06.000Z</time>
</trkpt>
<trkpt lat="46.0992970" lon="10.4438440">
	<ele>1611.20</ele>
	<time>2024-07-25T07:46:07.000Z</time>
</trkpt>
<trkpt lat="46.0993030" lon="10.4438560">
	<ele>1611.40</ele>
	<time>2024-07-25T07:46:08.000Z</time>
</trkpt>
<trkpt lat="46.0993050" lon="10.4438700">
	<ele>1611.60</ele>
	<time>2024-07-25T07:46:09.000Z</time>
</trkpt>
<trkpt lat="46.0993050" lon="10.4438790">
	<ele>1611.60</ele>
	<time>2024-07-25T07:46:10.000Z</time>
</trkpt>
<trkpt lat="46.0993030" lon="10.4438960">
	<ele>1611.60</ele>
	<time>2024-07-25T07:46:11.000Z</time>
</trkpt>
<trkpt lat="46.0993020" lon="10.4439140">
	<ele>1611.80</ele>
	<time>2024-07-25T07:46:12.000Z</time>
</trkpt>
<trkpt lat="46.0993070" lon="10.4439290">
	<ele>1611.80</ele>
	<time>2024-07-25T07:46:13.000Z</time>
</trkpt>
<trkpt lat="46.0993120" lon="10.4439410">
	<ele>1611.80</ele>
	<time>2024-07-25T07:46:14.000Z</time>
</trkpt>
<trkpt lat="46.0993130" lon="10.4439600">
	<ele>1612.00</ele>
	<time>2024-07-25T07:46:15.000Z</time>
</trkpt>
<trkpt lat="46.0993110" lon="10.4439780">
	<ele>1612.00</ele>
	<time>2024-07-25T07:46:16.000Z</time>
</trkpt>
<trkpt lat="46.0993090" lon="10.4439980">
	<ele>1612.20</ele>
	<time>2024-07-25T07:46:17.000Z</time>
</trkpt>
<trkpt lat="46.0993100" lon="10.4440120">
	<ele>1612.20</ele>
	<time>2024-07-25T07:46:18.000Z</time>
</trkpt>
<trkpt lat="46.0993110" lon="10.4440260">
	<ele>1612.40</ele>
	<time>2024-07-25T07:46:19.000Z</time>
</trkpt>
<trkpt lat="46.0993130" lon="10.4440420">
	<ele>1612.60</ele>
	<time>2024-07-25T07:46:20.000Z</time>
</trkpt>
<trkpt lat="46.0993160" lon="10.4440580">
	<ele>1612.80</ele>
	<time>2024-07-25T07:46:21.000Z</time>
</trkpt>
<trkpt lat="46.0993210" lon="10.4440720">
	<ele>1612.80</ele>
	<time>2024-07-25T07:46:22.000Z</time>
</trkpt>
<trkpt lat="46.0993250" lon="10.4440840">
	<ele>1612.80</ele>
	<time>2024-07-25T07:46:23.000Z</time>
</trkpt>
<trkpt lat="46.0993270" lon="10.4440960">
	<ele>1612.80</ele>
	<time>2024-07-25T07:46:24.000Z</time>
</trkpt>
<trkpt lat="46.0993300" lon="10.4441100">
	<ele>1612.80</ele>
	<time>2024-07-25T07:46:25.000Z</time>
</trkpt>
<trkpt lat="46.0993340" lon="10.4441260">
	<ele>1612.80</ele>
	<time>2024-07-25T07:46:26.000Z</time>
</trkpt>
<trkpt lat="46.0993390" lon="10.4441400">
	<ele>1612.80</ele>
	<time>2024-07-25T07:46:27.000Z</time>
</trkpt>
<trkpt lat="46.0993480" lon="10.4441510">
	<ele>1613.00</ele>
	<time>2024-07-25T07:46:28.000Z</time>
</trkpt>
<trkpt lat="46.0993520" lon="10.4441620">
	<ele>1613.00</ele>
	<time>2024-07-25T07:46:29.000Z</time>
</trkpt>
<trkpt lat="46.0993550" lon="10.4441760">
	<ele>1613.20</ele>
	<time>2024-07-25T07:46:30.000Z</time>
</trkpt>
<trkpt lat="46.0993650" lon="10.4441900">
	<ele>1613.40</ele>
	<time>2024-07-25T07:46:31.000Z</time>
</trkpt>
<trkpt lat="46.0993710" lon="10.4442020">
	<ele>1613.40</ele>
	<time>2024-07-25T07:46:32.000Z</time>
</trkpt>
<trkpt lat="46.0993830" lon="10.4442150">
	<ele>1613.60</ele>
	<time>2024-07-25T07:46:33.000Z</time>
</trkpt>
<trkpt lat="46.0993930" lon="10.4442260">
	<ele>1613.60</ele>
	<time>2024-07-25T07:46:34.000Z</time>
</trkpt>
<trkpt lat="46.0994000" lon="10.4442350">
	<ele>1613.80</ele>
	<time>2024-07-25T07:46:35.000Z</time>
</trkpt>
<trkpt lat="46.0994050" lon="10.4442460">
	<ele>1613.80</ele>
	<time>2024-07-25T07:46:36.000Z</time>
</trkpt>
<trkpt lat="46.0994120" lon="10.4442620">
	<ele>1613.80</ele>
	<time>2024-07-25T07:46:37.000Z</time>
</trkpt>
<trkpt lat="46.0994200" lon="10.4442780">
	<ele>1613.80</ele>
	<time>2024-07-25T07:46:38.000Z</time>
</trkpt>
<trkpt lat="46.0994270" lon="10.4442970">
	<ele>1613.80</ele>
	<time>2024-07-25T07:46:39.000Z</time>
</trkpt>
<trkpt lat="46.0994380" lon="10.4443150">
	<ele>1613.80</ele>
	<time>2024-07-25T07:46:40.000Z</time>
</trkpt>
<trkpt lat="46.0994410" lon="10.4443210">
	<ele>1614.00</ele>
	<time>2024-07-25T07:46:41.000Z</time>
</trkpt>
<trkpt lat="46.0994460" lon="10.4443230">
	<ele>1614.00</ele>
	<time>2024-07-25T07:46:42.000Z</time>
</trkpt>
<trkpt lat="46.0994540" lon="10.4443310">
	<ele>1614.00</ele>
	<time>2024-07-25T07:46:43.000Z</time>
</trkpt>
<trkpt lat="46.0994630" lon="10.4443340">
	<ele>1614.20</ele>
	<time>2024-07-25T07:46:44.000Z</time>
</trkpt>
<trkpt lat="46.0994740" lon="10.4443340">
	<ele>1614.20</ele>
	<time>2024-07-25T07:46:45.000Z</time>
</trkpt>
<trkpt lat="46.0994820" lon="10.4443350">
	<ele>1614.20</ele>
	<time>2024-07-25T07:46:46.000Z</time>
</trkpt>
<trkpt lat="46.0994920" lon="10.4443450">
	<ele>1614.40</ele>
	<time>2024-07-25T07:46:47.000Z</time>
</trkpt>
<trkpt lat="46.0995050" lon="10.4443480">
	<ele>1614.40</ele>
	<time>2024-07-25T07:46:48.000Z</time>
</trkpt>
<trkpt lat="46.0995140" lon="10.4443560">
	<ele>1614.40</ele>
	<time>2024-07-25T07:46:49.000Z</time>
</trkpt>
<trkpt lat="46.0995180" lon="10.4443710">
	<ele>1614.60</ele>
	<time>2024-07-25T07:46:50.000Z</time>
</trkpt>
<trkpt lat="46.0995230" lon="10.4443840">
	<ele>1614.60</ele>
	<time>2024-07-25T07:46:51.000Z</time>
</trkpt>
<trkpt lat="46.0995320" lon="10.4444030">
	<ele>1614.60</ele>
	<time>2024-07-25T07:46:52.000Z</time>
</trkpt>
<trkpt lat="46.0995370" lon="10.4444200">
	<ele>1614.60</ele>
	<time>2024-07-25T07:46:53.000Z</time>
</trkpt>
<trkpt lat="46.0995420" lon="10.4444310">
	<ele>1614.80</ele>
	<time>2024-07-25T07:46:54.000Z</time>
</trkpt>
<trkpt lat="46.0995550" lon="10.4444410">
	<ele>1615.00</ele>
	<time>2024-07-25T07:46:55.000Z</time>
</trkpt>
<trkpt lat="46.0995650" lon="10.4444490">
	<ele>1615.00</ele>
	<time>2024-07-25T07:46:56.000Z</time>
</trkpt>
<trkpt lat="46.0995670" lon="10.4444670">
	<ele>1615.00</ele>
	<time>2024-07-25T07:46:57.000Z</time>
</trkpt>
<trkpt lat="46.0995740" lon="10.4444770">
	<ele>1615.00</ele>
	<time>2024-07-25T07:46:58.000Z</time>
</trkpt>
<trkpt lat="46.0995830" lon="10.4444840">
	<ele>1615.20</ele>
	<time>2024-07-25T07:46:59.000Z</time>
</trkpt>
<trkpt lat="46.0995910" lon="10.4444940">
	<ele>1615.20</ele>
	<time>2024-07-25T07:47:00.000Z</time>
</trkpt>
<trkpt lat="46.0995970" lon="10.4444960">
	<ele>1615.20</ele>
	<time>2024-07-25T07:47:01.000Z</time>
</trkpt>
<trkpt lat="46.0996020" lon="10.4445010">
	<ele>1615.40</ele>
	<time>2024-07-25T07:47:02.000Z</time>
</trkpt>
<trkpt lat="46.0996090" lon="10.4445110">
	<ele>1615.60</ele>
	<time>2024-07-25T07:47:03.000Z</time>
</trkpt>
<trkpt lat="46.0996170" lon="10.4445230">
	<ele>1615.80</ele>
	<time>2024-07-25T07:47:04.000Z</time>
</trkpt>
<trkpt lat="46.0996290" lon="10.4445360">
	<ele>1616.00</ele>
	<time>2024-07-25T07:47:05.000Z</time>
</trkpt>
<trkpt lat="46.0996400" lon="10.4445480">
	<ele>1616.20</ele>
	<time>2024-07-25T07:47:06.000Z</time>
</trkpt>
<trkpt lat="46.0996500" lon="10.4445550">
	<ele>1616.20</ele>
	<time>2024-07-25T07:47:07.000Z</time>
</trkpt>
<trkpt lat="46.0996650" lon="10.4445550">
	<ele>1616.20</ele>
	<time>2024-07-25T07:47:08.000Z</time>
</trkpt>
<trkpt lat="46.0996760" lon="10.4445610">
	<ele>1616.40</ele>
	<time>2024-07-25T07:47:09.000Z</time>
</trkpt>
<trkpt lat="46.0996850" lon="10.4445700">
	<ele>1616.40</ele>
	<time>2024-07-25T07:47:10.000Z</time>
</trkpt>
<trkpt lat="46.0996960" lon="10.4445750">
	<ele>1616.60</ele>
	<time>2024-07-25T07:47:11.000Z</time>
</trkpt>
<trkpt lat="46.0997060" lon="10.4445860">
	<ele>1616.60</ele>
	<time>2024-07-25T07:47:12.000Z</time>
</trkpt>
<trkpt lat="46.0997150" lon="10.4445950">
	<ele>1616.80</ele>
	<time>2024-07-25T07:47:13.000Z</time>
</trkpt>
<trkpt lat="46.0997220" lon="10.4446080">
	<ele>1616.80</ele>
	<time>2024-07-25T07:47:14.000Z</time>
</trkpt>
<trkpt lat="46.0997300" lon="10.4446200">
	<ele>1617.00</ele>
	<time>2024-07-25T07:47:15.000Z</time>
</trkpt>
<trkpt lat="46.0997390" lon="10.4446310">
	<ele>1617.00</ele>
	<time>2024-07-25T07:47:16.000Z</time>
</trkpt>
<trkpt lat="46.0997490" lon="10.4446430">
	<ele>1617.00</ele>
	<time>2024-07-25T07:47:17.000Z</time>
</trkpt>
<trkpt lat="46.0997620" lon="10.4446540">
	<ele>1617.00</ele>
	<time>2024-07-25T07:47:18.000Z</time>
</trkpt>
<trkpt lat="46.0997730" lon="10.4446610">
	<ele>1617.20</ele>
	<time>2024-07-25T07:47:19.000Z</time>
</trkpt>
<trkpt lat="46.0997860" lon="10.4446660">
	<ele>1617.20</ele>
	<time>2024-07-25T07:47:20.000Z</time>
</trkpt>
<trkpt lat="46.0998030" lon="10.4446670">
	<ele>1617.20</ele>
	<time>2024-07-25T07:47:21.000Z</time>
</trkpt>
<trkpt lat="46.0998180" lon="10.4446680">
	<ele>1617.20</ele>
	<time>2024-07-25T07:47:22.000Z</time>
</trkpt>
<trkpt lat="46.0998300" lon="10.4446780">
	<ele>1617.40</ele>
	<time>2024-07-25T07:47:23.000Z</time>
</trkpt>
<trkpt lat="46.0998390" lon="10.4446940">
	<ele>1617.40</ele>
	<time>2024-07-25T07:47:24.000Z</time>
</trkpt>
<trkpt lat="46.0998500" lon="10.4447140">
	<ele>1617.60</ele>
	<time>2024-07-25T07:47:25.000Z</time>
</trkpt>
<trkpt lat="46.0998600" lon="10.4447270">
	<ele>1617.60</ele>
	<time>2024-07-25T07:47:26.000Z</time>
</trkpt>
<trkpt lat="46.0998680" lon="10.4447370">
	<ele>1617.80</ele>
	<time>2024-07-25T07:47:27.000Z</time>
</trkpt>
<trkpt lat="46.0998780" lon="10.4447490">
	<ele>1617.80</ele>
	<time>2024-07-25T07:47:28.000Z</time>
</trkpt>
<trkpt lat="46.0998860" lon="10.4447640">
	<ele>1617.80</ele>
	<time>2024-07-25T07:47:29.000Z</time>
</trkpt>
<trkpt lat="46.0998940" lon="10.4447760">
	<ele>1618.00</ele>
	<time>2024-07-25T07:47:30.000Z</time>
</trkpt>
<trkpt lat="46.0998960" lon="10.4447890">
	<ele>1618.00</ele>
	<time>2024-07-25T07:47:31.000Z</time>
</trkpt>
<trkpt lat="46.0998960" lon="10.4447990">
	<ele>1618.20</ele>
	<time>2024-07-25T07:47:32.000Z</time>
</trkpt>
<trkpt lat="46.0999000" lon="10.4448120">
	<ele>1618.40</ele>
	<time>2024-07-25T07:47:33.000Z</time>
</trkpt>
<trkpt lat="46.0999070" lon="10.4448220">
	<ele>1618.40</ele>
	<time>2024-07-25T07:47:34.000Z</time>
</trkpt>
<trkpt lat="46.0999190" lon="10.4448310">
	<ele>1618.60</ele>
	<time>2024-07-25T07:47:35.000Z</time>
</trkpt>
<trkpt lat="46.0999300" lon="10.4448390">
	<ele>1618.60</ele>
	<time>2024-07-25T07:47:36.000Z</time>
</trkpt>
<trkpt lat="46.0999340" lon="10.4448550">
	<ele>1618.60</ele>
	<time>2024-07-25T07:47:37.000Z</time>
</trkpt>
<trkpt lat="46.0999390" lon="10.4448730">
	<ele>1618.60</ele>
	<time>2024-07-25T07:47:38.000Z</time>
</trkpt>
<trkpt lat="46.0999410" lon="10.4448840">
	<ele>1618.60</ele>
	<time>2024-07-25T07:47:39.000Z</time>
</trkpt>
<trkpt lat="46.0999430" lon="10.4449040">
	<ele>1618.60</ele>
	<time>2024-07-25T07:47:40.000Z</time>
</trkpt>
<trkpt lat="46.0999490" lon="10.4449150">
	<ele>1618.80</ele>
	<time>2024-07-25T07:47:41.000Z</time>
</trkpt>
<trkpt lat="46.0999580" lon="10.4449210">
	<ele>1619.00</ele>
	<time>2024-07-25T07:47:42.000Z</time>
</trkpt>
<trkpt lat="46.0999650" lon="10.4449350">
	<ele>1619.00</ele>
	<time>2024-07-25T07:47:43.000Z</time>
</trkpt>
<trkpt lat="46.0999730" lon="10.4449440">
	<ele>1619.20</ele>
	<time>2024-07-25T07:47:44.000Z</time>
</trkpt>
<trkpt lat="46.0999740" lon="10.4449560">
	<ele>1619.20</ele>
	<time>2024-07-25T07:47:45.000Z</time>
</trkpt>
<trkpt lat="46.0999740" lon="10.4449720">
	<ele>1619.40</ele>
	<time>2024-07-25T07:47:46.000Z</time>
</trkpt>
<trkpt lat="46.0999750" lon="10.4449910">
	<ele>1619.60</ele>
	<time>2024-07-25T07:47:47.000Z</time>
</trkpt>
<trkpt lat="46.0999810" lon="10.4450000">
	<ele>1619.80</ele>
	<time>2024-07-25T07:47:48.000Z</time>
</trkpt>
<trkpt lat="46.0999890" lon="10.4450110">
	<ele>1619.80</ele>
	<time>2024-07-25T07:47:49.000Z</time>
</trkpt>
<trkpt lat="46.0999990" lon="10.4450260">
	<ele>1619.80</ele>
	<time>2024-07-25T07:47:50.000Z</time>
</trkpt>
<trkpt lat="46.1000070" lon="10.4450410">
	<ele>1619.80</ele>
	<time>2024-07-25T07:47:51.000Z</time>
</trkpt>
<trkpt lat="46.1000120" lon="10.4450550">
	<ele>1620.20</ele>
	<time>2024-07-25T07:47:52.000Z</time>
</trkpt>
<trkpt lat="46.1000150" lon="10.4450740">
	<ele>1620.20</ele>
	<time>2024-07-25T07:47:53.000Z</time>
</trkpt>
<trkpt lat="46.1000190" lon="10.4450890">
	<ele>1620.40</ele>
	<time>2024-07-25T07:47:54.000Z</time>
</trkpt>
<trkpt lat="46.1000230" lon="10.4451030">
	<ele>1620.40</ele>
	<time>2024-07-25T07:47:55.000Z</time>
</trkpt>
<trkpt lat="46.1000260" lon="10.4451140">
	<ele>1620.60</ele>
	<time>2024-07-25T07:47:56.000Z</time>
</trkpt>
<trkpt lat="46.1000300" lon="10.4451300">
	<ele>1620.60</ele>
	<time>2024-07-25T07:47:57.000Z</time>
</trkpt>
<trkpt lat="46.1000320" lon="10.4451410">
	<ele>1620.80</ele>
	<time>2024-07-25T07:47:58.000Z</time>
</trkpt>
<trkpt lat="46.1000370" lon="10.4451490">
	<ele>1620.80</ele>
	<time>2024-07-25T07:47:59.000Z</time>
</trkpt>
<trkpt lat="46.1000430" lon="10.4451600">
	<ele>1621.00</ele>
	<time>2024-07-25T07:48:00.000Z</time>
</trkpt>
<trkpt lat="46.1000510" lon="10.4451750">
	<ele>1621.20</ele>
	<time>2024-07-25T07:48:01.000Z</time>
</trkpt>
<trkpt lat="46.1000560" lon="10.4451890">
	<ele>1621.40</ele>
	<time>2024-07-25T07:48:02.000Z</time>
</trkpt>
<trkpt lat="46.1000600" lon="10.4452010">
	<ele>1621.60</ele>
	<time>2024-07-25T07:48:03.000Z</time>
</trkpt>
<trkpt lat="46.1000610" lon="10.4452180">
	<ele>1622.00</ele>
	<time>2024-07-25T07:48:04.000Z</time>
</trkpt>
<trkpt lat="46.1000640" lon="10.4452370">
	<ele>1622.20</ele>
	<time>2024-07-25T07:48:05.000Z</time>
</trkpt>
<trkpt lat="46.1000660" lon="10.4452480">
	<ele>1622.40</ele>
	<time>2024-07-25T07:48:06.000Z</time>
</trkpt>
<trkpt lat="46.1000720" lon="10.4452590">
	<ele>1622.40</ele>
	<time>2024-07-25T07:48:07.000Z</time>
</trkpt>
<trkpt lat="46.1000780" lon="10.4452700">
	<ele>1622.80</ele>
	<time>2024-07-25T07:48:08.000Z</time>
</trkpt>
<trkpt lat="46.1000810" lon="10.4452840">
	<ele>1623.00</ele>
	<time>2024-07-25T07:48:09.000Z</time>
</trkpt>
<trkpt lat="46.1000920" lon="10.4452940">
	<ele>1623.20</ele>
	<time>2024-07-25T07:48:10.000Z</time>
</trkpt>
<trkpt lat="46.1000990" lon="10.4453020">
	<ele>1623.40</ele>
	<time>2024-07-25T07:48:11.000Z</time>
</trkpt>
<trkpt lat="46.1001040" lon="10.4453100">
	<ele>1623.40</ele>
	<time>2024-07-25T07:48:12.000Z</time>
</trkpt>
<trkpt lat="46.1001100" lon="10.4453180">
	<ele>1623.60</ele>
	<time>2024-07-25T07:48:13.000Z</time>
</trkpt>
<trkpt lat="46.1001170" lon="10.4453280">
	<ele>1623.60</ele>
	<time>2024-07-25T07:48:14.000Z</time>
</trkpt>
<trkpt lat="46.1001230" lon="10.4453410">
	<ele>1623.80</ele>
	<time>2024-07-25T07:48:15.000Z</time>
</trkpt>
<trkpt lat="46.1001280" lon="10.4453510">
	<ele>1624.00</ele>
	<time>2024-07-25T07:48:16.000Z</time>
</trkpt>
<trkpt lat="46.1001310" lon="10.4453670">
	<ele>1624.20</ele>
	<time>2024-07-25T07:48:17.000Z</time>
</trkpt>
<trkpt lat="46.1001370" lon="10.4453790">
	<ele>1624.20</ele>
	<time>2024-07-25T07:48:18.000Z</time>
</trkpt>
<trkpt lat="46.1001430" lon="10.4453950">
	<ele>1624.40</ele>
	<time>2024-07-25T07:48:19.000Z</time>
</trkpt>
<trkpt lat="46.1001490" lon="10.4454130">
	<ele>1624.60</ele>
	<time>2024-07-25T07:48:20.000Z</time>
</trkpt>
<trkpt lat="46.1001560" lon="10.4454280">
	<ele>1625.00</ele>
	<time>2024-07-25T07:48:21.000Z</time>
</trkpt>
<trkpt lat="46.1001640" lon="10.4454410">
	<ele>1625.20</ele>
	<time>2024-07-25T07:48:22.000Z</time>
</trkpt>
<trkpt lat="46.1001670" lon="10.4454520">
	<ele>1625.40</ele>
	<time>2024-07-25T07:48:23.000Z</time>
</trkpt>
<trkpt lat="46.1001690" lon="10.4454610">
	<ele>1625.40</ele>
	<time>2024-07-25T07:48:24.000Z</time>
</trkpt>
<trkpt lat="46.1001740" lon="10.4454700">
	<ele>1625.60</ele>
	<time>2024-07-25T07:48:25.000Z</time>
</trkpt>
<trkpt lat="46.1001760" lon="10.4454800">
	<ele>1625.80</ele>
	<time>2024-07-25T07:48:26.000Z</time>
</trkpt>
<trkpt lat="46.1001790" lon="10.4454900">
	<ele>1626.00</ele>
	<time>2024-07-25T07:48:27.000Z</time>
</trkpt>
<trkpt lat="46.1001790" lon="10.4455060">
	<ele>1626.20</ele>
	<time>2024-07-25T07:48:28.000Z</time>
</trkpt>
<trkpt lat="46.1001810" lon="10.4455210">
	<ele>1626.20</ele>
	<time>2024-07-25T07:48:29.000Z</time>
</trkpt>
<trkpt lat="46.1001840" lon="10.4455370">
	<ele>1626.40</ele>
	<time>2024-07-25T07:48:30.000Z</time>
</trkpt>
<trkpt lat="46.1001850" lon="10.4455560">
	<ele>1626.40</ele>
	<time>2024-07-25T07:48:31.000Z</time>
</trkpt>
<trkpt lat="46.1001890" lon="10.4455680">
	<ele>1626.60</ele>
	<time>2024-07-25T07:48:32.000Z</time>
</trkpt>
<trkpt lat="46.1001950" lon="10.4455820">
	<ele>1626.60</ele>
	<time>2024-07-25T07:48:33.000Z</time>
</trkpt>
<trkpt lat="46.1002000" lon="10.4455920">
	<ele>1626.80</ele>
	<time>2024-07-25T07:48:34.000Z</time>
</trkpt>
<trkpt lat="46.1002020" lon="10.4456030">
	<ele>1627.00</ele>
	<time>2024-07-25T07:48:35.000Z</time>
</trkpt>
<trkpt lat="46.1002070" lon="10.4456160">
	<ele>1627.20</ele>
	<time>2024-07-25T07:48:36.000Z</time>
</trkpt>
<trkpt lat="46.1002080" lon="10.4456210">
	<ele>1627.40</ele>
	<time>2024-07-25T07:48:37.000Z</time>
</trkpt>
<trkpt lat="46.1002060" lon="10.4456270">
	<ele>1627.40</ele>
	<time>2024-07-25T07:48:38.000Z</time>
</trkpt>
<trkpt lat="46.1002060" lon="10.4456350">
	<ele>1627.80</ele>
	<time>2024-07-25T07:48:39.000Z</time>
</trkpt>
<trkpt lat="46.1002120" lon="10.4456460">
	<ele>1628.00</ele>
	<time>2024-07-25T07:48:40.000Z</time>
</trkpt>
<trkpt lat="46.1002140" lon="10.4456610">
	<ele>1628.20</ele>
	<time>2024-07-25T07:48:41.000Z</time>
</trkpt>
<trkpt lat="46.1002160" lon="10.4456760">
	<ele>1628.60</ele>
	<time>2024-07-25T07:48:42.000Z</time>
</trkpt>
<trkpt lat="46.1002170" lon="10.4456940">
	<ele>1628.80</ele>
	<time>2024-07-25T07:48:43.000Z</time>
</trkpt>
<trkpt lat="46.1002190" lon="10.4457100">
	<ele>1629.20</ele>
	<time>2024-07-25T07:48:44.000Z</time>
</trkpt>
<trkpt lat="46.1002190" lon="10.4457250">
	<ele>1629.20</ele>
	<time>2024-07-25T07:48:45.000Z</time>
</trkpt>
<trkpt lat="46.1002170" lon="10.4457390">
	<ele>1629.40</ele>
	<time>2024-07-25T07:48:46.000Z</time>
</trkpt>
<trkpt lat="46.1002170" lon="10.4457460">
	<ele>1629.60</ele>
	<time>2024-07-25T07:48:47.000Z</time>
</trkpt>
<trkpt lat="46.1002140" lon="10.4457560">
	<ele>1629.60</ele>
	<time>2024-07-25T07:48:48.000Z</time>
</trkpt>
<trkpt lat="46.1002140" lon="10.4457600">
	<ele>1629.60</ele>
	<time>2024-07-25T07:48:49.000Z</time>
</trkpt>
<trkpt lat="46.1002130" lon="10.4457630">
	<ele>1630.00</ele>
	<time>2024-07-25T07:48:50.000Z</time>
</trkpt>
<trkpt lat="46.1002130" lon="10.4457660">
	<ele>1630.20</ele>
	<time>2024-07-25T07:48:51.000Z</time>
</trkpt>
<trkpt lat="46.1002120" lon="10.4457680">
	<ele>1630.20</ele>
	<time>2024-07-25T07:48:52.000Z</time>
</trkpt>
<trkpt lat="46.1002120" lon="10.4457710">
	<ele>1630.40</ele>
	<time>2024-07-25T07:48:53.000Z</time>
</trkpt>
<trkpt lat="46.1002100" lon="10.4457740">
	<ele>1630.60</ele>
	<time>2024-07-25T07:48:54.000Z</time>
</trkpt>
<trkpt lat="46.1002080" lon="10.4457750">
	<ele>1630.60</ele>
	<time>2024-07-25T07:48:55.000Z</time>
</trkpt>
<trkpt lat="46.1002080" lon="10.4457770">
	<ele>1630.60</ele>
	<time>2024-07-25T07:48:56.000Z</time>
</trkpt>
<trkpt lat="46.1002070" lon="10.4457790">
	<ele>1630.60</ele>
	<time>2024-07-25T07:48:57.000Z</time>
</trkpt>
<trkpt lat="46.1002070" lon="10.4457810">
	<ele>1630.60</ele>
	<time>2024-07-25T07:48:58.000Z</time>
</trkpt>
<trkpt lat="46.1002070" lon="10.4457830">
	<ele>1630.60</ele>
	<time>2024-07-25T07:48:59.000Z</time>
</trkpt>
<trkpt lat="46.1002030" lon="10.4457870">
	<ele>1630.60</ele>
	<time>2024-07-25T07:49:00.000Z</time>
</trkpt>
<trkpt lat="46.1002010" lon="10.4457920">
	<ele>1630.60</ele>
	<time>2024-07-25T07:49:01.000Z</time>
</trkpt>
<trkpt lat="46.1001990" lon="10.4458030">
	<ele>1630.60</ele>
	<time>2024-07-25T07:49:02.000Z</time>
</trkpt>
<trkpt lat="46.1001960" lon="10.4458140">
	<ele>1630.60</ele>
	<time>2024-07-25T07:49:03.000Z</time>
</trkpt>
<trkpt lat="46.1001910" lon="10.4458280">
	<ele>1630.60</ele>
	<time>2024-07-25T07:49:04.000Z</time>
</trkpt>
<trkpt lat="46.1001870" lon="10.4458420">
	<ele>1630.60</ele>
	<time>2024-07-25T07:49:05.000Z</time>
</trkpt>
<trkpt lat="46.1001840" lon="10.4458570">
	<ele>1630.80</ele>
	<time>2024-07-25T07:49:06.000Z</time>
</trkpt>
<trkpt lat="46.1001840" lon="10.4458690">
	<ele>1630.80</ele>
	<time>2024-07-25T07:49:07.000Z</time>
</trkpt>
<trkpt lat="46.1001840" lon="10.4458800">
	<ele>1631.00</ele>
	<time>2024-07-25T07:49:08.000Z</time>
</trkpt>
<trkpt lat="46.1001840" lon="10.4458930">
	<ele>1631.20</ele>
	<time>2024-07-25T07:49:09.000Z</time>
</trkpt>
<trkpt lat="46.1001820" lon="10.4459080">
	<ele>1631.40</ele>
	<time>2024-07-25T07:49:10.000Z</time>
</trkpt>
<trkpt lat="46.1001790" lon="10.4459240">
	<ele>1631.60</ele>
	<time>2024-07-25T07:49:11.000Z</time>
</trkpt>
<trkpt lat="46.1001780" lon="10.4459350">
	<ele>1631.60</ele>
	<time>2024-07-25T07:49:12.000Z</time>
</trkpt>
<trkpt lat="46.1001750" lon="10.4459540">
	<ele>1631.80</ele>
	<time>2024-07-25T07:49:13.000Z</time>
</trkpt>
<trkpt lat="46.1001740" lon="10.4459700">
	<ele>1631.80</ele>
	<time>2024-07-25T07:49:14.000Z</time>
</trkpt>
<trkpt lat="46.1001720" lon="10.4459840">
	<ele>1632.00</ele>
	<time>2024-07-25T07:49:15.000Z</time>
</trkpt>
<trkpt lat="46.1001720" lon="10.4459970">
	<ele>1632.20</ele>
	<time>2024-07-25T07:49:16.000Z</time>
</trkpt>
<trkpt lat="46.1001710" lon="10.4460110">
	<ele>1632.20</ele>
	<time>2024-07-25T07:49:17.000Z</time>
</trkpt>
<trkpt lat="46.1001720" lon="10.4460270">
	<ele>1632.40</ele>
	<time>2024-07-25T07:49:18.000Z</time>
</trkpt>
<trkpt lat="46.1001690" lon="10.4460400">
	<ele>1632.40</ele>
	<time>2024-07-25T07:49:19.000Z</time>
</trkpt>
<trkpt lat="46.1001660" lon="10.4460540">
	<ele>1632.60</ele>
	<time>2024-07-25T07:49:20.000Z</time>
</trkpt>
<trkpt lat="46.1001680" lon="10.4460690">
	<ele>1632.60</ele>
	<time>2024-07-25T07:49:21.000Z</time>
</trkpt>
<trkpt lat="46.1001680" lon="10.4460860">
	<ele>1632.60</ele>
	<time>2024-07-25T07:49:22.000Z</time>
</trkpt>
<trkpt lat="46.1001650" lon="10.4461020">
	<ele>1632.80</ele>
	<time>2024-07-25T07:49:23.000Z</time>
</trkpt>
<trkpt lat="46.1001630" lon="10.4461150">
	<ele>1632.80</ele>
	<time>2024-07-25T07:49:24.000Z</time>
</trkpt>
<trkpt lat="46.1001590" lon="10.4461310">
	<ele>1632.80</ele>
	<time>2024-07-25T07:49:25.000Z</time>
</trkpt>
<trkpt lat="46.1001530" lon="10.4461530">
	<ele>1633.00</ele>
	<time>2024-07-25T07:49:26.000Z</time>
</trkpt>
<trkpt lat="46.1001480" lon="10.4461660">
	<ele>1633.20</ele>
	<time>2024-07-25T07:49:27.000Z</time>
</trkpt>
<trkpt lat="46.1001460" lon="10.4461760">
	<ele>1633.20</ele>
	<time>2024-07-25T07:49:28.000Z</time>
</trkpt>
<trkpt lat="46.1001460" lon="10.4461900">
	<ele>1633.40</ele>
	<time>2024-07-25T07:49:29.000Z</time>
</trkpt>
<trkpt lat="46.1001460" lon="10.4462070">
	<ele>1633.60</ele>
	<time>2024-07-25T07:49:30.000Z</time>
</trkpt>
<trkpt lat="46.1001460" lon="10.4462210">
	<ele>1633.60</ele>
	<time>2024-07-25T07:49:31.000Z</time>
</trkpt>
<trkpt lat="46.1001500" lon="10.4462370">
	<ele>1633.80</ele>
	<time>2024-07-25T07:49:32.000Z</time>
</trkpt>
<trkpt lat="46.1001520" lon="10.4462510">
	<ele>1634.00</ele>
	<time>2024-07-25T07:49:33.000Z</time>
</trkpt>
<trkpt lat="46.1001510" lon="10.4462690">
	<ele>1634.20</ele>
	<time>2024-07-25T07:49:34.000Z</time>
</trkpt>
<trkpt lat="46.1001500" lon="10.4462890">
	<ele>1634.20</ele>
	<time>2024-07-25T07:49:35.000Z</time>
</trkpt>
<trkpt lat="46.1001530" lon="10.4463090">
	<ele>1634.40</ele>
	<time>2024-07-25T07:49:36.000Z</time>
</trkpt>
<trkpt lat="46.1001570" lon="10.4463300">
	<ele>1634.40</ele>
	<time>2024-07-25T07:49:37.000Z</time>
</trkpt>
<trkpt lat="46.1001620" lon="10.4463470">
	<ele>1634.60</ele>
	<time>2024-07-25T07:49:38.000Z</time>
</trkpt>
<trkpt lat="46.1001660" lon="10.4463640">
	<ele>1634.60</ele>
	<time>2024-07-25T07:49:39.000Z</time>
</trkpt>
<trkpt lat="46.1001730" lon="10.4463840">
	<ele>1634.60</ele>
	<time>2024-07-25T07:49:40.000Z</time>
</trkpt>
<trkpt lat="46.1001800" lon="10.4463950">
	<ele>1634.80</ele>
	<time>2024-07-25T07:49:41.000Z</time>
</trkpt>
<trkpt lat="46.1001880" lon="10.4464070">
	<ele>1634.80</ele>
	<time>2024-07-25T07:49:42.000Z</time>
</trkpt>
<trkpt lat="46.1001930" lon="10.4464200">
	<ele>1634.80</ele>
	<time>2024-07-25T07:49:43.000Z</time>
</trkpt>
<trkpt lat="46.1001970" lon="10.4464370">
	<ele>1635.00</ele>
	<time>2024-07-25T07:49:44.000Z</time>
</trkpt>
<trkpt lat="46.1001990" lon="10.4464470">
	<ele>1635.20</ele>
	<time>2024-07-25T07:49:45.000Z</time>
</trkpt>
<trkpt lat="46.1002090" lon="10.4464600">
	<ele>1635.40</ele>
	<time>2024-07-25T07:49:46.000Z</time>
</trkpt>
<trkpt lat="46.1002160" lon="10.4464710">
	<ele>1635.60</ele>
	<time>2024-07-25T07:49:47.000Z</time>
</trkpt>
<trkpt lat="46.1002250" lon="10.4464820">
	<ele>1635.80</ele>
	<time>2024-07-25T07:49:48.000Z</time>
</trkpt>
<trkpt lat="46.1002330" lon="10.4464930">
	<ele>1636.00</ele>
	<time>2024-07-25T07:49:49.000Z</time>
</trkpt>
<trkpt lat="46.1002410" lon="10.4465010">
	<ele>1636.20</ele>
	<time>2024-07-25T07:49:50.000Z</time>
</trkpt>
<trkpt lat="46.1002470" lon="10.4465100">
	<ele>1636.20</ele>
	<time>2024-07-25T07:49:51.000Z</time>
</trkpt>
<trkpt lat="46.1002510" lon="10.4465190">
	<ele>1636.40</ele>
	<time>2024-07-25T07:49:52.000Z</time>
</trkpt>
<trkpt lat="46.1002550" lon="10.4465180">
	<ele>1636.60</ele>
	<time>2024-07-25T07:49:53.000Z</time>
</trkpt>
<trkpt lat="46.1002650" lon="10.4465230">
	<ele>1636.60</ele>
	<time>2024-07-25T07:49:54.000Z</time>
</trkpt>
<trkpt lat="46.1002720" lon="10.4465280">
	<ele>1636.80</ele>
	<time>2024-07-25T07:49:55.000Z</time>
</trkpt>
<trkpt lat="46.1002740" lon="10.4465390">
	<ele>1636.80</ele>
	<time>2024-07-25T07:49:56.000Z</time>
</trkpt>
<trkpt lat="46.1002750" lon="10.4465540">
	<ele>1637.00</ele>
	<time>2024-07-25T07:49:57.000Z</time>
</trkpt>
<trkpt lat="46.1002810" lon="10.4465640">
	<ele>1637.20</ele>
	<time>2024-07-25T07:49:58.000Z</time>
</trkpt>
<trkpt lat="46.1002880" lon="10.4465660">
	<ele>1637.40</ele>
	<time>2024-07-25T07:49:59.000Z</time>
</trkpt>
<trkpt lat="46.1002950" lon="10.4465720">
	<ele>1637.40</ele>
	<time>2024-07-25T07:50:00.000Z</time>
</trkpt>
<trkpt lat="46.1003000" lon="10.4465830">
	<ele>1637.60</ele>
	<time>2024-07-25T07:50:01.000Z</time>
</trkpt>
<trkpt lat="46.1003060" lon="10.4465940">
	<ele>1637.60</ele>
	<time>2024-07-25T07:50:02.000Z</time>
</trkpt>
<trkpt lat="46.1003120" lon="10.4466040">
	<ele>1637.60</ele>
	<time>2024-07-25T07:50:03.000Z</time>
</trkpt>
<trkpt lat="46.1003160" lon="10.4466130">
	<ele>1637.80</ele>
	<time>2024-07-25T07:50:04.000Z</time>
</trkpt>
<trkpt lat="46.1003220" lon="10.4466220">
	<ele>1637.80</ele>
	<time>2024-07-25T07:50:05.000Z</time>
</trkpt>
<trkpt lat="46.1003280" lon="10.4466340">
	<ele>1638.00</ele>
	<time>2024-07-25T07:50:06.000Z</time>
</trkpt>
<trkpt lat="46.1003300" lon="10.4466470">
	<ele>1638.00</ele>
	<time>2024-07-25T07:50:07.000Z</time>
</trkpt>
<trkpt lat="46.1003370" lon="10.4466600">
	<ele>1638.40</ele>
	<time>2024-07-25T07:50:08.000Z</time>
</trkpt>
<trkpt lat="46.1003450" lon="10.4466710">
	<ele>1638.60</ele>
	<time>2024-07-25T07:50:09.000Z</time>
</trkpt>
<trkpt lat="46.1003510" lon="10.4466830">
	<ele>1638.60</ele>
	<time>2024-07-25T07:50:10.000Z</time>
</trkpt>
<trkpt lat="46.1003540" lon="10.4466920">
	<ele>1638.80</ele>
	<time>2024-07-25T07:50:11.000Z</time>
</trkpt>
<trkpt lat="46.1003590" lon="10.4467040">
	<ele>1639.00</ele>
	<time>2024-07-25T07:50:12.000Z</time>
</trkpt>
<trkpt lat="46.1003660" lon="10.4467170">
	<ele>1639.20</ele>
	<time>2024-07-25T07:50:13.000Z</time>
</trkpt>
<trkpt lat="46.1003720" lon="10.4467300">
	<ele>1639.20</ele>
	<time>2024-07-25T07:50:14.000Z</time>
</trkpt>
<trkpt lat="46.1003750" lon="10.4467420">
	<ele>1639.40</ele>
	<time>2024-07-25T07:50:15.000Z</time>
</trkpt>
<trkpt lat="46.1003780" lon="10.4467530">
	<ele>1639.40</ele>
	<time>2024-07-25T07:50:16.000Z</time>
</trkpt>
<trkpt lat="46.1003830" lon="10.4467670">
	<ele>1639.60</ele>
	<time>2024-07-25T07:50:17.000Z</time>
</trkpt>
<trkpt lat="46.1003870" lon="10.4467770">
	<ele>1639.80</ele>
	<time>2024-07-25T07:50:18.000Z</time>
</trkpt>
<trkpt lat="46.1003920" lon="10.4467870">
	<ele>1639.80</ele>
	<time>2024-07-25T07:50:19.000Z</time>
</trkpt>
<trkpt lat="46.1003980" lon="10.4467980">
	<ele>1640.00</ele>
	<time>2024-07-25T07:50:20.000Z</time>
</trkpt>
<trkpt lat="46.1004030" lon="10.4468070">
	<ele>1640.20</ele>
	<time>2024-07-25T07:50:21.000Z</time>
</trkpt>
<trkpt lat="46.1004090" lon="10.4468190">
	<ele>1640.40</ele>
	<time>2024-07-25T07:50:22.000Z</time>
</trkpt>
<trkpt lat="46.1004190" lon="10.4468310">
	<ele>1640.60</ele>
	<time>2024-07-25T07:50:23.000Z</time>
</trkpt>
<trkpt lat="46.1004270" lon="10.4468400">
	<ele>1640.60</ele>
	<time>2024-07-25T07:50:24.000Z</time>
</trkpt>
<trkpt lat="46.1004350" lon="10.4468510">
	<ele>1640.80</ele>
	<time>2024-07-25T07:50:25.000Z</time>
</trkpt>
<trkpt lat="46.1004380" lon="10.4468610">
	<ele>1640.80</ele>
	<time>2024-07-25T07:50:26.000Z</time>
</trkpt>
<trkpt lat="46.1004450" lon="10.4468740">
	<ele>1641.00</ele>
	<time>2024-07-25T07:50:27.000Z</time>
</trkpt>
<trkpt lat="46.1004520" lon="10.4468890">
	<ele>1641.00</ele>
	<time>2024-07-25T07:50:28.000Z</time>
</trkpt>
<trkpt lat="46.1004610" lon="10.4469010">
	<ele>1641.20</ele>
	<time>2024-07-25T07:50:29.000Z</time>
</trkpt>
<trkpt lat="46.1004680" lon="10.4469140">
	<ele>1641.20</ele>
	<time>2024-07-25T07:50:30.000Z</time>
</trkpt>
<trkpt lat="46.1004710" lon="10.4469290">
	<ele>1641.40</ele>
	<time>2024-07-25T07:50:31.000Z</time>
</trkpt>
<trkpt lat="46.1004760" lon="10.4469410">
	<ele>1641.60</ele>
	<time>2024-07-25T07:50:32.000Z</time>
</trkpt>
<trkpt lat="46.1004810" lon="10.4469500">
	<ele>1641.80</ele>
	<time>2024-07-25T07:50:33.000Z</time>
</trkpt>
<trkpt lat="46.1004870" lon="10.4469580">
	<ele>1641.80</ele>
	<time>2024-07-25T07:50:34.000Z</time>
</trkpt>
<trkpt lat="46.1004910" lon="10.4469680">
	<ele>1642.00</ele>
	<time>2024-07-25T07:50:35.000Z</time>
</trkpt>
<trkpt lat="46.1004920" lon="10.4469800">
	<ele>1642.20</ele>
	<time>2024-07-25T07:50:36.000Z</time>
</trkpt>
<trkpt lat="46.1004940" lon="10.4469910">
	<ele>1642.60</ele>
	<time>2024-07-25T07:50:37.000Z</time>
</trkpt>
<trkpt lat="46.1004940" lon="10.4470010">
	<ele>1642.80</ele>
	<time>2024-07-25T07:50:38.000Z</time>
</trkpt>
<trkpt lat="46.1004970" lon="10.4470150">
	<ele>1643.00</ele>
	<time>2024-07-25T07:50:39.000Z</time>
</trkpt>
<trkpt lat="46.1004980" lon="10.4470230">
	<ele>1643.20</ele>
	<time>2024-07-25T07:50:40.000Z</time>
</trkpt>
<trkpt lat="46.1005020" lon="10.4470320">
	<ele>1643.40</ele>
	<time>2024-07-25T07:50:41.000Z</time>
</trkpt>
<trkpt lat="46.1005060" lon="10.4470440">
	<ele>1643.60</ele>
	<time>2024-07-25T07:50:42.000Z</time>
</trkpt>
<trkpt lat="46.1005100" lon="10.4470570">
	<ele>1643.80</ele>
	<time>2024-07-25T07:50:43.000Z</time>
</trkpt>
<trkpt lat="46.1005120" lon="10.4470710">
	<ele>1644.00</ele>
	<time>2024-07-25T07:50:44.000Z</time>
</trkpt>
<trkpt lat="46.1005140" lon="10.4470870">
	<ele>1644.20</ele>
	<time>2024-07-25T07:50:45.000Z</time>
</trkpt>
<trkpt lat="46.1005180" lon="10.4470990">
	<ele>1644.20</ele>
	<time>2024-07-25T07:50:46.000Z</time>
</trkpt>
<trkpt lat="46.1005230" lon="10.4471130">
	<ele>1644.40</ele>
	<time>2024-07-25T07:50:47.000Z</time>
</trkpt>
<trkpt lat="46.1005280" lon="10.4471230">
	<ele>1644.60</ele>
	<time>2024-07-25T07:50:48.000Z</time>
</trkpt>
<trkpt lat="46.1005320" lon="10.4471330">
	<ele>1644.80</ele>
	<time>2024-07-25T07:50:49.000Z</time>
</trkpt>
<trkpt lat="46.1005370" lon="10.4471440">
	<ele>1645.00</ele>
	<time>2024-07-25T07:50:50.000Z</time>
</trkpt>
<trkpt lat="46.1005410" lon="10.4471530">
	<ele>1645.20</ele>
	<time>2024-07-25T07:50:51.000Z</time>
</trkpt>
<trkpt lat="46.1005450" lon="10.4471650">
	<ele>1645.40</ele>
	<time>2024-07-25T07:50:52.000Z</time>
</trkpt>
<trkpt lat="46.1005460" lon="10.4471770">
	<ele>1645.60</ele>
	<time>2024-07-25T07:50:53.000Z</time>
</trkpt>
<trkpt lat="46.1005480" lon="10.4471860">
	<ele>1645.80</ele>
	<time>2024-07-25T07:50:54.000Z</time>
</trkpt>
<trkpt lat="46.1005510" lon="10.4471940">
	<ele>1646.00</ele>
	<time>2024-07-25T07:50:55.000Z</time>
</trkpt>
<trkpt lat="46.1005530" lon="10.4472040">
	<ele>1646.20</ele>
	<time>2024-07-25T07:50:56.000Z</time>
</trkpt>
<trkpt lat="46.1005520" lon="10.4472140">
	<ele>1646.40</ele>
	<time>2024-07-25T07:50:57.000Z</time>
</trkpt>
<trkpt lat="46.1005600" lon="10.4472250">
	<ele>1646.60</ele>
	<time>2024-07-25T07:50:58.000Z</time>
</trkpt>
<trkpt lat="46.1005670" lon="10.4472340">
	<ele>1646.80</ele>
	<time>2024-07-25T07:50:59.000Z</time>
</trkpt>
<trkpt lat="46.1005710" lon="10.4472430">
	<ele>1647.00</ele>
	<time>2024-07-25T07:51:00.000Z</time>
</trkpt>
<trkpt lat="46.1005760" lon="10.4472520">
	<ele>1647.20</ele>
	<time>2024-07-25T07:51:01.000Z</time>
</trkpt>
<trkpt lat="46.1005810" lon="10.4472720">
	<ele>1647.40</ele>
	<time>2024-07-25T07:51:02.000Z</time>
</trkpt>
<trkpt lat="46.1005830" lon="10.4472820">
	<ele>1647.60</ele>
	<time>2024-07-25T07:51:03.000Z</time>
</trkpt>
<trkpt lat="46.1005930" lon="10.4472910">
	<ele>1647.80</ele>
	<time>2024-07-25T07:51:04.000Z</time>
</trkpt>
<trkpt lat="46.1005980" lon="10.4473030">
	<ele>1647.80</ele>
	<time>2024-07-25T07:51:05.000Z</time>
</trkpt>
<trkpt lat="46.1005990" lon="10.4473130">
	<ele>1648.00</ele>
	<time>2024-07-25T07:51:06.000Z</time>
</trkpt>
<trkpt lat="46.1006000" lon="10.4473220">
	<ele>1648.20</ele>
	<time>2024-07-25T07:51:07.000Z</time>
</trkpt>
<trkpt lat="46.1006010" lon="10.4473270">
	<ele>1648.40</ele>
	<time>2024-07-25T07:51:08.000Z</time>
</trkpt>
<trkpt lat="46.1006050" lon="10.4473330">
	<ele>1648.60</ele>
	<time>2024-07-25T07:51:09.000Z</time>
</trkpt>
<trkpt lat="46.1006060" lon="10.4473440">
	<ele>1648.60</ele>
	<time>2024-07-25T07:51:10.000Z</time>
</trkpt>
<trkpt lat="46.1006100" lon="10.4473570">
	<ele>1648.80</ele>
	<time>2024-07-25T07:51:11.000Z</time>
</trkpt>
<trkpt lat="46.1006170" lon="10.4473680">
	<ele>1648.80</ele>
	<time>2024-07-25T07:51:12.000Z</time>
</trkpt>
<trkpt lat="46.1006210" lon="10.4473720">
	<ele>1649.00</ele>
	<time>2024-07-25T07:51:13.000Z</time>
</trkpt>
<trkpt lat="46.1006220" lon="10.4473740">
	<ele>1649.20</ele>
	<time>2024-07-25T07:51:14.000Z</time>
</trkpt>
<trkpt lat="46.1006220" lon="10.4473760">
	<ele>1649.40</ele>
	<time>2024-07-25T07:51:15.000Z</time>
</trkpt>
<trkpt lat="46.1006220" lon="10.4473750">
	<ele>1649.60</ele>
	<time>2024-07-25T07:51:16.000Z</time>
</trkpt>
<trkpt lat="46.1006230" lon="10.4473760">
	<ele>1649.60</ele>
	<time>2024-07-25T07:51:17.000Z</time>
</trkpt>
<trkpt lat="46.1006310" lon="10.4473760">
	<ele>1649.80</ele>
	<time>2024-07-25T07:51:18.000Z</time>
</trkpt>
<trkpt lat="46.1006360" lon="10.4473810">
	<ele>1649.80</ele>
	<time>2024-07-25T07:51:19.000Z</time>
</trkpt>
<trkpt lat="46.1006390" lon="10.4473880">
	<ele>1649.80</ele>
	<time>2024-07-25T07:51:20.000Z</time>
</trkpt>
<trkpt lat="46.1006450" lon="10.4473940">
	<ele>1649.80</ele>
	<time>2024-07-25T07:51:21.000Z</time>
</trkpt>
<trkpt lat="46.1006490" lon="10.4474030">
	<ele>1649.80</ele>
	<time>2024-07-25T07:51:22.000Z</time>
</trkpt>
<trkpt lat="46.1006550" lon="10.4474130">
	<ele>1650.00</ele>
	<time>2024-07-25T07:51:23.000Z</time>
</trkpt>
<trkpt lat="46.1006620" lon="10.4474270">
	<ele>1650.40</ele>
	<time>2024-07-25T07:51:24.000Z</time>
</trkpt>
<trkpt lat="46.1006680" lon="10.4474360">
	<ele>1650.60</ele>
	<time>2024-07-25T07:51:25.000Z</time>
</trkpt>
<trkpt lat="46.1006740" lon="10.4474450">
	<ele>1650.80</ele>
	<time>2024-07-25T07:51:26.000Z</time>
</trkpt>
<trkpt lat="46.1006800" lon="10.4474590">
	<ele>1651.20</ele>
	<time>2024-07-25T07:51:27.000Z</time>
</trkpt>
<trkpt lat="46.1006910" lon="10.4474750">
	<ele>1651.40</ele>
	<time>2024-07-25T07:51:28.000Z</time>
</trkpt>
<trkpt lat="46.1007000" lon="10.4474890">
	<ele>1651.40</ele>
	<time>2024-07-25T07:51:29.000Z</time>
</trkpt>
<trkpt lat="46.1007050" lon="10.4474990">
	<ele>1651.60</ele>
	<time>2024-07-25T07:51:30.000Z</time>
</trkpt>
<trkpt lat="46.1007130" lon="10.4475080">
	<ele>1651.60</ele>
	<time>2024-07-25T07:51:31.000Z</time>
</trkpt>
<trkpt lat="46.1007200" lon="10.4475150">
	<ele>1651.60</ele>
	<time>2024-07-25T07:51:32.000Z</time>
</trkpt>
<trkpt lat="46.1007270" lon="10.4475250">
	<ele>1651.60</ele>
	<time>2024-07-25T07:51:33.000Z</time>
</trkpt>
<trkpt lat="46.1007300" lon="10.4475420">
	<ele>1652.00</ele>
	<time>2024-07-25T07:51:34.000Z</time>
</trkpt>
<trkpt lat="46.1007330" lon="10.4475600">
	<ele>1652.00</ele>
	<time>2024-07-25T07:51:35.000Z</time>
</trkpt>
<trkpt lat="46.1007390" lon="10.4475720">
	<ele>1652.20</ele>
	<time>2024-07-25T07:51:36.000Z</time>
</trkpt>
<trkpt lat="46.1007440" lon="10.4475830">
	<ele>1652.40</ele>
	<time>2024-07-25T07:51:37.000Z</time>
</trkpt>
<trkpt lat="46.1007490" lon="10.4475900">
	<ele>1652.60</ele>
	<time>2024-07-25T07:51:38.000Z</time>
</trkpt>
<trkpt lat="46.1007580" lon="10.4476000">
	<ele>1652.80</ele>
	<time>2024-07-25T07:51:39.000Z</time>
</trkpt>
<trkpt lat="46.1007660" lon="10.4476040">
	<ele>1653.00</ele>
	<time>2024-07-25T07:51:40.000Z</time>
</trkpt>
<trkpt lat="46.1007750" lon="10.4476070">
	<ele>1653.20</ele>
	<time>2024-07-25T07:51:41.000Z</time>
</trkpt>
<trkpt lat="46.1007830" lon="10.4476090">
	<ele>1653.20</ele>
	<time>2024-07-25T07:51:42.000Z</time>
</trkpt>
<trkpt lat="46.1007890" lon="10.4476150">
	<ele>1653.40</ele>
	<time>2024-07-25T07:51:43.000Z</time>
</trkpt>
<trkpt lat="46.1007900" lon="10.4476230">
	<ele>1653.60</ele>
	<time>2024-07-25T07:51:44.000Z</time>
</trkpt>
<trkpt lat="46.1007930" lon="10.4476300">
	<ele>1653.80</ele>
	<time>2024-07-25T07:51:45.000Z</time>
</trkpt>
<trkpt lat="46.1008000" lon="10.4476350">
	<ele>1653.80</ele>
	<time>2024-07-25T07:51:46.000Z</time>
</trkpt>
<trkpt lat="46.1008120" lon="10.4476420">
	<ele>1654.00</ele>
	<time>2024-07-25T07:51:47.000Z</time>
</trkpt>
<trkpt lat="46.1008200" lon="10.4476480">
	<ele>1654.00</ele>
	<time>2024-07-25T07:51:48.000Z</time>
</trkpt>
<trkpt lat="46.1008320" lon="10.4476560">
	<ele>1654.20</ele>
	<time>2024-07-25T07:51:49.000Z</time>
</trkpt>
<trkpt lat="46.1008430" lon="10.4476600">
	<ele>1654.20</ele>
	<time>2024-07-25T07:51:50.000Z</time>
</trkpt>
<trkpt lat="46.1008480" lon="10.4476660">
	<ele>1654.40</ele>
	<time>2024-07-25T07:51:51.000Z</time>
</trkpt>
<trkpt lat="46.1008580" lon="10.4476600">
	<ele>1654.40</ele>
	<time>2024-07-25T07:51:52.000Z</time>
</trkpt>
<trkpt lat="46.1008690" lon="10.4476510">
	<ele>1654.60</ele>
	<time>2024-07-25T07:51:53.000Z</time>
</trkpt>
<trkpt lat="46.1008800" lon="10.4476430">
	<ele>1654.60</ele>
	<time>2024-07-25T07:51:54.000Z</time>
</trkpt>
<trkpt lat="46.1008860" lon="10.4476380">
	<ele>1654.80</ele>
	<time>2024-07-25T07:51:55.000Z</time>
</trkpt>
<trkpt lat="46.1008880" lon="10.4476330">
	<ele>1655.00</ele>
	<time>2024-07-25T07:51:56.000Z</time>
</trkpt>
<trkpt lat="46.1008900" lon="10.4476330">
	<ele>1655.00</ele>
	<time>2024-07-25T07:51:57.000Z</time>
</trkpt>
<trkpt lat="46.1008910" lon="10.4476350">
	<ele>1655.00</ele>
	<time>2024-07-25T07:51:58.000Z</time>
</trkpt>
<trkpt lat="46.1008910" lon="10.4476370">
	<ele>1655.00</ele>
	<time>2024-07-25T07:51:59.000Z</time>
</trkpt>
<trkpt lat="46.1008900" lon="10.4476370">
	<ele>1655.20</ele>
	<time>2024-07-25T07:52:00.000Z</time>
</trkpt>
<trkpt lat="46.1008900" lon="10.4476360">
	<ele>1655.20</ele>
	<time>2024-07-25T07:52:01.000Z</time>
</trkpt>
<trkpt lat="46.1008930" lon="10.4476370">
	<ele>1655.20</ele>
	<time>2024-07-25T07:52:02.000Z</time>
</trkpt>
<trkpt lat="46.1008950" lon="10.4476360">
	<ele>1655.40</ele>
	<time>2024-07-25T07:52:03.000Z</time>
</trkpt>
<trkpt lat="46.1008980" lon="10.4476340">
	<ele>1655.40</ele>
	<time>2024-07-25T07:52:04.000Z</time>
</trkpt>
<trkpt lat="46.1008980" lon="10.4476310">
	<ele>1655.40</ele>
	<time>2024-07-25T07:52:05.000Z</time>
</trkpt>
<trkpt lat="46.1008990" lon="10.4476300">
	<ele>1655.60</ele>
	<time>2024-07-25T07:52:06.000Z</time>
</trkpt>
<trkpt lat="46.1008990" lon="10.4476300">
	<ele>1655.60</ele>
	<time>2024-07-25T07:52:07.000Z</time>
</trkpt>
<trkpt lat="46.1008990" lon="10.4476300">
	<ele>1655.60</ele>
	<time>2024-07-25T07:52:08.000Z</time>
</trkpt>
<trkpt lat="46.1008990" lon="10.4476300">
	<ele>1655.60</ele>
	<time>2024-07-25T07:52:09.000Z</time>
</trkpt>
<trkpt lat="46.1008990" lon="10.4476300">
	<ele>1655.60</ele>
	<time>2024-07-25T07:52:10.000Z</time>
</trkpt>
<trkpt lat="46.1008990" lon="10.4476300">
	<ele>1655.60</ele>
	<time>2024-07-25T07:52:11.000Z</time>
</trkpt>
<trkpt lat="46.1008990" lon="10.4476300">
	<ele>1655.60</ele>
	<time>2024-07-25T07:52:12.000Z</time>
</trkpt>
<trkpt lat="46.1008990" lon="10.4476300">
	<ele>1655.60</ele>
	<time>2024-07-25T07:52:13.000Z</time>
</trkpt>
<trkpt lat="46.1008990" lon="10.4476300">
	<ele>1655.60</ele>
	<time>2024-07-25T07:52:14.000Z</time>
</trkpt>
<trkpt lat="46.1008990" lon="10.4476300">
	<ele>1655.60</ele>
	<time>2024-07-25T07:52:15.000Z</time>
</trkpt>
<trkpt lat="46.1008990" lon="10.4476300">
	<ele>1655.60</ele>
	<time>2024-07-25T07:52:16.000Z</time>
</trkpt>
<trkpt lat="46.1008990" lon="10.4476300">
	<ele>1655.60</ele>
	<time>2024-07-25T07:52:17.000Z</time>
</trkpt>
<trkpt lat="46.1008990" lon="10.4476300">
	<ele>1655.60</ele>
	<time>2024-07-25T07:52:18.000Z</time>
</trkpt>
<trkpt lat="46.1008990" lon="10.4476300">
	<ele>1655.60</ele>
	<time>2024-07-25T07:52:19.000Z</time>
</trkpt>
<trkpt lat="46.1008990" lon="10.4476300">
	<ele>1655.40</ele>
	<time>2024-07-25T07:52:20.000Z</time>
</trkpt>
<trkpt lat="46.1008990" lon="10.4476300">
	<ele>1655.40</ele>
	<time>2024-07-25T07:52:21.000Z</time>
</trkpt>
<trkpt lat="46.1008990" lon="10.4476300">
	<ele>1655.40</ele>
	<time>2024-07-25T07:52:22.000Z</time>
</trkpt>
<trkpt lat="46.1008990" lon="10.4476300">
	<ele>1655.40</ele>
	<time>2024-07-25T07:52:23.000Z</time>
</trkpt>
<trkpt lat="46.1008990" lon="10.4476300">
	<ele>1655.40</ele>
	<time>2024-07-25T07:52:24.000Z</time>
</trkpt>
<trkpt lat="46.1009000" lon="10.4476300">
	<ele>1655.40</ele>
	<time>2024-07-25T07:52:25.000Z</time>
</trkpt>
<trkpt lat="46.1009000" lon="10.4476300">
	<ele>1655.40</ele>
	<time>2024-07-25T07:52:26.000Z</time>
</trkpt>
<trkpt lat="46.1009000" lon="10.4476300">
	<ele>1655.40</ele>
	<time>2024-07-25T07:52:27.000Z</time>
</trkpt>
<trkpt lat="46.1009000" lon="10.4476290">
	<ele>1655.60</ele>
	<time>2024-07-25T07:52:28.000Z</time>
</trkpt>
<trkpt lat="46.1009000" lon="10.4476270">
	<ele>1655.60</ele>
	<time>2024-07-25T07:52:29.000Z</time>
</trkpt>
<trkpt lat="46.1009000" lon="10.4476250">
	<ele>1655.60</ele>
	<time>2024-07-25T07:52:30.000Z</time>
</trkpt>
<trkpt lat="46.1009010" lon="10.4476250">
	<ele>1655.60</ele>
	<time>2024-07-25T07:52:31.000Z</time>
</trkpt>
<trkpt lat="46.1009010" lon="10.4476250">
	<ele>1655.60</ele>
	<time>2024-07-25T07:52:32.000Z</time>
</trkpt>
<trkpt lat="46.1009010" lon="10.4476230">
	<ele>1655.60</ele>
	<time>2024-07-25T07:52:33.000Z</time>
</trkpt>
<trkpt lat="46.1009020" lon="10.4476210">
	<ele>1655.60</ele>
	<time>2024-07-25T07:52:34.000Z</time>
</trkpt>
<trkpt lat="46.1009020" lon="10.4476200">
	<ele>1655.40</ele>
	<time>2024-07-25T07:52:35.000Z</time>
</trkpt>
<trkpt lat="46.1009080" lon="10.4476190">
	<ele>1655.40</ele>
	<time>2024-07-25T07:52:36.000Z</time>
</trkpt>
<trkpt lat="46.1009100" lon="10.4476190">
	<ele>1655.20</ele>
	<time>2024-07-25T07:52:37.000Z</time>
</trkpt>
<trkpt lat="46.1009150" lon="10.4476170">
	<ele>1655.20</ele>
	<time>2024-07-25T07:52:38.000Z</time>
</trkpt>
<trkpt lat="46.1009180" lon="10.4476170">
	<ele>1655.20</ele>
	<time>2024-07-25T07:52:39.000Z</time>
</trkpt>
<trkpt lat="46.1009220" lon="10.4476150">
	<ele>1655.20</ele>
	<time>2024-07-25T07:52:40.000Z</time>
</trkpt>
<trkpt lat="46.1009260" lon="10.4476150">
	<ele>1655.20</ele>
	<time>2024-07-25T07:52:41.000Z</time>
</trkpt>
<trkpt lat="46.1009290" lon="10.4476140">
	<ele>1655.20</ele>
	<time>2024-07-25T07:52:42.000Z</time>
</trkpt>
<trkpt lat="46.1009320" lon="10.4476120">
	<ele>1655.00</ele>
	<time>2024-07-25T07:52:43.000Z</time>
</trkpt>
<trkpt lat="46.1009370" lon="10.4476100">
	<ele>1655.00</ele>
	<time>2024-07-25T07:52:44.000Z</time>
</trkpt>
<trkpt lat="46.1009400" lon="10.4476090">
	<ele>1655.20</ele>
	<time>2024-07-25T07:52:45.000Z</time>
</trkpt>
<trkpt lat="46.1009430" lon="10.4476070">
	<ele>1655.40</ele>
	<time>2024-07-25T07:52:46.000Z</time>
</trkpt>
<trkpt lat="46.1009460" lon="10.4476050">
	<ele>1655.40</ele>
	<time>2024-07-25T07:52:47.000Z</time>
</trkpt>
<trkpt lat="46.1009490" lon="10.4476000">
	<ele>1655.60</ele>
	<time>2024-07-25T07:52:48.000Z</time>
</trkpt>
<trkpt lat="46.1009560" lon="10.4475880">
	<ele>1655.60</ele>
	<time>2024-07-25T07:52:49.000Z</time>
</trkpt>
<trkpt lat="46.1009580" lon="10.4475790">
	<ele>1655.80</ele>
	<time>2024-07-25T07:52:50.000Z</time>
</trkpt>
<trkpt lat="46.1009590" lon="10.4475700">
	<ele>1655.80</ele>
	<time>2024-07-25T07:52:51.000Z</time>
</trkpt>
<trkpt lat="46.1009640" lon="10.4475610">
	<ele>1655.80</ele>
	<time>2024-07-25T07:52:52.000Z</time>
</trkpt>
<trkpt lat="46.1009770" lon="10.4475510">
	<ele>1656.00</ele>
	<time>2024-07-25T07:52:53.000Z</time>
</trkpt>
<trkpt lat="46.1009930" lon="10.4475420">
	<ele>1656.20</ele>
	<time>2024-07-25T07:52:54.000Z</time>
</trkpt>
<trkpt lat="46.1010160" lon="10.4475350">
	<ele>1656.20</ele>
	<time>2024-07-25T07:52:55.000Z</time>
</trkpt>
<trkpt lat="46.1010310" lon="10.4475250">
	<ele>1656.40</ele>
	<time>2024-07-25T07:52:56.000Z</time>
</trkpt>
<trkpt lat="46.1010430" lon="10.4475270">
	<ele>1656.40</ele>
	<time>2024-07-25T07:52:57.000Z</time>
</trkpt>
<trkpt lat="46.1010510" lon="10.4475290">
	<ele>1656.60</ele>
	<time>2024-07-25T07:52:58.000Z</time>
</trkpt>
<trkpt lat="46.1010530" lon="10.4475410">
	<ele>1656.80</ele>
	<time>2024-07-25T07:52:59.000Z</time>
</trkpt>
<trkpt lat="46.1010580" lon="10.4475520">
	<ele>1657.00</ele>
	<time>2024-07-25T07:53:00.000Z</time>
</trkpt>
<trkpt lat="46.1010590" lon="10.4475600">
	<ele>1657.20</ele>
	<time>2024-07-25T07:53:01.000Z</time>
</trkpt>
<trkpt lat="46.1010600" lon="10.4475620">
	<ele>1657.20</ele>
	<time>2024-07-25T07:53:02.000Z</time>
</trkpt>
<trkpt lat="46.1010610" lon="10.4475620">
	<ele>1657.20</ele>
	<time>2024-07-25T07:53:03.000Z</time>
</trkpt>
<trkpt lat="46.1010620" lon="10.4475500">
	<ele>1657.20</ele>
	<time>2024-07-25T07:53:04.000Z</time>
</trkpt>
<trkpt lat="46.1010620" lon="10.4475490">
	<ele>1657.60</ele>
	<time>2024-07-25T07:53:05.000Z</time>
</trkpt>
<trkpt lat="46.1010580" lon="10.4475520">
	<ele>1657.80</ele>
	<time>2024-07-25T07:53:06.000Z</time>
</trkpt>
<trkpt lat="46.1010520" lon="10.4475520">
	<ele>1658.00</ele>
	<time>2024-07-25T07:53:07.000Z</time>
</trkpt>
<trkpt lat="46.1010470" lon="10.4475520">
	<ele>1658.00</ele>
	<time>2024-07-25T07:53:08.000Z</time>
</trkpt>
<trkpt lat="46.1010460" lon="10.4475520">
	<ele>1658.00</ele>
	<time>2024-07-25T07:53:09.000Z</time>
</trkpt>
<trkpt lat="46.1010460" lon="10.4475520">
	<ele>1658.00</ele>
	<time>2024-07-25T07:53:10.000Z</time>
</trkpt>
<trkpt lat="46.1010460" lon="10.4475520">
	<ele>1658.00</ele>
	<time>2024-07-25T07:53:11.000Z</time>
</trkpt>
<trkpt lat="46.1010460" lon="10.4475520">
	<ele>1658.00</ele>
	<time>2024-07-25T07:53:12.000Z</time>
</trkpt>
<trkpt lat="46.1010460" lon="10.4475520">
	<ele>1658.20</ele>
	<time>2024-07-25T07:53:13.000Z</time>
</trkpt>
<trkpt lat="46.1010460" lon="10.4475520">
	<ele>1658.00</ele>
	<time>2024-07-25T07:53:14.000Z</time>
</trkpt>
<trkpt lat="46.1010460" lon="10.4475520">
	<ele>1657.80</ele>
	<time>2024-07-25T07:53:15.000Z</time>
</trkpt>
<trkpt lat="46.1010460" lon="10.4475520">
	<ele>1657.60</ele>
	<time>2024-07-25T07:53:16.000Z</time>
</trkpt>
<trkpt lat="46.1010460" lon="10.4475520">
	<ele>1657.60</ele>
	<time>2024-07-25T07:53:17.000Z</time>
</trkpt>
<trkpt lat="46.1010460" lon="10.4475520">
	<ele>1657.60</ele>
	<time>2024-07-25T07:53:18.000Z</time>
</trkpt>
<trkpt lat="46.1010480" lon="10.4475560">
	<ele>1657.40</ele>
	<time>2024-07-25T07:53:19.000Z</time>
</trkpt>
<trkpt lat="46.1010580" lon="10.4475730">
	<ele>1657.40</ele>
	<time>2024-07-25T07:53:20.000Z</time>
</trkpt>
<trkpt lat="46.1010680" lon="10.4475870">
	<ele>1657.40</ele>
	<time>2024-07-25T07:53:21.000Z</time>
</trkpt>
<trkpt lat="46.1010820" lon="10.4476000">
	<ele>1657.60</ele>
	<time>2024-07-25T07:53:22.000Z</time>
</trkpt>
<trkpt lat="46.1010940" lon="10.4476150">
	<ele>1657.60</ele>
	<time>2024-07-25T07:53:23.000Z</time>
</trkpt>
<trkpt lat="46.1011110" lon="10.4476230">
	<ele>1657.60</ele>
	<time>2024-07-25T07:53:24.000Z</time>
</trkpt>
<trkpt lat="46.1011230" lon="10.4476360">
	<ele>1657.80</ele>
	<time>2024-07-25T07:53:25.000Z</time>
</trkpt>
<trkpt lat="46.1011330" lon="10.4476460">
	<ele>1657.80</ele>
	<time>2024-07-25T07:53:26.000Z</time>
</trkpt>
<trkpt lat="46.1011420" lon="10.4476620">
	<ele>1657.80</ele>
	<time>2024-07-25T07:53:27.000Z</time>
</trkpt>
<trkpt lat="46.1011500" lon="10.4476790">
	<ele>1658.00</ele>
	<time>2024-07-25T07:53:28.000Z</time>
</trkpt>
<trkpt lat="46.1011570" lon="10.4476930">
	<ele>1658.00</ele>
	<time>2024-07-25T07:53:29.000Z</time>
</trkpt>
<trkpt lat="46.1011690" lon="10.4477060">
	<ele>1658.20</ele>
	<time>2024-07-25T07:53:30.000Z</time>
</trkpt>
<trkpt lat="46.1011800" lon="10.4477180">
	<ele>1658.20</ele>
	<time>2024-07-25T07:53:31.000Z</time>
</trkpt>
<trkpt lat="46.1011900" lon="10.4477210">
	<ele>1658.40</ele>
	<time>2024-07-25T07:53:32.000Z</time>
</trkpt>
<trkpt lat="46.1012050" lon="10.4477260">
	<ele>1658.60</ele>
	<time>2024-07-25T07:53:33.000Z</time>
</trkpt>
<trkpt lat="46.1012150" lon="10.4477300">
	<ele>1658.60</ele>
	<time>2024-07-25T07:53:34.000Z</time>
</trkpt>
<trkpt lat="46.1012230" lon="10.4477360">
	<ele>1658.80</ele>
	<time>2024-07-25T07:53:35.000Z</time>
</trkpt>
<trkpt lat="46.1012310" lon="10.4477410">
	<ele>1659.00</ele>
	<time>2024-07-25T07:53:36.000Z</time>
</trkpt>
<trkpt lat="46.1012380" lon="10.4477500">
	<ele>1659.00</ele>
	<time>2024-07-25T07:53:37.000Z</time>
</trkpt>
<trkpt lat="46.1012460" lon="10.4477570">
	<ele>1659.20</ele>
	<time>2024-07-25T07:53:38.000Z</time>
</trkpt>
<trkpt lat="46.1012550" lon="10.4477640">
	<ele>1659.20</ele>
	<time>2024-07-25T07:53:39.000Z</time>
</trkpt>
<trkpt lat="46.1012640" lon="10.4477710">
	<ele>1659.40</ele>
	<time>2024-07-25T07:53:40.000Z</time>
</trkpt>
<trkpt lat="46.1012740" lon="10.4477790">
	<ele>1659.40</ele>
	<time>2024-07-25T07:53:41.000Z</time>
</trkpt>
<trkpt lat="46.1012840" lon="10.4477840">
	<ele>1659.60</ele>
	<time>2024-07-25T07:53:42.000Z</time>
</trkpt>
<trkpt lat="46.1012940" lon="10.4477890">
	<ele>1659.80</ele>
	<time>2024-07-25T07:53:43.000Z</time>
</trkpt>
<trkpt lat="46.1013030" lon="10.4477980">
	<ele>1659.80</ele>
	<time>2024-07-25T07:53:44.000Z</time>
</trkpt>
<trkpt lat="46.1013140" lon="10.4478030">
	<ele>1660.00</ele>
	<time>2024-07-25T07:53:45.000Z</time>
</trkpt>
<trkpt lat="46.1013250" lon="10.4478100">
	<ele>1660.00</ele>
	<time>2024-07-25T07:53:46.000Z</time>
</trkpt>
<trkpt lat="46.1013350" lon="10.4478170">
	<ele>1660.20</ele>
	<time>2024-07-25T07:53:47.000Z</time>
</trkpt>
<trkpt lat="46.1013480" lon="10.4478210">
	<ele>1660.20</ele>
	<time>2024-07-25T07:53:48.000Z</time>
</trkpt>
<trkpt lat="46.1013560" lon="10.4478260">
	<ele>1660.40</ele>
	<time>2024-07-25T07:53:49.000Z</time>
</trkpt>
<trkpt lat="46.1013640" lon="10.4478380">
	<ele>1660.60</ele>
	<time>2024-07-25T07:53:50.000Z</time>
</trkpt>
<trkpt lat="46.1013710" lon="10.4478540">
	<ele>1660.60</ele>
	<time>2024-07-25T07:53:51.000Z</time>
</trkpt>
<trkpt lat="46.1013800" lon="10.4478680">
	<ele>1660.80</ele>
	<time>2024-07-25T07:53:52.000Z</time>
</trkpt>
<trkpt lat="46.1013880" lon="10.4478820">
	<ele>1660.80</ele>
	<time>2024-07-25T07:53:53.000Z</time>
</trkpt>
<trkpt lat="46.1013970" lon="10.4478970">
	<ele>1661.00</ele>
	<time>2024-07-25T07:53:54.000Z</time>
</trkpt>
<trkpt lat="46.1014020" lon="10.4479140">
	<ele>1661.00</ele>
	<time>2024-07-25T07:53:55.000Z</time>
</trkpt>
<trkpt lat="46.1014030" lon="10.4479340">
	<ele>1661.20</ele>
	<time>2024-07-25T07:53:56.000Z</time>
</trkpt>
<trkpt lat="46.1014050" lon="10.4479540">
	<ele>1661.40</ele>
	<time>2024-07-25T07:53:57.000Z</time>
</trkpt>
<trkpt lat="46.1014090" lon="10.4479700">
	<ele>1661.60</ele>
	<time>2024-07-25T07:53:58.000Z</time>
</trkpt>
<trkpt lat="46.1014140" lon="10.4479840">
	<ele>1661.60</ele>
	<time>2024-07-25T07:53:59.000Z</time>
</trkpt>
<trkpt lat="46.1014180" lon="10.4479980">
	<ele>1661.80</ele>
	<time>2024-07-25T07:54:00.000Z</time>
</trkpt>
<trkpt lat="46.1014220" lon="10.4480140">
	<ele>1661.80</ele>
	<time>2024-07-25T07:54:01.000Z</time>
</trkpt>
<trkpt lat="46.1014270" lon="10.4480330">
	<ele>1661.80</ele>
	<time>2024-07-25T07:54:02.000Z</time>
</trkpt>
<trkpt lat="46.1014320" lon="10.4480540">
	<ele>1661.60</ele>
	<time>2024-07-25T07:54:03.000Z</time>
</trkpt>
<trkpt lat="46.1014370" lon="10.4480700">
	<ele>1661.60</ele>
	<time>2024-07-25T07:54:04.000Z</time>
</trkpt>
<trkpt lat="46.1014390" lon="10.4480880">
	<ele>1661.60</ele>
	<time>2024-07-25T07:54:05.000Z</time>
</trkpt>
<trkpt lat="46.1014420" lon="10.4481080">
	<ele>1661.60</ele>
	<time>2024-07-25T07:54:06.000Z</time>
</trkpt>
<trkpt lat="46.1014460" lon="10.4481290">
	<ele>1661.80</ele>
	<time>2024-07-25T07:54:07.000Z</time>
</trkpt>
<trkpt lat="46.1014500" lon="10.4481470">
	<ele>1661.80</ele>
	<time>2024-07-25T07:54:08.000Z</time>
</trkpt>
<trkpt lat="46.1014560" lon="10.4481590">
	<ele>1662.00</ele>
	<time>2024-07-25T07:54:09.000Z</time>
</trkpt>
<trkpt lat="46.1014590" lon="10.4481780">
	<ele>1662.00</ele>
	<time>2024-07-25T07:54:10.000Z</time>
</trkpt>
<trkpt lat="46.1014640" lon="10.4481940">
	<ele>1662.00</ele>
	<time>2024-07-25T07:54:11.000Z</time>
</trkpt>
<trkpt lat="46.1014700" lon="10.4482080">
	<ele>1661.80</ele>
	<time>2024-07-25T07:54:12.000Z</time>
</trkpt>
<trkpt lat="46.1014770" lon="10.4482220">
	<ele>1661.80</ele>
	<time>2024-07-25T07:54:13.000Z</time>
</trkpt>
<trkpt lat="46.1014840" lon="10.4482360">
	<ele>1661.80</ele>
	<time>2024-07-25T07:54:14.000Z</time>
</trkpt>
<trkpt lat="46.1014920" lon="10.4482520">
	<ele>1661.80</ele>
	<time>2024-07-25T07:54:15.000Z</time>
</trkpt>
<trkpt lat="46.1015030" lon="10.4482640">
	<ele>1661.80</ele>
	<time>2024-07-25T07:54:16.000Z</time>
</trkpt>
<trkpt lat="46.1015180" lon="10.4482700">
	<ele>1661.80</ele>
	<time>2024-07-25T07:54:17.000Z</time>
</trkpt>
<trkpt lat="46.1015270" lon="10.4482740">
	<ele>1661.80</ele>
	<time>2024-07-25T07:54:18.000Z</time>
</trkpt>
<trkpt lat="46.1015370" lon="10.4482810">
	<ele>1661.80</ele>
	<time>2024-07-25T07:54:19.000Z</time>
</trkpt>
<trkpt lat="46.1015480" lon="10.4482910">
	<ele>1661.80</ele>
	<time>2024-07-25T07:54:20.000Z</time>
</trkpt>
<trkpt lat="46.1015600" lon="10.4482950">
	<ele>1661.80</ele>
	<time>2024-07-25T07:54:21.000Z</time>
</trkpt>
<trkpt lat="46.1015670" lon="10.4483070">
	<ele>1661.80</ele>
	<time>2024-07-25T07:54:22.000Z</time>
</trkpt>
<trkpt lat="46.1015760" lon="10.4483180">
	<ele>1661.80</ele>
	<time>2024-07-25T07:54:23.000Z</time>
</trkpt>
<trkpt lat="46.1015860" lon="10.4483230">
	<ele>1661.80</ele>
	<time>2024-07-25T07:54:24.000Z</time>
</trkpt>
<trkpt lat="46.1015930" lon="10.4483240">
	<ele>1662.00</ele>
	<time>2024-07-25T07:54:25.000Z</time>
</trkpt>
<trkpt lat="46.1015960" lon="10.4483250">
	<ele>1662.00</ele>
	<time>2024-07-25T07:54:26.000Z</time>
</trkpt>
<trkpt lat="46.1015970" lon="10.4483240">
	<ele>1662.00</ele>
	<time>2024-07-25T07:54:27.000Z</time>
</trkpt>
<trkpt lat="46.1015980" lon="10.4483260">
	<ele>1662.00</ele>
	<time>2024-07-25T07:54:28.000Z</time>
</trkpt>
<trkpt lat="46.1015990" lon="10.4483280">
	<ele>1662.00</ele>
	<time>2024-07-25T07:54:29.000Z</time>
</trkpt>
<trkpt lat="46.1016060" lon="10.4483390">
	<ele>1662.00</ele>
	<time>2024-07-25T07:54:30.000Z</time>
</trkpt>
<trkpt lat="46.1016120" lon="10.4483490">
	<ele>1661.80</ele>
	<time>2024-07-25T07:54:31.000Z</time>
</trkpt>
<trkpt lat="46.1016210" lon="10.4483580">
	<ele>1661.80</ele>
	<time>2024-07-25T07:54:32.000Z</time>
</trkpt>
<trkpt lat="46.1016350" lon="10.4483640">
	<ele>1661.80</ele>
	<time>2024-07-25T07:54:33.000Z</time>
</trkpt>
<trkpt lat="46.1016510" lon="10.4483680">
	<ele>1661.80</ele>
	<time>2024-07-25T07:54:34.000Z</time>
</trkpt>
<trkpt lat="46.1016650" lon="10.4483730">
	<ele>1661.80</ele>
	<time>2024-07-25T07:54:35.000Z</time>
</trkpt>
<trkpt lat="46.1016770" lon="10.4483800">
	<ele>1661.60</ele>
	<time>2024-07-25T07:54:36.000Z</time>
</trkpt>
<trkpt lat="46.1016890" lon="10.4483880">
	<ele>1661.60</ele>
	<time>2024-07-25T07:54:37.000Z</time>
</trkpt>
<trkpt lat="46.1017020" lon="10.4483960">
	<ele>1661.60</ele>
	<time>2024-07-25T07:54:38.000Z</time>
</trkpt>
<trkpt lat="46.1017140" lon="10.4484080">
	<ele>1661.40</ele>
	<time>2024-07-25T07:54:39.000Z</time>
</trkpt>
<trkpt lat="46.1017270" lon="10.4484190">
	<ele>1661.40</ele>
	<time>2024-07-25T07:54:40.000Z</time>
</trkpt>
<trkpt lat="46.1017440" lon="10.4484320">
	<ele>1661.40</ele>
	<time>2024-07-25T07:54:41.000Z</time>
</trkpt>
<trkpt lat="46.1017590" lon="10.4484400">
	<ele>1661.20</ele>
	<time>2024-07-25T07:54:42.000Z</time>
</trkpt>
<trkpt lat="46.1017730" lon="10.4484450">
	<ele>1661.20</ele>
	<time>2024-07-25T07:54:43.000Z</time>
</trkpt>
<trkpt lat="46.1017870" lon="10.4484500">
	<ele>1661.00</ele>
	<time>2024-07-25T07:54:44.000Z</time>
</trkpt>
<trkpt lat="46.1018000" lon="10.4484590">
	<ele>1661.00</ele>
	<time>2024-07-25T07:54:45.000Z</time>
</trkpt>
<trkpt lat="46.1018130" lon="10.4484650">
	<ele>1660.80</ele>
	<time>2024-07-25T07:54:46.000Z</time>
</trkpt>
<trkpt lat="46.1018250" lon="10.4484720">
	<ele>1660.80</ele>
	<time>2024-07-25T07:54:47.000Z</time>
</trkpt>
<trkpt lat="46.1018370" lon="10.4484810">
	<ele>1660.80</ele>
	<time>2024-07-25T07:54:48.000Z</time>
</trkpt>
<trkpt lat="46.1018450" lon="10.4484870">
	<ele>1660.80</ele>
	<time>2024-07-25T07:54:49.000Z</time>
</trkpt>
<trkpt lat="46.1018530" lon="10.4484920">
	<ele>1660.80</ele>
	<time>2024-07-25T07:54:50.000Z</time>
</trkpt>
<trkpt lat="46.1018610" lon="10.4484990">
	<ele>1660.80</ele>
	<time>2024-07-25T07:54:51.000Z</time>
</trkpt>
<trkpt lat="46.1018700" lon="10.4485130">
	<ele>1660.80</ele>
	<time>2024-07-25T07:54:52.000Z</time>
</trkpt>
<trkpt lat="46.1018790" lon="10.4485290">
	<ele>1660.80</ele>
	<time>2024-07-25T07:54:53.000Z</time>
</trkpt>
<trkpt lat="46.1018900" lon="10.4485470">
	<ele>1661.00</ele>
	<time>2024-07-25T07:54:54.000Z</time>
</trkpt>
<trkpt lat="46.1019020" lon="10.4485600">
	<ele>1661.00</ele>
	<time>2024-07-25T07:54:55.000Z</time>
</trkpt>
<trkpt lat="46.1019140" lon="10.4485760">
	<ele>1661.00</ele>
	<time>2024-07-25T07:54:56.000Z</time>
</trkpt>
<trkpt lat="46.1019190" lon="10.4485880">
	<ele>1661.20</ele>
	<time>2024-07-25T07:54:57.000Z</time>
</trkpt>
<trkpt lat="46.1019250" lon="10.4486090">
	<ele>1661.20</ele>
	<time>2024-07-25T07:54:58.000Z</time>
</trkpt>
<trkpt lat="46.1019280" lon="10.4486220">
	<ele>1661.40</ele>
	<time>2024-07-25T07:54:59.000Z</time>
</trkpt>
<trkpt lat="46.1019320" lon="10.4486350">
	<ele>1661.40</ele>
	<time>2024-07-25T07:55:00.000Z</time>
</trkpt>
<trkpt lat="46.1019360" lon="10.4486480">
	<ele>1661.60</ele>
	<time>2024-07-25T07:55:01.000Z</time>
</trkpt>
<trkpt lat="46.1019410" lon="10.4486550">
	<ele>1661.80</ele>
	<time>2024-07-25T07:55:02.000Z</time>
</trkpt>
<trkpt lat="46.1019460" lon="10.4486650">
	<ele>1662.00</ele>
	<time>2024-07-25T07:55:03.000Z</time>
</trkpt>
<trkpt lat="46.1019480" lon="10.4486780">
	<ele>1662.20</ele>
	<time>2024-07-25T07:55:04.000Z</time>
</trkpt>
<trkpt lat="46.1019510" lon="10.4486920">
	<ele>1662.60</ele>
	<time>2024-07-25T07:55:05.000Z</time>
</trkpt>
<trkpt lat="46.1019570" lon="10.4487080">
	<ele>1662.80</ele>
	<time>2024-07-25T07:55:06.000Z</time>
</trkpt>
<trkpt lat="46.1019600" lon="10.4487240">
	<ele>1663.00</ele>
	<time>2024-07-25T07:55:07.000Z</time>
</trkpt>
<trkpt lat="46.1019620" lon="10.4487300">
	<ele>1663.20</ele>
	<time>2024-07-25T07:55:08.000Z</time>
</trkpt>
<trkpt lat="46.1019670" lon="10.4487360">
	<ele>1663.40</ele>
	<time>2024-07-25T07:55:09.000Z</time>
</trkpt>
<trkpt lat="46.1019730" lon="10.4487430">
	<ele>1663.60</ele>
	<time>2024-07-25T07:55:10.000Z</time>
</trkpt>
<trkpt lat="46.1019790" lon="10.4487580">
	<ele>1663.80</ele>
	<time>2024-07-25T07:55:11.000Z</time>
</trkpt>
<trkpt lat="46.1019870" lon="10.4487700">
	<ele>1664.20</ele>
	<time>2024-07-25T07:55:12.000Z</time>
</trkpt>
<trkpt lat="46.1019990" lon="10.4487790">
	<ele>1664.20</ele>
	<time>2024-07-25T07:55:13.000Z</time>
</trkpt>
<trkpt lat="46.1020110" lon="10.4487880">
	<ele>1664.40</ele>
	<time>2024-07-25T07:55:14.000Z</time>
</trkpt>
<trkpt lat="46.1020220" lon="10.4487980">
	<ele>1664.60</ele>
	<time>2024-07-25T07:55:15.000Z</time>
</trkpt>
<trkpt lat="46.1020280" lon="10.4488100">
	<ele>1664.60</ele>
	<time>2024-07-25T07:55:16.000Z</time>
</trkpt>
<trkpt lat="46.1020390" lon="10.4488220">
	<ele>1664.80</ele>
	<time>2024-07-25T07:55:17.000Z</time>
</trkpt>
<trkpt lat="46.1020480" lon="10.4488300">
	<ele>1664.80</ele>
	<time>2024-07-25T07:55:18.000Z</time>
</trkpt>
<trkpt lat="46.1020520" lon="10.4488470">
	<ele>1664.80</ele>
	<time>2024-07-25T07:55:19.000Z</time>
</trkpt>
<trkpt lat="46.1020600" lon="10.4488610">
	<ele>1664.80</ele>
	<time>2024-07-25T07:55:20.000Z</time>
</trkpt>
<trkpt lat="46.1020700" lon="10.4488730">
	<ele>1665.00</ele>
	<time>2024-07-25T07:55:21.000Z</time>
</trkpt>
<trkpt lat="46.1020820" lon="10.4488890">
	<ele>1665.00</ele>
	<time>2024-07-25T07:55:22.000Z</time>
</trkpt>
<trkpt lat="46.1020930" lon="10.4488990">
	<ele>1665.00</ele>
	<time>2024-07-25T07:55:23.000Z</time>
</trkpt>
<trkpt lat="46.1021020" lon="10.4489110">
	<ele>1665.20</ele>
	<time>2024-07-25T07:55:24.000Z</time>
</trkpt>
<trkpt lat="46.1021100" lon="10.4489220">
	<ele>1665.20</ele>
	<time>2024-07-25T07:55:25.000Z</time>
</trkpt>
<trkpt lat="46.1021180" lon="10.4489370">
	<ele>1665.40</ele>
	<time>2024-07-25T07:55:26.000Z</time>
</trkpt>
<trkpt lat="46.1021210" lon="10.4489520">
	<ele>1665.40</ele>
	<time>2024-07-25T07:55:27.000Z</time>
</trkpt>
<trkpt lat="46.1021290" lon="10.4489640">
	<ele>1665.40</ele>
	<time>2024-07-25T07:55:28.000Z</time>
</trkpt>
<trkpt lat="46.1021380" lon="10.4489710">
	<ele>1665.60</ele>
	<time>2024-07-25T07:55:29.000Z</time>
</trkpt>
<trkpt lat="46.1021540" lon="10.4489780">
	<ele>1665.80</ele>
	<time>2024-07-25T07:55:30.000Z</time>
</trkpt>
<trkpt lat="46.1021630" lon="10.4489890">
	<ele>1666.00</ele>
	<time>2024-07-25T07:55:31.000Z</time>
</trkpt>
<trkpt lat="46.1021690" lon="10.4489990">
	<ele>1666.00</ele>
	<time>2024-07-25T07:55:32.000Z</time>
</trkpt>
<trkpt lat="46.1021770" lon="10.4490080">
	<ele>1666.20</ele>
	<time>2024-07-25T07:55:33.000Z</time>
</trkpt>
<trkpt lat="46.1021850" lon="10.4490190">
	<ele>1666.20</ele>
	<time>2024-07-25T07:55:34.000Z</time>
</trkpt>
<trkpt lat="46.1021940" lon="10.4490280">
	<ele>1666.20</ele>
	<time>2024-07-25T07:55:35.000Z</time>
</trkpt>
<trkpt lat="46.1022040" lon="10.4490370">
	<ele>1666.20</ele>
	<time>2024-07-25T07:55:36.000Z</time>
</trkpt>
<trkpt lat="46.1022160" lon="10.4490480">
	<ele>1666.20</ele>
	<time>2024-07-25T07:55:37.000Z</time>
</trkpt>
<trkpt lat="46.1022270" lon="10.4490620">
	<ele>1666.40</ele>
	<time>2024-07-25T07:55:38.000Z</time>
</trkpt>
<trkpt lat="46.1022360" lon="10.4490740">
	<ele>1666.40</ele>
	<time>2024-07-25T07:55:39.000Z</time>
</trkpt>
<trkpt lat="46.1022440" lon="10.4490870">
	<ele>1666.60</ele>
	<time>2024-07-25T07:55:40.000Z</time>
</trkpt>
<trkpt lat="46.1022500" lon="10.4491000">
	<ele>1666.60</ele>
	<time>2024-07-25T07:55:41.000Z</time>
</trkpt>
<trkpt lat="46.1022610" lon="10.4491150">
	<ele>1666.80</ele>
	<time>2024-07-25T07:55:42.000Z</time>
</trkpt>
<trkpt lat="46.1022700" lon="10.4491230">
	<ele>1667.00</ele>
	<time>2024-07-25T07:55:43.000Z</time>
</trkpt>
<trkpt lat="46.1022770" lon="10.4491300">
	<ele>1667.00</ele>
	<time>2024-07-25T07:55:44.000Z</time>
</trkpt>
<trkpt lat="46.1022870" lon="10.4491410">
	<ele>1667.00</ele>
	<time>2024-07-25T07:55:45.000Z</time>
</trkpt>
<trkpt lat="46.1022920" lon="10.4491550">
	<ele>1667.20</ele>
	<time>2024-07-25T07:55:46.000Z</time>
</trkpt>
<trkpt lat="46.1022990" lon="10.4491660">
	<ele>1667.20</ele>
	<time>2024-07-25T07:55:47.000Z</time>
</trkpt>
<trkpt lat="46.1023050" lon="10.4491800">
	<ele>1667.20</ele>
	<time>2024-07-25T07:55:48.000Z</time>
</trkpt>
<trkpt lat="46.1023110" lon="10.4491940">
	<ele>1667.20</ele>
	<time>2024-07-25T07:55:49.000Z</time>
</trkpt>
<trkpt lat="46.1023190" lon="10.4492020">
	<ele>1667.20</ele>
	<time>2024-07-25T07:55:50.000Z</time>
</trkpt>
<trkpt lat="46.1023280" lon="10.4492150">
	<ele>1667.40</ele>
	<time>2024-07-25T07:55:51.000Z</time>
</trkpt>
<trkpt lat="46.1023370" lon="10.4492280">
	<ele>1667.40</ele>
	<time>2024-07-25T07:55:52.000Z</time>
</trkpt>
<trkpt lat="46.1023490" lon="10.4492400">
	<ele>1667.60</ele>
	<time>2024-07-25T07:55:53.000Z</time>
</trkpt>
<trkpt lat="46.1023610" lon="10.4492530">
	<ele>1667.80</ele>
	<time>2024-07-25T07:55:54.000Z</time>
</trkpt>
<trkpt lat="46.1023750" lon="10.4492660">
	<ele>1667.80</ele>
	<time>2024-07-25T07:55:55.000Z</time>
</trkpt>
<trkpt lat="46.1023840" lon="10.4492790">
	<ele>1668.00</ele>
	<time>2024-07-25T07:55:56.000Z</time>
</trkpt>
<trkpt lat="46.1023930" lon="10.4492840">
	<ele>1668.00</ele>
	<time>2024-07-25T07:55:57.000Z</time>
</trkpt>
<trkpt lat="46.1024050" lon="10.4492840">
	<ele>1668.20</ele>
	<time>2024-07-25T07:55:58.000Z</time>
</trkpt>
<trkpt lat="46.1024130" lon="10.4492930">
	<ele>1668.20</ele>
	<time>2024-07-25T07:55:59.000Z</time>
</trkpt>
<trkpt lat="46.1024240" lon="10.4492980">
	<ele>1668.40</ele>
	<time>2024-07-25T07:56:00.000Z</time>
</trkpt>
<trkpt lat="46.1024380" lon="10.4492920">
	<ele>1668.40</ele>
	<time>2024-07-25T07:56:01.000Z</time>
</trkpt>
<trkpt lat="46.1024460" lon="10.4492880">
	<ele>1668.40</ele>
	<time>2024-07-25T07:56:02.000Z</time>
</trkpt>
<trkpt lat="46.1024580" lon="10.4492820">
	<ele>1668.60</ele>
	<time>2024-07-25T07:56:03.000Z</time>
</trkpt>
<trkpt lat="46.1024680" lon="10.4492850">
	<ele>1668.80</ele>
	<time>2024-07-25T07:56:04.000Z</time>
</trkpt>
<trkpt lat="46.1024780" lon="10.4492870">
	<ele>1668.80</ele>
	<time>2024-07-25T07:56:05.000Z</time>
</trkpt>
<trkpt lat="46.1024880" lon="10.4492910">
	<ele>1669.00</ele>
	<time>2024-07-25T07:56:06.000Z</time>
</trkpt>
<trkpt lat="46.1024990" lon="10.4492930">
	<ele>1669.20</ele>
	<time>2024-07-25T07:56:07.000Z</time>
</trkpt>
<trkpt lat="46.1025040" lon="10.4493050">
	<ele>1669.20</ele>
	<time>2024-07-25T07:56:08.000Z</time>
</trkpt>
<trkpt lat="46.1025160" lon="10.4493090">
	<ele>1669.40</ele>
	<time>2024-07-25T07:56:09.000Z</time>
</trkpt>
<trkpt lat="46.1025270" lon="10.4493120">
	<ele>1669.40</ele>
	<time>2024-07-25T07:56:10.000Z</time>
</trkpt>
<trkpt lat="46.1025380" lon="10.4493130">
	<ele>1669.60</ele>
	<time>2024-07-25T07:56:11.000Z</time>
</trkpt>
<trkpt lat="46.1025480" lon="10.4493140">
	<ele>1669.60</ele>
	<time>2024-07-25T07:56:12.000Z</time>
</trkpt>
<trkpt lat="46.1025580" lon="10.4493130">
	<ele>1669.80</ele>
	<time>2024-07-25T07:56:13.000Z</time>
</trkpt>
<trkpt lat="46.1025700" lon="10.4493180">
	<ele>1669.80</ele>
	<time>2024-07-25T07:56:14.000Z</time>
</trkpt>
<trkpt lat="46.1025800" lon="10.4493200">
	<ele>1670.00</ele>
	<time>2024-07-25T07:56:15.000Z</time>
</trkpt>
<trkpt lat="46.1025880" lon="10.4493300">
	<ele>1670.00</ele>
	<time>2024-07-25T07:56:16.000Z</time>
</trkpt>
<trkpt lat="46.1025980" lon="10.4493400">
	<ele>1670.20</ele>
	<time>2024-07-25T07:56:17.000Z</time>
</trkpt>
<trkpt lat="46.1026060" lon="10.4493480">
	<ele>1670.40</ele>
	<time>2024-07-25T07:56:18.000Z</time>
</trkpt>
<trkpt lat="46.1026150" lon="10.4493540">
	<ele>1670.40</ele>
	<time>2024-07-25T07:56:19.000Z</time>
</trkpt>
<trkpt lat="46.1026260" lon="10.4493570">
	<ele>1670.60</ele>
	<time>2024-07-25T07:56:20.000Z</time>
</trkpt>
<trkpt lat="46.1026390" lon="10.4493580">
	<ele>1670.80</ele>
	<time>2024-07-25T07:56:21.000Z</time>
</trkpt>
<trkpt lat="46.1026540" lon="10.4493570">
	<ele>1670.80</ele>
	<time>2024-07-25T07:56:22.000Z</time>
</trkpt>
<trkpt lat="46.1026670" lon="10.4493560">
	<ele>1671.00</ele>
	<time>2024-07-25T07:56:23.000Z</time>
</trkpt>
<trkpt lat="46.1026800" lon="10.4493550">
	<ele>1671.00</ele>
	<time>2024-07-25T07:56:24.000Z</time>
</trkpt>
<trkpt lat="46.1026890" lon="10.4493660">
	<ele>1671.20</ele>
	<time>2024-07-25T07:56:25.000Z</time>
</trkpt>
<trkpt lat="46.1027010" lon="10.4493680">
	<ele>1671.20</ele>
	<time>2024-07-25T07:56:26.000Z</time>
</trkpt>
<trkpt lat="46.1027130" lon="10.4493750">
	<ele>1671.40</ele>
	<time>2024-07-25T07:56:27.000Z</time>
</trkpt>
<trkpt lat="46.1027240" lon="10.4493800">
	<ele>1671.40</ele>
	<time>2024-07-25T07:56:28.000Z</time>
</trkpt>
<trkpt lat="46.1027280" lon="10.4493910">
	<ele>1671.60</ele>
	<time>2024-07-25T07:56:29.000Z</time>
</trkpt>
<trkpt lat="46.1027320" lon="10.4494100">
	<ele>1671.60</ele>
	<time>2024-07-25T07:56:30.000Z</time>
</trkpt>
<trkpt lat="46.1027350" lon="10.4494250">
	<ele>1671.80</ele>
	<time>2024-07-25T07:56:31.000Z</time>
</trkpt>
<trkpt lat="46.1027430" lon="10.4494330">
	<ele>1671.80</ele>
	<time>2024-07-25T07:56:32.000Z</time>
</trkpt>
<trkpt lat="46.1027490" lon="10.4494470">
	<ele>1672.00</ele>
	<time>2024-07-25T07:56:33.000Z</time>
</trkpt>
<trkpt lat="46.1027510" lon="10.4494700">
	<ele>1672.00</ele>
	<time>2024-07-25T07:56:34.000Z</time>
</trkpt>
<trkpt lat="46.1027520" lon="10.4494960">
	<ele>1672.20</ele>
	<time>2024-07-25T07:56:35.000Z</time>
</trkpt>
<trkpt lat="46.1027560" lon="10.4495160">
	<ele>1672.40</ele>
	<time>2024-07-25T07:56:36.000Z</time>
</trkpt>
<trkpt lat="46.1027590" lon="10.4495370">
	<ele>1672.60</ele>
	<time>2024-07-25T07:56:37.000Z</time>
</trkpt>
<trkpt lat="46.1027670" lon="10.4495440">
	<ele>1672.60</ele>
	<time>2024-07-25T07:56:38.000Z</time>
</trkpt>
<trkpt lat="46.1027750" lon="10.4495550">
	<ele>1672.60</ele>
	<time>2024-07-25T07:56:39.000Z</time>
</trkpt>
<trkpt lat="46.1027770" lon="10.4495780">
	<ele>1672.80</ele>
	<time>2024-07-25T07:56:40.000Z</time>
</trkpt>
<trkpt lat="46.1027820" lon="10.4495950">
	<ele>1672.80</ele>
	<time>2024-07-25T07:56:41.000Z</time>
</trkpt>
<trkpt lat="46.1027870" lon="10.4496130">
	<ele>1672.80</ele>
	<time>2024-07-25T07:56:42.000Z</time>
</trkpt>
<trkpt lat="46.1027930" lon="10.4496270">
	<ele>1673.00</ele>
	<time>2024-07-25T07:56:43.000Z</time>
</trkpt>
<trkpt lat="46.1028030" lon="10.4496340">
	<ele>1673.00</ele>
	<time>2024-07-25T07:56:44.000Z</time>
</trkpt>
<trkpt lat="46.1028120" lon="10.4496410">
	<ele>1673.40</ele>
	<time>2024-07-25T07:56:45.000Z</time>
</trkpt>
<trkpt lat="46.1028250" lon="10.4496420">
	<ele>1673.60</ele>
	<time>2024-07-25T07:56:46.000Z</time>
</trkpt>
<trkpt lat="46.1028320" lon="10.4496530">
	<ele>1673.60</ele>
	<time>2024-07-25T07:56:47.000Z</time>
</trkpt>
<trkpt lat="46.1028440" lon="10.4496550">
	<ele>1673.80</ele>
	<time>2024-07-25T07:56:48.000Z</time>
</trkpt>
<trkpt lat="46.1028560" lon="10.4496560">
	<ele>1674.00</ele>
	<time>2024-07-25T07:56:49.000Z</time>
</trkpt>
<trkpt lat="46.1028690" lon="10.4496560">
	<ele>1674.20</ele>
	<time>2024-07-25T07:56:50.000Z</time>
</trkpt>
<trkpt lat="46.1028750" lon="10.4496570">
	<ele>1674.20</ele>
	<time>2024-07-25T07:56:51.000Z</time>
</trkpt>
<trkpt lat="46.1028870" lon="10.4496600">
	<ele>1674.40</ele>
	<time>2024-07-25T07:56:52.000Z</time>
</trkpt>
<trkpt lat="46.1028950" lon="10.4496630">
	<ele>1674.60</ele>
	<time>2024-07-25T07:56:53.000Z</time>
</trkpt>
<trkpt lat="46.1029050" lon="10.4496660">
	<ele>1674.60</ele>
	<time>2024-07-25T07:56:54.000Z</time>
</trkpt>
<trkpt lat="46.1029130" lon="10.4496700">
	<ele>1674.80</ele>
	<time>2024-07-25T07:56:55.000Z</time>
</trkpt>
<trkpt lat="46.1029240" lon="10.4496690">
	<ele>1674.80</ele>
	<time>2024-07-25T07:56:56.000Z</time>
</trkpt>
<trkpt lat="46.1029340" lon="10.4496720">
	<ele>1675.00</ele>
	<time>2024-07-25T07:56:57.000Z</time>
</trkpt>
<trkpt lat="46.1029450" lon="10.4496760">
	<ele>1675.00</ele>
	<time>2024-07-25T07:56:58.000Z</time>
</trkpt>
<trkpt lat="46.1029530" lon="10.4496800">
	<ele>1675.20</ele>
	<time>2024-07-25T07:56:59.000Z</time>
</trkpt>
<trkpt lat="46.1029610" lon="10.4496820">
	<ele>1675.40</ele>
	<time>2024-07-25T07:57:00.000Z</time>
</trkpt>
<trkpt lat="46.1029700" lon="10.4496800">
	<ele>1675.40</ele>
	<time>2024-07-25T07:57:01.000Z</time>
</trkpt>
<trkpt lat="46.1029830" lon="10.4496720">
	<ele>1675.40</ele>
	<time>2024-07-25T07:57:02.000Z</time>
</trkpt>
<trkpt lat="46.1029900" lon="10.4496690">
	<ele>1675.60</ele>
	<time>2024-07-25T07:57:03.000Z</time>
</trkpt>
<trkpt lat="46.1029990" lon="10.4496670">
	<ele>1676.00</ele>
	<time>2024-07-25T07:57:04.000Z</time>
</trkpt>
<trkpt lat="46.1030080" lon="10.4496620">
	<ele>1676.20</ele>
	<time>2024-07-25T07:57:05.000Z</time>
</trkpt>
<trkpt lat="46.1030190" lon="10.4496580">
	<ele>1676.40</ele>
	<time>2024-07-25T07:57:06.000Z</time>
</trkpt>
<trkpt lat="46.1030240" lon="10.4496580">
	<ele>1676.40</ele>
	<time>2024-07-25T07:57:07.000Z</time>
</trkpt>
<trkpt lat="46.1030230" lon="10.4496570">
	<ele>1676.40</ele>
	<time>2024-07-25T07:57:08.000Z</time>
</trkpt>
<trkpt lat="46.1030140" lon="10.4496440">
	<ele>1676.40</ele>
	<time>2024-07-25T07:57:09.000Z</time>
</trkpt>
<trkpt lat="46.1030140" lon="10.4496410">
	<ele>1676.40</ele>
	<time>2024-07-25T07:57:10.000Z</time>
</trkpt>
<trkpt lat="46.1030180" lon="10.4496430">
	<ele>1676.40</ele>
	<time>2024-07-25T07:57:11.000Z</time>
</trkpt>
<trkpt lat="46.1030280" lon="10.4496450">
	<ele>1676.40</ele>
	<time>2024-07-25T07:57:12.000Z</time>
</trkpt>
<trkpt lat="46.1030410" lon="10.4496420">
	<ele>1676.40</ele>
	<time>2024-07-25T07:57:13.000Z</time>
</trkpt>
<trkpt lat="46.1030490" lon="10.4496410">
	<ele>1676.40</ele>
	<time>2024-07-25T07:57:14.000Z</time>
</trkpt>
<trkpt lat="46.1030620" lon="10.4496210">
	<ele>1676.40</ele>
	<time>2024-07-25T07:57:15.000Z</time>
</trkpt>
<trkpt lat="46.1030740" lon="10.4496070">
	<ele>1676.40</ele>
	<time>2024-07-25T07:57:16.000Z</time>
</trkpt>
<trkpt lat="46.1030830" lon="10.4495940">
	<ele>1676.60</ele>
	<time>2024-07-25T07:57:17.000Z</time>
</trkpt>
<trkpt lat="46.1030890" lon="10.4495900">
	<ele>1676.80</ele>
	<time>2024-07-25T07:57:18.000Z</time>
</trkpt>
<trkpt lat="46.1030940" lon="10.4495890">
	<ele>1677.00</ele>
	<time>2024-07-25T07:57:19.000Z</time>
</trkpt>
<trkpt lat="46.1031000" lon="10.4495850">
	<ele>1677.00</ele>
	<time>2024-07-25T07:57:20.000Z</time>
</trkpt>
<trkpt lat="46.1031090" lon="10.4495760">
	<ele>1677.20</ele>
	<time>2024-07-25T07:57:21.000Z</time>
</trkpt>
<trkpt lat="46.1031230" lon="10.4495720">
	<ele>1677.40</ele>
	<time>2024-07-25T07:57:22.000Z</time>
</trkpt>
<trkpt lat="46.1031310" lon="10.4495730">
	<ele>1677.40</ele>
	<time>2024-07-25T07:57:23.000Z</time>
</trkpt>
<trkpt lat="46.1031390" lon="10.4495780">
	<ele>1677.60</ele>
	<time>2024-07-25T07:57:24.000Z</time>
</trkpt>
<trkpt lat="46.1031480" lon="10.4495830">
	<ele>1677.80</ele>
	<time>2024-07-25T07:57:25.000Z</time>
</trkpt>
<trkpt lat="46.1031580" lon="10.4495830">
	<ele>1678.00</ele>
	<time>2024-07-25T07:57:26.000Z</time>
</trkpt>
<trkpt lat="46.1031710" lon="10.4495870">
	<ele>1678.20</ele>
	<time>2024-07-25T07:57:27.000Z</time>
</trkpt>
<trkpt lat="46.1031820" lon="10.4495880">
	<ele>1678.20</ele>
	<time>2024-07-25T07:57:28.000Z</time>
</trkpt>
<trkpt lat="46.1031900" lon="10.4495840">
	<ele>1678.40</ele>
	<time>2024-07-25T07:57:29.000Z</time>
</trkpt>
<trkpt lat="46.1031960" lon="10.4495890">
	<ele>1678.60</ele>
	<time>2024-07-25T07:57:30.000Z</time>
</trkpt>
<trkpt lat="46.1032000" lon="10.4495950">
	<ele>1678.80</ele>
	<time>2024-07-25T07:57:31.000Z</time>
</trkpt>
<trkpt lat="46.1032070" lon="10.4496010">
	<ele>1678.80</ele>
	<time>2024-07-25T07:57:32.000Z</time>
</trkpt>
<trkpt lat="46.1032140" lon="10.4496080">
	<ele>1679.00</ele>
	<time>2024-07-25T07:57:33.000Z</time>
</trkpt>
<trkpt lat="46.1032270" lon="10.4496130">
	<ele>1679.00</ele>
	<time>2024-07-25T07:57:34.000Z</time>
</trkpt>
<trkpt lat="46.1032380" lon="10.4496120">
	<ele>1679.20</ele>
	<time>2024-07-25T07:57:35.000Z</time>
</trkpt>
<trkpt lat="46.1032480" lon="10.4496100">
	<ele>1679.60</ele>
	<time>2024-07-25T07:57:36.000Z</time>
</trkpt>
<trkpt lat="46.1032620" lon="10.4496070">
	<ele>1679.80</ele>
	<time>2024-07-25T07:57:37.000Z</time>
</trkpt>
<trkpt lat="46.1032730" lon="10.4496050">
	<ele>1680.00</ele>
	<time>2024-07-25T07:57:38.000Z</time>
</trkpt>
<trkpt lat="46.1032810" lon="10.4496150">
	<ele>1680.20</ele>
	<time>2024-07-25T07:57:39.000Z</time>
</trkpt>
<trkpt lat="46.1032910" lon="10.4496230">
	<ele>1680.40</ele>
	<time>2024-07-25T07:57:40.000Z</time>
</trkpt>
<trkpt lat="46.1033010" lon="10.4496200">
	<ele>1680.60</ele>
	<time>2024-07-25T07:57:41.000Z</time>
</trkpt>
<trkpt lat="46.1033120" lon="10.4496210">
	<ele>1680.80</ele>
	<time>2024-07-25T07:57:42.000Z</time>
</trkpt>
<trkpt lat="46.1033210" lon="10.4496220">
	<ele>1681.00</ele>
	<time>2024-07-25T07:57:43.000Z</time>
</trkpt>
<trkpt lat="46.1033310" lon="10.4496200">
	<ele>1681.00</ele>
	<time>2024-07-25T07:57:44.000Z</time>
</trkpt>
<trkpt lat="46.1033440" lon="10.4496140">
	<ele>1681.20</ele>
	<time>2024-07-25T07:57:45.000Z</time>
</trkpt>
<trkpt lat="46.1033520" lon="10.4496150">
	<ele>1681.20</ele>
	<time>2024-07-25T07:57:46.000Z</time>
</trkpt>
<trkpt lat="46.1033600" lon="10.4496220">
	<ele>1681.40</ele>
	<time>2024-07-25T07:57:47.000Z</time>
</trkpt>
<trkpt lat="46.1033670" lon="10.4496280">
	<ele>1681.60</ele>
	<time>2024-07-25T07:57:48.000Z</time>
</trkpt>
<trkpt lat="46.1033760" lon="10.4496290">
	<ele>1681.80</ele>
	<time>2024-07-25T07:57:49.000Z</time>
</trkpt>
<trkpt lat="46.1033820" lon="10.4496380">
	<ele>1682.00</ele>
	<time>2024-07-25T07:57:50.000Z</time>
</trkpt>
<trkpt lat="46.1033890" lon="10.4496490">
	<ele>1682.20</ele>
	<time>2024-07-25T07:57:51.000Z</time>
</trkpt>
<trkpt lat="46.1033970" lon="10.4496560">
	<ele>1682.40</ele>
	<time>2024-07-25T07:57:52.000Z</time>
</trkpt>
<trkpt lat="46.1034080" lon="10.4496600">
	<ele>1682.60</ele>
	<time>2024-07-25T07:57:53.000Z</time>
</trkpt>
<trkpt lat="46.1034150" lon="10.4496700">
	<ele>1682.80</ele>
	<time>2024-07-25T07:57:54.000Z</time>
</trkpt>
<trkpt lat="46.1034230" lon="10.4496780">
	<ele>1683.00</ele>
	<time>2024-07-25T07:57:55.000Z</time>
</trkpt>
<trkpt lat="46.1034310" lon="10.4496860">
	<ele>1683.20</ele>
	<time>2024-07-25T07:57:56.000Z</time>
</trkpt>
<trkpt lat="46.1034420" lon="10.4496870">
	<ele>1683.20</ele>
	<time>2024-07-25T07:57:57.000Z</time>
</trkpt>
<trkpt lat="46.1034540" lon="10.4496910">
	<ele>1683.40</ele>
	<time>2024-07-25T07:57:58.000Z</time>
</trkpt>
<trkpt lat="46.1034630" lon="10.4496980">
	<ele>1683.60</ele>
	<time>2024-07-25T07:57:59.000Z</time>
</trkpt>
<trkpt lat="46.1034700" lon="10.4497070">
	<ele>1683.60</ele>
	<time>2024-07-25T07:58:00.000Z</time>
</trkpt>
<trkpt lat="46.1034750" lon="10.4497180">
	<ele>1683.80</ele>
	<time>2024-07-25T07:58:01.000Z</time>
</trkpt>
<trkpt lat="46.1034780" lon="10.4497280">
	<ele>1684.20</ele>
	<time>2024-07-25T07:58:02.000Z</time>
</trkpt>
<trkpt lat="46.1034840" lon="10.4497320">
	<ele>1684.40</ele>
	<time>2024-07-25T07:58:03.000Z</time>
</trkpt>
<trkpt lat="46.1034880" lon="10.4497410">
	<ele>1684.40</ele>
	<time>2024-07-25T07:58:04.000Z</time>
</trkpt>
<trkpt lat="46.1034970" lon="10.4497460">
	<ele>1684.60</ele>
	<time>2024-07-25T07:58:05.000Z</time>
</trkpt>
<trkpt lat="46.1035080" lon="10.4497480">
	<ele>1684.60</ele>
	<time>2024-07-25T07:58:06.000Z</time>
</trkpt>
<trkpt lat="46.1035190" lon="10.4497440">
	<ele>1684.80</ele>
	<time>2024-07-25T07:58:07.000Z</time>
</trkpt>
<trkpt lat="46.1035280" lon="10.4497500">
	<ele>1685.00</ele>
	<time>2024-07-25T07:58:08.000Z</time>
</trkpt>
<trkpt lat="46.1035390" lon="10.4497560">
	<ele>1685.00</ele>
	<time>2024-07-25T07:58:09.000Z</time>
</trkpt>
<trkpt lat="46.1035530" lon="10.4497590">
	<ele>1685.20</ele>
	<time>2024-07-25T07:58:10.000Z</time>
</trkpt>
<trkpt lat="46.1035640" lon="10.4497590">
	<ele>1685.40</ele>
	<time>2024-07-25T07:58:11.000Z</time>
</trkpt>
<trkpt lat="46.1035720" lon="10.4497620">
	<ele>1685.60</ele>
	<time>2024-07-25T07:58:12.000Z</time>
</trkpt>
<trkpt lat="46.1035750" lon="10.4497620">
	<ele>1685.80</ele>
	<time>2024-07-25T07:58:13.000Z</time>
</trkpt>
<trkpt lat="46.1035830" lon="10.4497640">
	<ele>1686.00</ele>
	<time>2024-07-25T07:58:14.000Z</time>
</trkpt>
<trkpt lat="46.1035840" lon="10.4497770">
	<ele>1686.20</ele>
	<time>2024-07-25T07:58:15.000Z</time>
</trkpt>
<trkpt lat="46.1035880" lon="10.4497860">
	<ele>1686.40</ele>
	<time>2024-07-25T07:58:16.000Z</time>
</trkpt>
<trkpt lat="46.1035950" lon="10.4497880">
	<ele>1686.60</ele>
	<time>2024-07-25T07:58:17.000Z</time>
</trkpt>
<trkpt lat="46.1036110" lon="10.4497870">
	<ele>1686.80</ele>
	<time>2024-07-25T07:58:18.000Z</time>
</trkpt>
<trkpt lat="46.1036210" lon="10.4497920">
	<ele>1687.00</ele>
	<time>2024-07-25T07:58:19.000Z</time>
</trkpt>
<trkpt lat="46.1036320" lon="10.4497910">
	<ele>1687.20</ele>
	<time>2024-07-25T07:58:20.000Z</time>
</trkpt>
<trkpt lat="46.1036400" lon="10.4497890">
	<ele>1687.40</ele>
	<time>2024-07-25T07:58:21.000Z</time>
</trkpt>
<trkpt lat="46.1036480" lon="10.4497890">
	<ele>1687.40</ele>
	<time>2024-07-25T07:58:22.000Z</time>
</trkpt>
<trkpt lat="46.1036590" lon="10.4497960">
	<ele>1687.60</ele>
	<time>2024-07-25T07:58:23.000Z</time>
</trkpt>
<trkpt lat="46.1036610" lon="10.4498050">
	<ele>1688.00</ele>
	<time>2024-07-25T07:58:24.000Z</time>
</trkpt>
<trkpt lat="46.1036720" lon="10.4498020">
	<ele>1688.00</ele>
	<time>2024-07-25T07:58:25.000Z</time>
</trkpt>
<trkpt lat="46.1036840" lon="10.4497960">
	<ele>1688.20</ele>
	<time>2024-07-25T07:58:26.000Z</time>
</trkpt>
<trkpt lat="46.1036950" lon="10.4497920">
	<ele>1688.40</ele>
	<time>2024-07-25T07:58:27.000Z</time>
</trkpt>
<trkpt lat="46.1037060" lon="10.4497890">
	<ele>1688.60</ele>
	<time>2024-07-25T07:58:28.000Z</time>
</trkpt>
<trkpt lat="46.1037110" lon="10.4497950">
	<ele>1688.60</ele>
	<time>2024-07-25T07:58:29.000Z</time>
</trkpt>
<trkpt lat="46.1037200" lon="10.4498000">
	<ele>1688.80</ele>
	<time>2024-07-25T07:58:30.000Z</time>
</trkpt>
<trkpt lat="46.1037290" lon="10.4498010">
	<ele>1689.00</ele>
	<time>2024-07-25T07:58:31.000Z</time>
</trkpt>
<trkpt lat="46.1037370" lon="10.4498010">
	<ele>1689.00</ele>
	<time>2024-07-25T07:58:32.000Z</time>
</trkpt>
<trkpt lat="46.1037450" lon="10.4498030">
	<ele>1689.20</ele>
	<time>2024-07-25T07:58:33.000Z</time>
</trkpt>
<trkpt lat="46.1037550" lon="10.4498050">
	<ele>1689.60</ele>
	<time>2024-07-25T07:58:34.000Z</time>
</trkpt>
<trkpt lat="46.1037660" lon="10.4498050">
	<ele>1689.80</ele>
	<time>2024-07-25T07:58:35.000Z</time>
</trkpt>
<trkpt lat="46.1037740" lon="10.4498060">
	<ele>1690.00</ele>
	<time>2024-07-25T07:58:36.000Z</time>
</trkpt>
<trkpt lat="46.1037830" lon="10.4498090">
	<ele>1690.20</ele>
	<time>2024-07-25T07:58:37.000Z</time>
</trkpt>
<trkpt lat="46.1037920" lon="10.4498130">
	<ele>1690.40</ele>
	<time>2024-07-25T07:58:38.000Z</time>
</trkpt>
<trkpt lat="46.1037990" lon="10.4498220">
	<ele>1690.40</ele>
	<time>2024-07-25T07:58:39.000Z</time>
</trkpt>
<trkpt lat="46.1038080" lon="10.4498270">
	<ele>1690.60</ele>
	<time>2024-07-25T07:58:40.000Z</time>
</trkpt>
<trkpt lat="46.1038210" lon="10.4498180">
	<ele>1690.60</ele>
	<time>2024-07-25T07:58:41.000Z</time>
</trkpt>
<trkpt lat="46.1038280" lon="10.4498240">
	<ele>1690.80</ele>
	<time>2024-07-25T07:58:42.000Z</time>
</trkpt>
<trkpt lat="46.1038380" lon="10.4498240">
	<ele>1691.00</ele>
	<time>2024-07-25T07:58:43.000Z</time>
</trkpt>
<trkpt lat="46.1038410" lon="10.4498400">
	<ele>1691.00</ele>
	<time>2024-07-25T07:58:44.000Z</time>
</trkpt>
<trkpt lat="46.1038420" lon="10.4498590">
	<ele>1691.20</ele>
	<time>2024-07-25T07:58:45.000Z</time>
</trkpt>
<trkpt lat="46.1038470" lon="10.4498700">
	<ele>1691.40</ele>
	<time>2024-07-25T07:58:46.000Z</time>
</trkpt>
<trkpt lat="46.1038500" lon="10.4498800">
	<ele>1691.80</ele>
	<time>2024-07-25T07:58:47.000Z</time>
</trkpt>
<trkpt lat="46.1038580" lon="10.4498840">
	<ele>1692.00</ele>
	<time>2024-07-25T07:58:48.000Z</time>
</trkpt>
<trkpt lat="46.1038650" lon="10.4498880">
	<ele>1692.00</ele>
	<time>2024-07-25T07:58:49.000Z</time>
</trkpt>
<trkpt lat="46.1038750" lon="10.4498910">
	<ele>1692.20</ele>
	<time>2024-07-25T07:58:50.000Z</time>
</trkpt>
<trkpt lat="46.1038860" lon="10.4498910">
	<ele>1692.40</ele>
	<time>2024-07-25T07:58:51.000Z</time>
</trkpt>
<trkpt lat="46.1038950" lon="10.4498960">
	<ele>1692.60</ele>
	<time>2024-07-25T07:58:52.000Z</time>
</trkpt>
<trkpt lat="46.1039070" lon="10.4498930">
	<ele>1692.60</ele>
	<time>2024-07-25T07:58:53.000Z</time>
</trkpt>
<trkpt lat="46.1039150" lon="10.4498950">
	<ele>1692.80</ele>
	<time>2024-07-25T07:58:54.000Z</time>
</trkpt>
<trkpt lat="46.1039220" lon="10.4499000">
	<ele>1693.20</ele>
	<time>2024-07-25T07:58:55.000Z</time>
</trkpt>
<trkpt lat="46.1039310" lon="10.4499070">
	<ele>1693.20</ele>
	<time>2024-07-25T07:58:56.000Z</time>
</trkpt>
<trkpt lat="46.1039410" lon="10.4499130">
	<ele>1693.40</ele>
	<time>2024-07-25T07:58:57.000Z</time>
</trkpt>
<trkpt lat="46.1039490" lon="10.4499150">
	<ele>1693.60</ele>
	<time>2024-07-25T07:58:58.000Z</time>
</trkpt>
<trkpt lat="46.1039580" lon="10.4499180">
	<ele>1693.60</ele>
	<time>2024-07-25T07:58:59.000Z</time>
</trkpt>
<trkpt lat="46.1039720" lon="10.4499070">
	<ele>1693.80</ele>
	<time>2024-07-25T07:59:00.000Z</time>
</trkpt>
<trkpt lat="46.1039750" lon="10.4499130">
	<ele>1694.00</ele>
	<time>2024-07-25T07:59:01.000Z</time>
</trkpt>
<trkpt lat="46.1039830" lon="10.4499210">
	<ele>1694.20</ele>
	<time>2024-07-25T07:59:02.000Z</time>
</trkpt>
<trkpt lat="46.1039900" lon="10.4499280">
	<ele>1694.40</ele>
	<time>2024-07-25T07:59:03.000Z</time>
</trkpt>
<trkpt lat="46.1039960" lon="10.4499340">
	<ele>1694.60</ele>
	<time>2024-07-25T07:59:04.000Z</time>
</trkpt>
<trkpt lat="46.1040050" lon="10.4499400">
	<ele>1694.60</ele>
	<time>2024-07-25T07:59:05.000Z</time>
</trkpt>
<trkpt lat="46.1040120" lon="10.4499400">
	<ele>1694.80</ele>
	<time>2024-07-25T07:59:06.000Z</time>
</trkpt>
<trkpt lat="46.1040210" lon="10.4499430">
	<ele>1695.00</ele>
	<time>2024-07-25T07:59:07.000Z</time>
</trkpt>
<trkpt lat="46.1040280" lon="10.4499570">
	<ele>1695.20</ele>
	<time>2024-07-25T07:59:08.000Z</time>
</trkpt>
<trkpt lat="46.1040340" lon="10.4499690">
	<ele>1695.40</ele>
	<time>2024-07-25T07:59:09.000Z</time>
</trkpt>
<trkpt lat="46.1040410" lon="10.4499750">
	<ele>1695.60</ele>
	<time>2024-07-25T07:59:10.000Z</time>
</trkpt>
<trkpt lat="46.1040470" lon="10.4499890">
	<ele>1695.80</ele>
	<time>2024-07-25T07:59:11.000Z</time>
</trkpt>
<trkpt lat="46.1040510" lon="10.4500040">
	<ele>1695.80</ele>
	<time>2024-07-25T07:59:12.000Z</time>
</trkpt>
<trkpt lat="46.1040620" lon="10.4500100">
	<ele>1696.00</ele>
	<time>2024-07-25T07:59:13.000Z</time>
</trkpt>
<trkpt lat="46.1040740" lon="10.4500120">
	<ele>1696.20</ele>
	<time>2024-07-25T07:59:14.000Z</time>
</trkpt>
<trkpt lat="46.1040810" lon="10.4500140">
	<ele>1696.40</ele>
	<time>2024-07-25T07:59:15.000Z</time>
</trkpt>
<trkpt lat="46.1040880" lon="10.4500240">
	<ele>1696.40</ele>
	<time>2024-07-25T07:59:16.000Z</time>
</trkpt>
<trkpt lat="46.1040930" lon="10.4500330">
	<ele>1696.60</ele>
	<time>2024-07-25T07:59:17.000Z</time>
</trkpt>
<trkpt lat="46.1040980" lon="10.4500440">
	<ele>1697.00</ele>
	<time>2024-07-25T07:59:18.000Z</time>
</trkpt>
<trkpt lat="46.1041000" lon="10.4500560">
	<ele>1697.20</ele>
	<time>2024-07-25T07:59:19.000Z</time>
</trkpt>
<trkpt lat="46.1041020" lon="10.4500650">
	<ele>1697.20</ele>
	<time>2024-07-25T07:59:20.000Z</time>
</trkpt>
<trkpt lat="46.1041040" lon="10.4500730">
	<ele>1697.40</ele>
	<time>2024-07-25T07:59:21.000Z</time>
</trkpt>
<trkpt lat="46.1041090" lon="10.4500830">
	<ele>1697.40</ele>
	<time>2024-07-25T07:59:22.000Z</time>
</trkpt>
<trkpt lat="46.1041140" lon="10.4500910">
	<ele>1697.40</ele>
	<time>2024-07-25T07:59:23.000Z</time>
</trkpt>
<trkpt lat="46.1041160" lon="10.4500950">
	<ele>1697.60</ele>
	<time>2024-07-25T07:59:24.000Z</time>
</trkpt>
<trkpt lat="46.1041210" lon="10.4501060">
	<ele>1698.00</ele>
	<time>2024-07-25T07:59:25.000Z</time>
</trkpt>
<trkpt lat="46.1041200" lon="10.4501200">
	<ele>1698.00</ele>
	<time>2024-07-25T07:59:26.000Z</time>
</trkpt>
<trkpt lat="46.1041210" lon="10.4501330">
	<ele>1698.20</ele>
	<time>2024-07-25T07:59:27.000Z</time>
</trkpt>
<trkpt lat="46.1041240" lon="10.4501500">
	<ele>1698.40</ele>
	<time>2024-07-25T07:59:28.000Z</time>
</trkpt>
<trkpt lat="46.1041250" lon="10.4501660">
	<ele>1698.60</ele>
	<time>2024-07-25T07:59:29.000Z</time>
</trkpt>
<trkpt lat="46.1041260" lon="10.4501760">
	<ele>1698.80</ele>
	<time>2024-07-25T07:59:30.000Z</time>
</trkpt>
<trkpt lat="46.1041260" lon="10.4501850">
	<ele>1699.00</ele>
	<time>2024-07-25T07:59:31.000Z</time>
</trkpt>
<trkpt lat="46.1041310" lon="10.4501940">
	<ele>1699.20</ele>
	<time>2024-07-25T07:59:32.000Z</time>
</trkpt>
<trkpt lat="46.1041330" lon="10.4502070">
	<ele>1699.20</ele>
	<time>2024-07-25T07:59:33.000Z</time>
</trkpt>
<trkpt lat="46.1041350" lon="10.4502100">
	<ele>1699.20</ele>
	<time>2024-07-25T07:59:34.000Z</time>
</trkpt>
<trkpt lat="46.1041430" lon="10.4502110">
	<ele>1699.40</ele>
	<time>2024-07-25T07:59:35.000Z</time>
</trkpt>
<trkpt lat="46.1041440" lon="10.4502180">
	<ele>1699.60</ele>
	<time>2024-07-25T07:59:36.000Z</time>
</trkpt>
<trkpt lat="46.1041450" lon="10.4502250">
	<ele>1699.80</ele>
	<time>2024-07-25T07:59:37.000Z</time>
</trkpt>
<trkpt lat="46.1041430" lon="10.4502350">
	<ele>1700.00</ele>
	<time>2024-07-25T07:59:38.000Z</time>
</trkpt>
<trkpt lat="46.1041430" lon="10.4502420">
	<ele>1700.20</ele>
	<time>2024-07-25T07:59:39.000Z</time>
</trkpt>
<trkpt lat="46.1041400" lon="10.4502490">
	<ele>1700.40</ele>
	<time>2024-07-25T07:59:40.000Z</time>
</trkpt>
<trkpt lat="46.1041360" lon="10.4502640">
	<ele>1700.60</ele>
	<time>2024-07-25T07:59:41.000Z</time>
</trkpt>
<trkpt lat="46.1041350" lon="10.4502830">
	<ele>1700.60</ele>
	<time>2024-07-25T07:59:42.000Z</time>
</trkpt>
<trkpt lat="46.1041350" lon="10.4503020">
	<ele>1700.80</ele>
	<time>2024-07-25T07:59:43.000Z</time>
</trkpt>
<trkpt lat="46.1041410" lon="10.4503100">
	<ele>1701.00</ele>
	<time>2024-07-25T07:59:44.000Z</time>
</trkpt>
<trkpt lat="46.1041480" lon="10.4503220">
	<ele>1701.20</ele>
	<time>2024-07-25T07:59:45.000Z</time>
</trkpt>
<trkpt lat="46.1041550" lon="10.4503350">
	<ele>1701.20</ele>
	<time>2024-07-25T07:59:46.000Z</time>
</trkpt>
<trkpt lat="46.1041590" lon="10.4503440">
	<ele>1701.40</ele>
	<time>2024-07-25T07:59:47.000Z</time>
</trkpt>
<trkpt lat="46.1041610" lon="10.4503530">
	<ele>1701.40</ele>
	<time>2024-07-25T07:59:48.000Z</time>
</trkpt>
<trkpt lat="46.1041610" lon="10.4503660">
	<ele>1701.80</ele>
	<time>2024-07-25T07:59:49.000Z</time>
</trkpt>
<trkpt lat="46.1041640" lon="10.4503820">
	<ele>1702.00</ele>
	<time>2024-07-25T07:59:50.000Z</time>
</trkpt>
<trkpt lat="46.1041680" lon="10.4504000">
	<ele>1702.00</ele>
	<time>2024-07-25T07:59:51.000Z</time>
</trkpt>
<trkpt lat="46.1041760" lon="10.4504120">
	<ele>1702.20</ele>
	<time>2024-07-25T07:59:52.000Z</time>
</trkpt>
<trkpt lat="46.1041810" lon="10.4504270">
	<ele>1702.40</ele>
	<time>2024-07-25T07:59:53.000Z</time>
</trkpt>
<trkpt lat="46.1041860" lon="10.4504370">
	<ele>1702.60</ele>
	<time>2024-07-25T07:59:54.000Z</time>
</trkpt>
<trkpt lat="46.1041890" lon="10.4504440">
	<ele>1702.80</ele>
	<time>2024-07-25T07:59:55.000Z</time>
</trkpt>
<trkpt lat="46.1041940" lon="10.4504540">
	<ele>1703.00</ele>
	<time>2024-07-25T07:59:56.000Z</time>
</trkpt>
<trkpt lat="46.1042040" lon="10.4504660">
	<ele>1703.00</ele>
	<time>2024-07-25T07:59:57.000Z</time>
</trkpt>
<trkpt lat="46.1042100" lon="10.4504760">
	<ele>1703.20</ele>
	<time>2024-07-25T07:59:58.000Z</time>
</trkpt>
<trkpt lat="46.1042160" lon="10.4504880">
	<ele>1703.40</ele>
	<time>2024-07-25T07:59:59.000Z</time>
</trkpt>
<trkpt lat="46.1042200" lon="10.4505030">
	<ele>1703.60</ele>
	<time>2024-07-25T08:00:00.000Z</time>
</trkpt>
<trkpt lat="46.1042230" lon="10.4505100">
	<ele>1703.80</ele>
	<time>2024-07-25T08:00:01.000Z</time>
</trkpt>
<trkpt lat="46.1042260" lon="10.4505170">
	<ele>1704.00</ele>
	<time>2024-07-25T08:00:02.000Z</time>
</trkpt>
<trkpt lat="46.1042330" lon="10.4505220">
	<ele>1704.20</ele>
	<time>2024-07-25T08:00:03.000Z</time>
</trkpt>
<trkpt lat="46.1042380" lon="10.4505300">
	<ele>1704.20</ele>
	<time>2024-07-25T08:00:04.000Z</time>
</trkpt>
<trkpt lat="46.1042430" lon="10.4505370">
	<ele>1704.40</ele>
	<time>2024-07-25T08:00:05.000Z</time>
</trkpt>
<trkpt lat="46.1042480" lon="10.4505490">
	<ele>1704.80</ele>
	<time>2024-07-25T08:00:06.000Z</time>
</trkpt>
<trkpt lat="46.1042530" lon="10.4505630">
	<ele>1705.00</ele>
	<time>2024-07-25T08:00:07.000Z</time>
</trkpt>
<trkpt lat="46.1042580" lon="10.4505780">
	<ele>1705.00</ele>
	<time>2024-07-25T08:00:08.000Z</time>
</trkpt>
<trkpt lat="46.1042650" lon="10.4505910">
	<ele>1705.00</ele>
	<time>2024-07-25T08:00:09.000Z</time>
</trkpt>
<trkpt lat="46.1042700" lon="10.4506030">
	<ele>1705.20</ele>
	<time>2024-07-25T08:00:10.000Z</time>
</trkpt>
<trkpt lat="46.1042740" lon="10.4506130">
	<ele>1705.20</ele>
	<time>2024-07-25T08:00:11.000Z</time>
</trkpt>
<trkpt lat="46.1042780" lon="10.4506230">
	<ele>1705.40</ele>
	<time>2024-07-25T08:00:12.000Z</time>
</trkpt>
<trkpt lat="46.1042830" lon="10.4506270">
	<ele>1705.60</ele>
	<time>2024-07-25T08:00:13.000Z</time>
</trkpt>
<trkpt lat="46.1042900" lon="10.4506340">
	<ele>1705.80</ele>
	<time>2024-07-25T08:00:14.000Z</time>
</trkpt>
<trkpt lat="46.1042950" lon="10.4506400">
	<ele>1706.00</ele>
	<time>2024-07-25T08:00:15.000Z</time>
</trkpt>
<trkpt lat="46.1042970" lon="10.4506630">
	<ele>1706.00</ele>
	<time>2024-07-25T08:00:16.000Z</time>
</trkpt>
<trkpt lat="46.1043040" lon="10.4506720">
	<ele>1706.20</ele>
	<time>2024-07-25T08:00:17.000Z</time>
</trkpt>
<trkpt lat="46.1043130" lon="10.4506800">
	<ele>1706.40</ele>
	<time>2024-07-25T08:00:18.000Z</time>
</trkpt>
<trkpt lat="46.1043230" lon="10.4506840">
	<ele>1706.60</ele>
	<time>2024-07-25T08:00:19.000Z</time>
</trkpt>
<trkpt lat="46.1043330" lon="10.4506880">
	<ele>1706.80</ele>
	<time>2024-07-25T08:00:20.000Z</time>
</trkpt>
<trkpt lat="46.1043420" lon="10.4506950">
	<ele>1707.00</ele>
	<time>2024-07-25T08:00:21.000Z</time>
</trkpt>
<trkpt lat="46.1043510" lon="10.4506990">
	<ele>1707.00</ele>
	<time>2024-07-25T08:00:22.000Z</time>
</trkpt>
<trkpt lat="46.1043580" lon="10.4507060">
	<ele>1707.20</ele>
	<time>2024-07-25T08:00:23.000Z</time>
</trkpt>
<trkpt lat="46.1043680" lon="10.4507060">
	<ele>1707.40</ele>
	<time>2024-07-25T08:00:24.000Z</time>
</trkpt>
<trkpt lat="46.1043770" lon="10.4507100">
	<ele>1707.60</ele>
	<time>2024-07-25T08:00:25.000Z</time>
</trkpt>
<trkpt lat="46.1043830" lon="10.4507180">
	<ele>1707.80</ele>
	<time>2024-07-25T08:00:26.000Z</time>
</trkpt>
<trkpt lat="46.1043900" lon="10.4507260">
	<ele>1708.00</ele>
	<time>2024-07-25T08:00:27.000Z</time>
</trkpt>
<trkpt lat="46.1044000" lon="10.4507320">
	<ele>1708.20</ele>
	<time>2024-07-25T08:00:28.000Z</time>
</trkpt>
<trkpt lat="46.1044070" lon="10.4507410">
	<ele>1708.20</ele>
	<time>2024-07-25T08:00:29.000Z</time>
</trkpt>
<trkpt lat="46.1044140" lon="10.4507460">
	<ele>1708.40</ele>
	<time>2024-07-25T08:00:30.000Z</time>
</trkpt>
<trkpt lat="46.1044190" lon="10.4507570">
	<ele>1708.60</ele>
	<time>2024-07-25T08:00:31.000Z</time>
</trkpt>
<trkpt lat="46.1044240" lon="10.4507680">
	<ele>1708.80</ele>
	<time>2024-07-25T08:00:32.000Z</time>
</trkpt>
<trkpt lat="46.1044310" lon="10.4507750">
	<ele>1709.00</ele>
	<time>2024-07-25T08:00:33.000Z</time>
</trkpt>
<trkpt lat="46.1044360" lon="10.4507850">
	<ele>1709.20</ele>
	<time>2024-07-25T08:00:34.000Z</time>
</trkpt>
<trkpt lat="46.1044420" lon="10.4507930">
	<ele>1709.40</ele>
	<time>2024-07-25T08:00:35.000Z</time>
</trkpt>
<trkpt lat="46.1044480" lon="10.4508020">
	<ele>1709.60</ele>
	<time>2024-07-25T08:00:36.000Z</time>
</trkpt>
<trkpt lat="46.1044540" lon="10.4508090">
	<ele>1709.60</ele>
	<time>2024-07-25T08:00:37.000Z</time>
</trkpt>
<trkpt lat="46.1044610" lon="10.4508160">
	<ele>1709.80</ele>
	<time>2024-07-25T08:00:38.000Z</time>
</trkpt>
<trkpt lat="46.1044660" lon="10.4508230">
	<ele>1710.20</ele>
	<time>2024-07-25T08:00:39.000Z</time>
</trkpt>
<trkpt lat="46.1044720" lon="10.4508280">
	<ele>1710.40</ele>
	<time>2024-07-25T08:00:40.000Z</time>
</trkpt>
<trkpt lat="46.1044760" lon="10.4508410">
	<ele>1710.60</ele>
	<time>2024-07-25T08:00:41.000Z</time>
</trkpt>
<trkpt lat="46.1044810" lon="10.4508500">
	<ele>1710.80</ele>
	<time>2024-07-25T08:00:42.000Z</time>
</trkpt>
<trkpt lat="46.1044780" lon="10.4508560">
	<ele>1710.80</ele>
	<time>2024-07-25T08:00:43.000Z</time>
</trkpt>
<trkpt lat="46.1044720" lon="10.4508690">
	<ele>1711.00</ele>
	<time>2024-07-25T08:00:44.000Z</time>
</trkpt>
<trkpt lat="46.1044710" lon="10.4508770">
	<ele>1711.00</ele>
	<time>2024-07-25T08:00:45.000Z</time>
</trkpt>
<trkpt lat="46.1044680" lon="10.4508820">
	<ele>1711.20</ele>
	<time>2024-07-25T08:00:46.000Z</time>
</trkpt>
<trkpt lat="46.1044680" lon="10.4508860">
	<ele>1711.20</ele>
	<time>2024-07-25T08:00:47.000Z</time>
</trkpt>
<trkpt lat="46.1044660" lon="10.4508880">
	<ele>1711.20</ele>
	<time>2024-07-25T08:00:48.000Z</time>
</trkpt>
<trkpt lat="46.1044660" lon="10.4508910">
	<ele>1711.40</ele>
	<time>2024-07-25T08:00:49.000Z</time>
</trkpt>
<trkpt lat="46.1044640" lon="10.4508910">
	<ele>1711.40</ele>
	<time>2024-07-25T08:00:50.000Z</time>
</trkpt>
<trkpt lat="46.1044640" lon="10.4508910">
	<ele>1711.60</ele>
	<time>2024-07-25T08:00:51.000Z</time>
</trkpt>
<trkpt lat="46.1044650" lon="10.4508900">
	<ele>1711.60</ele>
	<time>2024-07-25T08:00:52.000Z</time>
</trkpt>
<trkpt lat="46.1044660" lon="10.4508910">
	<ele>1711.60</ele>
	<time>2024-07-25T08:00:53.000Z</time>
</trkpt>
<trkpt lat="46.1044630" lon="10.4508900">
	<ele>1711.40</ele>
	<time>2024-07-25T08:00:54.000Z</time>
</trkpt>
<trkpt lat="46.1044610" lon="10.4508960">
	<ele>1711.40</ele>
	<time>2024-07-25T08:00:55.000Z</time>
</trkpt>
<trkpt lat="46.1044640" lon="10.4508990">
	<ele>1711.40</ele>
	<time>2024-07-25T08:00:56.000Z</time>
</trkpt>
<trkpt lat="46.1044740" lon="10.4508930">
	<ele>1711.40</ele>
	<time>2024-07-25T08:00:57.000Z</time>
</trkpt>
<trkpt lat="46.1044840" lon="10.4508930">
	<ele>1711.40</ele>
	<time>2024-07-25T08:00:58.000Z</time>
</trkpt>
<trkpt lat="46.1044950" lon="10.4508970">
	<ele>1711.40</ele>
	<time>2024-07-25T08:00:59.000Z</time>
</trkpt>
<trkpt lat="46.1045020" lon="10.4509080">
	<ele>1711.40</ele>
	<time>2024-07-25T08:01:00.000Z</time>
</trkpt>
<trkpt lat="46.1045120" lon="10.4509170">
	<ele>1711.40</ele>
	<time>2024-07-25T08:01:01.000Z</time>
</trkpt>
<trkpt lat="46.1045260" lon="10.4509150">
	<ele>1711.60</ele>
	<time>2024-07-25T08:01:02.000Z</time>
</trkpt>
<trkpt lat="46.1045370" lon="10.4509150">
	<ele>1711.80</ele>
	<time>2024-07-25T08:01:03.000Z</time>
</trkpt>
<trkpt lat="46.1045540" lon="10.4509120">
	<ele>1711.80</ele>
	<time>2024-07-25T08:01:04.000Z</time>
</trkpt>
<trkpt lat="46.1045660" lon="10.4509150">
	<ele>1712.00</ele>
	<time>2024-07-25T08:01:05.000Z</time>
</trkpt>
<trkpt lat="46.1045690" lon="10.4509260">
	<ele>1712.20</ele>
	<time>2024-07-25T08:01:06.000Z</time>
</trkpt>
<trkpt lat="46.1045760" lon="10.4509320">
	<ele>1712.40</ele>
	<time>2024-07-25T08:01:07.000Z</time>
</trkpt>
<trkpt lat="46.1045840" lon="10.4509400">
	<ele>1712.60</ele>
	<time>2024-07-25T08:01:08.000Z</time>
</trkpt>
<trkpt lat="46.1045880" lon="10.4509450">
	<ele>1712.80</ele>
	<time>2024-07-25T08:01:09.000Z</time>
</trkpt>
<trkpt lat="46.1045930" lon="10.4509570">
	<ele>1713.00</ele>
	<time>2024-07-25T08:01:10.000Z</time>
</trkpt>
<trkpt lat="46.1046030" lon="10.4509620">
	<ele>1713.00</ele>
	<time>2024-07-25T08:01:11.000Z</time>
</trkpt>
<trkpt lat="46.1046110" lon="10.4509680">
	<ele>1713.20</ele>
	<time>2024-07-25T08:01:12.000Z</time>
</trkpt>
<trkpt lat="46.1046170" lon="10.4509770">
	<ele>1713.40</ele>
	<time>2024-07-25T08:01:13.000Z</time>
</trkpt>
<trkpt lat="46.1046270" lon="10.4509830">
	<ele>1713.40</ele>
	<time>2024-07-25T08:01:14.000Z</time>
</trkpt>
<trkpt lat="46.1046340" lon="10.4509930">
	<ele>1713.60</ele>
	<time>2024-07-25T08:01:15.000Z</time>
</trkpt>
<trkpt lat="46.1046410" lon="10.4510050">
	<ele>1713.80</ele>
	<time>2024-07-25T08:01:16.000Z</time>
</trkpt>
<trkpt lat="46.1046480" lon="10.4510150">
	<ele>1714.00</ele>
	<time>2024-07-25T08:01:17.000Z</time>
</trkpt>
<trkpt lat="46.1046550" lon="10.4510240">
	<ele>1714.20</ele>
	<time>2024-07-25T08:01:18.000Z</time>
</trkpt>
<trkpt lat="46.1046610" lon="10.4510280">
	<ele>1714.40</ele>
	<time>2024-07-25T08:01:19.000Z</time>
</trkpt>
<trkpt lat="46.1046670" lon="10.4510330">
	<ele>1714.60</ele>
	<time>2024-07-25T08:01:20.000Z</time>
</trkpt>
<trkpt lat="46.1046740" lon="10.4510360">
	<ele>1714.80</ele>
	<time>2024-07-25T08:01:21.000Z</time>
</trkpt>
<trkpt lat="46.1046780" lon="10.4510420">
	<ele>1714.80</ele>
	<time>2024-07-25T08:01:22.000Z</time>
</trkpt>
<trkpt lat="46.1046860" lon="10.4510470">
	<ele>1715.00</ele>
	<time>2024-07-25T08:01:23.000Z</time>
</trkpt>
<trkpt lat="46.1046960" lon="10.4510600">
	<ele>1715.20</ele>
	<time>2024-07-25T08:01:24.000Z</time>
</trkpt>
<trkpt lat="46.1047040" lon="10.4510730">
	<ele>1715.40</ele>
	<time>2024-07-25T08:01:25.000Z</time>
</trkpt>
<trkpt lat="46.1047090" lon="10.4510900">
	<ele>1715.60</ele>
	<time>2024-07-25T08:01:26.000Z</time>
</trkpt>
<trkpt lat="46.1047180" lon="10.4510970">
	<ele>1715.80</ele>
	<time>2024-07-25T08:01:27.000Z</time>
</trkpt>
<trkpt lat="46.1047250" lon="10.4510980">
	<ele>1715.80</ele>
	<time>2024-07-25T08:01:28.000Z</time>
</trkpt>
<trkpt lat="46.1047360" lon="10.4510990">
	<ele>1716.00</ele>
	<time>2024-07-25T08:01:29.000Z</time>
</trkpt>
<trkpt lat="46.1047430" lon="10.4511010">
	<ele>1716.20</ele>
	<time>2024-07-25T08:01:30.000Z</time>
</trkpt>
<trkpt lat="46.1047510" lon="10.4511010">
	<ele>1716.60</ele>
	<time>2024-07-25T08:01:31.000Z</time>
</trkpt>
<trkpt lat="46.1047590" lon="10.4511030">
	<ele>1717.00</ele>
	<time>2024-07-25T08:01:32.000Z</time>
</trkpt>
<trkpt lat="46.1047670" lon="10.4511080">
	<ele>1717.20</ele>
	<time>2024-07-25T08:01:33.000Z</time>
</trkpt>
<trkpt lat="46.1047750" lon="10.4511080">
	<ele>1717.40</ele>
	<time>2024-07-25T08:01:34.000Z</time>
</trkpt>
<trkpt lat="46.1047860" lon="10.4511090">
	<ele>1717.60</ele>
	<time>2024-07-25T08:01:35.000Z</time>
</trkpt>
<trkpt lat="46.1047970" lon="10.4511050">
	<ele>1717.80</ele>
	<time>2024-07-25T08:01:36.000Z</time>
</trkpt>
<trkpt lat="46.1048080" lon="10.4511050">
	<ele>1718.00</ele>
	<time>2024-07-25T08:01:37.000Z</time>
</trkpt>
<trkpt lat="46.1048190" lon="10.4511020">
	<ele>1718.40</ele>
	<time>2024-07-25T08:01:38.000Z</time>
</trkpt>
<trkpt lat="46.1048280" lon="10.4511060">
	<ele>1718.60</ele>
	<time>2024-07-25T08:01:39.000Z</time>
</trkpt>
<trkpt lat="46.1048340" lon="10.4511150">
	<ele>1719.00</ele>
	<time>2024-07-25T08:01:40.000Z</time>
</trkpt>
<trkpt lat="46.1048380" lon="10.4511180">
	<ele>1719.20</ele>
	<time>2024-07-25T08:01:41.000Z</time>
</trkpt>
<trkpt lat="46.1048450" lon="10.4511210">
	<ele>1719.40</ele>
	<time>2024-07-25T08:01:42.000Z</time>
</trkpt>
<trkpt lat="46.1048530" lon="10.4511260">
	<ele>1719.40</ele>
	<time>2024-07-25T08:01:43.000Z</time>
</trkpt>
<trkpt lat="46.1048610" lon="10.4511260">
	<ele>1719.60</ele>
	<time>2024-07-25T08:01:44.000Z</time>
</trkpt>
<trkpt lat="46.1048710" lon="10.4511270">
	<ele>1719.80</ele>
	<time>2024-07-25T08:01:45.000Z</time>
</trkpt>
<trkpt lat="46.1048820" lon="10.4511280">
	<ele>1719.80</ele>
	<time>2024-07-25T08:01:46.000Z</time>
</trkpt>
<trkpt lat="46.1048950" lon="10.4511260">
	<ele>1720.00</ele>
	<time>2024-07-25T08:01:47.000Z</time>
</trkpt>
<trkpt lat="46.1049140" lon="10.4511030">
	<ele>1720.20</ele>
	<time>2024-07-25T08:01:48.000Z</time>
</trkpt>
<trkpt lat="46.1049240" lon="10.4511030">
	<ele>1720.40</ele>
	<time>2024-07-25T08:01:49.000Z</time>
</trkpt>
<trkpt lat="46.1049310" lon="10.4511000">
	<ele>1720.60</ele>
	<time>2024-07-25T08:01:50.000Z</time>
</trkpt>
<trkpt lat="46.1049410" lon="10.4511060">
	<ele>1721.00</ele>
	<time>2024-07-25T08:01:51.000Z</time>
</trkpt>
<trkpt lat="46.1049510" lon="10.4511100">
	<ele>1721.20</ele>
	<time>2024-07-25T08:01:52.000Z</time>
</trkpt>
<trkpt lat="46.1049590" lon="10.4511170">
	<ele>1721.20</ele>
	<time>2024-07-25T08:01:53.000Z</time>
</trkpt>
<trkpt lat="46.1049680" lon="10.4511260">
	<ele>1721.40</ele>
	<time>2024-07-25T08:01:54.000Z</time>
</trkpt>
<trkpt lat="46.1049730" lon="10.4511350">
	<ele>1721.60</ele>
	<time>2024-07-25T08:01:55.000Z</time>
</trkpt>
<trkpt lat="46.1049760" lon="10.4511510">
	<ele>1721.80</ele>
	<time>2024-07-25T08:01:56.000Z</time>
</trkpt>
<trkpt lat="46.1049850" lon="10.4511640">
	<ele>1722.20</ele>
	<time>2024-07-25T08:01:57.000Z</time>
</trkpt>
<trkpt lat="46.1049900" lon="10.4511760">
	<ele>1722.40</ele>
	<time>2024-07-25T08:01:58.000Z</time>
</trkpt>
<trkpt lat="46.1049940" lon="10.4511910">
	<ele>1722.60</ele>
	<time>2024-07-25T08:01:59.000Z</time>
</trkpt>
<trkpt lat="46.1050000" lon="10.4512080">
	<ele>1722.60</ele>
	<time>2024-07-25T08:02:00.000Z</time>
</trkpt>
<trkpt lat="46.1050100" lon="10.4512200">
	<ele>1722.80</ele>
	<time>2024-07-25T08:02:01.000Z</time>
</trkpt>
<trkpt lat="46.1050170" lon="10.4512250">
	<ele>1722.80</ele>
	<time>2024-07-25T08:02:02.000Z</time>
</trkpt>
<trkpt lat="46.1050230" lon="10.4512290">
	<ele>1723.00</ele>
	<time>2024-07-25T08:02:03.000Z</time>
</trkpt>
<trkpt lat="46.1050330" lon="10.4512350">
	<ele>1723.40</ele>
	<time>2024-07-25T08:02:04.000Z</time>
</trkpt>
<trkpt lat="46.1050410" lon="10.4512390">
	<ele>1723.60</ele>
	<time>2024-07-25T08:02:05.000Z</time>
</trkpt>
<trkpt lat="46.1050490" lon="10.4512450">
	<ele>1723.60</ele>
	<time>2024-07-25T08:02:06.000Z</time>
</trkpt>
<trkpt lat="46.1050580" lon="10.4512520">
	<ele>1723.80</ele>
	<time>2024-07-25T08:02:07.000Z</time>
</trkpt>
<trkpt lat="46.1050700" lon="10.4512550">
	<ele>1723.80</ele>
	<time>2024-07-25T08:02:08.000Z</time>
</trkpt>
<trkpt lat="46.1050780" lon="10.4512600">
	<ele>1724.00</ele>
	<time>2024-07-25T08:02:09.000Z</time>
</trkpt>
<trkpt lat="46.1050840" lon="10.4512650">
	<ele>1724.20</ele>
	<time>2024-07-25T08:02:10.000Z</time>
</trkpt>
<trkpt lat="46.1050900" lon="10.4512680">
	<ele>1724.40</ele>
	<time>2024-07-25T08:02:11.000Z</time>
</trkpt>
<trkpt lat="46.1050950" lon="10.4512720">
	<ele>1724.40</ele>
	<time>2024-07-25T08:02:12.000Z</time>
</trkpt>
<trkpt lat="46.1051010" lon="10.4512760">
	<ele>1724.60</ele>
	<time>2024-07-25T08:02:13.000Z</time>
</trkpt>
<trkpt lat="46.1051090" lon="10.4512780">
	<ele>1725.00</ele>
	<time>2024-07-25T08:02:14.000Z</time>
</trkpt>
<trkpt lat="46.1051180" lon="10.4512810">
	<ele>1725.20</ele>
	<time>2024-07-25T08:02:15.000Z</time>
</trkpt>
<trkpt lat="46.1051260" lon="10.4512860">
	<ele>1725.20</ele>
	<time>2024-07-25T08:02:16.000Z</time>
</trkpt>
<trkpt lat="46.1051330" lon="10.4512930">
	<ele>1725.40</ele>
	<time>2024-07-25T08:02:17.000Z</time>
</trkpt>
<trkpt lat="46.1051440" lon="10.4512920">
	<ele>1725.40</ele>
	<time>2024-07-25T08:02:18.000Z</time>
</trkpt>
<trkpt lat="46.1051530" lon="10.4513000">
	<ele>1725.60</ele>
	<time>2024-07-25T08:02:19.000Z</time>
</trkpt>
<trkpt lat="46.1051620" lon="10.4513070">
	<ele>1725.80</ele>
	<time>2024-07-25T08:02:20.000Z</time>
</trkpt>
<trkpt lat="46.1051670" lon="10.4513130">
	<ele>1726.20</ele>
	<time>2024-07-25T08:02:21.000Z</time>
</trkpt>
<trkpt lat="46.1051740" lon="10.4513210">
	<ele>1726.20</ele>
	<time>2024-07-25T08:02:22.000Z</time>
</trkpt>
<trkpt lat="46.1051790" lon="10.4513260">
	<ele>1726.40</ele>
	<time>2024-07-25T08:02:23.000Z</time>
</trkpt>
<trkpt lat="46.1051850" lon="10.4513360">
	<ele>1726.40</ele>
	<time>2024-07-25T08:02:24.000Z</time>
</trkpt>
<trkpt lat="46.1051920" lon="10.4513440">
	<ele>1726.60</ele>
	<time>2024-07-25T08:02:25.000Z</time>
</trkpt>
<trkpt lat="46.1051990" lon="10.4513490">
	<ele>1726.80</ele>
	<time>2024-07-25T08:02:26.000Z</time>
</trkpt>
<trkpt lat="46.1052060" lon="10.4513570">
	<ele>1727.00</ele>
	<time>2024-07-25T08:02:27.000Z</time>
</trkpt>
<trkpt lat="46.1052150" lon="10.4513640">
	<ele>1727.20</ele>
	<time>2024-07-25T08:02:28.000Z</time>
</trkpt>
<trkpt lat="46.1052240" lon="10.4513690">
	<ele>1727.40</ele>
	<time>2024-07-25T08:02:29.000Z</time>
</trkpt>
<trkpt lat="46.1052310" lon="10.4513760">
	<ele>1727.60</ele>
	<time>2024-07-25T08:02:30.000Z</time>
</trkpt>
<trkpt lat="46.1052380" lon="10.4513830">
	<ele>1727.80</ele>
	<time>2024-07-25T08:02:31.000Z</time>
</trkpt>
<trkpt lat="46.1052440" lon="10.4513900">
	<ele>1727.80</ele>
	<time>2024-07-25T08:02:32.000Z</time>
</trkpt>
<trkpt lat="46.1052520" lon="10.4513960">
	<ele>1728.20</ele>
	<time>2024-07-25T08:02:33.000Z</time>
</trkpt>
<trkpt lat="46.1052570" lon="10.4514100">
	<ele>1728.40</ele>
	<time>2024-07-25T08:02:34.000Z</time>
</trkpt>
<trkpt lat="46.1052630" lon="10.4514220">
	<ele>1728.60</ele>
	<time>2024-07-25T08:02:35.000Z</time>
</trkpt>
<trkpt lat="46.1052690" lon="10.4514310">
	<ele>1728.80</ele>
	<time>2024-07-25T08:02:36.000Z</time>
</trkpt>
<trkpt lat="46.1052750" lon="10.4514410">
	<ele>1728.80</ele>
	<time>2024-07-25T08:02:37.000Z</time>
</trkpt>
<trkpt lat="46.1052790" lon="10.4514520">
	<ele>1729.00</ele>
	<time>2024-07-25T08:02:38.000Z</time>
</trkpt>
<trkpt lat="46.1052740" lon="10.4514490">
	<ele>1729.20</ele>
	<time>2024-07-25T08:02:39.000Z</time>
</trkpt>
<trkpt lat="46.1052740" lon="10.4514540">
	<ele>1729.40</ele>
	<time>2024-07-25T08:02:40.000Z</time>
</trkpt>
<trkpt lat="46.1052790" lon="10.4514570">
	<ele>1729.60</ele>
	<time>2024-07-25T08:02:41.000Z</time>
</trkpt>
<trkpt lat="46.1052850" lon="10.4514640">
	<ele>1729.80</ele>
	<time>2024-07-25T08:02:42.000Z</time>
</trkpt>
<trkpt lat="46.1052880" lon="10.4514740">
	<ele>1730.00</ele>
	<time>2024-07-25T08:02:43.000Z</time>
</trkpt>
<trkpt lat="46.1052920" lon="10.4514870">
	<ele>1730.00</ele>
	<time>2024-07-25T08:02:44.000Z</time>
</trkpt>
<trkpt lat="46.1052980" lon="10.4514990">
	<ele>1730.20</ele>
	<time>2024-07-25T08:02:45.000Z</time>
</trkpt>
<trkpt lat="46.1053040" lon="10.4515140">
	<ele>1730.40</ele>
	<time>2024-07-25T08:02:46.000Z</time>
</trkpt>
<trkpt lat="46.1053080" lon="10.4515230">
	<ele>1730.60</ele>
	<time>2024-07-25T08:02:47.000Z</time>
</trkpt>
<trkpt lat="46.1053160" lon="10.4515320">
	<ele>1730.80</ele>
	<time>2024-07-25T08:02:48.000Z</time>
</trkpt>
<trkpt lat="46.1053260" lon="10.4515520">
	<ele>1731.00</ele>
	<time>2024-07-25T08:02:49.000Z</time>
</trkpt>
<trkpt lat="46.1053350" lon="10.4515690">
	<ele>1731.20</ele>
	<time>2024-07-25T08:02:50.000Z</time>
</trkpt>
<trkpt lat="46.1053420" lon="10.4515830">
	<ele>1731.40</ele>
	<time>2024-07-25T08:02:51.000Z</time>
</trkpt>
<trkpt lat="46.1053490" lon="10.4515970">
	<ele>1731.60</ele>
	<time>2024-07-25T08:02:52.000Z</time>
</trkpt>
<trkpt lat="46.1053590" lon="10.4515990">
	<ele>1731.80</ele>
	<time>2024-07-25T08:02:53.000Z</time>
</trkpt>
<trkpt lat="46.1053690" lon="10.4515960">
	<ele>1732.00</ele>
	<time>2024-07-25T08:02:54.000Z</time>
</trkpt>
<trkpt lat="46.1053730" lon="10.4516050">
	<ele>1732.20</ele>
	<time>2024-07-25T08:02:55.000Z</time>
</trkpt>
<trkpt lat="46.1053780" lon="10.4516180">
	<ele>1732.40</ele>
	<time>2024-07-25T08:02:56.000Z</time>
</trkpt>
<trkpt lat="46.1053810" lon="10.4516280">
	<ele>1732.40</ele>
	<time>2024-07-25T08:02:57.000Z</time>
</trkpt>
<trkpt lat="46.1053850" lon="10.4516400">
	<ele>1732.80</ele>
	<time>2024-07-25T08:02:58.000Z</time>
</trkpt>
<trkpt lat="46.1053880" lon="10.4516520">
	<ele>1733.00</ele>
	<time>2024-07-25T08:02:59.000Z</time>
</trkpt>
<trkpt lat="46.1053920" lon="10.4516650">
	<ele>1733.20</ele>
	<time>2024-07-25T08:03:00.000Z</time>
</trkpt>
<trkpt lat="46.1053960" lon="10.4516730">
	<ele>1733.20</ele>
	<time>2024-07-25T08:03:01.000Z</time>
</trkpt>
<trkpt lat="46.1053990" lon="10.4516870">
	<ele>1733.60</ele>
	<time>2024-07-25T08:03:02.000Z</time>
</trkpt>
<trkpt lat="46.1054030" lon="10.4517000">
	<ele>1733.80</ele>
	<time>2024-07-25T08:03:03.000Z</time>
</trkpt>
<trkpt lat="46.1054070" lon="10.4517150">
	<ele>1734.00</ele>
	<time>2024-07-25T08:03:04.000Z</time>
</trkpt>
<trkpt lat="46.1054100" lon="10.4517310">
	<ele>1734.00</ele>
	<time>2024-07-25T08:03:05.000Z</time>
</trkpt>
<trkpt lat="46.1054160" lon="10.4517440">
	<ele>1734.20</ele>
	<time>2024-07-25T08:03:06.000Z</time>
</trkpt>
<trkpt lat="46.1054180" lon="10.4517530">
	<ele>1734.40</ele>
	<time>2024-07-25T08:03:07.000Z</time>
</trkpt>
<trkpt lat="46.1054210" lon="10.4517680">
	<ele>1734.40</ele>
	<time>2024-07-25T08:03:08.000Z</time>
</trkpt>
<trkpt lat="46.1054220" lon="10.4517820">
	<ele>1734.60</ele>
	<time>2024-07-25T08:03:09.000Z</time>
</trkpt>
<trkpt lat="46.1054210" lon="10.4517910">
	<ele>1734.80</ele>
	<time>2024-07-25T08:03:10.000Z</time>
</trkpt>
<trkpt lat="46.1054220" lon="10.4518000">
	<ele>1735.00</ele>
	<time>2024-07-25T08:03:11.000Z</time>
</trkpt>
<trkpt lat="46.1054230" lon="10.4518110">
	<ele>1735.20</ele>
	<time>2024-07-25T08:03:12.000Z</time>
</trkpt>
<trkpt lat="46.1054250" lon="10.4518260">
	<ele>1735.40</ele>
	<time>2024-07-25T08:03:13.000Z</time>
</trkpt>
<trkpt lat="46.1054280" lon="10.4518340">
	<ele>1735.60</ele>
	<time>2024-07-25T08:03:14.000Z</time>
</trkpt>
<trkpt lat="46.1054270" lon="10.4518420">
	<ele>1735.80</ele>
	<time>2024-07-25T08:03:15.000Z</time>
</trkpt>
<trkpt lat="46.1054270" lon="10.4518560">
	<ele>1736.00</ele>
	<time>2024-07-25T08:03:16.000Z</time>
</trkpt>
<trkpt lat="46.1054270" lon="10.4518670">
	<ele>1736.20</ele>
	<time>2024-07-25T08:03:17.000Z</time>
</trkpt>
<trkpt lat="46.1054240" lon="10.4518770">
	<ele>1736.20</ele>
	<time>2024-07-25T08:03:18.000Z</time>
</trkpt>
<trkpt lat="46.1054250" lon="10.4518960">
	<ele>1736.40</ele>
	<time>2024-07-25T08:03:19.000Z</time>
</trkpt>
<trkpt lat="46.1054320" lon="10.4519130">
	<ele>1736.60</ele>
	<time>2024-07-25T08:03:20.000Z</time>
</trkpt>
<trkpt lat="46.1054350" lon="10.4519310">
	<ele>1736.80</ele>
	<time>2024-07-25T08:03:21.000Z</time>
</trkpt>
<trkpt lat="46.1054360" lon="10.4519410">
	<ele>1737.00</ele>
	<time>2024-07-25T08:03:22.000Z</time>
</trkpt>
<trkpt lat="46.1054390" lon="10.4519520">
	<ele>1737.20</ele>
	<time>2024-07-25T08:03:23.000Z</time>
</trkpt>
<trkpt lat="46.1054430" lon="10.4519660">
	<ele>1737.40</ele>
	<time>2024-07-25T08:03:24.000Z</time>
</trkpt>
<trkpt lat="46.1054440" lon="10.4519690">
	<ele>1737.60</ele>
	<time>2024-07-25T08:03:25.000Z</time>
</trkpt>
<trkpt lat="46.1054470" lon="10.4519740">
	<ele>1737.80</ele>
	<time>2024-07-25T08:03:26.000Z</time>
</trkpt>
<trkpt lat="46.1054490" lon="10.4519910">
	<ele>1738.00</ele>
	<time>2024-07-25T08:03:27.000Z</time>
</trkpt>
<trkpt lat="46.1054480" lon="10.4520050">
	<ele>1738.20</ele>
	<time>2024-07-25T08:03:28.000Z</time>
</trkpt>
<trkpt lat="46.1054410" lon="10.4520170">
	<ele>1738.40</ele>
	<time>2024-07-25T08:03:29.000Z</time>
</trkpt>
<trkpt lat="46.1054400" lon="10.4520210">
	<ele>1738.80</ele>
	<time>2024-07-25T08:03:30.000Z</time>
</trkpt>
<trkpt lat="46.1054420" lon="10.4520280">
	<ele>1738.80</ele>
	<time>2024-07-25T08:03:31.000Z</time>
</trkpt>
<trkpt lat="46.1054430" lon="10.4520430">
	<ele>1739.00</ele>
	<time>2024-07-25T08:03:32.000Z</time>
</trkpt>
<trkpt lat="46.1054440" lon="10.4520540">
	<ele>1739.20</ele>
	<time>2024-07-25T08:03:33.000Z</time>
</trkpt>
<trkpt lat="46.1054410" lon="10.4520700">
	<ele>1739.40</ele>
	<time>2024-07-25T08:03:34.000Z</time>
</trkpt>
<trkpt lat="46.1054400" lon="10.4520840">
	<ele>1739.60</ele>
	<time>2024-07-25T08:03:35.000Z</time>
</trkpt>
<trkpt lat="46.1054460" lon="10.4520960">
	<ele>1739.80</ele>
	<time>2024-07-25T08:03:36.000Z</time>
</trkpt>
<trkpt lat="46.1054480" lon="10.4521090">
	<ele>1740.00</ele>
	<time>2024-07-25T08:03:37.000Z</time>
</trkpt>
<trkpt lat="46.1054520" lon="10.4521150">
	<ele>1740.00</ele>
	<time>2024-07-25T08:03:38.000Z</time>
</trkpt>
<trkpt lat="46.1054580" lon="10.4521250">
	<ele>1740.20</ele>
	<time>2024-07-25T08:03:39.000Z</time>
</trkpt>
<trkpt lat="46.1054590" lon="10.4521310">
	<ele>1740.60</ele>
	<time>2024-07-25T08:03:40.000Z</time>
</trkpt>
<trkpt lat="46.1054590" lon="10.4521410">
	<ele>1740.60</ele>
	<time>2024-07-25T08:03:41.000Z</time>
</trkpt>
<trkpt lat="46.1054600" lon="10.4521490">
	<ele>1740.80</ele>
	<time>2024-07-25T08:03:42.000Z</time>
</trkpt>
<trkpt lat="46.1054590" lon="10.4521620">
	<ele>1741.00</ele>
	<time>2024-07-25T08:03:43.000Z</time>
</trkpt>
<trkpt lat="46.1054590" lon="10.4521770">
	<ele>1741.20</ele>
	<time>2024-07-25T08:03:44.000Z</time>
</trkpt>
<trkpt lat="46.1054570" lon="10.4521850">
	<ele>1741.20</ele>
	<time>2024-07-25T08:03:45.000Z</time>
</trkpt>
<trkpt lat="46.1054530" lon="10.4521940">
	<ele>1741.60</ele>
	<time>2024-07-25T08:03:46.000Z</time>
</trkpt>
<trkpt lat="46.1054480" lon="10.4522000">
	<ele>1741.80</ele>
	<time>2024-07-25T08:03:47.000Z</time>
</trkpt>
<trkpt lat="46.1054460" lon="10.4522060">
	<ele>1742.00</ele>
	<time>2024-07-25T08:03:48.000Z</time>
</trkpt>
<trkpt lat="46.1054420" lon="10.4522150">
	<ele>1742.00</ele>
	<time>2024-07-25T08:03:49.000Z</time>
</trkpt>
<trkpt lat="46.1054370" lon="10.4522200">
	<ele>1742.20</ele>
	<time>2024-07-25T08:03:50.000Z</time>
</trkpt>
<trkpt lat="46.1054320" lon="10.4522230">
	<ele>1742.20</ele>
	<time>2024-07-25T08:03:51.000Z</time>
</trkpt>
<trkpt lat="46.1054270" lon="10.4522270">
	<ele>1742.40</ele>
	<time>2024-07-25T08:03:52.000Z</time>
</trkpt>
<trkpt lat="46.1054220" lon="10.4522350">
	<ele>1742.60</ele>
	<time>2024-07-25T08:03:53.000Z</time>
</trkpt>
<trkpt lat="46.1054180" lon="10.4522460">
	<ele>1742.80</ele>
	<time>2024-07-25T08:03:54.000Z</time>
</trkpt>
<trkpt lat="46.1054140" lon="10.4522580">
	<ele>1743.20</ele>
	<time>2024-07-25T08:03:55.000Z</time>
</trkpt>
<trkpt lat="46.1054110" lon="10.4522670">
	<ele>1743.40</ele>
	<time>2024-07-25T08:03:56.000Z</time>
</trkpt>
<trkpt lat="46.1054070" lon="10.4522670">
	<ele>1743.40</ele>
	<time>2024-07-25T08:03:57.000Z</time>
</trkpt>
<trkpt lat="46.1054090" lon="10.4522690">
	<ele>1743.60</ele>
	<time>2024-07-25T08:03:58.000Z</time>
</trkpt>
<trkpt lat="46.1054050" lon="10.4522700">
	<ele>1743.60</ele>
	<time>2024-07-25T08:03:59.000Z</time>
</trkpt>
<trkpt lat="46.1054000" lon="10.4522730">
	<ele>1743.80</ele>
	<time>2024-07-25T08:04:00.000Z</time>
</trkpt>
<trkpt lat="46.1053910" lon="10.4522810">
	<ele>1744.20</ele>
	<time>2024-07-25T08:04:01.000Z</time>
</trkpt>
<trkpt lat="46.1053890" lon="10.4522870">
	<ele>1744.40</ele>
	<time>2024-07-25T08:04:02.000Z</time>
</trkpt>
<trkpt lat="46.1053880" lon="10.4522920">
	<ele>1744.60</ele>
	<time>2024-07-25T08:04:03.000Z</time>
</trkpt>
<trkpt lat="46.1053850" lon="10.4523020">
	<ele>1744.80</ele>
	<time>2024-07-25T08:04:04.000Z</time>
</trkpt>
<trkpt lat="46.1053800" lon="10.4523110">
	<ele>1745.00</ele>
	<time>2024-07-25T08:04:05.000Z</time>
</trkpt>
<trkpt lat="46.1053740" lon="10.4523210">
	<ele>1745.20</ele>
	<time>2024-07-25T08:04:06.000Z</time>
</trkpt>
<trkpt lat="46.1053660" lon="10.4523300">
	<ele>1745.20</ele>
	<time>2024-07-25T08:04:07.000Z</time>
</trkpt>
<trkpt lat="46.1053620" lon="10.4523450">
	<ele>1745.60</ele>
	<time>2024-07-25T08:04:08.000Z</time>
</trkpt>
<trkpt lat="46.1053610" lon="10.4523630">
	<ele>1745.80</ele>
	<time>2024-07-25T08:04:09.000Z</time>
</trkpt>
<trkpt lat="46.1053650" lon="10.4523770">
	<ele>1746.00</ele>
	<time>2024-07-25T08:04:10.000Z</time>
</trkpt>
<trkpt lat="46.1053700" lon="10.4523850">
	<ele>1746.00</ele>
	<time>2024-07-25T08:04:11.000Z</time>
</trkpt>
<trkpt lat="46.1053790" lon="10.4523950">
	<ele>1746.20</ele>
	<time>2024-07-25T08:04:12.000Z</time>
</trkpt>
<trkpt lat="46.1053820" lon="10.4524090">
	<ele>1746.20</ele>
	<time>2024-07-25T08:04:13.000Z</time>
</trkpt>
<trkpt lat="46.1053860" lon="10.4524220">
	<ele>1746.40</ele>
	<time>2024-07-25T08:04:14.000Z</time>
</trkpt>
<trkpt lat="46.1053900" lon="10.4524320">
	<ele>1746.80</ele>
	<time>2024-07-25T08:04:15.000Z</time>
</trkpt>
<trkpt lat="46.1053980" lon="10.4524430">
	<ele>1747.00</ele>
	<time>2024-07-25T08:04:16.000Z</time>
</trkpt>
<trkpt lat="46.1054080" lon="10.4524520">
	<ele>1747.20</ele>
	<time>2024-07-25T08:04:17.000Z</time>
</trkpt>
<trkpt lat="46.1054180" lon="10.4524600">
	<ele>1747.20</ele>
	<time>2024-07-25T08:04:18.000Z</time>
</trkpt>
<trkpt lat="46.1054250" lon="10.4524650">
	<ele>1747.40</ele>
	<time>2024-07-25T08:04:19.000Z</time>
</trkpt>
<trkpt lat="46.1054310" lon="10.4524690">
	<ele>1747.60</ele>
	<time>2024-07-25T08:04:20.000Z</time>
</trkpt>
<trkpt lat="46.1054370" lon="10.4524780">
	<ele>1747.60</ele>
	<time>2024-07-25T08:04:21.000Z</time>
</trkpt>
<trkpt lat="46.1054420" lon="10.4524830">
	<ele>1747.80</ele>
	<time>2024-07-25T08:04:22.000Z</time>
</trkpt>
<trkpt lat="46.1054500" lon="10.4524880">
	<ele>1748.00</ele>
	<time>2024-07-25T08:04:23.000Z</time>
</trkpt>
<trkpt lat="46.1054620" lon="10.4524880">
	<ele>1748.20</ele>
	<time>2024-07-25T08:04:24.000Z</time>
</trkpt>
<trkpt lat="46.1054700" lon="10.4525020">
	<ele>1748.20</ele>
	<time>2024-07-25T08:04:25.000Z</time>
</trkpt>
<trkpt lat="46.1054770" lon="10.4525130">
	<ele>1748.60</ele>
	<time>2024-07-25T08:04:26.000Z</time>
</trkpt>
<trkpt lat="46.1054820" lon="10.4525240">
	<ele>1748.80</ele>
	<time>2024-07-25T08:04:27.000Z</time>
</trkpt>
<trkpt lat="46.1054880" lon="10.4525360">
	<ele>1749.00</ele>
	<time>2024-07-25T08:04:28.000Z</time>
</trkpt>
<trkpt lat="46.1054930" lon="10.4525450">
	<ele>1749.00</ele>
	<time>2024-07-25T08:04:29.000Z</time>
</trkpt>
<trkpt lat="46.1054980" lon="10.4525540">
	<ele>1749.20</ele>
	<time>2024-07-25T08:04:30.000Z</time>
</trkpt>
<trkpt lat="46.1055020" lon="10.4525690">
	<ele>1749.40</ele>
	<time>2024-07-25T08:04:31.000Z</time>
</trkpt>
<trkpt lat="46.1055050" lon="10.4525840">
	<ele>1749.40</ele>
	<time>2024-07-25T08:04:32.000Z</time>
</trkpt>
<trkpt lat="46.1055060" lon="10.4525960">
	<ele>1749.60</ele>
	<time>2024-07-25T08:04:33.000Z</time>
</trkpt>
<trkpt lat="46.1055060" lon="10.4526090">
	<ele>1750.00</ele>
	<time>2024-07-25T08:04:34.000Z</time>
</trkpt>
<trkpt lat="46.1055090" lon="10.4526150">
	<ele>1750.20</ele>
	<time>2024-07-25T08:04:35.000Z</time>
</trkpt>
<trkpt lat="46.1055130" lon="10.4526280">
	<ele>1750.20</ele>
	<time>2024-07-25T08:04:36.000Z</time>
</trkpt>
<trkpt lat="46.1055200" lon="10.4526380">
	<ele>1750.40</ele>
	<time>2024-07-25T08:04:37.000Z</time>
</trkpt>
<trkpt lat="46.1055250" lon="10.4526440">
	<ele>1750.60</ele>
	<time>2024-07-25T08:04:38.000Z</time>
</trkpt>
<trkpt lat="46.1055310" lon="10.4526500">
	<ele>1751.00</ele>
	<time>2024-07-25T08:04:39.000Z</time>
</trkpt>
<trkpt lat="46.1055400" lon="10.4526590">
	<ele>1751.00</ele>
	<time>2024-07-25T08:04:40.000Z</time>
</trkpt>
<trkpt lat="46.1055440" lon="10.4526690">
	<ele>1751.20</ele>
	<time>2024-07-25T08:04:41.000Z</time>
</trkpt>
<trkpt lat="46.1055460" lon="10.4526750">
	<ele>1751.60</ele>
	<time>2024-07-25T08:04:42.000Z</time>
</trkpt>
<trkpt lat="46.1055460" lon="10.4526850">
	<ele>1751.80</ele>
	<time>2024-07-25T08:04:43.000Z</time>
</trkpt>
<trkpt lat="46.1055420" lon="10.4526940">
	<ele>1752.00</ele>
	<time>2024-07-25T08:04:44.000Z</time>
</trkpt>
<trkpt lat="46.1055350" lon="10.4526960">
	<ele>1752.00</ele>
	<time>2024-07-25T08:04:45.000Z</time>
</trkpt>
<trkpt lat="46.1055300" lon="10.4526940">
	<ele>1752.20</ele>
	<time>2024-07-25T08:04:46.000Z</time>
</trkpt>
<trkpt lat="46.1055280" lon="10.4526950">
	<ele>1752.40</ele>
	<time>2024-07-25T08:04:47.000Z</time>
</trkpt>
<trkpt lat="46.1055290" lon="10.4526960">
	<ele>1752.40</ele>
	<time>2024-07-25T08:04:48.000Z</time>
</trkpt>
<trkpt lat="46.1055310" lon="10.4526970">
	<ele>1752.60</ele>
	<time>2024-07-25T08:04:49.000Z</time>
</trkpt>
<trkpt lat="46.1055340" lon="10.4526970">
	<ele>1752.60</ele>
	<time>2024-07-25T08:04:50.000Z</time>
</trkpt>
<trkpt lat="46.1055340" lon="10.4526950">
	<ele>1752.80</ele>
	<time>2024-07-25T08:04:51.000Z</time>
</trkpt>
<trkpt lat="46.1055320" lon="10.4526940">
	<ele>1752.80</ele>
	<time>2024-07-25T08:04:52.000Z</time>
</trkpt>
<trkpt lat="46.1055340" lon="10.4526990">
	<ele>1752.80</ele>
	<time>2024-07-25T08:04:53.000Z</time>
</trkpt>
<trkpt lat="46.1055320" lon="10.4527000">
	<ele>1752.60</ele>
	<time>2024-07-25T08:04:54.000Z</time>
</trkpt>
<trkpt lat="46.1055310" lon="10.4527000">
	<ele>1752.60</ele>
	<time>2024-07-25T08:04:55.000Z</time>
</trkpt>
<trkpt lat="46.1055290" lon="10.4527010">
	<ele>1752.60</ele>
	<time>2024-07-25T08:04:56.000Z</time>
</trkpt>
<trkpt lat="46.1055290" lon="10.4527020">
	<ele>1752.60</ele>
	<time>2024-07-25T08:04:57.000Z</time>
</trkpt>
<trkpt lat="46.1055290" lon="10.4527020">
	<ele>1752.60</ele>
	<time>2024-07-25T08:04:58.000Z</time>
</trkpt>
<trkpt lat="46.1055290" lon="10.4527020">
	<ele>1752.60</ele>
	<time>2024-07-25T08:04:59.000Z</time>
</trkpt>
<trkpt lat="46.1055290" lon="10.4527020">
	<ele>1752.60</ele>
	<time>2024-07-25T08:05:00.000Z</time>
</trkpt>
<trkpt lat="46.1055290" lon="10.4527020">
	<ele>1752.60</ele>
	<time>2024-07-25T08:05:01.000Z</time>
</trkpt>
<trkpt lat="46.1055290" lon="10.4527020">
	<ele>1752.60</ele>
	<time>2024-07-25T08:05:02.000Z</time>
</trkpt>
<trkpt lat="46.1055290" lon="10.4527020">
	<ele>1752.80</ele>
	<time>2024-07-25T08:05:03.000Z</time>
</trkpt>
<trkpt lat="46.1055290" lon="10.4527020">
	<ele>1752.80</ele>
	<time>2024-07-25T08:05:04.000Z</time>
</trkpt>
<trkpt lat="46.1055290" lon="10.4527020">
	<ele>1753.00</ele>
	<time>2024-07-25T08:05:05.000Z</time>
</trkpt>
<trkpt lat="46.1055300" lon="10.4527080">
	<ele>1753.20</ele>
	<time>2024-07-25T08:05:06.000Z</time>
</trkpt>
<trkpt lat="46.1055320" lon="10.4527240">
	<ele>1753.40</ele>
	<time>2024-07-25T08:05:07.000Z</time>
</trkpt>
<trkpt lat="46.1055330" lon="10.4527440">
	<ele>1753.60</ele>
	<time>2024-07-25T08:05:08.000Z</time>
</trkpt>
<trkpt lat="46.1055310" lon="10.4527580">
	<ele>1753.80</ele>
	<time>2024-07-25T08:05:09.000Z</time>
</trkpt>
<trkpt lat="46.1055290" lon="10.4527730">
	<ele>1754.00</ele>
	<time>2024-07-25T08:05:10.000Z</time>
</trkpt>
<trkpt lat="46.1055310" lon="10.4527940">
	<ele>1754.20</ele>
	<time>2024-07-25T08:05:11.000Z</time>
</trkpt>
<trkpt lat="46.1055360" lon="10.4528130">
	<ele>1754.40</ele>
	<time>2024-07-25T08:05:12.000Z</time>
</trkpt>
<trkpt lat="46.1055400" lon="10.4528350">
	<ele>1754.60</ele>
	<time>2024-07-25T08:05:13.000Z</time>
</trkpt>
<trkpt lat="46.1055500" lon="10.4528600">
	<ele>1754.60</ele>
	<time>2024-07-25T08:05:14.000Z</time>
</trkpt>
<trkpt lat="46.1055550" lon="10.4528780">
	<ele>1755.00</ele>
	<time>2024-07-25T08:05:15.000Z</time>
</trkpt>
<trkpt lat="46.1055630" lon="10.4528930">
	<ele>1755.20</ele>
	<time>2024-07-25T08:05:16.000Z</time>
</trkpt>
<trkpt lat="46.1055670" lon="10.4529020">
	<ele>1755.40</ele>
	<time>2024-07-25T08:05:17.000Z</time>
</trkpt>
<trkpt lat="46.1055690" lon="10.4529110">
	<ele>1755.40</ele>
	<time>2024-07-25T08:05:18.000Z</time>
</trkpt>
<trkpt lat="46.1055680" lon="10.4529210">
	<ele>1755.60</ele>
	<time>2024-07-25T08:05:19.000Z</time>
</trkpt>
<trkpt lat="46.1055670" lon="10.4529320">
	<ele>1755.80</ele>
	<time>2024-07-25T08:05:20.000Z</time>
</trkpt>
<trkpt lat="46.1055640" lon="10.4529380">
	<ele>1756.00</ele>
	<time>2024-07-25T08:05:21.000Z</time>
</trkpt>
<trkpt lat="46.1055550" lon="10.4529450">
	<ele>1756.20</ele>
	<time>2024-07-25T08:05:22.000Z</time>
</trkpt>
<trkpt lat="46.1055530" lon="10.4529540">
	<ele>1756.20</ele>
	<time>2024-07-25T08:05:23.000Z</time>
</trkpt>
<trkpt lat="46.1055570" lon="10.4529690">
	<ele>1756.40</ele>
	<time>2024-07-25T08:05:24.000Z</time>
</trkpt>
<trkpt lat="46.1055630" lon="10.4529860">
	<ele>1756.60</ele>
	<time>2024-07-25T08:05:25.000Z</time>
</trkpt>
<trkpt lat="46.1055700" lon="10.4530010">
	<ele>1756.80</ele>
	<time>2024-07-25T08:05:26.000Z</time>
</trkpt>
<trkpt lat="46.1055780" lon="10.4530160">
	<ele>1757.00</ele>
	<time>2024-07-25T08:05:27.000Z</time>
</trkpt>
<trkpt lat="46.1055860" lon="10.4530330">
	<ele>1757.20</ele>
	<time>2024-07-25T08:05:28.000Z</time>
</trkpt>
<trkpt lat="46.1055920" lon="10.4530530">
	<ele>1757.40</ele>
	<time>2024-07-25T08:05:29.000Z</time>
</trkpt>
<trkpt lat="46.1055970" lon="10.4530660">
	<ele>1757.60</ele>
	<time>2024-07-25T08:05:30.000Z</time>
</trkpt>
<trkpt lat="46.1056010" lon="10.4530840">
	<ele>1757.80</ele>
	<time>2024-07-25T08:05:31.000Z</time>
</trkpt>
<trkpt lat="46.1056050" lon="10.4530970">
	<ele>1758.00</ele>
	<time>2024-07-25T08:05:32.000Z</time>
</trkpt>
<trkpt lat="46.1056110" lon="10.4531100">
	<ele>1758.40</ele>
	<time>2024-07-25T08:05:33.000Z</time>
</trkpt>
<trkpt lat="46.1056210" lon="10.4531220">
	<ele>1758.40</ele>
	<time>2024-07-25T08:05:34.000Z</time>
</trkpt>
<trkpt lat="46.1056290" lon="10.4531300">
	<ele>1758.80</ele>
	<time>2024-07-25T08:05:35.000Z</time>
</trkpt>
<trkpt lat="46.1056380" lon="10.4531430">
	<ele>1758.80</ele>
	<time>2024-07-25T08:05:36.000Z</time>
</trkpt>
<trkpt lat="46.1056430" lon="10.4531490">
	<ele>1759.00</ele>
	<time>2024-07-25T08:05:37.000Z</time>
</trkpt>
<trkpt lat="46.1056470" lon="10.4531630">
	<ele>1759.20</ele>
	<time>2024-07-25T08:05:38.000Z</time>
</trkpt>
<trkpt lat="46.1056450" lon="10.4531820">
	<ele>1759.40</ele>
	<time>2024-07-25T08:05:39.000Z</time>
</trkpt>
<trkpt lat="46.1056440" lon="10.4532010">
	<ele>1759.60</ele>
	<time>2024-07-25T08:05:40.000Z</time>
</trkpt>
<trkpt lat="46.1056440" lon="10.4532160">
	<ele>1759.80</ele>
	<time>2024-07-25T08:05:41.000Z</time>
</trkpt>
<trkpt lat="46.1056450" lon="10.4532360">
	<ele>1760.00</ele>
	<time>2024-07-25T08:05:42.000Z</time>
</trkpt>
<trkpt lat="46.1056490" lon="10.4532470">
	<ele>1760.20</ele>
	<time>2024-07-25T08:05:43.000Z</time>
</trkpt>
<trkpt lat="46.1056520" lon="10.4532620">
	<ele>1760.40</ele>
	<time>2024-07-25T08:05:44.000Z</time>
</trkpt>
<trkpt lat="46.1056540" lon="10.4532710">
	<ele>1760.60</ele>
	<time>2024-07-25T08:05:45.000Z</time>
</trkpt>
<trkpt lat="46.1056560" lon="10.4532860">
	<ele>1760.80</ele>
	<time>2024-07-25T08:05:46.000Z</time>
</trkpt>
<trkpt lat="46.1056590" lon="10.4533020">
	<ele>1761.00</ele>
	<time>2024-07-25T08:05:47.000Z</time>
</trkpt>
<trkpt lat="46.1056620" lon="10.4533120">
	<ele>1761.20</ele>
	<time>2024-07-25T08:05:48.000Z</time>
</trkpt>
<trkpt lat="46.1056660" lon="10.4533180">
	<ele>1761.20</ele>
	<time>2024-07-25T08:05:49.000Z</time>
</trkpt>
<trkpt lat="46.1056700" lon="10.4533240">
	<ele>1761.40</ele>
	<time>2024-07-25T08:05:50.000Z</time>
</trkpt>
<trkpt lat="46.1056730" lon="10.4533350">
	<ele>1761.80</ele>
	<time>2024-07-25T08:05:51.000Z</time>
</trkpt>
<trkpt lat="46.1056730" lon="10.4533500">
	<ele>1762.00</ele>
	<time>2024-07-25T08:05:52.000Z</time>
</trkpt>
<trkpt lat="46.1056770" lon="10.4533630">
	<ele>1762.20</ele>
	<time>2024-07-25T08:05:53.000Z</time>
</trkpt>
<trkpt lat="46.1056810" lon="10.4533670">
	<ele>1762.40</ele>
	<time>2024-07-25T08:05:54.000Z</time>
</trkpt>
<trkpt lat="46.1056860" lon="10.4533780">
	<ele>1762.80</ele>
	<time>2024-07-25T08:05:55.000Z</time>
</trkpt>
<trkpt lat="46.1056900" lon="10.4533910">
	<ele>1763.00</ele>
	<time>2024-07-25T08:05:56.000Z</time>
</trkpt>
<trkpt lat="46.1056970" lon="10.4534030">
	<ele>1763.20</ele>
	<time>2024-07-25T08:05:57.000Z</time>
</trkpt>
<trkpt lat="46.1057020" lon="10.4534160">
	<ele>1763.20</ele>
	<time>2024-07-25T08:05:58.000Z</time>
</trkpt>
<trkpt lat="46.1057040" lon="10.4534280">
	<ele>1763.60</ele>
	<time>2024-07-25T08:05:59.000Z</time>
</trkpt>
<trkpt lat="46.1057090" lon="10.4534430">
	<ele>1763.80</ele>
	<time>2024-07-25T08:06:00.000Z</time>
</trkpt>
<trkpt lat="46.1057170" lon="10.4534550">
	<ele>1764.00</ele>
	<time>2024-07-25T08:06:01.000Z</time>
</trkpt>
<trkpt lat="46.1057300" lon="10.4534640">
	<ele>1764.20</ele>
	<time>2024-07-25T08:06:02.000Z</time>
</trkpt>
<trkpt lat="46.1057450" lon="10.4534730">
	<ele>1764.40</ele>
	<time>2024-07-25T08:06:03.000Z</time>
</trkpt>
<trkpt lat="46.1057560" lon="10.4534860">
	<ele>1764.60</ele>
	<time>2024-07-25T08:06:04.000Z</time>
</trkpt>
<trkpt lat="46.1057600" lon="10.4534920">
	<ele>1764.80</ele>
	<time>2024-07-25T08:06:05.000Z</time>
</trkpt>
<trkpt lat="46.1057640" lon="10.4534990">
	<ele>1765.00</ele>
	<time>2024-07-25T08:06:06.000Z</time>
</trkpt>
<trkpt lat="46.1057680" lon="10.4535040">
	<ele>1765.20</ele>
	<time>2024-07-25T08:06:07.000Z</time>
</trkpt>
<trkpt lat="46.1057700" lon="10.4535090">
	<ele>1765.40</ele>
	<time>2024-07-25T08:06:08.000Z</time>
</trkpt>
<trkpt lat="46.1057770" lon="10.4535190">
	<ele>1765.60</ele>
	<time>2024-07-25T08:06:09.000Z</time>
</trkpt>
<trkpt lat="46.1057790" lon="10.4535360">
	<ele>1765.60</ele>
	<time>2024-07-25T08:06:10.000Z</time>
</trkpt>
<trkpt lat="46.1057840" lon="10.4535480">
	<ele>1765.60</ele>
	<time>2024-07-25T08:06:11.000Z</time>
</trkpt>
<trkpt lat="46.1057870" lon="10.4535620">
	<ele>1765.80</ele>
	<time>2024-07-25T08:06:12.000Z</time>
</trkpt>
<trkpt lat="46.1057910" lon="10.4535690">
	<ele>1766.00</ele>
	<time>2024-07-25T08:06:13.000Z</time>
</trkpt>
<trkpt lat="46.1057990" lon="10.4535770">
	<ele>1766.40</ele>
	<time>2024-07-25T08:06:14.000Z</time>
</trkpt>
<trkpt lat="46.1058080" lon="10.4535840">
	<ele>1766.40</ele>
	<time>2024-07-25T08:06:15.000Z</time>
</trkpt>
<trkpt lat="46.1058180" lon="10.4535900">
	<ele>1766.60</ele>
	<time>2024-07-25T08:06:16.000Z</time>
</trkpt>
<trkpt lat="46.1058300" lon="10.4536010">
	<ele>1766.60</ele>
	<time>2024-07-25T08:06:17.000Z</time>
</trkpt>
<trkpt lat="46.1058470" lon="10.4536060">
	<ele>1766.80</ele>
	<time>2024-07-25T08:06:18.000Z</time>
</trkpt>
<trkpt lat="46.1058540" lon="10.4536030">
	<ele>1767.20</ele>
	<time>2024-07-25T08:06:19.000Z</time>
</trkpt>
<trkpt lat="46.1058620" lon="10.4536020">
	<ele>1767.40</ele>
	<time>2024-07-25T08:06:20.000Z</time>
</trkpt>
<trkpt lat="46.1058710" lon="10.4535990">
	<ele>1767.60</ele>
	<time>2024-07-25T08:06:21.000Z</time>
</trkpt>
<trkpt lat="46.1058810" lon="10.4535960">
	<ele>1768.00</ele>
	<time>2024-07-25T08:06:22.000Z</time>
</trkpt>
<trkpt lat="46.1058900" lon="10.4535910">
	<ele>1768.20</ele>
	<time>2024-07-25T08:06:23.000Z</time>
</trkpt>
<trkpt lat="46.1058980" lon="10.4535880">
	<ele>1768.40</ele>
	<time>2024-07-25T08:06:24.000Z</time>
</trkpt>
<trkpt lat="46.1059060" lon="10.4535860">
	<ele>1768.60</ele>
	<time>2024-07-25T08:06:25.000Z</time>
</trkpt>
<trkpt lat="46.1059140" lon="10.4535850">
	<ele>1768.60</ele>
	<time>2024-07-25T08:06:26.000Z</time>
</trkpt>
<trkpt lat="46.1059220" lon="10.4535820">
	<ele>1768.80</ele>
	<time>2024-07-25T08:06:27.000Z</time>
</trkpt>
<trkpt lat="46.1059300" lon="10.4535740">
	<ele>1768.80</ele>
	<time>2024-07-25T08:06:28.000Z</time>
</trkpt>
<trkpt lat="46.1059370" lon="10.4535650">
	<ele>1769.00</ele>
	<time>2024-07-25T08:06:29.000Z</time>
</trkpt>
<trkpt lat="46.1059450" lon="10.4535600">
	<ele>1769.00</ele>
	<time>2024-07-25T08:06:30.000Z</time>
</trkpt>
<trkpt lat="46.1059530" lon="10.4535550">
	<ele>1769.20</ele>
	<time>2024-07-25T08:06:31.000Z</time>
</trkpt>
<trkpt lat="46.1059600" lon="10.4535480">
	<ele>1769.60</ele>
	<time>2024-07-25T08:06:32.000Z</time>
</trkpt>
<trkpt lat="46.1059690" lon="10.4535440">
	<ele>1769.80</ele>
	<time>2024-07-25T08:06:33.000Z</time>
</trkpt>
<trkpt lat="46.1059730" lon="10.4535440">
	<ele>1770.00</ele>
	<time>2024-07-25T08:06:34.000Z</time>
</trkpt>
<trkpt lat="46.1059790" lon="10.4535400">
	<ele>1770.00</ele>
	<time>2024-07-25T08:06:35.000Z</time>
</trkpt>
<trkpt lat="46.1059850" lon="10.4535350">
	<ele>1770.20</ele>
	<time>2024-07-25T08:06:36.000Z</time>
</trkpt>
<trkpt lat="46.1059930" lon="10.4535400">
	<ele>1770.60</ele>
	<time>2024-07-25T08:06:37.000Z</time>
</trkpt>
<trkpt lat="46.1060030" lon="10.4535340">
	<ele>1770.80</ele>
	<time>2024-07-25T08:06:38.000Z</time>
</trkpt>
<trkpt lat="46.1060080" lon="10.4535330">
	<ele>1771.00</ele>
	<time>2024-07-25T08:06:39.000Z</time>
</trkpt>
<trkpt lat="46.1060200" lon="10.4535290">
	<ele>1771.20</ele>
	<time>2024-07-25T08:06:40.000Z</time>
</trkpt>
<trkpt lat="46.1060300" lon="10.4535240">
	<ele>1771.40</ele>
	<time>2024-07-25T08:06:41.000Z</time>
</trkpt>
<trkpt lat="46.1060410" lon="10.4535220">
	<ele>1771.60</ele>
	<time>2024-07-25T08:06:42.000Z</time>
</trkpt>
<trkpt lat="46.1060490" lon="10.4535110">
	<ele>1771.60</ele>
	<time>2024-07-25T08:06:43.000Z</time>
</trkpt>
<trkpt lat="46.1060550" lon="10.4535000">
	<ele>1771.80</ele>
	<time>2024-07-25T08:06:44.000Z</time>
</trkpt>
<trkpt lat="46.1060670" lon="10.4534910">
	<ele>1772.00</ele>
	<time>2024-07-25T08:06:45.000Z</time>
</trkpt>
<trkpt lat="46.1060770" lon="10.4534880">
	<ele>1772.20</ele>
	<time>2024-07-25T08:06:46.000Z</time>
</trkpt>
<trkpt lat="46.1060890" lon="10.4534860">
	<ele>1772.20</ele>
	<time>2024-07-25T08:06:47.000Z</time>
</trkpt>
<trkpt lat="46.1061010" lon="10.4534810">
	<ele>1772.40</ele>
	<time>2024-07-25T08:06:48.000Z</time>
</trkpt>
<trkpt lat="46.1061050" lon="10.4534770">
	<ele>1772.80</ele>
	<time>2024-07-25T08:06:49.000Z</time>
</trkpt>
<trkpt lat="46.1061130" lon="10.4534750">
	<ele>1772.80</ele>
	<time>2024-07-25T08:06:50.000Z</time>
</trkpt>
<trkpt lat="46.1061230" lon="10.4534700">
	<ele>1773.00</ele>
	<time>2024-07-25T08:06:51.000Z</time>
</trkpt>
<trkpt lat="46.1061320" lon="10.4534650">
	<ele>1773.20</ele>
	<time>2024-07-25T08:06:52.000Z</time>
</trkpt>
<trkpt lat="46.1061410" lon="10.4534620">
	<ele>1773.40</ele>
	<time>2024-07-25T08:06:53.000Z</time>
</trkpt>
<trkpt lat="46.1061480" lon="10.4534580">
	<ele>1773.60</ele>
	<time>2024-07-25T08:06:54.000Z</time>
</trkpt>
<trkpt lat="46.1061520" lon="10.4534560">
	<ele>1773.80</ele>
	<time>2024-07-25T08:06:55.000Z</time>
</trkpt>
<trkpt lat="46.1061620" lon="10.4534500">
	<ele>1774.00</ele>
	<time>2024-07-25T08:06:56.000Z</time>
</trkpt>
<trkpt lat="46.1061780" lon="10.4534430">
	<ele>1774.00</ele>
	<time>2024-07-25T08:06:57.000Z</time>
</trkpt>
<trkpt lat="46.1061890" lon="10.4534430">
	<ele>1774.20</ele>
	<time>2024-07-25T08:06:58.000Z</time>
</trkpt>
<trkpt lat="46.1062000" lon="10.4534430">
	<ele>1774.40</ele>
	<time>2024-07-25T08:06:59.000Z</time>
</trkpt>
<trkpt lat="46.1062110" lon="10.4534440">
	<ele>1774.80</ele>
	<time>2024-07-25T08:07:00.000Z</time>
</trkpt>
<trkpt lat="46.1062210" lon="10.4534520">
	<ele>1775.00</ele>
	<time>2024-07-25T08:07:01.000Z</time>
</trkpt>
<trkpt lat="46.1062260" lon="10.4534580">
	<ele>1775.00</ele>
	<time>2024-07-25T08:07:02.000Z</time>
</trkpt>
<trkpt lat="46.1062330" lon="10.4534660">
	<ele>1775.20</ele>
	<time>2024-07-25T08:07:03.000Z</time>
</trkpt>
<trkpt lat="46.1062410" lon="10.4534750">
	<ele>1775.40</ele>
	<time>2024-07-25T08:07:04.000Z</time>
</trkpt>
<trkpt lat="46.1062470" lon="10.4534780">
	<ele>1775.40</ele>
	<time>2024-07-25T08:07:05.000Z</time>
</trkpt>
<trkpt lat="46.1062530" lon="10.4534780">
	<ele>1775.80</ele>
	<time>2024-07-25T08:07:06.000Z</time>
</trkpt>
<trkpt lat="46.1062590" lon="10.4534770">
	<ele>1776.00</ele>
	<time>2024-07-25T08:07:07.000Z</time>
</trkpt>
<trkpt lat="46.1062670" lon="10.4534700">
	<ele>1776.20</ele>
	<time>2024-07-25T08:07:08.000Z</time>
</trkpt>
<trkpt lat="46.1062730" lon="10.4534630">
	<ele>1776.20</ele>
	<time>2024-07-25T08:07:09.000Z</time>
</trkpt>
<trkpt lat="46.1062780" lon="10.4534590">
	<ele>1776.40</ele>
	<time>2024-07-25T08:07:10.000Z</time>
</trkpt>
<trkpt lat="46.1062840" lon="10.4534540">
	<ele>1776.60</ele>
	<time>2024-07-25T08:07:11.000Z</time>
</trkpt>
<trkpt lat="46.1062880" lon="10.4534600">
	<ele>1776.80</ele>
	<time>2024-07-25T08:07:12.000Z</time>
</trkpt>
<trkpt lat="46.1062960" lon="10.4534680">
	<ele>1777.20</ele>
	<time>2024-07-25T08:07:13.000Z</time>
</trkpt>
<trkpt lat="46.1063020" lon="10.4534750">
	<ele>1777.40</ele>
	<time>2024-07-25T08:07:14.000Z</time>
</trkpt>
<trkpt lat="46.1063080" lon="10.4534790">
	<ele>1777.40</ele>
	<time>2024-07-25T08:07:15.000Z</time>
</trkpt>
<trkpt lat="46.1063160" lon="10.4534870">
	<ele>1777.60</ele>
	<time>2024-07-25T08:07:16.000Z</time>
</trkpt>
<trkpt lat="46.1063240" lon="10.4534950">
	<ele>1777.80</ele>
	<time>2024-07-25T08:07:17.000Z</time>
</trkpt>
<trkpt lat="46.1063330" lon="10.4535010">
	<ele>1778.00</ele>
	<time>2024-07-25T08:07:18.000Z</time>
</trkpt>
<trkpt lat="46.1063430" lon="10.4535050">
	<ele>1778.20</ele>
	<time>2024-07-25T08:07:19.000Z</time>
</trkpt>
<trkpt lat="46.1063520" lon="10.4535120">
	<ele>1778.20</ele>
	<time>2024-07-25T08:07:20.000Z</time>
</trkpt>
<trkpt lat="46.1063590" lon="10.4535170">
	<ele>1778.40</ele>
	<time>2024-07-25T08:07:21.000Z</time>
</trkpt>
<trkpt lat="46.1063720" lon="10.4535230">
	<ele>1778.60</ele>
	<time>2024-07-25T08:07:22.000Z</time>
</trkpt>
<trkpt lat="46.1063790" lon="10.4535270">
	<ele>1778.80</ele>
	<time>2024-07-25T08:07:23.000Z</time>
</trkpt>
<trkpt lat="46.1063920" lon="10.4535350">
	<ele>1779.00</ele>
	<time>2024-07-25T08:07:24.000Z</time>
</trkpt>
<trkpt lat="46.1063990" lon="10.4535470">
	<ele>1779.40</ele>
	<time>2024-07-25T08:07:25.000Z</time>
</trkpt>
<trkpt lat="46.1064100" lon="10.4535530">
	<ele>1779.60</ele>
	<time>2024-07-25T08:07:26.000Z</time>
</trkpt>
<trkpt lat="46.1064190" lon="10.4535510">
	<ele>1779.80</ele>
	<time>2024-07-25T08:07:27.000Z</time>
</trkpt>
<trkpt lat="46.1064290" lon="10.4535450">
	<ele>1779.80</ele>
	<time>2024-07-25T08:07:28.000Z</time>
</trkpt>
<trkpt lat="46.1064380" lon="10.4535410">
	<ele>1780.00</ele>
	<time>2024-07-25T08:07:29.000Z</time>
</trkpt>
<trkpt lat="46.1064460" lon="10.4535350">
	<ele>1780.20</ele>
	<time>2024-07-25T08:07:30.000Z</time>
</trkpt>
<trkpt lat="46.1064560" lon="10.4535210">
	<ele>1780.20</ele>
	<time>2024-07-25T08:07:31.000Z</time>
</trkpt>
<trkpt lat="46.1064610" lon="10.4535070">
	<ele>1780.40</ele>
	<time>2024-07-25T08:07:32.000Z</time>
</trkpt>
<trkpt lat="46.1064630" lon="10.4534920">
	<ele>1780.40</ele>
	<time>2024-07-25T08:07:33.000Z</time>
</trkpt>
<trkpt lat="46.1064680" lon="10.4534770">
	<ele>1780.60</ele>
	<time>2024-07-25T08:07:34.000Z</time>
</trkpt>
<trkpt lat="46.1064830" lon="10.4534550">
	<ele>1780.80</ele>
	<time>2024-07-25T08:07:35.000Z</time>
</trkpt>
<trkpt lat="46.1064860" lon="10.4534400">
	<ele>1780.80</ele>
	<time>2024-07-25T08:07:36.000Z</time>
</trkpt>
<trkpt lat="46.1064890" lon="10.4534250">
	<ele>1780.80</ele>
	<time>2024-07-25T08:07:37.000Z</time>
</trkpt>
<trkpt lat="46.1064930" lon="10.4534110">
	<ele>1781.00</ele>
	<time>2024-07-25T08:07:38.000Z</time>
</trkpt>
<trkpt lat="46.1064940" lon="10.4534020">
	<ele>1781.20</ele>
	<time>2024-07-25T08:07:39.000Z</time>
</trkpt>
<trkpt lat="46.1064970" lon="10.4533940">
	<ele>1781.20</ele>
	<time>2024-07-25T08:07:40.000Z</time>
</trkpt>
<trkpt lat="46.1064990" lon="10.4533780">
	<ele>1781.40</ele>
	<time>2024-07-25T08:07:41.000Z</time>
</trkpt>
<trkpt lat="46.1064970" lon="10.4533660">
	<ele>1781.60</ele>
	<time>2024-07-25T08:07:42.000Z</time>
</trkpt>
<trkpt lat="46.1064910" lon="10.4533480">
	<ele>1781.80</ele>
	<time>2024-07-25T08:07:43.000Z</time>
</trkpt>
<trkpt lat="46.1064890" lon="10.4533370">
	<ele>1782.00</ele>
	<time>2024-07-25T08:07:44.000Z</time>
</trkpt>
<trkpt lat="46.1064850" lon="10.4533210">
	<ele>1782.20</ele>
	<time>2024-07-25T08:07:45.000Z</time>
</trkpt>
<trkpt lat="46.1064840" lon="10.4533070">
	<ele>1782.40</ele>
	<time>2024-07-25T08:07:46.000Z</time>
</trkpt>
<trkpt lat="46.1064820" lon="10.4532980">
	<ele>1782.40</ele>
	<time>2024-07-25T08:07:47.000Z</time>
</trkpt>
<trkpt lat="46.1064790" lon="10.4532790">
	<ele>1782.60</ele>
	<time>2024-07-25T08:07:48.000Z</time>
</trkpt>
<trkpt lat="46.1064770" lon="10.4532670">
	<ele>1782.80</ele>
	<time>2024-07-25T08:07:49.000Z</time>
</trkpt>
<trkpt lat="46.1064760" lon="10.4532600">
	<ele>1782.80</ele>
	<time>2024-07-25T08:07:50.000Z</time>
</trkpt>
<trkpt lat="46.1064750" lon="10.4532530">
	<ele>1783.00</ele>
	<time>2024-07-25T08:07:51.000Z</time>
</trkpt>
<trkpt lat="46.1064780" lon="10.4532440">
	<ele>1783.00</ele>
	<time>2024-07-25T08:07:52.000Z</time>
</trkpt>
<trkpt lat="46.1064840" lon="10.4532330">
	<ele>1783.20</ele>
	<time>2024-07-25T08:07:53.000Z</time>
</trkpt>
<trkpt lat="46.1064900" lon="10.4532300">
	<ele>1783.40</ele>
	<time>2024-07-25T08:07:54.000Z</time>
</trkpt>
<trkpt lat="46.1064940" lon="10.4532250">
	<ele>1783.60</ele>
	<time>2024-07-25T08:07:55.000Z</time>
</trkpt>
<trkpt lat="46.1064990" lon="10.4532260">
	<ele>1783.80</ele>
	<time>2024-07-25T08:07:56.000Z</time>
</trkpt>
<trkpt lat="46.1065060" lon="10.4532280">
	<ele>1784.00</ele>
	<time>2024-07-25T08:07:57.000Z</time>
</trkpt>
<trkpt lat="46.1065130" lon="10.4532310">
	<ele>1784.20</ele>
	<time>2024-07-25T08:07:58.000Z</time>
</trkpt>
<trkpt lat="46.1065180" lon="10.4532420">
	<ele>1784.40</ele>
	<time>2024-07-25T08:07:59.000Z</time>
</trkpt>
<trkpt lat="46.1065250" lon="10.4532530">
	<ele>1784.40</ele>
	<time>2024-07-25T08:08:00.000Z</time>
</trkpt>
<trkpt lat="46.1065290" lon="10.4532610">
	<ele>1784.60</ele>
	<time>2024-07-25T08:08:01.000Z</time>
</trkpt>
<trkpt lat="46.1065320" lon="10.4532670">
	<ele>1784.80</ele>
	<time>2024-07-25T08:08:02.000Z</time>
</trkpt>
<trkpt lat="46.1065380" lon="10.4532820">
	<ele>1784.80</ele>
	<time>2024-07-25T08:08:03.000Z</time>
</trkpt>
<trkpt lat="46.1065420" lon="10.4532910">
	<ele>1785.00</ele>
	<time>2024-07-25T08:08:04.000Z</time>
</trkpt>
<trkpt lat="46.1065470" lon="10.4533010">
	<ele>1785.20</ele>
	<time>2024-07-25T08:08:05.000Z</time>
</trkpt>
<trkpt lat="46.1065580" lon="10.4533010">
	<ele>1785.40</ele>
	<time>2024-07-25T08:08:06.000Z</time>
</trkpt>
<trkpt lat="46.1065630" lon="10.4533090">
	<ele>1785.60</ele>
	<time>2024-07-25T08:08:07.000Z</time>
</trkpt>
<trkpt lat="46.1065700" lon="10.4533190">
	<ele>1785.80</ele>
	<time>2024-07-25T08:08:08.000Z</time>
</trkpt>
<trkpt lat="46.1065830" lon="10.4533270">
	<ele>1785.80</ele>
	<time>2024-07-25T08:08:09.000Z</time>
</trkpt>
<trkpt lat="46.1065900" lon="10.4533410">
	<ele>1786.00</ele>
	<time>2024-07-25T08:08:10.000Z</time>
</trkpt>
<trkpt lat="46.1065990" lon="10.4533570">
	<ele>1786.20</ele>
	<time>2024-07-25T08:08:11.000Z</time>
</trkpt>
<trkpt lat="46.1066090" lon="10.4533610">
	<ele>1786.20</ele>
	<time>2024-07-25T08:08:12.000Z</time>
</trkpt>
<trkpt lat="46.1066200" lon="10.4533650">
	<ele>1786.40</ele>
	<time>2024-07-25T08:08:13.000Z</time>
</trkpt>
<trkpt lat="46.1066320" lon="10.4533680">
	<ele>1786.40</ele>
	<time>2024-07-25T08:08:14.000Z</time>
</trkpt>
<trkpt lat="46.1066390" lon="10.4533780">
	<ele>1786.80</ele>
	<time>2024-07-25T08:08:15.000Z</time>
</trkpt>
<trkpt lat="46.1066420" lon="10.4533830">
	<ele>1786.80</ele>
	<time>2024-07-25T08:08:16.000Z</time>
</trkpt>
<trkpt lat="46.1066450" lon="10.4533960">
	<ele>1787.00</ele>
	<time>2024-07-25T08:08:17.000Z</time>
</trkpt>
<trkpt lat="46.1066510" lon="10.4534070">
	<ele>1787.40</ele>
	<time>2024-07-25T08:08:18.000Z</time>
</trkpt>
<trkpt lat="46.1066610" lon="10.4534080">
	<ele>1787.60</ele>
	<time>2024-07-25T08:08:19.000Z</time>
</trkpt>
<trkpt lat="46.1066690" lon="10.4534090">
	<ele>1787.80</ele>
	<time>2024-07-25T08:08:20.000Z</time>
</trkpt>
<trkpt lat="46.1066780" lon="10.4534120">
	<ele>1787.80</ele>
	<time>2024-07-25T08:08:21.000Z</time>
</trkpt>
<trkpt lat="46.1066860" lon="10.4534200">
	<ele>1788.20</ele>
	<time>2024-07-25T08:08:22.000Z</time>
</trkpt>
<trkpt lat="46.1066950" lon="10.4534270">
	<ele>1788.40</ele>
	<time>2024-07-25T08:08:23.000Z</time>
</trkpt>
<trkpt lat="46.1067040" lon="10.4534310">
	<ele>1788.40</ele>
	<time>2024-07-25T08:08:24.000Z</time>
</trkpt>
<trkpt lat="46.1067140" lon="10.4534340">
	<ele>1788.60</ele>
	<time>2024-07-25T08:08:25.000Z</time>
</trkpt>
<trkpt lat="46.1067220" lon="10.4534370">
	<ele>1788.80</ele>
	<time>2024-07-25T08:08:26.000Z</time>
</trkpt>
<trkpt lat="46.1067310" lon="10.4534430">
	<ele>1788.80</ele>
	<time>2024-07-25T08:08:27.000Z</time>
</trkpt>
<trkpt lat="46.1067370" lon="10.4534530">
	<ele>1789.00</ele>
	<time>2024-07-25T08:08:28.000Z</time>
</trkpt>
<trkpt lat="46.1067430" lon="10.4534650">
	<ele>1789.20</ele>
	<time>2024-07-25T08:08:29.000Z</time>
</trkpt>
<trkpt lat="46.1067490" lon="10.4534770">
	<ele>1789.40</ele>
	<time>2024-07-25T08:08:30.000Z</time>
</trkpt>
<trkpt lat="46.1067510" lon="10.4534860">
	<ele>1789.60</ele>
	<time>2024-07-25T08:08:31.000Z</time>
</trkpt>
<trkpt lat="46.1067560" lon="10.4534940">
	<ele>1789.60</ele>
	<time>2024-07-25T08:08:32.000Z</time>
</trkpt>
<trkpt lat="46.1067590" lon="10.4535030">
	<ele>1790.00</ele>
	<time>2024-07-25T08:08:33.000Z</time>
</trkpt>
<trkpt lat="46.1067640" lon="10.4535110">
	<ele>1790.20</ele>
	<time>2024-07-25T08:08:34.000Z</time>
</trkpt>
<trkpt lat="46.1067680" lon="10.4535200">
	<ele>1790.20</ele>
	<time>2024-07-25T08:08:35.000Z</time>
</trkpt>
<trkpt lat="46.1067720" lon="10.4535320">
	<ele>1790.20</ele>
	<time>2024-07-25T08:08:36.000Z</time>
</trkpt>
<trkpt lat="46.1067750" lon="10.4535490">
	<ele>1790.60</ele>
	<time>2024-07-25T08:08:37.000Z</time>
</trkpt>
<trkpt lat="46.1067760" lon="10.4535660">
	<ele>1790.80</ele>
	<time>2024-07-25T08:08:38.000Z</time>
</trkpt>
<trkpt lat="46.1067750" lon="10.4535800">
	<ele>1790.80</ele>
	<time>2024-07-25T08:08:39.000Z</time>
</trkpt>
<trkpt lat="46.1067830" lon="10.4536010">
	<ele>1791.00</ele>
	<time>2024-07-25T08:08:40.000Z</time>
</trkpt>
<trkpt lat="46.1067860" lon="10.4536200">
	<ele>1791.20</ele>
	<time>2024-07-25T08:08:41.000Z</time>
</trkpt>
<trkpt lat="46.1067920" lon="10.4536390">
	<ele>1791.40</ele>
	<time>2024-07-25T08:08:42.000Z</time>
</trkpt>
<trkpt lat="46.1068010" lon="10.4536500">
	<ele>1791.40</ele>
	<time>2024-07-25T08:08:43.000Z</time>
</trkpt>
<trkpt lat="46.1068130" lon="10.4536620">
	<ele>1791.60</ele>
	<time>2024-07-25T08:08:44.000Z</time>
</trkpt>
<trkpt lat="46.1068320" lon="10.4536720">
	<ele>1791.60</ele>
	<time>2024-07-25T08:08:45.000Z</time>
</trkpt>
<trkpt lat="46.1068450" lon="10.4536850">
	<ele>1791.80</ele>
	<time>2024-07-25T08:08:46.000Z</time>
</trkpt>
<trkpt lat="46.1068520" lon="10.4537000">
	<ele>1792.00</ele>
	<time>2024-07-25T08:08:47.000Z</time>
</trkpt>
<trkpt lat="46.1068620" lon="10.4537050">
	<ele>1792.00</ele>
	<time>2024-07-25T08:08:48.000Z</time>
</trkpt>
<trkpt lat="46.1068700" lon="10.4537180">
	<ele>1792.20</ele>
	<time>2024-07-25T08:08:49.000Z</time>
</trkpt>
<trkpt lat="46.1068770" lon="10.4537300">
	<ele>1792.20</ele>
	<time>2024-07-25T08:08:50.000Z</time>
</trkpt>
<trkpt lat="46.1068810" lon="10.4537420">
	<ele>1792.40</ele>
	<time>2024-07-25T08:08:51.000Z</time>
</trkpt>
<trkpt lat="46.1068850" lon="10.4537550">
	<ele>1792.60</ele>
	<time>2024-07-25T08:08:52.000Z</time>
</trkpt>
<trkpt lat="46.1068900" lon="10.4537640">
	<ele>1792.80</ele>
	<time>2024-07-25T08:08:53.000Z</time>
</trkpt>
<trkpt lat="46.1068980" lon="10.4537800">
	<ele>1793.00</ele>
	<time>2024-07-25T08:08:54.000Z</time>
</trkpt>
<trkpt lat="46.1069030" lon="10.4537930">
	<ele>1793.00</ele>
	<time>2024-07-25T08:08:55.000Z</time>
</trkpt>
<trkpt lat="46.1069070" lon="10.4538080">
	<ele>1793.00</ele>
	<time>2024-07-25T08:08:56.000Z</time>
</trkpt>
<trkpt lat="46.1069100" lon="10.4538210">
	<ele>1793.00</ele>
	<time>2024-07-25T08:08:57.000Z</time>
</trkpt>
<trkpt lat="46.1069130" lon="10.4538340">
	<ele>1793.20</ele>
	<time>2024-07-25T08:08:58.000Z</time>
</trkpt>
<trkpt lat="46.1069210" lon="10.4538470">
	<ele>1793.40</ele>
	<time>2024-07-25T08:08:59.000Z</time>
</trkpt>
<trkpt lat="46.1069270" lon="10.4538590">
	<ele>1793.60</ele>
	<time>2024-07-25T08:09:00.000Z</time>
</trkpt>
<trkpt lat="46.1069320" lon="10.4538700">
	<ele>1793.60</ele>
	<time>2024-07-25T08:09:01.000Z</time>
</trkpt>
<trkpt lat="46.1069360" lon="10.4538770">
	<ele>1793.80</ele>
	<time>2024-07-25T08:09:02.000Z</time>
</trkpt>
<trkpt lat="46.1069400" lon="10.4538910">
	<ele>1793.80</ele>
	<time>2024-07-25T08:09:03.000Z</time>
</trkpt>
<trkpt lat="46.1069460" lon="10.4539070">
	<ele>1794.00</ele>
	<time>2024-07-25T08:09:04.000Z</time>
</trkpt>
<trkpt lat="46.1069510" lon="10.4539220">
	<ele>1794.20</ele>
	<time>2024-07-25T08:09:05.000Z</time>
</trkpt>
<trkpt lat="46.1069570" lon="10.4539360">
	<ele>1794.40</ele>
	<time>2024-07-25T08:09:06.000Z</time>
</trkpt>
<trkpt lat="46.1069630" lon="10.4539470">
	<ele>1794.40</ele>
	<time>2024-07-25T08:09:07.000Z</time>
</trkpt>
<trkpt lat="46.1069710" lon="10.4539580">
	<ele>1794.40</ele>
	<time>2024-07-25T08:09:08.000Z</time>
</trkpt>
<trkpt lat="46.1069770" lon="10.4539710">
	<ele>1794.60</ele>
	<time>2024-07-25T08:09:09.000Z</time>
</trkpt>
<trkpt lat="46.1069840" lon="10.4539850">
	<ele>1794.60</ele>
	<time>2024-07-25T08:09:10.000Z</time>
</trkpt>
<trkpt lat="46.1069900" lon="10.4539990">
	<ele>1794.80</ele>
	<time>2024-07-25T08:09:11.000Z</time>
</trkpt>
<trkpt lat="46.1069940" lon="10.4540130">
	<ele>1795.00</ele>
	<time>2024-07-25T08:09:12.000Z</time>
</trkpt>
<trkpt lat="46.1069960" lon="10.4540250">
	<ele>1795.20</ele>
	<time>2024-07-25T08:09:13.000Z</time>
</trkpt>
<trkpt lat="46.1070030" lon="10.4540410">
	<ele>1795.20</ele>
	<time>2024-07-25T08:09:14.000Z</time>
</trkpt>
<trkpt lat="46.1070100" lon="10.4540550">
	<ele>1795.40</ele>
	<time>2024-07-25T08:09:15.000Z</time>
</trkpt>
<trkpt lat="46.1070130" lon="10.4540680">
	<ele>1795.60</ele>
	<time>2024-07-25T08:09:16.000Z</time>
</trkpt>
<trkpt lat="46.1070140" lon="10.4540780">
	<ele>1795.60</ele>
	<time>2024-07-25T08:09:17.000Z</time>
</trkpt>
<trkpt lat="46.1070170" lon="10.4540960">
	<ele>1795.80</ele>
	<time>2024-07-25T08:09:18.000Z</time>
</trkpt>
<trkpt lat="46.1070160" lon="10.4541060">
	<ele>1796.00</ele>
	<time>2024-07-25T08:09:19.000Z</time>
</trkpt>
<trkpt lat="46.1070150" lon="10.4541160">
	<ele>1796.20</ele>
	<time>2024-07-25T08:09:20.000Z</time>
</trkpt>
<trkpt lat="46.1070160" lon="10.4541250">
	<ele>1796.20</ele>
	<time>2024-07-25T08:09:21.000Z</time>
</trkpt>
<trkpt lat="46.1070170" lon="10.4541360">
	<ele>1796.40</ele>
	<time>2024-07-25T08:09:22.000Z</time>
</trkpt>
<trkpt lat="46.1070200" lon="10.4541470">
	<ele>1796.40</ele>
	<time>2024-07-25T08:09:23.000Z</time>
</trkpt>
<trkpt lat="46.1070240" lon="10.4541590">
	<ele>1796.60</ele>
	<time>2024-07-25T08:09:24.000Z</time>
</trkpt>
<trkpt lat="46.1070290" lon="10.4541730">
	<ele>1797.00</ele>
	<time>2024-07-25T08:09:25.000Z</time>
</trkpt>
<trkpt lat="46.1070380" lon="10.4541860">
	<ele>1797.00</ele>
	<time>2024-07-25T08:09:26.000Z</time>
</trkpt>
<trkpt lat="46.1070450" lon="10.4541910">
	<ele>1797.20</ele>
	<time>2024-07-25T08:09:27.000Z</time>
</trkpt>
<trkpt lat="46.1070510" lon="10.4542070">
	<ele>1797.40</ele>
	<time>2024-07-25T08:09:28.000Z</time>
</trkpt>
<trkpt lat="46.1070550" lon="10.4542180">
	<ele>1797.40</ele>
	<time>2024-07-25T08:09:29.000Z</time>
</trkpt>
<trkpt lat="46.1070610" lon="10.4542300">
	<ele>1797.60</ele>
	<time>2024-07-25T08:09:30.000Z</time>
</trkpt>
<trkpt lat="46.1070730" lon="10.4542420">
	<ele>1797.60</ele>
	<time>2024-07-25T08:09:31.000Z</time>
</trkpt>
<trkpt lat="46.1070810" lon="10.4542460">
	<ele>1797.80</ele>
	<time>2024-07-25T08:09:32.000Z</time>
</trkpt>
<trkpt lat="46.1070900" lon="10.4542480">
	<ele>1797.80</ele>
	<time>2024-07-25T08:09:33.000Z</time>
</trkpt>
<trkpt lat="46.1070970" lon="10.4542460">
	<ele>1798.00</ele>
	<time>2024-07-25T08:09:34.000Z</time>
</trkpt>
<trkpt lat="46.1071100" lon="10.4542440">
	<ele>1798.20</ele>
	<time>2024-07-25T08:09:35.000Z</time>
</trkpt>
<trkpt lat="46.1071200" lon="10.4542430">
	<ele>1798.40</ele>
	<time>2024-07-25T08:09:36.000Z</time>
</trkpt>
<trkpt lat="46.1071350" lon="10.4542410">
	<ele>1798.40</ele>
	<time>2024-07-25T08:09:37.000Z</time>
</trkpt>
<trkpt lat="46.1071470" lon="10.4542440">
	<ele>1798.60</ele>
	<time>2024-07-25T08:09:38.000Z</time>
</trkpt>
<trkpt lat="46.1071550" lon="10.4542370">
	<ele>1798.60</ele>
	<time>2024-07-25T08:09:39.000Z</time>
</trkpt>
<trkpt lat="46.1071650" lon="10.4542270">
	<ele>1798.60</ele>
	<time>2024-07-25T08:09:40.000Z</time>
</trkpt>
<trkpt lat="46.1071750" lon="10.4542200">
	<ele>1798.80</ele>
	<time>2024-07-25T08:09:41.000Z</time>
</trkpt>
<trkpt lat="46.1071820" lon="10.4542170">
	<ele>1798.80</ele>
	<time>2024-07-25T08:09:42.000Z</time>
</trkpt>
<trkpt lat="46.1071880" lon="10.4542120">
	<ele>1799.00</ele>
	<time>2024-07-25T08:09:43.000Z</time>
</trkpt>
<trkpt lat="46.1071980" lon="10.4542050">
	<ele>1799.20</ele>
	<time>2024-07-25T08:09:44.000Z</time>
</trkpt>
<trkpt lat="46.1072100" lon="10.4541960">
	<ele>1799.40</ele>
	<time>2024-07-25T08:09:45.000Z</time>
</trkpt>
<trkpt lat="46.1072190" lon="10.4541820">
	<ele>1799.40</ele>
	<time>2024-07-25T08:09:46.000Z</time>
</trkpt>
<trkpt lat="46.1072290" lon="10.4541730">
	<ele>1799.60</ele>
	<time>2024-07-25T08:09:47.000Z</time>
</trkpt>
<trkpt lat="46.1072390" lon="10.4541610">
	<ele>1799.60</ele>
	<time>2024-07-25T08:09:48.000Z</time>
</trkpt>
<trkpt lat="46.1072450" lon="10.4541480">
	<ele>1799.80</ele>
	<time>2024-07-25T08:09:49.000Z</time>
</trkpt>
<trkpt lat="46.1072510" lon="10.4541300">
	<ele>1799.80</ele>
	<time>2024-07-25T08:09:50.000Z</time>
</trkpt>
<trkpt lat="46.1072540" lon="10.4541130">
	<ele>1800.00</ele>
	<time>2024-07-25T08:09:51.000Z</time>
</trkpt>
<trkpt lat="46.1072580" lon="10.4540950">
	<ele>1800.20</ele>
	<time>2024-07-25T08:09:52.000Z</time>
</trkpt>
<trkpt lat="46.1072620" lon="10.4540790">
	<ele>1800.20</ele>
	<time>2024-07-25T08:09:53.000Z</time>
</trkpt>
<trkpt lat="46.1072670" lon="10.4540610">
	<ele>1800.40</ele>
	<time>2024-07-25T08:09:54.000Z</time>
</trkpt>
<trkpt lat="46.1072720" lon="10.4540420">
	<ele>1800.40</ele>
	<time>2024-07-25T08:09:55.000Z</time>
</trkpt>
<trkpt lat="46.1072720" lon="10.4540240">
	<ele>1800.60</ele>
	<time>2024-07-25T08:09:56.000Z</time>
</trkpt>
<trkpt lat="46.1072680" lon="10.4540070">
	<ele>1800.60</ele>
	<time>2024-07-25T08:09:57.000Z</time>
</trkpt>
<trkpt lat="46.1072610" lon="10.4539930">
	<ele>1800.80</ele>
	<time>2024-07-25T08:09:58.000Z</time>
</trkpt>
<trkpt lat="46.1072540" lon="10.4539810">
	<ele>1801.00</ele>
	<time>2024-07-25T08:09:59.000Z</time>
</trkpt>
<trkpt lat="46.1072500" lon="10.4539690">
	<ele>1801.20</ele>
	<time>2024-07-25T08:10:00.000Z</time>
</trkpt>
<trkpt lat="46.1072480" lon="10.4539550">
	<ele>1801.20</ele>
	<time>2024-07-25T08:10:01.000Z</time>
</trkpt>
<trkpt lat="46.1072440" lon="10.4539410">
	<ele>1801.40</ele>
	<time>2024-07-25T08:10:02.000Z</time>
</trkpt>
<trkpt lat="46.1072390" lon="10.4539260">
	<ele>1801.80</ele>
	<time>2024-07-25T08:10:03.000Z</time>
</trkpt>
<trkpt lat="46.1072400" lon="10.4539110">
	<ele>1802.00</ele>
	<time>2024-07-25T08:10:04.000Z</time>
</trkpt>
<trkpt lat="46.1072440" lon="10.4539020">
	<ele>1802.20</ele>
	<time>2024-07-25T08:10:05.000Z</time>
</trkpt>
<trkpt lat="46.1072500" lon="10.4538980">
	<ele>1802.20</ele>
	<time>2024-07-25T08:10:06.000Z</time>
</trkpt>
<trkpt lat="46.1072570" lon="10.4538970">
	<ele>1802.40</ele>
	<time>2024-07-25T08:10:07.000Z</time>
</trkpt>
<trkpt lat="46.1072660" lon="10.4538960">
	<ele>1802.40</ele>
	<time>2024-07-25T08:10:08.000Z</time>
</trkpt>
<trkpt lat="46.1072760" lon="10.4538960">
	<ele>1802.60</ele>
	<time>2024-07-25T08:10:09.000Z</time>
</trkpt>
<trkpt lat="46.1072820" lon="10.4538960">
	<ele>1802.80</ele>
	<time>2024-07-25T08:10:10.000Z</time>
</trkpt>
<trkpt lat="46.1072880" lon="10.4538980">
	<ele>1803.00</ele>
	<time>2024-07-25T08:10:11.000Z</time>
</trkpt>
<trkpt lat="46.1072980" lon="10.4539070">
	<ele>1803.00</ele>
	<time>2024-07-25T08:10:12.000Z</time>
</trkpt>
<trkpt lat="46.1073110" lon="10.4539160">
	<ele>1803.40</ele>
	<time>2024-07-25T08:10:13.000Z</time>
</trkpt>
<trkpt lat="46.1073220" lon="10.4539280">
	<ele>1803.60</ele>
	<time>2024-07-25T08:10:14.000Z</time>
</trkpt>
<trkpt lat="46.1073260" lon="10.4539420">
	<ele>1803.80</ele>
	<time>2024-07-25T08:10:15.000Z</time>
</trkpt>
<trkpt lat="46.1073310" lon="10.4539570">
	<ele>1804.00</ele>
	<time>2024-07-25T08:10:16.000Z</time>
</trkpt>
<trkpt lat="46.1073350" lon="10.4539710">
	<ele>1804.20</ele>
	<time>2024-07-25T08:10:17.000Z</time>
</trkpt>
<trkpt lat="46.1073390" lon="10.4539850">
	<ele>1804.20</ele>
	<time>2024-07-25T08:10:18.000Z</time>
</trkpt>
<trkpt lat="46.1073450" lon="10.4539960">
	<ele>1804.40</ele>
	<time>2024-07-25T08:10:19.000Z</time>
</trkpt>
<trkpt lat="46.1073490" lon="10.4540060">
	<ele>1804.60</ele>
	<time>2024-07-25T08:10:20.000Z</time>
</trkpt>
<trkpt lat="46.1073520" lon="10.4540120">
	<ele>1804.80</ele>
	<time>2024-07-25T08:10:21.000Z</time>
</trkpt>
<trkpt lat="46.1073570" lon="10.4540180">
	<ele>1805.00</ele>
	<time>2024-07-25T08:10:22.000Z</time>
</trkpt>
<trkpt lat="46.1073610" lon="10.4540270">
	<ele>1805.20</ele>
	<time>2024-07-25T08:10:23.000Z</time>
</trkpt>
<trkpt lat="46.1073680" lon="10.4540380">
	<ele>1805.40</ele>
	<time>2024-07-25T08:10:24.000Z</time>
</trkpt>
<trkpt lat="46.1073760" lon="10.4540490">
	<ele>1805.60</ele>
	<time>2024-07-25T08:10:25.000Z</time>
</trkpt>
<trkpt lat="46.1073820" lon="10.4540640">
	<ele>1805.60</ele>
	<time>2024-07-25T08:10:26.000Z</time>
</trkpt>
<trkpt lat="46.1073910" lon="10.4540780">
	<ele>1805.80</ele>
	<time>2024-07-25T08:10:27.000Z</time>
</trkpt>
<trkpt lat="46.1073980" lon="10.4540920">
	<ele>1806.00</ele>
	<time>2024-07-25T08:10:28.000Z</time>
</trkpt>
<trkpt lat="46.1074050" lon="10.4541030">
	<ele>1806.00</ele>
	<time>2024-07-25T08:10:29.000Z</time>
</trkpt>
<trkpt lat="46.1074110" lon="10.4541160">
	<ele>1806.20</ele>
	<time>2024-07-25T08:10:30.000Z</time>
</trkpt>
<trkpt lat="46.1074120" lon="10.4541320">
	<ele>1806.40</ele>
	<time>2024-07-25T08:10:31.000Z</time>
</trkpt>
<trkpt lat="46.1074120" lon="10.4541550">
	<ele>1806.40</ele>
	<time>2024-07-25T08:10:32.000Z</time>
</trkpt>
<trkpt lat="46.1074150" lon="10.4541710">
	<ele>1806.60</ele>
	<time>2024-07-25T08:10:33.000Z</time>
</trkpt>
<trkpt lat="46.1074170" lon="10.4541870">
	<ele>1806.80</ele>
	<time>2024-07-25T08:10:34.000Z</time>
</trkpt>
<trkpt lat="46.1074210" lon="10.4542020">
	<ele>1807.00</ele>
	<time>2024-07-25T08:10:35.000Z</time>
</trkpt>
<trkpt lat="46.1074230" lon="10.4542200">
	<ele>1807.00</ele>
	<time>2024-07-25T08:10:36.000Z</time>
</trkpt>
<trkpt lat="46.1074280" lon="10.4542350">
	<ele>1807.00</ele>
	<time>2024-07-25T08:10:37.000Z</time>
</trkpt>
<trkpt lat="46.1074340" lon="10.4542490">
	<ele>1807.40</ele>
	<time>2024-07-25T08:10:38.000Z</time>
</trkpt>
<trkpt lat="46.1074430" lon="10.4542590">
	<ele>1807.60</ele>
	<time>2024-07-25T08:10:39.000Z</time>
</trkpt>
<trkpt lat="46.1074500" lon="10.4542680">
	<ele>1807.80</ele>
	<time>2024-07-25T08:10:40.000Z</time>
</trkpt>
<trkpt lat="46.1074600" lon="10.4542760">
	<ele>1807.80</ele>
	<time>2024-07-25T08:10:41.000Z</time>
</trkpt>
<trkpt lat="46.1074650" lon="10.4542810">
	<ele>1808.00</ele>
	<time>2024-07-25T08:10:42.000Z</time>
</trkpt>
<trkpt lat="46.1074680" lon="10.4542900">
	<ele>1808.00</ele>
	<time>2024-07-25T08:10:43.000Z</time>
</trkpt>
<trkpt lat="46.1074790" lon="10.4542990">
	<ele>1808.20</ele>
	<time>2024-07-25T08:10:44.000Z</time>
</trkpt>
<trkpt lat="46.1074910" lon="10.4542990">
	<ele>1808.40</ele>
	<time>2024-07-25T08:10:45.000Z</time>
</trkpt>
<trkpt lat="46.1075000" lon="10.4542950">
	<ele>1808.60</ele>
	<time>2024-07-25T08:10:46.000Z</time>
</trkpt>
<trkpt lat="46.1075130" lon="10.4542930">
	<ele>1808.60</ele>
	<time>2024-07-25T08:10:47.000Z</time>
</trkpt>
<trkpt lat="46.1075260" lon="10.4542920">
	<ele>1809.00</ele>
	<time>2024-07-25T08:10:48.000Z</time>
</trkpt>
<trkpt lat="46.1075390" lon="10.4542780">
	<ele>1809.20</ele>
	<time>2024-07-25T08:10:49.000Z</time>
</trkpt>
<trkpt lat="46.1075430" lon="10.4542800">
	<ele>1809.40</ele>
	<time>2024-07-25T08:10:50.000Z</time>
</trkpt>
<trkpt lat="46.1075450" lon="10.4542790">
	<ele>1809.60</ele>
	<time>2024-07-25T08:10:51.000Z</time>
</trkpt>
<trkpt lat="46.1075460" lon="10.4542770">
	<ele>1809.80</ele>
	<time>2024-07-25T08:10:52.000Z</time>
</trkpt>
<trkpt lat="46.1075470" lon="10.4542750">
	<ele>1810.00</ele>
	<time>2024-07-25T08:10:53.000Z</time>
</trkpt>
<trkpt lat="46.1075510" lon="10.4542790">
	<ele>1810.00</ele>
	<time>2024-07-25T08:10:54.000Z</time>
</trkpt>
<trkpt lat="46.1075580" lon="10.4542860">
	<ele>1810.00</ele>
	<time>2024-07-25T08:10:55.000Z</time>
</trkpt>
<trkpt lat="46.1075670" lon="10.4542920">
	<ele>1810.00</ele>
	<time>2024-07-25T08:10:56.000Z</time>
</trkpt>
<trkpt lat="46.1075790" lon="10.4542960">
	<ele>1810.20</ele>
	<time>2024-07-25T08:10:57.000Z</time>
</trkpt>
<trkpt lat="46.1075900" lon="10.4543050">
	<ele>1810.20</ele>
	<time>2024-07-25T08:10:58.000Z</time>
</trkpt>
<trkpt lat="46.1075980" lon="10.4543160">
	<ele>1810.40</ele>
	<time>2024-07-25T08:10:59.000Z</time>
</trkpt>
<trkpt lat="46.1076050" lon="10.4543230">
	<ele>1810.60</ele>
	<time>2024-07-25T08:11:00.000Z</time>
</trkpt>
<trkpt lat="46.1076130" lon="10.4543300">
	<ele>1810.60</ele>
	<time>2024-07-25T08:11:01.000Z</time>
</trkpt>
<trkpt lat="46.1076210" lon="10.4543380">
	<ele>1810.80</ele>
	<time>2024-07-25T08:11:02.000Z</time>
</trkpt>
<trkpt lat="46.1076300" lon="10.4543490">
	<ele>1810.80</ele>
	<time>2024-07-25T08:11:03.000Z</time>
</trkpt>
<trkpt lat="46.1076370" lon="10.4543670">
	<ele>1811.00</ele>
	<time>2024-07-25T08:11:04.000Z</time>
</trkpt>
<trkpt lat="46.1076450" lon="10.4543820">
	<ele>1811.20</ele>
	<time>2024-07-25T08:11:05.000Z</time>
</trkpt>
<trkpt lat="46.1076520" lon="10.4543980">
	<ele>1811.40</ele>
	<time>2024-07-25T08:11:06.000Z</time>
</trkpt>
<trkpt lat="46.1076610" lon="10.4544110">
	<ele>1811.40</ele>
	<time>2024-07-25T08:11:07.000Z</time>
</trkpt>
<trkpt lat="46.1076720" lon="10.4544210">
	<ele>1811.60</ele>
	<time>2024-07-25T08:11:08.000Z</time>
</trkpt>
<trkpt lat="46.1076810" lon="10.4544330">
	<ele>1811.80</ele>
	<time>2024-07-25T08:11:09.000Z</time>
</trkpt>
<trkpt lat="46.1076900" lon="10.4544470">
	<ele>1812.00</ele>
	<time>2024-07-25T08:11:10.000Z</time>
</trkpt>
<trkpt lat="46.1076970" lon="10.4544580">
	<ele>1812.20</ele>
	<time>2024-07-25T08:11:11.000Z</time>
</trkpt>
<trkpt lat="46.1077080" lon="10.4544640">
	<ele>1812.40</ele>
	<time>2024-07-25T08:11:12.000Z</time>
</trkpt>
<trkpt lat="46.1077170" lon="10.4544720">
	<ele>1812.60</ele>
	<time>2024-07-25T08:11:13.000Z</time>
</trkpt>
<trkpt lat="46.1077260" lon="10.4544830">
	<ele>1812.80</ele>
	<time>2024-07-25T08:11:14.000Z</time>
</trkpt>
<trkpt lat="46.1077310" lon="10.4544900">
	<ele>1812.80</ele>
	<time>2024-07-25T08:11:15.000Z</time>
</trkpt>
<trkpt lat="46.1077420" lon="10.4544950">
	<ele>1813.00</ele>
	<time>2024-07-25T08:11:16.000Z</time>
</trkpt>
<trkpt lat="46.1077530" lon="10.4544960">
	<ele>1813.20</ele>
	<time>2024-07-25T08:11:17.000Z</time>
</trkpt>
<trkpt lat="46.1077610" lon="10.4545030">
	<ele>1813.20</ele>
	<time>2024-07-25T08:11:18.000Z</time>
</trkpt>
<trkpt lat="46.1077700" lon="10.4545090">
	<ele>1813.60</ele>
	<time>2024-07-25T08:11:19.000Z</time>
</trkpt>
<trkpt lat="46.1077750" lon="10.4545190">
	<ele>1813.80</ele>
	<time>2024-07-25T08:11:20.000Z</time>
</trkpt>
<trkpt lat="46.1077800" lon="10.4545310">
	<ele>1814.00</ele>
	<time>2024-07-25T08:11:21.000Z</time>
</trkpt>
<trkpt lat="46.1077850" lon="10.4545440">
	<ele>1814.00</ele>
	<time>2024-07-25T08:11:22.000Z</time>
</trkpt>
<trkpt lat="46.1077910" lon="10.4545580">
	<ele>1814.20</ele>
	<time>2024-07-25T08:11:23.000Z</time>
</trkpt>
<trkpt lat="46.1077970" lon="10.4545710">
	<ele>1814.40</ele>
	<time>2024-07-25T08:11:24.000Z</time>
</trkpt>
<trkpt lat="46.1078000" lon="10.4545850">
	<ele>1814.60</ele>
	<time>2024-07-25T08:11:25.000Z</time>
</trkpt>
<trkpt lat="46.1078050" lon="10.4545990">
	<ele>1814.80</ele>
	<time>2024-07-25T08:11:26.000Z</time>
</trkpt>
<trkpt lat="46.1078090" lon="10.4546150">
	<ele>1815.00</ele>
	<time>2024-07-25T08:11:27.000Z</time>
</trkpt>
<trkpt lat="46.1078150" lon="10.4546260">
	<ele>1815.20</ele>
	<time>2024-07-25T08:11:28.000Z</time>
</trkpt>
<trkpt lat="46.1078220" lon="10.4546370">
	<ele>1815.20</ele>
	<time>2024-07-25T08:11:29.000Z</time>
</trkpt>
<trkpt lat="46.1078290" lon="10.4546490">
	<ele>1815.40</ele>
	<time>2024-07-25T08:11:30.000Z</time>
</trkpt>
<trkpt lat="46.1078370" lon="10.4546620">
	<ele>1815.60</ele>
	<time>2024-07-25T08:11:31.000Z</time>
</trkpt>
<trkpt lat="46.1078440" lon="10.4546750">
	<ele>1815.80</ele>
	<time>2024-07-25T08:11:32.000Z</time>
</trkpt>
<trkpt lat="46.1078520" lon="10.4546830">
	<ele>1816.00</ele>
	<time>2024-07-25T08:11:33.000Z</time>
</trkpt>
<trkpt lat="46.1078630" lon="10.4546930">
	<ele>1816.20</ele>
	<time>2024-07-25T08:11:34.000Z</time>
</trkpt>
<trkpt lat="46.1078700" lon="10.4547040">
	<ele>1816.40</ele>
	<time>2024-07-25T08:11:35.000Z</time>
</trkpt>
<trkpt lat="46.1078740" lon="10.4547180">
	<ele>1816.60</ele>
	<time>2024-07-25T08:11:36.000Z</time>
</trkpt>
<trkpt lat="46.1078820" lon="10.4547280">
	<ele>1816.80</ele>
	<time>2024-07-25T08:11:37.000Z</time>
</trkpt>
<trkpt lat="46.1078920" lon="10.4547400">
	<ele>1816.80</ele>
	<time>2024-07-25T08:11:38.000Z</time>
</trkpt>
<trkpt lat="46.1079010" lon="10.4547490">
	<ele>1817.00</ele>
	<time>2024-07-25T08:11:39.000Z</time>
</trkpt>
<trkpt lat="46.1079080" lon="10.4547540">
	<ele>1817.40</ele>
	<time>2024-07-25T08:11:40.000Z</time>
</trkpt>
<trkpt lat="46.1079150" lon="10.4547550">
	<ele>1817.60</ele>
	<time>2024-07-25T08:11:41.000Z</time>
</trkpt>
<trkpt lat="46.1079210" lon="10.4547610">
	<ele>1817.60</ele>
	<time>2024-07-25T08:11:42.000Z</time>
</trkpt>
<trkpt lat="46.1079300" lon="10.4547670">
	<ele>1817.80</ele>
	<time>2024-07-25T08:11:43.000Z</time>
</trkpt>
<trkpt lat="46.1079410" lon="10.4547730">
	<ele>1817.80</ele>
	<time>2024-07-25T08:11:44.000Z</time>
</trkpt>
<trkpt lat="46.1079480" lon="10.4547800">
	<ele>1818.00</ele>
	<time>2024-07-25T08:11:45.000Z</time>
</trkpt>
<trkpt lat="46.1079540" lon="10.4547880">
	<ele>1818.20</ele>
	<time>2024-07-25T08:11:46.000Z</time>
</trkpt>
<trkpt lat="46.1079600" lon="10.4547960">
	<ele>1818.40</ele>
	<time>2024-07-25T08:11:47.000Z</time>
</trkpt>
<trkpt lat="46.1079680" lon="10.4548060">
	<ele>1818.40</ele>
	<time>2024-07-25T08:11:48.000Z</time>
</trkpt>
<trkpt lat="46.1079780" lon="10.4548180">
	<ele>1818.60</ele>
	<time>2024-07-25T08:11:49.000Z</time>
</trkpt>
<trkpt lat="46.1079850" lon="10.4548270">
	<ele>1818.80</ele>
	<time>2024-07-25T08:11:50.000Z</time>
</trkpt>
<trkpt lat="46.1079910" lon="10.4548390">
	<ele>1819.00</ele>
	<time>2024-07-25T08:11:51.000Z</time>
</trkpt>
<trkpt lat="46.1079960" lon="10.4548540">
	<ele>1819.20</ele>
	<time>2024-07-25T08:11:52.000Z</time>
</trkpt>
<trkpt lat="46.1080070" lon="10.4548630">
	<ele>1819.40</ele>
	<time>2024-07-25T08:11:53.000Z</time>
</trkpt>
<trkpt lat="46.1080150" lon="10.4548660">
	<ele>1819.60</ele>
	<time>2024-07-25T08:11:54.000Z</time>
</trkpt>
<trkpt lat="46.1080240" lon="10.4548710">
	<ele>1819.60</ele>
	<time>2024-07-25T08:11:55.000Z</time>
</trkpt>
<trkpt lat="46.1080350" lon="10.4548750">
	<ele>1819.80</ele>
	<time>2024-07-25T08:11:56.000Z</time>
</trkpt>
<trkpt lat="46.1080450" lon="10.4548840">
	<ele>1820.00</ele>
	<time>2024-07-25T08:11:57.000Z</time>
</trkpt>
<trkpt lat="46.1080510" lon="10.4548890">
	<ele>1820.20</ele>
	<time>2024-07-25T08:11:58.000Z</time>
</trkpt>
<trkpt lat="46.1080630" lon="10.4549000">
	<ele>1820.20</ele>
	<time>2024-07-25T08:11:59.000Z</time>
</trkpt>
<trkpt lat="46.1080690" lon="10.4549050">
	<ele>1820.40</ele>
	<time>2024-07-25T08:12:00.000Z</time>
</trkpt>
<trkpt lat="46.1080780" lon="10.4549180">
	<ele>1820.60</ele>
	<time>2024-07-25T08:12:01.000Z</time>
</trkpt>
<trkpt lat="46.1080840" lon="10.4549260">
	<ele>1820.80</ele>
	<time>2024-07-25T08:12:02.000Z</time>
</trkpt>
<trkpt lat="46.1080920" lon="10.4549380">
	<ele>1821.00</ele>
	<time>2024-07-25T08:12:03.000Z</time>
</trkpt>
<trkpt lat="46.1080980" lon="10.4549510">
	<ele>1821.00</ele>
	<time>2024-07-25T08:12:04.000Z</time>
</trkpt>
<trkpt lat="46.1081040" lon="10.4549600">
	<ele>1821.20</ele>
	<time>2024-07-25T08:12:05.000Z</time>
</trkpt>
<trkpt lat="46.1081070" lon="10.4549690">
	<ele>1821.40</ele>
	<time>2024-07-25T08:12:06.000Z</time>
</trkpt>
<trkpt lat="46.1081130" lon="10.4549830">
	<ele>1821.40</ele>
	<time>2024-07-25T08:12:07.000Z</time>
</trkpt>
<trkpt lat="46.1081170" lon="10.4549940">
	<ele>1821.60</ele>
	<time>2024-07-25T08:12:08.000Z</time>
</trkpt>
<trkpt lat="46.1081220" lon="10.4550070">
	<ele>1821.80</ele>
	<time>2024-07-25T08:12:09.000Z</time>
</trkpt>
<trkpt lat="46.1081290" lon="10.4550230">
	<ele>1822.00</ele>
	<time>2024-07-25T08:12:10.000Z</time>
</trkpt>
<trkpt lat="46.1081340" lon="10.4550320">
	<ele>1822.20</ele>
	<time>2024-07-25T08:12:11.000Z</time>
</trkpt>
<trkpt lat="46.1081380" lon="10.4550440">
	<ele>1822.40</ele>
	<time>2024-07-25T08:12:12.000Z</time>
</trkpt>
<trkpt lat="46.1081440" lon="10.4550560">
	<ele>1822.40</ele>
	<time>2024-07-25T08:12:13.000Z</time>
</trkpt>
<trkpt lat="46.1081500" lon="10.4550690">
	<ele>1822.40</ele>
	<time>2024-07-25T08:12:14.000Z</time>
</trkpt>
<trkpt lat="46.1081520" lon="10.4550820">
	<ele>1822.60</ele>
	<time>2024-07-25T08:12:15.000Z</time>
</trkpt>
<trkpt lat="46.1081530" lon="10.4550950">
	<ele>1822.80</ele>
	<time>2024-07-25T08:12:16.000Z</time>
</trkpt>
<trkpt lat="46.1081560" lon="10.4551080">
	<ele>1823.00</ele>
	<time>2024-07-25T08:12:17.000Z</time>
</trkpt>
<trkpt lat="46.1081610" lon="10.4551250">
	<ele>1823.00</ele>
	<time>2024-07-25T08:12:18.000Z</time>
</trkpt>
<trkpt lat="46.1081640" lon="10.4551410">
	<ele>1823.20</ele>
	<time>2024-07-25T08:12:19.000Z</time>
</trkpt>
<trkpt lat="46.1081700" lon="10.4551560">
	<ele>1823.40</ele>
	<time>2024-07-25T08:12:20.000Z</time>
</trkpt>
<trkpt lat="46.1081730" lon="10.4551670">
	<ele>1823.60</ele>
	<time>2024-07-25T08:12:21.000Z</time>
</trkpt>
<trkpt lat="46.1081780" lon="10.4551770">
	<ele>1823.80</ele>
	<time>2024-07-25T08:12:22.000Z</time>
</trkpt>
<trkpt lat="46.1081840" lon="10.4551930">
	<ele>1824.20</ele>
	<time>2024-07-25T08:12:23.000Z</time>
</trkpt>
<trkpt lat="46.1081920" lon="10.4552050">
	<ele>1824.40</ele>
	<time>2024-07-25T08:12:24.000Z</time>
</trkpt>
<trkpt lat="46.1081950" lon="10.4552160">
	<ele>1824.60</ele>
	<time>2024-07-25T08:12:25.000Z</time>
</trkpt>
<trkpt lat="46.1081990" lon="10.4552290">
	<ele>1824.60</ele>
	<time>2024-07-25T08:12:26.000Z</time>
</trkpt>
<trkpt lat="46.1082020" lon="10.4552420">
	<ele>1824.60</ele>
	<time>2024-07-25T08:12:27.000Z</time>
</trkpt>
<trkpt lat="46.1082070" lon="10.4552550">
	<ele>1824.80</ele>
	<time>2024-07-25T08:12:28.000Z</time>
</trkpt>
<trkpt lat="46.1082090" lon="10.4552710">
	<ele>1824.80</ele>
	<time>2024-07-25T08:12:29.000Z</time>
</trkpt>
<trkpt lat="46.1082120" lon="10.4552840">
	<ele>1825.00</ele>
	<time>2024-07-25T08:12:30.000Z</time>
</trkpt>
<trkpt lat="46.1082170" lon="10.4552950">
	<ele>1825.20</ele>
	<time>2024-07-25T08:12:31.000Z</time>
</trkpt>
<trkpt lat="46.1082220" lon="10.4553060">
	<ele>1825.40</ele>
	<time>2024-07-25T08:12:32.000Z</time>
</trkpt>
<trkpt lat="46.1082270" lon="10.4553180">
	<ele>1825.60</ele>
	<time>2024-07-25T08:12:33.000Z</time>
</trkpt>
<trkpt lat="46.1082280" lon="10.4553310">
	<ele>1825.60</ele>
	<time>2024-07-25T08:12:34.000Z</time>
</trkpt>
<trkpt lat="46.1082300" lon="10.4553440">
	<ele>1825.80</ele>
	<time>2024-07-25T08:12:35.000Z</time>
</trkpt>
<trkpt lat="46.1082330" lon="10.4553550">
	<ele>1826.00</ele>
	<time>2024-07-25T08:12:36.000Z</time>
</trkpt>
<trkpt lat="46.1082370" lon="10.4553650">
	<ele>1826.20</ele>
	<time>2024-07-25T08:12:37.000Z</time>
</trkpt>
<trkpt lat="46.1082400" lon="10.4553740">
	<ele>1826.20</ele>
	<time>2024-07-25T08:12:38.000Z</time>
</trkpt>
<trkpt lat="46.1082450" lon="10.4553870">
	<ele>1826.40</ele>
	<time>2024-07-25T08:12:39.000Z</time>
</trkpt>
<trkpt lat="46.1082480" lon="10.4553990">
	<ele>1826.60</ele>
	<time>2024-07-25T08:12:40.000Z</time>
</trkpt>
<trkpt lat="46.1082520" lon="10.4554130">
	<ele>1826.60</ele>
	<time>2024-07-25T08:12:41.000Z</time>
</trkpt>
<trkpt lat="46.1082530" lon="10.4554230">
	<ele>1826.80</ele>
	<time>2024-07-25T08:12:42.000Z</time>
</trkpt>
<trkpt lat="46.1082590" lon="10.4554380">
	<ele>1827.00</ele>
	<time>2024-07-25T08:12:43.000Z</time>
</trkpt>
<trkpt lat="46.1082640" lon="10.4554500">
	<ele>1827.40</ele>
	<time>2024-07-25T08:12:44.000Z</time>
</trkpt>
<trkpt lat="46.1082670" lon="10.4554640">
	<ele>1827.60</ele>
	<time>2024-07-25T08:12:45.000Z</time>
</trkpt>
<trkpt lat="46.1082710" lon="10.4554770">
	<ele>1827.80</ele>
	<time>2024-07-25T08:12:46.000Z</time>
</trkpt>
<trkpt lat="46.1082760" lon="10.4554890">
	<ele>1828.00</ele>
	<time>2024-07-25T08:12:47.000Z</time>
</trkpt>
<trkpt lat="46.1082820" lon="10.4555010">
	<ele>1828.00</ele>
	<time>2024-07-25T08:12:48.000Z</time>
</trkpt>
<trkpt lat="46.1082870" lon="10.4555140">
	<ele>1828.20</ele>
	<time>2024-07-25T08:12:49.000Z</time>
</trkpt>
<trkpt lat="46.1082900" lon="10.4555260">
	<ele>1828.40</ele>
	<time>2024-07-25T08:12:50.000Z</time>
</trkpt>
<trkpt lat="46.1082930" lon="10.4555380">
	<ele>1828.60</ele>
	<time>2024-07-25T08:12:51.000Z</time>
</trkpt>
<trkpt lat="46.1082970" lon="10.4555500">
	<ele>1828.60</ele>
	<time>2024-07-25T08:12:52.000Z</time>
</trkpt>
<trkpt lat="46.1083000" lon="10.4555610">
	<ele>1828.80</ele>
	<time>2024-07-25T08:12:53.000Z</time>
</trkpt>
<trkpt lat="46.1083060" lon="10.4555730">
	<ele>1829.00</ele>
	<time>2024-07-25T08:12:54.000Z</time>
</trkpt>
<trkpt lat="46.1083120" lon="10.4555830">
	<ele>1829.20</ele>
	<time>2024-07-25T08:12:55.000Z</time>
</trkpt>
<trkpt lat="46.1083180" lon="10.4555970">
	<ele>1829.40</ele>
	<time>2024-07-25T08:12:56.000Z</time>
</trkpt>
<trkpt lat="46.1083240" lon="10.4556090">
	<ele>1829.60</ele>
	<time>2024-07-25T08:12:57.000Z</time>
</trkpt>
<trkpt lat="46.1083280" lon="10.4556220">
	<ele>1829.80</ele>
	<time>2024-07-25T08:12:58.000Z</time>
</trkpt>
<trkpt lat="46.1083300" lon="10.4556340">
	<ele>1830.00</ele>
	<time>2024-07-25T08:12:59.000Z</time>
</trkpt>
<trkpt lat="46.1083370" lon="10.4556480">
	<ele>1830.00</ele>
	<time>2024-07-25T08:13:00.000Z</time>
</trkpt>
<trkpt lat="46.1083420" lon="10.4556610">
	<ele>1830.20</ele>
	<time>2024-07-25T08:13:01.000Z</time>
</trkpt>
<trkpt lat="46.1083480" lon="10.4556750">
	<ele>1830.40</ele>
	<time>2024-07-25T08:13:02.000Z</time>
</trkpt>
<trkpt lat="46.1083510" lon="10.4556850">
	<ele>1830.80</ele>
	<time>2024-07-25T08:13:03.000Z</time>
</trkpt>
<trkpt lat="46.1083570" lon="10.4556940">
	<ele>1831.00</ele>
	<time>2024-07-25T08:13:04.000Z</time>
</trkpt>
<trkpt lat="46.1083620" lon="10.4557070">
	<ele>1831.20</ele>
	<time>2024-07-25T08:13:05.000Z</time>
</trkpt>
<trkpt lat="46.1083670" lon="10.4557160">
	<ele>1831.40</ele>
	<time>2024-07-25T08:13:06.000Z</time>
</trkpt>
<trkpt lat="46.1083750" lon="10.4557280">
	<ele>1831.60</ele>
	<time>2024-07-25T08:13:07.000Z</time>
</trkpt>
<trkpt lat="46.1083830" lon="10.4557390">
	<ele>1831.60</ele>
	<time>2024-07-25T08:13:08.000Z</time>
</trkpt>
<trkpt lat="46.1083870" lon="10.4557510">
	<ele>1831.80</ele>
	<time>2024-07-25T08:13:09.000Z</time>
</trkpt>
<trkpt lat="46.1083910" lon="10.4557640">
	<ele>1831.80</ele>
	<time>2024-07-25T08:13:10.000Z</time>
</trkpt>
<trkpt lat="46.1083960" lon="10.4557750">
	<ele>1832.00</ele>
	<time>2024-07-25T08:13:11.000Z</time>
</trkpt>
<trkpt lat="46.1083990" lon="10.4557850">
	<ele>1832.20</ele>
	<time>2024-07-25T08:13:12.000Z</time>
</trkpt>
<trkpt lat="46.1084050" lon="10.4557930">
	<ele>1832.40</ele>
	<time>2024-07-25T08:13:13.000Z</time>
</trkpt>
<trkpt lat="46.1084070" lon="10.4557950">
	<ele>1832.60</ele>
	<time>2024-07-25T08:13:14.000Z</time>
</trkpt>
<trkpt lat="46.1084070" lon="10.4557990">
	<ele>1832.80</ele>
	<time>2024-07-25T08:13:15.000Z</time>
</trkpt>
<trkpt lat="46.1084070" lon="10.4558020">
	<ele>1833.00</ele>
	<time>2024-07-25T08:13:16.000Z</time>
</trkpt>
<trkpt lat="46.1084070" lon="10.4558030">
	<ele>1833.00</ele>
	<time>2024-07-25T08:13:17.000Z</time>
</trkpt>
<trkpt lat="46.1084070" lon="10.4557990">
	<ele>1833.00</ele>
	<time>2024-07-25T08:13:18.000Z</time>
</trkpt>
<trkpt lat="46.1084090" lon="10.4557990">
	<ele>1833.20</ele>
	<time>2024-07-25T08:13:19.000Z</time>
</trkpt>
<trkpt lat="46.1084100" lon="10.4558000">
	<ele>1833.20</ele>
	<time>2024-07-25T08:13:20.000Z</time>
</trkpt>
<trkpt lat="46.1084070" lon="10.4557990">
	<ele>1833.20</ele>
	<time>2024-07-25T08:13:21.000Z</time>
</trkpt>
<trkpt lat="46.1084040" lon="10.4558000">
	<ele>1833.20</ele>
	<time>2024-07-25T08:13:22.000Z</time>
</trkpt>
<trkpt lat="46.1084000" lon="10.4558070">
	<ele>1833.20</ele>
	<time>2024-07-25T08:13:23.000Z</time>
</trkpt>
<trkpt lat="46.1083970" lon="10.4558200">
	<ele>1833.20</ele>
	<time>2024-07-25T08:13:24.000Z</time>
</trkpt>
<trkpt lat="46.1083940" lon="10.4558230">
	<ele>1833.00</ele>
	<time>2024-07-25T08:13:25.000Z</time>
</trkpt>
<trkpt lat="46.1083930" lon="10.4558320">
	<ele>1833.00</ele>
	<time>2024-07-25T08:13:26.000Z</time>
</trkpt>
<trkpt lat="46.1083890" lon="10.4558440">
	<ele>1833.00</ele>
	<time>2024-07-25T08:13:27.000Z</time>
</trkpt>
<trkpt lat="46.1083860" lon="10.4558560">
	<ele>1833.20</ele>
	<time>2024-07-25T08:13:28.000Z</time>
</trkpt>
<trkpt lat="46.1083840" lon="10.4558670">
	<ele>1833.40</ele>
	<time>2024-07-25T08:13:29.000Z</time>
</trkpt>
<trkpt lat="46.1083820" lon="10.4558760">
	<ele>1833.60</ele>
	<time>2024-07-25T08:13:30.000Z</time>
</trkpt>
<trkpt lat="46.1083810" lon="10.4558890">
	<ele>1833.80</ele>
	<time>2024-07-25T08:13:31.000Z</time>
</trkpt>
<trkpt lat="46.1083790" lon="10.4559030">
	<ele>1834.00</ele>
	<time>2024-07-25T08:13:32.000Z</time>
</trkpt>
<trkpt lat="46.1083740" lon="10.4559160">
	<ele>1834.20</ele>
	<time>2024-07-25T08:13:33.000Z</time>
</trkpt>
<trkpt lat="46.1083680" lon="10.4559270">
	<ele>1834.40</ele>
	<time>2024-07-25T08:13:34.000Z</time>
</trkpt>
<trkpt lat="46.1083620" lon="10.4559400">
	<ele>1834.60</ele>
	<time>2024-07-25T08:13:35.000Z</time>
</trkpt>
<trkpt lat="46.1083580" lon="10.4559540">
	<ele>1834.80</ele>
	<time>2024-07-25T08:13:36.000Z</time>
</trkpt>
<trkpt lat="46.1083540" lon="10.4559690">
	<ele>1834.80</ele>
	<time>2024-07-25T08:13:37.000Z</time>
</trkpt>
<trkpt lat="46.1083500" lon="10.4559820">
	<ele>1835.00</ele>
	<time>2024-07-25T08:13:38.000Z</time>
</trkpt>
<trkpt lat="46.1083490" lon="10.4559940">
	<ele>1835.00</ele>
	<time>2024-07-25T08:13:39.000Z</time>
</trkpt>
<trkpt lat="46.1083480" lon="10.4560070">
	<ele>1835.20</ele>
	<time>2024-07-25T08:13:40.000Z</time>
</trkpt>
<trkpt lat="46.1083490" lon="10.4560190">
	<ele>1835.60</ele>
	<time>2024-07-25T08:13:41.000Z</time>
</trkpt>
<trkpt lat="46.1083480" lon="10.4560320">
	<ele>1835.80</ele>
	<time>2024-07-25T08:13:42.000Z</time>
</trkpt>
<trkpt lat="46.1083470" lon="10.4560450">
	<ele>1836.00</ele>
	<time>2024-07-25T08:13:43.000Z</time>
</trkpt>
<trkpt lat="46.1083450" lon="10.4560580">
	<ele>1836.20</ele>
	<time>2024-07-25T08:13:44.000Z</time>
</trkpt>
<trkpt lat="46.1083450" lon="10.4560710">
	<ele>1836.40</ele>
	<time>2024-07-25T08:13:45.000Z</time>
</trkpt>
<trkpt lat="46.1083430" lon="10.4560870">
	<ele>1836.40</ele>
	<time>2024-07-25T08:13:46.000Z</time>
</trkpt>
<trkpt lat="46.1083440" lon="10.4561010">
	<ele>1836.60</ele>
	<time>2024-07-25T08:13:47.000Z</time>
</trkpt>
<trkpt lat="46.1083490" lon="10.4561110">
	<ele>1837.00</ele>
	<time>2024-07-25T08:13:48.000Z</time>
</trkpt>
<trkpt lat="46.1083520" lon="10.4561190">
	<ele>1837.20</ele>
	<time>2024-07-25T08:13:49.000Z</time>
</trkpt>
<trkpt lat="46.1083540" lon="10.4561280">
	<ele>1837.40</ele>
	<time>2024-07-25T08:13:50.000Z</time>
</trkpt>
<trkpt lat="46.1083570" lon="10.4561390">
	<ele>1837.80</ele>
	<time>2024-07-25T08:13:51.000Z</time>
</trkpt>
<trkpt lat="46.1083610" lon="10.4561550">
	<ele>1838.00</ele>
	<time>2024-07-25T08:13:52.000Z</time>
</trkpt>
<trkpt lat="46.1083710" lon="10.4561690">
	<ele>1838.00</ele>
	<time>2024-07-25T08:13:53.000Z</time>
</trkpt>
<trkpt lat="46.1083830" lon="10.4561750">
	<ele>1838.20</ele>
	<time>2024-07-25T08:13:54.000Z</time>
</trkpt>
<trkpt lat="46.1083940" lon="10.4561790">
	<ele>1838.20</ele>
	<time>2024-07-25T08:13:55.000Z</time>
</trkpt>
<trkpt lat="46.1083980" lon="10.4561790">
	<ele>1838.40</ele>
	<time>2024-07-25T08:13:56.000Z</time>
</trkpt>
<trkpt lat="46.1084020" lon="10.4561780">
	<ele>1838.40</ele>
	<time>2024-07-25T08:13:57.000Z</time>
</trkpt>
<trkpt lat="46.1084050" lon="10.4561780">
	<ele>1838.60</ele>
	<time>2024-07-25T08:13:58.000Z</time>
</trkpt>
<trkpt lat="46.1084050" lon="10.4561760">
	<ele>1838.80</ele>
	<time>2024-07-25T08:13:59.000Z</time>
</trkpt>
<trkpt lat="46.1084050" lon="10.4561760">
	<ele>1839.00</ele>
	<time>2024-07-25T08:14:00.000Z</time>
</trkpt>
<trkpt lat="46.1084040" lon="10.4561750">
	<ele>1839.20</ele>
	<time>2024-07-25T08:14:01.000Z</time>
</trkpt>
<trkpt lat="46.1084050" lon="10.4561730">
	<ele>1839.20</ele>
	<time>2024-07-25T08:14:02.000Z</time>
</trkpt>
<trkpt lat="46.1084060" lon="10.4561720">
	<ele>1839.20</ele>
	<time>2024-07-25T08:14:03.000Z</time>
</trkpt>
<trkpt lat="46.1084060" lon="10.4561740">
	<ele>1839.40</ele>
	<time>2024-07-25T08:14:04.000Z</time>
</trkpt>
<trkpt lat="46.1084060" lon="10.4561760">
	<ele>1839.40</ele>
	<time>2024-07-25T08:14:05.000Z</time>
</trkpt>
<trkpt lat="46.1084070" lon="10.4561750">
	<ele>1839.40</ele>
	<time>2024-07-25T08:14:06.000Z</time>
</trkpt>
<trkpt lat="46.1084090" lon="10.4561740">
	<ele>1839.40</ele>
	<time>2024-07-25T08:14:07.000Z</time>
</trkpt>
<trkpt lat="46.1084090" lon="10.4561720">
	<ele>1839.40</ele>
	<time>2024-07-25T08:14:08.000Z</time>
</trkpt>
<trkpt lat="46.1084090" lon="10.4561720">
	<ele>1839.40</ele>
	<time>2024-07-25T08:14:09.000Z</time>
</trkpt>
<trkpt lat="46.1084090" lon="10.4561720">
	<ele>1839.40</ele>
	<time>2024-07-25T08:14:10.000Z</time>
</trkpt>
<trkpt lat="46.1084090" lon="10.4561720">
	<ele>1839.20</ele>
	<time>2024-07-25T08:14:11.000Z</time>
</trkpt>
<trkpt lat="46.1084090" lon="10.4561720">
	<ele>1839.20</ele>
	<time>2024-07-25T08:14:12.000Z</time>
</trkpt>
<trkpt lat="46.1084090" lon="10.4561720">
	<ele>1839.20</ele>
	<time>2024-07-25T08:14:13.000Z</time>
</trkpt>
<trkpt lat="46.1084090" lon="10.4561720">
	<ele>1839.20</ele>
	<time>2024-07-25T08:14:14.000Z</time>
</trkpt>
<trkpt lat="46.1084090" lon="10.4561720">
	<ele>1839.20</ele>
	<time>2024-07-25T08:14:15.000Z</time>
</trkpt>
<trkpt lat="46.1084090" lon="10.4561720">
	<ele>1839.20</ele>
	<time>2024-07-25T08:14:16.000Z</time>
</trkpt>
<trkpt lat="46.1084100" lon="10.4561780">
	<ele>1839.40</ele>
	<time>2024-07-25T08:14:17.000Z</time>
</trkpt>
<trkpt lat="46.1084200" lon="10.4561970">
	<ele>1839.60</ele>
	<time>2024-07-25T08:14:18.000Z</time>
</trkpt>
<trkpt lat="46.1084260" lon="10.4562120">
	<ele>1840.00</ele>
	<time>2024-07-25T08:14:19.000Z</time>
</trkpt>
<trkpt lat="46.1084370" lon="10.4562260">
	<ele>1840.00</ele>
	<time>2024-07-25T08:14:20.000Z</time>
</trkpt>
<trkpt lat="46.1084470" lon="10.4562460">
	<ele>1840.20</ele>
	<time>2024-07-25T08:14:21.000Z</time>
</trkpt>
<trkpt lat="46.1084550" lon="10.4562640">
	<ele>1840.20</ele>
	<time>2024-07-25T08:14:22.000Z</time>
</trkpt>
<trkpt lat="46.1084610" lon="10.4562800">
	<ele>1840.20</ele>
	<time>2024-07-25T08:14:23.000Z</time>
</trkpt>
<trkpt lat="46.1084710" lon="10.4562990">
	<ele>1840.20</ele>
	<time>2024-07-25T08:14:24.000Z</time>
</trkpt>
<trkpt lat="46.1084780" lon="10.4563150">
	<ele>1840.20</ele>
	<time>2024-07-25T08:14:25.000Z</time>
</trkpt>
<trkpt lat="46.1084850" lon="10.4563320">
	<ele>1840.20</ele>
	<time>2024-07-25T08:14:26.000Z</time>
</trkpt>
<trkpt lat="46.1084900" lon="10.4563440">
	<ele>1840.20</ele>
	<time>2024-07-25T08:14:27.000Z</time>
</trkpt>
<trkpt lat="46.1084930" lon="10.4563560">
	<ele>1840.40</ele>
	<time>2024-07-25T08:14:28.000Z</time>
</trkpt>
<trkpt lat="46.1084960" lon="10.4563650">
	<ele>1840.60</ele>
	<time>2024-07-25T08:14:29.000Z</time>
</trkpt>
<trkpt lat="46.1084990" lon="10.4563790">
	<ele>1840.80</ele>
	<time>2024-07-25T08:14:30.000Z</time>
</trkpt>
<trkpt lat="46.1085050" lon="10.4563950">
	<ele>1840.80</ele>
	<time>2024-07-25T08:14:31.000Z</time>
</trkpt>
<trkpt lat="46.1085080" lon="10.4564110">
	<ele>1841.00</ele>
	<time>2024-07-25T08:14:32.000Z</time>
</trkpt>
<trkpt lat="46.1085090" lon="10.4564300">
	<ele>1841.00</ele>
	<time>2024-07-25T08:14:33.000Z</time>
</trkpt>
<trkpt lat="46.1085080" lon="10.4564480">
	<ele>1841.20</ele>
	<time>2024-07-25T08:14:34.000Z</time>
</trkpt>
<trkpt lat="46.1085070" lon="10.4564610">
	<ele>1841.40</ele>
	<time>2024-07-25T08:14:35.000Z</time>
</trkpt>
<trkpt lat="46.1085070" lon="10.4564750">
	<ele>1841.60</ele>
	<time>2024-07-25T08:14:36.000Z</time>
</trkpt>
<trkpt lat="46.1085080" lon="10.4564870">
	<ele>1841.80</ele>
	<time>2024-07-25T08:14:37.000Z</time>
</trkpt>
<trkpt lat="46.1085090" lon="10.4565040">
	<ele>1842.00</ele>
	<time>2024-07-25T08:14:38.000Z</time>
</trkpt>
<trkpt lat="46.1085130" lon="10.4565160">
	<ele>1842.00</ele>
	<time>2024-07-25T08:14:39.000Z</time>
</trkpt>
<trkpt lat="46.1085160" lon="10.4565320">
	<ele>1842.20</ele>
	<time>2024-07-25T08:14:40.000Z</time>
</trkpt>
<trkpt lat="46.1085230" lon="10.4565480">
	<ele>1842.40</ele>
	<time>2024-07-25T08:14:41.000Z</time>
</trkpt>
<trkpt lat="46.1085290" lon="10.4565590">
	<ele>1842.60</ele>
	<time>2024-07-25T08:14:42.000Z</time>
</trkpt>
<trkpt lat="46.1085340" lon="10.4565710">
	<ele>1842.60</ele>
	<time>2024-07-25T08:14:43.000Z</time>
</trkpt>
<trkpt lat="46.1085430" lon="10.4565820">
	<ele>1842.80</ele>
	<time>2024-07-25T08:14:44.000Z</time>
</trkpt>
<trkpt lat="46.1085530" lon="10.4565940">
	<ele>1843.00</ele>
	<time>2024-07-25T08:14:45.000Z</time>
</trkpt>
<trkpt lat="46.1085580" lon="10.4566080">
	<ele>1843.20</ele>
	<time>2024-07-25T08:14:46.000Z</time>
</trkpt>
<trkpt lat="46.1085620" lon="10.4566270">
	<ele>1843.20</ele>
	<time>2024-07-25T08:14:47.000Z</time>
</trkpt>
<trkpt lat="46.1085620" lon="10.4566410">
	<ele>1843.40</ele>
	<time>2024-07-25T08:14:48.000Z</time>
</trkpt>
<trkpt lat="46.1085610" lon="10.4566570">
	<ele>1843.60</ele>
	<time>2024-07-25T08:14:49.000Z</time>
</trkpt>
<trkpt lat="46.1085610" lon="10.4566760">
	<ele>1844.00</ele>
	<time>2024-07-25T08:14:50.000Z</time>
</trkpt>
<trkpt lat="46.1085630" lon="10.4566920">
	<ele>1844.20</ele>
	<time>2024-07-25T08:14:51.000Z</time>
</trkpt>
<trkpt lat="46.1085640" lon="10.4567060">
	<ele>1844.40</ele>
	<time>2024-07-25T08:14:52.000Z</time>
</trkpt>
<trkpt lat="46.1085680" lon="10.4567160">
	<ele>1844.40</ele>
	<time>2024-07-25T08:14:53.000Z</time>
</trkpt>
<trkpt lat="46.1085710" lon="10.4567260">
	<ele>1844.60</ele>
	<time>2024-07-25T08:14:54.000Z</time>
</trkpt>
<trkpt lat="46.1085760" lon="10.4567420">
	<ele>1844.80</ele>
	<time>2024-07-25T08:14:55.000Z</time>
</trkpt>
<trkpt lat="46.1085770" lon="10.4567510">
	<ele>1845.00</ele>
	<time>2024-07-25T08:14:56.000Z</time>
</trkpt>
<trkpt lat="46.1085820" lon="10.4567650">
	<ele>1845.00</ele>
	<time>2024-07-25T08:14:57.000Z</time>
</trkpt>
<trkpt lat="46.1085850" lon="10.4567820">
	<ele>1845.20</ele>
	<time>2024-07-25T08:14:58.000Z</time>
</trkpt>
<trkpt lat="46.1085850" lon="10.4567930">
	<ele>1845.20</ele>
	<time>2024-07-25T08:14:59.000Z</time>
</trkpt>
<trkpt lat="46.1085860" lon="10.4568070">
	<ele>1845.40</ele>
	<time>2024-07-25T08:15:00.000Z</time>
</trkpt>
<trkpt lat="46.1085870" lon="10.4568210">
	<ele>1845.60</ele>
	<time>2024-07-25T08:15:01.000Z</time>
</trkpt>
<trkpt lat="46.1085870" lon="10.4568380">
	<ele>1845.80</ele>
	<time>2024-07-25T08:15:02.000Z</time>
</trkpt>
<trkpt lat="46.1085880" lon="10.4568500">
	<ele>1846.00</ele>
	<time>2024-07-25T08:15:03.000Z</time>
</trkpt>
<trkpt lat="46.1085870" lon="10.4568630">
	<ele>1846.00</ele>
	<time>2024-07-25T08:15:04.000Z</time>
</trkpt>
<trkpt lat="46.1085870" lon="10.4568760">
	<ele>1846.40</ele>
	<time>2024-07-25T08:15:05.000Z</time>
</trkpt>
<trkpt lat="46.1085870" lon="10.4568880">
	<ele>1846.60</ele>
	<time>2024-07-25T08:15:06.000Z</time>
</trkpt>
<trkpt lat="46.1085840" lon="10.4568990">
	<ele>1846.60</ele>
	<time>2024-07-25T08:15:07.000Z</time>
</trkpt>
<trkpt lat="46.1085830" lon="10.4569150">
	<ele>1846.80</ele>
	<time>2024-07-25T08:15:08.000Z</time>
</trkpt>
<trkpt lat="46.1085840" lon="10.4569320">
	<ele>1846.80</ele>
	<time>2024-07-25T08:15:09.000Z</time>
</trkpt>
<trkpt lat="46.1085830" lon="10.4569470">
	<ele>1847.00</ele>
	<time>2024-07-25T08:15:10.000Z</time>
</trkpt>
<trkpt lat="46.1085830" lon="10.4569630">
	<ele>1847.00</ele>
	<time>2024-07-25T08:15:11.000Z</time>
</trkpt>
<trkpt lat="46.1085830" lon="10.4569740">
	<ele>1847.20</ele>
	<time>2024-07-25T08:15:12.000Z</time>
</trkpt>
<trkpt lat="46.1085860" lon="10.4569870">
	<ele>1847.40</ele>
	<time>2024-07-25T08:15:13.000Z</time>
</trkpt>
<trkpt lat="46.1085920" lon="10.4569950">
	<ele>1847.60</ele>
	<time>2024-07-25T08:15:14.000Z</time>
</trkpt>
<trkpt lat="46.1085970" lon="10.4570010">
	<ele>1847.60</ele>
	<time>2024-07-25T08:15:15.000Z</time>
</trkpt>
<trkpt lat="46.1085960" lon="10.4570030">
	<ele>1847.80</ele>
	<time>2024-07-25T08:15:16.000Z</time>
</trkpt>
<trkpt lat="46.1085950" lon="10.4570050">
	<ele>1848.20</ele>
	<time>2024-07-25T08:15:17.000Z</time>
</trkpt>
<trkpt lat="46.1085940" lon="10.4570070">
	<ele>1848.40</ele>
	<time>2024-07-25T08:15:18.000Z</time>
</trkpt>
<trkpt lat="46.1085930" lon="10.4570080">
	<ele>1848.40</ele>
	<time>2024-07-25T08:15:19.000Z</time>
</trkpt>
<trkpt lat="46.1085930" lon="10.4570100">
	<ele>1848.60</ele>
	<time>2024-07-25T08:15:20.000Z</time>
</trkpt>
<trkpt lat="46.1085930" lon="10.4570180">
	<ele>1848.60</ele>
	<time>2024-07-25T08:15:21.000Z</time>
</trkpt>
<trkpt lat="46.1085920" lon="10.4570290">
	<ele>1848.60</ele>
	<time>2024-07-25T08:15:22.000Z</time>
</trkpt>
<trkpt lat="46.1085890" lon="10.4570390">
	<ele>1848.60</ele>
	<time>2024-07-25T08:15:23.000Z</time>
</trkpt>
<trkpt lat="46.1085900" lon="10.4570480">
	<ele>1848.60</ele>
	<time>2024-07-25T08:15:24.000Z</time>
</trkpt>
<trkpt lat="46.1085910" lon="10.4570530">
	<ele>1848.80</ele>
	<time>2024-07-25T08:15:25.000Z</time>
</trkpt>
<trkpt lat="46.1085910" lon="10.4570550">
	<ele>1848.80</ele>
	<time>2024-07-25T08:15:26.000Z</time>
</trkpt>
<trkpt lat="46.1085910" lon="10.4570550">
	<ele>1848.80</ele>
	<time>2024-07-25T08:15:27.000Z</time>
</trkpt>
<trkpt lat="46.1085910" lon="10.4570550">
	<ele>1849.00</ele>
	<time>2024-07-25T08:15:28.000Z</time>
</trkpt>
<trkpt lat="46.1085930" lon="10.4570560">
	<ele>1849.00</ele>
	<time>2024-07-25T08:15:29.000Z</time>
</trkpt>
<trkpt lat="46.1085970" lon="10.4570640">
	<ele>1849.00</ele>
	<time>2024-07-25T08:15:30.000Z</time>
</trkpt>
<trkpt lat="46.1086020" lon="10.4570750">
	<ele>1848.80</ele>
	<time>2024-07-25T08:15:31.000Z</time>
</trkpt>
<trkpt lat="46.1086060" lon="10.4570880">
	<ele>1848.80</ele>
	<time>2024-07-25T08:15:32.000Z</time>
</trkpt>
<trkpt lat="46.1086080" lon="10.4571050">
	<ele>1848.80</ele>
	<time>2024-07-25T08:15:33.000Z</time>
</trkpt>
<trkpt lat="46.1086130" lon="10.4571170">
	<ele>1848.80</ele>
	<time>2024-07-25T08:15:34.000Z</time>
</trkpt>
<trkpt lat="46.1086210" lon="10.4571230">
	<ele>1848.80</ele>
	<time>2024-07-25T08:15:35.000Z</time>
</trkpt>
<trkpt lat="46.1086260" lon="10.4571310">
	<ele>1849.00</ele>
	<time>2024-07-25T08:15:36.000Z</time>
</trkpt>
<trkpt lat="46.1086290" lon="10.4571390">
	<ele>1849.00</ele>
	<time>2024-07-25T08:15:37.000Z</time>
</trkpt>
<trkpt lat="46.1086290" lon="10.4571510">
	<ele>1849.20</ele>
	<time>2024-07-25T08:15:38.000Z</time>
</trkpt>
<trkpt lat="46.1086270" lon="10.4571590">
	<ele>1849.20</ele>
	<time>2024-07-25T08:15:39.000Z</time>
</trkpt>
<trkpt lat="46.1086290" lon="10.4571660">
	<ele>1849.40</ele>
	<time>2024-07-25T08:15:40.000Z</time>
</trkpt>
<trkpt lat="46.1086360" lon="10.4571770">
	<ele>1849.60</ele>
	<time>2024-07-25T08:15:41.000Z</time>
</trkpt>
<trkpt lat="46.1086440" lon="10.4571890">
	<ele>1849.80</ele>
	<time>2024-07-25T08:15:42.000Z</time>
</trkpt>
<trkpt lat="46.1086520" lon="10.4572010">
	<ele>1850.00</ele>
	<time>2024-07-25T08:15:43.000Z</time>
</trkpt>
<trkpt lat="46.1086560" lon="10.4572090">
	<ele>1850.00</ele>
	<time>2024-07-25T08:15:44.000Z</time>
</trkpt>
<trkpt lat="46.1086580" lon="10.4572130">
	<ele>1850.20</ele>
	<time>2024-07-25T08:15:45.000Z</time>
</trkpt>
<trkpt lat="46.1086620" lon="10.4572190">
	<ele>1850.20</ele>
	<time>2024-07-25T08:15:46.000Z</time>
</trkpt>
<trkpt lat="46.1086650" lon="10.4572310">
	<ele>1850.20</ele>
	<time>2024-07-25T08:15:47.000Z</time>
</trkpt>
<trkpt lat="46.1086680" lon="10.4572410">
	<ele>1850.40</ele>
	<time>2024-07-25T08:15:48.000Z</time>
</trkpt>
<trkpt lat="46.1086730" lon="10.4572580">
	<ele>1850.40</ele>
	<time>2024-07-25T08:15:49.000Z</time>
</trkpt>
<trkpt lat="46.1086800" lon="10.4572750">
	<ele>1850.40</ele>
	<time>2024-07-25T08:15:50.000Z</time>
</trkpt>
<trkpt lat="46.1086860" lon="10.4572860">
	<ele>1850.40</ele>
	<time>2024-07-25T08:15:51.000Z</time>
</trkpt>
<trkpt lat="46.1086950" lon="10.4572890">
	<ele>1850.40</ele>
	<time>2024-07-25T08:15:52.000Z</time>
</trkpt>
<trkpt lat="46.1087020" lon="10.4572920">
	<ele>1850.60</ele>
	<time>2024-07-25T08:15:53.000Z</time>
</trkpt>
<trkpt lat="46.1087070" lon="10.4572950">
	<ele>1850.80</ele>
	<time>2024-07-25T08:15:54.000Z</time>
</trkpt>
<trkpt lat="46.1087040" lon="10.4573000">
	<ele>1850.80</ele>
	<time>2024-07-25T08:15:55.000Z</time>
</trkpt>
<trkpt lat="46.1087050" lon="10.4573040">
	<ele>1850.80</ele>
	<time>2024-07-25T08:15:56.000Z</time>
</trkpt>
<trkpt lat="46.1087070" lon="10.4573030">
	<ele>1850.80</ele>
	<time>2024-07-25T08:15:57.000Z</time>
</trkpt>
<trkpt lat="46.1087080" lon="10.4573000">
	<ele>1851.00</ele>
	<time>2024-07-25T08:15:58.000Z</time>
</trkpt>
<trkpt lat="46.1087070" lon="10.4572980">
	<ele>1851.00</ele>
	<time>2024-07-25T08:15:59.000Z</time>
</trkpt>
<trkpt lat="46.1087050" lon="10.4572960">
	<ele>1851.00</ele>
	<time>2024-07-25T08:16:00.000Z</time>
</trkpt>
<trkpt lat="46.1087040" lon="10.4572950">
	<ele>1851.20</ele>
	<time>2024-07-25T08:16:01.000Z</time>
</trkpt>
<trkpt lat="46.1087040" lon="10.4572940">
	<ele>1851.20</ele>
	<time>2024-07-25T08:16:02.000Z</time>
</trkpt>
<trkpt lat="46.1087030" lon="10.4572900">
	<ele>1851.40</ele>
	<time>2024-07-25T08:16:03.000Z</time>
</trkpt>
<trkpt lat="46.1086980" lon="10.4572870">
	<ele>1851.40</ele>
	<time>2024-07-25T08:16:04.000Z</time>
</trkpt>
<trkpt lat="46.1086930" lon="10.4572890">
	<ele>1851.40</ele>
	<time>2024-07-25T08:16:05.000Z</time>
</trkpt>
<trkpt lat="46.1086910" lon="10.4572890">
	<ele>1851.40</ele>
	<time>2024-07-25T08:16:06.000Z</time>
</trkpt>
<trkpt lat="46.1086920" lon="10.4572900">
	<ele>1851.40</ele>
	<time>2024-07-25T08:16:07.000Z</time>
</trkpt>
<trkpt lat="46.1086960" lon="10.4572910">
	<ele>1851.40</ele>
	<time>2024-07-25T08:16:08.000Z</time>
</trkpt>
<trkpt lat="46.1086960" lon="10.4572900">
	<ele>1851.40</ele>
	<time>2024-07-25T08:16:09.000Z</time>
</trkpt>
<trkpt lat="46.1086970" lon="10.4572880">
	<ele>1851.60</ele>
	<time>2024-07-25T08:16:10.000Z</time>
</trkpt>
<trkpt lat="46.1086990" lon="10.4572860">
	<ele>1851.60</ele>
	<time>2024-07-25T08:16:11.000Z</time>
</trkpt>
<trkpt lat="46.1087010" lon="10.4572840">
	<ele>1851.80</ele>
	<time>2024-07-25T08:16:12.000Z</time>
</trkpt>
<trkpt lat="46.1087020" lon="10.4572830">
	<ele>1851.80</ele>
	<time>2024-07-25T08:16:13.000Z</time>
</trkpt>
<trkpt lat="46.1087020" lon="10.4572830">
	<ele>1851.80</ele>
	<time>2024-07-25T08:16:14.000Z</time>
</trkpt>
<trkpt lat="46.1087020" lon="10.4572830">
	<ele>1851.80</ele>
	<time>2024-07-25T08:16:15.000Z</time>
</trkpt>
<trkpt lat="46.1087020" lon="10.4572830">
	<ele>1851.80</ele>
	<time>2024-07-25T08:16:16.000Z</time>
</trkpt>
<trkpt lat="46.1087020" lon="10.4572830">
	<ele>1851.60</ele>
	<time>2024-07-25T08:16:17.000Z</time>
</trkpt>
<trkpt lat="46.1087020" lon="10.4572830">
	<ele>1851.60</ele>
	<time>2024-07-25T08:16:18.000Z</time>
</trkpt>
<trkpt lat="46.1087020" lon="10.4572830">
	<ele>1851.60</ele>
	<time>2024-07-25T08:16:19.000Z</time>
</trkpt>
<trkpt lat="46.1087020" lon="10.4572890">
	<ele>1851.40</ele>
	<time>2024-07-25T08:16:20.000Z</time>
</trkpt>
<trkpt lat="46.1087040" lon="10.4573060">
	<ele>1851.40</ele>
	<time>2024-07-25T08:16:21.000Z</time>
</trkpt>
<trkpt lat="46.1087080" lon="10.4573280">
	<ele>1851.40</ele>
	<time>2024-07-25T08:16:22.000Z</time>
</trkpt>
<trkpt lat="46.1087110" lon="10.4573490">
	<ele>1851.40</ele>
	<time>2024-07-25T08:16:23.000Z</time>
</trkpt>
<trkpt lat="46.1087150" lon="10.4573700">
	<ele>1851.60</ele>
	<time>2024-07-25T08:16:24.000Z</time>
</trkpt>
<trkpt lat="46.1087180" lon="10.4573880">
	<ele>1851.60</ele>
	<time>2024-07-25T08:16:25.000Z</time>
</trkpt>
<trkpt lat="46.1087240" lon="10.4574030">
	<ele>1851.80</ele>
	<time>2024-07-25T08:16:26.000Z</time>
</trkpt>
<trkpt lat="46.1087280" lon="10.4574210">
	<ele>1852.00</ele>
	<time>2024-07-25T08:16:27.000Z</time>
</trkpt>
<trkpt lat="46.1087300" lon="10.4574430">
	<ele>1852.20</ele>
	<time>2024-07-25T08:16:28.000Z</time>
</trkpt>
<trkpt lat="46.1087310" lon="10.4574620">
	<ele>1852.20</ele>
	<time>2024-07-25T08:16:29.000Z</time>
</trkpt>
<trkpt lat="46.1087350" lon="10.4574760">
	<ele>1852.40</ele>
	<time>2024-07-25T08:16:30.000Z</time>
</trkpt>
<trkpt lat="46.1087350" lon="10.4574920">
	<ele>1852.40</ele>
	<time>2024-07-25T08:16:31.000Z</time>
</trkpt>
<trkpt lat="46.1087370" lon="10.4575100">
	<ele>1852.40</ele>
	<time>2024-07-25T08:16:32.000Z</time>
</trkpt>
<trkpt lat="46.1087380" lon="10.4575240">
	<ele>1852.60</ele>
	<time>2024-07-25T08:16:33.000Z</time>
</trkpt>
<trkpt lat="46.1087420" lon="10.4575330">
	<ele>1852.80</ele>
	<time>2024-07-25T08:16:34.000Z</time>
</trkpt>
<trkpt lat="46.1087460" lon="10.4575460">
	<ele>1852.80</ele>
	<time>2024-07-25T08:16:35.000Z</time>
</trkpt>
<trkpt lat="46.1087480" lon="10.4575550">
	<ele>1852.80</ele>
	<time>2024-07-25T08:16:36.000Z</time>
</trkpt>
<trkpt lat="46.1087510" lon="10.4575610">
	<ele>1853.00</ele>
	<time>2024-07-25T08:16:37.000Z</time>
</trkpt>
<trkpt lat="46.1087510" lon="10.4575640">
	<ele>1853.40</ele>
	<time>2024-07-25T08:16:38.000Z</time>
</trkpt>
<trkpt lat="46.1087520" lon="10.4575640">
	<ele>1853.80</ele>
	<time>2024-07-25T08:16:39.000Z</time>
</trkpt>
<trkpt lat="46.1087520" lon="10.4575630">
	<ele>1853.80</ele>
	<time>2024-07-25T08:16:40.000Z</time>
</trkpt>
<trkpt lat="46.1087530" lon="10.4575640">
	<ele>1853.80</ele>
	<time>2024-07-25T08:16:41.000Z</time>
</trkpt>
<trkpt lat="46.1087530" lon="10.4575720">
	<ele>1854.00</ele>
	<time>2024-07-25T08:16:42.000Z</time>
</trkpt>
<trkpt lat="46.1087570" lon="10.4575810">
	<ele>1854.00</ele>
	<time>2024-07-25T08:16:43.000Z</time>
</trkpt>
<trkpt lat="46.1087600" lon="10.4575910">
	<ele>1854.00</ele>
	<time>2024-07-25T08:16:44.000Z</time>
</trkpt>
<trkpt lat="46.1087640" lon="10.4576030">
	<ele>1854.00</ele>
	<time>2024-07-25T08:16:45.000Z</time>
</trkpt>
<trkpt lat="46.1087720" lon="10.4576140">
	<ele>1854.00</ele>
	<time>2024-07-25T08:16:46.000Z</time>
</trkpt>
<trkpt lat="46.1087780" lon="10.4576260">
	<ele>1854.20</ele>
	<time>2024-07-25T08:16:47.000Z</time>
</trkpt>
<trkpt lat="46.1087850" lon="10.4576370">
	<ele>1854.20</ele>
	<time>2024-07-25T08:16:48.000Z</time>
</trkpt>
<trkpt lat="46.1087930" lon="10.4576520">
	<ele>1854.40</ele>
	<time>2024-07-25T08:16:49.000Z</time>
</trkpt>
<trkpt lat="46.1088020" lon="10.4576670">
	<ele>1854.40</ele>
	<time>2024-07-25T08:16:50.000Z</time>
</trkpt>
<trkpt lat="46.1088100" lon="10.4576830">
	<ele>1854.60</ele>
	<time>2024-07-25T08:16:51.000Z</time>
</trkpt>
<trkpt lat="46.1088210" lon="10.4576980">
	<ele>1854.60</ele>
	<time>2024-07-25T08:16:52.000Z</time>
</trkpt>
<trkpt lat="46.1088340" lon="10.4577140">
	<ele>1854.60</ele>
	<time>2024-07-25T08:16:53.000Z</time>
</trkpt>
<trkpt lat="46.1088430" lon="10.4577200">
	<ele>1854.60</ele>
	<time>2024-07-25T08:16:54.000Z</time>
</trkpt>
<trkpt lat="46.1088520" lon="10.4577280">
	<ele>1854.60</ele>
	<time>2024-07-25T08:16:55.000Z</time>
</trkpt>
<trkpt lat="46.1088550" lon="10.4577370">
	<ele>1854.60</ele>
	<time>2024-07-25T08:16:56.000Z</time>
</trkpt>
<trkpt lat="46.1088600" lon="10.4577500">
	<ele>1854.80</ele>
	<time>2024-07-25T08:16:57.000Z</time>
</trkpt>
<trkpt lat="46.1088660" lon="10.4577630">
	<ele>1854.80</ele>
	<time>2024-07-25T08:16:58.000Z</time>
</trkpt>
<trkpt lat="46.1088720" lon="10.4577720">
	<ele>1855.00</ele>
	<time>2024-07-25T08:16:59.000Z</time>
</trkpt>
<trkpt lat="46.1088780" lon="10.4577830">
	<ele>1855.20</ele>
	<time>2024-07-25T08:17:00.000Z</time>
</trkpt>
<trkpt lat="46.1088840" lon="10.4577930">
	<ele>1855.20</ele>
	<time>2024-07-25T08:17:01.000Z</time>
</trkpt>
<trkpt lat="46.1088930" lon="10.4577990">
	<ele>1855.40</ele>
	<time>2024-07-25T08:17:02.000Z</time>
</trkpt>
<trkpt lat="46.1088970" lon="10.4578000">
	<ele>1855.40</ele>
	<time>2024-07-25T08:17:03.000Z</time>
</trkpt>
<trkpt lat="46.1089040" lon="10.4578080">
	<ele>1855.40</ele>
	<time>2024-07-25T08:17:04.000Z</time>
</trkpt>
<trkpt lat="46.1089120" lon="10.4578130">
	<ele>1855.40</ele>
	<time>2024-07-25T08:17:05.000Z</time>
</trkpt>
<trkpt lat="46.1089190" lon="10.4578200">
	<ele>1855.40</ele>
	<time>2024-07-25T08:17:06.000Z</time>
</trkpt>
<trkpt lat="46.1089200" lon="10.4578250">
	<ele>1855.60</ele>
	<time>2024-07-25T08:17:07.000Z</time>
</trkpt>
<trkpt lat="46.1089300" lon="10.4578390">
	<ele>1855.60</ele>
	<time>2024-07-25T08:17:08.000Z</time>
</trkpt>
<trkpt lat="46.1089380" lon="10.4578510">
	<ele>1855.60</ele>
	<time>2024-07-25T08:17:09.000Z</time>
</trkpt>
<trkpt lat="46.1089450" lon="10.4578620">
	<ele>1855.80</ele>
	<time>2024-07-25T08:17:10.000Z</time>
</trkpt>
<trkpt lat="46.1089520" lon="10.4578780">
	<ele>1856.00</ele>
	<time>2024-07-25T08:17:11.000Z</time>
</trkpt>
<trkpt lat="46.1089540" lon="10.4578910">
	<ele>1856.00</ele>
	<time>2024-07-25T08:17:12.000Z</time>
</trkpt>
<trkpt lat="46.1089560" lon="10.4579020">
	<ele>1856.20</ele>
	<time>2024-07-25T08:17:13.000Z</time>
</trkpt>
<trkpt lat="46.1089620" lon="10.4579190">
	<ele>1856.20</ele>
	<time>2024-07-25T08:17:14.000Z</time>
</trkpt>
<trkpt lat="46.1089670" lon="10.4579350">
	<ele>1856.20</ele>
	<time>2024-07-25T08:17:15.000Z</time>
</trkpt>
<trkpt lat="46.1089680" lon="10.4579480">
	<ele>1856.40</ele>
	<time>2024-07-25T08:17:16.000Z</time>
</trkpt>
<trkpt lat="46.1089720" lon="10.4579590">
	<ele>1856.40</ele>
	<time>2024-07-25T08:17:17.000Z</time>
</trkpt>
<trkpt lat="46.1089770" lon="10.4579710">
	<ele>1856.60</ele>
	<time>2024-07-25T08:17:18.000Z</time>
</trkpt>
<trkpt lat="46.1089820" lon="10.4579860">
	<ele>1856.60</ele>
	<time>2024-07-25T08:17:19.000Z</time>
</trkpt>
<trkpt lat="46.1089870" lon="10.4579990">
	<ele>1856.60</ele>
	<time>2024-07-25T08:17:20.000Z</time>
</trkpt>
<trkpt lat="46.1089920" lon="10.4580120">
	<ele>1856.60</ele>
	<time>2024-07-25T08:17:21.000Z</time>
</trkpt>
<trkpt lat="46.1089950" lon="10.4580240">
	<ele>1856.80</ele>
	<time>2024-07-25T08:17:22.000Z</time>
</trkpt>
<trkpt lat="46.1090010" lon="10.4580330">
	<ele>1856.80</ele>
	<time>2024-07-25T08:17:23.000Z</time>
</trkpt>
<trkpt lat="46.1090090" lon="10.4580420">
	<ele>1856.80</ele>
	<time>2024-07-25T08:17:24.000Z</time>
</trkpt>
<trkpt lat="46.1090170" lon="10.4580540">
	<ele>1857.00</ele>
	<time>2024-07-25T08:17:25.000Z</time>
</trkpt>
<trkpt lat="46.1090230" lon="10.4580620">
	<ele>1857.00</ele>
	<time>2024-07-25T08:17:26.000Z</time>
</trkpt>
<trkpt lat="46.1090310" lon="10.4580740">
	<ele>1857.00</ele>
	<time>2024-07-25T08:17:27.000Z</time>
</trkpt>
<trkpt lat="46.1090380" lon="10.4580880">
	<ele>1857.00</ele>
	<time>2024-07-25T08:17:28.000Z</time>
</trkpt>
<trkpt lat="46.1090470" lon="10.4581050">
	<ele>1857.20</ele>
	<time>2024-07-25T08:17:29.000Z</time>
</trkpt>
<trkpt lat="46.1090520" lon="10.4581190">
	<ele>1857.40</ele>
	<time>2024-07-25T08:17:30.000Z</time>
</trkpt>
<trkpt lat="46.1090580" lon="10.4581300">
	<ele>1857.40</ele>
	<time>2024-07-25T08:17:31.000Z</time>
</trkpt>
<trkpt lat="46.1090630" lon="10.4581440">
	<ele>1857.60</ele>
	<time>2024-07-25T08:17:32.000Z</time>
</trkpt>
<trkpt lat="46.1090690" lon="10.4581560">
	<ele>1857.60</ele>
	<time>2024-07-25T08:17:33.000Z</time>
</trkpt>
<trkpt lat="46.1090720" lon="10.4581690">
	<ele>1857.60</ele>
	<time>2024-07-25T08:17:34.000Z</time>
</trkpt>
<trkpt lat="46.1090730" lon="10.4581830">
	<ele>1857.80</ele>
	<time>2024-07-25T08:17:35.000Z</time>
</trkpt>
<trkpt lat="46.1090770" lon="10.4581950">
	<ele>1857.80</ele>
	<time>2024-07-25T08:17:36.000Z</time>
</trkpt>
<trkpt lat="46.1090810" lon="10.4582110">
	<ele>1858.00</ele>
	<time>2024-07-25T08:17:37.000Z</time>
</trkpt>
<trkpt lat="46.1090880" lon="10.4582270">
	<ele>1858.20</ele>
	<time>2024-07-25T08:17:38.000Z</time>
</trkpt>
<trkpt lat="46.1090940" lon="10.4582370">
	<ele>1858.20</ele>
	<time>2024-07-25T08:17:39.000Z</time>
</trkpt>
<trkpt lat="46.1091020" lon="10.4582530">
	<ele>1858.40</ele>
	<time>2024-07-25T08:17:40.000Z</time>
</trkpt>
<trkpt lat="46.1091080" lon="10.4582670">
	<ele>1858.40</ele>
	<time>2024-07-25T08:17:41.000Z</time>
</trkpt>
<trkpt lat="46.1091120" lon="10.4582760">
	<ele>1858.60</ele>
	<time>2024-07-25T08:17:42.000Z</time>
</trkpt>
<trkpt lat="46.1091180" lon="10.4582910">
	<ele>1858.60</ele>
	<time>2024-07-25T08:17:43.000Z</time>
</trkpt>
<trkpt lat="46.1091240" lon="10.4583060">
	<ele>1858.80</ele>
	<time>2024-07-25T08:17:44.000Z</time>
</trkpt>
<trkpt lat="46.1091290" lon="10.4583160">
	<ele>1858.80</ele>
	<time>2024-07-25T08:17:45.000Z</time>
</trkpt>
<trkpt lat="46.1091360" lon="10.4583340">
	<ele>1858.80</ele>
	<time>2024-07-25T08:17:46.000Z</time>
</trkpt>
<trkpt lat="46.1091430" lon="10.4583470">
	<ele>1859.00</ele>
	<time>2024-07-25T08:17:47.000Z</time>
</trkpt>
<trkpt lat="46.1091480" lon="10.4583580">
	<ele>1859.20</ele>
	<time>2024-07-25T08:17:48.000Z</time>
</trkpt>
<trkpt lat="46.1091550" lon="10.4583700">
	<ele>1859.20</ele>
	<time>2024-07-25T08:17:49.000Z</time>
</trkpt>
<trkpt lat="46.1091620" lon="10.4583830">
	<ele>1859.20</ele>
	<time>2024-07-25T08:17:50.000Z</time>
</trkpt>
<trkpt lat="46.1091690" lon="10.4583960">
	<ele>1859.20</ele>
	<time>2024-07-25T08:17:51.000Z</time>
</trkpt>
<trkpt lat="46.1091760" lon="10.4584090">
	<ele>1859.40</ele>
	<time>2024-07-25T08:17:52.000Z</time>
</trkpt>
<trkpt lat="46.1091840" lon="10.4584220">
	<ele>1859.60</ele>
	<time>2024-07-25T08:17:53.000Z</time>
</trkpt>
<trkpt lat="46.1091910" lon="10.4584340">
	<ele>1859.60</ele>
	<time>2024-07-25T08:17:54.000Z</time>
</trkpt>
<trkpt lat="46.1091960" lon="10.4584430">
	<ele>1859.80</ele>
	<time>2024-07-25T08:17:55.000Z</time>
</trkpt>
<trkpt lat="46.1092020" lon="10.4584520">
	<ele>1859.80</ele>
	<time>2024-07-25T08:17:56.000Z</time>
</trkpt>
<trkpt lat="46.1092080" lon="10.4584680">
	<ele>1859.80</ele>
	<time>2024-07-25T08:17:57.000Z</time>
</trkpt>
<trkpt lat="46.1092150" lon="10.4584850">
	<ele>1859.80</ele>
	<time>2024-07-25T08:17:58.000Z</time>
</trkpt>
<trkpt lat="46.1092220" lon="10.4585010">
	<ele>1860.00</ele>
	<time>2024-07-25T08:17:59.000Z</time>
</trkpt>
<trkpt lat="46.1092290" lon="10.4585140">
	<ele>1860.00</ele>
	<time>2024-07-25T08:18:00.000Z</time>
</trkpt>
<trkpt lat="46.1092320" lon="10.4585300">
	<ele>1860.20</ele>
	<time>2024-07-25T08:18:01.000Z</time>
</trkpt>
<trkpt lat="46.1092360" lon="10.4585440">
	<ele>1860.40</ele>
	<time>2024-07-25T08:18:02.000Z</time>
</trkpt>
<trkpt lat="46.1092430" lon="10.4585570">
	<ele>1860.60</ele>
	<time>2024-07-25T08:18:03.000Z</time>
</trkpt>
<trkpt lat="46.1092480" lon="10.4585700">
	<ele>1860.60</ele>
	<time>2024-07-25T08:18:04.000Z</time>
</trkpt>
<trkpt lat="46.1092560" lon="10.4585830">
	<ele>1860.60</ele>
	<time>2024-07-25T08:18:05.000Z</time>
</trkpt>
<trkpt lat="46.1092630" lon="10.4585950">
	<ele>1860.60</ele>
	<time>2024-07-25T08:18:06.000Z</time>
</trkpt>
<trkpt lat="46.1092700" lon="10.4586100">
	<ele>1860.60</ele>
	<time>2024-07-25T08:18:07.000Z</time>
</trkpt>
<trkpt lat="46.1092750" lon="10.4586240">
	<ele>1860.80</ele>
	<time>2024-07-25T08:18:08.000Z</time>
</trkpt>
<trkpt lat="46.1092800" lon="10.4586380">
	<ele>1860.80</ele>
	<time>2024-07-25T08:18:09.000Z</time>
</trkpt>
<trkpt lat="46.1092850" lon="10.4586540">
	<ele>1860.80</ele>
	<time>2024-07-25T08:18:10.000Z</time>
</trkpt>
<trkpt lat="46.1092900" lon="10.4586700">
	<ele>1861.00</ele>
	<time>2024-07-25T08:18:11.000Z</time>
</trkpt>
<trkpt lat="46.1092940" lon="10.4586890">
	<ele>1861.00</ele>
	<time>2024-07-25T08:18:12.000Z</time>
</trkpt>
<trkpt lat="46.1093000" lon="10.4587060">
	<ele>1861.20</ele>
	<time>2024-07-25T08:18:13.000Z</time>
</trkpt>
<trkpt lat="46.1093050" lon="10.4587220">
	<ele>1861.40</ele>
	<time>2024-07-25T08:18:14.000Z</time>
</trkpt>
<trkpt lat="46.1093080" lon="10.4587380">
	<ele>1861.40</ele>
	<time>2024-07-25T08:18:15.000Z</time>
</trkpt>
<trkpt lat="46.1093120" lon="10.4587560">
	<ele>1861.60</ele>
	<time>2024-07-25T08:18:16.000Z</time>
</trkpt>
<trkpt lat="46.1093160" lon="10.4587740">
	<ele>1861.80</ele>
	<time>2024-07-25T08:18:17.000Z</time>
</trkpt>
<trkpt lat="46.1093200" lon="10.4587890">
	<ele>1862.00</ele>
	<time>2024-07-25T08:18:18.000Z</time>
</trkpt>
<trkpt lat="46.1093250" lon="10.4588030">
	<ele>1862.20</ele>
	<time>2024-07-25T08:18:19.000Z</time>
</trkpt>
<trkpt lat="46.1093290" lon="10.4588180">
	<ele>1862.20</ele>
	<time>2024-07-25T08:18:20.000Z</time>
</trkpt>
<trkpt lat="46.1093300" lon="10.4588320">
	<ele>1862.20</ele>
	<time>2024-07-25T08:18:21.000Z</time>
</trkpt>
<trkpt lat="46.1093300" lon="10.4588470">
	<ele>1862.40</ele>
	<time>2024-07-25T08:18:22.000Z</time>
</trkpt>
<trkpt lat="46.1093310" lon="10.4588640">
	<ele>1862.40</ele>
	<time>2024-07-25T08:18:23.000Z</time>
</trkpt>
<trkpt lat="46.1093330" lon="10.4588810">
	<ele>1862.40</ele>
	<time>2024-07-25T08:18:24.000Z</time>
</trkpt>
<trkpt lat="46.1093350" lon="10.4588970">
	<ele>1862.40</ele>
	<time>2024-07-25T08:18:25.000Z</time>
</trkpt>
<trkpt lat="46.1093350" lon="10.4589130">
	<ele>1862.60</ele>
	<time>2024-07-25T08:18:26.000Z</time>
</trkpt>
<trkpt lat="46.1093360" lon="10.4589310">
	<ele>1862.60</ele>
	<time>2024-07-25T08:18:27.000Z</time>
</trkpt>
<trkpt lat="46.1093370" lon="10.4589500">
	<ele>1862.80</ele>
	<time>2024-07-25T08:18:28.000Z</time>
</trkpt>
<trkpt lat="46.1093410" lon="10.4589660">
	<ele>1862.80</ele>
	<time>2024-07-25T08:18:29.000Z</time>
</trkpt>
<trkpt lat="46.1093470" lon="10.4589800">
	<ele>1863.00</ele>
	<time>2024-07-25T08:18:30.000Z</time>
</trkpt>
<trkpt lat="46.1093530" lon="10.4589930">
	<ele>1863.00</ele>
	<time>2024-07-25T08:18:31.000Z</time>
</trkpt>
<trkpt lat="46.1093570" lon="10.4590090">
	<ele>1863.20</ele>
	<time>2024-07-25T08:18:32.000Z</time>
</trkpt>
<trkpt lat="46.1093620" lon="10.4590250">
	<ele>1863.20</ele>
	<time>2024-07-25T08:18:33.000Z</time>
</trkpt>
<trkpt lat="46.1093660" lon="10.4590410">
	<ele>1863.40</ele>
	<time>2024-07-25T08:18:34.000Z</time>
</trkpt>
<trkpt lat="46.1093700" lon="10.4590550">
	<ele>1863.40</ele>
	<time>2024-07-25T08:18:35.000Z</time>
</trkpt>
<trkpt lat="46.1093790" lon="10.4590740">
	<ele>1863.40</ele>
	<time>2024-07-25T08:18:36.000Z</time>
</trkpt>
<trkpt lat="46.1093860" lon="10.4590890">
	<ele>1863.40</ele>
	<time>2024-07-25T08:18:37.000Z</time>
</trkpt>
<trkpt lat="46.1093930" lon="10.4591020">
	<ele>1863.60</ele>
	<time>2024-07-25T08:18:38.000Z</time>
</trkpt>
<trkpt lat="46.1093990" lon="10.4591110">
	<ele>1863.80</ele>
	<time>2024-07-25T08:18:39.000Z</time>
</trkpt>
<trkpt lat="46.1094080" lon="10.4591260">
	<ele>1863.80</ele>
	<time>2024-07-25T08:18:40.000Z</time>
</trkpt>
<trkpt lat="46.1094150" lon="10.4591400">
	<ele>1863.80</ele>
	<time>2024-07-25T08:18:41.000Z</time>
</trkpt>
<trkpt lat="46.1094220" lon="10.4591520">
	<ele>1863.80</ele>
	<time>2024-07-25T08:18:42.000Z</time>
</trkpt>
<trkpt lat="46.1094300" lon="10.4591650">
	<ele>1864.00</ele>
	<time>2024-07-25T08:18:43.000Z</time>
</trkpt>
<trkpt lat="46.1094390" lon="10.4591780">
	<ele>1864.00</ele>
	<time>2024-07-25T08:18:44.000Z</time>
</trkpt>
<trkpt lat="46.1094450" lon="10.4591940">
	<ele>1864.00</ele>
	<time>2024-07-25T08:18:45.000Z</time>
</trkpt>
<trkpt lat="46.1094520" lon="10.4592120">
	<ele>1864.00</ele>
	<time>2024-07-25T08:18:46.000Z</time>
</trkpt>
<trkpt lat="46.1094600" lon="10.4592270">
	<ele>1864.00</ele>
	<time>2024-07-25T08:18:47.000Z</time>
</trkpt>
<trkpt lat="46.1094680" lon="10.4592410">
	<ele>1864.20</ele>
	<time>2024-07-25T08:18:48.000Z</time>
</trkpt>
<trkpt lat="46.1094750" lon="10.4592530">
	<ele>1864.20</ele>
	<time>2024-07-25T08:18:49.000Z</time>
</trkpt>
<trkpt lat="46.1094850" lon="10.4592630">
	<ele>1864.20</ele>
	<time>2024-07-25T08:18:50.000Z</time>
</trkpt>
<trkpt lat="46.1094920" lon="10.4592730">
	<ele>1864.20</ele>
	<time>2024-07-25T08:18:51.000Z</time>
</trkpt>
<trkpt lat="46.1094990" lon="10.4592880">
	<ele>1864.40</ele>
	<time>2024-07-25T08:18:52.000Z</time>
</trkpt>
<trkpt lat="46.1095050" lon="10.4593030">
	<ele>1864.40</ele>
	<time>2024-07-25T08:18:53.000Z</time>
</trkpt>
<trkpt lat="46.1095100" lon="10.4593220">
	<ele>1864.40</ele>
	<time>2024-07-25T08:18:54.000Z</time>
</trkpt>
<trkpt lat="46.1095110" lon="10.4593350">
	<ele>1864.60</ele>
	<time>2024-07-25T08:18:55.000Z</time>
</trkpt>
<trkpt lat="46.1095150" lon="10.4593550">
	<ele>1864.60</ele>
	<time>2024-07-25T08:18:56.000Z</time>
</trkpt>
<trkpt lat="46.1095180" lon="10.4593710">
	<ele>1864.60</ele>
	<time>2024-07-25T08:18:57.000Z</time>
</trkpt>
<trkpt lat="46.1095210" lon="10.4593880">
	<ele>1864.80</ele>
	<time>2024-07-25T08:18:58.000Z</time>
</trkpt>
<trkpt lat="46.1095240" lon="10.4594020">
	<ele>1865.00</ele>
	<time>2024-07-25T08:18:59.000Z</time>
</trkpt>
<trkpt lat="46.1095270" lon="10.4594180">
	<ele>1865.00</ele>
	<time>2024-07-25T08:19:00.000Z</time>
</trkpt>
<trkpt lat="46.1095330" lon="10.4594300">
	<ele>1865.00</ele>
	<time>2024-07-25T08:19:01.000Z</time>
</trkpt>
<trkpt lat="46.1095400" lon="10.4594460">
	<ele>1865.00</ele>
	<time>2024-07-25T08:19:02.000Z</time>
</trkpt>
<trkpt lat="46.1095440" lon="10.4594620">
	<ele>1865.00</ele>
	<time>2024-07-25T08:19:03.000Z</time>
</trkpt>
<trkpt lat="46.1095470" lon="10.4594780">
	<ele>1865.20</ele>
	<time>2024-07-25T08:19:04.000Z</time>
</trkpt>
<trkpt lat="46.1095460" lon="10.4595000">
	<ele>1865.40</ele>
	<time>2024-07-25T08:19:05.000Z</time>
</trkpt>
<trkpt lat="46.1095440" lon="10.4595150">
	<ele>1865.60</ele>
	<time>2024-07-25T08:19:06.000Z</time>
</trkpt>
<trkpt lat="46.1095440" lon="10.4595350">
	<ele>1865.60</ele>
	<time>2024-07-25T08:19:07.000Z</time>
</trkpt>
<trkpt lat="46.1095470" lon="10.4595480">
	<ele>1865.60</ele>
	<time>2024-07-25T08:19:08.000Z</time>
</trkpt>
<trkpt lat="46.1095490" lon="10.4595640">
	<ele>1865.60</ele>
	<time>2024-07-25T08:19:09.000Z</time>
</trkpt>
<trkpt lat="46.1095510" lon="10.4595850">
	<ele>1865.80</ele>
	<time>2024-07-25T08:19:10.000Z</time>
</trkpt>
<trkpt lat="46.1095530" lon="10.4596040">
	<ele>1865.80</ele>
	<time>2024-07-25T08:19:11.000Z</time>
</trkpt>
<trkpt lat="46.1095530" lon="10.4596200">
	<ele>1865.80</ele>
	<time>2024-07-25T08:19:12.000Z</time>
</trkpt>
<trkpt lat="46.1095530" lon="10.4596390">
	<ele>1866.00</ele>
	<time>2024-07-25T08:19:13.000Z</time>
</trkpt>
<trkpt lat="46.1095530" lon="10.4596610">
	<ele>1866.00</ele>
	<time>2024-07-25T08:19:14.000Z</time>
</trkpt>
<trkpt lat="46.1095530" lon="10.4596790">
	<ele>1866.00</ele>
	<time>2024-07-25T08:19:15.000Z</time>
</trkpt>
<trkpt lat="46.1095520" lon="10.4596920">
	<ele>1866.00</ele>
	<time>2024-07-25T08:19:16.000Z</time>
</trkpt>
<trkpt lat="46.1095490" lon="10.4597100">
	<ele>1866.00</ele>
	<time>2024-07-25T08:19:17.000Z</time>
</trkpt>
<trkpt lat="46.1095460" lon="10.4597290">
	<ele>1866.00</ele>
	<time>2024-07-25T08:19:18.000Z</time>
</trkpt>
<trkpt lat="46.1095480" lon="10.4597470">
	<ele>1866.00</ele>
	<time>2024-07-25T08:19:19.000Z</time>
</trkpt>
<trkpt lat="46.1095440" lon="10.4597630">
	<ele>1866.00</ele>
	<time>2024-07-25T08:19:20.000Z</time>
</trkpt>
<trkpt lat="46.1095370" lon="10.4597800">
	<ele>1866.40</ele>
	<time>2024-07-25T08:19:21.000Z</time>
</trkpt>
<trkpt lat="46.1095350" lon="10.4597910">
	<ele>1866.40</ele>
	<time>2024-07-25T08:19:22.000Z</time>
</trkpt>
<trkpt lat="46.1095370" lon="10.4598080">
	<ele>1866.60</ele>
	<time>2024-07-25T08:19:23.000Z</time>
</trkpt>
<trkpt lat="46.1095390" lon="10.4598280">
	<ele>1866.60</ele>
	<time>2024-07-25T08:19:24.000Z</time>
</trkpt>
<trkpt lat="46.1095420" lon="10.4598420">
	<ele>1866.60</ele>
	<time>2024-07-25T08:19:25.000Z</time>
</trkpt>
<trkpt lat="46.1095460" lon="10.4598630">
	<ele>1866.60</ele>
	<time>2024-07-25T08:19:26.000Z</time>
</trkpt>
<trkpt lat="46.1095490" lon="10.4598840">
	<ele>1866.60</ele>
	<time>2024-07-25T08:19:27.000Z</time>
</trkpt>
<trkpt lat="46.1095520" lon="10.4599040">
	<ele>1866.60</ele>
	<time>2024-07-25T08:19:28.000Z</time>
</trkpt>
<trkpt lat="46.1095550" lon="10.4599230">
	<ele>1866.60</ele>
	<time>2024-07-25T08:19:29.000Z</time>
</trkpt>
<trkpt lat="46.1095590" lon="10.4599430">
	<ele>1866.60</ele>
	<time>2024-07-25T08:19:30.000Z</time>
</trkpt>
<trkpt lat="46.1095610" lon="10.4599610">
	<ele>1866.80</ele>
	<time>2024-07-25T08:19:31.000Z</time>
</trkpt>
<trkpt lat="46.1095630" lon="10.4599780">
	<ele>1866.80</ele>
	<time>2024-07-25T08:19:32.000Z</time>
</trkpt>
<trkpt lat="46.1095650" lon="10.4599930">
	<ele>1866.80</ele>
	<time>2024-07-25T08:19:33.000Z</time>
</trkpt>
<trkpt lat="46.1095700" lon="10.4600070">
	<ele>1866.80</ele>
	<time>2024-07-25T08:19:34.000Z</time>
</trkpt>
<trkpt lat="46.1095760" lon="10.4600230">
	<ele>1866.80</ele>
	<time>2024-07-25T08:19:35.000Z</time>
</trkpt>
<trkpt lat="46.1095820" lon="10.4600390">
	<ele>1867.00</ele>
	<time>2024-07-25T08:19:36.000Z</time>
</trkpt>
<trkpt lat="46.1095880" lon="10.4600570">
	<ele>1867.00</ele>
	<time>2024-07-25T08:19:37.000Z</time>
</trkpt>
<trkpt lat="46.1095940" lon="10.4600750">
	<ele>1867.00</ele>
	<time>2024-07-25T08:19:38.000Z</time>
</trkpt>
<trkpt lat="46.1096010" lon="10.4600920">
	<ele>1867.20</ele>
	<time>2024-07-25T08:19:39.000Z</time>
</trkpt>
<trkpt lat="46.1096090" lon="10.4601100">
	<ele>1867.20</ele>
	<time>2024-07-25T08:19:40.000Z</time>
</trkpt>
<trkpt lat="46.1096170" lon="10.4601260">
	<ele>1867.20</ele>
	<time>2024-07-25T08:19:41.000Z</time>
</trkpt>
<trkpt lat="46.1096230" lon="10.4601400">
	<ele>1867.40</ele>
	<time>2024-07-25T08:19:42.000Z</time>
</trkpt>
<trkpt lat="46.1096300" lon="10.4601510">
	<ele>1867.40</ele>
	<time>2024-07-25T08:19:43.000Z</time>
</trkpt>
<trkpt lat="46.1096390" lon="10.4601620">
	<ele>1867.40</ele>
	<time>2024-07-25T08:19:44.000Z</time>
</trkpt>
<trkpt lat="46.1096480" lon="10.4601710">
	<ele>1867.60</ele>
	<time>2024-07-25T08:19:45.000Z</time>
</trkpt>
<trkpt lat="46.1096570" lon="10.4601820">
	<ele>1867.60</ele>
	<time>2024-07-25T08:19:46.000Z</time>
</trkpt>
<trkpt lat="46.1096720" lon="10.4601950">
	<ele>1867.80</ele>
	<time>2024-07-25T08:19:47.000Z</time>
</trkpt>
<trkpt lat="46.1096820" lon="10.4602010">
	<ele>1867.80</ele>
	<time>2024-07-25T08:19:48.000Z</time>
</trkpt>
<trkpt lat="46.1096920" lon="10.4602080">
	<ele>1867.80</ele>
	<time>2024-07-25T08:19:49.000Z</time>
</trkpt>
<trkpt lat="46.1097030" lon="10.4602160">
	<ele>1867.80</ele>
	<time>2024-07-25T08:19:50.000Z</time>
</trkpt>
<trkpt lat="46.1097150" lon="10.4602260">
	<ele>1867.80</ele>
	<time>2024-07-25T08:19:51.000Z</time>
</trkpt>
<trkpt lat="46.1097240" lon="10.4602350">
	<ele>1867.80</ele>
	<time>2024-07-25T08:19:52.000Z</time>
</trkpt>
<trkpt lat="46.1097310" lon="10.4602430">
	<ele>1867.80</ele>
	<time>2024-07-25T08:19:53.000Z</time>
</trkpt>
<trkpt lat="46.1097390" lon="10.4602530">
	<ele>1867.80</ele>
	<time>2024-07-25T08:19:54.000Z</time>
</trkpt>
<trkpt lat="46.1097470" lon="10.4602640">
	<ele>1867.80</ele>
	<time>2024-07-25T08:19:55.000Z</time>
</trkpt>
<trkpt lat="46.1097590" lon="10.4602730">
	<ele>1867.60</ele>
	<time>2024-07-25T08:19:56.000Z</time>
</trkpt>
<trkpt lat="46.1097730" lon="10.4602810">
	<ele>1867.60</ele>
	<time>2024-07-25T08:19:57.000Z</time>
</trkpt>
<trkpt lat="46.1097820" lon="10.4602890">
	<ele>1867.60</ele>
	<time>2024-07-25T08:19:58.000Z</time>
</trkpt>
<trkpt lat="46.1097910" lon="10.4603010">
	<ele>1867.60</ele>
	<time>2024-07-25T08:19:59.000Z</time>
</trkpt>
<trkpt lat="46.1098030" lon="10.4603130">
	<ele>1867.60</ele>
	<time>2024-07-25T08:20:00.000Z</time>
</trkpt>
<trkpt lat="46.1098110" lon="10.4603310">
	<ele>1867.80</ele>
	<time>2024-07-25T08:20:01.000Z</time>
</trkpt>
<trkpt lat="46.1098180" lon="10.4603420">
	<ele>1867.80</ele>
	<time>2024-07-25T08:20:02.000Z</time>
</trkpt>
<trkpt lat="46.1098280" lon="10.4603570">
	<ele>1867.80</ele>
	<time>2024-07-25T08:20:03.000Z</time>
</trkpt>
<trkpt lat="46.1098380" lon="10.4603640">
	<ele>1868.00</ele>
	<time>2024-07-25T08:20:04.000Z</time>
</trkpt>
<trkpt lat="46.1098470" lon="10.4603750">
	<ele>1868.00</ele>
	<time>2024-07-25T08:20:05.000Z</time>
</trkpt>
<trkpt lat="46.1098570" lon="10.4603840">
	<ele>1868.00</ele>
	<time>2024-07-25T08:20:06.000Z</time>
</trkpt>
<trkpt lat="46.1098690" lon="10.4603880">
	<ele>1868.00</ele>
	<time>2024-07-25T08:20:07.000Z</time>
</trkpt>
<trkpt lat="46.1098810" lon="10.4603870">
	<ele>1868.00</ele>
	<time>2024-07-25T08:20:08.000Z</time>
</trkpt>
<trkpt lat="46.1098960" lon="10.4603880">
	<ele>1868.00</ele>
	<time>2024-07-25T08:20:09.000Z</time>
</trkpt>
<trkpt lat="46.1099080" lon="10.4603910">
	<ele>1868.00</ele>
	<time>2024-07-25T08:20:10.000Z</time>
</trkpt>
<trkpt lat="46.1099180" lon="10.4604010">
	<ele>1868.00</ele>
	<time>2024-07-25T08:20:11.000Z</time>
</trkpt>
<trkpt lat="46.1099240" lon="10.4604110">
	<ele>1868.00</ele>
	<time>2024-07-25T08:20:12.000Z</time>
</trkpt>
<trkpt lat="46.1099330" lon="10.4604220">
	<ele>1868.20</ele>
	<time>2024-07-25T08:20:13.000Z</time>
</trkpt>
<trkpt lat="46.1099410" lon="10.4604320">
	<ele>1868.20</ele>
	<time>2024-07-25T08:20:14.000Z</time>
</trkpt>
<trkpt lat="46.1099480" lon="10.4604510">
	<ele>1868.20</ele>
	<time>2024-07-25T08:20:15.000Z</time>
</trkpt>
<trkpt lat="46.1099580" lon="10.4604630">
	<ele>1868.20</ele>
	<time>2024-07-25T08:20:16.000Z</time>
</trkpt>
<trkpt lat="46.1099690" lon="10.4604700">
	<ele>1868.20</ele>
	<time>2024-07-25T08:20:17.000Z</time>
</trkpt>
<trkpt lat="46.1099830" lon="10.4604810">
	<ele>1868.20</ele>
	<time>2024-07-25T08:20:18.000Z</time>
</trkpt>
<trkpt lat="46.1099950" lon="10.4604920">
	<ele>1868.20</ele>
	<time>2024-07-25T08:20:19.000Z</time>
</trkpt>
<trkpt lat="46.1100030" lon="10.4605020">
	<ele>1868.20</ele>
	<time>2024-07-25T08:20:20.000Z</time>
</trkpt>
<trkpt lat="46.1100070" lon="10.4605130">
	<ele>1868.20</ele>
	<time>2024-07-25T08:20:21.000Z</time>
</trkpt>
<trkpt lat="46.1100180" lon="10.4605240">
	<ele>1868.20</ele>
	<time>2024-07-25T08:20:22.000Z</time>
</trkpt>
<trkpt lat="46.1100350" lon="10.4605140">
	<ele>1868.20</ele>
	<time>2024-07-25T08:20:23.000Z</time>
</trkpt>
<trkpt lat="46.1100510" lon="10.4605110">
	<ele>1868.20</ele>
	<time>2024-07-25T08:20:24.000Z</time>
</trkpt>
<trkpt lat="46.1100660" lon="10.4605120">
	<ele>1868.20</ele>
	<time>2024-07-25T08:20:25.000Z</time>
</trkpt>
<trkpt lat="46.1100800" lon="10.4605140">
	<ele>1868.20</ele>
	<time>2024-07-25T08:20:26.000Z</time>
</trkpt>
<trkpt lat="46.1100910" lon="10.4605190">
	<ele>1868.20</ele>
	<time>2024-07-25T08:20:27.000Z</time>
</trkpt>
<trkpt lat="46.1101020" lon="10.4605270">
	<ele>1868.40</ele>
	<time>2024-07-25T08:20:28.000Z</time>
</trkpt>
<trkpt lat="46.1101100" lon="10.4605370">
	<ele>1868.40</ele>
	<time>2024-07-25T08:20:29.000Z</time>
</trkpt>
<trkpt lat="46.1101170" lon="10.4605460">
	<ele>1868.40</ele>
	<time>2024-07-25T08:20:30.000Z</time>
</trkpt>
<trkpt lat="46.1101270" lon="10.4605550">
	<ele>1868.40</ele>
	<time>2024-07-25T08:20:31.000Z</time>
</trkpt>
<trkpt lat="46.1101390" lon="10.4605690">
	<ele>1868.40</ele>
	<time>2024-07-25T08:20:32.000Z</time>
</trkpt>
<trkpt lat="46.1101450" lon="10.4605800">
	<ele>1868.40</ele>
	<time>2024-07-25T08:20:33.000Z</time>
</trkpt>
<trkpt lat="46.1101550" lon="10.4605890">
	<ele>1868.40</ele>
	<time>2024-07-25T08:20:34.000Z</time>
</trkpt>
<trkpt lat="46.1101650" lon="10.4605990">
	<ele>1868.40</ele>
	<time>2024-07-25T08:20:35.000Z</time>
</trkpt>
<trkpt lat="46.1101700" lon="10.4606060">
	<ele>1868.40</ele>
	<time>2024-07-25T08:20:36.000Z</time>
</trkpt>
<trkpt lat="46.1101720" lon="10.4606100">
	<ele>1868.60</ele>
	<time>2024-07-25T08:20:37.000Z</time>
</trkpt>
<trkpt lat="46.1101730" lon="10.4606130">
	<ele>1868.80</ele>
	<time>2024-07-25T08:20:38.000Z</time>
</trkpt>
<trkpt lat="46.1101740" lon="10.4606130">
	<ele>1869.00</ele>
	<time>2024-07-25T08:20:39.000Z</time>
</trkpt>
<trkpt lat="46.1101750" lon="10.4606130">
	<ele>1869.00</ele>
	<time>2024-07-25T08:20:40.000Z</time>
</trkpt>
<trkpt lat="46.1101750" lon="10.4606190">
	<ele>1869.20</ele>
	<time>2024-07-25T08:20:41.000Z</time>
</trkpt>
<trkpt lat="46.1101790" lon="10.4606370">
	<ele>1869.20</ele>
	<time>2024-07-25T08:20:42.000Z</time>
</trkpt>
<trkpt lat="46.1101860" lon="10.4606560">
	<ele>1869.00</ele>
	<time>2024-07-25T08:20:43.000Z</time>
</trkpt>
<trkpt lat="46.1101940" lon="10.4606730">
	<ele>1868.80</ele>
	<time>2024-07-25T08:20:44.000Z</time>
</trkpt>
<trkpt lat="46.1101990" lon="10.4606950">
	<ele>1868.60</ele>
	<time>2024-07-25T08:20:45.000Z</time>
</trkpt>
<trkpt lat="46.1102060" lon="10.4607130">
	<ele>1868.60</ele>
	<time>2024-07-25T08:20:46.000Z</time>
</trkpt>
<trkpt lat="46.1102140" lon="10.4607280">
	<ele>1868.40</ele>
	<time>2024-07-25T08:20:47.000Z</time>
</trkpt>
<trkpt lat="46.1102250" lon="10.4607380">
	<ele>1868.40</ele>
	<time>2024-07-25T08:20:48.000Z</time>
</trkpt>
<trkpt lat="46.1102350" lon="10.4607480">
	<ele>1868.40</ele>
	<time>2024-07-25T08:20:49.000Z</time>
</trkpt>
<trkpt lat="46.1102450" lon="10.4607600">
	<ele>1868.60</ele>
	<time>2024-07-25T08:20:50.000Z</time>
</trkpt>
<trkpt lat="46.1102540" lon="10.4607680">
	<ele>1868.60</ele>
	<time>2024-07-25T08:20:51.000Z</time>
</trkpt>
<trkpt lat="46.1102580" lon="10.4607790">
	<ele>1868.60</ele>
	<time>2024-07-25T08:20:52.000Z</time>
</trkpt>
<trkpt lat="46.1102660" lon="10.4607920">
	<ele>1868.60</ele>
	<time>2024-07-25T08:20:53.000Z</time>
</trkpt>
<trkpt lat="46.1102750" lon="10.4608060">
	<ele>1868.80</ele>
	<time>2024-07-25T08:20:54.000Z</time>
</trkpt>
<trkpt lat="46.1102830" lon="10.4608250">
	<ele>1868.80</ele>
	<time>2024-07-25T08:20:55.000Z</time>
</trkpt>
<trkpt lat="46.1102890" lon="10.4608440">
	<ele>1868.80</ele>
	<time>2024-07-25T08:20:56.000Z</time>
</trkpt>
<trkpt lat="46.1102950" lon="10.4608610">
	<ele>1868.80</ele>
	<time>2024-07-25T08:20:57.000Z</time>
</trkpt>
<trkpt lat="46.1103020" lon="10.4608750">
	<ele>1868.80</ele>
	<time>2024-07-25T08:20:58.000Z</time>
</trkpt>
<trkpt lat="46.1103100" lon="10.4608860">
	<ele>1868.80</ele>
	<time>2024-07-25T08:20:59.000Z</time>
</trkpt>
<trkpt lat="46.1103200" lon="10.4608940">
	<ele>1868.80</ele>
	<time>2024-07-25T08:21:00.000Z</time>
</trkpt>
<trkpt lat="46.1103310" lon="10.4609010">
	<ele>1869.00</ele>
	<time>2024-07-25T08:21:01.000Z</time>
</trkpt>
<trkpt lat="46.1103420" lon="10.4609050">
	<ele>1869.00</ele>
	<time>2024-07-25T08:21:02.000Z</time>
</trkpt>
<trkpt lat="46.1103520" lon="10.4609110">
	<ele>1869.20</ele>
	<time>2024-07-25T08:21:03.000Z</time>
</trkpt>
<trkpt lat="46.1103650" lon="10.4609150">
	<ele>1869.20</ele>
	<time>2024-07-25T08:21:04.000Z</time>
</trkpt>
<trkpt lat="46.1103780" lon="10.4609190">
	<ele>1869.40</ele>
	<time>2024-07-25T08:21:05.000Z</time>
</trkpt>
<trkpt lat="46.1103900" lon="10.4609240">
	<ele>1869.60</ele>
	<time>2024-07-25T08:21:06.000Z</time>
</trkpt>
<trkpt lat="46.1103980" lon="10.4609280">
	<ele>1869.80</ele>
	<time>2024-07-25T08:21:07.000Z</time>
</trkpt>
<trkpt lat="46.1104110" lon="10.4609310">
	<ele>1870.00</ele>
	<time>2024-07-25T08:21:08.000Z</time>
</trkpt>
<trkpt lat="46.1104210" lon="10.4609320">
	<ele>1870.20</ele>
	<time>2024-07-25T08:21:09.000Z</time>
</trkpt>
<trkpt lat="46.1104320" lon="10.4609290">
	<ele>1870.40</ele>
	<time>2024-07-25T08:21:10.000Z</time>
</trkpt>
<trkpt lat="46.1104420" lon="10.4609260">
	<ele>1870.40</ele>
	<time>2024-07-25T08:21:11.000Z</time>
</trkpt>
<trkpt lat="46.1104520" lon="10.4609280">
	<ele>1870.60</ele>
	<time>2024-07-25T08:21:12.000Z</time>
</trkpt>
<trkpt lat="46.1104650" lon="10.4609310">
	<ele>1870.60</ele>
	<time>2024-07-25T08:21:13.000Z</time>
</trkpt>
<trkpt lat="46.1104740" lon="10.4609370">
	<ele>1870.80</ele>
	<time>2024-07-25T08:21:14.000Z</time>
</trkpt>
<trkpt lat="46.1104820" lon="10.4609430">
	<ele>1871.00</ele>
	<time>2024-07-25T08:21:15.000Z</time>
</trkpt>
<trkpt lat="46.1104900" lon="10.4609500">
	<ele>1871.00</ele>
	<time>2024-07-25T08:21:16.000Z</time>
</trkpt>
<trkpt lat="46.1105000" lon="10.4609580">
	<ele>1871.20</ele>
	<time>2024-07-25T08:21:17.000Z</time>
</trkpt>
<trkpt lat="46.1105090" lon="10.4609680">
	<ele>1871.20</ele>
	<time>2024-07-25T08:21:18.000Z</time>
</trkpt>
<trkpt lat="46.1105180" lon="10.4609770">
	<ele>1871.40</ele>
	<time>2024-07-25T08:21:19.000Z</time>
</trkpt>
<trkpt lat="46.1105290" lon="10.4609800">
	<ele>1871.60</ele>
	<time>2024-07-25T08:21:20.000Z</time>
</trkpt>
<trkpt lat="46.1105380" lon="10.4609820">
	<ele>1871.80</ele>
	<time>2024-07-25T08:21:21.000Z</time>
</trkpt>
<trkpt lat="46.1105480" lon="10.4609850">
	<ele>1872.00</ele>
	<time>2024-07-25T08:21:22.000Z</time>
</trkpt>
<trkpt lat="46.1105570" lon="10.4609900">
	<ele>1872.00</ele>
	<time>2024-07-25T08:21:23.000Z</time>
</trkpt>
<trkpt lat="46.1105640" lon="10.4609960">
	<ele>1872.20</ele>
	<time>2024-07-25T08:21:24.000Z</time>
</trkpt>
<trkpt lat="46.1105760" lon="10.4610030">
	<ele>1872.20</ele>
	<time>2024-07-25T08:21:25.000Z</time>
</trkpt>
<trkpt lat="46.1105880" lon="10.4610060">
	<ele>1872.40</ele>
	<time>2024-07-25T08:21:26.000Z</time>
</trkpt>
<trkpt lat="46.1105980" lon="10.4610110">
	<ele>1872.60</ele>
	<time>2024-07-25T08:21:27.000Z</time>
</trkpt>
<trkpt lat="46.1106060" lon="10.4610150">
	<ele>1872.80</ele>
	<time>2024-07-25T08:21:28.000Z</time>
</trkpt>
<trkpt lat="46.1106130" lon="10.4610230">
	<ele>1872.80</ele>
	<time>2024-07-25T08:21:29.000Z</time>
</trkpt>
<trkpt lat="46.1106190" lon="10.4610280">
	<ele>1873.00</ele>
	<time>2024-07-25T08:21:30.000Z</time>
</trkpt>
<trkpt lat="46.1106230" lon="10.4610310">
	<ele>1873.20</ele>
	<time>2024-07-25T08:21:31.000Z</time>
</trkpt>
<trkpt lat="46.1106240" lon="10.4610310">
	<ele>1873.20</ele>
	<time>2024-07-25T08:21:32.000Z</time>
</trkpt>
<trkpt lat="46.1106230" lon="10.4610310">
	<ele>1873.40</ele>
	<time>2024-07-25T08:21:33.000Z</time>
</trkpt>
<trkpt lat="46.1106230" lon="10.4610320">
	<ele>1873.60</ele>
	<time>2024-07-25T08:21:34.000Z</time>
</trkpt>
<trkpt lat="46.1106230" lon="10.4610320">
	<ele>1873.80</ele>
	<time>2024-07-25T08:21:35.000Z</time>
</trkpt>
<trkpt lat="46.1106220" lon="10.4610320">
	<ele>1873.80</ele>
	<time>2024-07-25T08:21:36.000Z</time>
</trkpt>
<trkpt lat="46.1106220" lon="10.4610310">
	<ele>1873.80</ele>
	<time>2024-07-25T08:21:37.000Z</time>
</trkpt>
<trkpt lat="46.1106210" lon="10.4610330">
	<ele>1873.80</ele>
	<time>2024-07-25T08:21:38.000Z</time>
</trkpt>
<trkpt lat="46.1106220" lon="10.4610360">
	<ele>1873.80</ele>
	<time>2024-07-25T08:21:39.000Z</time>
</trkpt>
<trkpt lat="46.1106270" lon="10.4610380">
	<ele>1873.60</ele>
	<time>2024-07-25T08:21:40.000Z</time>
</trkpt>
<trkpt lat="46.1106350" lon="10.4610420">
	<ele>1873.60</ele>
	<time>2024-07-25T08:21:41.000Z</time>
</trkpt>
<trkpt lat="46.1106450" lon="10.4610480">
	<ele>1873.60</ele>
	<time>2024-07-25T08:21:42.000Z</time>
</trkpt>
<trkpt lat="46.1106570" lon="10.4610570">
	<ele>1873.80</ele>
	<time>2024-07-25T08:21:43.000Z</time>
</trkpt>
<trkpt lat="46.1106680" lon="10.4610640">
	<ele>1873.60</ele>
	<time>2024-07-25T08:21:44.000Z</time>
</trkpt>
<trkpt lat="46.1106780" lon="10.4610720">
	<ele>1873.80</ele>
	<time>2024-07-25T08:21:45.000Z</time>
</trkpt>
<trkpt lat="46.1106860" lon="10.4610800">
	<ele>1873.80</ele>
	<time>2024-07-25T08:21:46.000Z</time>
</trkpt>
<trkpt lat="46.1106940" lon="10.4610850">
	<ele>1874.00</ele>
	<time>2024-07-25T08:21:47.000Z</time>
</trkpt>
<trkpt lat="46.1107020" lon="10.4610910">
	<ele>1874.00</ele>
	<time>2024-07-25T08:21:48.000Z</time>
</trkpt>
<trkpt lat="46.1107100" lon="10.4610980">
	<ele>1874.20</ele>
	<time>2024-07-25T08:21:49.000Z</time>
</trkpt>
<trkpt lat="46.1107190" lon="10.4611030">
	<ele>1874.20</ele>
	<time>2024-07-25T08:21:50.000Z</time>
</trkpt>
<trkpt lat="46.1107260" lon="10.4611090">
	<ele>1874.40</ele>
	<time>2024-07-25T08:21:51.000Z</time>
</trkpt>
<trkpt lat="46.1107330" lon="10.4611190">
	<ele>1874.60</ele>
	<time>2024-07-25T08:21:52.000Z</time>
</trkpt>
<trkpt lat="46.1107410" lon="10.4611270">
	<ele>1874.80</ele>
	<time>2024-07-25T08:21:53.000Z</time>
</trkpt>
<trkpt lat="46.1107510" lon="10.4611340">
	<ele>1875.00</ele>
	<time>2024-07-25T08:21:54.000Z</time>
</trkpt>
<trkpt lat="46.1107590" lon="10.4611410">
	<ele>1875.20</ele>
	<time>2024-07-25T08:21:55.000Z</time>
</trkpt>
<trkpt lat="46.1107670" lon="10.4611500">
	<ele>1875.40</ele>
	<time>2024-07-25T08:21:56.000Z</time>
</trkpt>
<trkpt lat="46.1107750" lon="10.4611610">
	<ele>1875.40</ele>
	<time>2024-07-25T08:21:57.000Z</time>
</trkpt>
<trkpt lat="46.1107810" lon="10.4611730">
	<ele>1875.60</ele>
	<time>2024-07-25T08:21:58.000Z</time>
</trkpt>
<trkpt lat="46.1107900" lon="10.4611840">
	<ele>1875.80</ele>
	<time>2024-07-25T08:21:59.000Z</time>
</trkpt>
<trkpt lat="46.1107980" lon="10.4611990">
	<ele>1876.00</ele>
	<time>2024-07-25T08:22:00.000Z</time>
</trkpt>
<trkpt lat="46.1108060" lon="10.4612120">
	<ele>1876.20</ele>
	<time>2024-07-25T08:22:01.000Z</time>
</trkpt>
<trkpt lat="46.1108160" lon="10.4612250">
	<ele>1876.40</ele>
	<time>2024-07-25T08:22:02.000Z</time>
</trkpt>
<trkpt lat="46.1108230" lon="10.4612330">
	<ele>1876.40</ele>
	<time>2024-07-25T08:22:03.000Z</time>
</trkpt>
<trkpt lat="46.1108290" lon="10.4612400">
	<ele>1876.60</ele>
	<time>2024-07-25T08:22:04.000Z</time>
</trkpt>
<trkpt lat="46.1108390" lon="10.4612510">
	<ele>1876.80</ele>
	<time>2024-07-25T08:22:05.000Z</time>
</trkpt>
<trkpt lat="46.1108470" lon="10.4612590">
	<ele>1877.00</ele>
	<time>2024-07-25T08:22:06.000Z</time>
</trkpt>
<trkpt lat="46.1108550" lon="10.4612680">
	<ele>1877.00</ele>
	<time>2024-07-25T08:22:07.000Z</time>
</trkpt>
<trkpt lat="46.1108620" lon="10.4612760">
	<ele>1877.20</ele>
	<time>2024-07-25T08:22:08.000Z</time>
</trkpt>
<trkpt lat="46.1108690" lon="10.4612830">
	<ele>1877.60</ele>
	<time>2024-07-25T08:22:09.000Z</time>
</trkpt>
<trkpt lat="46.1108780" lon="10.4612890">
	<ele>1877.80</ele>
	<time>2024-07-25T08:22:10.000Z</time>
</trkpt>
<trkpt lat="46.1108860" lon="10.4612940">
	<ele>1878.00</ele>
	<time>2024-07-25T08:22:11.000Z</time>
</trkpt>
<trkpt lat="46.1108930" lon="10.4613010">
	<ele>1878.00</ele>
	<time>2024-07-25T08:22:12.000Z</time>
</trkpt>
<trkpt lat="46.1109000" lon="10.4613060">
	<ele>1878.20</ele>
	<time>2024-07-25T08:22:13.000Z</time>
</trkpt>
<trkpt lat="46.1109050" lon="10.4613150">
	<ele>1878.40</ele>
	<time>2024-07-25T08:22:14.000Z</time>
</trkpt>
<trkpt lat="46.1109050" lon="10.4613180">
	<ele>1878.40</ele>
	<time>2024-07-25T08:22:15.000Z</time>
</trkpt>
<trkpt lat="46.1109040" lon="10.4613190">
	<ele>1878.80</ele>
	<time>2024-07-25T08:22:16.000Z</time>
</trkpt>
<trkpt lat="46.1109030" lon="10.4613190">
	<ele>1879.00</ele>
	<time>2024-07-25T08:22:17.000Z</time>
</trkpt>
<trkpt lat="46.1109020" lon="10.4613180">
	<ele>1879.40</ele>
	<time>2024-07-25T08:22:18.000Z</time>
</trkpt>
<trkpt lat="46.1109010" lon="10.4613170">
	<ele>1879.40</ele>
	<time>2024-07-25T08:22:19.000Z</time>
</trkpt>
<trkpt lat="46.1109000" lon="10.4613180">
	<ele>1879.60</ele>
	<time>2024-07-25T08:22:20.000Z</time>
</trkpt>
<trkpt lat="46.1108990" lon="10.4613180">
	<ele>1879.80</ele>
	<time>2024-07-25T08:22:21.000Z</time>
</trkpt>
<trkpt lat="46.1108970" lon="10.4613170">
	<ele>1879.60</ele>
	<time>2024-07-25T08:22:22.000Z</time>
</trkpt>
<trkpt lat="46.1108960" lon="10.4613160">
	<ele>1879.80</ele>
	<time>2024-07-25T08:22:23.000Z</time>
</trkpt>
<trkpt lat="46.1108950" lon="10.4613170">
	<ele>1879.80</ele>
	<time>2024-07-25T08:22:24.000Z</time>
</trkpt>
<trkpt lat="46.1108940" lon="10.4613180">
	<ele>1879.60</ele>
	<time>2024-07-25T08:22:25.000Z</time>
</trkpt>
<trkpt lat="46.1108940" lon="10.4613190">
	<ele>1879.60</ele>
	<time>2024-07-25T08:22:26.000Z</time>
</trkpt>
<trkpt lat="46.1108970" lon="10.4613220">
	<ele>1879.60</ele>
	<time>2024-07-25T08:22:27.000Z</time>
</trkpt>
<trkpt lat="46.1109020" lon="10.4613220">
	<ele>1879.60</ele>
	<time>2024-07-25T08:22:28.000Z</time>
</trkpt>
<trkpt lat="46.1109080" lon="10.4613260">
	<ele>1879.60</ele>
	<time>2024-07-25T08:22:29.000Z</time>
</trkpt>
<trkpt lat="46.1109140" lon="10.4613330">
	<ele>1879.60</ele>
	<time>2024-07-25T08:22:30.000Z</time>
</trkpt>
<trkpt lat="46.1109180" lon="10.4613440">
	<ele>1879.60</ele>
	<time>2024-07-25T08:22:31.000Z</time>
</trkpt>
<trkpt lat="46.1109240" lon="10.4613590">
	<ele>1879.60</ele>
	<time>2024-07-25T08:22:32.000Z</time>
</trkpt>
<trkpt lat="46.1109290" lon="10.4613740">
	<ele>1879.60</ele>
	<time>2024-07-25T08:22:33.000Z</time>
</trkpt>
<trkpt lat="46.1109350" lon="10.4613870">
	<ele>1879.60</ele>
	<time>2024-07-25T08:22:34.000Z</time>
</trkpt>
<trkpt lat="46.1109430" lon="10.4613990">
	<ele>1879.60</ele>
	<time>2024-07-25T08:22:35.000Z</time>
</trkpt>
<trkpt lat="46.1109530" lon="10.4614140">
	<ele>1879.80</ele>
	<time>2024-07-25T08:22:36.000Z</time>
</trkpt>
<trkpt lat="46.1109630" lon="10.4614270">
	<ele>1879.60</ele>
	<time>2024-07-25T08:22:37.000Z</time>
</trkpt>
<trkpt lat="46.1109720" lon="10.4614430">
	<ele>1879.60</ele>
	<time>2024-07-25T08:22:38.000Z</time>
</trkpt>
<trkpt lat="46.1109810" lon="10.4614630">
	<ele>1879.60</ele>
	<time>2024-07-25T08:22:39.000Z</time>
</trkpt>
<trkpt lat="46.1109900" lon="10.4614830">
	<ele>1879.80</ele>
	<time>2024-07-25T08:22:40.000Z</time>
</trkpt>
<trkpt lat="46.1109970" lon="10.4614990">
	<ele>1879.80</ele>
	<time>2024-07-25T08:22:41.000Z</time>
</trkpt>
<trkpt lat="46.1110060" lon="10.4615180">
	<ele>1879.80</ele>
	<time>2024-07-25T08:22:42.000Z</time>
</trkpt>
<trkpt lat="46.1110160" lon="10.4615320">
	<ele>1880.00</ele>
	<time>2024-07-25T08:22:43.000Z</time>
</trkpt>
<trkpt lat="46.1110260" lon="10.4615450">
	<ele>1880.20</ele>
	<time>2024-07-25T08:22:44.000Z</time>
</trkpt>
<trkpt lat="46.1110350" lon="10.4615570">
	<ele>1880.20</ele>
	<time>2024-07-25T08:22:45.000Z</time>
</trkpt>
<trkpt lat="46.1110450" lon="10.4615680">
	<ele>1880.40</ele>
	<time>2024-07-25T08:22:46.000Z</time>
</trkpt>
<trkpt lat="46.1110570" lon="10.4615820">
	<ele>1880.40</ele>
	<time>2024-07-25T08:22:47.000Z</time>
</trkpt>
<trkpt lat="46.1110650" lon="10.4615960">
	<ele>1880.40</ele>
	<time>2024-07-25T08:22:48.000Z</time>
</trkpt>
<trkpt lat="46.1110750" lon="10.4616110">
	<ele>1880.40</ele>
	<time>2024-07-25T08:22:49.000Z</time>
</trkpt>
<trkpt lat="46.1110850" lon="10.4616250">
	<ele>1880.60</ele>
	<time>2024-07-25T08:22:50.000Z</time>
</trkpt>
<trkpt lat="46.1111000" lon="10.4616380">
	<ele>1880.60</ele>
	<time>2024-07-25T08:22:51.000Z</time>
</trkpt>
<trkpt lat="46.1111130" lon="10.4616490">
	<ele>1881.00</ele>
	<time>2024-07-25T08:22:52.000Z</time>
</trkpt>
<trkpt lat="46.1111270" lon="10.4616580">
	<ele>1881.20</ele>
	<time>2024-07-25T08:22:53.000Z</time>
</trkpt>
<trkpt lat="46.1111370" lon="10.4616670">
	<ele>1881.20</ele>
	<time>2024-07-25T08:22:54.000Z</time>
</trkpt>
<trkpt lat="46.1111470" lon="10.4616760">
	<ele>1881.20</ele>
	<time>2024-07-25T08:22:55.000Z</time>
</trkpt>
<trkpt lat="46.1111570" lon="10.4616850">
	<ele>1881.40</ele>
	<time>2024-07-25T08:22:56.000Z</time>
</trkpt>
<trkpt lat="46.1111690" lon="10.4616950">
	<ele>1881.40</ele>
	<time>2024-07-25T08:22:57.000Z</time>
</trkpt>
<trkpt lat="46.1111810" lon="10.4617010">
	<ele>1881.40</ele>
	<time>2024-07-25T08:22:58.000Z</time>
</trkpt>
<trkpt lat="46.1111970" lon="10.4617040">
	<ele>1881.20</ele>
	<time>2024-07-25T08:22:59.000Z</time>
</trkpt>
<trkpt lat="46.1112110" lon="10.4617060">
	<ele>1881.20</ele>
	<time>2024-07-25T08:23:00.000Z</time>
</trkpt>
<trkpt lat="46.1112240" lon="10.4617170">
	<ele>1881.20</ele>
	<time>2024-07-25T08:23:01.000Z</time>
</trkpt>
<trkpt lat="46.1112410" lon="10.4617230">
	<ele>1881.20</ele>
	<time>2024-07-25T08:23:02.000Z</time>
</trkpt>
<trkpt lat="46.1112550" lon="10.4617270">
	<ele>1881.20</ele>
	<time>2024-07-25T08:23:03.000Z</time>
</trkpt>
<trkpt lat="46.1112690" lon="10.4617330">
	<ele>1881.20</ele>
	<time>2024-07-25T08:23:04.000Z</time>
</trkpt>
<trkpt lat="46.1112820" lon="10.4617380">
	<ele>1881.20</ele>
	<time>2024-07-25T08:23:05.000Z</time>
</trkpt>
<trkpt lat="46.1112970" lon="10.4617410">
	<ele>1881.20</ele>
	<time>2024-07-25T08:23:06.000Z</time>
</trkpt>
<trkpt lat="46.1113090" lon="10.4617420">
	<ele>1881.20</ele>
	<time>2024-07-25T08:23:07.000Z</time>
</trkpt>
<trkpt lat="46.1113220" lon="10.4617430">
	<ele>1881.20</ele>
	<time>2024-07-25T08:23:08.000Z</time>
</trkpt>
<trkpt lat="46.1113330" lon="10.4617480">
	<ele>1881.20</ele>
	<time>2024-07-25T08:23:09.000Z</time>
</trkpt>
<trkpt lat="46.1113450" lon="10.4617510">
	<ele>1881.20</ele>
	<time>2024-07-25T08:23:10.000Z</time>
</trkpt>
<trkpt lat="46.1113590" lon="10.4617540">
	<ele>1881.20</ele>
	<time>2024-07-25T08:23:11.000Z</time>
</trkpt>
<trkpt lat="46.1113720" lon="10.4617610">
	<ele>1881.20</ele>
	<time>2024-07-25T08:23:12.000Z</time>
</trkpt>
<trkpt lat="46.1113860" lon="10.4617670">
	<ele>1881.40</ele>
	<time>2024-07-25T08:23:13.000Z</time>
</trkpt>
<trkpt lat="46.1114010" lon="10.4617720">
	<ele>1881.40</ele>
	<time>2024-07-25T08:23:14.000Z</time>
</trkpt>
<trkpt lat="46.1114140" lon="10.4617790">
	<ele>1881.40</ele>
	<time>2024-07-25T08:23:15.000Z</time>
</trkpt>
<trkpt lat="46.1114270" lon="10.4617880">
	<ele>1881.40</ele>
	<time>2024-07-25T08:23:16.000Z</time>
</trkpt>
<trkpt lat="46.1114400" lon="10.4617960">
	<ele>1881.40</ele>
	<time>2024-07-25T08:23:17.000Z</time>
</trkpt>
<trkpt lat="46.1114560" lon="10.4618020">
	<ele>1881.40</ele>
	<time>2024-07-25T08:23:18.000Z</time>
</trkpt>
<trkpt lat="46.1114700" lon="10.4618080">
	<ele>1881.40</ele>
	<time>2024-07-25T08:23:19.000Z</time>
</trkpt>
<trkpt lat="46.1114830" lon="10.4618140">
	<ele>1881.40</ele>
	<time>2024-07-25T08:23:20.000Z</time>
</trkpt>
<trkpt lat="46.1114990" lon="10.4618210">
	<ele>1881.40</ele>
	<time>2024-07-25T08:23:21.000Z</time>
</trkpt>
<trkpt lat="46.1115140" lon="10.4618290">
	<ele>1881.20</ele>
	<time>2024-07-25T08:23:22.000Z</time>
</trkpt>
<trkpt lat="46.1115280" lon="10.4618380">
	<ele>1881.20</ele>
	<time>2024-07-25T08:23:23.000Z</time>
</trkpt>
<trkpt lat="46.1115410" lon="10.4618470">
	<ele>1881.20</ele>
	<time>2024-07-25T08:23:24.000Z</time>
</trkpt>
<trkpt lat="46.1115550" lon="10.4618520">
	<ele>1881.20</ele>
	<time>2024-07-25T08:23:25.000Z</time>
</trkpt>
<trkpt lat="46.1115690" lon="10.4618590">
	<ele>1881.00</ele>
	<time>2024-07-25T08:23:26.000Z</time>
</trkpt>
<trkpt lat="46.1115820" lon="10.4618650">
	<ele>1881.00</ele>
	<time>2024-07-25T08:23:27.000Z</time>
</trkpt>
<trkpt lat="46.1115950" lon="10.4618720">
	<ele>1881.00</ele>
	<time>2024-07-25T08:23:28.000Z</time>
</trkpt>
<trkpt lat="46.1116080" lon="10.4618770">
	<ele>1881.00</ele>
	<time>2024-07-25T08:23:29.000Z</time>
</trkpt>
<trkpt lat="46.1116200" lon="10.4618850">
	<ele>1881.00</ele>
	<time>2024-07-25T08:23:30.000Z</time>
</trkpt>
<trkpt lat="46.1116300" lon="10.4618960">
	<ele>1880.80</ele>
	<time>2024-07-25T08:23:31.000Z</time>
</trkpt>
<trkpt lat="46.1116410" lon="10.4619060">
	<ele>1880.80</ele>
	<time>2024-07-25T08:23:32.000Z</time>
</trkpt>
<trkpt lat="46.1116530" lon="10.4619150">
	<ele>1880.80</ele>
	<time>2024-07-25T08:23:33.000Z</time>
</trkpt>
<trkpt lat="46.1116650" lon="10.4619260">
	<ele>1881.00</ele>
	<time>2024-07-25T08:23:34.000Z</time>
</trkpt>
<trkpt lat="46.1116800" lon="10.4619380">
	<ele>1881.00</ele>
	<time>2024-07-25T08:23:35.000Z</time>
</trkpt>
<trkpt lat="46.1116900" lon="10.4619460">
	<ele>1881.00</ele>
	<time>2024-07-25T08:23:36.000Z</time>
</trkpt>
<trkpt lat="46.1117030" lon="10.4619550">
	<ele>1881.00</ele>
	<time>2024-07-25T08:23:37.000Z</time>
</trkpt>
<trkpt lat="46.1117150" lon="10.4619630">
	<ele>1881.00</ele>
	<time>2024-07-25T08:23:38.000Z</time>
</trkpt>
<trkpt lat="46.1117280" lon="10.4619720">
	<ele>1881.00</ele>
	<time>2024-07-25T08:23:39.000Z</time>
</trkpt>
<trkpt lat="46.1117420" lon="10.4619820">
	<ele>1881.00</ele>
	<time>2024-07-25T08:23:40.000Z</time>
</trkpt>
<trkpt lat="46.1117520" lon="10.4619920">
	<ele>1880.80</ele>
	<time>2024-07-25T08:23:41.000Z</time>
</trkpt>
<trkpt lat="46.1117640" lon="10.4620030">
	<ele>1880.80</ele>
	<time>2024-07-25T08:23:42.000Z</time>
</trkpt>
<trkpt lat="46.1117720" lon="10.4620130">
	<ele>1880.80</ele>
	<time>2024-07-25T08:23:43.000Z</time>
</trkpt>
<trkpt lat="46.1117840" lon="10.4620250">
	<ele>1880.80</ele>
	<time>2024-07-25T08:23:44.000Z</time>
</trkpt>
<trkpt lat="46.1117920" lon="10.4620370">
	<ele>1880.80</ele>
	<time>2024-07-25T08:23:45.000Z</time>
</trkpt>
<trkpt lat="46.1118000" lon="10.4620480">
	<ele>1880.80</ele>
	<time>2024-07-25T08:23:46.000Z</time>
</trkpt>
<trkpt lat="46.1118070" lon="10.4620610">
	<ele>1880.80</ele>
	<time>2024-07-25T08:23:47.000Z</time>
</trkpt>
<trkpt lat="46.1118140" lon="10.4620750">
	<ele>1880.80</ele>
	<time>2024-07-25T08:23:48.000Z</time>
</trkpt>
<trkpt lat="46.1118190" lon="10.4620890">
	<ele>1880.60</ele>
	<time>2024-07-25T08:23:49.000Z</time>
</trkpt>
<trkpt lat="46.1118250" lon="10.4621060">
	<ele>1880.60</ele>
	<time>2024-07-25T08:23:50.000Z</time>
</trkpt>
<trkpt lat="46.1118330" lon="10.4621240">
	<ele>1880.60</ele>
	<time>2024-07-25T08:23:51.000Z</time>
</trkpt>
<trkpt lat="46.1118390" lon="10.4621410">
	<ele>1880.60</ele>
	<time>2024-07-25T08:23:52.000Z</time>
</trkpt>
<trkpt lat="46.1118470" lon="10.4621600">
	<ele>1880.60</ele>
	<time>2024-07-25T08:23:53.000Z</time>
</trkpt>
<trkpt lat="46.1118560" lon="10.4621770">
	<ele>1880.40</ele>
	<time>2024-07-25T08:23:54.000Z</time>
</trkpt>
<trkpt lat="46.1118650" lon="10.4621940">
	<ele>1880.40</ele>
	<time>2024-07-25T08:23:55.000Z</time>
</trkpt>
<trkpt lat="46.1118730" lon="10.4622050">
	<ele>1880.40</ele>
	<time>2024-07-25T08:23:56.000Z</time>
</trkpt>
<trkpt lat="46.1118800" lon="10.4622190">
	<ele>1880.40</ele>
	<time>2024-07-25T08:23:57.000Z</time>
</trkpt>
<trkpt lat="46.1118880" lon="10.4622330">
	<ele>1880.40</ele>
	<time>2024-07-25T08:23:58.000Z</time>
</trkpt>
<trkpt lat="46.1118960" lon="10.4622430">
	<ele>1880.40</ele>
	<time>2024-07-25T08:23:59.000Z</time>
</trkpt>
<trkpt lat="46.1119050" lon="10.4622590">
	<ele>1880.40</ele>
	<time>2024-07-25T08:24:00.000Z</time>
</trkpt>
<trkpt lat="46.1119100" lon="10.4622710">
	<ele>1880.60</ele>
	<time>2024-07-25T08:24:01.000Z</time>
</trkpt>
<trkpt lat="46.1119180" lon="10.4622870">
	<ele>1880.60</ele>
	<time>2024-07-25T08:24:02.000Z</time>
</trkpt>
<trkpt lat="46.1119220" lon="10.4622990">
	<ele>1880.60</ele>
	<time>2024-07-25T08:24:03.000Z</time>
</trkpt>
<trkpt lat="46.1119260" lon="10.4623120">
	<ele>1880.80</ele>
	<time>2024-07-25T08:24:04.000Z</time>
</trkpt>
<trkpt lat="46.1119310" lon="10.4623270">
	<ele>1880.80</ele>
	<time>2024-07-25T08:24:05.000Z</time>
</trkpt>
<trkpt lat="46.1119390" lon="10.4623430">
	<ele>1880.80</ele>
	<time>2024-07-25T08:24:06.000Z</time>
</trkpt>
<trkpt lat="46.1119420" lon="10.4623530">
	<ele>1880.80</ele>
	<time>2024-07-25T08:24:07.000Z</time>
</trkpt>
<trkpt lat="46.1119490" lon="10.4623630">
	<ele>1880.80</ele>
	<time>2024-07-25T08:24:08.000Z</time>
</trkpt>
<trkpt lat="46.1119530" lon="10.4623720">
	<ele>1880.60</ele>
	<time>2024-07-25T08:24:09.000Z</time>
</trkpt>
<trkpt lat="46.1119510" lon="10.4623750">
	<ele>1880.60</ele>
	<time>2024-07-25T08:24:10.000Z</time>
</trkpt>
<trkpt lat="46.1119500" lon="10.4623770">
	<ele>1880.60</ele>
	<time>2024-07-25T08:24:11.000Z</time>
</trkpt>
<trkpt lat="46.1119510" lon="10.4623780">
	<ele>1880.80</ele>
	<time>2024-07-25T08:24:12.000Z</time>
</trkpt>
<trkpt lat="46.1119540" lon="10.4623780">
	<ele>1880.80</ele>
	<time>2024-07-25T08:24:13.000Z</time>
</trkpt>
<trkpt lat="46.1119570" lon="10.4623830">
	<ele>1880.80</ele>
	<time>2024-07-25T08:24:14.000Z</time>
</trkpt>
<trkpt lat="46.1119610" lon="10.4623890">
	<ele>1880.80</ele>
	<time>2024-07-25T08:24:15.000Z</time>
</trkpt>
<trkpt lat="46.1119660" lon="10.4624010">
	<ele>1880.60</ele>
	<time>2024-07-25T08:24:16.000Z</time>
</trkpt>
<trkpt lat="46.1119710" lon="10.4624210">
	<ele>1880.60</ele>
	<time>2024-07-25T08:24:17.000Z</time>
</trkpt>
<trkpt lat="46.1119770" lon="10.4624380">
	<ele>1880.40</ele>
	<time>2024-07-25T08:24:18.000Z</time>
</trkpt>
<trkpt lat="46.1119850" lon="10.4624540">
	<ele>1880.40</ele>
	<time>2024-07-25T08:24:19.000Z</time>
</trkpt>
<trkpt lat="46.1119900" lon="10.4624740">
	<ele>1880.40</ele>
	<time>2024-07-25T08:24:20.000Z</time>
</trkpt>
<trkpt lat="46.1119940" lon="10.4624930">
	<ele>1880.40</ele>
	<time>2024-07-25T08:24:21.000Z</time>
</trkpt>
<trkpt lat="46.1120000" lon="10.4625080">
	<ele>1880.40</ele>
	<time>2024-07-25T08:24:22.000Z</time>
</trkpt>
<trkpt lat="46.1120090" lon="10.4625260">
	<ele>1880.60</ele>
	<time>2024-07-25T08:24:23.000Z</time>
</trkpt>
<trkpt lat="46.1120150" lon="10.4625440">
	<ele>1880.80</ele>
	<time>2024-07-25T08:24:24.000Z</time>
</trkpt>
<trkpt lat="46.1120180" lon="10.4625660">
	<ele>1880.80</ele>
	<time>2024-07-25T08:24:25.000Z</time>
</trkpt>
<trkpt lat="46.1120310" lon="10.4625910">
	<ele>1880.80</ele>
	<time>2024-07-25T08:24:26.000Z</time>
</trkpt>
<trkpt lat="46.1120500" lon="10.4626140">
	<ele>1880.80</ele>
	<time>2024-07-25T08:24:27.000Z</time>
</trkpt>
<trkpt lat="46.1120420" lon="10.4626280">
	<ele>1880.80</ele>
	<time>2024-07-25T08:24:28.000Z</time>
</trkpt>
<trkpt lat="46.1120520" lon="10.4626430">
	<ele>1880.60</ele>
	<time>2024-07-25T08:24:29.000Z</time>
</trkpt>
<trkpt lat="46.1120600" lon="10.4626590">
	<ele>1880.60</ele>
	<time>2024-07-25T08:24:30.000Z</time>
</trkpt>
<trkpt lat="46.1120640" lon="10.4626760">
	<ele>1880.40</ele>
	<time>2024-07-25T08:24:31.000Z</time>
</trkpt>
<trkpt lat="46.1120620" lon="10.4626870">
	<ele>1880.40</ele>
	<time>2024-07-25T08:24:32.000Z</time>
</trkpt>
<trkpt lat="46.1120710" lon="10.4627060">
	<ele>1880.40</ele>
	<time>2024-07-25T08:24:33.000Z</time>
</trkpt>
<trkpt lat="46.1120740" lon="10.4627190">
	<ele>1880.40</ele>
	<time>2024-07-25T08:24:34.000Z</time>
</trkpt>
<trkpt lat="46.1120780" lon="10.4627320">
	<ele>1880.40</ele>
	<time>2024-07-25T08:24:35.000Z</time>
</trkpt>
<trkpt lat="46.1120830" lon="10.4627430">
	<ele>1880.40</ele>
	<time>2024-07-25T08:24:36.000Z</time>
</trkpt>
<trkpt lat="46.1120900" lon="10.4627570">
	<ele>1880.40</ele>
	<time>2024-07-25T08:24:37.000Z</time>
</trkpt>
<trkpt lat="46.1120960" lon="10.4627740">
	<ele>1880.40</ele>
	<time>2024-07-25T08:24:38.000Z</time>
</trkpt>
<trkpt lat="46.1121030" lon="10.4627930">
	<ele>1880.20</ele>
	<time>2024-07-25T08:24:39.000Z</time>
</trkpt>
<trkpt lat="46.1121130" lon="10.4628090">
	<ele>1880.20</ele>
	<time>2024-07-25T08:24:40.000Z</time>
</trkpt>
<trkpt lat="46.1121240" lon="10.4628250">
	<ele>1880.20</ele>
	<time>2024-07-25T08:24:41.000Z</time>
</trkpt>
<trkpt lat="46.1121340" lon="10.4628450">
	<ele>1880.20</ele>
	<time>2024-07-25T08:24:42.000Z</time>
</trkpt>
<trkpt lat="46.1121390" lon="10.4628620">
	<ele>1880.20</ele>
	<time>2024-07-25T08:24:43.000Z</time>
</trkpt>
<trkpt lat="46.1121400" lon="10.4628830">
	<ele>1880.20</ele>
	<time>2024-07-25T08:24:44.000Z</time>
</trkpt>
<trkpt lat="46.1121490" lon="10.4629160">
	<ele>1880.00</ele>
	<time>2024-07-25T08:24:45.000Z</time>
</trkpt>
<trkpt lat="46.1121570" lon="10.4629360">
	<ele>1880.00</ele>
	<time>2024-07-25T08:24:46.000Z</time>
</trkpt>
<trkpt lat="46.1121600" lon="10.4629590">
	<ele>1879.80</ele>
	<time>2024-07-25T08:24:47.000Z</time>
</trkpt>
<trkpt lat="46.1121580" lon="10.4629720">
	<ele>1879.80</ele>
	<time>2024-07-25T08:24:48.000Z</time>
</trkpt>
<trkpt lat="46.1121590" lon="10.4629920">
	<ele>1879.60</ele>
	<time>2024-07-25T08:24:49.000Z</time>
</trkpt>
<trkpt lat="46.1121660" lon="10.4630090">
	<ele>1879.60</ele>
	<time>2024-07-25T08:24:50.000Z</time>
</trkpt>
<trkpt lat="46.1121700" lon="10.4630270">
	<ele>1879.40</ele>
	<time>2024-07-25T08:24:51.000Z</time>
</trkpt>
<trkpt lat="46.1121720" lon="10.4630440">
	<ele>1879.40</ele>
	<time>2024-07-25T08:24:52.000Z</time>
</trkpt>
<trkpt lat="46.1121730" lon="10.4630590">
	<ele>1879.40</ele>
	<time>2024-07-25T08:24:53.000Z</time>
</trkpt>
<trkpt lat="46.1121760" lon="10.4630770">
	<ele>1879.40</ele>
	<time>2024-07-25T08:24:54.000Z</time>
</trkpt>
<trkpt lat="46.1121800" lon="10.4630970">
	<ele>1879.40</ele>
	<time>2024-07-25T08:24:55.000Z</time>
</trkpt>
<trkpt lat="46.1121870" lon="10.4631190">
	<ele>1879.40</ele>
	<time>2024-07-25T08:24:56.000Z</time>
</trkpt>
<trkpt lat="46.1121910" lon="10.4631350">
	<ele>1879.40</ele>
	<time>2024-07-25T08:24:57.000Z</time>
</trkpt>
<trkpt lat="46.1121930" lon="10.4631540">
	<ele>1879.40</ele>
	<time>2024-07-25T08:24:58.000Z</time>
</trkpt>
<trkpt lat="46.1122020" lon="10.4631770">
	<ele>1879.40</ele>
	<time>2024-07-25T08:24:59.000Z</time>
</trkpt>
<trkpt lat="46.1122140" lon="10.4632030">
	<ele>1879.20</ele>
	<time>2024-07-25T08:25:00.000Z</time>
</trkpt>
<trkpt lat="46.1122200" lon="10.4632190">
	<ele>1879.20</ele>
	<time>2024-07-25T08:25:01.000Z</time>
</trkpt>
<trkpt lat="46.1122300" lon="10.4632420">
	<ele>1879.20</ele>
	<time>2024-07-25T08:25:02.000Z</time>
</trkpt>
<trkpt lat="46.1122350" lon="10.4632570">
	<ele>1879.20</ele>
	<time>2024-07-25T08:25:03.000Z</time>
</trkpt>
<trkpt lat="46.1122460" lon="10.4632750">
	<ele>1879.20</ele>
	<time>2024-07-25T08:25:04.000Z</time>
</trkpt>
<trkpt lat="46.1122560" lon="10.4632930">
	<ele>1879.00</ele>
	<time>2024-07-25T08:25:05.000Z</time>
</trkpt>
<trkpt lat="46.1122670" lon="10.4633120">
	<ele>1879.20</ele>
	<time>2024-07-25T08:25:06.000Z</time>
</trkpt>
<trkpt lat="46.1122730" lon="10.4633290">
	<ele>1879.20</ele>
	<time>2024-07-25T08:25:07.000Z</time>
</trkpt>
<trkpt lat="46.1122820" lon="10.4633470">
	<ele>1879.20</ele>
	<time>2024-07-25T08:25:08.000Z</time>
</trkpt>
<trkpt lat="46.1122920" lon="10.4633630">
	<ele>1879.20</ele>
	<time>2024-07-25T08:25:09.000Z</time>
</trkpt>
<trkpt lat="46.1123000" lon="10.4633790">
	<ele>1879.20</ele>
	<time>2024-07-25T08:25:10.000Z</time>
</trkpt>
<trkpt lat="46.1123060" lon="10.4633960">
	<ele>1879.20</ele>
	<time>2024-07-25T08:25:11.000Z</time>
</trkpt>
<trkpt lat="46.1123110" lon="10.4634120">
	<ele>1879.20</ele>
	<time>2024-07-25T08:25:12.000Z</time>
</trkpt>
<trkpt lat="46.1123160" lon="10.4634270">
	<ele>1879.20</ele>
	<time>2024-07-25T08:25:13.000Z</time>
</trkpt>
<trkpt lat="46.1123210" lon="10.4634410">
	<ele>1879.20</ele>
	<time>2024-07-25T08:25:14.000Z</time>
</trkpt>
<trkpt lat="46.1123280" lon="10.4634560">
	<ele>1879.20</ele>
	<time>2024-07-25T08:25:15.000Z</time>
</trkpt>
<trkpt lat="46.1123320" lon="10.4634720">
	<ele>1879.20</ele>
	<time>2024-07-25T08:25:16.000Z</time>
</trkpt>
<trkpt lat="46.1123350" lon="10.4634870">
	<ele>1879.20</ele>
	<time>2024-07-25T08:25:17.000Z</time>
</trkpt>
<trkpt lat="46.1123380" lon="10.4635010">
	<ele>1879.20</ele>
	<time>2024-07-25T08:25:18.000Z</time>
</trkpt>
<trkpt lat="46.1123430" lon="10.4635160">
	<ele>1879.40</ele>
	<time>2024-07-25T08:25:19.000Z</time>
</trkpt>
<trkpt lat="46.1123470" lon="10.4635340">
	<ele>1879.40</ele>
	<time>2024-07-25T08:25:20.000Z</time>
</trkpt>
<trkpt lat="46.1123490" lon="10.4635520">
	<ele>1879.40</ele>
	<time>2024-07-25T08:25:21.000Z</time>
</trkpt>
<trkpt lat="46.1123510" lon="10.4635710">
	<ele>1879.40</ele>
	<time>2024-07-25T08:25:22.000Z</time>
</trkpt>
<trkpt lat="46.1123540" lon="10.4635920">
	<ele>1879.40</ele>
	<time>2024-07-25T08:25:23.000Z</time>
</trkpt>
<trkpt lat="46.1123550" lon="10.4636120">
	<ele>1879.40</ele>
	<time>2024-07-25T08:25:24.000Z</time>
</trkpt>
<trkpt lat="46.1123530" lon="10.4636330">
	<ele>1879.40</ele>
	<time>2024-07-25T08:25:25.000Z</time>
</trkpt>
<trkpt lat="46.1123540" lon="10.4636530">
	<ele>1879.60</ele>
	<time>2024-07-25T08:25:26.000Z</time>
</trkpt>
<trkpt lat="46.1123540" lon="10.4636700">
	<ele>1879.60</ele>
	<time>2024-07-25T08:25:27.000Z</time>
</trkpt>
<trkpt lat="46.1123510" lon="10.4636860">
	<ele>1879.60</ele>
	<time>2024-07-25T08:25:28.000Z</time>
</trkpt>
<trkpt lat="46.1123510" lon="10.4637050">
	<ele>1879.60</ele>
	<time>2024-07-25T08:25:29.000Z</time>
</trkpt>
<trkpt lat="46.1123490" lon="10.4637230">
	<ele>1879.60</ele>
	<time>2024-07-25T08:25:30.000Z</time>
</trkpt>
<trkpt lat="46.1123480" lon="10.4637390">
	<ele>1879.60</ele>
	<time>2024-07-25T08:25:31.000Z</time>
</trkpt>
<trkpt lat="46.1123480" lon="10.4637560">
	<ele>1879.60</ele>
	<time>2024-07-25T08:25:32.000Z</time>
</trkpt>
<trkpt lat="46.1123500" lon="10.4637730">
	<ele>1879.60</ele>
	<time>2024-07-25T08:25:33.000Z</time>
</trkpt>
<trkpt lat="46.1123530" lon="10.4637940">
	<ele>1879.60</ele>
	<time>2024-07-25T08:25:34.000Z</time>
</trkpt>
<trkpt lat="46.1123510" lon="10.4638160">
	<ele>1879.80</ele>
	<time>2024-07-25T08:25:35.000Z</time>
</trkpt>
<trkpt lat="46.1123510" lon="10.4638350">
	<ele>1879.80</ele>
	<time>2024-07-25T08:25:36.000Z</time>
</trkpt>
<trkpt lat="46.1123530" lon="10.4638550">
	<ele>1880.00</ele>
	<time>2024-07-25T08:25:37.000Z</time>
</trkpt>
<trkpt lat="46.1123550" lon="10.4638760">
	<ele>1880.00</ele>
	<time>2024-07-25T08:25:38.000Z</time>
</trkpt>
<trkpt lat="46.1123560" lon="10.4638960">
	<ele>1880.00</ele>
	<time>2024-07-25T08:25:39.000Z</time>
</trkpt>
<trkpt lat="46.1123580" lon="10.4639150">
	<ele>1880.00</ele>
	<time>2024-07-25T08:25:40.000Z</time>
</trkpt>
<trkpt lat="46.1123560" lon="10.4639370">
	<ele>1880.00</ele>
	<time>2024-07-25T08:25:41.000Z</time>
</trkpt>
<trkpt lat="46.1123590" lon="10.4639570">
	<ele>1880.20</ele>
	<time>2024-07-25T08:25:42.000Z</time>
</trkpt>
<trkpt lat="46.1123580" lon="10.4639760">
	<ele>1880.20</ele>
	<time>2024-07-25T08:25:43.000Z</time>
</trkpt>
<trkpt lat="46.1123620" lon="10.4639950">
	<ele>1880.20</ele>
	<time>2024-07-25T08:25:44.000Z</time>
</trkpt>
<trkpt lat="46.1123660" lon="10.4640140">
	<ele>1880.20</ele>
	<time>2024-07-25T08:25:45.000Z</time>
</trkpt>
<trkpt lat="46.1123680" lon="10.4640310">
	<ele>1880.40</ele>
	<time>2024-07-25T08:25:46.000Z</time>
</trkpt>
<trkpt lat="46.1123690" lon="10.4640490">
	<ele>1880.40</ele>
	<time>2024-07-25T08:25:47.000Z</time>
</trkpt>
<trkpt lat="46.1123710" lon="10.4640650">
	<ele>1880.40</ele>
	<time>2024-07-25T08:25:48.000Z</time>
</trkpt>
<trkpt lat="46.1123740" lon="10.4640790">
	<ele>1880.20</ele>
	<time>2024-07-25T08:25:49.000Z</time>
</trkpt>
<trkpt lat="46.1123780" lon="10.4641020">
	<ele>1880.20</ele>
	<time>2024-07-25T08:25:50.000Z</time>
</trkpt>
<trkpt lat="46.1123800" lon="10.4641180">
	<ele>1880.20</ele>
	<time>2024-07-25T08:25:51.000Z</time>
</trkpt>
<trkpt lat="46.1123830" lon="10.4641380">
	<ele>1880.20</ele>
	<time>2024-07-25T08:25:52.000Z</time>
</trkpt>
<trkpt lat="46.1123860" lon="10.4641580">
	<ele>1880.20</ele>
	<time>2024-07-25T08:25:53.000Z</time>
</trkpt>
<trkpt lat="46.1123880" lon="10.4641760">
	<ele>1880.20</ele>
	<time>2024-07-25T08:25:54.000Z</time>
</trkpt>
<trkpt lat="46.1123910" lon="10.4641940">
	<ele>1880.20</ele>
	<time>2024-07-25T08:25:55.000Z</time>
</trkpt>
<trkpt lat="46.1123970" lon="10.4642120">
	<ele>1880.20</ele>
	<time>2024-07-25T08:25:56.000Z</time>
</trkpt>
<trkpt lat="46.1123990" lon="10.4642300">
	<ele>1880.20</ele>
	<time>2024-07-25T08:25:57.000Z</time>
</trkpt>
<trkpt lat="46.1124020" lon="10.4642460">
	<ele>1880.20</ele>
	<time>2024-07-25T08:25:58.000Z</time>
</trkpt>
<trkpt lat="46.1124070" lon="10.4642640">
	<ele>1880.20</ele>
	<time>2024-07-25T08:25:59.000Z</time>
</trkpt>
<trkpt lat="46.1124100" lon="10.4642790">
	<ele>1880.00</ele>
	<time>2024-07-25T08:26:00.000Z</time>
</trkpt>
<trkpt lat="46.1124140" lon="10.4642960">
	<ele>1880.00</ele>
	<time>2024-07-25T08:26:01.000Z</time>
</trkpt>
<trkpt lat="46.1124200" lon="10.4643070">
	<ele>1880.00</ele>
	<time>2024-07-25T08:26:02.000Z</time>
</trkpt>
<trkpt lat="46.1124270" lon="10.4643160">
	<ele>1880.00</ele>
	<time>2024-07-25T08:26:03.000Z</time>
</trkpt>
<trkpt lat="46.1124300" lon="10.4643280">
	<ele>1880.00</ele>
	<time>2024-07-25T08:26:04.000Z</time>
</trkpt>
<trkpt lat="46.1124330" lon="10.4643480">
	<ele>1880.00</ele>
	<time>2024-07-25T08:26:05.000Z</time>
</trkpt>
<trkpt lat="46.1124360" lon="10.4643620">
	<ele>1880.00</ele>
	<time>2024-07-25T08:26:06.000Z</time>
</trkpt>
<trkpt lat="46.1124370" lon="10.4643760">
	<ele>1879.80</ele>
	<time>2024-07-25T08:26:07.000Z</time>
</trkpt>
<trkpt lat="46.1124380" lon="10.4643910">
	<ele>1879.80</ele>
	<time>2024-07-25T08:26:08.000Z</time>
</trkpt>
<trkpt lat="46.1124380" lon="10.4644040">
	<ele>1880.00</ele>
	<time>2024-07-25T08:26:09.000Z</time>
</trkpt>
<trkpt lat="46.1124380" lon="10.4644170">
	<ele>1880.00</ele>
	<time>2024-07-25T08:26:10.000Z</time>
</trkpt>
<trkpt lat="46.1124350" lon="10.4644250">
	<ele>1880.00</ele>
	<time>2024-07-25T08:26:11.000Z</time>
</trkpt>
<trkpt lat="46.1124340" lon="10.4644270">
	<ele>1880.00</ele>
	<time>2024-07-25T08:26:12.000Z</time>
</trkpt>
<trkpt lat="46.1124330" lon="10.4644300">
	<ele>1880.20</ele>
	<time>2024-07-25T08:26:13.000Z</time>
</trkpt>
<trkpt lat="46.1124330" lon="10.4644310">
	<ele>1880.20</ele>
	<time>2024-07-25T08:26:14.000Z</time>
</trkpt>
<trkpt lat="46.1124340" lon="10.4644310">
	<ele>1880.20</ele>
	<time>2024-07-25T08:26:15.000Z</time>
</trkpt>
<trkpt lat="46.1124340" lon="10.4644310">
	<ele>1880.40</ele>
	<time>2024-07-25T08:26:16.000Z</time>
</trkpt>
<trkpt lat="46.1124350" lon="10.4644300">
	<ele>1880.40</ele>
	<time>2024-07-25T08:26:17.000Z</time>
</trkpt>
<trkpt lat="46.1124350" lon="10.4644290">
	<ele>1880.40</ele>
	<time>2024-07-25T08:26:18.000Z</time>
</trkpt>
<trkpt lat="46.1124350" lon="10.4644290">
	<ele>1880.40</ele>
	<time>2024-07-25T08:26:19.000Z</time>
</trkpt>
<trkpt lat="46.1124370" lon="10.4644350">
	<ele>1880.20</ele>
	<time>2024-07-25T08:26:20.000Z</time>
</trkpt>
<trkpt lat="46.1124400" lon="10.4644490">
	<ele>1880.20</ele>
	<time>2024-07-25T08:26:21.000Z</time>
</trkpt>
<trkpt lat="46.1124450" lon="10.4644610">
	<ele>1880.00</ele>
	<time>2024-07-25T08:26:22.000Z</time>
</trkpt>
<trkpt lat="46.1124520" lon="10.4644800">
	<ele>1879.80</ele>
	<time>2024-07-25T08:26:23.000Z</time>
</trkpt>
<trkpt lat="46.1124600" lon="10.4644980">
	<ele>1879.80</ele>
	<time>2024-07-25T08:26:24.000Z</time>
</trkpt>
<trkpt lat="46.1124670" lon="10.4645150">
	<ele>1879.60</ele>
	<time>2024-07-25T08:26:25.000Z</time>
</trkpt>
<trkpt lat="46.1124730" lon="10.4645310">
	<ele>1879.60</ele>
	<time>2024-07-25T08:26:26.000Z</time>
</trkpt>
<trkpt lat="46.1124770" lon="10.4645450">
	<ele>1879.60</ele>
	<time>2024-07-25T08:26:27.000Z</time>
</trkpt>
<trkpt lat="46.1124820" lon="10.4645590">
	<ele>1879.60</ele>
	<time>2024-07-25T08:26:28.000Z</time>
</trkpt>
<trkpt lat="46.1124880" lon="10.4645730">
	<ele>1879.60</ele>
	<time>2024-07-25T08:26:29.000Z</time>
</trkpt>
<trkpt lat="46.1124930" lon="10.4645880">
	<ele>1879.60</ele>
	<time>2024-07-25T08:26:30.000Z</time>
</trkpt>
<trkpt lat="46.1125000" lon="10.4646140">
	<ele>1879.60</ele>
	<time>2024-07-25T08:26:31.000Z</time>
</trkpt>
<trkpt lat="46.1125100" lon="10.4646360">
	<ele>1879.60</ele>
	<time>2024-07-25T08:26:32.000Z</time>
</trkpt>
<trkpt lat="46.1125190" lon="10.4646550">
	<ele>1879.60</ele>
	<time>2024-07-25T08:26:33.000Z</time>
</trkpt>
<trkpt lat="46.1125230" lon="10.4646730">
	<ele>1879.60</ele>
	<time>2024-07-25T08:26:34.000Z</time>
</trkpt>
<trkpt lat="46.1125260" lon="10.4646920">
	<ele>1879.60</ele>
	<time>2024-07-25T08:26:35.000Z</time>
</trkpt>
<trkpt lat="46.1125280" lon="10.4647080">
	<ele>1879.40</ele>
	<time>2024-07-25T08:26:36.000Z</time>
</trkpt>
<trkpt lat="46.1125300" lon="10.4647230">
	<ele>1879.40</ele>
	<time>2024-07-25T08:26:37.000Z</time>
</trkpt>
<trkpt lat="46.1125360" lon="10.4647390">
	<ele>1879.40</ele>
	<time>2024-07-25T08:26:38.000Z</time>
</trkpt>
<trkpt lat="46.1125410" lon="10.4647530">
	<ele>1879.40</ele>
	<time>2024-07-25T08:26:39.000Z</time>
</trkpt>
<trkpt lat="46.1125470" lon="10.4647720">
	<ele>1879.20</ele>
	<time>2024-07-25T08:26:40.000Z</time>
</trkpt>
<trkpt lat="46.1125520" lon="10.4647890">
	<ele>1879.20</ele>
	<time>2024-07-25T08:26:41.000Z</time>
</trkpt>
<trkpt lat="46.1125570" lon="10.4648050">
	<ele>1879.20</ele>
	<time>2024-07-25T08:26:42.000Z</time>
</trkpt>
<trkpt lat="46.1125620" lon="10.4648190">
	<ele>1879.20</ele>
	<time>2024-07-25T08:26:43.000Z</time>
</trkpt>
<trkpt lat="46.1125680" lon="10.4648340">
	<ele>1879.20</ele>
	<time>2024-07-25T08:26:44.000Z</time>
</trkpt>
<trkpt lat="46.1125790" lon="10.4648520">
	<ele>1879.20</ele>
	<time>2024-07-25T08:26:45.000Z</time>
</trkpt>
<trkpt lat="46.1125860" lon="10.4648670">
	<ele>1879.20</ele>
	<time>2024-07-25T08:26:46.000Z</time>
</trkpt>
<trkpt lat="46.1125930" lon="10.4648840">
	<ele>1879.20</ele>
	<time>2024-07-25T08:26:47.000Z</time>
</trkpt>
<trkpt lat="46.1126010" lon="10.4649000">
	<ele>1879.00</ele>
	<time>2024-07-25T08:26:48.000Z</time>
</trkpt>
<trkpt lat="46.1126100" lon="10.4649160">
	<ele>1879.00</ele>
	<time>2024-07-25T08:26:49.000Z</time>
</trkpt>
<trkpt lat="46.1126180" lon="10.4649290">
	<ele>1879.00</ele>
	<time>2024-07-25T08:26:50.000Z</time>
</trkpt>
<trkpt lat="46.1126270" lon="10.4649390">
	<ele>1879.00</ele>
	<time>2024-07-25T08:26:51.000Z</time>
</trkpt>
<trkpt lat="46.1126370" lon="10.4649530">
	<ele>1879.00</ele>
	<time>2024-07-25T08:26:52.000Z</time>
</trkpt>
<trkpt lat="46.1126490" lon="10.4649730">
	<ele>1879.00</ele>
	<time>2024-07-25T08:26:53.000Z</time>
</trkpt>
<trkpt lat="46.1126560" lon="10.4649890">
	<ele>1879.00</ele>
	<time>2024-07-25T08:26:54.000Z</time>
</trkpt>
<trkpt lat="46.1126670" lon="10.4650070">
	<ele>1879.00</ele>
	<time>2024-07-25T08:26:55.000Z</time>
</trkpt>
<trkpt lat="46.1126720" lon="10.4650200">
	<ele>1879.00</ele>
	<time>2024-07-25T08:26:56.000Z</time>
</trkpt>
<trkpt lat="46.1126810" lon="10.4650370">
	<ele>1879.00</ele>
	<time>2024-07-25T08:26:57.000Z</time>
</trkpt>
<trkpt lat="46.1126890" lon="10.4650560">
	<ele>1879.00</ele>
	<time>2024-07-25T08:26:58.000Z</time>
</trkpt>
<trkpt lat="46.1126940" lon="10.4650730">
	<ele>1879.00</ele>
	<time>2024-07-25T08:26:59.000Z</time>
</trkpt>
<trkpt lat="46.1127000" lon="10.4650890">
	<ele>1879.00</ele>
	<time>2024-07-25T08:27:00.000Z</time>
</trkpt>
<trkpt lat="46.1127060" lon="10.4651070">
	<ele>1879.00</ele>
	<time>2024-07-25T08:27:01.000Z</time>
</trkpt>
<trkpt lat="46.1127110" lon="10.4651270">
	<ele>1879.00</ele>
	<time>2024-07-25T08:27:02.000Z</time>
</trkpt>
<trkpt lat="46.1127220" lon="10.4651500">
	<ele>1879.00</ele>
	<time>2024-07-25T08:27:03.000Z</time>
</trkpt>
<trkpt lat="46.1127250" lon="10.4651630">
	<ele>1878.80</ele>
	<time>2024-07-25T08:27:04.000Z</time>
</trkpt>
<trkpt lat="46.1127270" lon="10.4651820">
	<ele>1878.80</ele>
	<time>2024-07-25T08:27:05.000Z</time>
</trkpt>
<trkpt lat="46.1127260" lon="10.4652000">
	<ele>1878.80</ele>
	<time>2024-07-25T08:27:06.000Z</time>
</trkpt>
<trkpt lat="46.1127240" lon="10.4652180">
	<ele>1878.80</ele>
	<time>2024-07-25T08:27:07.000Z</time>
</trkpt>
<trkpt lat="46.1127230" lon="10.4652340">
	<ele>1878.80</ele>
	<time>2024-07-25T08:27:08.000Z</time>
</trkpt>
<trkpt lat="46.1127250" lon="10.4652510">
	<ele>1878.80</ele>
	<time>2024-07-25T08:27:09.000Z</time>
</trkpt>
<trkpt lat="46.1127240" lon="10.4652700">
	<ele>1878.80</ele>
	<time>2024-07-25T08:27:10.000Z</time>
</trkpt>
<trkpt lat="46.1127240" lon="10.4652900">
	<ele>1878.80</ele>
	<time>2024-07-25T08:27:11.000Z</time>
</trkpt>
<trkpt lat="46.1127260" lon="10.4653130">
	<ele>1878.80</ele>
	<time>2024-07-25T08:27:12.000Z</time>
</trkpt>
<trkpt lat="46.1127280" lon="10.4653340">
	<ele>1878.80</ele>
	<time>2024-07-25T08:27:13.000Z</time>
</trkpt>
<trkpt lat="46.1127230" lon="10.4653520">
	<ele>1878.80</ele>
	<time>2024-07-25T08:27:14.000Z</time>
</trkpt>
<trkpt lat="46.1127160" lon="10.4653640">
	<ele>1878.80</ele>
	<time>2024-07-25T08:27:15.000Z</time>
</trkpt>
<trkpt lat="46.1127080" lon="10.4653800">
	<ele>1879.00</ele>
	<time>2024-07-25T08:27:16.000Z</time>
</trkpt>
<trkpt lat="46.1127040" lon="10.4653950">
	<ele>1879.00</ele>
	<time>2024-07-25T08:27:17.000Z</time>
</trkpt>
<trkpt lat="46.1126950" lon="10.4654090">
	<ele>1879.00</ele>
	<time>2024-07-25T08:27:18.000Z</time>
</trkpt>
<trkpt lat="46.1126840" lon="10.4654240">
	<ele>1879.00</ele>
	<time>2024-07-25T08:27:19.000Z</time>
</trkpt>
<trkpt lat="46.1126720" lon="10.4654360">
	<ele>1879.00</ele>
	<time>2024-07-25T08:27:20.000Z</time>
</trkpt>
<trkpt lat="46.1126690" lon="10.4654490">
	<ele>1879.00</ele>
	<time>2024-07-25T08:27:21.000Z</time>
</trkpt>
<trkpt lat="46.1126630" lon="10.4654620">
	<ele>1879.20</ele>
	<time>2024-07-25T08:27:22.000Z</time>
</trkpt>
<trkpt lat="46.1126550" lon="10.4654750">
	<ele>1879.20</ele>
	<time>2024-07-25T08:27:23.000Z</time>
</trkpt>
<trkpt lat="46.1126450" lon="10.4654850">
	<ele>1879.20</ele>
	<time>2024-07-25T08:27:24.000Z</time>
</trkpt>
<trkpt lat="46.1126380" lon="10.4654980">
	<ele>1879.20</ele>
	<time>2024-07-25T08:27:25.000Z</time>
</trkpt>
<trkpt lat="46.1126360" lon="10.4655110">
	<ele>1879.40</ele>
	<time>2024-07-25T08:27:26.000Z</time>
</trkpt>
<trkpt lat="46.1126250" lon="10.4655320">
	<ele>1879.20</ele>
	<time>2024-07-25T08:27:27.000Z</time>
</trkpt>
<trkpt lat="46.1126170" lon="10.4655500">
	<ele>1879.40</ele>
	<time>2024-07-25T08:27:28.000Z</time>
</trkpt>
<trkpt lat="46.1126060" lon="10.4655650">
	<ele>1879.40</ele>
	<time>2024-07-25T08:27:29.000Z</time>
</trkpt>
<trkpt lat="46.1125950" lon="10.4655790">
	<ele>1879.40</ele>
	<time>2024-07-25T08:27:30.000Z</time>
</trkpt>
<trkpt lat="46.1125880" lon="10.4655980">
	<ele>1879.20</ele>
	<time>2024-07-25T08:27:31.000Z</time>
</trkpt>
<trkpt lat="46.1125830" lon="10.4656150">
	<ele>1879.40</ele>
	<time>2024-07-25T08:27:32.000Z</time>
</trkpt>
<trkpt lat="46.1125800" lon="10.4656340">
	<ele>1879.40</ele>
	<time>2024-07-25T08:27:33.000Z</time>
</trkpt>
<trkpt lat="46.1125760" lon="10.4656500">
	<ele>1879.40</ele>
	<time>2024-07-25T08:27:34.000Z</time>
</trkpt>
<trkpt lat="46.1125740" lon="10.4656630">
	<ele>1879.20</ele>
	<time>2024-07-25T08:27:35.000Z</time>
</trkpt>
<trkpt lat="46.1125700" lon="10.4656810">
	<ele>1879.40</ele>
	<time>2024-07-25T08:27:36.000Z</time>
</trkpt>
<trkpt lat="46.1125680" lon="10.4656940">
	<ele>1879.40</ele>
	<time>2024-07-25T08:27:37.000Z</time>
</trkpt>
<trkpt lat="46.1125630" lon="10.4657140">
	<ele>1879.40</ele>
	<time>2024-07-25T08:27:38.000Z</time>
</trkpt>
<trkpt lat="46.1125580" lon="10.4657330">
	<ele>1879.40</ele>
	<time>2024-07-25T08:27:39.000Z</time>
</trkpt>
<trkpt lat="46.1125530" lon="10.4657490">
	<ele>1879.40</ele>
	<time>2024-07-25T08:27:40.000Z</time>
</trkpt>
<trkpt lat="46.1125500" lon="10.4657690">
	<ele>1879.40</ele>
	<time>2024-07-25T08:27:41.000Z</time>
</trkpt>
<trkpt lat="46.1125490" lon="10.4657900">
	<ele>1879.60</ele>
	<time>2024-07-25T08:27:42.000Z</time>
</trkpt>
<trkpt lat="46.1125520" lon="10.4658150">
	<ele>1879.60</ele>
	<time>2024-07-25T08:27:43.000Z</time>
</trkpt>
<trkpt lat="46.1125460" lon="10.4658320">
	<ele>1879.60</ele>
	<time>2024-07-25T08:27:44.000Z</time>
</trkpt>
<trkpt lat="46.1125500" lon="10.4658550">
	<ele>1879.60</ele>
	<time>2024-07-25T08:27:45.000Z</time>
</trkpt>
<trkpt lat="46.1125510" lon="10.4658710">
	<ele>1879.60</ele>
	<time>2024-07-25T08:27:46.000Z</time>
</trkpt>
<trkpt lat="46.1125490" lon="10.4658890">
	<ele>1879.60</ele>
	<time>2024-07-25T08:27:47.000Z</time>
</trkpt>
<trkpt lat="46.1125510" lon="10.4659120">
	<ele>1879.60</ele>
	<time>2024-07-25T08:27:48.000Z</time>
</trkpt>
<trkpt lat="46.1125540" lon="10.4659310">
	<ele>1879.60</ele>
	<time>2024-07-25T08:27:49.000Z</time>
</trkpt>
<trkpt lat="46.1125580" lon="10.4659500">
	<ele>1879.60</ele>
	<time>2024-07-25T08:27:50.000Z</time>
</trkpt>
<trkpt lat="46.1125610" lon="10.4659690">
	<ele>1879.60</ele>
	<time>2024-07-25T08:27:51.000Z</time>
</trkpt>
<trkpt lat="46.1125610" lon="10.4659920">
	<ele>1879.60</ele>
	<time>2024-07-25T08:27:52.000Z</time>
</trkpt>
<trkpt lat="46.1125610" lon="10.4660090">
	<ele>1879.60</ele>
	<time>2024-07-25T08:27:53.000Z</time>
</trkpt>
<trkpt lat="46.1125600" lon="10.4660300">
	<ele>1879.60</ele>
	<time>2024-07-25T08:27:54.000Z</time>
</trkpt>
<trkpt lat="46.1125600" lon="10.4660570">
	<ele>1879.60</ele>
	<time>2024-07-25T08:27:55.000Z</time>
</trkpt>
<trkpt lat="46.1125630" lon="10.4660780">
	<ele>1879.60</ele>
	<time>2024-07-25T08:27:56.000Z</time>
</trkpt>
<trkpt lat="46.1125660" lon="10.4660990">
	<ele>1879.80</ele>
	<time>2024-07-25T08:27:57.000Z</time>
</trkpt>
<trkpt lat="46.1125700" lon="10.4661190">
	<ele>1879.80</ele>
	<time>2024-07-25T08:27:58.000Z</time>
</trkpt>
<trkpt lat="46.1125730" lon="10.4661370">
	<ele>1879.80</ele>
	<time>2024-07-25T08:27:59.000Z</time>
</trkpt>
<trkpt lat="46.1125750" lon="10.4661510">
	<ele>1879.60</ele>
	<time>2024-07-25T08:28:00.000Z</time>
</trkpt>
<trkpt lat="46.1125800" lon="10.4661610">
	<ele>1879.60</ele>
	<time>2024-07-25T08:28:01.000Z</time>
</trkpt>
<trkpt lat="46.1125850" lon="10.4661750">
	<ele>1879.60</ele>
	<time>2024-07-25T08:28:02.000Z</time>
</trkpt>
<trkpt lat="46.1125910" lon="10.4661860">
	<ele>1879.60</ele>
	<time>2024-07-25T08:28:03.000Z</time>
</trkpt>
<trkpt lat="46.1125930" lon="10.4662000">
	<ele>1879.60</ele>
	<time>2024-07-25T08:28:04.000Z</time>
</trkpt>
<trkpt lat="46.1125970" lon="10.4662070">
	<ele>1879.60</ele>
	<time>2024-07-25T08:28:05.000Z</time>
</trkpt>
<trkpt lat="46.1125970" lon="10.4662120">
	<ele>1879.60</ele>
	<time>2024-07-25T08:28:06.000Z</time>
</trkpt>
<trkpt lat="46.1125970" lon="10.4662150">
	<ele>1879.60</ele>
	<time>2024-07-25T08:28:07.000Z</time>
</trkpt>
<trkpt lat="46.1125970" lon="10.4662170">
	<ele>1879.60</ele>
	<time>2024-07-25T08:28:08.000Z</time>
</trkpt>
<trkpt lat="46.1125800" lon="10.4662250">
	<ele>1879.80</ele>
	<time>2024-07-25T08:28:09.000Z</time>
</trkpt>
<trkpt lat="46.1125820" lon="10.4662270">
	<ele>1879.80</ele>
	<time>2024-07-25T08:28:10.000Z</time>
</trkpt>
<trkpt lat="46.1125820" lon="10.4662280">
	<ele>1879.80</ele>
	<time>2024-07-25T08:28:11.000Z</time>
</trkpt>
<trkpt lat="46.1125810" lon="10.4662280">
	<ele>1879.80</ele>
	<time>2024-07-25T08:28:12.000Z</time>
</trkpt>
<trkpt lat="46.1125790" lon="10.4662290">
	<ele>1879.80</ele>
	<time>2024-07-25T08:28:13.000Z</time>
</trkpt>
<trkpt lat="46.1125780" lon="10.4662290">
	<ele>1879.80</ele>
	<time>2024-07-25T08:28:14.000Z</time>
</trkpt>
<trkpt lat="46.1125770" lon="10.4662290">
	<ele>1879.80</ele>
	<time>2024-07-25T08:28:15.000Z</time>
</trkpt>
<trkpt lat="46.1125760" lon="10.4662300">
	<ele>1879.80</ele>
	<time>2024-07-25T08:28:16.000Z</time>
</trkpt>
<trkpt lat="46.1125770" lon="10.4662340">
	<ele>1879.80</ele>
	<time>2024-07-25T08:28:17.000Z</time>
</trkpt>
<trkpt lat="46.1125800" lon="10.4662440">
	<ele>1879.80</ele>
	<time>2024-07-25T08:28:18.000Z</time>
</trkpt>
<trkpt lat="46.1125830" lon="10.4662540">
	<ele>1879.80</ele>
	<time>2024-07-25T08:28:19.000Z</time>
</trkpt>
<trkpt lat="46.1125900" lon="10.4662690">
	<ele>1879.60</ele>
	<time>2024-07-25T08:28:20.000Z</time>
</trkpt>
<trkpt lat="46.1125960" lon="10.4662860">
	<ele>1879.60</ele>
	<time>2024-07-25T08:28:21.000Z</time>
</trkpt>
<trkpt lat="46.1126040" lon="10.4663050">
	<ele>1879.60</ele>
	<time>2024-07-25T08:28:22.000Z</time>
</trkpt>
<trkpt lat="46.1126100" lon="10.4663230">
	<ele>1879.60</ele>
	<time>2024-07-25T08:28:23.000Z</time>
</trkpt>
<trkpt lat="46.1126180" lon="10.4663360">
	<ele>1879.60</ele>
	<time>2024-07-25T08:28:24.000Z</time>
</trkpt>
<trkpt lat="46.1126250" lon="10.4663480">
	<ele>1879.60</ele>
	<time>2024-07-25T08:28:25.000Z</time>
</trkpt>
<trkpt lat="46.1126330" lon="10.4663680">
	<ele>1879.60</ele>
	<time>2024-07-25T08:28:26.000Z</time>
</trkpt>
<trkpt lat="46.1126360" lon="10.4663830">
	<ele>1879.60</ele>
	<time>2024-07-25T08:28:27.000Z</time>
</trkpt>
<trkpt lat="46.1126400" lon="10.4664010">
	<ele>1879.80</ele>
	<time>2024-07-25T08:28:28.000Z</time>
</trkpt>
<trkpt lat="46.1126470" lon="10.4664180">
	<ele>1879.80</ele>
	<time>2024-07-25T08:28:29.000Z</time>
</trkpt>
<trkpt lat="46.1126550" lon="10.4664450">
	<ele>1879.80</ele>
	<time>2024-07-25T08:28:30.000Z</time>
</trkpt>
<trkpt lat="46.1126600" lon="10.4664680">
	<ele>1879.80</ele>
	<time>2024-07-25T08:28:31.000Z</time>
</trkpt>
<trkpt lat="46.1126610" lon="10.4664820">
	<ele>1879.80</ele>
	<time>2024-07-25T08:28:32.000Z</time>
</trkpt>
<trkpt lat="46.1126650" lon="10.4664980">
	<ele>1879.60</ele>
	<time>2024-07-25T08:28:33.000Z</time>
</trkpt>
<trkpt lat="46.1126740" lon="10.4665110">
	<ele>1879.60</ele>
	<time>2024-07-25T08:28:34.000Z</time>
</trkpt>
<trkpt lat="46.1126810" lon="10.4665220">
	<ele>1879.60</ele>
	<time>2024-07-25T08:28:35.000Z</time>
</trkpt>
<trkpt lat="46.1126830" lon="10.4665330">
	<ele>1879.60</ele>
	<time>2024-07-25T08:28:36.000Z</time>
</trkpt>
<trkpt lat="46.1126960" lon="10.4665510">
	<ele>1879.60</ele>
	<time>2024-07-25T08:28:37.000Z</time>
</trkpt>
<trkpt lat="46.1127050" lon="10.4665650">
	<ele>1879.60</ele>
	<time>2024-07-25T08:28:38.000Z</time>
</trkpt>
<trkpt lat="46.1127070" lon="10.4665830">
	<ele>1879.60</ele>
	<time>2024-07-25T08:28:39.000Z</time>
</trkpt>
<trkpt lat="46.1127090" lon="10.4665990">
	<ele>1879.60</ele>
	<time>2024-07-25T08:28:40.000Z</time>
</trkpt>
<trkpt lat="46.1127120" lon="10.4666190">
	<ele>1879.60</ele>
	<time>2024-07-25T08:28:41.000Z</time>
</trkpt>
<trkpt lat="46.1127160" lon="10.4666410">
	<ele>1879.60</ele>
	<time>2024-07-25T08:28:42.000Z</time>
</trkpt>
<trkpt lat="46.1127220" lon="10.4666660">
	<ele>1879.60</ele>
	<time>2024-07-25T08:28:43.000Z</time>
</trkpt>
<trkpt lat="46.1127270" lon="10.4666860">
	<ele>1879.60</ele>
	<time>2024-07-25T08:28:44.000Z</time>
</trkpt>
<trkpt lat="46.1127310" lon="10.4667050">
	<ele>1879.60</ele>
	<time>2024-07-25T08:28:45.000Z</time>
</trkpt>
<trkpt lat="46.1127340" lon="10.4667190">
	<ele>1879.40</ele>
	<time>2024-07-25T08:28:46.000Z</time>
</trkpt>
<trkpt lat="46.1127340" lon="10.4667270">
	<ele>1879.40</ele>
	<time>2024-07-25T08:28:47.000Z</time>
</trkpt>
<trkpt lat="46.1127350" lon="10.4667410">
	<ele>1879.40</ele>
	<time>2024-07-25T08:28:48.000Z</time>
</trkpt>
<trkpt lat="46.1127400" lon="10.4667620">
	<ele>1879.60</ele>
	<time>2024-07-25T08:28:49.000Z</time>
</trkpt>
<trkpt lat="46.1127420" lon="10.4667810">
	<ele>1879.60</ele>
	<time>2024-07-25T08:28:50.000Z</time>
</trkpt>
<trkpt lat="46.1127420" lon="10.4668000">
	<ele>1879.60</ele>
	<time>2024-07-25T08:28:51.000Z</time>
</trkpt>
<trkpt lat="46.1127440" lon="10.4668200">
	<ele>1879.60</ele>
	<time>2024-07-25T08:28:52.000Z</time>
</trkpt>
<trkpt lat="46.1127440" lon="10.4668370">
	<ele>1879.80</ele>
	<time>2024-07-25T08:28:53.000Z</time>
</trkpt>
<trkpt lat="46.1127390" lon="10.4668520">
	<ele>1879.80</ele>
	<time>2024-07-25T08:28:54.000Z</time>
</trkpt>
<trkpt lat="46.1127310" lon="10.4668730">
	<ele>1880.00</ele>
	<time>2024-07-25T08:28:55.000Z</time>
</trkpt>
<trkpt lat="46.1127240" lon="10.4668900">
	<ele>1880.00</ele>
	<time>2024-07-25T08:28:56.000Z</time>
</trkpt>
<trkpt lat="46.1127180" lon="10.4669080">
	<ele>1880.00</ele>
	<time>2024-07-25T08:28:57.000Z</time>
</trkpt>
<trkpt lat="46.1127150" lon="10.4669250">
	<ele>1880.00</ele>
	<time>2024-07-25T08:28:58.000Z</time>
</trkpt>
<trkpt lat="46.1127140" lon="10.4669430">
	<ele>1880.00</ele>
	<time>2024-07-25T08:28:59.000Z</time>
</trkpt>
<trkpt lat="46.1127110" lon="10.4669570">
	<ele>1880.00</ele>
	<time>2024-07-25T08:29:00.000Z</time>
</trkpt>
<trkpt lat="46.1127080" lon="10.4669770">
	<ele>1880.00</ele>
	<time>2024-07-25T08:29:01.000Z</time>
</trkpt>
<trkpt lat="46.1127030" lon="10.4669930">
	<ele>1880.00</ele>
	<time>2024-07-25T08:29:02.000Z</time>
</trkpt>
<trkpt lat="46.1127010" lon="10.4670100">
	<ele>1880.00</ele>
	<time>2024-07-25T08:29:03.000Z</time>
</trkpt>
<trkpt lat="46.1126970" lon="10.4670260">
	<ele>1880.00</ele>
	<time>2024-07-25T08:29:04.000Z</time>
</trkpt>
<trkpt lat="46.1126940" lon="10.4670410">
	<ele>1880.00</ele>
	<time>2024-07-25T08:29:05.000Z</time>
</trkpt>
<trkpt lat="46.1126930" lon="10.4670530">
	<ele>1880.00</ele>
	<time>2024-07-25T08:29:06.000Z</time>
</trkpt>
<trkpt lat="46.1126890" lon="10.4670690">
	<ele>1880.00</ele>
	<time>2024-07-25T08:29:07.000Z</time>
</trkpt>
<trkpt lat="46.1126850" lon="10.4670880">
	<ele>1880.00</ele>
	<time>2024-07-25T08:29:08.000Z</time>
</trkpt>
<trkpt lat="46.1126820" lon="10.4671040">
	<ele>1880.00</ele>
	<time>2024-07-25T08:29:09.000Z</time>
</trkpt>
<trkpt lat="46.1126810" lon="10.4671200">
	<ele>1880.00</ele>
	<time>2024-07-25T08:29:10.000Z</time>
</trkpt>
<trkpt lat="46.1126790" lon="10.4671370">
	<ele>1880.20</ele>
	<time>2024-07-25T08:29:11.000Z</time>
</trkpt>
<trkpt lat="46.1126740" lon="10.4671540">
	<ele>1880.20</ele>
	<time>2024-07-25T08:29:12.000Z</time>
</trkpt>
<trkpt lat="46.1126730" lon="10.4671720">
	<ele>1880.20</ele>
	<time>2024-07-25T08:29:13.000Z</time>
</trkpt>
<trkpt lat="46.1126720" lon="10.4671900">
	<ele>1880.20</ele>
	<time>2024-07-25T08:29:14.000Z</time>
</trkpt>
<trkpt lat="46.1126700" lon="10.4672070">
	<ele>1880.20</ele>
	<time>2024-07-25T08:29:15.000Z</time>
</trkpt>
<trkpt lat="46.1126720" lon="10.4672300">
	<ele>1880.20</ele>
	<time>2024-07-25T08:29:16.000Z</time>
</trkpt>
<trkpt lat="46.1126730" lon="10.4672480">
	<ele>1880.40</ele>
	<time>2024-07-25T08:29:17.000Z</time>
</trkpt>
<trkpt lat="46.1126750" lon="10.4672640">
	<ele>1880.40</ele>
	<time>2024-07-25T08:29:18.000Z</time>
</trkpt>
<trkpt lat="46.1126750" lon="10.4672830">
	<ele>1880.60</ele>
	<time>2024-07-25T08:29:19.000Z</time>
</trkpt>
<trkpt lat="46.1126760" lon="10.4673000">
	<ele>1880.60</ele>
	<time>2024-07-25T08:29:20.000Z</time>
</trkpt>
<trkpt lat="46.1126750" lon="10.4673170">
	<ele>1880.80</ele>
	<time>2024-07-25T08:29:21.000Z</time>
</trkpt>
<trkpt lat="46.1126760" lon="10.4673340">
	<ele>1881.00</ele>
	<time>2024-07-25T08:29:22.000Z</time>
</trkpt>
<trkpt lat="46.1126740" lon="10.4673470">
	<ele>1881.00</ele>
	<time>2024-07-25T08:29:23.000Z</time>
</trkpt>
<trkpt lat="46.1126710" lon="10.4673640">
	<ele>1881.20</ele>
	<time>2024-07-25T08:29:24.000Z</time>
</trkpt>
<trkpt lat="46.1126680" lon="10.4673810">
	<ele>1881.20</ele>
	<time>2024-07-25T08:29:25.000Z</time>
</trkpt>
<trkpt lat="46.1126650" lon="10.4673950">
	<ele>1881.20</ele>
	<time>2024-07-25T08:29:26.000Z</time>
</trkpt>
<trkpt lat="46.1126610" lon="10.4674090">
	<ele>1881.40</ele>
	<time>2024-07-25T08:29:27.000Z</time>
</trkpt>
<trkpt lat="46.1126600" lon="10.4674250">
	<ele>1881.60</ele>
	<time>2024-07-25T08:29:28.000Z</time>
</trkpt>
<trkpt lat="46.1126580" lon="10.4674350">
	<ele>1881.80</ele>
	<time>2024-07-25T08:29:29.000Z</time>
</trkpt>
<trkpt lat="46.1126570" lon="10.4674490">
	<ele>1881.80</ele>
	<time>2024-07-25T08:29:30.000Z</time>
</trkpt>
<trkpt lat="46.1126550" lon="10.4674630">
	<ele>1882.00</ele>
	<time>2024-07-25T08:29:31.000Z</time>
</trkpt>
<trkpt lat="46.1126520" lon="10.4674770">
	<ele>1882.20</ele>
	<time>2024-07-25T08:29:32.000Z</time>
</trkpt>
<trkpt lat="46.1126510" lon="10.4674920">
	<ele>1882.20</ele>
	<time>2024-07-25T08:29:33.000Z</time>
</trkpt>
<trkpt lat="46.1126520" lon="10.4675010">
	<ele>1882.40</ele>
	<time>2024-07-25T08:29:34.000Z</time>
</trkpt>
<trkpt lat="46.1126490" lon="10.4675170">
	<ele>1882.80</ele>
	<time>2024-07-25T08:29:35.000Z</time>
</trkpt>
<trkpt lat="46.1126470" lon="10.4675310">
	<ele>1882.80</ele>
	<time>2024-07-25T08:29:36.000Z</time>
</trkpt>
<trkpt lat="46.1126450" lon="10.4675460">
	<ele>1883.00</ele>
	<time>2024-07-25T08:29:37.000Z</time>
</trkpt>
<trkpt lat="46.1126450" lon="10.4675620">
	<ele>1883.20</ele>
	<time>2024-07-25T08:29:38.000Z</time>
</trkpt>
<trkpt lat="46.1126440" lon="10.4675760">
	<ele>1883.40</ele>
	<time>2024-07-25T08:29:39.000Z</time>
</trkpt>
<trkpt lat="46.1126400" lon="10.4675880">
	<ele>1883.40</ele>
	<time>2024-07-25T08:29:40.000Z</time>
</trkpt>
<trkpt lat="46.1126370" lon="10.4675990">
	<ele>1883.60</ele>
	<time>2024-07-25T08:29:41.000Z</time>
</trkpt>
<trkpt lat="46.1126380" lon="10.4676140">
	<ele>1883.80</ele>
	<time>2024-07-25T08:29:42.000Z</time>
</trkpt>
<trkpt lat="46.1126350" lon="10.4676280">
	<ele>1884.00</ele>
	<time>2024-07-25T08:29:43.000Z</time>
</trkpt>
<trkpt lat="46.1126340" lon="10.4676410">
	<ele>1884.00</ele>
	<time>2024-07-25T08:29:44.000Z</time>
</trkpt>
<trkpt lat="46.1126350" lon="10.4676540">
	<ele>1884.40</ele>
	<time>2024-07-25T08:29:45.000Z</time>
</trkpt>
<trkpt lat="46.1126380" lon="10.4676680">
	<ele>1884.80</ele>
	<time>2024-07-25T08:29:46.000Z</time>
</trkpt>
<trkpt lat="46.1126380" lon="10.4676810">
	<ele>1884.80</ele>
	<time>2024-07-25T08:29:47.000Z</time>
</trkpt>
<trkpt lat="46.1126360" lon="10.4676920">
	<ele>1885.20</ele>
	<time>2024-07-25T08:29:48.000Z</time>
</trkpt>
<trkpt lat="46.1126340" lon="10.4677050">
	<ele>1885.20</ele>
	<time>2024-07-25T08:29:49.000Z</time>
</trkpt>
<trkpt lat="46.1126320" lon="10.4677200">
	<ele>1885.40</ele>
	<time>2024-07-25T08:29:50.000Z</time>
</trkpt>
<trkpt lat="46.1126290" lon="10.4677320">
	<ele>1885.60</ele>
	<time>2024-07-25T08:29:51.000Z</time>
</trkpt>
<trkpt lat="46.1126300" lon="10.4677480">
	<ele>1885.80</ele>
	<time>2024-07-25T08:29:52.000Z</time>
</trkpt>
<trkpt lat="46.1126300" lon="10.4677620">
	<ele>1885.80</ele>
	<time>2024-07-25T08:29:53.000Z</time>
</trkpt>
<trkpt lat="46.1126240" lon="10.4677760">
	<ele>1886.00</ele>
	<time>2024-07-25T08:29:54.000Z</time>
</trkpt>
<trkpt lat="46.1126210" lon="10.4677870">
	<ele>1886.20</ele>
	<time>2024-07-25T08:29:55.000Z</time>
</trkpt>
<trkpt lat="46.1126200" lon="10.4678000">
	<ele>1886.40</ele>
	<time>2024-07-25T08:29:56.000Z</time>
</trkpt>
<trkpt lat="46.1126210" lon="10.4678140">
	<ele>1886.60</ele>
	<time>2024-07-25T08:29:57.000Z</time>
</trkpt>
<trkpt lat="46.1126220" lon="10.4678290">
	<ele>1886.80</ele>
	<time>2024-07-25T08:29:58.000Z</time>
</trkpt>
<trkpt lat="46.1126250" lon="10.4678440">
	<ele>1887.00</ele>
	<time>2024-07-25T08:29:59.000Z</time>
</trkpt>
<trkpt lat="46.1126260" lon="10.4678550">
	<ele>1887.00</ele>
	<time>2024-07-25T08:30:00.000Z</time>
</trkpt>
<trkpt lat="46.1126270" lon="10.4678650">
	<ele>1887.20</ele>
	<time>2024-07-25T08:30:01.000Z</time>
</trkpt>
<trkpt lat="46.1126300" lon="10.4678810">
	<ele>1887.40</ele>
	<time>2024-07-25T08:30:02.000Z</time>
</trkpt>
<trkpt lat="46.1126310" lon="10.4678950">
	<ele>1887.60</ele>
	<time>2024-07-25T08:30:03.000Z</time>
</trkpt>
<trkpt lat="46.1126330" lon="10.4679070">
	<ele>1888.00</ele>
	<time>2024-07-25T08:30:04.000Z</time>
</trkpt>
<trkpt lat="46.1126350" lon="10.4679200">
	<ele>1888.20</ele>
	<time>2024-07-25T08:30:05.000Z</time>
</trkpt>
<trkpt lat="46.1126390" lon="10.4679300">
	<ele>1888.20</ele>
	<time>2024-07-25T08:30:06.000Z</time>
</trkpt>
<trkpt lat="46.1126420" lon="10.4679410">
	<ele>1888.40</ele>
	<time>2024-07-25T08:30:07.000Z</time>
</trkpt>
<trkpt lat="46.1126460" lon="10.4679530">
	<ele>1888.40</ele>
	<time>2024-07-25T08:30:08.000Z</time>
</trkpt>
<trkpt lat="46.1126480" lon="10.4679650">
	<ele>1888.60</ele>
	<time>2024-07-25T08:30:09.000Z</time>
</trkpt>
<trkpt lat="46.1126490" lon="10.4679780">
	<ele>1888.80</ele>
	<time>2024-07-25T08:30:10.000Z</time>
</trkpt>
<trkpt lat="46.1126520" lon="10.4679920">
	<ele>1888.80</ele>
	<time>2024-07-25T08:30:11.000Z</time>
</trkpt>
<trkpt lat="46.1126530" lon="10.4680040">
	<ele>1889.00</ele>
	<time>2024-07-25T08:30:12.000Z</time>
</trkpt>
<trkpt lat="46.1126530" lon="10.4680130">
	<ele>1889.00</ele>
	<time>2024-07-25T08:30:13.000Z</time>
</trkpt>
<trkpt lat="46.1126540" lon="10.4680240">
	<ele>1889.20</ele>
	<time>2024-07-25T08:30:14.000Z</time>
</trkpt>
<trkpt lat="46.1126540" lon="10.4680370">
	<ele>1889.40</ele>
	<time>2024-07-25T08:30:15.000Z</time>
</trkpt>
<trkpt lat="46.1126550" lon="10.4680500">
	<ele>1889.60</ele>
	<time>2024-07-25T08:30:16.000Z</time>
</trkpt>
<trkpt lat="46.1126590" lon="10.4680650">
	<ele>1889.80</ele>
	<time>2024-07-25T08:30:17.000Z</time>
</trkpt>
<trkpt lat="46.1126600" lon="10.4680760">
	<ele>1890.00</ele>
	<time>2024-07-25T08:30:18.000Z</time>
</trkpt>
<trkpt lat="46.1126570" lon="10.4680810">
	<ele>1890.20</ele>
	<time>2024-07-25T08:30:19.000Z</time>
</trkpt>
<trkpt lat="46.1126560" lon="10.4680890">
	<ele>1890.20</ele>
	<time>2024-07-25T08:30:20.000Z</time>
</trkpt>
<trkpt lat="46.1126580" lon="10.4680990">
	<ele>1890.40</ele>
	<time>2024-07-25T08:30:21.000Z</time>
</trkpt>
<trkpt lat="46.1126610" lon="10.4681110">
	<ele>1890.60</ele>
	<time>2024-07-25T08:30:22.000Z</time>
</trkpt>
<trkpt lat="46.1126660" lon="10.4681260">
	<ele>1890.60</ele>
	<time>2024-07-25T08:30:23.000Z</time>
</trkpt>
<trkpt lat="46.1126720" lon="10.4681400">
	<ele>1890.80</ele>
	<time>2024-07-25T08:30:24.000Z</time>
</trkpt>
<trkpt lat="46.1126730" lon="10.4681550">
	<ele>1891.00</ele>
	<time>2024-07-25T08:30:25.000Z</time>
</trkpt>
<trkpt lat="46.1126710" lon="10.4681730">
	<ele>1891.20</ele>
	<time>2024-07-25T08:30:26.000Z</time>
</trkpt>
<trkpt lat="46.1126710" lon="10.4681850">
	<ele>1891.40</ele>
	<time>2024-07-25T08:30:27.000Z</time>
</trkpt>
<trkpt lat="46.1126740" lon="10.4681940">
	<ele>1891.40</ele>
	<time>2024-07-25T08:30:28.000Z</time>
</trkpt>
<trkpt lat="46.1126770" lon="10.4682080">
	<ele>1891.60</ele>
	<time>2024-07-25T08:30:29.000Z</time>
</trkpt>
<trkpt lat="46.1126800" lon="10.4682200">
	<ele>1891.60</ele>
	<time>2024-07-25T08:30:30.000Z</time>
</trkpt>
<trkpt lat="46.1126820" lon="10.4682320">
	<ele>1891.80</ele>
	<time>2024-07-25T08:30:31.000Z</time>
</trkpt>
<trkpt lat="46.1126810" lon="10.4682440">
	<ele>1891.80</ele>
	<time>2024-07-25T08:30:32.000Z</time>
</trkpt>
<trkpt lat="46.1126800" lon="10.4682550">
	<ele>1892.00</ele>
	<time>2024-07-25T08:30:33.000Z</time>
</trkpt>
<trkpt lat="46.1126850" lon="10.4682670">
	<ele>1892.20</ele>
	<time>2024-07-25T08:30:34.000Z</time>
</trkpt>
<trkpt lat="46.1126890" lon="10.4682760">
	<ele>1892.40</ele>
	<time>2024-07-25T08:30:35.000Z</time>
</trkpt>
<trkpt lat="46.1126930" lon="10.4682880">
	<ele>1892.40</ele>
	<time>2024-07-25T08:30:36.000Z</time>
</trkpt>
<trkpt lat="46.1126950" lon="10.4683000">
	<ele>1892.80</ele>
	<time>2024-07-25T08:30:37.000Z</time>
</trkpt>
<trkpt lat="46.1126960" lon="10.4683120">
	<ele>1892.80</ele>
	<time>2024-07-25T08:30:38.000Z</time>
</trkpt>
<trkpt lat="46.1126980" lon="10.4683260">
	<ele>1893.00</ele>
	<time>2024-07-25T08:30:39.000Z</time>
</trkpt>
<trkpt lat="46.1127000" lon="10.4683410">
	<ele>1893.20</ele>
	<time>2024-07-25T08:30:40.000Z</time>
</trkpt>
<trkpt lat="46.1127000" lon="10.4683530">
	<ele>1893.40</ele>
	<time>2024-07-25T08:30:41.000Z</time>
</trkpt>
<trkpt lat="46.1127020" lon="10.4683630">
	<ele>1893.60</ele>
	<time>2024-07-25T08:30:42.000Z</time>
</trkpt>
<trkpt lat="46.1127010" lon="10.4683780">
	<ele>1893.80</ele>
	<time>2024-07-25T08:30:43.000Z</time>
</trkpt>
<trkpt lat="46.1127000" lon="10.4683890">
	<ele>1894.00</ele>
	<time>2024-07-25T08:30:44.000Z</time>
</trkpt>
<trkpt lat="46.1126960" lon="10.4684040">
	<ele>1894.20</ele>
	<time>2024-07-25T08:30:45.000Z</time>
</trkpt>
<trkpt lat="46.1126920" lon="10.4684160">
	<ele>1894.20</ele>
	<time>2024-07-25T08:30:46.000Z</time>
</trkpt>
<trkpt lat="46.1126890" lon="10.4684310">
	<ele>1894.40</ele>
	<time>2024-07-25T08:30:47.000Z</time>
</trkpt>
<trkpt lat="46.1126900" lon="10.4684410">
	<ele>1894.60</ele>
	<time>2024-07-25T08:30:48.000Z</time>
</trkpt>
<trkpt lat="46.1126890" lon="10.4684560">
	<ele>1894.60</ele>
	<time>2024-07-25T08:30:49.000Z</time>
</trkpt>
<trkpt lat="46.1126870" lon="10.4684670">
	<ele>1894.60</ele>
	<time>2024-07-25T08:30:50.000Z</time>
</trkpt>
<trkpt lat="46.1126870" lon="10.4684760">
	<ele>1895.00</ele>
	<time>2024-07-25T08:30:51.000Z</time>
</trkpt>
<trkpt lat="46.1126850" lon="10.4684870">
	<ele>1895.00</ele>
	<time>2024-07-25T08:30:52.000Z</time>
</trkpt>
<trkpt lat="46.1126820" lon="10.4684990">
	<ele>1895.20</ele>
	<time>2024-07-25T08:30:53.000Z</time>
</trkpt>
<trkpt lat="46.1126770" lon="10.4685110">
	<ele>1895.20</ele>
	<time>2024-07-25T08:30:54.000Z</time>
</trkpt>
<trkpt lat="46.1126730" lon="10.4685230">
	<ele>1895.40</ele>
	<time>2024-07-25T08:30:55.000Z</time>
</trkpt>
<trkpt lat="46.1126720" lon="10.4685340">
	<ele>1895.80</ele>
	<time>2024-07-25T08:30:56.000Z</time>
</trkpt>
<trkpt lat="46.1126690" lon="10.4685450">
	<ele>1896.00</ele>
	<time>2024-07-25T08:30:57.000Z</time>
</trkpt>
<trkpt lat="46.1126670" lon="10.4685580">
	<ele>1896.20</ele>
	<time>2024-07-25T08:30:58.000Z</time>
</trkpt>
<trkpt lat="46.1126640" lon="10.4685690">
	<ele>1896.20</ele>
	<time>2024-07-25T08:30:59.000Z</time>
</trkpt>
<trkpt lat="46.1126650" lon="10.4685820">
	<ele>1896.40</ele>
	<time>2024-07-25T08:31:00.000Z</time>
</trkpt>
<trkpt lat="46.1126640" lon="10.4685930">
	<ele>1896.60</ele>
	<time>2024-07-25T08:31:01.000Z</time>
</trkpt>
<trkpt lat="46.1126630" lon="10.4686050">
	<ele>1896.80</ele>
	<time>2024-07-25T08:31:02.000Z</time>
</trkpt>
<trkpt lat="46.1126590" lon="10.4686140">
	<ele>1896.80</ele>
	<time>2024-07-25T08:31:03.000Z</time>
</trkpt>
<trkpt lat="46.1126580" lon="10.4686230">
	<ele>1897.00</ele>
	<time>2024-07-25T08:31:04.000Z</time>
</trkpt>
<trkpt lat="46.1126530" lon="10.4686300">
	<ele>1897.20</ele>
	<time>2024-07-25T08:31:05.000Z</time>
</trkpt>
<trkpt lat="46.1126470" lon="10.4686430">
	<ele>1897.40</ele>
	<time>2024-07-25T08:31:06.000Z</time>
</trkpt>
<trkpt lat="46.1126480" lon="10.4686570">
	<ele>1897.60</ele>
	<time>2024-07-25T08:31:07.000Z</time>
</trkpt>
<trkpt lat="46.1126480" lon="10.4686710">
	<ele>1897.80</ele>
	<time>2024-07-25T08:31:08.000Z</time>
</trkpt>
<trkpt lat="46.1126440" lon="10.4686810">
	<ele>1897.80</ele>
	<time>2024-07-25T08:31:09.000Z</time>
</trkpt>
<trkpt lat="46.1126380" lon="10.4686950">
	<ele>1897.80</ele>
	<time>2024-07-25T08:31:10.000Z</time>
</trkpt>
<trkpt lat="46.1126320" lon="10.4687080">
	<ele>1898.00</ele>
	<time>2024-07-25T08:31:11.000Z</time>
</trkpt>
<trkpt lat="46.1126280" lon="10.4687230">
	<ele>1898.00</ele>
	<time>2024-07-25T08:31:12.000Z</time>
</trkpt>
<trkpt lat="46.1126270" lon="10.4687370">
	<ele>1898.20</ele>
	<time>2024-07-25T08:31:13.000Z</time>
</trkpt>
<trkpt lat="46.1126270" lon="10.4687480">
	<ele>1898.40</ele>
	<time>2024-07-25T08:31:14.000Z</time>
</trkpt>
<trkpt lat="46.1126270" lon="10.4687580">
	<ele>1898.60</ele>
	<time>2024-07-25T08:31:15.000Z</time>
</trkpt>
<trkpt lat="46.1126240" lon="10.4687670">
	<ele>1898.80</ele>
	<time>2024-07-25T08:31:16.000Z</time>
</trkpt>
<trkpt lat="46.1126200" lon="10.4687780">
	<ele>1899.00</ele>
	<time>2024-07-25T08:31:17.000Z</time>
</trkpt>
<trkpt lat="46.1126170" lon="10.4687910">
	<ele>1899.00</ele>
	<time>2024-07-25T08:31:18.000Z</time>
</trkpt>
<trkpt lat="46.1126130" lon="10.4688010">
	<ele>1899.20</ele>
	<time>2024-07-25T08:31:19.000Z</time>
</trkpt>
<trkpt lat="46.1126090" lon="10.4688160">
	<ele>1899.40</ele>
	<time>2024-07-25T08:31:20.000Z</time>
</trkpt>
<trkpt lat="46.1126090" lon="10.4688330">
	<ele>1899.40</ele>
	<time>2024-07-25T08:31:21.000Z</time>
</trkpt>
<trkpt lat="46.1126110" lon="10.4688480">
	<ele>1899.60</ele>
	<time>2024-07-25T08:31:22.000Z</time>
</trkpt>
<trkpt lat="46.1126080" lon="10.4688600">
	<ele>1899.80</ele>
	<time>2024-07-25T08:31:23.000Z</time>
</trkpt>
<trkpt lat="46.1126090" lon="10.4688740">
	<ele>1900.00</ele>
	<time>2024-07-25T08:31:24.000Z</time>
</trkpt>
<trkpt lat="46.1126080" lon="10.4688880">
	<ele>1900.20</ele>
	<time>2024-07-25T08:31:25.000Z</time>
</trkpt>
<trkpt lat="46.1126060" lon="10.4688990">
	<ele>1900.40</ele>
	<time>2024-07-25T08:31:26.000Z</time>
</trkpt>
<trkpt lat="46.1126010" lon="10.4689100">
	<ele>1900.40</ele>
	<time>2024-07-25T08:31:27.000Z</time>
</trkpt>
<trkpt lat="46.1125980" lon="10.4689220">
	<ele>1900.60</ele>
	<time>2024-07-25T08:31:28.000Z</time>
</trkpt>
<trkpt lat="46.1125950" lon="10.4689340">
	<ele>1900.80</ele>
	<time>2024-07-25T08:31:29.000Z</time>
</trkpt>
<trkpt lat="46.1125940" lon="10.4689470">
	<ele>1901.00</ele>
	<time>2024-07-25T08:31:30.000Z</time>
</trkpt>
<trkpt lat="46.1125910" lon="10.4689610">
	<ele>1901.20</ele>
	<time>2024-07-25T08:31:31.000Z</time>
</trkpt>
<trkpt lat="46.1125880" lon="10.4689750">
	<ele>1901.20</ele>
	<time>2024-07-25T08:31:32.000Z</time>
</trkpt>
<trkpt lat="46.1125850" lon="10.4689870">
	<ele>1901.40</ele>
	<time>2024-07-25T08:31:33.000Z</time>
</trkpt>
<trkpt lat="46.1125820" lon="10.4689990">
	<ele>1901.60</ele>
	<time>2024-07-25T08:31:34.000Z</time>
</trkpt>
<trkpt lat="46.1125780" lon="10.4690120">
	<ele>1901.80</ele>
	<time>2024-07-25T08:31:35.000Z</time>
</trkpt>
<trkpt lat="46.1125760" lon="10.4690280">
	<ele>1901.80</ele>
	<time>2024-07-25T08:31:36.000Z</time>
</trkpt>
<trkpt lat="46.1125730" lon="10.4690420">
	<ele>1902.00</ele>
	<time>2024-07-25T08:31:37.000Z</time>
</trkpt>
<trkpt lat="46.1125690" lon="10.4690540">
	<ele>1902.20</ele>
	<time>2024-07-25T08:31:38.000Z</time>
</trkpt>
<trkpt lat="46.1125650" lon="10.4690670">
	<ele>1902.20</ele>
	<time>2024-07-25T08:31:39.000Z</time>
</trkpt>
<trkpt lat="46.1125580" lon="10.4690810">
	<ele>1902.40</ele>
	<time>2024-07-25T08:31:40.000Z</time>
</trkpt>
<trkpt lat="46.1125540" lon="10.4690920">
	<ele>1902.60</ele>
	<time>2024-07-25T08:31:41.000Z</time>
</trkpt>
<trkpt lat="46.1125480" lon="10.4691060">
	<ele>1902.60</ele>
	<time>2024-07-25T08:31:42.000Z</time>
</trkpt>
<trkpt lat="46.1125410" lon="10.4691160">
	<ele>1902.80</ele>
	<time>2024-07-25T08:31:43.000Z</time>
</trkpt>
<trkpt lat="46.1125370" lon="10.4691290">
	<ele>1902.80</ele>
	<time>2024-07-25T08:31:44.000Z</time>
</trkpt>
<trkpt lat="46.1125300" lon="10.4691440">
	<ele>1902.80</ele>
	<time>2024-07-25T08:31:45.000Z</time>
</trkpt>
<trkpt lat="46.1125250" lon="10.4691530">
	<ele>1903.00</ele>
	<time>2024-07-25T08:31:46.000Z</time>
</trkpt>
<trkpt lat="46.1125210" lon="10.4691710">
	<ele>1903.00</ele>
	<time>2024-07-25T08:31:47.000Z</time>
</trkpt>
<trkpt lat="46.1125160" lon="10.4691820">
	<ele>1903.20</ele>
	<time>2024-07-25T08:31:48.000Z</time>
</trkpt>
<trkpt lat="46.1125100" lon="10.4691930">
	<ele>1903.20</ele>
	<time>2024-07-25T08:31:49.000Z</time>
</trkpt>
<trkpt lat="46.1125070" lon="10.4692030">
	<ele>1903.20</ele>
	<time>2024-07-25T08:31:50.000Z</time>
</trkpt>
<trkpt lat="46.1125050" lon="10.4692180">
	<ele>1903.20</ele>
	<time>2024-07-25T08:31:51.000Z</time>
</trkpt>
<trkpt lat="46.1124970" lon="10.4692310">
	<ele>1903.40</ele>
	<time>2024-07-25T08:31:52.000Z</time>
</trkpt>
<trkpt lat="46.1124930" lon="10.4692440">
	<ele>1903.40</ele>
	<time>2024-07-25T08:31:53.000Z</time>
</trkpt>
<trkpt lat="46.1124880" lon="10.4692570">
	<ele>1903.40</ele>
	<time>2024-07-25T08:31:54.000Z</time>
</trkpt>
<trkpt lat="46.1124830" lon="10.4692710">
	<ele>1903.40</ele>
	<time>2024-07-25T08:31:55.000Z</time>
</trkpt>
<trkpt lat="46.1124800" lon="10.4692860">
	<ele>1903.60</ele>
	<time>2024-07-25T08:31:56.000Z</time>
</trkpt>
<trkpt lat="46.1124800" lon="10.4693020">
	<ele>1903.80</ele>
	<time>2024-07-25T08:31:57.000Z</time>
</trkpt>
<trkpt lat="46.1124800" lon="10.4693150">
	<ele>1903.80</ele>
	<time>2024-07-25T08:31:58.000Z</time>
</trkpt>
<trkpt lat="46.1124780" lon="10.4693290">
	<ele>1904.00</ele>
	<time>2024-07-25T08:31:59.000Z</time>
</trkpt>
<trkpt lat="46.1124730" lon="10.4693450">
	<ele>1904.20</ele>
	<time>2024-07-25T08:32:00.000Z</time>
</trkpt>
<trkpt lat="46.1124710" lon="10.4693620">
	<ele>1904.40</ele>
	<time>2024-07-25T08:32:01.000Z</time>
</trkpt>
<trkpt lat="46.1124680" lon="10.4693780">
	<ele>1904.40</ele>
	<time>2024-07-25T08:32:02.000Z</time>
</trkpt>
<trkpt lat="46.1124640" lon="10.4693930">
	<ele>1904.60</ele>
	<time>2024-07-25T08:32:03.000Z</time>
</trkpt>
<trkpt lat="46.1124610" lon="10.4694090">
	<ele>1904.80</ele>
	<time>2024-07-25T08:32:04.000Z</time>
</trkpt>
<trkpt lat="46.1124570" lon="10.4694220">
	<ele>1904.80</ele>
	<time>2024-07-25T08:32:05.000Z</time>
</trkpt>
<trkpt lat="46.1124530" lon="10.4694380">
	<ele>1905.00</ele>
	<time>2024-07-25T08:32:06.000Z</time>
</trkpt>
<trkpt lat="46.1124490" lon="10.4694540">
	<ele>1905.20</ele>
	<time>2024-07-25T08:32:07.000Z</time>
</trkpt>
<trkpt lat="46.1124520" lon="10.4694700">
	<ele>1905.20</ele>
	<time>2024-07-25T08:32:08.000Z</time>
</trkpt>
<trkpt lat="46.1124540" lon="10.4694870">
	<ele>1905.40</ele>
	<time>2024-07-25T08:32:09.000Z</time>
</trkpt>
<trkpt lat="46.1124540" lon="10.4695000">
	<ele>1905.40</ele>
	<time>2024-07-25T08:32:10.000Z</time>
</trkpt>
<trkpt lat="46.1124480" lon="10.4695140">
	<ele>1905.40</ele>
	<time>2024-07-25T08:32:11.000Z</time>
</trkpt>
<trkpt lat="46.1124390" lon="10.4695270">
	<ele>1905.40</ele>
	<time>2024-07-25T08:32:12.000Z</time>
</trkpt>
<trkpt lat="46.1124290" lon="10.4695410">
	<ele>1905.40</ele>
	<time>2024-07-25T08:32:13.000Z</time>
</trkpt>
<trkpt lat="46.1124230" lon="10.4695520">
	<ele>1905.40</ele>
	<time>2024-07-25T08:32:14.000Z</time>
</trkpt>
<trkpt lat="46.1124130" lon="10.4695700">
	<ele>1905.60</ele>
	<time>2024-07-25T08:32:15.000Z</time>
</trkpt>
<trkpt lat="46.1124060" lon="10.4695850">
	<ele>1905.60</ele>
	<time>2024-07-25T08:32:16.000Z</time>
</trkpt>
<trkpt lat="46.1123980" lon="10.4696000">
	<ele>1905.60</ele>
	<time>2024-07-25T08:32:17.000Z</time>
</trkpt>
<trkpt lat="46.1123900" lon="10.4696120">
	<ele>1905.60</ele>
	<time>2024-07-25T08:32:18.000Z</time>
</trkpt>
<trkpt lat="46.1123780" lon="10.4696230">
	<ele>1905.80</ele>
	<time>2024-07-25T08:32:19.000Z</time>
</trkpt>
<trkpt lat="46.1123640" lon="10.4696340">
	<ele>1905.80</ele>
	<time>2024-07-25T08:32:20.000Z</time>
</trkpt>
<trkpt lat="46.1123530" lon="10.4696430">
	<ele>1906.00</ele>
	<time>2024-07-25T08:32:21.000Z</time>
</trkpt>
<trkpt lat="46.1123470" lon="10.4696570">
	<ele>1906.00</ele>
	<time>2024-07-25T08:32:22.000Z</time>
</trkpt>
<trkpt lat="46.1123430" lon="10.4696690">
	<ele>1906.20</ele>
	<time>2024-07-25T08:32:23.000Z</time>
</trkpt>
<trkpt lat="46.1123390" lon="10.4696810">
	<ele>1906.20</ele>
	<time>2024-07-25T08:32:24.000Z</time>
</trkpt>
<trkpt lat="46.1123370" lon="10.4696880">
	<ele>1906.40</ele>
	<time>2024-07-25T08:32:25.000Z</time>
</trkpt>
<trkpt lat="46.1123330" lon="10.4696880">
	<ele>1906.40</ele>
	<time>2024-07-25T08:32:26.000Z</time>
</trkpt>
<trkpt lat="46.1123310" lon="10.4696870">
	<ele>1906.40</ele>
	<time>2024-07-25T08:32:27.000Z</time>
</trkpt>
<trkpt lat="46.1123320" lon="10.4696820">
	<ele>1906.40</ele>
	<time>2024-07-25T08:32:28.000Z</time>
</trkpt>
<trkpt lat="46.1123260" lon="10.4696750">
	<ele>1906.40</ele>
	<time>2024-07-25T08:32:29.000Z</time>
</trkpt>
<trkpt lat="46.1123230" lon="10.4696710">
	<ele>1906.40</ele>
	<time>2024-07-25T08:32:30.000Z</time>
</trkpt>
<trkpt lat="46.1123210" lon="10.4696680">
	<ele>1906.40</ele>
	<time>2024-07-25T08:32:31.000Z</time>
</trkpt>
<trkpt lat="46.1123200" lon="10.4696690">
	<ele>1906.40</ele>
	<time>2024-07-25T08:32:32.000Z</time>
</trkpt>
<trkpt lat="46.1123190" lon="10.4696670">
	<ele>1906.40</ele>
	<time>2024-07-25T08:32:33.000Z</time>
</trkpt>
<trkpt lat="46.1123260" lon="10.4696690">
	<ele>1906.40</ele>
	<time>2024-07-25T08:32:34.000Z</time>
</trkpt>
<trkpt lat="46.1123280" lon="10.4696760">
	<ele>1906.40</ele>
	<time>2024-07-25T08:32:35.000Z</time>
</trkpt>
<trkpt lat="46.1123250" lon="10.4696840">
	<ele>1906.40</ele>
	<time>2024-07-25T08:32:36.000Z</time>
</trkpt>
<trkpt lat="46.1123240" lon="10.4696880">
	<ele>1906.60</ele>
	<time>2024-07-25T08:32:37.000Z</time>
</trkpt>
<trkpt lat="46.1123230" lon="10.4696910">
	<ele>1906.60</ele>
	<time>2024-07-25T08:32:38.000Z</time>
</trkpt>
<trkpt lat="46.1123220" lon="10.4696920">
	<ele>1906.60</ele>
	<time>2024-07-25T08:32:39.000Z</time>
</trkpt>
<trkpt lat="46.1123210" lon="10.4696920">
	<ele>1906.80</ele>
	<time>2024-07-25T08:32:40.000Z</time>
</trkpt>
<trkpt lat="46.1123210" lon="10.4696920">
	<ele>1906.80</ele>
	<time>2024-07-25T08:32:41.000Z</time>
</trkpt>
<trkpt lat="46.1123210" lon="10.4696920">
	<ele>1906.80</ele>
	<time>2024-07-25T08:32:42.000Z</time>
</trkpt>
<trkpt lat="46.1123210" lon="10.4696920">
	<ele>1906.80</ele>
	<time>2024-07-25T08:32:43.000Z</time>
</trkpt>
<trkpt lat="46.1123210" lon="10.4696920">
	<ele>1906.80</ele>
	<time>2024-07-25T08:32:44.000Z</time>
</trkpt>
<trkpt lat="46.1123170" lon="10.4696940">
	<ele>1906.80</ele>
	<time>2024-07-25T08:32:45.000Z</time>
</trkpt>
<trkpt lat="46.1123040" lon="10.4697050">
	<ele>1906.80</ele>
	<time>2024-07-25T08:32:46.000Z</time>
</trkpt>
<trkpt lat="46.1122900" lon="10.4697110">
	<ele>1906.80</ele>
	<time>2024-07-25T08:32:47.000Z</time>
</trkpt>
<trkpt lat="46.1122750" lon="10.4697210">
	<ele>1906.80</ele>
	<time>2024-07-25T08:32:48.000Z</time>
</trkpt>
<trkpt lat="46.1122580" lon="10.4697360">
	<ele>1907.00</ele>
	<time>2024-07-25T08:32:49.000Z</time>
</trkpt>
<trkpt lat="46.1122480" lon="10.4697470">
	<ele>1907.00</ele>
	<time>2024-07-25T08:32:50.000Z</time>
</trkpt>
<trkpt lat="46.1122380" lon="10.4697580">
	<ele>1907.00</ele>
	<time>2024-07-25T08:32:51.000Z</time>
</trkpt>
<trkpt lat="46.1122290" lon="10.4697670">
	<ele>1907.20</ele>
	<time>2024-07-25T08:32:52.000Z</time>
</trkpt>
<trkpt lat="46.1122190" lon="10.4697740">
	<ele>1907.40</ele>
	<time>2024-07-25T08:32:53.000Z</time>
</trkpt>
<trkpt lat="46.1122060" lon="10.4697810">
	<ele>1907.60</ele>
	<time>2024-07-25T08:32:54.000Z</time>
</trkpt>
<trkpt lat="46.1122000" lon="10.4697870">
	<ele>1907.80</ele>
	<time>2024-07-25T08:32:55.000Z</time>
</trkpt>
<trkpt lat="46.1121930" lon="10.4697930">
	<ele>1908.00</ele>
	<time>2024-07-25T08:32:56.000Z</time>
</trkpt>
<trkpt lat="46.1121860" lon="10.4698000">
	<ele>1908.00</ele>
	<time>2024-07-25T08:32:57.000Z</time>
</trkpt>
<trkpt lat="46.1121790" lon="10.4698060">
	<ele>1908.20</ele>
	<time>2024-07-25T08:32:58.000Z</time>
</trkpt>
<trkpt lat="46.1121730" lon="10.4698140">
	<ele>1908.40</ele>
	<time>2024-07-25T08:32:59.000Z</time>
</trkpt>
<trkpt lat="46.1121650" lon="10.4698220">
	<ele>1908.60</ele>
	<time>2024-07-25T08:33:00.000Z</time>
</trkpt>
<trkpt lat="46.1121590" lon="10.4698310">
	<ele>1908.80</ele>
	<time>2024-07-25T08:33:01.000Z</time>
</trkpt>
<trkpt lat="46.1121510" lon="10.4698390">
	<ele>1908.80</ele>
	<time>2024-07-25T08:33:02.000Z</time>
</trkpt>
<trkpt lat="46.1121460" lon="10.4698480">
	<ele>1909.00</ele>
	<time>2024-07-25T08:33:03.000Z</time>
</trkpt>
<trkpt lat="46.1121390" lon="10.4698550">
	<ele>1909.20</ele>
	<time>2024-07-25T08:33:04.000Z</time>
</trkpt>
<trkpt lat="46.1121340" lon="10.4698660">
	<ele>1909.20</ele>
	<time>2024-07-25T08:33:05.000Z</time>
</trkpt>
<trkpt lat="46.1121270" lon="10.4698720">
	<ele>1909.40</ele>
	<time>2024-07-25T08:33:06.000Z</time>
</trkpt>
<trkpt lat="46.1121220" lon="10.4698820">
	<ele>1909.60</ele>
	<time>2024-07-25T08:33:07.000Z</time>
</trkpt>
<trkpt lat="46.1121140" lon="10.4698890">
	<ele>1909.80</ele>
	<time>2024-07-25T08:33:08.000Z</time>
</trkpt>
<trkpt lat="46.1121090" lon="10.4698980">
	<ele>1910.00</ele>
	<time>2024-07-25T08:33:09.000Z</time>
</trkpt>
<trkpt lat="46.1121090" lon="10.4699070">
	<ele>1910.00</ele>
	<time>2024-07-25T08:33:10.000Z</time>
</trkpt>
<trkpt lat="46.1120940" lon="10.4699130">
	<ele>1910.20</ele>
	<time>2024-07-25T08:33:11.000Z</time>
</trkpt>
<trkpt lat="46.1120870" lon="10.4699180">
	<ele>1910.40</ele>
	<time>2024-07-25T08:33:12.000Z</time>
</trkpt>
<trkpt lat="46.1120780" lon="10.4699240">
	<ele>1910.40</ele>
	<time>2024-07-25T08:33:13.000Z</time>
</trkpt>
<trkpt lat="46.1120680" lon="10.4699320">
	<ele>1910.60</ele>
	<time>2024-07-25T08:33:14.000Z</time>
</trkpt>
<trkpt lat="46.1120590" lon="10.4699370">
	<ele>1910.80</ele>
	<time>2024-07-25T08:33:15.000Z</time>
</trkpt>
<trkpt lat="46.1120510" lon="10.4699420">
	<ele>1911.00</ele>
	<time>2024-07-25T08:33:16.000Z</time>
</trkpt>
<trkpt lat="46.1120440" lon="10.4699490">
	<ele>1911.20</ele>
	<time>2024-07-25T08:33:17.000Z</time>
</trkpt>
<trkpt lat="46.1120400" lon="10.4699560">
	<ele>1911.40</ele>
	<time>2024-07-25T08:33:18.000Z</time>
</trkpt>
<trkpt lat="46.1120340" lon="10.4699620">
	<ele>1911.80</ele>
	<time>2024-07-25T08:33:19.000Z</time>
</trkpt>
<trkpt lat="46.1120280" lon="10.4699620">
	<ele>1911.80</ele>
	<time>2024-07-25T08:33:20.000Z</time>
</trkpt>
<trkpt lat="46.1120250" lon="10.4699610">
	<ele>1912.20</ele>
	<time>2024-07-25T08:33:21.000Z</time>
</trkpt>
<trkpt lat="46.1120250" lon="10.4699610">
	<ele>1912.20</ele>
	<time>2024-07-25T08:33:22.000Z</time>
</trkpt>
<trkpt lat="46.1120270" lon="10.4699680">
	<ele>1912.40</ele>
	<time>2024-07-25T08:33:23.000Z</time>
</trkpt>
<trkpt lat="46.1120300" lon="10.4699810">
	<ele>1912.40</ele>
	<time>2024-07-25T08:33:24.000Z</time>
</trkpt>
<trkpt lat="46.1120300" lon="10.4699910">
	<ele>1912.40</ele>
	<time>2024-07-25T08:33:25.000Z</time>
</trkpt>
<trkpt lat="46.1120250" lon="10.4700000">
	<ele>1912.40</ele>
	<time>2024-07-25T08:33:26.000Z</time>
</trkpt>
<trkpt lat="46.1120190" lon="10.4700100">
	<ele>1912.40</ele>
	<time>2024-07-25T08:33:27.000Z</time>
</trkpt>
<trkpt lat="46.1120130" lon="10.4700200">
	<ele>1912.60</ele>
	<time>2024-07-25T08:33:28.000Z</time>
</trkpt>
<trkpt lat="46.1120070" lon="10.4700320">
	<ele>1912.60</ele>
	<time>2024-07-25T08:33:29.000Z</time>
</trkpt>
<trkpt lat="46.1120010" lon="10.4700450">
	<ele>1912.80</ele>
	<time>2024-07-25T08:33:30.000Z</time>
</trkpt>
<trkpt lat="46.1119930" lon="10.4700560">
	<ele>1913.00</ele>
	<time>2024-07-25T08:33:31.000Z</time>
</trkpt>
<trkpt lat="46.1119860" lon="10.4700690">
	<ele>1913.20</ele>
	<time>2024-07-25T08:33:32.000Z</time>
</trkpt>
<trkpt lat="46.1119860" lon="10.4700820">
	<ele>1913.40</ele>
	<time>2024-07-25T08:33:33.000Z</time>
</trkpt>
<trkpt lat="46.1119850" lon="10.4700930">
	<ele>1913.60</ele>
	<time>2024-07-25T08:33:34.000Z</time>
</trkpt>
<trkpt lat="46.1119850" lon="10.4701060">
	<ele>1913.80</ele>
	<time>2024-07-25T08:33:35.000Z</time>
</trkpt>
<trkpt lat="46.1119850" lon="10.4701210">
	<ele>1914.00</ele>
	<time>2024-07-25T08:33:36.000Z</time>
</trkpt>
<trkpt lat="46.1119870" lon="10.4701350">
	<ele>1914.00</ele>
	<time>2024-07-25T08:33:37.000Z</time>
</trkpt>
<trkpt lat="46.1119890" lon="10.4701500">
	<ele>1914.20</ele>
	<time>2024-07-25T08:33:38.000Z</time>
</trkpt>
<trkpt lat="46.1119910" lon="10.4701660">
	<ele>1914.40</ele>
	<time>2024-07-25T08:33:39.000Z</time>
</trkpt>
<trkpt lat="46.1119900" lon="10.4701760">
	<ele>1914.40</ele>
	<time>2024-07-25T08:33:40.000Z</time>
</trkpt>
<trkpt lat="46.1119910" lon="10.4701890">
	<ele>1914.60</ele>
	<time>2024-07-25T08:33:41.000Z</time>
</trkpt>
<trkpt lat="46.1119890" lon="10.4702000">
	<ele>1914.60</ele>
	<time>2024-07-25T08:33:42.000Z</time>
</trkpt>
<trkpt lat="46.1119850" lon="10.4702140">
	<ele>1915.00</ele>
	<time>2024-07-25T08:33:43.000Z</time>
</trkpt>
<trkpt lat="46.1119850" lon="10.4702230">
	<ele>1915.00</ele>
	<time>2024-07-25T08:33:44.000Z</time>
</trkpt>
<trkpt lat="46.1119860" lon="10.4702350">
	<ele>1915.20</ele>
	<time>2024-07-25T08:33:45.000Z</time>
</trkpt>
<trkpt lat="46.1119880" lon="10.4702480">
	<ele>1915.60</ele>
	<time>2024-07-25T08:33:46.000Z</time>
</trkpt>
<trkpt lat="46.1119920" lon="10.4702600">
	<ele>1915.80</ele>
	<time>2024-07-25T08:33:47.000Z</time>
</trkpt>
<trkpt lat="46.1119940" lon="10.4702720">
	<ele>1916.00</ele>
	<time>2024-07-25T08:33:48.000Z</time>
</trkpt>
<trkpt lat="46.1119970" lon="10.4702850">
	<ele>1916.20</ele>
	<time>2024-07-25T08:33:49.000Z</time>
</trkpt>
<trkpt lat="46.1119980" lon="10.4702990">
	<ele>1916.40</ele>
	<time>2024-07-25T08:33:50.000Z</time>
</trkpt>
<trkpt lat="46.1119980" lon="10.4703140">
	<ele>1916.40</ele>
	<time>2024-07-25T08:33:51.000Z</time>
</trkpt>
<trkpt lat="46.1119940" lon="10.4703230">
	<ele>1916.60</ele>
	<time>2024-07-25T08:33:52.000Z</time>
</trkpt>
<trkpt lat="46.1119950" lon="10.4703360">
	<ele>1916.60</ele>
	<time>2024-07-25T08:33:53.000Z</time>
</trkpt>
<trkpt lat="46.1119940" lon="10.4703490">
	<ele>1916.80</ele>
	<time>2024-07-25T08:33:54.000Z</time>
</trkpt>
<trkpt lat="46.1119890" lon="10.4703590">
	<ele>1917.00</ele>
	<time>2024-07-25T08:33:55.000Z</time>
</trkpt>
<trkpt lat="46.1119840" lon="10.4703670">
	<ele>1917.00</ele>
	<time>2024-07-25T08:33:56.000Z</time>
</trkpt>
<trkpt lat="46.1119790" lon="10.4703740">
	<ele>1917.20</ele>
	<time>2024-07-25T08:33:57.000Z</time>
</trkpt>
<trkpt lat="46.1119710" lon="10.4703800">
	<ele>1917.40</ele>
	<time>2024-07-25T08:33:58.000Z</time>
</trkpt>
<trkpt lat="46.1119680" lon="10.4703900">
	<ele>1917.60</ele>
	<time>2024-07-25T08:33:59.000Z</time>
</trkpt>
<trkpt lat="46.1119630" lon="10.4703990">
	<ele>1917.80</ele>
	<time>2024-07-25T08:34:00.000Z</time>
</trkpt>
<trkpt lat="46.1119580" lon="10.4704090">
	<ele>1918.20</ele>
	<time>2024-07-25T08:34:01.000Z</time>
</trkpt>
<trkpt lat="46.1119490" lon="10.4704190">
	<ele>1918.20</ele>
	<time>2024-07-25T08:34:02.000Z</time>
</trkpt>
<trkpt lat="46.1119400" lon="10.4704230">
	<ele>1918.40</ele>
	<time>2024-07-25T08:34:03.000Z</time>
</trkpt>
<trkpt lat="46.1119310" lon="10.4704280">
	<ele>1918.40</ele>
	<time>2024-07-25T08:34:04.000Z</time>
</trkpt>
<trkpt lat="46.1119190" lon="10.4704310">
	<ele>1918.60</ele>
	<time>2024-07-25T08:34:05.000Z</time>
</trkpt>
<trkpt lat="46.1119070" lon="10.4704340">
	<ele>1918.60</ele>
	<time>2024-07-25T08:34:06.000Z</time>
</trkpt>
<trkpt lat="46.1118960" lon="10.4704400">
	<ele>1918.80</ele>
	<time>2024-07-25T08:34:07.000Z</time>
</trkpt>
<trkpt lat="46.1118870" lon="10.4704440">
	<ele>1919.00</ele>
	<time>2024-07-25T08:34:08.000Z</time>
</trkpt>
<trkpt lat="46.1118780" lon="10.4704450">
	<ele>1919.00</ele>
	<time>2024-07-25T08:34:09.000Z</time>
</trkpt>
<trkpt lat="46.1118690" lon="10.4704480">
	<ele>1919.20</ele>
	<time>2024-07-25T08:34:10.000Z</time>
</trkpt>
<trkpt lat="46.1118580" lon="10.4704520">
	<ele>1919.20</ele>
	<time>2024-07-25T08:34:11.000Z</time>
</trkpt>
<trkpt lat="46.1118520" lon="10.4704620">
	<ele>1919.20</ele>
	<time>2024-07-25T08:34:12.000Z</time>
</trkpt>
<trkpt lat="46.1118390" lon="10.4704700">
	<ele>1919.40</ele>
	<time>2024-07-25T08:34:13.000Z</time>
</trkpt>
<trkpt lat="46.1118300" lon="10.4704740">
	<ele>1919.40</ele>
	<time>2024-07-25T08:34:14.000Z</time>
</trkpt>
<trkpt lat="46.1118210" lon="10.4704810">
	<ele>1919.40</ele>
	<time>2024-07-25T08:34:15.000Z</time>
</trkpt>
<trkpt lat="46.1118080" lon="10.4704880">
	<ele>1919.40</ele>
	<time>2024-07-25T08:34:16.000Z</time>
</trkpt>
<trkpt lat="46.1117940" lon="10.4704960">
	<ele>1919.40</ele>
	<time>2024-07-25T08:34:17.000Z</time>
</trkpt>
<trkpt lat="46.1117880" lon="10.4705070">
	<ele>1919.60</ele>
	<time>2024-07-25T08:34:18.000Z</time>
</trkpt>
<trkpt lat="46.1117790" lon="10.4705160">
	<ele>1919.60</ele>
	<time>2024-07-25T08:34:19.000Z</time>
</trkpt>
<trkpt lat="46.1117710" lon="10.4705310">
	<ele>1919.80</ele>
	<time>2024-07-25T08:34:20.000Z</time>
</trkpt>
<trkpt lat="46.1117710" lon="10.4705450">
	<ele>1920.00</ele>
	<time>2024-07-25T08:34:21.000Z</time>
</trkpt>
<trkpt lat="46.1117740" lon="10.4705590">
	<ele>1920.00</ele>
	<time>2024-07-25T08:34:22.000Z</time>
</trkpt>
<trkpt lat="46.1117750" lon="10.4705730">
	<ele>1920.20</ele>
	<time>2024-07-25T08:34:23.000Z</time>
</trkpt>
<trkpt lat="46.1117780" lon="10.4705840">
	<ele>1920.40</ele>
	<time>2024-07-25T08:34:24.000Z</time>
</trkpt>
<trkpt lat="46.1117830" lon="10.4705960">
	<ele>1920.40</ele>
	<time>2024-07-25T08:34:25.000Z</time>
</trkpt>
<trkpt lat="46.1117900" lon="10.4706080">
	<ele>1920.60</ele>
	<time>2024-07-25T08:34:26.000Z</time>
</trkpt>
<trkpt lat="46.1117950" lon="10.4706250">
	<ele>1920.80</ele>
	<time>2024-07-25T08:34:27.000Z</time>
</trkpt>
<trkpt lat="46.1118030" lon="10.4706420">
	<ele>1921.00</ele>
	<time>2024-07-25T08:34:28.000Z</time>
</trkpt>
<trkpt lat="46.1118110" lon="10.4706550">
	<ele>1921.00</ele>
	<time>2024-07-25T08:34:29.000Z</time>
</trkpt>
<trkpt lat="46.1118200" lon="10.4706650">
	<ele>1921.20</ele>
	<time>2024-07-25T08:34:30.000Z</time>
</trkpt>
<trkpt lat="46.1118310" lon="10.4706770">
	<ele>1921.40</ele>
	<time>2024-07-25T08:34:31.000Z</time>
</trkpt>
<trkpt lat="46.1118400" lon="10.4706870">
	<ele>1921.40</ele>
	<time>2024-07-25T08:34:32.000Z</time>
</trkpt>
<trkpt lat="46.1118490" lon="10.4706950">
	<ele>1921.40</ele>
	<time>2024-07-25T08:34:33.000Z</time>
</trkpt>
<trkpt lat="46.1118600" lon="10.4707010">
	<ele>1921.60</ele>
	<time>2024-07-25T08:34:34.000Z</time>
</trkpt>
<trkpt lat="46.1118680" lon="10.4707060">
	<ele>1921.80</ele>
	<time>2024-07-25T08:34:35.000Z</time>
</trkpt>
<trkpt lat="46.1118770" lon="10.4707130">
	<ele>1922.00</ele>
	<time>2024-07-25T08:34:36.000Z</time>
</trkpt>
<trkpt lat="46.1118860" lon="10.4707200">
	<ele>1922.40</ele>
	<time>2024-07-25T08:34:37.000Z</time>
</trkpt>
<trkpt lat="46.1118950" lon="10.4707290">
	<ele>1922.60</ele>
	<time>2024-07-25T08:34:38.000Z</time>
</trkpt>
<trkpt lat="46.1119020" lon="10.4707340">
	<ele>1922.60</ele>
	<time>2024-07-25T08:34:39.000Z</time>
</trkpt>
<trkpt lat="46.1119080" lon="10.4707350">
	<ele>1922.80</ele>
	<time>2024-07-25T08:34:40.000Z</time>
</trkpt>
<trkpt lat="46.1119140" lon="10.4707350">
	<ele>1923.00</ele>
	<time>2024-07-25T08:34:41.000Z</time>
</trkpt>
<trkpt lat="46.1119220" lon="10.4707350">
	<ele>1923.00</ele>
	<time>2024-07-25T08:34:42.000Z</time>
</trkpt>
<trkpt lat="46.1119300" lon="10.4707340">
	<ele>1923.40</ele>
	<time>2024-07-25T08:34:43.000Z</time>
</trkpt>
<trkpt lat="46.1119390" lon="10.4707350">
	<ele>1923.60</ele>
	<time>2024-07-25T08:34:44.000Z</time>
</trkpt>
<trkpt lat="46.1119470" lon="10.4707370">
	<ele>1923.80</ele>
	<time>2024-07-25T08:34:45.000Z</time>
</trkpt>
<trkpt lat="46.1119570" lon="10.4707410">
	<ele>1923.80</ele>
	<time>2024-07-25T08:34:46.000Z</time>
</trkpt>
<trkpt lat="46.1119620" lon="10.4707440">
	<ele>1924.00</ele>
	<time>2024-07-25T08:34:47.000Z</time>
</trkpt>
<trkpt lat="46.1119700" lon="10.4707490">
	<ele>1924.00</ele>
	<time>2024-07-25T08:34:48.000Z</time>
</trkpt>
<trkpt lat="46.1119750" lon="10.4707510">
	<ele>1924.20</ele>
	<time>2024-07-25T08:34:49.000Z</time>
</trkpt>
<trkpt lat="46.1119830" lon="10.4707590">
	<ele>1924.60</ele>
	<time>2024-07-25T08:34:50.000Z</time>
</trkpt>
<trkpt lat="46.1119920" lon="10.4707660">
	<ele>1924.80</ele>
	<time>2024-07-25T08:34:51.000Z</time>
</trkpt>
<trkpt lat="46.1120000" lon="10.4707700">
	<ele>1925.00</ele>
	<time>2024-07-25T08:34:52.000Z</time>
</trkpt>
<trkpt lat="46.1120090" lon="10.4707740">
	<ele>1925.20</ele>
	<time>2024-07-25T08:34:53.000Z</time>
</trkpt>
<trkpt lat="46.1120170" lon="10.4707750">
	<ele>1925.40</ele>
	<time>2024-07-25T08:34:54.000Z</time>
</trkpt>
<trkpt lat="46.1120210" lon="10.4707720">
	<ele>1925.60</ele>
	<time>2024-07-25T08:34:55.000Z</time>
</trkpt>
<trkpt lat="46.1120320" lon="10.4707720">
	<ele>1925.80</ele>
	<time>2024-07-25T08:34:56.000Z</time>
</trkpt>
<trkpt lat="46.1120420" lon="10.4707760">
	<ele>1926.20</ele>
	<time>2024-07-25T08:34:57.000Z</time>
</trkpt>
<trkpt lat="46.1120510" lon="10.4707740">
	<ele>1926.40</ele>
	<time>2024-07-25T08:34:58.000Z</time>
</trkpt>
<trkpt lat="46.1120590" lon="10.4707770">
	<ele>1926.60</ele>
	<time>2024-07-25T08:34:59.000Z</time>
</trkpt>
<trkpt lat="46.1120710" lon="10.4707790">
	<ele>1926.80</ele>
	<time>2024-07-25T08:35:00.000Z</time>
</trkpt>
<trkpt lat="46.1120760" lon="10.4707800">
	<ele>1926.80</ele>
	<time>2024-07-25T08:35:01.000Z</time>
</trkpt>
<trkpt lat="46.1120800" lon="10.4707870">
	<ele>1927.00</ele>
	<time>2024-07-25T08:35:02.000Z</time>
</trkpt>
<trkpt lat="46.1120900" lon="10.4707940">
	<ele>1927.20</ele>
	<time>2024-07-25T08:35:03.000Z</time>
</trkpt>
<trkpt lat="46.1120990" lon="10.4708020">
	<ele>1927.40</ele>
	<time>2024-07-25T08:35:04.000Z</time>
</trkpt>
<trkpt lat="46.1121050" lon="10.4708040">
	<ele>1927.60</ele>
	<time>2024-07-25T08:35:05.000Z</time>
</trkpt>
<trkpt lat="46.1121110" lon="10.4708060">
	<ele>1927.60</ele>
	<time>2024-07-25T08:35:06.000Z</time>
</trkpt>
<trkpt lat="46.1121180" lon="10.4708080">
	<ele>1927.80</ele>
	<time>2024-07-25T08:35:07.000Z</time>
</trkpt>
<trkpt lat="46.1121240" lon="10.4708070">
	<ele>1928.00</ele>
	<time>2024-07-25T08:35:08.000Z</time>
</trkpt>
<trkpt lat="46.1121280" lon="10.4708050">
	<ele>1928.20</ele>
	<time>2024-07-25T08:35:09.000Z</time>
</trkpt>
<trkpt lat="46.1121350" lon="10.4708020">
	<ele>1928.40</ele>
	<time>2024-07-25T08:35:10.000Z</time>
</trkpt>
<trkpt lat="46.1121440" lon="10.4708000">
	<ele>1928.80</ele>
	<time>2024-07-25T08:35:11.000Z</time>
</trkpt>
<trkpt lat="46.1121510" lon="10.4707980">
	<ele>1929.00</ele>
	<time>2024-07-25T08:35:12.000Z</time>
</trkpt>
<trkpt lat="46.1121600" lon="10.4707930">
	<ele>1929.00</ele>
	<time>2024-07-25T08:35:13.000Z</time>
</trkpt>
<trkpt lat="46.1121680" lon="10.4707880">
	<ele>1929.40</ele>
	<time>2024-07-25T08:35:14.000Z</time>
</trkpt>
<trkpt lat="46.1121750" lon="10.4707850">
	<ele>1929.60</ele>
	<time>2024-07-25T08:35:15.000Z</time>
</trkpt>
<trkpt lat="46.1121840" lon="10.4707840">
	<ele>1929.60</ele>
	<time>2024-07-25T08:35:16.000Z</time>
</trkpt>
<trkpt lat="46.1121940" lon="10.4707810">
	<ele>1930.00</ele>
	<time>2024-07-25T08:35:17.000Z</time>
</trkpt>
<trkpt lat="46.1122010" lon="10.4707770">
	<ele>1930.20</ele>
	<time>2024-07-25T08:35:18.000Z</time>
</trkpt>
<trkpt lat="46.1122080" lon="10.4707720">
	<ele>1930.40</ele>
	<time>2024-07-25T08:35:19.000Z</time>
</trkpt>
<trkpt lat="46.1122150" lon="10.4707660">
	<ele>1930.40</ele>
	<time>2024-07-25T08:35:20.000Z</time>
</trkpt>
<trkpt lat="46.1122220" lon="10.4707650">
	<ele>1930.60</ele>
	<time>2024-07-25T08:35:21.000Z</time>
</trkpt>
<trkpt lat="46.1122290" lon="10.4707650">
	<ele>1930.60</ele>
	<time>2024-07-25T08:35:22.000Z</time>
</trkpt>
<trkpt lat="46.1122380" lon="10.4707650">
	<ele>1930.80</ele>
	<time>2024-07-25T08:35:23.000Z</time>
</trkpt>
<trkpt lat="46.1122510" lon="10.4707680">
	<ele>1931.00</ele>
	<time>2024-07-25T08:35:24.000Z</time>
</trkpt>
<trkpt lat="46.1122620" lon="10.4707660">
	<ele>1931.20</ele>
	<time>2024-07-25T08:35:25.000Z</time>
</trkpt>
<trkpt lat="46.1122700" lon="10.4707650">
	<ele>1931.40</ele>
	<time>2024-07-25T08:35:26.000Z</time>
</trkpt>
<trkpt lat="46.1122760" lon="10.4707650">
	<ele>1931.60</ele>
	<time>2024-07-25T08:35:27.000Z</time>
</trkpt>
<trkpt lat="46.1122800" lon="10.4707640">
	<ele>1931.80</ele>
	<time>2024-07-25T08:35:28.000Z</time>
</trkpt>
<trkpt lat="46.1122850" lon="10.4707600">
	<ele>1932.00</ele>
	<time>2024-07-25T08:35:29.000Z</time>
</trkpt>
<trkpt lat="46.1122920" lon="10.4707580">
	<ele>1932.20</ele>
	<time>2024-07-25T08:35:30.000Z</time>
</trkpt>
<trkpt lat="46.1122990" lon="10.4707620">
	<ele>1932.40</ele>
	<time>2024-07-25T08:35:31.000Z</time>
</trkpt>
<trkpt lat="46.1123020" lon="10.4707660">
	<ele>1932.60</ele>
	<time>2024-07-25T08:35:32.000Z</time>
</trkpt>
<trkpt lat="46.1123050" lon="10.4707760">
	<ele>1932.60</ele>
	<time>2024-07-25T08:35:33.000Z</time>
</trkpt>
<trkpt lat="46.1123050" lon="10.4707900">
	<ele>1932.80</ele>
	<time>2024-07-25T08:35:34.000Z</time>
</trkpt>
<trkpt lat="46.1123040" lon="10.4708040">
	<ele>1932.80</ele>
	<time>2024-07-25T08:35:35.000Z</time>
</trkpt>
<trkpt lat="46.1123020" lon="10.4708150">
	<ele>1933.00</ele>
	<time>2024-07-25T08:35:36.000Z</time>
</trkpt>
<trkpt lat="46.1122970" lon="10.4708220">
	<ele>1933.20</ele>
	<time>2024-07-25T08:35:37.000Z</time>
</trkpt>
<trkpt lat="46.1122900" lon="10.4708290">
	<ele>1933.20</ele>
	<time>2024-07-25T08:35:38.000Z</time>
</trkpt>
<trkpt lat="46.1122860" lon="10.4708370">
	<ele>1933.20</ele>
	<time>2024-07-25T08:35:39.000Z</time>
</trkpt>
<trkpt lat="46.1122810" lon="10.4708440">
	<ele>1933.40</ele>
	<time>2024-07-25T08:35:40.000Z</time>
</trkpt>
<trkpt lat="46.1122750" lon="10.4708480">
	<ele>1933.40</ele>
	<time>2024-07-25T08:35:41.000Z</time>
</trkpt>
<trkpt lat="46.1122720" lon="10.4708540">
	<ele>1933.60</ele>
	<time>2024-07-25T08:35:42.000Z</time>
</trkpt>
<trkpt lat="46.1122670" lon="10.4708580">
	<ele>1933.80</ele>
	<time>2024-07-25T08:35:43.000Z</time>
</trkpt>
<trkpt lat="46.1122610" lon="10.4708630">
	<ele>1934.00</ele>
	<time>2024-07-25T08:35:44.000Z</time>
</trkpt>
<trkpt lat="46.1122580" lon="10.4708710">
	<ele>1934.40</ele>
	<time>2024-07-25T08:35:45.000Z</time>
</trkpt>
<trkpt lat="46.1122510" lon="10.4708810">
	<ele>1934.60</ele>
	<time>2024-07-25T08:35:46.000Z</time>
</trkpt>
<trkpt lat="46.1122460" lon="10.4708900">
	<ele>1934.60</ele>
	<time>2024-07-25T08:35:47.000Z</time>
</trkpt>
<trkpt lat="46.1122380" lon="10.4708970">
	<ele>1934.80</ele>
	<time>2024-07-25T08:35:48.000Z</time>
</trkpt>
<trkpt lat="46.1122230" lon="10.4709010">
	<ele>1934.80</ele>
	<time>2024-07-25T08:35:49.000Z</time>
</trkpt>
<trkpt lat="46.1122100" lon="10.4709070">
	<ele>1935.20</ele>
	<time>2024-07-25T08:35:50.000Z</time>
</trkpt>
<trkpt lat="46.1121990" lon="10.4709120">
	<ele>1935.40</ele>
	<time>2024-07-25T08:35:51.000Z</time>
</trkpt>
<trkpt lat="46.1121950" lon="10.4709180">
	<ele>1935.60</ele>
	<time>2024-07-25T08:35:52.000Z</time>
</trkpt>
<trkpt lat="46.1121930" lon="10.4709280">
	<ele>1935.80</ele>
	<time>2024-07-25T08:35:53.000Z</time>
</trkpt>
<trkpt lat="46.1121930" lon="10.4709400">
	<ele>1935.80</ele>
	<time>2024-07-25T08:35:54.000Z</time>
</trkpt>
<trkpt lat="46.1121910" lon="10.4709530">
	<ele>1936.00</ele>
	<time>2024-07-25T08:35:55.000Z</time>
</trkpt>
<trkpt lat="46.1121830" lon="10.4709620">
	<ele>1936.40</ele>
	<time>2024-07-25T08:35:56.000Z</time>
</trkpt>
<trkpt lat="46.1121790" lon="10.4709700">
	<ele>1936.60</ele>
	<time>2024-07-25T08:35:57.000Z</time>
</trkpt>
<trkpt lat="46.1121750" lon="10.4709800">
	<ele>1936.80</ele>
	<time>2024-07-25T08:35:58.000Z</time>
</trkpt>
<trkpt lat="46.1121740" lon="10.4709920">
	<ele>1937.00</ele>
	<time>2024-07-25T08:35:59.000Z</time>
</trkpt>
<trkpt lat="46.1121730" lon="10.4709990">
	<ele>1937.00</ele>
	<time>2024-07-25T08:36:00.000Z</time>
</trkpt>
<trkpt lat="46.1121700" lon="10.4710060">
	<ele>1937.40</ele>
	<time>2024-07-25T08:36:01.000Z</time>
</trkpt>
<trkpt lat="46.1121660" lon="10.4710150">
	<ele>1937.60</ele>
	<time>2024-07-25T08:36:02.000Z</time>
</trkpt>
<trkpt lat="46.1121610" lon="10.4710220">
	<ele>1937.60</ele>
	<time>2024-07-25T08:36:03.000Z</time>
</trkpt>
<trkpt lat="46.1121560" lon="10.4710340">
	<ele>1937.80</ele>
	<time>2024-07-25T08:36:04.000Z</time>
</trkpt>
<trkpt lat="46.1121450" lon="10.4710440">
	<ele>1937.80</ele>
	<time>2024-07-25T08:36:05.000Z</time>
</trkpt>
<trkpt lat="46.1121400" lon="10.4710550">
	<ele>1937.80</ele>
	<time>2024-07-25T08:36:06.000Z</time>
</trkpt>
<trkpt lat="46.1121310" lon="10.4710610">
	<ele>1938.00</ele>
	<time>2024-07-25T08:36:07.000Z</time>
</trkpt>
<trkpt lat="46.1121250" lon="10.4710680">
	<ele>1938.00</ele>
	<time>2024-07-25T08:36:08.000Z</time>
</trkpt>
<trkpt lat="46.1121220" lon="10.4710790">
	<ele>1938.20</ele>
	<time>2024-07-25T08:36:09.000Z</time>
</trkpt>
<trkpt lat="46.1121130" lon="10.4710890">
	<ele>1938.20</ele>
	<time>2024-07-25T08:36:10.000Z</time>
</trkpt>
<trkpt lat="46.1121100" lon="10.4711030">
	<ele>1938.40</ele>
	<time>2024-07-25T08:36:11.000Z</time>
</trkpt>
<trkpt lat="46.1121100" lon="10.4711160">
	<ele>1938.60</ele>
	<time>2024-07-25T08:36:12.000Z</time>
</trkpt>
<trkpt lat="46.1121090" lon="10.4711220">
	<ele>1938.80</ele>
	<time>2024-07-25T08:36:13.000Z</time>
</trkpt>
<trkpt lat="46.1121080" lon="10.4711250">
	<ele>1938.80</ele>
	<time>2024-07-25T08:36:14.000Z</time>
</trkpt>
<trkpt lat="46.1121070" lon="10.4711270">
	<ele>1939.00</ele>
	<time>2024-07-25T08:36:15.000Z</time>
</trkpt>
<trkpt lat="46.1121070" lon="10.4711280">
	<ele>1939.20</ele>
	<time>2024-07-25T08:36:16.000Z</time>
</trkpt>
<trkpt lat="46.1121050" lon="10.4711290">
	<ele>1939.40</ele>
	<time>2024-07-25T08:36:17.000Z</time>
</trkpt>
<trkpt lat="46.1121040" lon="10.4711310">
	<ele>1939.40</ele>
	<time>2024-07-25T08:36:18.000Z</time>
</trkpt>
<trkpt lat="46.1121050" lon="10.4711410">
	<ele>1939.60</ele>
	<time>2024-07-25T08:36:19.000Z</time>
</trkpt>
<trkpt lat="46.1121070" lon="10.4711500">
	<ele>1939.60</ele>
	<time>2024-07-25T08:36:20.000Z</time>
</trkpt>
<trkpt lat="46.1121090" lon="10.4711580">
	<ele>1939.60</ele>
	<time>2024-07-25T08:36:21.000Z</time>
</trkpt>
<trkpt lat="46.1121110" lon="10.4711680">
	<ele>1939.60</ele>
	<time>2024-07-25T08:36:22.000Z</time>
</trkpt>
<trkpt lat="46.1121180" lon="10.4711780">
	<ele>1939.60</ele>
	<time>2024-07-25T08:36:23.000Z</time>
</trkpt>
<trkpt lat="46.1121280" lon="10.4711850">
	<ele>1939.80</ele>
	<time>2024-07-25T08:36:24.000Z</time>
</trkpt>
<trkpt lat="46.1121410" lon="10.4711870">
	<ele>1939.80</ele>
	<time>2024-07-25T08:36:25.000Z</time>
</trkpt>
<trkpt lat="46.1121510" lon="10.4711860">
	<ele>1940.00</ele>
	<time>2024-07-25T08:36:26.000Z</time>
</trkpt>
<trkpt lat="46.1121560" lon="10.4711860">
	<ele>1940.40</ele>
	<time>2024-07-25T08:36:27.000Z</time>
</trkpt>
<trkpt lat="46.1121600" lon="10.4711800">
	<ele>1940.60</ele>
	<time>2024-07-25T08:36:28.000Z</time>
</trkpt>
<trkpt lat="46.1121730" lon="10.4711790">
	<ele>1940.80</ele>
	<time>2024-07-25T08:36:29.000Z</time>
</trkpt>
<trkpt lat="46.1121810" lon="10.4711800">
	<ele>1940.80</ele>
	<time>2024-07-25T08:36:30.000Z</time>
</trkpt>
<trkpt lat="46.1121920" lon="10.4711810">
	<ele>1940.80</ele>
	<time>2024-07-25T08:36:31.000Z</time>
</trkpt>
<trkpt lat="46.1122040" lon="10.4711800">
	<ele>1941.00</ele>
	<time>2024-07-25T08:36:32.000Z</time>
</trkpt>
<trkpt lat="46.1122110" lon="10.4711740">
	<ele>1941.00</ele>
	<time>2024-07-25T08:36:33.000Z</time>
</trkpt>
<trkpt lat="46.1122210" lon="10.4711740">
	<ele>1941.00</ele>
	<time>2024-07-25T08:36:34.000Z</time>
</trkpt>
<trkpt lat="46.1122380" lon="10.4711750">
	<ele>1941.20</ele>
	<time>2024-07-25T08:36:35.000Z</time>
</trkpt>
<trkpt lat="46.1122480" lon="10.4711710">
	<ele>1941.20</ele>
	<time>2024-07-25T08:36:36.000Z</time>
</trkpt>
<trkpt lat="46.1122590" lon="10.4711650">
	<ele>1941.20</ele>
	<time>2024-07-25T08:36:37.000Z</time>
</trkpt>
<trkpt lat="46.1122700" lon="10.4711560">
	<ele>1941.40</ele>
	<time>2024-07-25T08:36:38.000Z</time>
</trkpt>
<trkpt lat="46.1122770" lon="10.4711500">
	<ele>1941.40</ele>
	<time>2024-07-25T08:36:39.000Z</time>
</trkpt>
<trkpt lat="46.1122860" lon="10.4711420">
	<ele>1941.40</ele>
	<time>2024-07-25T08:36:40.000Z</time>
</trkpt>
<trkpt lat="46.1122940" lon="10.4711370">
	<ele>1941.40</ele>
	<time>2024-07-25T08:36:41.000Z</time>
</trkpt>
<trkpt lat="46.1123020" lon="10.4711300">
	<ele>1941.40</ele>
	<time>2024-07-25T08:36:42.000Z</time>
</trkpt>
<trkpt lat="46.1123130" lon="10.4711230">
	<ele>1941.60</ele>
	<time>2024-07-25T08:36:43.000Z</time>
</trkpt>
<trkpt lat="46.1123240" lon="10.4711150">
	<ele>1941.60</ele>
	<time>2024-07-25T08:36:44.000Z</time>
</trkpt>
<trkpt lat="46.1123360" lon="10.4711050">
	<ele>1941.80</ele>
	<time>2024-07-25T08:36:45.000Z</time>
</trkpt>
<trkpt lat="46.1123450" lon="10.4710970">
	<ele>1941.80</ele>
	<time>2024-07-25T08:36:46.000Z</time>
</trkpt>
<trkpt lat="46.1123510" lon="10.4710890">
	<ele>1942.00</ele>
	<time>2024-07-25T08:36:47.000Z</time>
</trkpt>
<trkpt lat="46.1123580" lon="10.4710810">
	<ele>1942.00</ele>
	<time>2024-07-25T08:36:48.000Z</time>
</trkpt>
<trkpt lat="46.1123660" lon="10.4710710">
	<ele>1942.00</ele>
	<time>2024-07-25T08:36:49.000Z</time>
</trkpt>
<trkpt lat="46.1123760" lon="10.4710590">
	<ele>1942.20</ele>
	<time>2024-07-25T08:36:50.000Z</time>
</trkpt>
<trkpt lat="46.1123840" lon="10.4710490">
	<ele>1942.40</ele>
	<time>2024-07-25T08:36:51.000Z</time>
</trkpt>
<trkpt lat="46.1123930" lon="10.4710410">
	<ele>1942.40</ele>
	<time>2024-07-25T08:36:52.000Z</time>
</trkpt>
<trkpt lat="46.1123980" lon="10.4710370">
	<ele>1942.40</ele>
	<time>2024-07-25T08:36:53.000Z</time>
</trkpt>
<trkpt lat="46.1123990" lon="10.4710330">
	<ele>1942.60</ele>
	<time>2024-07-25T08:36:54.000Z</time>
</trkpt>
<trkpt lat="46.1124050" lon="10.4710340">
	<ele>1942.80</ele>
	<time>2024-07-25T08:36:55.000Z</time>
</trkpt>
<trkpt lat="46.1124040" lon="10.4710330">
	<ele>1943.00</ele>
	<time>2024-07-25T08:36:56.000Z</time>
</trkpt>
<trkpt lat="46.1124100" lon="10.4710270">
	<ele>1943.20</ele>
	<time>2024-07-25T08:36:57.000Z</time>
</trkpt>
<trkpt lat="46.1124190" lon="10.4710200">
	<ele>1943.20</ele>
	<time>2024-07-25T08:36:58.000Z</time>
</trkpt>
<trkpt lat="46.1124310" lon="10.4710130">
	<ele>1943.40</ele>
	<time>2024-07-25T08:36:59.000Z</time>
</trkpt>
<trkpt lat="46.1124410" lon="10.4710070">
	<ele>1943.60</ele>
	<time>2024-07-25T08:37:00.000Z</time>
</trkpt>
<trkpt lat="46.1124490" lon="10.4709990">
	<ele>1943.60</ele>
	<time>2024-07-25T08:37:01.000Z</time>
</trkpt>
<trkpt lat="46.1124560" lon="10.4709910">
	<ele>1943.80</ele>
	<time>2024-07-25T08:37:02.000Z</time>
</trkpt>
<trkpt lat="46.1124620" lon="10.4709840">
	<ele>1944.00</ele>
	<time>2024-07-25T08:37:03.000Z</time>
</trkpt>
<trkpt lat="46.1124670" lon="10.4709780">
	<ele>1944.40</ele>
	<time>2024-07-25T08:37:04.000Z</time>
</trkpt>
<trkpt lat="46.1124720" lon="10.4709710">
	<ele>1944.40</ele>
	<time>2024-07-25T08:37:05.000Z</time>
</trkpt>
<trkpt lat="46.1124800" lon="10.4709610">
	<ele>1944.60</ele>
	<time>2024-07-25T08:37:06.000Z</time>
</trkpt>
<trkpt lat="46.1124850" lon="10.4709540">
	<ele>1944.60</ele>
	<time>2024-07-25T08:37:07.000Z</time>
</trkpt>
<trkpt lat="46.1124900" lon="10.4709390">
	<ele>1944.80</ele>
	<time>2024-07-25T08:37:08.000Z</time>
</trkpt>
<trkpt lat="46.1124980" lon="10.4709290">
	<ele>1945.00</ele>
	<time>2024-07-25T08:37:09.000Z</time>
</trkpt>
<trkpt lat="46.1125040" lon="10.4709170">
	<ele>1945.20</ele>
	<time>2024-07-25T08:37:10.000Z</time>
</trkpt>
<trkpt lat="46.1125120" lon="10.4709070">
	<ele>1945.20</ele>
	<time>2024-07-25T08:37:11.000Z</time>
</trkpt>
<trkpt lat="46.1125180" lon="10.4708980">
	<ele>1945.60</ele>
	<time>2024-07-25T08:37:12.000Z</time>
</trkpt>
<trkpt lat="46.1125260" lon="10.4708920">
	<ele>1945.60</ele>
	<time>2024-07-25T08:37:13.000Z</time>
</trkpt>
<trkpt lat="46.1125330" lon="10.4708850">
	<ele>1945.80</ele>
	<time>2024-07-25T08:37:14.000Z</time>
</trkpt>
<trkpt lat="46.1125380" lon="10.4708780">
	<ele>1945.80</ele>
	<time>2024-07-25T08:37:15.000Z</time>
</trkpt>
<trkpt lat="46.1125450" lon="10.4708710">
	<ele>1946.20</ele>
	<time>2024-07-25T08:37:16.000Z</time>
</trkpt>
<trkpt lat="46.1125520" lon="10.4708620">
	<ele>1946.20</ele>
	<time>2024-07-25T08:37:17.000Z</time>
</trkpt>
<trkpt lat="46.1125580" lon="10.4708550">
	<ele>1946.40</ele>
	<time>2024-07-25T08:37:18.000Z</time>
</trkpt>
<trkpt lat="46.1125640" lon="10.4708470">
	<ele>1946.40</ele>
	<time>2024-07-25T08:37:19.000Z</time>
</trkpt>
<trkpt lat="46.1125680" lon="10.4708370">
	<ele>1946.60</ele>
	<time>2024-07-25T08:37:20.000Z</time>
</trkpt>
<trkpt lat="46.1125730" lon="10.4708280">
	<ele>1946.60</ele>
	<time>2024-07-25T08:37:21.000Z</time>
</trkpt>
<trkpt lat="46.1125790" lon="10.4708190">
	<ele>1946.80</ele>
	<time>2024-07-25T08:37:22.000Z</time>
</trkpt>
<trkpt lat="46.1125860" lon="10.4708120">
	<ele>1947.20</ele>
	<time>2024-07-25T08:37:23.000Z</time>
</trkpt>
<trkpt lat="46.1125900" lon="10.4708020">
	<ele>1947.40</ele>
	<time>2024-07-25T08:37:24.000Z</time>
</trkpt>
<trkpt lat="46.1125970" lon="10.4707970">
	<ele>1947.80</ele>
	<time>2024-07-25T08:37:25.000Z</time>
</trkpt>
<trkpt lat="46.1126050" lon="10.4707910">
	<ele>1948.00</ele>
	<time>2024-07-25T08:37:26.000Z</time>
</trkpt>
<trkpt lat="46.1126130" lon="10.4707860">
	<ele>1948.00</ele>
	<time>2024-07-25T08:37:27.000Z</time>
</trkpt>
<trkpt lat="46.1126190" lon="10.4707780">
	<ele>1948.20</ele>
	<time>2024-07-25T08:37:28.000Z</time>
</trkpt>
<trkpt lat="46.1126270" lon="10.4707700">
	<ele>1948.40</ele>
	<time>2024-07-25T08:37:29.000Z</time>
</trkpt>
<trkpt lat="46.1126310" lon="10.4707630">
	<ele>1948.40</ele>
	<time>2024-07-25T08:37:30.000Z</time>
</trkpt>
<trkpt lat="46.1126350" lon="10.4707540">
	<ele>1948.60</ele>
	<time>2024-07-25T08:37:31.000Z</time>
</trkpt>
<trkpt lat="46.1126390" lon="10.4707400">
	<ele>1948.80</ele>
	<time>2024-07-25T08:37:32.000Z</time>
</trkpt>
<trkpt lat="46.1126450" lon="10.4707250">
	<ele>1949.00</ele>
	<time>2024-07-25T08:37:33.000Z</time>
</trkpt>
<trkpt lat="46.1126500" lon="10.4707170">
	<ele>1949.20</ele>
	<time>2024-07-25T08:37:34.000Z</time>
</trkpt>
<trkpt lat="46.1126520" lon="10.4707040">
	<ele>1949.20</ele>
	<time>2024-07-25T08:37:35.000Z</time>
</trkpt>
<trkpt lat="46.1126580" lon="10.4706960">
	<ele>1949.40</ele>
	<time>2024-07-25T08:37:36.000Z</time>
</trkpt>
<trkpt lat="46.1126640" lon="10.4706880">
	<ele>1949.80</ele>
	<time>2024-07-25T08:37:37.000Z</time>
</trkpt>
<trkpt lat="46.1126680" lon="10.4706790">
	<ele>1949.80</ele>
	<time>2024-07-25T08:37:38.000Z</time>
</trkpt>
<trkpt lat="46.1126760" lon="10.4706700">
	<ele>1950.00</ele>
	<time>2024-07-25T08:37:39.000Z</time>
</trkpt>
<trkpt lat="46.1126850" lon="10.4706590">
	<ele>1950.00</ele>
	<time>2024-07-25T08:37:40.000Z</time>
</trkpt>
<trkpt lat="46.1126970" lon="10.4706530">
	<ele>1950.20</ele>
	<time>2024-07-25T08:37:41.000Z</time>
</trkpt>
<trkpt lat="46.1127060" lon="10.4706460">
	<ele>1950.40</ele>
	<time>2024-07-25T08:37:42.000Z</time>
</trkpt>
<trkpt lat="46.1127150" lon="10.4706440">
	<ele>1950.40</ele>
	<time>2024-07-25T08:37:43.000Z</time>
</trkpt>
<trkpt lat="46.1127240" lon="10.4706480">
	<ele>1950.60</ele>
	<time>2024-07-25T08:37:44.000Z</time>
</trkpt>
<trkpt lat="46.1127300" lon="10.4706560">
	<ele>1950.60</ele>
	<time>2024-07-25T08:37:45.000Z</time>
</trkpt>
<trkpt lat="46.1127340" lon="10.4706640">
	<ele>1950.80</ele>
	<time>2024-07-25T08:37:46.000Z</time>
</trkpt>
<trkpt lat="46.1127290" lon="10.4706770">
	<ele>1950.80</ele>
	<time>2024-07-25T08:37:47.000Z</time>
</trkpt>
<trkpt lat="46.1127220" lon="10.4706880">
	<ele>1950.80</ele>
	<time>2024-07-25T08:37:48.000Z</time>
</trkpt>
<trkpt lat="46.1127240" lon="10.4707020">
	<ele>1950.80</ele>
	<time>2024-07-25T08:37:49.000Z</time>
</trkpt>
<trkpt lat="46.1127250" lon="10.4707170">
	<ele>1951.00</ele>
	<time>2024-07-25T08:37:50.000Z</time>
</trkpt>
<trkpt lat="46.1127210" lon="10.4707280">
	<ele>1951.20</ele>
	<time>2024-07-25T08:37:51.000Z</time>
</trkpt>
<trkpt lat="46.1127140" lon="10.4707390">
	<ele>1951.40</ele>
	<time>2024-07-25T08:37:52.000Z</time>
</trkpt>
<trkpt lat="46.1127100" lon="10.4707470">
	<ele>1951.40</ele>
	<time>2024-07-25T08:37:53.000Z</time>
</trkpt>
<trkpt lat="46.1127060" lon="10.4707580">
	<ele>1951.80</ele>
	<time>2024-07-25T08:37:54.000Z</time>
</trkpt>
<trkpt lat="46.1127040" lon="10.4707730">
	<ele>1952.00</ele>
	<time>2024-07-25T08:37:55.000Z</time>
</trkpt>
<trkpt lat="46.1126980" lon="10.4707790">
	<ele>1952.00</ele>
	<time>2024-07-25T08:37:56.000Z</time>
</trkpt>
<trkpt lat="46.1126930" lon="10.4707900">
	<ele>1952.20</ele>
	<time>2024-07-25T08:37:57.000Z</time>
</trkpt>
<trkpt lat="46.1126970" lon="10.4708060">
	<ele>1952.20</ele>
	<time>2024-07-25T08:37:58.000Z</time>
</trkpt>
<trkpt lat="46.1126970" lon="10.4708180">
	<ele>1952.40</ele>
	<time>2024-07-25T08:37:59.000Z</time>
</trkpt>
<trkpt lat="46.1126890" lon="10.4708260">
	<ele>1952.60</ele>
	<time>2024-07-25T08:38:00.000Z</time>
</trkpt>
<trkpt lat="46.1126800" lon="10.4708330">
	<ele>1952.60</ele>
	<time>2024-07-25T08:38:01.000Z</time>
</trkpt>
<trkpt lat="46.1126690" lon="10.4708380">
	<ele>1952.80</ele>
	<time>2024-07-25T08:38:02.000Z</time>
</trkpt>
<trkpt lat="46.1126600" lon="10.4708500">
	<ele>1953.00</ele>
	<time>2024-07-25T08:38:03.000Z</time>
</trkpt>
<trkpt lat="46.1126540" lon="10.4708620">
	<ele>1953.00</ele>
	<time>2024-07-25T08:38:04.000Z</time>
</trkpt>
<trkpt lat="46.1126460" lon="10.4708710">
	<ele>1953.20</ele>
	<time>2024-07-25T08:38:05.000Z</time>
</trkpt>
<trkpt lat="46.1126400" lon="10.4708820">
	<ele>1953.20</ele>
	<time>2024-07-25T08:38:06.000Z</time>
</trkpt>
<trkpt lat="46.1126370" lon="10.4708940">
	<ele>1953.40</ele>
	<time>2024-07-25T08:38:07.000Z</time>
</trkpt>
<trkpt lat="46.1126320" lon="10.4709040">
	<ele>1953.60</ele>
	<time>2024-07-25T08:38:08.000Z</time>
</trkpt>
<trkpt lat="46.1126270" lon="10.4709120">
	<ele>1953.60</ele>
	<time>2024-07-25T08:38:09.000Z</time>
</trkpt>
<trkpt lat="46.1126240" lon="10.4709210">
	<ele>1953.60</ele>
	<time>2024-07-25T08:38:10.000Z</time>
</trkpt>
<trkpt lat="46.1126220" lon="10.4709320">
	<ele>1953.80</ele>
	<time>2024-07-25T08:38:11.000Z</time>
</trkpt>
<trkpt lat="46.1126180" lon="10.4709440">
	<ele>1954.00</ele>
	<time>2024-07-25T08:38:12.000Z</time>
</trkpt>
<trkpt lat="46.1126130" lon="10.4709550">
	<ele>1954.20</ele>
	<time>2024-07-25T08:38:13.000Z</time>
</trkpt>
<trkpt lat="46.1126060" lon="10.4709650">
	<ele>1954.40</ele>
	<time>2024-07-25T08:38:14.000Z</time>
</trkpt>
<trkpt lat="46.1126020" lon="10.4709770">
	<ele>1954.40</ele>
	<time>2024-07-25T08:38:15.000Z</time>
</trkpt>
<trkpt lat="46.1125980" lon="10.4709900">
	<ele>1954.60</ele>
	<time>2024-07-25T08:38:16.000Z</time>
</trkpt>
<trkpt lat="46.1125910" lon="10.4710000">
	<ele>1954.80</ele>
	<time>2024-07-25T08:38:17.000Z</time>
</trkpt>
<trkpt lat="46.1125850" lon="10.4710110">
	<ele>1955.00</ele>
	<time>2024-07-25T08:38:18.000Z</time>
</trkpt>
<trkpt lat="46.1125810" lon="10.4710230">
	<ele>1955.20</ele>
	<time>2024-07-25T08:38:19.000Z</time>
</trkpt>
<trkpt lat="46.1125770" lon="10.4710340">
	<ele>1955.40</ele>
	<time>2024-07-25T08:38:20.000Z</time>
</trkpt>
<trkpt lat="46.1125700" lon="10.4710440">
	<ele>1955.40</ele>
	<time>2024-07-25T08:38:21.000Z</time>
</trkpt>
<trkpt lat="46.1125650" lon="10.4710530">
	<ele>1955.40</ele>
	<time>2024-07-25T08:38:22.000Z</time>
</trkpt>
<trkpt lat="46.1125640" lon="10.4710640">
	<ele>1955.60</ele>
	<time>2024-07-25T08:38:23.000Z</time>
</trkpt>
<trkpt lat="46.1125630" lon="10.4710770">
	<ele>1955.80</ele>
	<time>2024-07-25T08:38:24.000Z</time>
</trkpt>
<trkpt lat="46.1125600" lon="10.4710890">
	<ele>1956.00</ele>
	<time>2024-07-25T08:38:25.000Z</time>
</trkpt>
<trkpt lat="46.1125580" lon="10.4711010">
	<ele>1956.20</ele>
	<time>2024-07-25T08:38:26.000Z</time>
</trkpt>
<trkpt lat="46.1125560" lon="10.4711110">
	<ele>1956.40</ele>
	<time>2024-07-25T08:38:27.000Z</time>
</trkpt>
<trkpt lat="46.1125540" lon="10.4711210">
	<ele>1956.60</ele>
	<time>2024-07-25T08:38:28.000Z</time>
</trkpt>
<trkpt lat="46.1125520" lon="10.4711300">
	<ele>1956.60</ele>
	<time>2024-07-25T08:38:29.000Z</time>
</trkpt>
<trkpt lat="46.1125510" lon="10.4711420">
	<ele>1956.60</ele>
	<time>2024-07-25T08:38:30.000Z</time>
</trkpt>
<trkpt lat="46.1125490" lon="10.4711560">
	<ele>1956.80</ele>
	<time>2024-07-25T08:38:31.000Z</time>
</trkpt>
<trkpt lat="46.1125480" lon="10.4711690">
	<ele>1957.20</ele>
	<time>2024-07-25T08:38:32.000Z</time>
</trkpt>
<trkpt lat="46.1125450" lon="10.4711790">
	<ele>1957.40</ele>
	<time>2024-07-25T08:38:33.000Z</time>
</trkpt>
<trkpt lat="46.1125410" lon="10.4711940">
	<ele>1957.40</ele>
	<time>2024-07-25T08:38:34.000Z</time>
</trkpt>
<trkpt lat="46.1125390" lon="10.4712050">
	<ele>1957.60</ele>
	<time>2024-07-25T08:38:35.000Z</time>
</trkpt>
<trkpt lat="46.1125340" lon="10.4712190">
	<ele>1957.80</ele>
	<time>2024-07-25T08:38:36.000Z</time>
</trkpt>
<trkpt lat="46.1125330" lon="10.4712280">
	<ele>1957.80</ele>
	<time>2024-07-25T08:38:37.000Z</time>
</trkpt>
<trkpt lat="46.1125310" lon="10.4712410">
	<ele>1958.00</ele>
	<time>2024-07-25T08:38:38.000Z</time>
</trkpt>
<trkpt lat="46.1125300" lon="10.4712520">
	<ele>1958.20</ele>
	<time>2024-07-25T08:38:39.000Z</time>
</trkpt>
<trkpt lat="46.1125300" lon="10.4712650">
	<ele>1958.20</ele>
	<time>2024-07-25T08:38:40.000Z</time>
</trkpt>
<trkpt lat="46.1125290" lon="10.4712790">
	<ele>1958.40</ele>
	<time>2024-07-25T08:38:41.000Z</time>
</trkpt>
<trkpt lat="46.1125260" lon="10.4712910">
	<ele>1958.60</ele>
	<time>2024-07-25T08:38:42.000Z</time>
</trkpt>
<trkpt lat="46.1125170" lon="10.4713010">
	<ele>1958.80</ele>
	<time>2024-07-25T08:38:43.000Z</time>
</trkpt>
<trkpt lat="46.1125070" lon="10.4713110">
	<ele>1959.00</ele>
	<time>2024-07-25T08:38:44.000Z</time>
</trkpt>
<trkpt lat="46.1125020" lon="10.4713190">
	<ele>1959.00</ele>
	<time>2024-07-25T08:38:45.000Z</time>
</trkpt>
<trkpt lat="46.1124940" lon="10.4713280">
	<ele>1959.20</ele>
	<time>2024-07-25T08:38:46.000Z</time>
</trkpt>
<trkpt lat="46.1124820" lon="10.4713340">
	<ele>1959.40</ele>
	<time>2024-07-25T08:38:47.000Z</time>
</trkpt>
<trkpt lat="46.1124730" lon="10.4713420">
	<ele>1959.60</ele>
	<time>2024-07-25T08:38:48.000Z</time>
</trkpt>
<trkpt lat="46.1124680" lon="10.4713520">
	<ele>1959.80</ele>
	<time>2024-07-25T08:38:49.000Z</time>
</trkpt>
<trkpt lat="46.1124660" lon="10.4713640">
	<ele>1960.00</ele>
	<time>2024-07-25T08:38:50.000Z</time>
</trkpt>
<trkpt lat="46.1124630" lon="10.4713760">
	<ele>1960.20</ele>
	<time>2024-07-25T08:38:51.000Z</time>
</trkpt>
<trkpt lat="46.1124610" lon="10.4713860">
	<ele>1960.40</ele>
	<time>2024-07-25T08:38:52.000Z</time>
</trkpt>
<trkpt lat="46.1124560" lon="10.4713980">
	<ele>1960.40</ele>
	<time>2024-07-25T08:38:53.000Z</time>
</trkpt>
<trkpt lat="46.1124520" lon="10.4714050">
	<ele>1960.60</ele>
	<time>2024-07-25T08:38:54.000Z</time>
</trkpt>
<trkpt lat="46.1124460" lon="10.4714120">
	<ele>1960.80</ele>
	<time>2024-07-25T08:38:55.000Z</time>
</trkpt>
<trkpt lat="46.1124410" lon="10.4714190">
	<ele>1960.80</ele>
	<time>2024-07-25T08:38:56.000Z</time>
</trkpt>
<trkpt lat="46.1124330" lon="10.4714270">
	<ele>1961.00</ele>
	<time>2024-07-25T08:38:57.000Z</time>
</trkpt>
<trkpt lat="46.1124250" lon="10.4714360">
	<ele>1961.20</ele>
	<time>2024-07-25T08:38:58.000Z</time>
</trkpt>
<trkpt lat="46.1124190" lon="10.4714460">
	<ele>1961.40</ele>
	<time>2024-07-25T08:38:59.000Z</time>
</trkpt>
<trkpt lat="46.1124100" lon="10.4714520">
	<ele>1961.40</ele>
	<time>2024-07-25T08:39:00.000Z</time>
</trkpt>
<trkpt lat="46.1124000" lon="10.4714600">
	<ele>1961.80</ele>
	<time>2024-07-25T08:39:01.000Z</time>
</trkpt>
<trkpt lat="46.1123920" lon="10.4714660">
	<ele>1961.80</ele>
	<time>2024-07-25T08:39:02.000Z</time>
</trkpt>
<trkpt lat="46.1123770" lon="10.4714730">
	<ele>1962.00</ele>
	<time>2024-07-25T08:39:03.000Z</time>
</trkpt>
<trkpt lat="46.1123690" lon="10.4714810">
	<ele>1962.20</ele>
	<time>2024-07-25T08:39:04.000Z</time>
</trkpt>
<trkpt lat="46.1123630" lon="10.4714900">
	<ele>1962.20</ele>
	<time>2024-07-25T08:39:05.000Z</time>
</trkpt>
<trkpt lat="46.1123580" lon="10.4715010">
	<ele>1962.20</ele>
	<time>2024-07-25T08:39:06.000Z</time>
</trkpt>
<trkpt lat="46.1123520" lon="10.4715100">
	<ele>1962.40</ele>
	<time>2024-07-25T08:39:07.000Z</time>
</trkpt>
<trkpt lat="46.1123480" lon="10.4715210">
	<ele>1962.60</ele>
	<time>2024-07-25T08:39:08.000Z</time>
</trkpt>
<trkpt lat="46.1123440" lon="10.4715330">
	<ele>1962.80</ele>
	<time>2024-07-25T08:39:09.000Z</time>
</trkpt>
<trkpt lat="46.1123410" lon="10.4715440">
	<ele>1963.00</ele>
	<time>2024-07-25T08:39:10.000Z</time>
</trkpt>
<trkpt lat="46.1123390" lon="10.4715560">
	<ele>1963.00</ele>
	<time>2024-07-25T08:39:11.000Z</time>
</trkpt>
<trkpt lat="46.1123390" lon="10.4715700">
	<ele>1963.20</ele>
	<time>2024-07-25T08:39:12.000Z</time>
</trkpt>
<trkpt lat="46.1123360" lon="10.4715840">
	<ele>1963.20</ele>
	<time>2024-07-25T08:39:13.000Z</time>
</trkpt>
<trkpt lat="46.1123340" lon="10.4715960">
	<ele>1963.40</ele>
	<time>2024-07-25T08:39:14.000Z</time>
</trkpt>
<trkpt lat="46.1123320" lon="10.4716090">
	<ele>1963.60</ele>
	<time>2024-07-25T08:39:15.000Z</time>
</trkpt>
<trkpt lat="46.1123280" lon="10.4716230">
	<ele>1963.80</ele>
	<time>2024-07-25T08:39:16.000Z</time>
</trkpt>
<trkpt lat="46.1123220" lon="10.4716300">
	<ele>1964.20</ele>
	<time>2024-07-25T08:39:17.000Z</time>
</trkpt>
<trkpt lat="46.1123140" lon="10.4716430">
	<ele>1964.40</ele>
	<time>2024-07-25T08:39:18.000Z</time>
</trkpt>
<trkpt lat="46.1123100" lon="10.4716560">
	<ele>1964.60</ele>
	<time>2024-07-25T08:39:19.000Z</time>
</trkpt>
<trkpt lat="46.1123060" lon="10.4716660">
	<ele>1964.80</ele>
	<time>2024-07-25T08:39:20.000Z</time>
</trkpt>
<trkpt lat="46.1123020" lon="10.4716780">
	<ele>1964.80</ele>
	<time>2024-07-25T08:39:21.000Z</time>
</trkpt>
<trkpt lat="46.1123020" lon="10.4716900">
	<ele>1965.00</ele>
	<time>2024-07-25T08:39:22.000Z</time>
</trkpt>
<trkpt lat="46.1123000" lon="10.4717030">
	<ele>1965.20</ele>
	<time>2024-07-25T08:39:23.000Z</time>
</trkpt>
<trkpt lat="46.1122980" lon="10.4717140">
	<ele>1965.40</ele>
	<time>2024-07-25T08:39:24.000Z</time>
</trkpt>
<trkpt lat="46.1122960" lon="10.4717250">
	<ele>1965.40</ele>
	<time>2024-07-25T08:39:25.000Z</time>
</trkpt>
<trkpt lat="46.1122940" lon="10.4717360">
	<ele>1965.60</ele>
	<time>2024-07-25T08:39:26.000Z</time>
</trkpt>
<trkpt lat="46.1122930" lon="10.4717470">
	<ele>1965.80</ele>
	<time>2024-07-25T08:39:27.000Z</time>
</trkpt>
<trkpt lat="46.1122880" lon="10.4717610">
	<ele>1966.00</ele>
	<time>2024-07-25T08:39:28.000Z</time>
</trkpt>
<trkpt lat="46.1122830" lon="10.4717720">
	<ele>1966.20</ele>
	<time>2024-07-25T08:39:29.000Z</time>
</trkpt>
<trkpt lat="46.1122810" lon="10.4717820">
	<ele>1966.20</ele>
	<time>2024-07-25T08:39:30.000Z</time>
</trkpt>
<trkpt lat="46.1122790" lon="10.4717930">
	<ele>1966.40</ele>
	<time>2024-07-25T08:39:31.000Z</time>
</trkpt>
<trkpt lat="46.1122760" lon="10.4718070">
	<ele>1966.60</ele>
	<time>2024-07-25T08:39:32.000Z</time>
</trkpt>
<trkpt lat="46.1122750" lon="10.4718210">
	<ele>1966.60</ele>
	<time>2024-07-25T08:39:33.000Z</time>
</trkpt>
<trkpt lat="46.1122750" lon="10.4718360">
	<ele>1966.80</ele>
	<time>2024-07-25T08:39:34.000Z</time>
</trkpt>
<trkpt lat="46.1122740" lon="10.4718490">
	<ele>1967.00</ele>
	<time>2024-07-25T08:39:35.000Z</time>
</trkpt>
<trkpt lat="46.1122730" lon="10.4718630">
	<ele>1967.00</ele>
	<time>2024-07-25T08:39:36.000Z</time>
</trkpt>
<trkpt lat="46.1122710" lon="10.4718720">
	<ele>1967.40</ele>
	<time>2024-07-25T08:39:37.000Z</time>
</trkpt>
<trkpt lat="46.1122660" lon="10.4718820">
	<ele>1967.60</ele>
	<time>2024-07-25T08:39:38.000Z</time>
</trkpt>
<trkpt lat="46.1122650" lon="10.4718940">
	<ele>1967.60</ele>
	<time>2024-07-25T08:39:39.000Z</time>
</trkpt>
<trkpt lat="46.1122630" lon="10.4719070">
	<ele>1967.80</ele>
	<time>2024-07-25T08:39:40.000Z</time>
</trkpt>
<trkpt lat="46.1122560" lon="10.4719160">
	<ele>1967.80</ele>
	<time>2024-07-25T08:39:41.000Z</time>
</trkpt>
<trkpt lat="46.1122490" lon="10.4719290">
	<ele>1968.00</ele>
	<time>2024-07-25T08:39:42.000Z</time>
</trkpt>
<trkpt lat="46.1122470" lon="10.4719330">
	<ele>1968.20</ele>
	<time>2024-07-25T08:39:43.000Z</time>
</trkpt>
<trkpt lat="46.1122490" lon="10.4719370">
	<ele>1968.40</ele>
	<time>2024-07-25T08:39:44.000Z</time>
</trkpt>
<trkpt lat="46.1122480" lon="10.4719380">
	<ele>1968.60</ele>
	<time>2024-07-25T08:39:45.000Z</time>
</trkpt>
<trkpt lat="46.1122470" lon="10.4719380">
	<ele>1968.60</ele>
	<time>2024-07-25T08:39:46.000Z</time>
</trkpt>
<trkpt lat="46.1122470" lon="10.4719400">
	<ele>1968.80</ele>
	<time>2024-07-25T08:39:47.000Z</time>
</trkpt>
<trkpt lat="46.1122470" lon="10.4719400">
	<ele>1968.80</ele>
	<time>2024-07-25T08:39:48.000Z</time>
</trkpt>
<trkpt lat="46.1122460" lon="10.4719390">
	<ele>1968.80</ele>
	<time>2024-07-25T08:39:49.000Z</time>
</trkpt>
<trkpt lat="46.1122450" lon="10.4719400">
	<ele>1968.80</ele>
	<time>2024-07-25T08:39:50.000Z</time>
</trkpt>
<trkpt lat="46.1122430" lon="10.4719390">
	<ele>1969.00</ele>
	<time>2024-07-25T08:39:51.000Z</time>
</trkpt>
<trkpt lat="46.1122430" lon="10.4719380">
	<ele>1969.20</ele>
	<time>2024-07-25T08:39:52.000Z</time>
</trkpt>
<trkpt lat="46.1122450" lon="10.4719360">
	<ele>1969.20</ele>
	<time>2024-07-25T08:39:53.000Z</time>
</trkpt>
<trkpt lat="46.1122450" lon="10.4719350">
	<ele>1969.20</ele>
	<time>2024-07-25T08:39:54.000Z</time>
</trkpt>
<trkpt lat="46.1122450" lon="10.4719350">
	<ele>1969.20</ele>
	<time>2024-07-25T08:39:55.000Z</time>
</trkpt>
<trkpt lat="46.1122430" lon="10.4719330">
	<ele>1969.40</ele>
	<time>2024-07-25T08:39:56.000Z</time>
</trkpt>
<trkpt lat="46.1122440" lon="10.4719330">
	<ele>1969.20</ele>
	<time>2024-07-25T08:39:57.000Z</time>
</trkpt>
<trkpt lat="46.1122480" lon="10.4719210">
	<ele>1969.00</ele>
	<time>2024-07-25T08:39:58.000Z</time>
</trkpt>
<trkpt lat="46.1122450" lon="10.4719180">
	<ele>1969.00</ele>
	<time>2024-07-25T08:39:59.000Z</time>
</trkpt>
<trkpt lat="46.1122400" lon="10.4719120">
	<ele>1968.80</ele>
	<time>2024-07-25T08:40:00.000Z</time>
</trkpt>
<trkpt lat="46.1122300" lon="10.4719070">
	<ele>1968.80</ele>
	<time>2024-07-25T08:40:01.000Z</time>
</trkpt>
<trkpt lat="46.1122240" lon="10.4719090">
	<ele>1968.80</ele>
	<time>2024-07-25T08:40:02.000Z</time>
</trkpt>
<trkpt lat="46.1122180" lon="10.4719120">
	<ele>1968.80</ele>
	<time>2024-07-25T08:40:03.000Z</time>
</trkpt>
<trkpt lat="46.1122160" lon="10.4719130">
	<ele>1968.80</ele>
	<time>2024-07-25T08:40:04.000Z</time>
</trkpt>
<trkpt lat="46.1122140" lon="10.4719130">
	<ele>1968.80</ele>
	<time>2024-07-25T08:40:05.000Z</time>
</trkpt>
<trkpt lat="46.1122110" lon="10.4719110">
	<ele>1968.80</ele>
	<time>2024-07-25T08:40:06.000Z</time>
</trkpt>
<trkpt lat="46.1122120" lon="10.4719040">
	<ele>1968.80</ele>
	<time>2024-07-25T08:40:07.000Z</time>
</trkpt>
<trkpt lat="46.1122110" lon="10.4719030">
	<ele>1969.00</ele>
	<time>2024-07-25T08:40:08.000Z</time>
</trkpt>
<trkpt lat="46.1122120" lon="10.4719040">
	<ele>1968.80</ele>
	<time>2024-07-25T08:40:09.000Z</time>
</trkpt>
<trkpt lat="46.1122120" lon="10.4719040">
	<ele>1968.80</ele>
	<time>2024-07-25T08:40:10.000Z</time>
</trkpt>
<trkpt lat="46.1122120" lon="10.4719040">
	<ele>1968.80</ele>
	<time>2024-07-25T08:40:11.000Z</time>
</trkpt>
<trkpt lat="46.1122120" lon="10.4719040">
	<ele>1968.80</ele>
	<time>2024-07-25T08:40:12.000Z</time>
</trkpt>
<trkpt lat="46.1122120" lon="10.4719040">
	<ele>1968.80</ele>
	<time>2024-07-25T08:40:13.000Z</time>
</trkpt>
<trkpt lat="46.1122120" lon="10.4719040">
	<ele>1969.00</ele>
	<time>2024-07-25T08:40:14.000Z</time>
</trkpt>
<trkpt lat="46.1122120" lon="10.4719040">
	<ele>1969.00</ele>
	<time>2024-07-25T08:40:15.000Z</time>
</trkpt>
<trkpt lat="46.1122120" lon="10.4719040">
	<ele>1969.20</ele>
	<time>2024-07-25T08:40:16.000Z</time>
</trkpt>
<trkpt lat="46.1122120" lon="10.4719040">
	<ele>1969.20</ele>
	<time>2024-07-25T08:40:17.000Z</time>
</trkpt>
<trkpt lat="46.1122120" lon="10.4719040">
	<ele>1969.40</ele>
	<time>2024-07-25T08:40:18.000Z</time>
</trkpt>
<trkpt lat="46.1122120" lon="10.4719040">
	<ele>1969.40</ele>
	<time>2024-07-25T08:40:19.000Z</time>
</trkpt>
<trkpt lat="46.1122120" lon="10.4719040">
	<ele>1969.60</ele>
	<time>2024-07-25T08:40:20.000Z</time>
</trkpt>
<trkpt lat="46.1122120" lon="10.4719040">
	<ele>1969.60</ele>
	<time>2024-07-25T08:40:21.000Z</time>
</trkpt>
<trkpt lat="46.1122120" lon="10.4719070">
	<ele>1969.60</ele>
	<time>2024-07-25T08:40:22.000Z</time>
</trkpt>
<trkpt lat="46.1122120" lon="10.4719080">
	<ele>1970.00</ele>
	<time>2024-07-25T08:40:23.000Z</time>
</trkpt>
<trkpt lat="46.1122120" lon="10.4719110">
	<ele>1970.20</ele>
	<time>2024-07-25T08:40:24.000Z</time>
</trkpt>
<trkpt lat="46.1122090" lon="10.4719210">
	<ele>1970.40</ele>
	<time>2024-07-25T08:40:25.000Z</time>
</trkpt>
<trkpt lat="46.1122000" lon="10.4719310">
	<ele>1970.60</ele>
	<time>2024-07-25T08:40:26.000Z</time>
</trkpt>
<trkpt lat="46.1121890" lon="10.4719450">
	<ele>1970.80</ele>
	<time>2024-07-25T08:40:27.000Z</time>
</trkpt>
<trkpt lat="46.1121810" lon="10.4719620">
	<ele>1971.00</ele>
	<time>2024-07-25T08:40:28.000Z</time>
</trkpt>
<trkpt lat="46.1121730" lon="10.4719780">
	<ele>1971.20</ele>
	<time>2024-07-25T08:40:29.000Z</time>
</trkpt>
<trkpt lat="46.1121640" lon="10.4719930">
	<ele>1971.40</ele>
	<time>2024-07-25T08:40:30.000Z</time>
</trkpt>
<trkpt lat="46.1121540" lon="10.4720060">
	<ele>1971.60</ele>
	<time>2024-07-25T08:40:31.000Z</time>
</trkpt>
<trkpt lat="46.1121440" lon="10.4720230">
	<ele>1971.80</ele>
	<time>2024-07-25T08:40:32.000Z</time>
</trkpt>
<trkpt lat="46.1121390" lon="10.4720400">
	<ele>1972.00</ele>
	<time>2024-07-25T08:40:33.000Z</time>
</trkpt>
<trkpt lat="46.1121270" lon="10.4720610">
	<ele>1972.00</ele>
	<time>2024-07-25T08:40:34.000Z</time>
</trkpt>
<trkpt lat="46.1121220" lon="10.4720740">
	<ele>1972.20</ele>
	<time>2024-07-25T08:40:35.000Z</time>
</trkpt>
<trkpt lat="46.1121150" lon="10.4720830">
	<ele>1972.40</ele>
	<time>2024-07-25T08:40:36.000Z</time>
</trkpt>
<trkpt lat="46.1121080" lon="10.4720860">
	<ele>1972.80</ele>
	<time>2024-07-25T08:40:37.000Z</time>
</trkpt>
<trkpt lat="46.1120970" lon="10.4720890">
	<ele>1973.00</ele>
	<time>2024-07-25T08:40:38.000Z</time>
</trkpt>
<trkpt lat="46.1120970" lon="10.4720890">
	<ele>1973.20</ele>
	<time>2024-07-25T08:40:39.000Z</time>
</trkpt>
<trkpt lat="46.1120940" lon="10.4720880">
	<ele>1973.40</ele>
	<time>2024-07-25T08:40:40.000Z</time>
</trkpt>
<trkpt lat="46.1120840" lon="10.4720870">
	<ele>1973.40</ele>
	<time>2024-07-25T08:40:41.000Z</time>
</trkpt>
<trkpt lat="46.1120720" lon="10.4720820">
	<ele>1973.60</ele>
	<time>2024-07-25T08:40:42.000Z</time>
</trkpt>
<trkpt lat="46.1120650" lon="10.4720750">
	<ele>1973.60</ele>
	<time>2024-07-25T08:40:43.000Z</time>
</trkpt>
<trkpt lat="46.1120520" lon="10.4720720">
	<ele>1973.80</ele>
	<time>2024-07-25T08:40:44.000Z</time>
</trkpt>
<trkpt lat="46.1120450" lon="10.4720680">
	<ele>1973.80</ele>
	<time>2024-07-25T08:40:45.000Z</time>
</trkpt>
<trkpt lat="46.1120430" lon="10.4720550">
	<ele>1974.00</ele>
	<time>2024-07-25T08:40:46.000Z</time>
</trkpt>
<trkpt lat="46.1120410" lon="10.4720430">
	<ele>1974.00</ele>
	<time>2024-07-25T08:40:47.000Z</time>
</trkpt>
<trkpt lat="46.1120310" lon="10.4720380">
	<ele>1974.20</ele>
	<time>2024-07-25T08:40:48.000Z</time>
</trkpt>
<trkpt lat="46.1120270" lon="10.4720290">
	<ele>1974.20</ele>
	<time>2024-07-25T08:40:49.000Z</time>
</trkpt>
<trkpt lat="46.1120210" lon="10.4720180">
	<ele>1974.40</ele>
	<time>2024-07-25T08:40:50.000Z</time>
</trkpt>
<trkpt lat="46.1120160" lon="10.4720040">
	<ele>1974.40</ele>
	<time>2024-07-25T08:40:51.000Z</time>
</trkpt>
<trkpt lat="46.1120070" lon="10.4719890">
	<ele>1974.60</ele>
	<time>2024-07-25T08:40:52.000Z</time>
</trkpt>
<trkpt lat="46.1120010" lon="10.4719770">
	<ele>1974.60</ele>
	<time>2024-07-25T08:40:53.000Z</time>
</trkpt>
<trkpt lat="46.1119950" lon="10.4719700">
	<ele>1974.80</ele>
	<time>2024-07-25T08:40:54.000Z</time>
</trkpt>
<trkpt lat="46.1119920" lon="10.4719640">
	<ele>1974.80</ele>
	<time>2024-07-25T08:40:55.000Z</time>
</trkpt>
<trkpt lat="46.1119850" lon="10.4719580">
	<ele>1974.80</ele>
	<time>2024-07-25T08:40:56.000Z</time>
</trkpt>
<trkpt lat="46.1119760" lon="10.4719480">
	<ele>1974.80</ele>
	<time>2024-07-25T08:40:57.000Z</time>
</trkpt>
<trkpt lat="46.1119650" lon="10.4719390">
	<ele>1975.00</ele>
	<time>2024-07-25T08:40:58.000Z</time>
</trkpt>
<trkpt lat="46.1119510" lon="10.4719320">
	<ele>1975.00</ele>
	<time>2024-07-25T08:40:59.000Z</time>
</trkpt>
<trkpt lat="46.1119350" lon="10.4719300">
	<ele>1975.20</ele>
	<time>2024-07-25T08:41:00.000Z</time>
</trkpt>
<trkpt lat="46.1119230" lon="10.4719330">
	<ele>1975.20</ele>
	<time>2024-07-25T08:41:01.000Z</time>
</trkpt>
<trkpt lat="46.1119140" lon="10.4719320">
	<ele>1975.40</ele>
	<time>2024-07-25T08:41:02.000Z</time>
</trkpt>
<trkpt lat="46.1119030" lon="10.4719320">
	<ele>1975.60</ele>
	<time>2024-07-25T08:41:03.000Z</time>
</trkpt>
<trkpt lat="46.1118920" lon="10.4719350">
	<ele>1975.80</ele>
	<time>2024-07-25T08:41:04.000Z</time>
</trkpt>
<trkpt lat="46.1118790" lon="10.4719380">
	<ele>1975.80</ele>
	<time>2024-07-25T08:41:05.000Z</time>
</trkpt>
<trkpt lat="46.1118670" lon="10.4719380">
	<ele>1975.80</ele>
	<time>2024-07-25T08:41:06.000Z</time>
</trkpt>
<trkpt lat="46.1118590" lon="10.4719390">
	<ele>1976.00</ele>
	<time>2024-07-25T08:41:07.000Z</time>
</trkpt>
<trkpt lat="46.1118520" lon="10.4719430">
	<ele>1976.00</ele>
	<time>2024-07-25T08:41:08.000Z</time>
</trkpt>
<trkpt lat="46.1118440" lon="10.4719490">
	<ele>1976.00</ele>
	<time>2024-07-25T08:41:09.000Z</time>
</trkpt>
<trkpt lat="46.1118350" lon="10.4719550">
	<ele>1976.20</ele>
	<time>2024-07-25T08:41:10.000Z</time>
</trkpt>
<trkpt lat="46.1118240" lon="10.4719580">
	<ele>1976.40</ele>
	<time>2024-07-25T08:41:11.000Z</time>
</trkpt>
<trkpt lat="46.1118160" lon="10.4719640">
	<ele>1976.80</ele>
	<time>2024-07-25T08:41:12.000Z</time>
</trkpt>
<trkpt lat="46.1118120" lon="10.4719680">
	<ele>1977.00</ele>
	<time>2024-07-25T08:41:13.000Z</time>
</trkpt>
<trkpt lat="46.1118020" lon="10.4719770">
	<ele>1977.20</ele>
	<time>2024-07-25T08:41:14.000Z</time>
</trkpt>
<trkpt lat="46.1117930" lon="10.4719860">
	<ele>1977.20</ele>
	<time>2024-07-25T08:41:15.000Z</time>
</trkpt>
<trkpt lat="46.1117830" lon="10.4719960">
	<ele>1977.40</ele>
	<time>2024-07-25T08:41:16.000Z</time>
</trkpt>
<trkpt lat="46.1117740" lon="10.4720020">
	<ele>1977.40</ele>
	<time>2024-07-25T08:41:17.000Z</time>
</trkpt>
<trkpt lat="46.1117670" lon="10.4720080">
	<ele>1977.60</ele>
	<time>2024-07-25T08:41:18.000Z</time>
</trkpt>
<trkpt lat="46.1117600" lon="10.4720160">
	<ele>1977.80</ele>
	<time>2024-07-25T08:41:19.000Z</time>
</trkpt>
<trkpt lat="46.1117540" lon="10.4720270">
	<ele>1978.00</ele>
	<time>2024-07-25T08:41:20.000Z</time>
</trkpt>
<trkpt lat="46.1117480" lon="10.4720340">
	<ele>1978.00</ele>
	<time>2024-07-25T08:41:21.000Z</time>
</trkpt>
<trkpt lat="46.1117420" lon="10.4720410">
	<ele>1978.40</ele>
	<time>2024-07-25T08:41:22.000Z</time>
</trkpt>
<trkpt lat="46.1117360" lon="10.4720500">
	<ele>1978.60</ele>
	<time>2024-07-25T08:41:23.000Z</time>
</trkpt>
<trkpt lat="46.1117330" lon="10.4720580">
	<ele>1978.80</ele>
	<time>2024-07-25T08:41:24.000Z</time>
</trkpt>
<trkpt lat="46.1117290" lon="10.4720660">
	<ele>1979.00</ele>
	<time>2024-07-25T08:41:25.000Z</time>
</trkpt>
<trkpt lat="46.1117270" lon="10.4720760">
	<ele>1979.20</ele>
	<time>2024-07-25T08:41:26.000Z</time>
</trkpt>
<trkpt lat="46.1117230" lon="10.4720840">
	<ele>1979.40</ele>
	<time>2024-07-25T08:41:27.000Z</time>
</trkpt>
<trkpt lat="46.1117170" lon="10.4720920">
	<ele>1979.60</ele>
	<time>2024-07-25T08:41:28.000Z</time>
</trkpt>
<trkpt lat="46.1117100" lon="10.4720990">
	<ele>1979.80</ele>
	<time>2024-07-25T08:41:29.000Z</time>
</trkpt>
<trkpt lat="46.1117050" lon="10.4721050">
	<ele>1980.20</ele>
	<time>2024-07-25T08:41:30.000Z</time>
</trkpt>
<trkpt lat="46.1116970" lon="10.4721160">
	<ele>1980.60</ele>
	<time>2024-07-25T08:41:31.000Z</time>
</trkpt>
<trkpt lat="46.1116890" lon="10.4721220">
	<ele>1980.60</ele>
	<time>2024-07-25T08:41:32.000Z</time>
</trkpt>
<trkpt lat="46.1116830" lon="10.4721340">
	<ele>1980.80</ele>
	<time>2024-07-25T08:41:33.000Z</time>
</trkpt>
<trkpt lat="46.1116750" lon="10.4721420">
	<ele>1981.00</ele>
	<time>2024-07-25T08:41:34.000Z</time>
</trkpt>
<trkpt lat="46.1116670" lon="10.4721480">
	<ele>1981.20</ele>
	<time>2024-07-25T08:41:35.000Z</time>
</trkpt>
<trkpt lat="46.1116600" lon="10.4721550">
	<ele>1981.40</ele>
	<time>2024-07-25T08:41:36.000Z</time>
</trkpt>
<trkpt lat="46.1116530" lon="10.4721630">
	<ele>1981.60</ele>
	<time>2024-07-25T08:41:37.000Z</time>
</trkpt>
<trkpt lat="46.1116470" lon="10.4721750">
	<ele>1981.80</ele>
	<time>2024-07-25T08:41:38.000Z</time>
</trkpt>
<trkpt lat="46.1116460" lon="10.4721890">
	<ele>1982.00</ele>
	<time>2024-07-25T08:41:39.000Z</time>
</trkpt>
<trkpt lat="46.1116480" lon="10.4722000">
	<ele>1982.20</ele>
	<time>2024-07-25T08:41:40.000Z</time>
</trkpt>
<trkpt lat="46.1116480" lon="10.4722120">
	<ele>1982.20</ele>
	<time>2024-07-25T08:41:41.000Z</time>
</trkpt>
<trkpt lat="46.1116480" lon="10.4722230">
	<ele>1982.40</ele>
	<time>2024-07-25T08:41:42.000Z</time>
</trkpt>
<trkpt lat="46.1116460" lon="10.4722330">
	<ele>1982.60</ele>
	<time>2024-07-25T08:41:43.000Z</time>
</trkpt>
<trkpt lat="46.1116450" lon="10.4722440">
	<ele>1982.80</ele>
	<time>2024-07-25T08:41:44.000Z</time>
</trkpt>
<trkpt lat="46.1116460" lon="10.4722550">
	<ele>1982.80</ele>
	<time>2024-07-25T08:41:45.000Z</time>
</trkpt>
<trkpt lat="46.1116440" lon="10.4722690">
	<ele>1983.00</ele>
	<time>2024-07-25T08:41:46.000Z</time>
</trkpt>
<trkpt lat="46.1116420" lon="10.4722850">
	<ele>1983.00</ele>
	<time>2024-07-25T08:41:47.000Z</time>
</trkpt>
<trkpt lat="46.1116380" lon="10.4722980">
	<ele>1983.20</ele>
	<time>2024-07-25T08:41:48.000Z</time>
</trkpt>
<trkpt lat="46.1116320" lon="10.4723160">
	<ele>1983.20</ele>
	<time>2024-07-25T08:41:49.000Z</time>
</trkpt>
<trkpt lat="46.1116310" lon="10.4723310">
	<ele>1983.40</ele>
	<time>2024-07-25T08:41:50.000Z</time>
</trkpt>
<trkpt lat="46.1116310" lon="10.4723470">
	<ele>1983.40</ele>
	<time>2024-07-25T08:41:51.000Z</time>
</trkpt>
<trkpt lat="46.1116350" lon="10.4723620">
	<ele>1983.40</ele>
	<time>2024-07-25T08:41:52.000Z</time>
</trkpt>
<trkpt lat="46.1116310" lon="10.4723710">
	<ele>1983.40</ele>
	<time>2024-07-25T08:41:53.000Z</time>
</trkpt>
<trkpt lat="46.1116300" lon="10.4723810">
	<ele>1983.40</ele>
	<time>2024-07-25T08:41:54.000Z</time>
</trkpt>
<trkpt lat="46.1116270" lon="10.4723890">
	<ele>1983.40</ele>
	<time>2024-07-25T08:41:55.000Z</time>
</trkpt>
<trkpt lat="46.1116270" lon="10.4723940">
	<ele>1983.40</ele>
	<time>2024-07-25T08:41:56.000Z</time>
</trkpt>
<trkpt lat="46.1116270" lon="10.4723960">
	<ele>1983.20</ele>
	<time>2024-07-25T08:41:57.000Z</time>
</trkpt>
<trkpt lat="46.1116260" lon="10.4723980">
	<ele>1983.20</ele>
	<time>2024-07-25T08:41:58.000Z</time>
</trkpt>
<trkpt lat="46.1116260" lon="10.4723980">
	<ele>1983.20</ele>
	<time>2024-07-25T08:41:59.000Z</time>
</trkpt>
<trkpt lat="46.1116260" lon="10.4723980">
	<ele>1983.20</ele>
	<time>2024-07-25T08:42:00.000Z</time>
</trkpt>
<trkpt lat="46.1116260" lon="10.4723980">
	<ele>1983.20</ele>
	<time>2024-07-25T08:42:01.000Z</time>
</trkpt>
<trkpt lat="46.1116270" lon="10.4723980">
	<ele>1983.40</ele>
	<time>2024-07-25T08:42:02.000Z</time>
</trkpt>
<trkpt lat="46.1116270" lon="10.4723990">
	<ele>1983.40</ele>
	<time>2024-07-25T08:42:03.000Z</time>
</trkpt>
<trkpt lat="46.1116280" lon="10.4724020">
	<ele>1983.40</ele>
	<time>2024-07-25T08:42:04.000Z</time>
</trkpt>
<trkpt lat="46.1116280" lon="10.4724090">
	<ele>1983.40</ele>
	<time>2024-07-25T08:42:05.000Z</time>
</trkpt>
<trkpt lat="46.1116300" lon="10.4724200">
	<ele>1983.40</ele>
	<time>2024-07-25T08:42:06.000Z</time>
</trkpt>
<trkpt lat="46.1116290" lon="10.4724310">
	<ele>1983.40</ele>
	<time>2024-07-25T08:42:07.000Z</time>
</trkpt>
<trkpt lat="46.1116310" lon="10.4724440">
	<ele>1983.20</ele>
	<time>2024-07-25T08:42:08.000Z</time>
</trkpt>
<trkpt lat="46.1116350" lon="10.4724560">
	<ele>1983.20</ele>
	<time>2024-07-25T08:42:09.000Z</time>
</trkpt>
<trkpt lat="46.1116390" lon="10.4724650">
	<ele>1983.20</ele>
	<time>2024-07-25T08:42:10.000Z</time>
</trkpt>
<trkpt lat="46.1116420" lon="10.4724750">
	<ele>1983.20</ele>
	<time>2024-07-25T08:42:11.000Z</time>
</trkpt>
<trkpt lat="46.1116430" lon="10.4724850">
	<ele>1983.20</ele>
	<time>2024-07-25T08:42:12.000Z</time>
</trkpt>
<trkpt lat="46.1116430" lon="10.4724980">
	<ele>1983.20</ele>
	<time>2024-07-25T08:42:13.000Z</time>
</trkpt>
<trkpt lat="46.1116430" lon="10.4725060">
	<ele>1983.20</ele>
	<time>2024-07-25T08:42:14.000Z</time>
</trkpt>
<trkpt lat="46.1116420" lon="10.4725080">
	<ele>1983.40</ele>
	<time>2024-07-25T08:42:15.000Z</time>
</trkpt>
<trkpt lat="46.1116420" lon="10.4725080">
	<ele>1983.40</ele>
	<time>2024-07-25T08:42:16.000Z</time>
</trkpt>
<trkpt lat="46.1116440" lon="10.4725090">
	<ele>1983.40</ele>
	<time>2024-07-25T08:42:17.000Z</time>
</trkpt>
<trkpt lat="46.1116460" lon="10.4725100">
	<ele>1983.40</ele>
	<time>2024-07-25T08:42:18.000Z</time>
</trkpt>
<trkpt lat="46.1116460" lon="10.4725100">
	<ele>1983.40</ele>
	<time>2024-07-25T08:42:19.000Z</time>
</trkpt>
<trkpt lat="46.1116460" lon="10.4725090">
	<ele>1983.40</ele>
	<time>2024-07-25T08:42:20.000Z</time>
</trkpt>
<trkpt lat="46.1116460" lon="10.4725080">
	<ele>1983.40</ele>
	<time>2024-07-25T08:42:21.000Z</time>
</trkpt>
<trkpt lat="46.1116470" lon="10.4725070">
	<ele>1983.40</ele>
	<time>2024-07-25T08:42:22.000Z</time>
</trkpt>
<trkpt lat="46.1116460" lon="10.4725070">
	<ele>1983.40</ele>
	<time>2024-07-25T08:42:23.000Z</time>
</trkpt>
<trkpt lat="46.1116470" lon="10.4725070">
	<ele>1983.40</ele>
	<time>2024-07-25T08:42:24.000Z</time>
</trkpt>
<trkpt lat="46.1116470" lon="10.4725080">
	<ele>1983.40</ele>
	<time>2024-07-25T08:42:25.000Z</time>
</trkpt>
<trkpt lat="46.1116480" lon="10.4725080">
	<ele>1983.40</ele>
	<time>2024-07-25T08:42:26.000Z</time>
</trkpt>
<trkpt lat="46.1116480" lon="10.4725080">
	<ele>1983.60</ele>
	<time>2024-07-25T08:42:27.000Z</time>
</trkpt>
<trkpt lat="46.1116480" lon="10.4725080">
	<ele>1983.60</ele>
	<time>2024-07-25T08:42:28.000Z</time>
</trkpt>
<trkpt lat="46.1116480" lon="10.4725080">
	<ele>1983.80</ele>
	<time>2024-07-25T08:42:29.000Z</time>
</trkpt>
<trkpt lat="46.1116480" lon="10.4725080">
	<ele>1983.80</ele>
	<time>2024-07-25T08:42:30.000Z</time>
</trkpt>
<trkpt lat="46.1116480" lon="10.4725080">
	<ele>1983.80</ele>
	<time>2024-07-25T08:42:31.000Z</time>
</trkpt>
<trkpt lat="46.1116480" lon="10.4725080">
	<ele>1984.00</ele>
	<time>2024-07-25T08:42:32.000Z</time>
</trkpt>
<trkpt lat="46.1116480" lon="10.4725080">
	<ele>1984.00</ele>
	<time>2024-07-25T08:42:33.000Z</time>
</trkpt>
<trkpt lat="46.1116480" lon="10.4725080">
	<ele>1984.00</ele>
	<time>2024-07-25T08:42:34.000Z</time>
</trkpt>
<trkpt lat="46.1116480" lon="10.4725080">
	<ele>1983.80</ele>
	<time>2024-07-25T08:42:35.000Z</time>
</trkpt>
<trkpt lat="46.1116480" lon="10.4725080">
	<ele>1983.80</ele>
	<time>2024-07-25T08:42:36.000Z</time>
</trkpt>
<trkpt lat="46.1116510" lon="10.4725080">
	<ele>1983.80</ele>
	<time>2024-07-25T08:42:37.000Z</time>
</trkpt>
<trkpt lat="46.1116650" lon="10.4725110">
	<ele>1984.00</ele>
	<time>2024-07-25T08:42:38.000Z</time>
</trkpt>
<trkpt lat="46.1116790" lon="10.4725130">
	<ele>1983.80</ele>
	<time>2024-07-25T08:42:39.000Z</time>
</trkpt>
<trkpt lat="46.1116920" lon="10.4725150">
	<ele>1984.00</ele>
	<time>2024-07-25T08:42:40.000Z</time>
</trkpt>
<trkpt lat="46.1117060" lon="10.4725210">
	<ele>1984.00</ele>
	<time>2024-07-25T08:42:41.000Z</time>
</trkpt>
<trkpt lat="46.1117210" lon="10.4725280">
	<ele>1984.00</ele>
	<time>2024-07-25T08:42:42.000Z</time>
</trkpt>
<trkpt lat="46.1117300" lon="10.4725310">
	<ele>1984.00</ele>
	<time>2024-07-25T08:42:43.000Z</time>
</trkpt>
<trkpt lat="46.1117400" lon="10.4725390">
	<ele>1984.00</ele>
	<time>2024-07-25T08:42:44.000Z</time>
</trkpt>
<trkpt lat="46.1117500" lon="10.4725450">
	<ele>1984.00</ele>
	<time>2024-07-25T08:42:45.000Z</time>
</trkpt>
<trkpt lat="46.1117560" lon="10.4725550">
	<ele>1984.00</ele>
	<time>2024-07-25T08:42:46.000Z</time>
</trkpt>
<trkpt lat="46.1117650" lon="10.4725630">
	<ele>1984.00</ele>
	<time>2024-07-25T08:42:47.000Z</time>
</trkpt>
<trkpt lat="46.1117790" lon="10.4725770">
	<ele>1984.20</ele>
	<time>2024-07-25T08:42:48.000Z</time>
</trkpt>
<trkpt lat="46.1117870" lon="10.4725910">
	<ele>1984.20</ele>
	<time>2024-07-25T08:42:49.000Z</time>
</trkpt>
<trkpt lat="46.1117910" lon="10.4725980">
	<ele>1984.20</ele>
	<time>2024-07-25T08:42:50.000Z</time>
</trkpt>
<trkpt lat="46.1117990" lon="10.4726100">
	<ele>1984.40</ele>
	<time>2024-07-25T08:42:51.000Z</time>
</trkpt>
<trkpt lat="46.1118060" lon="10.4726220">
	<ele>1984.60</ele>
	<time>2024-07-25T08:42:52.000Z</time>
</trkpt>
<trkpt lat="46.1118140" lon="10.4726320">
	<ele>1984.60</ele>
	<time>2024-07-25T08:42:53.000Z</time>
</trkpt>
<trkpt lat="46.1118220" lon="10.4726410">
	<ele>1984.60</ele>
	<time>2024-07-25T08:42:54.000Z</time>
</trkpt>
<trkpt lat="46.1118310" lon="10.4726500">
	<ele>1984.60</ele>
	<time>2024-07-25T08:42:55.000Z</time>
</trkpt>
<trkpt lat="46.1118390" lon="10.4726620">
	<ele>1984.80</ele>
	<time>2024-07-25T08:42:56.000Z</time>
</trkpt>
<trkpt lat="46.1118480" lon="10.4726760">
	<ele>1984.80</ele>
	<time>2024-07-25T08:42:57.000Z</time>
</trkpt>
<trkpt lat="46.1118550" lon="10.4726910">
	<ele>1984.80</ele>
	<time>2024-07-25T08:42:58.000Z</time>
</trkpt>
<trkpt lat="46.1118640" lon="10.4727040">
	<ele>1984.80</ele>
	<time>2024-07-25T08:42:59.000Z</time>
</trkpt>
<trkpt lat="46.1118710" lon="10.4727160">
	<ele>1984.80</ele>
	<time>2024-07-25T08:43:00.000Z</time>
</trkpt>
<trkpt lat="46.1118800" lon="10.4727270">
	<ele>1984.80</ele>
	<time>2024-07-25T08:43:01.000Z</time>
</trkpt>
<trkpt lat="46.1118850" lon="10.4727320">
	<ele>1984.80</ele>
	<time>2024-07-25T08:43:02.000Z</time>
</trkpt>
<trkpt lat="46.1118880" lon="10.4727340">
	<ele>1984.80</ele>
	<time>2024-07-25T08:43:03.000Z</time>
</trkpt>
<trkpt lat="46.1118900" lon="10.4727360">
	<ele>1984.80</ele>
	<time>2024-07-25T08:43:04.000Z</time>
</trkpt>
<trkpt lat="46.1118930" lon="10.4727390">
	<ele>1985.00</ele>
	<time>2024-07-25T08:43:05.000Z</time>
</trkpt>
<trkpt lat="46.1118960" lon="10.4727440">
	<ele>1985.20</ele>
	<time>2024-07-25T08:43:06.000Z</time>
</trkpt>
<trkpt lat="46.1119020" lon="10.4727540">
	<ele>1985.20</ele>
	<time>2024-07-25T08:43:07.000Z</time>
</trkpt>
<trkpt lat="46.1119070" lon="10.4727620">
	<ele>1985.20</ele>
	<time>2024-07-25T08:43:08.000Z</time>
</trkpt>
<trkpt lat="46.1119150" lon="10.4727710">
	<ele>1985.20</ele>
	<time>2024-07-25T08:43:09.000Z</time>
</trkpt>
<trkpt lat="46.1119240" lon="10.4727850">
	<ele>1985.20</ele>
	<time>2024-07-25T08:43:10.000Z</time>
</trkpt>
<trkpt lat="46.1119320" lon="10.4727920">
	<ele>1985.20</ele>
	<time>2024-07-25T08:43:11.000Z</time>
</trkpt>
<trkpt lat="46.1119440" lon="10.4727990">
	<ele>1985.00</ele>
	<time>2024-07-25T08:43:12.000Z</time>
</trkpt>
<trkpt lat="46.1119550" lon="10.4728050">
	<ele>1985.00</ele>
	<time>2024-07-25T08:43:13.000Z</time>
</trkpt>
<trkpt lat="46.1119650" lon="10.4728100">
	<ele>1985.00</ele>
	<time>2024-07-25T08:43:14.000Z</time>
</trkpt>
<trkpt lat="46.1119750" lon="10.4728210">
	<ele>1985.20</ele>
	<time>2024-07-25T08:43:15.000Z</time>
</trkpt>
<trkpt lat="46.1119830" lon="10.4728310">
	<ele>1985.20</ele>
	<time>2024-07-25T08:43:16.000Z</time>
</trkpt>
<trkpt lat="46.1119920" lon="10.4728370">
	<ele>1985.20</ele>
	<time>2024-07-25T08:43:17.000Z</time>
</trkpt>
<trkpt lat="46.1120010" lon="10.4728470">
	<ele>1985.40</ele>
	<time>2024-07-25T08:43:18.000Z</time>
</trkpt>
<trkpt lat="46.1120100" lon="10.4728570">
	<ele>1985.40</ele>
	<time>2024-07-25T08:43:19.000Z</time>
</trkpt>
<trkpt lat="46.1120190" lon="10.4728640">
	<ele>1985.40</ele>
	<time>2024-07-25T08:43:20.000Z</time>
</trkpt>
<trkpt lat="46.1120210" lon="10.4728660">
	<ele>1985.40</ele>
	<time>2024-07-25T08:43:21.000Z</time>
</trkpt>
<trkpt lat="46.1120230" lon="10.4728660">
	<ele>1985.40</ele>
	<time>2024-07-25T08:43:22.000Z</time>
</trkpt>
<trkpt lat="46.1120250" lon="10.4728680">
	<ele>1985.40</ele>
	<time>2024-07-25T08:43:23.000Z</time>
</trkpt>
<trkpt lat="46.1120280" lon="10.4728700">
	<ele>1985.40</ele>
	<time>2024-07-25T08:43:24.000Z</time>
</trkpt>
<trkpt lat="46.1120300" lon="10.4728730">
	<ele>1985.40</ele>
	<time>2024-07-25T08:43:25.000Z</time>
</trkpt>
<trkpt lat="46.1120320" lon="10.4728810">
	<ele>1985.40</ele>
	<time>2024-07-25T08:43:26.000Z</time>
</trkpt>
<trkpt lat="46.1120380" lon="10.4728900">
	<ele>1985.40</ele>
	<time>2024-07-25T08:43:27.000Z</time>
</trkpt>
<trkpt lat="46.1120470" lon="10.4729030">
	<ele>1985.40</ele>
	<time>2024-07-25T08:43:28.000Z</time>
</trkpt>
<trkpt lat="46.1120560" lon="10.4729160">
	<ele>1985.60</ele>
	<time>2024-07-25T08:43:29.000Z</time>
</trkpt>
<trkpt lat="46.1120650" lon="10.4729270">
	<ele>1985.80</ele>
	<time>2024-07-25T08:43:30.000Z</time>
</trkpt>
<trkpt lat="46.1120740" lon="10.4729390">
	<ele>1985.80</ele>
	<time>2024-07-25T08:43:31.000Z</time>
</trkpt>
<trkpt lat="46.1120830" lon="10.4729480">
	<ele>1986.00</ele>
	<time>2024-07-25T08:43:32.000Z</time>
</trkpt>
<trkpt lat="46.1120920" lon="10.4729620">
	<ele>1986.00</ele>
	<time>2024-07-25T08:43:33.000Z</time>
</trkpt>
<trkpt lat="46.1121010" lon="10.4729760">
	<ele>1986.00</ele>
	<time>2024-07-25T08:43:34.000Z</time>
</trkpt>
<trkpt lat="46.1121080" lon="10.4729910">
	<ele>1986.00</ele>
	<time>2024-07-25T08:43:35.000Z</time>
</trkpt>
<trkpt lat="46.1121160" lon="10.4730000">
	<ele>1986.00</ele>
	<time>2024-07-25T08:43:36.000Z</time>
</trkpt>
<trkpt lat="46.1121230" lon="10.4730030">
	<ele>1986.00</ele>
	<time>2024-07-25T08:43:37.000Z</time>
</trkpt>
<trkpt lat="46.1121300" lon="10.4730120">
	<ele>1986.00</ele>
	<time>2024-07-25T08:43:38.000Z</time>
</trkpt>
<trkpt lat="46.1121360" lon="10.4730170">
	<ele>1986.00</ele>
	<time>2024-07-25T08:43:39.000Z</time>
</trkpt>
<trkpt lat="46.1121430" lon="10.4730270">
	<ele>1986.20</ele>
	<time>2024-07-25T08:43:40.000Z</time>
</trkpt>
<trkpt lat="46.1121500" lon="10.4730390">
	<ele>1986.20</ele>
	<time>2024-07-25T08:43:41.000Z</time>
</trkpt>
<trkpt lat="46.1121620" lon="10.4730570">
	<ele>1986.20</ele>
	<time>2024-07-25T08:43:42.000Z</time>
</trkpt>
<trkpt lat="46.1121710" lon="10.4730720">
	<ele>1986.40</ele>
	<time>2024-07-25T08:43:43.000Z</time>
</trkpt>
<trkpt lat="46.1121800" lon="10.4730880">
	<ele>1986.40</ele>
	<time>2024-07-25T08:43:44.000Z</time>
</trkpt>
<trkpt lat="46.1121890" lon="10.4731030">
	<ele>1986.40</ele>
	<time>2024-07-25T08:43:45.000Z</time>
</trkpt>
<trkpt lat="46.1121960" lon="10.4731180">
	<ele>1986.40</ele>
	<time>2024-07-25T08:43:46.000Z</time>
</trkpt>
<trkpt lat="46.1122030" lon="10.4731310">
	<ele>1986.40</ele>
	<time>2024-07-25T08:43:47.000Z</time>
</trkpt>
<trkpt lat="46.1122110" lon="10.4731440">
	<ele>1986.40</ele>
	<time>2024-07-25T08:43:48.000Z</time>
</trkpt>
<trkpt lat="46.1122240" lon="10.4731620">
	<ele>1986.40</ele>
	<time>2024-07-25T08:43:49.000Z</time>
</trkpt>
<trkpt lat="46.1122330" lon="10.4731780">
	<ele>1986.20</ele>
	<time>2024-07-25T08:43:50.000Z</time>
</trkpt>
<trkpt lat="46.1122420" lon="10.4731940">
	<ele>1986.40</ele>
	<time>2024-07-25T08:43:51.000Z</time>
</trkpt>
<trkpt lat="46.1122490" lon="10.4732030">
	<ele>1986.40</ele>
	<time>2024-07-25T08:43:52.000Z</time>
</trkpt>
<trkpt lat="46.1122580" lon="10.4732150">
	<ele>1986.40</ele>
	<time>2024-07-25T08:43:53.000Z</time>
</trkpt>
<trkpt lat="46.1122640" lon="10.4732290">
	<ele>1986.40</ele>
	<time>2024-07-25T08:43:54.000Z</time>
</trkpt>
<trkpt lat="46.1122730" lon="10.4732440">
	<ele>1986.40</ele>
	<time>2024-07-25T08:43:55.000Z</time>
</trkpt>
<trkpt lat="46.1122800" lon="10.4732550">
	<ele>1986.40</ele>
	<time>2024-07-25T08:43:56.000Z</time>
</trkpt>
<trkpt lat="46.1122890" lon="10.4732700">
	<ele>1986.40</ele>
	<time>2024-07-25T08:43:57.000Z</time>
</trkpt>
<trkpt lat="46.1122970" lon="10.4732860">
	<ele>1986.60</ele>
	<time>2024-07-25T08:43:58.000Z</time>
</trkpt>
<trkpt lat="46.1123050" lon="10.4733050">
	<ele>1986.60</ele>
	<time>2024-07-25T08:43:59.000Z</time>
</trkpt>
<trkpt lat="46.1123110" lon="10.4733250">
	<ele>1986.60</ele>
	<time>2024-07-25T08:44:00.000Z</time>
</trkpt>
<trkpt lat="46.1123160" lon="10.4733410">
	<ele>1986.60</ele>
	<time>2024-07-25T08:44:01.000Z</time>
</trkpt>
<trkpt lat="46.1123220" lon="10.4733570">
	<ele>1986.60</ele>
	<time>2024-07-25T08:44:02.000Z</time>
</trkpt>
<trkpt lat="46.1123290" lon="10.4733720">
	<ele>1986.60</ele>
	<time>2024-07-25T08:44:03.000Z</time>
</trkpt>
<trkpt lat="46.1123350" lon="10.4733870">
	<ele>1986.60</ele>
	<time>2024-07-25T08:44:04.000Z</time>
</trkpt>
<trkpt lat="46.1123400" lon="10.4734040">
	<ele>1986.40</ele>
	<time>2024-07-25T08:44:05.000Z</time>
</trkpt>
<trkpt lat="46.1123450" lon="10.4734200">
	<ele>1986.40</ele>
	<time>2024-07-25T08:44:06.000Z</time>
</trkpt>
<trkpt lat="46.1123500" lon="10.4734350">
	<ele>1986.40</ele>
	<time>2024-07-25T08:44:07.000Z</time>
</trkpt>
<trkpt lat="46.1123550" lon="10.4734510">
	<ele>1986.60</ele>
	<time>2024-07-25T08:44:08.000Z</time>
</trkpt>
<trkpt lat="46.1123590" lon="10.4734700">
	<ele>1986.60</ele>
	<time>2024-07-25T08:44:09.000Z</time>
</trkpt>
<trkpt lat="46.1123640" lon="10.4734880">
	<ele>1986.60</ele>
	<time>2024-07-25T08:44:10.000Z</time>
</trkpt>
<trkpt lat="46.1123690" lon="10.4735010">
	<ele>1986.60</ele>
	<time>2024-07-25T08:44:11.000Z</time>
</trkpt>
<trkpt lat="46.1123750" lon="10.4735170">
	<ele>1986.60</ele>
	<time>2024-07-25T08:44:12.000Z</time>
</trkpt>
<trkpt lat="46.1123810" lon="10.4735310">
	<ele>1986.60</ele>
	<time>2024-07-25T08:44:13.000Z</time>
</trkpt>
<trkpt lat="46.1123880" lon="10.4735470">
	<ele>1986.60</ele>
	<time>2024-07-25T08:44:14.000Z</time>
</trkpt>
<trkpt lat="46.1123960" lon="10.4735610">
	<ele>1986.60</ele>
	<time>2024-07-25T08:44:15.000Z</time>
</trkpt>
<trkpt lat="46.1124030" lon="10.4735760">
	<ele>1986.60</ele>
	<time>2024-07-25T08:44:16.000Z</time>
</trkpt>
<trkpt lat="46.1124130" lon="10.4735930">
	<ele>1986.60</ele>
	<time>2024-07-25T08:44:17.000Z</time>
</trkpt>
<trkpt lat="46.1124220" lon="10.4736090">
	<ele>1986.60</ele>
	<time>2024-07-25T08:44:18.000Z</time>
</trkpt>
<trkpt lat="46.1124290" lon="10.4736230">
	<ele>1986.80</ele>
	<time>2024-07-25T08:44:19.000Z</time>
</trkpt>
<trkpt lat="46.1124380" lon="10.4736340">
	<ele>1986.80</ele>
	<time>2024-07-25T08:44:20.000Z</time>
</trkpt>
<trkpt lat="46.1124470" lon="10.4736440">
	<ele>1986.80</ele>
	<time>2024-07-25T08:44:21.000Z</time>
</trkpt>
<trkpt lat="46.1124560" lon="10.4736540">
	<ele>1986.80</ele>
	<time>2024-07-25T08:44:22.000Z</time>
</trkpt>
<trkpt lat="46.1124650" lon="10.4736680">
	<ele>1986.80</ele>
	<time>2024-07-25T08:44:23.000Z</time>
</trkpt>
<trkpt lat="46.1124730" lon="10.4736810">
	<ele>1986.80</ele>
	<time>2024-07-25T08:44:24.000Z</time>
</trkpt>
<trkpt lat="46.1124820" lon="10.4736980">
	<ele>1986.80</ele>
	<time>2024-07-25T08:44:25.000Z</time>
</trkpt>
<trkpt lat="46.1124920" lon="10.4737130">
	<ele>1986.80</ele>
	<time>2024-07-25T08:44:26.000Z</time>
</trkpt>
<trkpt lat="46.1124980" lon="10.4737240">
	<ele>1987.00</ele>
	<time>2024-07-25T08:44:27.000Z</time>
</trkpt>
<trkpt lat="46.1125050" lon="10.4737350">
	<ele>1987.00</ele>
	<time>2024-07-25T08:44:28.000Z</time>
</trkpt>
<trkpt lat="46.1125110" lon="10.4737450">
	<ele>1987.00</ele>
	<time>2024-07-25T08:44:29.000Z</time>
</trkpt>
<trkpt lat="46.1125180" lon="10.4737580">
	<ele>1987.20</ele>
	<time>2024-07-25T08:44:30.000Z</time>
</trkpt>
<trkpt lat="46.1125260" lon="10.4737680">
	<ele>1987.20</ele>
	<time>2024-07-25T08:44:31.000Z</time>
</trkpt>
<trkpt lat="46.1125330" lon="10.4737730">
	<ele>1987.40</ele>
	<time>2024-07-25T08:44:32.000Z</time>
</trkpt>
<trkpt lat="46.1125360" lon="10.4737730">
	<ele>1987.60</ele>
	<time>2024-07-25T08:44:33.000Z</time>
</trkpt>
<trkpt lat="46.1125380" lon="10.4737750">
	<ele>1987.60</ele>
	<time>2024-07-25T08:44:34.000Z</time>
</trkpt>
<trkpt lat="46.1125390" lon="10.4737770">
	<ele>1987.80</ele>
	<time>2024-07-25T08:44:35.000Z</time>
</trkpt>
<trkpt lat="46.1125390" lon="10.4737780">
	<ele>1987.80</ele>
	<time>2024-07-25T08:44:36.000Z</time>
</trkpt>
<trkpt lat="46.1125390" lon="10.4737770">
	<ele>1988.00</ele>
	<time>2024-07-25T08:44:37.000Z</time>
</trkpt>
<trkpt lat="46.1125390" lon="10.4737760">
	<ele>1988.00</ele>
	<time>2024-07-25T08:44:38.000Z</time>
</trkpt>
<trkpt lat="46.1125390" lon="10.4737760">
	<ele>1988.00</ele>
	<time>2024-07-25T08:44:39.000Z</time>
</trkpt>
<trkpt lat="46.1125380" lon="10.4737760">
	<ele>1988.20</ele>
	<time>2024-07-25T08:44:40.000Z</time>
</trkpt>
<trkpt lat="46.1125390" lon="10.4737770">
	<ele>1988.20</ele>
	<time>2024-07-25T08:44:41.000Z</time>
</trkpt>
<trkpt lat="46.1125390" lon="10.4737760">
	<ele>1988.20</ele>
	<time>2024-07-25T08:44:42.000Z</time>
</trkpt>
<trkpt lat="46.1125390" lon="10.4737780">
	<ele>1988.20</ele>
	<time>2024-07-25T08:44:43.000Z</time>
</trkpt>
<trkpt lat="46.1125390" lon="10.4737780">
	<ele>1988.20</ele>
	<time>2024-07-25T08:44:44.000Z</time>
</trkpt>
<trkpt lat="46.1125390" lon="10.4737780">
	<ele>1988.00</ele>
	<time>2024-07-25T08:44:45.000Z</time>
</trkpt>
<trkpt lat="46.1125390" lon="10.4737780">
	<ele>1988.00</ele>
	<time>2024-07-25T08:44:46.000Z</time>
</trkpt>
<trkpt lat="46.1125410" lon="10.4737790">
	<ele>1987.80</ele>
	<time>2024-07-25T08:44:47.000Z</time>
</trkpt>
<trkpt lat="46.1125490" lon="10.4737880">
	<ele>1987.40</ele>
	<time>2024-07-25T08:44:48.000Z</time>
</trkpt>
<trkpt lat="46.1125550" lon="10.4738010">
	<ele>1987.20</ele>
	<time>2024-07-25T08:44:49.000Z</time>
</trkpt>
<trkpt lat="46.1125610" lon="10.4738120">
	<ele>1987.20</ele>
	<time>2024-07-25T08:44:50.000Z</time>
</trkpt>
<trkpt lat="46.1125650" lon="10.4738180">
	<ele>1987.40</ele>
	<time>2024-07-25T08:44:51.000Z</time>
</trkpt>
<trkpt lat="46.1125660" lon="10.4738210">
	<ele>1987.40</ele>
	<time>2024-07-25T08:44:52.000Z</time>
</trkpt>
<trkpt lat="46.1125700" lon="10.4738230">
	<ele>1987.20</ele>
	<time>2024-07-25T08:44:53.000Z</time>
</trkpt>
<trkpt lat="46.1125720" lon="10.4738270">
	<ele>1987.20</ele>
	<time>2024-07-25T08:44:54.000Z</time>
</trkpt>
<trkpt lat="46.1125750" lon="10.4738290">
	<ele>1987.20</ele>
	<time>2024-07-25T08:44:55.000Z</time>
</trkpt>
<trkpt lat="46.1125780" lon="10.4738310">
	<ele>1987.20</ele>
	<time>2024-07-25T08:44:56.000Z</time>
</trkpt>
<trkpt lat="46.1125790" lon="10.4738310">
	<ele>1987.20</ele>
	<time>2024-07-25T08:44:57.000Z</time>
</trkpt>
<trkpt lat="46.1125800" lon="10.4738340">
	<ele>1987.20</ele>
	<time>2024-07-25T08:44:58.000Z</time>
</trkpt>
<trkpt lat="46.1125850" lon="10.4738420">
	<ele>1987.20</ele>
	<time>2024-07-25T08:44:59.000Z</time>
</trkpt>
<trkpt lat="46.1125920" lon="10.4738490">
	<ele>1987.20</ele>
	<time>2024-07-25T08:45:00.000Z</time>
</trkpt>
<trkpt lat="46.1126000" lon="10.4738590">
	<ele>1987.40</ele>
	<time>2024-07-25T08:45:01.000Z</time>
</trkpt>
<trkpt lat="46.1126080" lon="10.4738670">
	<ele>1987.40</ele>
	<time>2024-07-25T08:45:02.000Z</time>
</trkpt>
<trkpt lat="46.1126180" lon="10.4738780">
	<ele>1987.40</ele>
	<time>2024-07-25T08:45:03.000Z</time>
</trkpt>
<trkpt lat="46.1126270" lon="10.4738890">
	<ele>1987.60</ele>
	<time>2024-07-25T08:45:04.000Z</time>
</trkpt>
<trkpt lat="46.1126390" lon="10.4739000">
	<ele>1987.80</ele>
	<time>2024-07-25T08:45:05.000Z</time>
</trkpt>
<trkpt lat="46.1126520" lon="10.4739130">
	<ele>1987.80</ele>
	<time>2024-07-25T08:45:06.000Z</time>
</trkpt>
<trkpt lat="46.1126600" lon="10.4739220">
	<ele>1988.00</ele>
	<time>2024-07-25T08:45:07.000Z</time>
</trkpt>
<trkpt lat="46.1126710" lon="10.4739340">
	<ele>1988.00</ele>
	<time>2024-07-25T08:45:08.000Z</time>
</trkpt>
<trkpt lat="46.1126800" lon="10.4739460">
	<ele>1988.00</ele>
	<time>2024-07-25T08:45:09.000Z</time>
</trkpt>
<trkpt lat="46.1126890" lon="10.4739590">
	<ele>1988.00</ele>
	<time>2024-07-25T08:45:10.000Z</time>
</trkpt>
<trkpt lat="46.1126980" lon="10.4739690">
	<ele>1987.80</ele>
	<time>2024-07-25T08:45:11.000Z</time>
</trkpt>
<trkpt lat="46.1127080" lon="10.4739780">
	<ele>1987.80</ele>
	<time>2024-07-25T08:45:12.000Z</time>
</trkpt>
<trkpt lat="46.1127160" lon="10.4739870">
	<ele>1987.80</ele>
	<time>2024-07-25T08:45:13.000Z</time>
</trkpt>
<trkpt lat="46.1127270" lon="10.4739940">
	<ele>1987.80</ele>
	<time>2024-07-25T08:45:14.000Z</time>
</trkpt>
<trkpt lat="46.1127380" lon="10.4740020">
	<ele>1987.80</ele>
	<time>2024-07-25T08:45:15.000Z</time>
</trkpt>
<trkpt lat="46.1127470" lon="10.4740060">
	<ele>1987.60</ele>
	<time>2024-07-25T08:45:16.000Z</time>
</trkpt>
<trkpt lat="46.1127570" lon="10.4740170">
	<ele>1987.80</ele>
	<time>2024-07-25T08:45:17.000Z</time>
</trkpt>
<trkpt lat="46.1127650" lon="10.4740270">
	<ele>1987.80</ele>
	<time>2024-07-25T08:45:18.000Z</time>
</trkpt>
<trkpt lat="46.1127770" lon="10.4740370">
	<ele>1987.80</ele>
	<time>2024-07-25T08:45:19.000Z</time>
</trkpt>
<trkpt lat="46.1127900" lon="10.4740480">
	<ele>1987.80</ele>
	<time>2024-07-25T08:45:20.000Z</time>
</trkpt>
<trkpt lat="46.1128080" lon="10.4740580">
	<ele>1988.00</ele>
	<time>2024-07-25T08:45:21.000Z</time>
</trkpt>
<trkpt lat="46.1128220" lon="10.4740650">
	<ele>1988.00</ele>
	<time>2024-07-25T08:45:22.000Z</time>
</trkpt>
<trkpt lat="46.1128350" lon="10.4740680">
	<ele>1988.00</ele>
	<time>2024-07-25T08:45:23.000Z</time>
</trkpt>
<trkpt lat="46.1128460" lon="10.4740730">
	<ele>1988.20</ele>
	<time>2024-07-25T08:45:24.000Z</time>
</trkpt>
<trkpt lat="46.1128590" lon="10.4740780">
	<ele>1988.20</ele>
	<time>2024-07-25T08:45:25.000Z</time>
</trkpt>
<trkpt lat="46.1128700" lon="10.4740920">
	<ele>1988.20</ele>
	<time>2024-07-25T08:45:26.000Z</time>
</trkpt>
<trkpt lat="46.1128830" lon="10.4741070">
	<ele>1988.20</ele>
	<time>2024-07-25T08:45:27.000Z</time>
</trkpt>
<trkpt lat="46.1128950" lon="10.4741210">
	<ele>1988.20</ele>
	<time>2024-07-25T08:45:28.000Z</time>
</trkpt>
<trkpt lat="46.1129080" lon="10.4741310">
	<ele>1988.20</ele>
	<time>2024-07-25T08:45:29.000Z</time>
</trkpt>
<trkpt lat="46.1129140" lon="10.4741440">
	<ele>1988.00</ele>
	<time>2024-07-25T08:45:30.000Z</time>
</trkpt>
<trkpt lat="46.1129290" lon="10.4741450">
	<ele>1988.00</ele>
	<time>2024-07-25T08:45:31.000Z</time>
</trkpt>
<trkpt lat="46.1129470" lon="10.4741500">
	<ele>1988.00</ele>
	<time>2024-07-25T08:45:32.000Z</time>
</trkpt>
<trkpt lat="46.1129600" lon="10.4741570">
	<ele>1988.20</ele>
	<time>2024-07-25T08:45:33.000Z</time>
</trkpt>
<trkpt lat="46.1129680" lon="10.4741720">
	<ele>1988.20</ele>
	<time>2024-07-25T08:45:34.000Z</time>
</trkpt>
<trkpt lat="46.1129760" lon="10.4741820">
	<ele>1988.20</ele>
	<time>2024-07-25T08:45:35.000Z</time>
</trkpt>
<trkpt lat="46.1129880" lon="10.4741950">
	<ele>1988.20</ele>
	<time>2024-07-25T08:45:36.000Z</time>
</trkpt>
<trkpt lat="46.1129980" lon="10.4742050">
	<ele>1988.20</ele>
	<time>2024-07-25T08:45:37.000Z</time>
</trkpt>
<trkpt lat="46.1130100" lon="10.4742250">
	<ele>1988.20</ele>
	<time>2024-07-25T08:45:38.000Z</time>
</trkpt>
<trkpt lat="46.1130150" lon="10.4742380">
	<ele>1988.20</ele>
	<time>2024-07-25T08:45:39.000Z</time>
</trkpt>
<trkpt lat="46.1130260" lon="10.4742560">
	<ele>1988.20</ele>
	<time>2024-07-25T08:45:40.000Z</time>
</trkpt>
<trkpt lat="46.1130400" lon="10.4742690">
	<ele>1988.20</ele>
	<time>2024-07-25T08:45:41.000Z</time>
</trkpt>
<trkpt lat="46.1130490" lon="10.4742830">
	<ele>1988.20</ele>
	<time>2024-07-25T08:45:42.000Z</time>
</trkpt>
<trkpt lat="46.1130580" lon="10.4742980">
	<ele>1988.20</ele>
	<time>2024-07-25T08:45:43.000Z</time>
</trkpt>
<trkpt lat="46.1130620" lon="10.4743170">
	<ele>1988.20</ele>
	<time>2024-07-25T08:45:44.000Z</time>
</trkpt>
<trkpt lat="46.1130720" lon="10.4743380">
	<ele>1988.20</ele>
	<time>2024-07-25T08:45:45.000Z</time>
</trkpt>
<trkpt lat="46.1130800" lon="10.4743550">
	<ele>1988.40</ele>
	<time>2024-07-25T08:45:46.000Z</time>
</trkpt>
<trkpt lat="46.1130880" lon="10.4743740">
	<ele>1988.40</ele>
	<time>2024-07-25T08:45:47.000Z</time>
</trkpt>
<trkpt lat="46.1130900" lon="10.4743920">
	<ele>1988.40</ele>
	<time>2024-07-25T08:45:48.000Z</time>
</trkpt>
<trkpt lat="46.1130940" lon="10.4744100">
	<ele>1988.40</ele>
	<time>2024-07-25T08:45:49.000Z</time>
</trkpt>
<trkpt lat="46.1130990" lon="10.4744280">
	<ele>1988.40</ele>
	<time>2024-07-25T08:45:50.000Z</time>
</trkpt>
<trkpt lat="46.1131050" lon="10.4744440">
	<ele>1988.40</ele>
	<time>2024-07-25T08:45:51.000Z</time>
</trkpt>
<trkpt lat="46.1131090" lon="10.4744510">
	<ele>1988.40</ele>
	<time>2024-07-25T08:45:52.000Z</time>
</trkpt>
<trkpt lat="46.1131130" lon="10.4744630">
	<ele>1988.60</ele>
	<time>2024-07-25T08:45:53.000Z</time>
</trkpt>
<trkpt lat="46.1131190" lon="10.4744780">
	<ele>1988.60</ele>
	<time>2024-07-25T08:45:54.000Z</time>
</trkpt>
<trkpt lat="46.1131240" lon="10.4744940">
	<ele>1988.60</ele>
	<time>2024-07-25T08:45:55.000Z</time>
</trkpt>
<trkpt lat="46.1131320" lon="10.4745150">
	<ele>1988.60</ele>
	<time>2024-07-25T08:45:56.000Z</time>
</trkpt>
<trkpt lat="46.1131400" lon="10.4745320">
	<ele>1988.60</ele>
	<time>2024-07-25T08:45:57.000Z</time>
</trkpt>
<trkpt lat="46.1131440" lon="10.4745500">
	<ele>1988.60</ele>
	<time>2024-07-25T08:45:58.000Z</time>
</trkpt>
<trkpt lat="46.1131520" lon="10.4745710">
	<ele>1988.60</ele>
	<time>2024-07-25T08:45:59.000Z</time>
</trkpt>
<trkpt lat="46.1131560" lon="10.4745850">
	<ele>1988.60</ele>
	<time>2024-07-25T08:46:00.000Z</time>
</trkpt>
<trkpt lat="46.1131590" lon="10.4746040">
	<ele>1988.60</ele>
	<time>2024-07-25T08:46:01.000Z</time>
</trkpt>
<trkpt lat="46.1131600" lon="10.4746220">
	<ele>1988.60</ele>
	<time>2024-07-25T08:46:02.000Z</time>
</trkpt>
<trkpt lat="46.1131640" lon="10.4746410">
	<ele>1988.60</ele>
	<time>2024-07-25T08:46:03.000Z</time>
</trkpt>
<trkpt lat="46.1131640" lon="10.4746590">
	<ele>1988.60</ele>
	<time>2024-07-25T08:46:04.000Z</time>
</trkpt>
<trkpt lat="46.1131670" lon="10.4746750">
	<ele>1988.60</ele>
	<time>2024-07-25T08:46:05.000Z</time>
</trkpt>
<trkpt lat="46.1131640" lon="10.4746890">
	<ele>1988.60</ele>
	<time>2024-07-25T08:46:06.000Z</time>
</trkpt>
<trkpt lat="46.1131600" lon="10.4747040">
	<ele>1988.60</ele>
	<time>2024-07-25T08:46:07.000Z</time>
</trkpt>
<trkpt lat="46.1131590" lon="10.4747210">
	<ele>1988.80</ele>
	<time>2024-07-25T08:46:08.000Z</time>
</trkpt>
<trkpt lat="46.1131580" lon="10.4747390">
	<ele>1988.80</ele>
	<time>2024-07-25T08:46:09.000Z</time>
</trkpt>
<trkpt lat="46.1131470" lon="10.4747560">
	<ele>1989.00</ele>
	<time>2024-07-25T08:46:10.000Z</time>
</trkpt>
<trkpt lat="46.1131350" lon="10.4747720">
	<ele>1989.00</ele>
	<time>2024-07-25T08:46:11.000Z</time>
</trkpt>
<trkpt lat="46.1131230" lon="10.4747890">
	<ele>1989.00</ele>
	<time>2024-07-25T08:46:12.000Z</time>
</trkpt>
<trkpt lat="46.1131180" lon="10.4748060">
	<ele>1989.00</ele>
	<time>2024-07-25T08:46:13.000Z</time>
</trkpt>
<trkpt lat="46.1131120" lon="10.4748210">
	<ele>1989.00</ele>
	<time>2024-07-25T08:46:14.000Z</time>
</trkpt>
<trkpt lat="46.1131040" lon="10.4748380">
	<ele>1989.00</ele>
	<time>2024-07-25T08:46:15.000Z</time>
</trkpt>
<trkpt lat="46.1130980" lon="10.4748530">
	<ele>1989.00</ele>
	<time>2024-07-25T08:46:16.000Z</time>
</trkpt>
<trkpt lat="46.1130920" lon="10.4748670">
	<ele>1989.00</ele>
	<time>2024-07-25T08:46:17.000Z</time>
</trkpt>
<trkpt lat="46.1130830" lon="10.4748800">
	<ele>1988.80</ele>
	<time>2024-07-25T08:46:18.000Z</time>
</trkpt>
<trkpt lat="46.1130750" lon="10.4748950">
	<ele>1989.00</ele>
	<time>2024-07-25T08:46:19.000Z</time>
</trkpt>
<trkpt lat="46.1130710" lon="10.4749090">
	<ele>1989.00</ele>
	<time>2024-07-25T08:46:20.000Z</time>
</trkpt>
<trkpt lat="46.1130670" lon="10.4749290">
	<ele>1989.00</ele>
	<time>2024-07-25T08:46:21.000Z</time>
</trkpt>
<trkpt lat="46.1130670" lon="10.4749520">
	<ele>1989.00</ele>
	<time>2024-07-25T08:46:22.000Z</time>
</trkpt>
<trkpt lat="46.1130640" lon="10.4749740">
	<ele>1989.00</ele>
	<time>2024-07-25T08:46:23.000Z</time>
</trkpt>
<trkpt lat="46.1130640" lon="10.4749960">
	<ele>1989.00</ele>
	<time>2024-07-25T08:46:24.000Z</time>
</trkpt>
<trkpt lat="46.1130680" lon="10.4750180">
	<ele>1989.00</ele>
	<time>2024-07-25T08:46:25.000Z</time>
</trkpt>
<trkpt lat="46.1130740" lon="10.4750380">
	<ele>1988.80</ele>
	<time>2024-07-25T08:46:26.000Z</time>
</trkpt>
<trkpt lat="46.1130750" lon="10.4750560">
	<ele>1989.00</ele>
	<time>2024-07-25T08:46:27.000Z</time>
</trkpt>
<trkpt lat="46.1130750" lon="10.4750740">
	<ele>1989.00</ele>
	<time>2024-07-25T08:46:28.000Z</time>
</trkpt>
<trkpt lat="46.1130800" lon="10.4750910">
	<ele>1989.00</ele>
	<time>2024-07-25T08:46:29.000Z</time>
</trkpt>
<trkpt lat="46.1130870" lon="10.4751070">
	<ele>1989.00</ele>
	<time>2024-07-25T08:46:30.000Z</time>
</trkpt>
<trkpt lat="46.1130960" lon="10.4751250">
	<ele>1989.00</ele>
	<time>2024-07-25T08:46:31.000Z</time>
</trkpt>
<trkpt lat="46.1131030" lon="10.4751430">
	<ele>1989.00</ele>
	<time>2024-07-25T08:46:32.000Z</time>
</trkpt>
<trkpt lat="46.1131120" lon="10.4751590">
	<ele>1989.00</ele>
	<time>2024-07-25T08:46:33.000Z</time>
</trkpt>
<trkpt lat="46.1131210" lon="10.4751760">
	<ele>1989.00</ele>
	<time>2024-07-25T08:46:34.000Z</time>
</trkpt>
<trkpt lat="46.1131300" lon="10.4751910">
	<ele>1989.00</ele>
	<time>2024-07-25T08:46:35.000Z</time>
</trkpt>
<trkpt lat="46.1131390" lon="10.4752040">
	<ele>1989.00</ele>
	<time>2024-07-25T08:46:36.000Z</time>
</trkpt>
<trkpt lat="46.1131480" lon="10.4752200">
	<ele>1989.00</ele>
	<time>2024-07-25T08:46:37.000Z</time>
</trkpt>
<trkpt lat="46.1131550" lon="10.4752310">
	<ele>1989.20</ele>
	<time>2024-07-25T08:46:38.000Z</time>
</trkpt>
<trkpt lat="46.1131640" lon="10.4752460">
	<ele>1989.20</ele>
	<time>2024-07-25T08:46:39.000Z</time>
</trkpt>
<trkpt lat="46.1131750" lon="10.4752650">
	<ele>1989.20</ele>
	<time>2024-07-25T08:46:40.000Z</time>
</trkpt>
<trkpt lat="46.1131860" lon="10.4752760">
	<ele>1989.40</ele>
	<time>2024-07-25T08:46:41.000Z</time>
</trkpt>
<trkpt lat="46.1131960" lon="10.4752860">
	<ele>1989.40</ele>
	<time>2024-07-25T08:46:42.000Z</time>
</trkpt>
<trkpt lat="46.1132050" lon="10.4752990">
	<ele>1989.40</ele>
	<time>2024-07-25T08:46:43.000Z</time>
</trkpt>
<trkpt lat="46.1132170" lon="10.4753140">
	<ele>1989.60</ele>
	<time>2024-07-25T08:46:44.000Z</time>
</trkpt>
<trkpt lat="46.1132300" lon="10.4753280">
	<ele>1989.60</ele>
	<time>2024-07-25T08:46:45.000Z</time>
</trkpt>
<trkpt lat="46.1132420" lon="10.4753430">
	<ele>1989.60</ele>
	<time>2024-07-25T08:46:46.000Z</time>
</trkpt>
<trkpt lat="46.1132510" lon="10.4753550">
	<ele>1989.60</ele>
	<time>2024-07-25T08:46:47.000Z</time>
</trkpt>
<trkpt lat="46.1132630" lon="10.4753660">
	<ele>1989.60</ele>
	<time>2024-07-25T08:46:48.000Z</time>
</trkpt>
<trkpt lat="46.1132710" lon="10.4753770">
	<ele>1989.80</ele>
	<time>2024-07-25T08:46:49.000Z</time>
</trkpt>
<trkpt lat="46.1132780" lon="10.4753890">
	<ele>1989.80</ele>
	<time>2024-07-25T08:46:50.000Z</time>
</trkpt>
<trkpt lat="46.1132860" lon="10.4754020">
	<ele>1989.80</ele>
	<time>2024-07-25T08:46:51.000Z</time>
</trkpt>
<trkpt lat="46.1132920" lon="10.4754130">
	<ele>1989.80</ele>
	<time>2024-07-25T08:46:52.000Z</time>
</trkpt>
<trkpt lat="46.1133000" lon="10.4754250">
	<ele>1989.80</ele>
	<time>2024-07-25T08:46:53.000Z</time>
</trkpt>
<trkpt lat="46.1133080" lon="10.4754390">
	<ele>1989.80</ele>
	<time>2024-07-25T08:46:54.000Z</time>
</trkpt>
<trkpt lat="46.1133180" lon="10.4754540">
	<ele>1989.80</ele>
	<time>2024-07-25T08:46:55.000Z</time>
</trkpt>
<trkpt lat="46.1133250" lon="10.4754670">
	<ele>1989.80</ele>
	<time>2024-07-25T08:46:56.000Z</time>
</trkpt>
<trkpt lat="46.1133350" lon="10.4754840">
	<ele>1989.80</ele>
	<time>2024-07-25T08:46:57.000Z</time>
</trkpt>
<trkpt lat="46.1133430" lon="10.4754990">
	<ele>1989.80</ele>
	<time>2024-07-25T08:46:58.000Z</time>
</trkpt>
<trkpt lat="46.1133510" lon="10.4755120">
	<ele>1989.80</ele>
	<time>2024-07-25T08:46:59.000Z</time>
</trkpt>
<trkpt lat="46.1133590" lon="10.4755260">
	<ele>1990.00</ele>
	<time>2024-07-25T08:47:00.000Z</time>
</trkpt>
<trkpt lat="46.1133660" lon="10.4755370">
	<ele>1990.00</ele>
	<time>2024-07-25T08:47:01.000Z</time>
</trkpt>
<trkpt lat="46.1133740" lon="10.4755510">
	<ele>1990.00</ele>
	<time>2024-07-25T08:47:02.000Z</time>
</trkpt>
<trkpt lat="46.1133810" lon="10.4755680">
	<ele>1990.00</ele>
	<time>2024-07-25T08:47:03.000Z</time>
</trkpt>
<trkpt lat="46.1133880" lon="10.4755870">
	<ele>1990.00</ele>
	<time>2024-07-25T08:47:04.000Z</time>
</trkpt>
<trkpt lat="46.1133940" lon="10.4756050">
	<ele>1990.00</ele>
	<time>2024-07-25T08:47:05.000Z</time>
</trkpt>
<trkpt lat="46.1134000" lon="10.4756240">
	<ele>1990.00</ele>
	<time>2024-07-25T08:47:06.000Z</time>
</trkpt>
<trkpt lat="46.1134080" lon="10.4756440">
	<ele>1990.00</ele>
	<time>2024-07-25T08:47:07.000Z</time>
</trkpt>
<trkpt lat="46.1134170" lon="10.4756620">
	<ele>1990.00</ele>
	<time>2024-07-25T08:47:08.000Z</time>
</trkpt>
<trkpt lat="46.1134260" lon="10.4756760">
	<ele>1990.20</ele>
	<time>2024-07-25T08:47:09.000Z</time>
</trkpt>
<trkpt lat="46.1134360" lon="10.4756880">
	<ele>1990.40</ele>
	<time>2024-07-25T08:47:10.000Z</time>
</trkpt>
<trkpt lat="46.1134470" lon="10.4757010">
	<ele>1990.40</ele>
	<time>2024-07-25T08:47:11.000Z</time>
</trkpt>
<trkpt lat="46.1134540" lon="10.4757100">
	<ele>1990.40</ele>
	<time>2024-07-25T08:47:12.000Z</time>
</trkpt>
<trkpt lat="46.1134580" lon="10.4757220">
	<ele>1990.40</ele>
	<time>2024-07-25T08:47:13.000Z</time>
</trkpt>
<trkpt lat="46.1134640" lon="10.4757390">
	<ele>1990.40</ele>
	<time>2024-07-25T08:47:14.000Z</time>
</trkpt>
<trkpt lat="46.1134720" lon="10.4757540">
	<ele>1990.60</ele>
	<time>2024-07-25T08:47:15.000Z</time>
</trkpt>
<trkpt lat="46.1134800" lon="10.4757700">
	<ele>1990.60</ele>
	<time>2024-07-25T08:47:16.000Z</time>
</trkpt>
<trkpt lat="46.1134860" lon="10.4757840">
	<ele>1990.60</ele>
	<time>2024-07-25T08:47:17.000Z</time>
</trkpt>
<trkpt lat="46.1134890" lon="10.4757980">
	<ele>1990.60</ele>
	<time>2024-07-25T08:47:18.000Z</time>
</trkpt>
<trkpt lat="46.1134930" lon="10.4758130">
	<ele>1990.60</ele>
	<time>2024-07-25T08:47:19.000Z</time>
</trkpt>
<trkpt lat="46.1134960" lon="10.4758330">
	<ele>1990.60</ele>
	<time>2024-07-25T08:47:20.000Z</time>
</trkpt>
<trkpt lat="46.1134980" lon="10.4758470">
	<ele>1990.80</ele>
	<time>2024-07-25T08:47:21.000Z</time>
</trkpt>
<trkpt lat="46.1135010" lon="10.4758630">
	<ele>1990.80</ele>
	<time>2024-07-25T08:47:22.000Z</time>
</trkpt>
<trkpt lat="46.1135040" lon="10.4758800">
	<ele>1991.00</ele>
	<time>2024-07-25T08:47:23.000Z</time>
</trkpt>
<trkpt lat="46.1135110" lon="10.4758980">
	<ele>1991.00</ele>
	<time>2024-07-25T08:47:24.000Z</time>
</trkpt>
<trkpt lat="46.1135180" lon="10.4759160">
	<ele>1991.00</ele>
	<time>2024-07-25T08:47:25.000Z</time>
</trkpt>
<trkpt lat="46.1135230" lon="10.4759330">
	<ele>1991.20</ele>
	<time>2024-07-25T08:47:26.000Z</time>
</trkpt>
<trkpt lat="46.1135270" lon="10.4759470">
	<ele>1991.20</ele>
	<time>2024-07-25T08:47:27.000Z</time>
</trkpt>
<trkpt lat="46.1135350" lon="10.4759630">
	<ele>1991.20</ele>
	<time>2024-07-25T08:47:28.000Z</time>
</trkpt>
<trkpt lat="46.1135400" lon="10.4759810">
	<ele>1991.60</ele>
	<time>2024-07-25T08:47:29.000Z</time>
</trkpt>
<trkpt lat="46.1135460" lon="10.4759960">
	<ele>1991.80</ele>
	<time>2024-07-25T08:47:30.000Z</time>
</trkpt>
<trkpt lat="46.1135470" lon="10.4760120">
	<ele>1991.80</ele>
	<time>2024-07-25T08:47:31.000Z</time>
</trkpt>
<trkpt lat="46.1135460" lon="10.4760270">
	<ele>1992.00</ele>
	<time>2024-07-25T08:47:32.000Z</time>
</trkpt>
<trkpt lat="46.1135460" lon="10.4760440">
	<ele>1992.00</ele>
	<time>2024-07-25T08:47:33.000Z</time>
</trkpt>
<trkpt lat="46.1135450" lon="10.4760580">
	<ele>1992.20</ele>
	<time>2024-07-25T08:47:34.000Z</time>
</trkpt>
<trkpt lat="46.1135440" lon="10.4760740">
	<ele>1992.20</ele>
	<time>2024-07-25T08:47:35.000Z</time>
</trkpt>
<trkpt lat="46.1135440" lon="10.4760900">
	<ele>1992.20</ele>
	<time>2024-07-25T08:47:36.000Z</time>
</trkpt>
<trkpt lat="46.1135430" lon="10.4761050">
	<ele>1992.20</ele>
	<time>2024-07-25T08:47:37.000Z</time>
</trkpt>
<trkpt lat="46.1135440" lon="10.4761230">
	<ele>1992.20</ele>
	<time>2024-07-25T08:47:38.000Z</time>
</trkpt>
<trkpt lat="46.1135430" lon="10.4761430">
	<ele>1992.20</ele>
	<time>2024-07-25T08:47:39.000Z</time>
</trkpt>
<trkpt lat="46.1135430" lon="10.4761610">
	<ele>1992.60</ele>
	<time>2024-07-25T08:47:40.000Z</time>
</trkpt>
<trkpt lat="46.1135400" lon="10.4761840">
	<ele>1992.80</ele>
	<time>2024-07-25T08:47:41.000Z</time>
</trkpt>
<trkpt lat="46.1135420" lon="10.4762050">
	<ele>1993.00</ele>
	<time>2024-07-25T08:47:42.000Z</time>
</trkpt>
<trkpt lat="46.1135430" lon="10.4762270">
	<ele>1993.40</ele>
	<time>2024-07-25T08:47:43.000Z</time>
</trkpt>
<trkpt lat="46.1135460" lon="10.4762430">
	<ele>1993.60</ele>
	<time>2024-07-25T08:47:44.000Z</time>
</trkpt>
<trkpt lat="46.1135490" lon="10.4762600">
	<ele>1993.80</ele>
	<time>2024-07-25T08:47:45.000Z</time>
</trkpt>
<trkpt lat="46.1135510" lon="10.4762750">
	<ele>1993.80</ele>
	<time>2024-07-25T08:47:46.000Z</time>
</trkpt>
<trkpt lat="46.1135530" lon="10.4762900">
	<ele>1994.00</ele>
	<time>2024-07-25T08:47:47.000Z</time>
</trkpt>
<trkpt lat="46.1135560" lon="10.4763110">
	<ele>1994.40</ele>
	<time>2024-07-25T08:47:48.000Z</time>
</trkpt>
<trkpt lat="46.1135590" lon="10.4763280">
	<ele>1994.60</ele>
	<time>2024-07-25T08:47:49.000Z</time>
</trkpt>
<trkpt lat="46.1135620" lon="10.4763410">
	<ele>1994.60</ele>
	<time>2024-07-25T08:47:50.000Z</time>
</trkpt>
<trkpt lat="46.1135630" lon="10.4763610">
	<ele>1994.60</ele>
	<time>2024-07-25T08:47:51.000Z</time>
</trkpt>
<trkpt lat="46.1135620" lon="10.4763770">
	<ele>1994.60</ele>
	<time>2024-07-25T08:47:52.000Z</time>
</trkpt>
<trkpt lat="46.1135620" lon="10.4763910">
	<ele>1994.60</ele>
	<time>2024-07-25T08:47:53.000Z</time>
</trkpt>
<trkpt lat="46.1135620" lon="10.4764070">
	<ele>1994.60</ele>
	<time>2024-07-25T08:47:54.000Z</time>
</trkpt>
<trkpt lat="46.1135620" lon="10.4764270">
	<ele>1994.40</ele>
	<time>2024-07-25T08:47:55.000Z</time>
</trkpt>
<trkpt lat="46.1135640" lon="10.4764460">
	<ele>1994.40</ele>
	<time>2024-07-25T08:47:56.000Z</time>
</trkpt>
<trkpt lat="46.1135660" lon="10.4764670">
	<ele>1994.20</ele>
	<time>2024-07-25T08:47:57.000Z</time>
</trkpt>
<trkpt lat="46.1135650" lon="10.4764840">
	<ele>1994.20</ele>
	<time>2024-07-25T08:47:58.000Z</time>
</trkpt>
<trkpt lat="46.1135720" lon="10.4765070">
	<ele>1994.00</ele>
	<time>2024-07-25T08:47:59.000Z</time>
</trkpt>
<trkpt lat="46.1135790" lon="10.4765220">
	<ele>1994.00</ele>
	<time>2024-07-25T08:48:00.000Z</time>
</trkpt>
<trkpt lat="46.1135860" lon="10.4765370">
	<ele>1993.80</ele>
	<time>2024-07-25T08:48:01.000Z</time>
</trkpt>
<trkpt lat="46.1135920" lon="10.4765530">
	<ele>1993.80</ele>
	<time>2024-07-25T08:48:02.000Z</time>
</trkpt>
<trkpt lat="46.1135960" lon="10.4765620">
	<ele>1993.60</ele>
	<time>2024-07-25T08:48:03.000Z</time>
</trkpt>
<trkpt lat="46.1136020" lon="10.4765680">
	<ele>1993.60</ele>
	<time>2024-07-25T08:48:04.000Z</time>
</trkpt>
<trkpt lat="46.1136050" lon="10.4765720">
	<ele>1993.60</ele>
	<time>2024-07-25T08:48:05.000Z</time>
</trkpt>
<trkpt lat="46.1136060" lon="10.4765750">
	<ele>1993.40</ele>
	<time>2024-07-25T08:48:06.000Z</time>
</trkpt>
<trkpt lat="46.1136050" lon="10.4765750">
	<ele>1993.40</ele>
	<time>2024-07-25T08:48:07.000Z</time>
</trkpt>
<trkpt lat="46.1136040" lon="10.4765760">
	<ele>1993.20</ele>
	<time>2024-07-25T08:48:08.000Z</time>
</trkpt>
<trkpt lat="46.1136060" lon="10.4765760">
	<ele>1993.20</ele>
	<time>2024-07-25T08:48:09.000Z</time>
</trkpt>
<trkpt lat="46.1136080" lon="10.4765800">
	<ele>1993.20</ele>
	<time>2024-07-25T08:48:10.000Z</time>
</trkpt>
<trkpt lat="46.1136090" lon="10.4765760">
	<ele>1993.20</ele>
	<time>2024-07-25T08:48:11.000Z</time>
</trkpt>
<trkpt lat="46.1136120" lon="10.4765740">
	<ele>1993.20</ele>
	<time>2024-07-25T08:48:12.000Z</time>
</trkpt>
<trkpt lat="46.1136090" lon="10.4765740">
	<ele>1993.40</ele>
	<time>2024-07-25T08:48:13.000Z</time>
</trkpt>
<trkpt lat="46.1136040" lon="10.4765710">
	<ele>1993.40</ele>
	<time>2024-07-25T08:48:14.000Z</time>
</trkpt>
<trkpt lat="46.1135980" lon="10.4765670">
	<ele>1993.60</ele>
	<time>2024-07-25T08:48:15.000Z</time>
</trkpt>
<trkpt lat="46.1135970" lon="10.4765640">
	<ele>1993.80</ele>
	<time>2024-07-25T08:48:16.000Z</time>
</trkpt>
<trkpt lat="46.1135960" lon="10.4765620">
	<ele>1993.80</ele>
	<time>2024-07-25T08:48:17.000Z</time>
</trkpt>
<trkpt lat="46.1135950" lon="10.4765620">
	<ele>1993.60</ele>
	<time>2024-07-25T08:48:18.000Z</time>
</trkpt>
<trkpt lat="46.1135950" lon="10.4765610">
	<ele>1993.80</ele>
	<time>2024-07-25T08:48:19.000Z</time>
</trkpt>
<trkpt lat="46.1135950" lon="10.4765610">
	<ele>1993.80</ele>
	<time>2024-07-25T08:48:20.000Z</time>
</trkpt>
<trkpt lat="46.1135950" lon="10.4765610">
	<ele>1993.80</ele>
	<time>2024-07-25T08:48:21.000Z</time>
</trkpt>
<trkpt lat="46.1135950" lon="10.4765610">
	<ele>1993.80</ele>
	<time>2024-07-25T08:48:22.000Z</time>
</trkpt>
<trkpt lat="46.1135950" lon="10.4765610">
	<ele>1993.80</ele>
	<time>2024-07-25T08:48:23.000Z</time>
</trkpt>
<trkpt lat="46.1135950" lon="10.4765610">
	<ele>1993.80</ele>
	<time>2024-07-25T08:48:24.000Z</time>
</trkpt>
<trkpt lat="46.1135950" lon="10.4765610">
	<ele>1993.80</ele>
	<time>2024-07-25T08:48:25.000Z</time>
</trkpt>
<trkpt lat="46.1135950" lon="10.4765610">
	<ele>1993.80</ele>
	<time>2024-07-25T08:48:26.000Z</time>
</trkpt>
<trkpt lat="46.1135950" lon="10.4765610">
	<ele>1993.80</ele>
	<time>2024-07-25T08:48:27.000Z</time>
</trkpt>
<trkpt lat="46.1135960" lon="10.4765610">
	<ele>1993.80</ele>
	<time>2024-07-25T08:48:28.000Z</time>
</trkpt>
<trkpt lat="46.1135960" lon="10.4765610">
	<ele>1993.80</ele>
	<time>2024-07-25T08:48:29.000Z</time>
</trkpt>
<trkpt lat="46.1135970" lon="10.4765610">
	<ele>1993.80</ele>
	<time>2024-07-25T08:48:30.000Z</time>
</trkpt>
<trkpt lat="46.1135970" lon="10.4765610">
	<ele>1993.80</ele>
	<time>2024-07-25T08:48:31.000Z</time>
</trkpt>
<trkpt lat="46.1135980" lon="10.4765610">
	<ele>1993.60</ele>
	<time>2024-07-25T08:48:32.000Z</time>
</trkpt>
<trkpt lat="46.1135980" lon="10.4765610">
	<ele>1993.60</ele>
	<time>2024-07-25T08:48:33.000Z</time>
</trkpt>
<trkpt lat="46.1135980" lon="10.4765610">
	<ele>1993.60</ele>
	<time>2024-07-25T08:48:34.000Z</time>
</trkpt>
<trkpt lat="46.1135980" lon="10.4765610">
	<ele>1993.60</ele>
	<time>2024-07-25T08:48:35.000Z</time>
</trkpt>
<trkpt lat="46.1135990" lon="10.4765620">
	<ele>1993.40</ele>
	<time>2024-07-25T08:48:36.000Z</time>
</trkpt>
<trkpt lat="46.1135990" lon="10.4765620">
	<ele>1993.40</ele>
	<time>2024-07-25T08:48:37.000Z</time>
</trkpt>
<trkpt lat="46.1135990" lon="10.4765640">
	<ele>1993.40</ele>
	<time>2024-07-25T08:48:38.000Z</time>
</trkpt>
<trkpt lat="46.1135990" lon="10.4765640">
	<ele>1993.40</ele>
	<time>2024-07-25T08:48:39.000Z</time>
</trkpt>
<trkpt lat="46.1136000" lon="10.4765640">
	<ele>1993.40</ele>
	<time>2024-07-25T08:48:40.000Z</time>
</trkpt>
<trkpt lat="46.1136000" lon="10.4765640">
	<ele>1993.40</ele>
	<time>2024-07-25T08:48:41.000Z</time>
</trkpt>
<trkpt lat="46.1136000" lon="10.4765640">
	<ele>1993.20</ele>
	<time>2024-07-25T08:48:42.000Z</time>
</trkpt>
<trkpt lat="46.1136000" lon="10.4765640">
	<ele>1993.00</ele>
	<time>2024-07-25T08:48:43.000Z</time>
</trkpt>
<trkpt lat="46.1136000" lon="10.4765640">
	<ele>1993.00</ele>
	<time>2024-07-25T08:48:44.000Z</time>
</trkpt>
<trkpt lat="46.1136000" lon="10.4765640">
	<ele>1993.00</ele>
	<time>2024-07-25T08:48:45.000Z</time>
</trkpt>
<trkpt lat="46.1136000" lon="10.4765650">
	<ele>1993.00</ele>
	<time>2024-07-25T08:48:46.000Z</time>
</trkpt>
<trkpt lat="46.1136010" lon="10.4765660">
	<ele>1993.00</ele>
	<time>2024-07-25T08:48:47.000Z</time>
</trkpt>
<trkpt lat="46.1136030" lon="10.4765660">
	<ele>1993.20</ele>
	<time>2024-07-25T08:48:48.000Z</time>
</trkpt>
<trkpt lat="46.1136070" lon="10.4765730">
	<ele>1993.20</ele>
	<time>2024-07-25T08:48:49.000Z</time>
</trkpt>
<trkpt lat="46.1136120" lon="10.4765820">
	<ele>1993.20</ele>
	<time>2024-07-25T08:48:50.000Z</time>
</trkpt>
<trkpt lat="46.1136130" lon="10.4765870">
	<ele>1993.20</ele>
	<time>2024-07-25T08:48:51.000Z</time>
</trkpt>
<trkpt lat="46.1136140" lon="10.4765880">
	<ele>1993.00</ele>
	<time>2024-07-25T08:48:52.000Z</time>
</trkpt>
<trkpt lat="46.1136140" lon="10.4765900">
	<ele>1993.00</ele>
	<time>2024-07-25T08:48:53.000Z</time>
</trkpt>
<trkpt lat="46.1136150" lon="10.4765910">
	<ele>1993.00</ele>
	<time>2024-07-25T08:48:54.000Z</time>
</trkpt>
<trkpt lat="46.1136160" lon="10.4765910">
	<ele>1993.00</ele>
	<time>2024-07-25T08:48:55.000Z</time>
</trkpt>
<trkpt lat="46.1136170" lon="10.4765910">
	<ele>1993.00</ele>
	<time>2024-07-25T08:48:56.000Z</time>
</trkpt>
<trkpt lat="46.1136180" lon="10.4765910">
	<ele>1993.00</ele>
	<time>2024-07-25T08:48:57.000Z</time>
</trkpt>
<trkpt lat="46.1136180" lon="10.4765910">
	<ele>1993.00</ele>
	<time>2024-07-25T08:48:58.000Z</time>
</trkpt>
<trkpt lat="46.1136180" lon="10.4765910">
	<ele>1993.20</ele>
	<time>2024-07-25T08:48:59.000Z</time>
</trkpt>
<trkpt lat="46.1136180" lon="10.4765910">
	<ele>1993.20</ele>
	<time>2024-07-25T08:49:00.000Z</time>
</trkpt>
<trkpt lat="46.1136180" lon="10.4765910">
	<ele>1993.20</ele>
	<time>2024-07-25T08:49:01.000Z</time>
</trkpt>
<trkpt lat="46.1136180" lon="10.4765910">
	<ele>1993.20</ele>
	<time>2024-07-25T08:49:02.000Z</time>
</trkpt>
<trkpt lat="46.1136180" lon="10.4765910">
	<ele>1993.00</ele>
	<time>2024-07-25T08:49:03.000Z</time>
</trkpt>
<trkpt lat="46.1136180" lon="10.4765910">
	<ele>1992.80</ele>
	<time>2024-07-25T08:49:04.000Z</time>
</trkpt>
<trkpt lat="46.1136180" lon="10.4765910">
	<ele>1992.80</ele>
	<time>2024-07-25T08:49:05.000Z</time>
</trkpt>
<trkpt lat="46.1136180" lon="10.4765910">
	<ele>1992.80</ele>
	<time>2024-07-25T08:49:06.000Z</time>
</trkpt>
<trkpt lat="46.1136180" lon="10.4765910">
	<ele>1992.80</ele>
	<time>2024-07-25T08:49:07.000Z</time>
</trkpt>
<trkpt lat="46.1136180" lon="10.4765910">
	<ele>1993.00</ele>
	<time>2024-07-25T08:49:08.000Z</time>
</trkpt>
<trkpt lat="46.1136180" lon="10.4765910">
	<ele>1993.00</ele>
	<time>2024-07-25T08:49:09.000Z</time>
</trkpt>
<trkpt lat="46.1136180" lon="10.4765900">
	<ele>1993.20</ele>
	<time>2024-07-25T08:49:10.000Z</time>
</trkpt>
<trkpt lat="46.1136180" lon="10.4765900">
	<ele>1993.20</ele>
	<time>2024-07-25T08:49:11.000Z</time>
</trkpt>
<trkpt lat="46.1136160" lon="10.4765880">
	<ele>1993.40</ele>
	<time>2024-07-25T08:49:12.000Z</time>
</trkpt>
<trkpt lat="46.1136150" lon="10.4765870">
	<ele>1993.40</ele>
	<time>2024-07-25T08:49:13.000Z</time>
</trkpt>
<trkpt lat="46.1136130" lon="10.4765850">
	<ele>1993.40</ele>
	<time>2024-07-25T08:49:14.000Z</time>
</trkpt>
<trkpt lat="46.1136130" lon="10.4765840">
	<ele>1993.80</ele>
	<time>2024-07-25T08:49:15.000Z</time>
</trkpt>
<trkpt lat="46.1136120" lon="10.4765820">
	<ele>1993.80</ele>
	<time>2024-07-25T08:49:16.000Z</time>
</trkpt>
<trkpt lat="46.1136120" lon="10.4765820">
	<ele>1993.80</ele>
	<time>2024-07-25T08:49:17.000Z</time>
</trkpt>
<trkpt lat="46.1136110" lon="10.4765810">
	<ele>1993.80</ele>
	<time>2024-07-25T08:49:18.000Z</time>
</trkpt>
<trkpt lat="46.1136110" lon="10.4765800">
	<ele>1993.80</ele>
	<time>2024-07-25T08:49:19.000Z</time>
</trkpt>
<trkpt lat="46.1136150" lon="10.4765790">
	<ele>1993.80</ele>
	<time>2024-07-25T08:49:20.000Z</time>
</trkpt>
<trkpt lat="46.1136180" lon="10.4765730">
	<ele>1993.80</ele>
	<time>2024-07-25T08:49:21.000Z</time>
</trkpt>
<trkpt lat="46.1136240" lon="10.4765620">
	<ele>1993.80</ele>
	<time>2024-07-25T08:49:22.000Z</time>
</trkpt>
<trkpt lat="46.1136280" lon="10.4765520">
	<ele>1993.80</ele>
	<time>2024-07-25T08:49:23.000Z</time>
</trkpt>
<trkpt lat="46.1136340" lon="10.4765400">
	<ele>1993.80</ele>
	<time>2024-07-25T08:49:24.000Z</time>
</trkpt>
<trkpt lat="46.1136400" lon="10.4765280">
	<ele>1993.80</ele>
	<time>2024-07-25T08:49:25.000Z</time>
</trkpt>
<trkpt lat="46.1136470" lon="10.4765190">
	<ele>1993.80</ele>
	<time>2024-07-25T08:49:26.000Z</time>
</trkpt>
<trkpt lat="46.1136560" lon="10.4765100">
	<ele>1993.80</ele>
	<time>2024-07-25T08:49:27.000Z</time>
</trkpt>
<trkpt lat="46.1136670" lon="10.4765040">
	<ele>1993.80</ele>
	<time>2024-07-25T08:49:28.000Z</time>
</trkpt>
<trkpt lat="46.1136800" lon="10.4764970">
	<ele>1993.80</ele>
	<time>2024-07-25T08:49:29.000Z</time>
</trkpt>
<trkpt lat="46.1136920" lon="10.4764910">
	<ele>1993.80</ele>
	<time>2024-07-25T08:49:30.000Z</time>
</trkpt>
<trkpt lat="46.1137040" lon="10.4764840">
	<ele>1993.80</ele>
	<time>2024-07-25T08:49:31.000Z</time>
</trkpt>
<trkpt lat="46.1137130" lon="10.4764760">
	<ele>1993.80</ele>
	<time>2024-07-25T08:49:32.000Z</time>
</trkpt>
<trkpt lat="46.1137190" lon="10.4764660">
	<ele>1993.80</ele>
	<time>2024-07-25T08:49:33.000Z</time>
</trkpt>
<trkpt lat="46.1137260" lon="10.4764560">
	<ele>1993.80</ele>
	<time>2024-07-25T08:49:34.000Z</time>
</trkpt>
<trkpt lat="46.1137340" lon="10.4764450">
	<ele>1993.80</ele>
	<time>2024-07-25T08:49:35.000Z</time>
</trkpt>
<trkpt lat="46.1137460" lon="10.4764340">
	<ele>1993.80</ele>
	<time>2024-07-25T08:49:36.000Z</time>
</trkpt>
<trkpt lat="46.1137560" lon="10.4764280">
	<ele>1993.80</ele>
	<time>2024-07-25T08:49:37.000Z</time>
</trkpt>
<trkpt lat="46.1137690" lon="10.4764220">
	<ele>1993.80</ele>
	<time>2024-07-25T08:49:38.000Z</time>
</trkpt>
<trkpt lat="46.1137810" lon="10.4764190">
	<ele>1993.80</ele>
	<time>2024-07-25T08:49:39.000Z</time>
</trkpt>
<trkpt lat="46.1137920" lon="10.4764180">
	<ele>1993.80</ele>
	<time>2024-07-25T08:49:40.000Z</time>
</trkpt>
<trkpt lat="46.1138060" lon="10.4764130">
	<ele>1993.20</ele>
	<time>2024-07-25T08:49:41.000Z</time>
</trkpt>
<trkpt lat="46.1138200" lon="10.4764090">
	<ele>1993.00</ele>
	<time>2024-07-25T08:49:42.000Z</time>
</trkpt>
<trkpt lat="46.1138340" lon="10.4764040">
	<ele>1993.00</ele>
	<time>2024-07-25T08:49:43.000Z</time>
</trkpt>
<trkpt lat="46.1138460" lon="10.4763960">
	<ele>1992.80</ele>
	<time>2024-07-25T08:49:44.000Z</time>
</trkpt>
<trkpt lat="46.1138540" lon="10.4763840">
	<ele>1992.80</ele>
	<time>2024-07-25T08:49:45.000Z</time>
</trkpt>
<trkpt lat="46.1138650" lon="10.4763810">
	<ele>1992.60</ele>
	<time>2024-07-25T08:49:46.000Z</time>
</trkpt>
<trkpt lat="46.1138780" lon="10.4763840">
	<ele>1992.60</ele>
	<time>2024-07-25T08:49:47.000Z</time>
</trkpt>
<trkpt lat="46.1138870" lon="10.4763870">
	<ele>1992.60</ele>
	<time>2024-07-25T08:49:48.000Z</time>
</trkpt>
<trkpt lat="46.1138960" lon="10.4763910">
	<ele>1992.60</ele>
	<time>2024-07-25T08:49:49.000Z</time>
</trkpt>
<trkpt lat="46.1139080" lon="10.4763960">
	<ele>1992.40</ele>
	<time>2024-07-25T08:49:50.000Z</time>
</trkpt>
<trkpt lat="46.1139190" lon="10.4764010">
	<ele>1992.40</ele>
	<time>2024-07-25T08:49:51.000Z</time>
</trkpt>
<trkpt lat="46.1139320" lon="10.4764110">
	<ele>1992.40</ele>
	<time>2024-07-25T08:49:52.000Z</time>
</trkpt>
<trkpt lat="46.1139430" lon="10.4764220">
	<ele>1992.20</ele>
	<time>2024-07-25T08:49:53.000Z</time>
</trkpt>
<trkpt lat="46.1139590" lon="10.4764350">
	<ele>1992.20</ele>
	<time>2024-07-25T08:49:54.000Z</time>
</trkpt>
<trkpt lat="46.1139690" lon="10.4764450">
	<ele>1992.20</ele>
	<time>2024-07-25T08:49:55.000Z</time>
</trkpt>
<trkpt lat="46.1139770" lon="10.4764510">
	<ele>1992.20</ele>
	<time>2024-07-25T08:49:56.000Z</time>
</trkpt>
<trkpt lat="46.1139870" lon="10.4764590">
	<ele>1992.00</ele>
	<time>2024-07-25T08:49:57.000Z</time>
</trkpt>
<trkpt lat="46.1139980" lon="10.4764680">
	<ele>1992.00</ele>
	<time>2024-07-25T08:49:58.000Z</time>
</trkpt>
<trkpt lat="46.1140080" lon="10.4764790">
	<ele>1992.00</ele>
	<time>2024-07-25T08:49:59.000Z</time>
</trkpt>
<trkpt lat="46.1140180" lon="10.4764930">
	<ele>1992.00</ele>
	<time>2024-07-25T08:50:00.000Z</time>
</trkpt>
<trkpt lat="46.1140260" lon="10.4765070">
	<ele>1992.00</ele>
	<time>2024-07-25T08:50:01.000Z</time>
</trkpt>
<trkpt lat="46.1140330" lon="10.4765240">
	<ele>1992.00</ele>
	<time>2024-07-25T08:50:02.000Z</time>
</trkpt>
<trkpt lat="46.1140420" lon="10.4765380">
	<ele>1992.00</ele>
	<time>2024-07-25T08:50:03.000Z</time>
</trkpt>
<trkpt lat="46.1140510" lon="10.4765540">
	<ele>1992.00</ele>
	<time>2024-07-25T08:50:04.000Z</time>
</trkpt>
<trkpt lat="46.1140600" lon="10.4765660">
	<ele>1992.00</ele>
	<time>2024-07-25T08:50:05.000Z</time>
</trkpt>
<trkpt lat="46.1140690" lon="10.4765750">
	<ele>1992.20</ele>
	<time>2024-07-25T08:50:06.000Z</time>
</trkpt>
<trkpt lat="46.1140800" lon="10.4765840">
	<ele>1992.20</ele>
	<time>2024-07-25T08:50:07.000Z</time>
</trkpt>
<trkpt lat="46.1140930" lon="10.4765940">
	<ele>1992.20</ele>
	<time>2024-07-25T08:50:08.000Z</time>
</trkpt>
<trkpt lat="46.1141050" lon="10.4766030">
	<ele>1992.40</ele>
	<time>2024-07-25T08:50:09.000Z</time>
</trkpt>
<trkpt lat="46.1141120" lon="10.4766110">
	<ele>1992.40</ele>
	<time>2024-07-25T08:50:10.000Z</time>
</trkpt>
<trkpt lat="46.1141250" lon="10.4766210">
	<ele>1992.60</ele>
	<time>2024-07-25T08:50:11.000Z</time>
</trkpt>
<trkpt lat="46.1141370" lon="10.4766280">
	<ele>1992.60</ele>
	<time>2024-07-25T08:50:12.000Z</time>
</trkpt>
<trkpt lat="46.1141490" lon="10.4766350">
	<ele>1992.60</ele>
	<time>2024-07-25T08:50:13.000Z</time>
</trkpt>
<trkpt lat="46.1141590" lon="10.4766460">
	<ele>1992.80</ele>
	<time>2024-07-25T08:50:14.000Z</time>
</trkpt>
<trkpt lat="46.1141690" lon="10.4766570">
	<ele>1992.80</ele>
	<time>2024-07-25T08:50:15.000Z</time>
</trkpt>
<trkpt lat="46.1141750" lon="10.4766670">
	<ele>1992.80</ele>
	<time>2024-07-25T08:50:16.000Z</time>
</trkpt>
<trkpt lat="46.1141810" lon="10.4766750">
	<ele>1992.80</ele>
	<time>2024-07-25T08:50:17.000Z</time>
</trkpt>
<trkpt lat="46.1141910" lon="10.4766900">
	<ele>1992.80</ele>
	<time>2024-07-25T08:50:18.000Z</time>
</trkpt>
<trkpt lat="46.1142010" lon="10.4767050">
	<ele>1992.80</ele>
	<time>2024-07-25T08:50:19.000Z</time>
</trkpt>
<trkpt lat="46.1142110" lon="10.4767140">
	<ele>1992.80</ele>
	<time>2024-07-25T08:50:20.000Z</time>
</trkpt>
<trkpt lat="46.1142250" lon="10.4767280">
	<ele>1992.80</ele>
	<time>2024-07-25T08:50:21.000Z</time>
</trkpt>
<trkpt lat="46.1142370" lon="10.4767410">
	<ele>1992.80</ele>
	<time>2024-07-25T08:50:22.000Z</time>
</trkpt>
<trkpt lat="46.1142500" lon="10.4767530">
	<ele>1992.80</ele>
	<time>2024-07-25T08:50:23.000Z</time>
</trkpt>
<trkpt lat="46.1142600" lon="10.4767660">
	<ele>1992.80</ele>
	<time>2024-07-25T08:50:24.000Z</time>
</trkpt>
<trkpt lat="46.1142660" lon="10.4767790">
	<ele>1992.80</ele>
	<time>2024-07-25T08:50:25.000Z</time>
</trkpt>
<trkpt lat="46.1142750" lon="10.4767870">
	<ele>1992.80</ele>
	<time>2024-07-25T08:50:26.000Z</time>
</trkpt>
<trkpt lat="46.1142860" lon="10.4768010">
	<ele>1992.80</ele>
	<time>2024-07-25T08:50:27.000Z</time>
</trkpt>
<trkpt lat="46.1143010" lon="10.4768140">
	<ele>1992.80</ele>
	<time>2024-07-25T08:50:28.000Z</time>
</trkpt>
<trkpt lat="46.1143120" lon="10.4768210">
	<ele>1992.80</ele>
	<time>2024-07-25T08:50:29.000Z</time>
</trkpt>
<trkpt lat="46.1143300" lon="10.4768330">
	<ele>1992.80</ele>
	<time>2024-07-25T08:50:30.000Z</time>
</trkpt>
<trkpt lat="46.1143350" lon="10.4768430">
	<ele>1992.80</ele>
	<time>2024-07-25T08:50:31.000Z</time>
</trkpt>
<trkpt lat="46.1143450" lon="10.4768530">
	<ele>1992.80</ele>
	<time>2024-07-25T08:50:32.000Z</time>
</trkpt>
<trkpt lat="46.1143520" lon="10.4768630">
	<ele>1992.80</ele>
	<time>2024-07-25T08:50:33.000Z</time>
</trkpt>
<trkpt lat="46.1143570" lon="10.4768730">
	<ele>1992.80</ele>
	<time>2024-07-25T08:50:34.000Z</time>
</trkpt>
<trkpt lat="46.1143640" lon="10.4768830">
	<ele>1992.80</ele>
	<time>2024-07-25T08:50:35.000Z</time>
</trkpt>
<trkpt lat="46.1143680" lon="10.4768980">
	<ele>1992.80</ele>
	<time>2024-07-25T08:50:36.000Z</time>
</trkpt>
<trkpt lat="46.1143780" lon="10.4769130">
	<ele>1992.80</ele>
	<time>2024-07-25T08:50:37.000Z</time>
</trkpt>
<trkpt lat="46.1143840" lon="10.4769280">
	<ele>1992.80</ele>
	<time>2024-07-25T08:50:38.000Z</time>
</trkpt>
<trkpt lat="46.1143900" lon="10.4769450">
	<ele>1993.00</ele>
	<time>2024-07-25T08:50:39.000Z</time>
</trkpt>
<trkpt lat="46.1143900" lon="10.4769590">
	<ele>1993.00</ele>
	<time>2024-07-25T08:50:40.000Z</time>
</trkpt>
<trkpt lat="46.1143980" lon="10.4769760">
	<ele>1993.00</ele>
	<time>2024-07-25T08:50:41.000Z</time>
</trkpt>
<trkpt lat="46.1144060" lon="10.4769950">
	<ele>1993.00</ele>
	<time>2024-07-25T08:50:42.000Z</time>
</trkpt>
<trkpt lat="46.1144160" lon="10.4770050">
	<ele>1993.20</ele>
	<time>2024-07-25T08:50:43.000Z</time>
</trkpt>
<trkpt lat="46.1144220" lon="10.4770140">
	<ele>1993.40</ele>
	<time>2024-07-25T08:50:44.000Z</time>
</trkpt>
<trkpt lat="46.1144280" lon="10.4770270">
	<ele>1993.40</ele>
	<time>2024-07-25T08:50:45.000Z</time>
</trkpt>
<trkpt lat="46.1144330" lon="10.4770390">
	<ele>1993.60</ele>
	<time>2024-07-25T08:50:46.000Z</time>
</trkpt>
<trkpt lat="46.1144380" lon="10.4770560">
	<ele>1993.60</ele>
	<time>2024-07-25T08:50:47.000Z</time>
</trkpt>
<trkpt lat="46.1144470" lon="10.4770720">
	<ele>1993.60</ele>
	<time>2024-07-25T08:50:48.000Z</time>
</trkpt>
<trkpt lat="46.1144520" lon="10.4770850">
	<ele>1993.80</ele>
	<time>2024-07-25T08:50:49.000Z</time>
</trkpt>
<trkpt lat="46.1144560" lon="10.4770860">
	<ele>1993.80</ele>
	<time>2024-07-25T08:50:50.000Z</time>
</trkpt>
<trkpt lat="46.1144590" lon="10.4770950">
	<ele>1994.00</ele>
	<time>2024-07-25T08:50:51.000Z</time>
</trkpt>
<trkpt lat="46.1144630" lon="10.4771060">
	<ele>1994.00</ele>
	<time>2024-07-25T08:50:52.000Z</time>
</trkpt>
<trkpt lat="46.1144700" lon="10.4771220">
	<ele>1994.20</ele>
	<time>2024-07-25T08:50:53.000Z</time>
</trkpt>
<trkpt lat="46.1144800" lon="10.4771410">
	<ele>1994.40</ele>
	<time>2024-07-25T08:50:54.000Z</time>
</trkpt>
<trkpt lat="46.1144870" lon="10.4771590">
	<ele>1994.40</ele>
	<time>2024-07-25T08:50:55.000Z</time>
</trkpt>
<trkpt lat="46.1144910" lon="10.4771720">
	<ele>1994.40</ele>
	<time>2024-07-25T08:50:56.000Z</time>
</trkpt>
<trkpt lat="46.1144950" lon="10.4771870">
	<ele>1994.40</ele>
	<time>2024-07-25T08:50:57.000Z</time>
</trkpt>
<trkpt lat="46.1145020" lon="10.4771920">
	<ele>1994.60</ele>
	<time>2024-07-25T08:50:58.000Z</time>
</trkpt>
<trkpt lat="46.1145080" lon="10.4772000">
	<ele>1994.60</ele>
	<time>2024-07-25T08:50:59.000Z</time>
</trkpt>
<trkpt lat="46.1145110" lon="10.4772100">
	<ele>1994.80</ele>
	<time>2024-07-25T08:51:00.000Z</time>
</trkpt>
<trkpt lat="46.1145150" lon="10.4772250">
	<ele>1994.80</ele>
	<time>2024-07-25T08:51:01.000Z</time>
</trkpt>
<trkpt lat="46.1145210" lon="10.4772360">
	<ele>1994.80</ele>
	<time>2024-07-25T08:51:02.000Z</time>
</trkpt>
<trkpt lat="46.1145240" lon="10.4772440">
	<ele>1994.80</ele>
	<time>2024-07-25T08:51:03.000Z</time>
</trkpt>
<trkpt lat="46.1145240" lon="10.4772480">
	<ele>1994.80</ele>
	<time>2024-07-25T08:51:04.000Z</time>
</trkpt>
<trkpt lat="46.1145240" lon="10.4772510">
	<ele>1994.80</ele>
	<time>2024-07-25T08:51:05.000Z</time>
</trkpt>
<trkpt lat="46.1145230" lon="10.4772520">
	<ele>1995.00</ele>
	<time>2024-07-25T08:51:06.000Z</time>
</trkpt>
<trkpt lat="46.1145240" lon="10.4772550">
	<ele>1995.00</ele>
	<time>2024-07-25T08:51:07.000Z</time>
</trkpt>
<trkpt lat="46.1145230" lon="10.4772560">
	<ele>1995.00</ele>
	<time>2024-07-25T08:51:08.000Z</time>
</trkpt>
<trkpt lat="46.1145220" lon="10.4772550">
	<ele>1995.00</ele>
	<time>2024-07-25T08:51:09.000Z</time>
</trkpt>
<trkpt lat="46.1145210" lon="10.4772540">
	<ele>1995.00</ele>
	<time>2024-07-25T08:51:10.000Z</time>
</trkpt>
<trkpt lat="46.1145210" lon="10.4772530">
	<ele>1995.00</ele>
	<time>2024-07-25T08:51:11.000Z</time>
</trkpt>
<trkpt lat="46.1145220" lon="10.4772530">
	<ele>1995.00</ele>
	<time>2024-07-25T08:51:12.000Z</time>
</trkpt>
<trkpt lat="46.1145250" lon="10.4772540">
	<ele>1995.00</ele>
	<time>2024-07-25T08:51:13.000Z</time>
</trkpt>
<trkpt lat="46.1145310" lon="10.4772620">
	<ele>1995.00</ele>
	<time>2024-07-25T08:51:14.000Z</time>
</trkpt>
<trkpt lat="46.1145350" lon="10.4772710">
	<ele>1995.00</ele>
	<time>2024-07-25T08:51:15.000Z</time>
</trkpt>
<trkpt lat="46.1145380" lon="10.4772820">
	<ele>1994.60</ele>
	<time>2024-07-25T08:51:16.000Z</time>
</trkpt>
<trkpt lat="46.1145450" lon="10.4772990">
	<ele>1994.40</ele>
	<time>2024-07-25T08:51:17.000Z</time>
</trkpt>
<trkpt lat="46.1145510" lon="10.4773110">
	<ele>1994.20</ele>
	<time>2024-07-25T08:51:18.000Z</time>
</trkpt>
<trkpt lat="46.1145590" lon="10.4773290">
	<ele>1994.20</ele>
	<time>2024-07-25T08:51:19.000Z</time>
</trkpt>
<trkpt lat="46.1145630" lon="10.4773440">
	<ele>1994.20</ele>
	<time>2024-07-25T08:51:20.000Z</time>
</trkpt>
<trkpt lat="46.1145700" lon="10.4773640">
	<ele>1994.20</ele>
	<time>2024-07-25T08:51:21.000Z</time>
</trkpt>
<trkpt lat="46.1145770" lon="10.4773810">
	<ele>1994.20</ele>
	<time>2024-07-25T08:51:22.000Z</time>
</trkpt>
<trkpt lat="46.1145850" lon="10.4773960">
	<ele>1994.20</ele>
	<time>2024-07-25T08:51:23.000Z</time>
</trkpt>
<trkpt lat="46.1145940" lon="10.4774080">
	<ele>1994.20</ele>
	<time>2024-07-25T08:51:24.000Z</time>
</trkpt>
<trkpt lat="46.1146030" lon="10.4774190">
	<ele>1994.20</ele>
	<time>2024-07-25T08:51:25.000Z</time>
</trkpt>
<trkpt lat="46.1146100" lon="10.4774300">
	<ele>1994.00</ele>
	<time>2024-07-25T08:51:26.000Z</time>
</trkpt>
<trkpt lat="46.1146150" lon="10.4774430">
	<ele>1994.00</ele>
	<time>2024-07-25T08:51:27.000Z</time>
</trkpt>
<trkpt lat="46.1146210" lon="10.4774580">
	<ele>1994.00</ele>
	<time>2024-07-25T08:51:28.000Z</time>
</trkpt>
<trkpt lat="46.1146300" lon="10.4774710">
	<ele>1994.00</ele>
	<time>2024-07-25T08:51:29.000Z</time>
</trkpt>
<trkpt lat="46.1146400" lon="10.4774840">
	<ele>1994.00</ele>
	<time>2024-07-25T08:51:30.000Z</time>
</trkpt>
<trkpt lat="46.1146500" lon="10.4775000">
	<ele>1994.00</ele>
	<time>2024-07-25T08:51:31.000Z</time>
</trkpt>
<trkpt lat="46.1146610" lon="10.4775170">
	<ele>1994.00</ele>
	<time>2024-07-25T08:51:32.000Z</time>
</trkpt>
<trkpt lat="46.1146730" lon="10.4775350">
	<ele>1994.00</ele>
	<time>2024-07-25T08:51:33.000Z</time>
</trkpt>
<trkpt lat="46.1146830" lon="10.4775470">
	<ele>1994.00</ele>
	<time>2024-07-25T08:51:34.000Z</time>
</trkpt>
<trkpt lat="46.1146890" lon="10.4775550">
	<ele>1994.00</ele>
	<time>2024-07-25T08:51:35.000Z</time>
</trkpt>
<trkpt lat="46.1147000" lon="10.4775650">
	<ele>1994.00</ele>
	<time>2024-07-25T08:51:36.000Z</time>
</trkpt>
<trkpt lat="46.1147120" lon="10.4775770">
	<ele>1994.00</ele>
	<time>2024-07-25T08:51:37.000Z</time>
</trkpt>
<trkpt lat="46.1147220" lon="10.4775890">
	<ele>1994.00</ele>
	<time>2024-07-25T08:51:38.000Z</time>
</trkpt>
<trkpt lat="46.1147350" lon="10.4776080">
	<ele>1994.00</ele>
	<time>2024-07-25T08:51:39.000Z</time>
</trkpt>
<trkpt lat="46.1147450" lon="10.4776220">
	<ele>1993.80</ele>
	<time>2024-07-25T08:51:40.000Z</time>
</trkpt>
<trkpt lat="46.1147520" lon="10.4776300">
	<ele>1993.80</ele>
	<time>2024-07-25T08:51:41.000Z</time>
</trkpt>
<trkpt lat="46.1147590" lon="10.4776450">
	<ele>1994.00</ele>
	<time>2024-07-25T08:51:42.000Z</time>
</trkpt>
<trkpt lat="46.1147690" lon="10.4776620">
	<ele>1994.00</ele>
	<time>2024-07-25T08:51:43.000Z</time>
</trkpt>
<trkpt lat="46.1147760" lon="10.4776770">
	<ele>1994.00</ele>
	<time>2024-07-25T08:51:44.000Z</time>
</trkpt>
<trkpt lat="46.1147840" lon="10.4776910">
	<ele>1994.00</ele>
	<time>2024-07-25T08:51:45.000Z</time>
</trkpt>
<trkpt lat="46.1147870" lon="10.4777060">
	<ele>1994.00</ele>
	<time>2024-07-25T08:51:46.000Z</time>
</trkpt>
<trkpt lat="46.1147910" lon="10.4777180">
	<ele>1994.00</ele>
	<time>2024-07-25T08:51:47.000Z</time>
</trkpt>
<trkpt lat="46.1147990" lon="10.4777250">
	<ele>1994.00</ele>
	<time>2024-07-25T08:51:48.000Z</time>
</trkpt>
<trkpt lat="46.1148050" lon="10.4777360">
	<ele>1994.20</ele>
	<time>2024-07-25T08:51:49.000Z</time>
</trkpt>
<trkpt lat="46.1148110" lon="10.4777500">
	<ele>1994.20</ele>
	<time>2024-07-25T08:51:50.000Z</time>
</trkpt>
<trkpt lat="46.1148210" lon="10.4777660">
	<ele>1994.40</ele>
	<time>2024-07-25T08:51:51.000Z</time>
</trkpt>
<trkpt lat="46.1148280" lon="10.4777800">
	<ele>1994.40</ele>
	<time>2024-07-25T08:51:52.000Z</time>
</trkpt>
<trkpt lat="46.1148340" lon="10.4777940">
	<ele>1994.40</ele>
	<time>2024-07-25T08:51:53.000Z</time>
</trkpt>
<trkpt lat="46.1148370" lon="10.4778050">
	<ele>1994.40</ele>
	<time>2024-07-25T08:51:54.000Z</time>
</trkpt>
<trkpt lat="46.1148420" lon="10.4778150">
	<ele>1994.40</ele>
	<time>2024-07-25T08:51:55.000Z</time>
</trkpt>
<trkpt lat="46.1148470" lon="10.4778280">
	<ele>1994.40</ele>
	<time>2024-07-25T08:51:56.000Z</time>
</trkpt>
<trkpt lat="46.1148510" lon="10.4778420">
	<ele>1994.40</ele>
	<time>2024-07-25T08:51:57.000Z</time>
</trkpt>
<trkpt lat="46.1148610" lon="10.4778540">
	<ele>1994.40</ele>
	<time>2024-07-25T08:51:58.000Z</time>
</trkpt>
<trkpt lat="46.1148690" lon="10.4778730">
	<ele>1994.40</ele>
	<time>2024-07-25T08:51:59.000Z</time>
</trkpt>
<trkpt lat="46.1148840" lon="10.4778910">
	<ele>1994.40</ele>
	<time>2024-07-25T08:52:00.000Z</time>
</trkpt>
<trkpt lat="46.1148950" lon="10.4779050">
	<ele>1994.40</ele>
	<time>2024-07-25T08:52:01.000Z</time>
</trkpt>
<trkpt lat="46.1149060" lon="10.4779200">
	<ele>1994.40</ele>
	<time>2024-07-25T08:52:02.000Z</time>
</trkpt>
<trkpt lat="46.1149160" lon="10.4779280">
	<ele>1994.60</ele>
	<time>2024-07-25T08:52:03.000Z</time>
</trkpt>
<trkpt lat="46.1149250" lon="10.4779400">
	<ele>1994.60</ele>
	<time>2024-07-25T08:52:04.000Z</time>
</trkpt>
<trkpt lat="46.1149320" lon="10.4779510">
	<ele>1994.80</ele>
	<time>2024-07-25T08:52:05.000Z</time>
</trkpt>
<trkpt lat="46.1149400" lon="10.4779590">
	<ele>1995.00</ele>
	<time>2024-07-25T08:52:06.000Z</time>
</trkpt>
<trkpt lat="46.1149460" lon="10.4779660">
	<ele>1995.00</ele>
	<time>2024-07-25T08:52:07.000Z</time>
</trkpt>
<trkpt lat="46.1149530" lon="10.4779780">
	<ele>1995.20</ele>
	<time>2024-07-25T08:52:08.000Z</time>
</trkpt>
<trkpt lat="46.1149590" lon="10.4779890">
	<ele>1995.20</ele>
	<time>2024-07-25T08:52:09.000Z</time>
</trkpt>
<trkpt lat="46.1149640" lon="10.4780030">
	<ele>1995.40</ele>
	<time>2024-07-25T08:52:10.000Z</time>
</trkpt>
<trkpt lat="46.1149680" lon="10.4780170">
	<ele>1995.40</ele>
	<time>2024-07-25T08:52:11.000Z</time>
</trkpt>
<trkpt lat="46.1149710" lon="10.4780330">
	<ele>1995.60</ele>
	<time>2024-07-25T08:52:12.000Z</time>
</trkpt>
<trkpt lat="46.1149750" lon="10.4780510">
	<ele>1995.60</ele>
	<time>2024-07-25T08:52:13.000Z</time>
</trkpt>
<trkpt lat="46.1149810" lon="10.4780680">
	<ele>1995.60</ele>
	<time>2024-07-25T08:52:14.000Z</time>
</trkpt>
<trkpt lat="46.1149870" lon="10.4780830">
	<ele>1995.80</ele>
	<time>2024-07-25T08:52:15.000Z</time>
</trkpt>
<trkpt lat="46.1149900" lon="10.4781020">
	<ele>1996.00</ele>
	<time>2024-07-25T08:52:16.000Z</time>
</trkpt>
<trkpt lat="46.1149920" lon="10.4781160">
	<ele>1996.00</ele>
	<time>2024-07-25T08:52:17.000Z</time>
</trkpt>
<trkpt lat="46.1149980" lon="10.4781310">
	<ele>1996.20</ele>
	<time>2024-07-25T08:52:18.000Z</time>
</trkpt>
<trkpt lat="46.1150050" lon="10.4781460">
	<ele>1996.20</ele>
	<time>2024-07-25T08:52:19.000Z</time>
</trkpt>
<trkpt lat="46.1150100" lon="10.4781620">
	<ele>1996.20</ele>
	<time>2024-07-25T08:52:20.000Z</time>
</trkpt>
<trkpt lat="46.1150150" lon="10.4781810">
	<ele>1996.20</ele>
	<time>2024-07-25T08:52:21.000Z</time>
</trkpt>
<trkpt lat="46.1150190" lon="10.4782020">
	<ele>1996.20</ele>
	<time>2024-07-25T08:52:22.000Z</time>
</trkpt>
<trkpt lat="46.1150250" lon="10.4782250">
	<ele>1996.40</ele>
	<time>2024-07-25T08:52:23.000Z</time>
</trkpt>
<trkpt lat="46.1150290" lon="10.4782460">
	<ele>1996.40</ele>
	<time>2024-07-25T08:52:24.000Z</time>
</trkpt>
<trkpt lat="46.1150340" lon="10.4782650">
	<ele>1996.40</ele>
	<time>2024-07-25T08:52:25.000Z</time>
</trkpt>
<trkpt lat="46.1150390" lon="10.4782810">
	<ele>1996.60</ele>
	<time>2024-07-25T08:52:26.000Z</time>
</trkpt>
<trkpt lat="46.1150430" lon="10.4782950">
	<ele>1996.60</ele>
	<time>2024-07-25T08:52:27.000Z</time>
</trkpt>
<trkpt lat="46.1150460" lon="10.4783070">
	<ele>1996.60</ele>
	<time>2024-07-25T08:52:28.000Z</time>
</trkpt>
<trkpt lat="46.1150480" lon="10.4783130">
	<ele>1996.80</ele>
	<time>2024-07-25T08:52:29.000Z</time>
</trkpt>
<trkpt lat="46.1150460" lon="10.4783210">
	<ele>1996.80</ele>
	<time>2024-07-25T08:52:30.000Z</time>
</trkpt>
<trkpt lat="46.1150430" lon="10.4783310">
	<ele>1996.80</ele>
	<time>2024-07-25T08:52:31.000Z</time>
</trkpt>
<trkpt lat="46.1150420" lon="10.4783370">
	<ele>1996.80</ele>
	<time>2024-07-25T08:52:32.000Z</time>
</trkpt>
<trkpt lat="46.1150410" lon="10.4783380">
	<ele>1996.80</ele>
	<time>2024-07-25T08:52:33.000Z</time>
</trkpt>
<trkpt lat="46.1150400" lon="10.4783410">
	<ele>1997.00</ele>
	<time>2024-07-25T08:52:34.000Z</time>
</trkpt>
<trkpt lat="46.1150390" lon="10.4783430">
	<ele>1997.00</ele>
	<time>2024-07-25T08:52:35.000Z</time>
</trkpt>
<trkpt lat="46.1150390" lon="10.4783430">
	<ele>1997.00</ele>
	<time>2024-07-25T08:52:36.000Z</time>
</trkpt>
<trkpt lat="46.1150380" lon="10.4783430">
	<ele>1997.00</ele>
	<time>2024-07-25T08:52:37.000Z</time>
</trkpt>
<trkpt lat="46.1150380" lon="10.4783430">
	<ele>1997.00</ele>
	<time>2024-07-25T08:52:38.000Z</time>
</trkpt>
<trkpt lat="46.1150380" lon="10.4783440">
	<ele>1997.20</ele>
	<time>2024-07-25T08:52:39.000Z</time>
</trkpt>
<trkpt lat="46.1150390" lon="10.4783460">
	<ele>1997.20</ele>
	<time>2024-07-25T08:52:40.000Z</time>
</trkpt>
<trkpt lat="46.1150380" lon="10.4783520">
	<ele>1997.00</ele>
	<time>2024-07-25T08:52:41.000Z</time>
</trkpt>
<trkpt lat="46.1150390" lon="10.4783600">
	<ele>1997.00</ele>
	<time>2024-07-25T08:52:42.000Z</time>
</trkpt>
<trkpt lat="46.1150460" lon="10.4783700">
	<ele>1996.80</ele>
	<time>2024-07-25T08:52:43.000Z</time>
</trkpt>
<trkpt lat="46.1150480" lon="10.4783800">
	<ele>1996.80</ele>
	<time>2024-07-25T08:52:44.000Z</time>
</trkpt>
<trkpt lat="46.1150510" lon="10.4783960">
	<ele>1996.80</ele>
	<time>2024-07-25T08:52:45.000Z</time>
</trkpt>
<trkpt lat="46.1150540" lon="10.4784140">
	<ele>1996.80</ele>
	<time>2024-07-25T08:52:46.000Z</time>
</trkpt>
<trkpt lat="46.1150630" lon="10.4784280">
	<ele>1996.80</ele>
	<time>2024-07-25T08:52:47.000Z</time>
</trkpt>
<trkpt lat="46.1150730" lon="10.4784400">
	<ele>1996.80</ele>
	<time>2024-07-25T08:52:48.000Z</time>
</trkpt>
<trkpt lat="46.1150820" lon="10.4784520">
	<ele>1996.80</ele>
	<time>2024-07-25T08:52:49.000Z</time>
</trkpt>
<trkpt lat="46.1150910" lon="10.4784670">
	<ele>1996.80</ele>
	<time>2024-07-25T08:52:50.000Z</time>
</trkpt>
<trkpt lat="46.1150980" lon="10.4784810">
	<ele>1996.80</ele>
	<time>2024-07-25T08:52:51.000Z</time>
</trkpt>
<trkpt lat="46.1151070" lon="10.4784990">
	<ele>1996.80</ele>
	<time>2024-07-25T08:52:52.000Z</time>
</trkpt>
<trkpt lat="46.1151150" lon="10.4785190">
	<ele>1996.80</ele>
	<time>2024-07-25T08:52:53.000Z</time>
</trkpt>
<trkpt lat="46.1151200" lon="10.4785370">
	<ele>1996.80</ele>
	<time>2024-07-25T08:52:54.000Z</time>
</trkpt>
<trkpt lat="46.1151220" lon="10.4785520">
	<ele>1996.80</ele>
	<time>2024-07-25T08:52:55.000Z</time>
</trkpt>
<trkpt lat="46.1151250" lon="10.4785770">
	<ele>1996.80</ele>
	<time>2024-07-25T08:52:56.000Z</time>
</trkpt>
<trkpt lat="46.1151280" lon="10.4785980">
	<ele>1996.80</ele>
	<time>2024-07-25T08:52:57.000Z</time>
</trkpt>
<trkpt lat="46.1151320" lon="10.4786120">
	<ele>1996.80</ele>
	<time>2024-07-25T08:52:58.000Z</time>
</trkpt>
<trkpt lat="46.1151380" lon="10.4786260">
	<ele>1996.80</ele>
	<time>2024-07-25T08:52:59.000Z</time>
</trkpt>
<trkpt lat="46.1151430" lon="10.4786470">
	<ele>1997.00</ele>
	<time>2024-07-25T08:53:00.000Z</time>
</trkpt>
<trkpt lat="46.1151480" lon="10.4786640">
	<ele>1997.00</ele>
	<time>2024-07-25T08:53:01.000Z</time>
</trkpt>
<trkpt lat="46.1151530" lon="10.4786810">
	<ele>1997.20</ele>
	<time>2024-07-25T08:53:02.000Z</time>
</trkpt>
<trkpt lat="46.1151570" lon="10.4787010">
	<ele>1997.20</ele>
	<time>2024-07-25T08:53:03.000Z</time>
</trkpt>
<trkpt lat="46.1151610" lon="10.4787200">
	<ele>1997.20</ele>
	<time>2024-07-25T08:53:04.000Z</time>
</trkpt>
<trkpt lat="46.1151630" lon="10.4787350">
	<ele>1997.20</ele>
	<time>2024-07-25T08:53:05.000Z</time>
</trkpt>
<trkpt lat="46.1151650" lon="10.4787480">
	<ele>1997.20</ele>
	<time>2024-07-25T08:53:06.000Z</time>
</trkpt>
<trkpt lat="46.1151700" lon="10.4787580">
	<ele>1997.20</ele>
	<time>2024-07-25T08:53:07.000Z</time>
</trkpt>
<trkpt lat="46.1151780" lon="10.4787650">
	<ele>1997.20</ele>
	<time>2024-07-25T08:53:08.000Z</time>
</trkpt>
<trkpt lat="46.1151860" lon="10.4787750">
	<ele>1997.20</ele>
	<time>2024-07-25T08:53:09.000Z</time>
</trkpt>
<trkpt lat="46.1151940" lon="10.4787900">
	<ele>1997.20</ele>
	<time>2024-07-25T08:53:10.000Z</time>
</trkpt>
<trkpt lat="46.1152000" lon="10.4788060">
	<ele>1997.20</ele>
	<time>2024-07-25T08:53:11.000Z</time>
</trkpt>
<trkpt lat="46.1152050" lon="10.4788210">
	<ele>1997.40</ele>
	<time>2024-07-25T08:53:12.000Z</time>
</trkpt>
<trkpt lat="46.1152130" lon="10.4788360">
	<ele>1997.40</ele>
	<time>2024-07-25T08:53:13.000Z</time>
</trkpt>
<trkpt lat="46.1152140" lon="10.4788510">
	<ele>1997.40</ele>
	<time>2024-07-25T08:53:14.000Z</time>
</trkpt>
<trkpt lat="46.1152220" lon="10.4788710">
	<ele>1997.40</ele>
	<time>2024-07-25T08:53:15.000Z</time>
</trkpt>
<trkpt lat="46.1152300" lon="10.4788850">
	<ele>1997.60</ele>
	<time>2024-07-25T08:53:16.000Z</time>
</trkpt>
<trkpt lat="46.1152370" lon="10.4788930">
	<ele>1997.80</ele>
	<time>2024-07-25T08:53:17.000Z</time>
</trkpt>
<trkpt lat="46.1152470" lon="10.4789090">
	<ele>1997.80</ele>
	<time>2024-07-25T08:53:18.000Z</time>
</trkpt>
<trkpt lat="46.1152550" lon="10.4789260">
	<ele>1998.00</ele>
	<time>2024-07-25T08:53:19.000Z</time>
</trkpt>
<trkpt lat="46.1152650" lon="10.4789360">
	<ele>1998.00</ele>
	<time>2024-07-25T08:53:20.000Z</time>
</trkpt>
<trkpt lat="46.1152740" lon="10.4789470">
	<ele>1998.00</ele>
	<time>2024-07-25T08:53:21.000Z</time>
</trkpt>
<trkpt lat="46.1152830" lon="10.4789560">
	<ele>1998.20</ele>
	<time>2024-07-25T08:53:22.000Z</time>
</trkpt>
<trkpt lat="46.1152910" lon="10.4789640">
	<ele>1998.20</ele>
	<time>2024-07-25T08:53:23.000Z</time>
</trkpt>
<trkpt lat="46.1152970" lon="10.4789720">
	<ele>1998.20</ele>
	<time>2024-07-25T08:53:24.000Z</time>
</trkpt>
<trkpt lat="46.1153050" lon="10.4789840">
	<ele>1998.20</ele>
	<time>2024-07-25T08:53:25.000Z</time>
</trkpt>
<trkpt lat="46.1153110" lon="10.4789920">
	<ele>1998.20</ele>
	<time>2024-07-25T08:53:26.000Z</time>
</trkpt>
<trkpt lat="46.1153210" lon="10.4790010">
	<ele>1998.00</ele>
	<time>2024-07-25T08:53:27.000Z</time>
</trkpt>
<trkpt lat="46.1153290" lon="10.4790100">
	<ele>1997.80</ele>
	<time>2024-07-25T08:53:28.000Z</time>
</trkpt>
<trkpt lat="46.1153360" lon="10.4790220">
	<ele>1997.60</ele>
	<time>2024-07-25T08:53:29.000Z</time>
</trkpt>
<trkpt lat="46.1153420" lon="10.4790370">
	<ele>1997.40</ele>
	<time>2024-07-25T08:53:30.000Z</time>
</trkpt>
<trkpt lat="46.1153430" lon="10.4790540">
	<ele>1997.40</ele>
	<time>2024-07-25T08:53:31.000Z</time>
</trkpt>
<trkpt lat="46.1153460" lon="10.4790720">
	<ele>1997.40</ele>
	<time>2024-07-25T08:53:32.000Z</time>
</trkpt>
<trkpt lat="46.1153500" lon="10.4790900">
	<ele>1997.40</ele>
	<time>2024-07-25T08:53:33.000Z</time>
</trkpt>
<trkpt lat="46.1153560" lon="10.4791100">
	<ele>1997.40</ele>
	<time>2024-07-25T08:53:34.000Z</time>
</trkpt>
<trkpt lat="46.1153600" lon="10.4791330">
	<ele>1997.40</ele>
	<time>2024-07-25T08:53:35.000Z</time>
</trkpt>
<trkpt lat="46.1153640" lon="10.4791460">
	<ele>1997.40</ele>
	<time>2024-07-25T08:53:36.000Z</time>
</trkpt>
<trkpt lat="46.1153730" lon="10.4791630">
	<ele>1997.40</ele>
	<time>2024-07-25T08:53:37.000Z</time>
</trkpt>
<trkpt lat="46.1153810" lon="10.4791830">
	<ele>1997.40</ele>
	<time>2024-07-25T08:53:38.000Z</time>
</trkpt>
<trkpt lat="46.1153860" lon="10.4791990">
	<ele>1997.20</ele>
	<time>2024-07-25T08:53:39.000Z</time>
</trkpt>
<trkpt lat="46.1153930" lon="10.4792180">
	<ele>1997.20</ele>
	<time>2024-07-25T08:53:40.000Z</time>
</trkpt>
<trkpt lat="46.1153990" lon="10.4792350">
	<ele>1997.20</ele>
	<time>2024-07-25T08:53:41.000Z</time>
</trkpt>
<trkpt lat="46.1154040" lon="10.4792510">
	<ele>1997.00</ele>
	<time>2024-07-25T08:53:42.000Z</time>
</trkpt>
<trkpt lat="46.1154080" lon="10.4792680">
	<ele>1997.00</ele>
	<time>2024-07-25T08:53:43.000Z</time>
</trkpt>
<trkpt lat="46.1154160" lon="10.4792870">
	<ele>1997.00</ele>
	<time>2024-07-25T08:53:44.000Z</time>
</trkpt>
<trkpt lat="46.1154210" lon="10.4793020">
	<ele>1997.00</ele>
	<time>2024-07-25T08:53:45.000Z</time>
</trkpt>
<trkpt lat="46.1154280" lon="10.4793160">
	<ele>1996.80</ele>
	<time>2024-07-25T08:53:46.000Z</time>
</trkpt>
<trkpt lat="46.1154330" lon="10.4793280">
	<ele>1996.60</ele>
	<time>2024-07-25T08:53:47.000Z</time>
</trkpt>
<trkpt lat="46.1154390" lon="10.4793380">
	<ele>1996.60</ele>
	<time>2024-07-25T08:53:48.000Z</time>
</trkpt>
<trkpt lat="46.1154450" lon="10.4793510">
	<ele>1996.40</ele>
	<time>2024-07-25T08:53:49.000Z</time>
</trkpt>
<trkpt lat="46.1154530" lon="10.4793690">
	<ele>1996.40</ele>
	<time>2024-07-25T08:53:50.000Z</time>
</trkpt>
<trkpt lat="46.1154620" lon="10.4793850">
	<ele>1996.40</ele>
	<time>2024-07-25T08:53:51.000Z</time>
</trkpt>
<trkpt lat="46.1154690" lon="10.4794040">
	<ele>1996.40</ele>
	<time>2024-07-25T08:53:52.000Z</time>
</trkpt>
<trkpt lat="46.1154740" lon="10.4794180">
	<ele>1996.40</ele>
	<time>2024-07-25T08:53:53.000Z</time>
</trkpt>
<trkpt lat="46.1154830" lon="10.4794310">
	<ele>1996.20</ele>
	<time>2024-07-25T08:53:54.000Z</time>
</trkpt>
<trkpt lat="46.1154930" lon="10.4794470">
	<ele>1996.20</ele>
	<time>2024-07-25T08:53:55.000Z</time>
</trkpt>
<trkpt lat="46.1155020" lon="10.4794680">
	<ele>1996.20</ele>
	<time>2024-07-25T08:53:56.000Z</time>
</trkpt>
<trkpt lat="46.1155070" lon="10.4794830">
	<ele>1996.40</ele>
	<time>2024-07-25T08:53:57.000Z</time>
</trkpt>
<trkpt lat="46.1155090" lon="10.4794980">
	<ele>1996.40</ele>
	<time>2024-07-25T08:53:58.000Z</time>
</trkpt>
<trkpt lat="46.1155130" lon="10.4795140">
	<ele>1996.40</ele>
	<time>2024-07-25T08:53:59.000Z</time>
</trkpt>
<trkpt lat="46.1155170" lon="10.4795300">
	<ele>1996.40</ele>
	<time>2024-07-25T08:54:00.000Z</time>
</trkpt>
<trkpt lat="46.1155210" lon="10.4795450">
	<ele>1996.40</ele>
	<time>2024-07-25T08:54:01.000Z</time>
</trkpt>
<trkpt lat="46.1155240" lon="10.4795590">
	<ele>1996.60</ele>
	<time>2024-07-25T08:54:02.000Z</time>
</trkpt>
<trkpt lat="46.1155240" lon="10.4795740">
	<ele>1996.60</ele>
	<time>2024-07-25T08:54:03.000Z</time>
</trkpt>
<trkpt lat="46.1155220" lon="10.4795900">
	<ele>1996.60</ele>
	<time>2024-07-25T08:54:04.000Z</time>
</trkpt>
<trkpt lat="46.1155200" lon="10.4796070">
	<ele>1996.80</ele>
	<time>2024-07-25T08:54:05.000Z</time>
</trkpt>
<trkpt lat="46.1155160" lon="10.4796230">
	<ele>1996.80</ele>
	<time>2024-07-25T08:54:06.000Z</time>
</trkpt>
<trkpt lat="46.1155130" lon="10.4796390">
	<ele>1997.00</ele>
	<time>2024-07-25T08:54:07.000Z</time>
</trkpt>
<trkpt lat="46.1155130" lon="10.4796580">
	<ele>1997.00</ele>
	<time>2024-07-25T08:54:08.000Z</time>
</trkpt>
<trkpt lat="46.1155130" lon="10.4796720">
	<ele>1997.20</ele>
	<time>2024-07-25T08:54:09.000Z</time>
</trkpt>
<trkpt lat="46.1155120" lon="10.4796780">
	<ele>1997.20</ele>
	<time>2024-07-25T08:54:10.000Z</time>
</trkpt>
<trkpt lat="46.1155100" lon="10.4796800">
	<ele>1997.40</ele>
	<time>2024-07-25T08:54:11.000Z</time>
</trkpt>
<trkpt lat="46.1155110" lon="10.4796820">
	<ele>1997.20</ele>
	<time>2024-07-25T08:54:12.000Z</time>
</trkpt>
<trkpt lat="46.1155110" lon="10.4796830">
	<ele>1997.20</ele>
	<time>2024-07-25T08:54:13.000Z</time>
</trkpt>
<trkpt lat="46.1155130" lon="10.4796840">
	<ele>1997.20</ele>
	<time>2024-07-25T08:54:14.000Z</time>
</trkpt>
<trkpt lat="46.1155150" lon="10.4796850">
	<ele>1997.20</ele>
	<time>2024-07-25T08:54:15.000Z</time>
</trkpt>
<trkpt lat="46.1155160" lon="10.4796850">
	<ele>1997.20</ele>
	<time>2024-07-25T08:54:16.000Z</time>
</trkpt>
<trkpt lat="46.1155140" lon="10.4796850">
	<ele>1997.20</ele>
	<time>2024-07-25T08:54:17.000Z</time>
</trkpt>
<trkpt lat="46.1155130" lon="10.4796860">
	<ele>1997.20</ele>
	<time>2024-07-25T08:54:18.000Z</time>
</trkpt>
<trkpt lat="46.1155120" lon="10.4796850">
	<ele>1997.40</ele>
	<time>2024-07-25T08:54:19.000Z</time>
</trkpt>
<trkpt lat="46.1155120" lon="10.4796880">
	<ele>1997.40</ele>
	<time>2024-07-25T08:54:20.000Z</time>
</trkpt>
<trkpt lat="46.1155130" lon="10.4796950">
	<ele>1997.40</ele>
	<time>2024-07-25T08:54:21.000Z</time>
</trkpt>
<trkpt lat="46.1155170" lon="10.4797040">
	<ele>1997.40</ele>
	<time>2024-07-25T08:54:22.000Z</time>
</trkpt>
<trkpt lat="46.1155220" lon="10.4797140">
	<ele>1997.60</ele>
	<time>2024-07-25T08:54:23.000Z</time>
</trkpt>
<trkpt lat="46.1155280" lon="10.4797260">
	<ele>1997.60</ele>
	<time>2024-07-25T08:54:24.000Z</time>
</trkpt>
<trkpt lat="46.1155320" lon="10.4797400">
	<ele>1997.60</ele>
	<time>2024-07-25T08:54:25.000Z</time>
</trkpt>
<trkpt lat="46.1155400" lon="10.4797520">
	<ele>1997.80</ele>
	<time>2024-07-25T08:54:26.000Z</time>
</trkpt>
<trkpt lat="46.1155440" lon="10.4797630">
	<ele>1997.80</ele>
	<time>2024-07-25T08:54:27.000Z</time>
</trkpt>
<trkpt lat="46.1155470" lon="10.4797740">
	<ele>1997.80</ele>
	<time>2024-07-25T08:54:28.000Z</time>
</trkpt>
<trkpt lat="46.1155470" lon="10.4797830">
	<ele>1998.00</ele>
	<time>2024-07-25T08:54:29.000Z</time>
</trkpt>
<trkpt lat="46.1155470" lon="10.4797930">
	<ele>1998.40</ele>
	<time>2024-07-25T08:54:30.000Z</time>
</trkpt>
<trkpt lat="46.1155520" lon="10.4798060">
	<ele>1998.60</ele>
	<time>2024-07-25T08:54:31.000Z</time>
</trkpt>
<trkpt lat="46.1155600" lon="10.4798220">
	<ele>1998.80</ele>
	<time>2024-07-25T08:54:32.000Z</time>
</trkpt>
<trkpt lat="46.1155680" lon="10.4798360">
	<ele>1999.00</ele>
	<time>2024-07-25T08:54:33.000Z</time>
</trkpt>
<trkpt lat="46.1155720" lon="10.4798430">
	<ele>1999.20</ele>
	<time>2024-07-25T08:54:34.000Z</time>
</trkpt>
<trkpt lat="46.1155750" lon="10.4798530">
	<ele>1999.40</ele>
	<time>2024-07-25T08:54:35.000Z</time>
</trkpt>
<trkpt lat="46.1155790" lon="10.4798560">
	<ele>1999.60</ele>
	<time>2024-07-25T08:54:36.000Z</time>
</trkpt>
<trkpt lat="46.1155800" lon="10.4798570">
	<ele>1999.80</ele>
	<time>2024-07-25T08:54:37.000Z</time>
</trkpt>
<trkpt lat="46.1155810" lon="10.4798640">
	<ele>2000.00</ele>
	<time>2024-07-25T08:54:38.000Z</time>
</trkpt>
<trkpt lat="46.1155800" lon="10.4798720">
	<ele>2000.00</ele>
	<time>2024-07-25T08:54:39.000Z</time>
</trkpt>
<trkpt lat="46.1155730" lon="10.4798760">
	<ele>2000.00</ele>
	<time>2024-07-25T08:54:40.000Z</time>
</trkpt>
<trkpt lat="46.1155720" lon="10.4798740">
	<ele>2000.00</ele>
	<time>2024-07-25T08:54:41.000Z</time>
</trkpt>
<trkpt lat="46.1155710" lon="10.4798740">
	<ele>2000.20</ele>
	<time>2024-07-25T08:54:42.000Z</time>
</trkpt>
<trkpt lat="46.1155730" lon="10.4798750">
	<ele>2000.20</ele>
	<time>2024-07-25T08:54:43.000Z</time>
</trkpt>
<trkpt lat="46.1155690" lon="10.4798700">
	<ele>2000.20</ele>
	<time>2024-07-25T08:54:44.000Z</time>
</trkpt>
<trkpt lat="46.1155700" lon="10.4798680">
	<ele>2000.20</ele>
	<time>2024-07-25T08:54:45.000Z</time>
</trkpt>
<trkpt lat="46.1155710" lon="10.4798680">
	<ele>2000.20</ele>
	<time>2024-07-25T08:54:46.000Z</time>
</trkpt>
<trkpt lat="46.1155720" lon="10.4798660">
	<ele>2000.20</ele>
	<time>2024-07-25T08:54:47.000Z</time>
</trkpt>
<trkpt lat="46.1155720" lon="10.4798610">
	<ele>2000.20</ele>
	<time>2024-07-25T08:54:48.000Z</time>
</trkpt>
<trkpt lat="46.1155730" lon="10.4798640">
	<ele>2000.20</ele>
	<time>2024-07-25T08:54:49.000Z</time>
</trkpt>
<trkpt lat="46.1155750" lon="10.4798680">
	<ele>2000.20</ele>
	<time>2024-07-25T08:54:50.000Z</time>
</trkpt>
<trkpt lat="46.1155720" lon="10.4798670">
	<ele>2000.20</ele>
	<time>2024-07-25T08:54:51.000Z</time>
</trkpt>
<trkpt lat="46.1155700" lon="10.4798670">
	<ele>2000.20</ele>
	<time>2024-07-25T08:54:52.000Z</time>
</trkpt>
<trkpt lat="46.1155720" lon="10.4798680">
	<ele>2000.40</ele>
	<time>2024-07-25T08:54:53.000Z</time>
</trkpt>
<trkpt lat="46.1155720" lon="10.4798690">
	<ele>2000.40</ele>
	<time>2024-07-25T08:54:54.000Z</time>
</trkpt>
<trkpt lat="46.1155720" lon="10.4798690">
	<ele>2000.40</ele>
	<time>2024-07-25T08:54:55.000Z</time>
</trkpt>
<trkpt lat="46.1155720" lon="10.4798690">
	<ele>2000.40</ele>
	<time>2024-07-25T08:54:56.000Z</time>
</trkpt>
<trkpt lat="46.1155730" lon="10.4798680">
	<ele>2000.40</ele>
	<time>2024-07-25T08:54:57.000Z</time>
</trkpt>
<trkpt lat="46.1155720" lon="10.4798670">
	<ele>2000.40</ele>
	<time>2024-07-25T08:54:58.000Z</time>
</trkpt>
<trkpt lat="46.1155720" lon="10.4798670">
	<ele>2000.40</ele>
	<time>2024-07-25T08:54:59.000Z</time>
</trkpt>
<trkpt lat="46.1155720" lon="10.4798670">
	<ele>2000.40</ele>
	<time>2024-07-25T08:55:00.000Z</time>
</trkpt>
<trkpt lat="46.1155720" lon="10.4798670">
	<ele>2000.40</ele>
	<time>2024-07-25T08:55:01.000Z</time>
</trkpt>
<trkpt lat="46.1155720" lon="10.4798670">
	<ele>2000.40</ele>
	<time>2024-07-25T08:55:02.000Z</time>
</trkpt>
<trkpt lat="46.1155720" lon="10.4798670">
	<ele>2000.40</ele>
	<time>2024-07-25T08:55:03.000Z</time>
</trkpt>
<trkpt lat="46.1155720" lon="10.4798670">
	<ele>2000.40</ele>
	<time>2024-07-25T08:55:04.000Z</time>
</trkpt>
<trkpt lat="46.1155720" lon="10.4798670">
	<ele>2000.40</ele>
	<time>2024-07-25T08:55:05.000Z</time>
</trkpt>
<trkpt lat="46.1155720" lon="10.4798670">
	<ele>2000.40</ele>
	<time>2024-07-25T08:55:06.000Z</time>
</trkpt>
<trkpt lat="46.1155720" lon="10.4798670">
	<ele>2000.40</ele>
	<time>2024-07-25T08:55:07.000Z</time>
</trkpt>
<trkpt lat="46.1155720" lon="10.4798670">
	<ele>2000.40</ele>
	<time>2024-07-25T08:55:08.000Z</time>
</trkpt>
<trkpt lat="46.1155720" lon="10.4798670">
	<ele>2000.60</ele>
	<time>2024-07-25T08:55:09.000Z</time>
</trkpt>
<trkpt lat="46.1155720" lon="10.4798680">
	<ele>2000.60</ele>
	<time>2024-07-25T08:55:10.000Z</time>
</trkpt>
<trkpt lat="46.1155720" lon="10.4798680">
	<ele>2000.80</ele>
	<time>2024-07-25T08:55:11.000Z</time>
</trkpt>
<trkpt lat="46.1155720" lon="10.4798680">
	<ele>2000.80</ele>
	<time>2024-07-25T08:55:12.000Z</time>
</trkpt>
<trkpt lat="46.1155730" lon="10.4798680">
	<ele>2000.80</ele>
	<time>2024-07-25T08:55:13.000Z</time>
</trkpt>
<trkpt lat="46.1155730" lon="10.4798680">
	<ele>2000.80</ele>
	<time>2024-07-25T08:55:14.000Z</time>
</trkpt>
<trkpt lat="46.1155730" lon="10.4798690">
	<ele>2000.60</ele>
	<time>2024-07-25T08:55:15.000Z</time>
</trkpt>
<trkpt lat="46.1155740" lon="10.4798690">
	<ele>2000.60</ele>
	<time>2024-07-25T08:55:16.000Z</time>
</trkpt>
<trkpt lat="46.1155740" lon="10.4798690">
	<ele>2000.40</ele>
	<time>2024-07-25T08:55:17.000Z</time>
</trkpt>
<trkpt lat="46.1155770" lon="10.4798770">
	<ele>2000.40</ele>
	<time>2024-07-25T08:55:18.000Z</time>
</trkpt>
<trkpt lat="46.1155770" lon="10.4799000">
	<ele>2000.40</ele>
	<time>2024-07-25T08:55:19.000Z</time>
</trkpt>
<trkpt lat="46.1155850" lon="10.4799300">
	<ele>2000.40</ele>
	<time>2024-07-25T08:55:20.000Z</time>
</trkpt>
<trkpt lat="46.1155870" lon="10.4799520">
	<ele>2000.40</ele>
	<time>2024-07-25T08:55:21.000Z</time>
</trkpt>
<trkpt lat="46.1155940" lon="10.4799760">
	<ele>2000.40</ele>
	<time>2024-07-25T08:55:22.000Z</time>
</trkpt>
<trkpt lat="46.1156020" lon="10.4799990">
	<ele>2000.60</ele>
	<time>2024-07-25T08:55:23.000Z</time>
</trkpt>
<trkpt lat="46.1156060" lon="10.4800240">
	<ele>2000.40</ele>
	<time>2024-07-25T08:55:24.000Z</time>
</trkpt>
<trkpt lat="46.1156040" lon="10.4800540">
	<ele>2000.40</ele>
	<time>2024-07-25T08:55:25.000Z</time>
</trkpt>
<trkpt lat="46.1155990" lon="10.4800810">
	<ele>2000.20</ele>
	<time>2024-07-25T08:55:26.000Z</time>
</trkpt>
<trkpt lat="46.1155970" lon="10.4801050">
	<ele>2000.20</ele>
	<time>2024-07-25T08:55:27.000Z</time>
</trkpt>
<trkpt lat="46.1155960" lon="10.4801240">
	<ele>2000.00</ele>
	<time>2024-07-25T08:55:28.000Z</time>
</trkpt>
<trkpt lat="46.1155950" lon="10.4801440">
	<ele>2000.00</ele>
	<time>2024-07-25T08:55:29.000Z</time>
</trkpt>
<trkpt lat="46.1155940" lon="10.4801630">
	<ele>2000.00</ele>
	<time>2024-07-25T08:55:30.000Z</time>
</trkpt>
<trkpt lat="46.1155970" lon="10.4801790">
	<ele>2000.00</ele>
	<time>2024-07-25T08:55:31.000Z</time>
</trkpt>
<trkpt lat="46.1156010" lon="10.4801940">
	<ele>2000.00</ele>
	<time>2024-07-25T08:55:32.000Z</time>
</trkpt>
<trkpt lat="46.1156050" lon="10.4802120">
	<ele>2000.00</ele>
	<time>2024-07-25T08:55:33.000Z</time>
</trkpt>
<trkpt lat="46.1156050" lon="10.4802280">
	<ele>2000.00</ele>
	<time>2024-07-25T08:55:34.000Z</time>
</trkpt>
<trkpt lat="46.1156090" lon="10.4802490">
	<ele>2000.00</ele>
	<time>2024-07-25T08:55:35.000Z</time>
</trkpt>
<trkpt lat="46.1156150" lon="10.4802660">
	<ele>2000.00</ele>
	<time>2024-07-25T08:55:36.000Z</time>
</trkpt>
<trkpt lat="46.1156210" lon="10.4802870">
	<ele>2000.00</ele>
	<time>2024-07-25T08:55:37.000Z</time>
</trkpt>
<trkpt lat="46.1156250" lon="10.4803080">
	<ele>2000.20</ele>
	<time>2024-07-25T08:55:38.000Z</time>
</trkpt>
<trkpt lat="46.1156250" lon="10.4803260">
	<ele>2000.40</ele>
	<time>2024-07-25T08:55:39.000Z</time>
</trkpt>
<trkpt lat="46.1156240" lon="10.4803440">
	<ele>2000.40</ele>
	<time>2024-07-25T08:55:40.000Z</time>
</trkpt>
<trkpt lat="46.1156200" lon="10.4803610">
	<ele>2000.40</ele>
	<time>2024-07-25T08:55:41.000Z</time>
</trkpt>
<trkpt lat="46.1156150" lon="10.4803800">
	<ele>2000.40</ele>
	<time>2024-07-25T08:55:42.000Z</time>
</trkpt>
<trkpt lat="46.1156110" lon="10.4804010">
	<ele>2000.20</ele>
	<time>2024-07-25T08:55:43.000Z</time>
</trkpt>
<trkpt lat="46.1156080" lon="10.4804210">
	<ele>2000.20</ele>
	<time>2024-07-25T08:55:44.000Z</time>
</trkpt>
<trkpt lat="46.1156100" lon="10.4804350">
	<ele>2000.00</ele>
	<time>2024-07-25T08:55:45.000Z</time>
</trkpt>
<trkpt lat="46.1156120" lon="10.4804540">
	<ele>1999.80</ele>
	<time>2024-07-25T08:55:46.000Z</time>
</trkpt>
<trkpt lat="46.1156130" lon="10.4804740">
	<ele>1999.80</ele>
	<time>2024-07-25T08:55:47.000Z</time>
</trkpt>
<trkpt lat="46.1156130" lon="10.4804890">
	<ele>1999.60</ele>
	<time>2024-07-25T08:55:48.000Z</time>
</trkpt>
<trkpt lat="46.1156050" lon="10.4805030">
	<ele>1999.60</ele>
	<time>2024-07-25T08:55:49.000Z</time>
</trkpt>
<trkpt lat="46.1155970" lon="10.4805200">
	<ele>1999.60</ele>
	<time>2024-07-25T08:55:50.000Z</time>
</trkpt>
<trkpt lat="46.1155980" lon="10.4805410">
	<ele>1999.60</ele>
	<time>2024-07-25T08:55:51.000Z</time>
</trkpt>
<trkpt lat="46.1156040" lon="10.4805610">
	<ele>1999.80</ele>
	<time>2024-07-25T08:55:52.000Z</time>
</trkpt>
<trkpt lat="46.1156110" lon="10.4805900">
	<ele>1999.80</ele>
	<time>2024-07-25T08:55:53.000Z</time>
</trkpt>
<trkpt lat="46.1156110" lon="10.4806100">
	<ele>1999.80</ele>
	<time>2024-07-25T08:55:54.000Z</time>
</trkpt>
<trkpt lat="46.1156110" lon="10.4806280">
	<ele>1999.80</ele>
	<time>2024-07-25T08:55:55.000Z</time>
</trkpt>
<trkpt lat="46.1156130" lon="10.4806460">
	<ele>1999.80</ele>
	<time>2024-07-25T08:55:56.000Z</time>
</trkpt>
<trkpt lat="46.1156150" lon="10.4806660">
	<ele>2000.00</ele>
	<time>2024-07-25T08:55:57.000Z</time>
</trkpt>
<trkpt lat="46.1156170" lon="10.4806860">
	<ele>2000.00</ele>
	<time>2024-07-25T08:55:58.000Z</time>
</trkpt>
<trkpt lat="46.1156160" lon="10.4806980">
	<ele>2000.20</ele>
	<time>2024-07-25T08:55:59.000Z</time>
</trkpt>
<trkpt lat="46.1156200" lon="10.4807080">
	<ele>2000.20</ele>
	<time>2024-07-25T08:56:00.000Z</time>
</trkpt>
<trkpt lat="46.1156260" lon="10.4807200">
	<ele>2000.20</ele>
	<time>2024-07-25T08:56:01.000Z</time>
</trkpt>
<trkpt lat="46.1156370" lon="10.4807370">
	<ele>2000.20</ele>
	<time>2024-07-25T08:56:02.000Z</time>
</trkpt>
<trkpt lat="46.1156460" lon="10.4807500">
	<ele>2000.20</ele>
	<time>2024-07-25T08:56:03.000Z</time>
</trkpt>
<trkpt lat="46.1156550" lon="10.4807720">
	<ele>2000.00</ele>
	<time>2024-07-25T08:56:04.000Z</time>
</trkpt>
<trkpt lat="46.1156590" lon="10.4807890">
	<ele>2000.00</ele>
	<time>2024-07-25T08:56:05.000Z</time>
</trkpt>
<trkpt lat="46.1156650" lon="10.4808100">
	<ele>2000.00</ele>
	<time>2024-07-25T08:56:06.000Z</time>
</trkpt>
<trkpt lat="46.1156720" lon="10.4808300">
	<ele>2000.00</ele>
	<time>2024-07-25T08:56:07.000Z</time>
</trkpt>
<trkpt lat="46.1156760" lon="10.4808480">
	<ele>1999.80</ele>
	<time>2024-07-25T08:56:08.000Z</time>
</trkpt>
<trkpt lat="46.1156820" lon="10.4808660">
	<ele>1999.80</ele>
	<time>2024-07-25T08:56:09.000Z</time>
</trkpt>
<trkpt lat="46.1156910" lon="10.4808840">
	<ele>1999.60</ele>
	<time>2024-07-25T08:56:10.000Z</time>
</trkpt>
<trkpt lat="46.1156990" lon="10.4809040">
	<ele>1999.40</ele>
	<time>2024-07-25T08:56:11.000Z</time>
</trkpt>
<trkpt lat="46.1157050" lon="10.4809210">
	<ele>1999.40</ele>
	<time>2024-07-25T08:56:12.000Z</time>
</trkpt>
<trkpt lat="46.1157080" lon="10.4809340">
	<ele>1999.20</ele>
	<time>2024-07-25T08:56:13.000Z</time>
</trkpt>
<trkpt lat="46.1157120" lon="10.4809480">
	<ele>1999.20</ele>
	<time>2024-07-25T08:56:14.000Z</time>
</trkpt>
<trkpt lat="46.1157150" lon="10.4809570">
	<ele>1999.20</ele>
	<time>2024-07-25T08:56:15.000Z</time>
</trkpt>
<trkpt lat="46.1157200" lon="10.4809760">
	<ele>1999.00</ele>
	<time>2024-07-25T08:56:16.000Z</time>
</trkpt>
<trkpt lat="46.1157230" lon="10.4809930">
	<ele>1999.00</ele>
	<time>2024-07-25T08:56:17.000Z</time>
</trkpt>
<trkpt lat="46.1157240" lon="10.4810070">
	<ele>1998.80</ele>
	<time>2024-07-25T08:56:18.000Z</time>
</trkpt>
<trkpt lat="46.1157270" lon="10.4810200">
	<ele>1998.80</ele>
	<time>2024-07-25T08:56:19.000Z</time>
</trkpt>
<trkpt lat="46.1157320" lon="10.4810370">
	<ele>1998.80</ele>
	<time>2024-07-25T08:56:20.000Z</time>
</trkpt>
<trkpt lat="46.1157390" lon="10.4810530">
	<ele>1998.80</ele>
	<time>2024-07-25T08:56:21.000Z</time>
</trkpt>
<trkpt lat="46.1157450" lon="10.4810710">
	<ele>1998.80</ele>
	<time>2024-07-25T08:56:22.000Z</time>
</trkpt>
<trkpt lat="46.1157510" lon="10.4810900">
	<ele>1998.80</ele>
	<time>2024-07-25T08:56:23.000Z</time>
</trkpt>
<trkpt lat="46.1157550" lon="10.4811100">
	<ele>1998.60</ele>
	<time>2024-07-25T08:56:24.000Z</time>
</trkpt>
<trkpt lat="46.1157610" lon="10.4811290">
	<ele>1998.60</ele>
	<time>2024-07-25T08:56:25.000Z</time>
</trkpt>
<trkpt lat="46.1157660" lon="10.4811480">
	<ele>1998.60</ele>
	<time>2024-07-25T08:56:26.000Z</time>
</trkpt>
<trkpt lat="46.1157720" lon="10.4811640">
	<ele>1998.60</ele>
	<time>2024-07-25T08:56:27.000Z</time>
</trkpt>
<trkpt lat="46.1157760" lon="10.4811830">
	<ele>1998.60</ele>
	<time>2024-07-25T08:56:28.000Z</time>
</trkpt>
<trkpt lat="46.1157810" lon="10.4812010">
	<ele>1998.60</ele>
	<time>2024-07-25T08:56:29.000Z</time>
</trkpt>
<trkpt lat="46.1157860" lon="10.4812170">
	<ele>1998.80</ele>
	<time>2024-07-25T08:56:30.000Z</time>
</trkpt>
<trkpt lat="46.1157900" lon="10.4812290">
	<ele>1999.00</ele>
	<time>2024-07-25T08:56:31.000Z</time>
</trkpt>
<trkpt lat="46.1157920" lon="10.4812390">
	<ele>1999.00</ele>
	<time>2024-07-25T08:56:32.000Z</time>
</trkpt>
<trkpt lat="46.1157980" lon="10.4812530">
	<ele>1999.20</ele>
	<time>2024-07-25T08:56:33.000Z</time>
</trkpt>
<trkpt lat="46.1158020" lon="10.4812660">
	<ele>1999.60</ele>
	<time>2024-07-25T08:56:34.000Z</time>
</trkpt>
<trkpt lat="46.1158080" lon="10.4812800">
	<ele>1999.80</ele>
	<time>2024-07-25T08:56:35.000Z</time>
</trkpt>
<trkpt lat="46.1158110" lon="10.4812920">
	<ele>2000.20</ele>
	<time>2024-07-25T08:56:36.000Z</time>
</trkpt>
<trkpt lat="46.1158150" lon="10.4813030">
	<ele>2000.40</ele>
	<time>2024-07-25T08:56:37.000Z</time>
</trkpt>
<trkpt lat="46.1158200" lon="10.4813070">
	<ele>2000.60</ele>
	<time>2024-07-25T08:56:38.000Z</time>
</trkpt>
<trkpt lat="46.1158220" lon="10.4813080">
	<ele>2000.60</ele>
	<time>2024-07-25T08:56:39.000Z</time>
</trkpt>
<trkpt lat="46.1158200" lon="10.4813080">
	<ele>2000.80</ele>
	<time>2024-07-25T08:56:40.000Z</time>
</trkpt>
<trkpt lat="46.1158180" lon="10.4813090">
	<ele>2001.00</ele>
	<time>2024-07-25T08:56:41.000Z</time>
</trkpt>
<trkpt lat="46.1158170" lon="10.4813100">
	<ele>2001.00</ele>
	<time>2024-07-25T08:56:42.000Z</time>
</trkpt>
<trkpt lat="46.1158170" lon="10.4813110">
	<ele>2001.00</ele>
	<time>2024-07-25T08:56:43.000Z</time>
</trkpt>
<trkpt lat="46.1158130" lon="10.4813070">
	<ele>2001.00</ele>
	<time>2024-07-25T08:56:44.000Z</time>
</trkpt>
<trkpt lat="46.1158130" lon="10.4813030">
	<ele>2000.80</ele>
	<time>2024-07-25T08:56:45.000Z</time>
</trkpt>
<trkpt lat="46.1158120" lon="10.4813040">
	<ele>2000.80</ele>
	<time>2024-07-25T08:56:46.000Z</time>
</trkpt>
<trkpt lat="46.1158120" lon="10.4813040">
	<ele>2000.80</ele>
	<time>2024-07-25T08:56:47.000Z</time>
</trkpt>
<trkpt lat="46.1158180" lon="10.4813060">
	<ele>2000.00</ele>
	<time>2024-07-25T08:56:48.000Z</time>
</trkpt>
<trkpt lat="46.1158260" lon="10.4813140">
	<ele>2000.00</ele>
	<time>2024-07-25T08:56:49.000Z</time>
</trkpt>
<trkpt lat="46.1158320" lon="10.4813220">
	<ele>2000.00</ele>
	<time>2024-07-25T08:56:50.000Z</time>
</trkpt>
<trkpt lat="46.1158440" lon="10.4813290">
	<ele>2000.00</ele>
	<time>2024-07-25T08:56:51.000Z</time>
</trkpt>
<trkpt lat="46.1158550" lon="10.4813370">
	<ele>2000.00</ele>
	<time>2024-07-25T08:56:52.000Z</time>
</trkpt>
<trkpt lat="46.1158640" lon="10.4813450">
	<ele>2000.00</ele>
	<time>2024-07-25T08:56:53.000Z</time>
</trkpt>
<trkpt lat="46.1158740" lon="10.4813530">
	<ele>2000.00</ele>
	<time>2024-07-25T08:56:54.000Z</time>
</trkpt>
<trkpt lat="46.1158820" lon="10.4813640">
	<ele>2000.00</ele>
	<time>2024-07-25T08:56:55.000Z</time>
</trkpt>
<trkpt lat="46.1158900" lon="10.4813720">
	<ele>2000.00</ele>
	<time>2024-07-25T08:56:56.000Z</time>
</trkpt>
<trkpt lat="46.1158920" lon="10.4813720">
	<ele>2000.00</ele>
	<time>2024-07-25T08:56:57.000Z</time>
</trkpt>
<trkpt lat="46.1158990" lon="10.4813820">
	<ele>2000.00</ele>
	<time>2024-07-25T08:56:58.000Z</time>
</trkpt>
<trkpt lat="46.1159030" lon="10.4813890">
	<ele>2000.00</ele>
	<time>2024-07-25T08:56:59.000Z</time>
</trkpt>
<trkpt lat="46.1159110" lon="10.4814040">
	<ele>2000.40</ele>
	<time>2024-07-25T08:57:00.000Z</time>
</trkpt>
<trkpt lat="46.1159230" lon="10.4814180">
	<ele>2000.60</ele>
	<time>2024-07-25T08:57:01.000Z</time>
</trkpt>
<trkpt lat="46.1159340" lon="10.4814340">
	<ele>2000.60</ele>
	<time>2024-07-25T08:57:02.000Z</time>
</trkpt>
<trkpt lat="46.1159420" lon="10.4814510">
	<ele>2000.80</ele>
	<time>2024-07-25T08:57:03.000Z</time>
</trkpt>
<trkpt lat="46.1159540" lon="10.4814700">
	<ele>2000.80</ele>
	<time>2024-07-25T08:57:04.000Z</time>
</trkpt>
<trkpt lat="46.1159630" lon="10.4814790">
	<ele>2000.80</ele>
	<time>2024-07-25T08:57:05.000Z</time>
</trkpt>
<trkpt lat="46.1159730" lon="10.4814890">
	<ele>2000.80</ele>
	<time>2024-07-25T08:57:06.000Z</time>
</trkpt>
<trkpt lat="46.1159830" lon="10.4814980">
	<ele>2000.80</ele>
	<time>2024-07-25T08:57:07.000Z</time>
</trkpt>
<trkpt lat="46.1159900" lon="10.4815080">
	<ele>2000.80</ele>
	<time>2024-07-25T08:57:08.000Z</time>
</trkpt>
<trkpt lat="46.1159960" lon="10.4815170">
	<ele>2000.80</ele>
	<time>2024-07-25T08:57:09.000Z</time>
</trkpt>
<trkpt lat="46.1160050" lon="10.4815200">
	<ele>2001.00</ele>
	<time>2024-07-25T08:57:10.000Z</time>
</trkpt>
<trkpt lat="46.1160140" lon="10.4815300">
	<ele>2001.00</ele>
	<time>2024-07-25T08:57:11.000Z</time>
</trkpt>
<trkpt lat="46.1160260" lon="10.4815450">
	<ele>2001.00</ele>
	<time>2024-07-25T08:57:12.000Z</time>
</trkpt>
<trkpt lat="46.1160370" lon="10.4815620">
	<ele>2001.00</ele>
	<time>2024-07-25T08:57:13.000Z</time>
</trkpt>
<trkpt lat="46.1160480" lon="10.4815800">
	<ele>2001.00</ele>
	<time>2024-07-25T08:57:14.000Z</time>
</trkpt>
<trkpt lat="46.1160620" lon="10.4816030">
	<ele>2001.00</ele>
	<time>2024-07-25T08:57:15.000Z</time>
</trkpt>
<trkpt lat="46.1160710" lon="10.4816180">
	<ele>2001.00</ele>
	<time>2024-07-25T08:57:16.000Z</time>
</trkpt>
<trkpt lat="46.1160800" lon="10.4816350">
	<ele>2001.00</ele>
	<time>2024-07-25T08:57:17.000Z</time>
</trkpt>
<trkpt lat="46.1160900" lon="10.4816520">
	<ele>2001.00</ele>
	<time>2024-07-25T08:57:18.000Z</time>
</trkpt>
<trkpt lat="46.1160960" lon="10.4816690">
	<ele>2001.00</ele>
	<time>2024-07-25T08:57:19.000Z</time>
</trkpt>
<trkpt lat="46.1161040" lon="10.4816820">
	<ele>2001.00</ele>
	<time>2024-07-25T08:57:20.000Z</time>
</trkpt>
<trkpt lat="46.1161130" lon="10.4816910">
	<ele>2001.00</ele>
	<time>2024-07-25T08:57:21.000Z</time>
</trkpt>
<trkpt lat="46.1161200" lon="10.4817010">
	<ele>2001.00</ele>
	<time>2024-07-25T08:57:22.000Z</time>
</trkpt>
<trkpt lat="46.1161290" lon="10.4817150">
	<ele>2001.00</ele>
	<time>2024-07-25T08:57:23.000Z</time>
</trkpt>
<trkpt lat="46.1161370" lon="10.4817320">
	<ele>2001.00</ele>
	<time>2024-07-25T08:57:24.000Z</time>
</trkpt>
<trkpt lat="46.1161390" lon="10.4817440">
	<ele>2001.00</ele>
	<time>2024-07-25T08:57:25.000Z</time>
</trkpt>
<trkpt lat="46.1161460" lon="10.4817610">
	<ele>2001.00</ele>
	<time>2024-07-25T08:57:26.000Z</time>
</trkpt>
<trkpt lat="46.1161530" lon="10.4817760">
	<ele>2001.00</ele>
	<time>2024-07-25T08:57:27.000Z</time>
</trkpt>
<trkpt lat="46.1161540" lon="10.4817940">
	<ele>2001.00</ele>
	<time>2024-07-25T08:57:28.000Z</time>
</trkpt>
<trkpt lat="46.1161560" lon="10.4818110">
	<ele>2001.00</ele>
	<time>2024-07-25T08:57:29.000Z</time>
</trkpt>
<trkpt lat="46.1161580" lon="10.4818320">
	<ele>2001.00</ele>
	<time>2024-07-25T08:57:30.000Z</time>
</trkpt>
<trkpt lat="46.1161600" lon="10.4818490">
	<ele>2001.00</ele>
	<time>2024-07-25T08:57:31.000Z</time>
</trkpt>
<trkpt lat="46.1161620" lon="10.4818650">
	<ele>2001.00</ele>
	<time>2024-07-25T08:57:32.000Z</time>
</trkpt>
<trkpt lat="46.1161630" lon="10.4818790">
	<ele>2001.00</ele>
	<time>2024-07-25T08:57:33.000Z</time>
</trkpt>
<trkpt lat="46.1161650" lon="10.4818980">
	<ele>2001.00</ele>
	<time>2024-07-25T08:57:34.000Z</time>
</trkpt>
<trkpt lat="46.1161660" lon="10.4819170">
	<ele>2001.00</ele>
	<time>2024-07-25T08:57:35.000Z</time>
</trkpt>
<trkpt lat="46.1161670" lon="10.4819360">
	<ele>2001.00</ele>
	<time>2024-07-25T08:57:36.000Z</time>
</trkpt>
<trkpt lat="46.1161680" lon="10.4819620">
	<ele>2001.00</ele>
	<time>2024-07-25T08:57:37.000Z</time>
</trkpt>
<trkpt lat="46.1161700" lon="10.4819780">
	<ele>2001.00</ele>
	<time>2024-07-25T08:57:38.000Z</time>
</trkpt>
<trkpt lat="46.1161720" lon="10.4819970">
	<ele>2001.00</ele>
	<time>2024-07-25T08:57:39.000Z</time>
</trkpt>
<trkpt lat="46.1161720" lon="10.4820190">
	<ele>2001.00</ele>
	<time>2024-07-25T08:57:40.000Z</time>
</trkpt>
<trkpt lat="46.1161730" lon="10.4820390">
	<ele>2001.00</ele>
	<time>2024-07-25T08:57:41.000Z</time>
</trkpt>
<trkpt lat="46.1161740" lon="10.4820580">
	<ele>2001.00</ele>
	<time>2024-07-25T08:57:42.000Z</time>
</trkpt>
<trkpt lat="46.1161740" lon="10.4820700">
	<ele>2001.00</ele>
	<time>2024-07-25T08:57:43.000Z</time>
</trkpt>
<trkpt lat="46.1161760" lon="10.4820870">
	<ele>2001.00</ele>
	<time>2024-07-25T08:57:44.000Z</time>
</trkpt>
<trkpt lat="46.1161770" lon="10.4821030">
	<ele>2001.00</ele>
	<time>2024-07-25T08:57:45.000Z</time>
</trkpt>
<trkpt lat="46.1161790" lon="10.4821200">
	<ele>2001.00</ele>
	<time>2024-07-25T08:57:46.000Z</time>
</trkpt>
<trkpt lat="46.1161780" lon="10.4821360">
	<ele>2001.00</ele>
	<time>2024-07-25T08:57:47.000Z</time>
</trkpt>
<trkpt lat="46.1161770" lon="10.4821550">
	<ele>2001.00</ele>
	<time>2024-07-25T08:57:48.000Z</time>
</trkpt>
<trkpt lat="46.1161760" lon="10.4821750">
	<ele>2001.00</ele>
	<time>2024-07-25T08:57:49.000Z</time>
</trkpt>
<trkpt lat="46.1161750" lon="10.4821960">
	<ele>2001.00</ele>
	<time>2024-07-25T08:57:50.000Z</time>
</trkpt>
<trkpt lat="46.1161720" lon="10.4822170">
	<ele>2001.00</ele>
	<time>2024-07-25T08:57:51.000Z</time>
</trkpt>
<trkpt lat="46.1161690" lon="10.4822370">
	<ele>2001.00</ele>
	<time>2024-07-25T08:57:52.000Z</time>
</trkpt>
<trkpt lat="46.1161680" lon="10.4822580">
	<ele>2001.20</ele>
	<time>2024-07-25T08:57:53.000Z</time>
</trkpt>
<trkpt lat="46.1161660" lon="10.4822770">
	<ele>2001.20</ele>
	<time>2024-07-25T08:57:54.000Z</time>
</trkpt>
<trkpt lat="46.1161620" lon="10.4822990">
	<ele>2001.20</ele>
	<time>2024-07-25T08:57:55.000Z</time>
</trkpt>
<trkpt lat="46.1161580" lon="10.4823130">
	<ele>2001.20</ele>
	<time>2024-07-25T08:57:56.000Z</time>
</trkpt>
<trkpt lat="46.1161570" lon="10.4823290">
	<ele>2001.20</ele>
	<time>2024-07-25T08:57:57.000Z</time>
</trkpt>
<trkpt lat="46.1161560" lon="10.4823470">
	<ele>2001.20</ele>
	<time>2024-07-25T08:57:58.000Z</time>
</trkpt>
<trkpt lat="46.1161560" lon="10.4823670">
	<ele>2001.20</ele>
	<time>2024-07-25T08:57:59.000Z</time>
</trkpt>
<trkpt lat="46.1161560" lon="10.4823860">
	<ele>2001.20</ele>
	<time>2024-07-25T08:58:00.000Z</time>
</trkpt>
<trkpt lat="46.1161530" lon="10.4824050">
	<ele>2001.20</ele>
	<time>2024-07-25T08:58:01.000Z</time>
</trkpt>
<trkpt lat="46.1161510" lon="10.4824270">
	<ele>2001.20</ele>
	<time>2024-07-25T08:58:02.000Z</time>
</trkpt>
<trkpt lat="46.1161500" lon="10.4824400">
	<ele>2001.20</ele>
	<time>2024-07-25T08:58:03.000Z</time>
</trkpt>
<trkpt lat="46.1161500" lon="10.4824610">
	<ele>2001.20</ele>
	<time>2024-07-25T08:58:04.000Z</time>
</trkpt>
<trkpt lat="46.1161470" lon="10.4824820">
	<ele>2001.20</ele>
	<time>2024-07-25T08:58:05.000Z</time>
</trkpt>
<trkpt lat="46.1161460" lon="10.4825000">
	<ele>2001.20</ele>
	<time>2024-07-25T08:58:06.000Z</time>
</trkpt>
<trkpt lat="46.1161460" lon="10.4825190">
	<ele>2001.20</ele>
	<time>2024-07-25T08:58:07.000Z</time>
</trkpt>
<trkpt lat="46.1161480" lon="10.4825370">
	<ele>2001.20</ele>
	<time>2024-07-25T08:58:08.000Z</time>
</trkpt>
<trkpt lat="46.1161520" lon="10.4825550">
	<ele>2001.20</ele>
	<time>2024-07-25T08:58:09.000Z</time>
</trkpt>
<trkpt lat="46.1161570" lon="10.4825730">
	<ele>2001.20</ele>
	<time>2024-07-25T08:58:10.000Z</time>
</trkpt>
<trkpt lat="46.1161610" lon="10.4825930">
	<ele>2001.20</ele>
	<time>2024-07-25T08:58:11.000Z</time>
</trkpt>
<trkpt lat="46.1161640" lon="10.4826120">
	<ele>2001.20</ele>
	<time>2024-07-25T08:58:12.000Z</time>
</trkpt>
<trkpt lat="46.1161660" lon="10.4826280">
	<ele>2001.20</ele>
	<time>2024-07-25T08:58:13.000Z</time>
</trkpt>
<trkpt lat="46.1161680" lon="10.4826450">
	<ele>2001.20</ele>
	<time>2024-07-25T08:58:14.000Z</time>
</trkpt>
<trkpt lat="46.1161710" lon="10.4826640">
	<ele>2001.20</ele>
	<time>2024-07-25T08:58:15.000Z</time>
</trkpt>
<trkpt lat="46.1161730" lon="10.4826820">
	<ele>2001.40</ele>
	<time>2024-07-25T08:58:16.000Z</time>
</trkpt>
<trkpt lat="46.1161740" lon="10.4827000">
	<ele>2001.40</ele>
	<time>2024-07-25T08:58:17.000Z</time>
</trkpt>
<trkpt lat="46.1161760" lon="10.4827210">
	<ele>2001.40</ele>
	<time>2024-07-25T08:58:18.000Z</time>
</trkpt>
<trkpt lat="46.1161790" lon="10.4827400">
	<ele>2001.40</ele>
	<time>2024-07-25T08:58:19.000Z</time>
</trkpt>
<trkpt lat="46.1161830" lon="10.4827550">
	<ele>2001.40</ele>
	<time>2024-07-25T08:58:20.000Z</time>
</trkpt>
<trkpt lat="46.1161880" lon="10.4827800">
	<ele>2001.40</ele>
	<time>2024-07-25T08:58:21.000Z</time>
</trkpt>
<trkpt lat="46.1161930" lon="10.4827990">
	<ele>2001.40</ele>
	<time>2024-07-25T08:58:22.000Z</time>
</trkpt>
<trkpt lat="46.1161950" lon="10.4828170">
	<ele>2001.40</ele>
	<time>2024-07-25T08:58:23.000Z</time>
</trkpt>
<trkpt lat="46.1161940" lon="10.4828320">
	<ele>2001.40</ele>
	<time>2024-07-25T08:58:24.000Z</time>
</trkpt>
<trkpt lat="46.1161920" lon="10.4828470">
	<ele>2001.40</ele>
	<time>2024-07-25T08:58:25.000Z</time>
</trkpt>
<trkpt lat="46.1161920" lon="10.4828640">
	<ele>2001.20</ele>
	<time>2024-07-25T08:58:26.000Z</time>
</trkpt>
<trkpt lat="46.1161920" lon="10.4828830">
	<ele>2001.20</ele>
	<time>2024-07-25T08:58:27.000Z</time>
</trkpt>
<trkpt lat="46.1161930" lon="10.4829010">
	<ele>2001.20</ele>
	<time>2024-07-25T08:58:28.000Z</time>
</trkpt>
<trkpt lat="46.1161950" lon="10.4829180">
	<ele>2001.00</ele>
	<time>2024-07-25T08:58:29.000Z</time>
</trkpt>
<trkpt lat="46.1161970" lon="10.4829360">
	<ele>2001.00</ele>
	<time>2024-07-25T08:58:30.000Z</time>
</trkpt>
<trkpt lat="46.1161980" lon="10.4829550">
	<ele>2001.20</ele>
	<time>2024-07-25T08:58:31.000Z</time>
</trkpt>
<trkpt lat="46.1161970" lon="10.4829750">
	<ele>2001.20</ele>
	<time>2024-07-25T08:58:32.000Z</time>
</trkpt>
<trkpt lat="46.1161950" lon="10.4829950">
	<ele>2001.40</ele>
	<time>2024-07-25T08:58:33.000Z</time>
</trkpt>
<trkpt lat="46.1161940" lon="10.4830160">
	<ele>2001.40</ele>
	<time>2024-07-25T08:58:34.000Z</time>
</trkpt>
<trkpt lat="46.1161960" lon="10.4830350">
	<ele>2001.40</ele>
	<time>2024-07-25T08:58:35.000Z</time>
</trkpt>
<trkpt lat="46.1161980" lon="10.4830540">
	<ele>2001.60</ele>
	<time>2024-07-25T08:58:36.000Z</time>
</trkpt>
<trkpt lat="46.1161990" lon="10.4830710">
	<ele>2001.60</ele>
	<time>2024-07-25T08:58:37.000Z</time>
</trkpt>
<trkpt lat="46.1161990" lon="10.4830860">
	<ele>2001.80</ele>
	<time>2024-07-25T08:58:38.000Z</time>
</trkpt>
<trkpt lat="46.1162030" lon="10.4831030">
	<ele>2001.80</ele>
	<time>2024-07-25T08:58:39.000Z</time>
</trkpt>
<trkpt lat="46.1162050" lon="10.4831220">
	<ele>2001.80</ele>
	<time>2024-07-25T08:58:40.000Z</time>
</trkpt>
<trkpt lat="46.1162050" lon="10.4831390">
	<ele>2001.80</ele>
	<time>2024-07-25T08:58:41.000Z</time>
</trkpt>
<trkpt lat="46.1162040" lon="10.4831540">
	<ele>2001.80</ele>
	<time>2024-07-25T08:58:42.000Z</time>
</trkpt>
<trkpt lat="46.1162050" lon="10.4831770">
	<ele>2001.80</ele>
	<time>2024-07-25T08:58:43.000Z</time>
</trkpt>
<trkpt lat="46.1162010" lon="10.4831930">
	<ele>2001.80</ele>
	<time>2024-07-25T08:58:44.000Z</time>
</trkpt>
<trkpt lat="46.1161960" lon="10.4832110">
	<ele>2001.80</ele>
	<time>2024-07-25T08:58:45.000Z</time>
</trkpt>
<trkpt lat="46.1161940" lon="10.4832290">
	<ele>2002.00</ele>
	<time>2024-07-25T08:58:46.000Z</time>
</trkpt>
<trkpt lat="46.1161940" lon="10.4832470">
	<ele>2002.00</ele>
	<time>2024-07-25T08:58:47.000Z</time>
</trkpt>
<trkpt lat="46.1161940" lon="10.4832630">
	<ele>2002.00</ele>
	<time>2024-07-25T08:58:48.000Z</time>
</trkpt>
<trkpt lat="46.1161970" lon="10.4832780">
	<ele>2002.00</ele>
	<time>2024-07-25T08:58:49.000Z</time>
</trkpt>
<trkpt lat="46.1161990" lon="10.4832930">
	<ele>2002.00</ele>
	<time>2024-07-25T08:58:50.000Z</time>
</trkpt>
<trkpt lat="46.1162000" lon="10.4833080">
	<ele>2002.00</ele>
	<time>2024-07-25T08:58:51.000Z</time>
</trkpt>
<trkpt lat="46.1162000" lon="10.4833260">
	<ele>2002.00</ele>
	<time>2024-07-25T08:58:52.000Z</time>
</trkpt>
<trkpt lat="46.1162010" lon="10.4833480">
	<ele>2002.00</ele>
	<time>2024-07-25T08:58:53.000Z</time>
</trkpt>
<trkpt lat="46.1161990" lon="10.4833680">
	<ele>2002.00</ele>
	<time>2024-07-25T08:58:54.000Z</time>
</trkpt>
<trkpt lat="46.1161990" lon="10.4833880">
	<ele>2002.20</ele>
	<time>2024-07-25T08:58:55.000Z</time>
</trkpt>
<trkpt lat="46.1161990" lon="10.4834080">
	<ele>2002.40</ele>
	<time>2024-07-25T08:58:56.000Z</time>
</trkpt>
<trkpt lat="46.1161970" lon="10.4834280">
	<ele>2002.40</ele>
	<time>2024-07-25T08:58:57.000Z</time>
</trkpt>
<trkpt lat="46.1161970" lon="10.4834460">
	<ele>2002.60</ele>
	<time>2024-07-25T08:58:58.000Z</time>
</trkpt>
<trkpt lat="46.1161980" lon="10.4834620">
	<ele>2002.80</ele>
	<time>2024-07-25T08:58:59.000Z</time>
</trkpt>
<trkpt lat="46.1162000" lon="10.4834760">
	<ele>2002.80</ele>
	<time>2024-07-25T08:59:00.000Z</time>
</trkpt>
<trkpt lat="46.1162040" lon="10.4834890">
	<ele>2003.00</ele>
	<time>2024-07-25T08:59:01.000Z</time>
</trkpt>
<trkpt lat="46.1162090" lon="10.4835060">
	<ele>2003.00</ele>
	<time>2024-07-25T08:59:02.000Z</time>
</trkpt>
<trkpt lat="46.1162170" lon="10.4835260">
	<ele>2003.00</ele>
	<time>2024-07-25T08:59:03.000Z</time>
</trkpt>
<trkpt lat="46.1162260" lon="10.4835490">
	<ele>2003.00</ele>
	<time>2024-07-25T08:59:04.000Z</time>
</trkpt>
<trkpt lat="46.1162290" lon="10.4835630">
	<ele>2003.00</ele>
	<time>2024-07-25T08:59:05.000Z</time>
</trkpt>
<trkpt lat="46.1162330" lon="10.4835830">
	<ele>2003.00</ele>
	<time>2024-07-25T08:59:06.000Z</time>
</trkpt>
<trkpt lat="46.1162380" lon="10.4835990">
	<ele>2003.00</ele>
	<time>2024-07-25T08:59:07.000Z</time>
</trkpt>
<trkpt lat="46.1162420" lon="10.4836140">
	<ele>2003.00</ele>
	<time>2024-07-25T08:59:08.000Z</time>
</trkpt>
<trkpt lat="46.1162480" lon="10.4836290">
	<ele>2003.20</ele>
	<time>2024-07-25T08:59:09.000Z</time>
</trkpt>
<trkpt lat="46.1162540" lon="10.4836450">
	<ele>2003.00</ele>
	<time>2024-07-25T08:59:10.000Z</time>
</trkpt>
<trkpt lat="46.1162600" lon="10.4836600">
	<ele>2003.00</ele>
	<time>2024-07-25T08:59:11.000Z</time>
</trkpt>
<trkpt lat="46.1162680" lon="10.4836740">
	<ele>2003.00</ele>
	<time>2024-07-25T08:59:12.000Z</time>
</trkpt>
<trkpt lat="46.1162780" lon="10.4836860">
	<ele>2003.00</ele>
	<time>2024-07-25T08:59:13.000Z</time>
</trkpt>
<trkpt lat="46.1162870" lon="10.4836980">
	<ele>2003.00</ele>
	<time>2024-07-25T08:59:14.000Z</time>
</trkpt>
<trkpt lat="46.1163010" lon="10.4837150">
	<ele>2003.00</ele>
	<time>2024-07-25T08:59:15.000Z</time>
</trkpt>
<trkpt lat="46.1163100" lon="10.4837300">
	<ele>2003.00</ele>
	<time>2024-07-25T08:59:16.000Z</time>
</trkpt>
<trkpt lat="46.1163170" lon="10.4837390">
	<ele>2003.00</ele>
	<time>2024-07-25T08:59:17.000Z</time>
</trkpt>
<trkpt lat="46.1163240" lon="10.4837460">
	<ele>2003.00</ele>
	<time>2024-07-25T08:59:18.000Z</time>
</trkpt>
<trkpt lat="46.1163320" lon="10.4837560">
	<ele>2003.00</ele>
	<time>2024-07-25T08:59:19.000Z</time>
</trkpt>
<trkpt lat="46.1163410" lon="10.4837610">
	<ele>2003.00</ele>
	<time>2024-07-25T08:59:20.000Z</time>
</trkpt>
<trkpt lat="46.1163510" lon="10.4837680">
	<ele>2003.00</ele>
	<time>2024-07-25T08:59:21.000Z</time>
</trkpt>
<trkpt lat="46.1163620" lon="10.4837800">
	<ele>2003.00</ele>
	<time>2024-07-25T08:59:22.000Z</time>
</trkpt>
<trkpt lat="46.1163770" lon="10.4837870">
	<ele>2003.00</ele>
	<time>2024-07-25T08:59:23.000Z</time>
</trkpt>
<trkpt lat="46.1163880" lon="10.4837940">
	<ele>2003.00</ele>
	<time>2024-07-25T08:59:24.000Z</time>
</trkpt>
<trkpt lat="46.1163900" lon="10.4837980">
	<ele>2003.00</ele>
	<time>2024-07-25T08:59:25.000Z</time>
</trkpt>
<trkpt lat="46.1163930" lon="10.4838020">
	<ele>2003.00</ele>
	<time>2024-07-25T08:59:26.000Z</time>
</trkpt>
<trkpt lat="46.1163940" lon="10.4838040">
	<ele>2003.00</ele>
	<time>2024-07-25T08:59:27.000Z</time>
</trkpt>
<trkpt lat="46.1163950" lon="10.4838050">
	<ele>2003.00</ele>
	<time>2024-07-25T08:59:28.000Z</time>
</trkpt>
<trkpt lat="46.1163960" lon="10.4838050">
	<ele>2003.00</ele>
	<time>2024-07-25T08:59:29.000Z</time>
</trkpt>
<trkpt lat="46.1163970" lon="10.4838050">
	<ele>2003.00</ele>
	<time>2024-07-25T08:59:30.000Z</time>
</trkpt>
<trkpt lat="46.1163990" lon="10.4838060">
	<ele>2003.00</ele>
	<time>2024-07-25T08:59:31.000Z</time>
</trkpt>
<trkpt lat="46.1164000" lon="10.4838070">
	<ele>2003.00</ele>
	<time>2024-07-25T08:59:32.000Z</time>
</trkpt>
<trkpt lat="46.1163990" lon="10.4838070">
	<ele>2003.20</ele>
	<time>2024-07-25T08:59:33.000Z</time>
</trkpt>
<trkpt lat="46.1163990" lon="10.4838060">
	<ele>2003.20</ele>
	<time>2024-07-25T08:59:34.000Z</time>
</trkpt>
<trkpt lat="46.1163990" lon="10.4838050">
	<ele>2003.20</ele>
	<time>2024-07-25T08:59:35.000Z</time>
</trkpt>
<trkpt lat="46.1163980" lon="10.4838030">
	<ele>2003.20</ele>
	<time>2024-07-25T08:59:36.000Z</time>
</trkpt>
<trkpt lat="46.1163970" lon="10.4838020">
	<ele>2003.20</ele>
	<time>2024-07-25T08:59:37.000Z</time>
</trkpt>
<trkpt lat="46.1163980" lon="10.4838020">
	<ele>2003.20</ele>
	<time>2024-07-25T08:59:38.000Z</time>
</trkpt>
<trkpt lat="46.1163980" lon="10.4838030">
	<ele>2003.20</ele>
	<time>2024-07-25T08:59:39.000Z</time>
</trkpt>
<trkpt lat="46.1163960" lon="10.4838040">
	<ele>2003.20</ele>
	<time>2024-07-25T08:59:40.000Z</time>
</trkpt>
<trkpt lat="46.1163960" lon="10.4838040">
	<ele>2003.20</ele>
	<time>2024-07-25T08:59:41.000Z</time>
</trkpt>
<trkpt lat="46.1163960" lon="10.4838040">
	<ele>2003.20</ele>
	<time>2024-07-25T08:59:42.000Z</time>
</trkpt>
<trkpt lat="46.1163960" lon="10.4838040">
	<ele>2003.20</ele>
	<time>2024-07-25T08:59:43.000Z</time>
</trkpt>
<trkpt lat="46.1163960" lon="10.4838040">
	<ele>2003.20</ele>
	<time>2024-07-25T08:59:44.000Z</time>
</trkpt>
<trkpt lat="46.1163960" lon="10.4838040">
	<ele>2003.20</ele>
	<time>2024-07-25T08:59:45.000Z</time>
</trkpt>
<trkpt lat="46.1163960" lon="10.4838040">
	<ele>2003.20</ele>
	<time>2024-07-25T08:59:46.000Z</time>
</trkpt>
<trkpt lat="46.1163960" lon="10.4838040">
	<ele>2003.20</ele>
	<time>2024-07-25T08:59:47.000Z</time>
</trkpt>
<trkpt lat="46.1163960" lon="10.4838040">
	<ele>2003.00</ele>
	<time>2024-07-25T08:59:48.000Z</time>
</trkpt>
<trkpt lat="46.1163980" lon="10.4838070">
	<ele>2003.00</ele>
	<time>2024-07-25T08:59:49.000Z</time>
</trkpt>
<trkpt lat="46.1164110" lon="10.4838150">
	<ele>2002.80</ele>
	<time>2024-07-25T08:59:50.000Z</time>
</trkpt>
<trkpt lat="46.1164270" lon="10.4838220">
	<ele>2002.80</ele>
	<time>2024-07-25T08:59:51.000Z</time>
</trkpt>
<trkpt lat="46.1164450" lon="10.4838270">
	<ele>2002.80</ele>
	<time>2024-07-25T08:59:52.000Z</time>
</trkpt>
<trkpt lat="46.1164600" lon="10.4838370">
	<ele>2002.80</ele>
	<time>2024-07-25T08:59:53.000Z</time>
</trkpt>
<trkpt lat="46.1164720" lon="10.4838460">
	<ele>2002.80</ele>
	<time>2024-07-25T08:59:54.000Z</time>
</trkpt>
<trkpt lat="46.1164900" lon="10.4838620">
	<ele>2002.80</ele>
	<time>2024-07-25T08:59:55.000Z</time>
</trkpt>
<trkpt lat="46.1165000" lon="10.4838710">
	<ele>2003.00</ele>
	<time>2024-07-25T08:59:56.000Z</time>
</trkpt>
<trkpt lat="46.1165140" lon="10.4838890">
	<ele>2003.00</ele>
	<time>2024-07-25T08:59:57.000Z</time>
</trkpt>
<trkpt lat="46.1165280" lon="10.4839060">
	<ele>2003.00</ele>
	<time>2024-07-25T08:59:58.000Z</time>
</trkpt>
<trkpt lat="46.1165350" lon="10.4839170">
	<ele>2003.20</ele>
	<time>2024-07-25T08:59:59.000Z</time>
</trkpt>
<trkpt lat="46.1165420" lon="10.4839270">
	<ele>2003.40</ele>
	<time>2024-07-25T09:00:00.000Z</time>
</trkpt>
<trkpt lat="46.1165480" lon="10.4839430">
	<ele>2003.40</ele>
	<time>2024-07-25T09:00:01.000Z</time>
</trkpt>
<trkpt lat="46.1165570" lon="10.4839600">
	<ele>2003.40</ele>
	<time>2024-07-25T09:00:02.000Z</time>
</trkpt>
<trkpt lat="46.1165660" lon="10.4839780">
	<ele>2003.40</ele>
	<time>2024-07-25T09:00:03.000Z</time>
</trkpt>
<trkpt lat="46.1165750" lon="10.4839910">
	<ele>2003.40</ele>
	<time>2024-07-25T09:00:04.000Z</time>
</trkpt>
<trkpt lat="46.1165820" lon="10.4840090">
	<ele>2003.40</ele>
	<time>2024-07-25T09:00:05.000Z</time>
</trkpt>
<trkpt lat="46.1165860" lon="10.4840250">
	<ele>2003.20</ele>
	<time>2024-07-25T09:00:06.000Z</time>
</trkpt>
<trkpt lat="46.1165920" lon="10.4840400">
	<ele>2003.20</ele>
	<time>2024-07-25T09:00:07.000Z</time>
</trkpt>
<trkpt lat="46.1165980" lon="10.4840550">
	<ele>2003.20</ele>
	<time>2024-07-25T09:00:08.000Z</time>
</trkpt>
<trkpt lat="46.1166050" lon="10.4840720">
	<ele>2003.20</ele>
	<time>2024-07-25T09:00:09.000Z</time>
</trkpt>
<trkpt lat="46.1166110" lon="10.4840830">
	<ele>2003.20</ele>
	<time>2024-07-25T09:00:10.000Z</time>
</trkpt>
<trkpt lat="46.1166180" lon="10.4841020">
	<ele>2003.20</ele>
	<time>2024-07-25T09:00:11.000Z</time>
</trkpt>
<trkpt lat="46.1166240" lon="10.4841150">
	<ele>2003.20</ele>
	<time>2024-07-25T09:00:12.000Z</time>
</trkpt>
<trkpt lat="46.1166310" lon="10.4841310">
	<ele>2003.20</ele>
	<time>2024-07-25T09:00:13.000Z</time>
</trkpt>
<trkpt lat="46.1166380" lon="10.4841510">
	<ele>2003.20</ele>
	<time>2024-07-25T09:00:14.000Z</time>
</trkpt>
<trkpt lat="46.1166410" lon="10.4841640">
	<ele>2003.00</ele>
	<time>2024-07-25T09:00:15.000Z</time>
</trkpt>
<trkpt lat="46.1166460" lon="10.4841830">
	<ele>2003.00</ele>
	<time>2024-07-25T09:00:16.000Z</time>
</trkpt>
<trkpt lat="46.1166500" lon="10.4842000">
	<ele>2003.00</ele>
	<time>2024-07-25T09:00:17.000Z</time>
</trkpt>
<trkpt lat="46.1166540" lon="10.4842200">
	<ele>2003.00</ele>
	<time>2024-07-25T09:00:18.000Z</time>
</trkpt>
<trkpt lat="46.1166580" lon="10.4842370">
	<ele>2003.00</ele>
	<time>2024-07-25T09:00:19.000Z</time>
</trkpt>
<trkpt lat="46.1166630" lon="10.4842550">
	<ele>2003.20</ele>
	<time>2024-07-25T09:00:20.000Z</time>
</trkpt>
<trkpt lat="46.1166650" lon="10.4842760">
	<ele>2003.20</ele>
	<time>2024-07-25T09:00:21.000Z</time>
</trkpt>
<trkpt lat="46.1166660" lon="10.4842940">
	<ele>2003.20</ele>
	<time>2024-07-25T09:00:22.000Z</time>
</trkpt>
<trkpt lat="46.1166650" lon="10.4843120">
	<ele>2003.20</ele>
	<time>2024-07-25T09:00:23.000Z</time>
</trkpt>
<trkpt lat="46.1166650" lon="10.4843310">
	<ele>2003.40</ele>
	<time>2024-07-25T09:00:24.000Z</time>
</trkpt>
<trkpt lat="46.1166630" lon="10.4843470">
	<ele>2003.40</ele>
	<time>2024-07-25T09:00:25.000Z</time>
</trkpt>
<trkpt lat="46.1166610" lon="10.4843630">
	<ele>2003.20</ele>
	<time>2024-07-25T09:00:26.000Z</time>
</trkpt>
<trkpt lat="46.1166630" lon="10.4843790">
	<ele>2003.40</ele>
	<time>2024-07-25T09:00:27.000Z</time>
</trkpt>
<trkpt lat="46.1166650" lon="10.4843980">
	<ele>2003.40</ele>
	<time>2024-07-25T09:00:28.000Z</time>
</trkpt>
<trkpt lat="46.1166640" lon="10.4844140">
	<ele>2003.20</ele>
	<time>2024-07-25T09:00:29.000Z</time>
</trkpt>
<trkpt lat="46.1166630" lon="10.4844320">
	<ele>2003.20</ele>
	<time>2024-07-25T09:00:30.000Z</time>
</trkpt>
<trkpt lat="46.1166610" lon="10.4844520">
	<ele>2003.20</ele>
	<time>2024-07-25T09:00:31.000Z</time>
</trkpt>
<trkpt lat="46.1166590" lon="10.4844710">
	<ele>2003.20</ele>
	<time>2024-07-25T09:00:32.000Z</time>
</trkpt>
<trkpt lat="46.1166570" lon="10.4844900">
	<ele>2003.20</ele>
	<time>2024-07-25T09:00:33.000Z</time>
</trkpt>
<trkpt lat="46.1166540" lon="10.4845100">
	<ele>2003.20</ele>
	<time>2024-07-25T09:00:34.000Z</time>
</trkpt>
<trkpt lat="46.1166500" lon="10.4845230">
	<ele>2003.20</ele>
	<time>2024-07-25T09:00:35.000Z</time>
</trkpt>
<trkpt lat="46.1166460" lon="10.4845390">
	<ele>2003.20</ele>
	<time>2024-07-25T09:00:36.000Z</time>
</trkpt>
<trkpt lat="46.1166400" lon="10.4845580">
	<ele>2003.20</ele>
	<time>2024-07-25T09:00:37.000Z</time>
</trkpt>
<trkpt lat="46.1166380" lon="10.4845710">
	<ele>2003.20</ele>
	<time>2024-07-25T09:00:38.000Z</time>
</trkpt>
<trkpt lat="46.1166380" lon="10.4845900">
	<ele>2003.20</ele>
	<time>2024-07-25T09:00:39.000Z</time>
</trkpt>
<trkpt lat="46.1166360" lon="10.4846040">
	<ele>2003.20</ele>
	<time>2024-07-25T09:00:40.000Z</time>
</trkpt>
<trkpt lat="46.1166290" lon="10.4846230">
	<ele>2003.20</ele>
	<time>2024-07-25T09:00:41.000Z</time>
</trkpt>
<trkpt lat="46.1166240" lon="10.4846440">
	<ele>2003.20</ele>
	<time>2024-07-25T09:00:42.000Z</time>
</trkpt>
<trkpt lat="46.1166200" lon="10.4846630">
	<ele>2003.20</ele>
	<time>2024-07-25T09:00:43.000Z</time>
</trkpt>
<trkpt lat="46.1166140" lon="10.4846780">
	<ele>2003.20</ele>
	<time>2024-07-25T09:00:44.000Z</time>
</trkpt>
<trkpt lat="46.1166050" lon="10.4846950">
	<ele>2003.20</ele>
	<time>2024-07-25T09:00:45.000Z</time>
</trkpt>
<trkpt lat="46.1166000" lon="10.4847110">
	<ele>2003.20</ele>
	<time>2024-07-25T09:00:46.000Z</time>
</trkpt>
<trkpt lat="46.1165970" lon="10.4847330">
	<ele>2003.20</ele>
	<time>2024-07-25T09:00:47.000Z</time>
</trkpt>
<trkpt lat="46.1165940" lon="10.4847540">
	<ele>2003.40</ele>
	<time>2024-07-25T09:00:48.000Z</time>
</trkpt>
<trkpt lat="46.1165890" lon="10.4847710">
	<ele>2003.40</ele>
	<time>2024-07-25T09:00:49.000Z</time>
</trkpt>
<trkpt lat="46.1165830" lon="10.4847880">
	<ele>2003.40</ele>
	<time>2024-07-25T09:00:50.000Z</time>
</trkpt>
<trkpt lat="46.1165800" lon="10.4848030">
	<ele>2003.40</ele>
	<time>2024-07-25T09:00:51.000Z</time>
</trkpt>
<trkpt lat="46.1165770" lon="10.4848180">
	<ele>2003.60</ele>
	<time>2024-07-25T09:00:52.000Z</time>
</trkpt>
<trkpt lat="46.1165720" lon="10.4848330">
	<ele>2003.60</ele>
	<time>2024-07-25T09:00:53.000Z</time>
</trkpt>
<trkpt lat="46.1165640" lon="10.4848470">
	<ele>2003.60</ele>
	<time>2024-07-25T09:00:54.000Z</time>
</trkpt>
<trkpt lat="46.1165590" lon="10.4848650">
	<ele>2003.60</ele>
	<time>2024-07-25T09:00:55.000Z</time>
</trkpt>
<trkpt lat="46.1165530" lon="10.4848830">
	<ele>2003.60</ele>
	<time>2024-07-25T09:00:56.000Z</time>
</trkpt>
<trkpt lat="46.1165470" lon="10.4849010">
	<ele>2003.60</ele>
	<time>2024-07-25T09:00:57.000Z</time>
</trkpt>
<trkpt lat="46.1165430" lon="10.4849150">
	<ele>2003.60</ele>
	<time>2024-07-25T09:00:58.000Z</time>
</trkpt>
<trkpt lat="46.1165380" lon="10.4849380">
	<ele>2003.60</ele>
	<time>2024-07-25T09:00:59.000Z</time>
</trkpt>
<trkpt lat="46.1165330" lon="10.4849540">
	<ele>2003.60</ele>
	<time>2024-07-25T09:01:00.000Z</time>
</trkpt>
<trkpt lat="46.1165300" lon="10.4849730">
	<ele>2003.80</ele>
	<time>2024-07-25T09:01:01.000Z</time>
</trkpt>
<trkpt lat="46.1165270" lon="10.4849890">
	<ele>2003.80</ele>
	<time>2024-07-25T09:01:02.000Z</time>
</trkpt>
<trkpt lat="46.1165240" lon="10.4850100">
	<ele>2003.80</ele>
	<time>2024-07-25T09:01:03.000Z</time>
</trkpt>
<trkpt lat="46.1165220" lon="10.4850330">
	<ele>2003.80</ele>
	<time>2024-07-25T09:01:04.000Z</time>
</trkpt>
<trkpt lat="46.1165230" lon="10.4850530">
	<ele>2003.80</ele>
	<time>2024-07-25T09:01:05.000Z</time>
</trkpt>
<trkpt lat="46.1165220" lon="10.4850720">
	<ele>2003.80</ele>
	<time>2024-07-25T09:01:06.000Z</time>
</trkpt>
<trkpt lat="46.1165180" lon="10.4850880">
	<ele>2003.80</ele>
	<time>2024-07-25T09:01:07.000Z</time>
</trkpt>
<trkpt lat="46.1165130" lon="10.4851030">
	<ele>2003.80</ele>
	<time>2024-07-25T09:01:08.000Z</time>
</trkpt>
<trkpt lat="46.1165110" lon="10.4851220">
	<ele>2003.80</ele>
	<time>2024-07-25T09:01:09.000Z</time>
</trkpt>
<trkpt lat="46.1165070" lon="10.4851410">
	<ele>2003.80</ele>
	<time>2024-07-25T09:01:10.000Z</time>
</trkpt>
<trkpt lat="46.1165040" lon="10.4851600">
	<ele>2003.80</ele>
	<time>2024-07-25T09:01:11.000Z</time>
</trkpt>
<trkpt lat="46.1164990" lon="10.4851740">
	<ele>2003.80</ele>
	<time>2024-07-25T09:01:12.000Z</time>
</trkpt>
<trkpt lat="46.1164940" lon="10.4851970">
	<ele>2003.80</ele>
	<time>2024-07-25T09:01:13.000Z</time>
</trkpt>
<trkpt lat="46.1164930" lon="10.4852150">
	<ele>2003.80</ele>
	<time>2024-07-25T09:01:14.000Z</time>
</trkpt>
<trkpt lat="46.1164880" lon="10.4852310">
	<ele>2003.80</ele>
	<time>2024-07-25T09:01:15.000Z</time>
</trkpt>
<trkpt lat="46.1164820" lon="10.4852460">
	<ele>2003.80</ele>
	<time>2024-07-25T09:01:16.000Z</time>
</trkpt>
<trkpt lat="46.1164780" lon="10.4852630">
	<ele>2003.80</ele>
	<time>2024-07-25T09:01:17.000Z</time>
</trkpt>
<trkpt lat="46.1164750" lon="10.4852780">
	<ele>2003.80</ele>
	<time>2024-07-25T09:01:18.000Z</time>
</trkpt>
<trkpt lat="46.1164690" lon="10.4852920">
	<ele>2003.80</ele>
	<time>2024-07-25T09:01:19.000Z</time>
</trkpt>
<trkpt lat="46.1164670" lon="10.4853120">
	<ele>2004.00</ele>
	<time>2024-07-25T09:01:20.000Z</time>
</trkpt>
<trkpt lat="46.1164660" lon="10.4853300">
	<ele>2004.20</ele>
	<time>2024-07-25T09:01:21.000Z</time>
</trkpt>
<trkpt lat="46.1164630" lon="10.4853490">
	<ele>2004.20</ele>
	<time>2024-07-25T09:01:22.000Z</time>
</trkpt>
<trkpt lat="46.1164580" lon="10.4853690">
	<ele>2004.40</ele>
	<time>2024-07-25T09:01:23.000Z</time>
</trkpt>
<trkpt lat="46.1164550" lon="10.4853820">
	<ele>2004.40</ele>
	<time>2024-07-25T09:01:24.000Z</time>
</trkpt>
<trkpt lat="46.1164500" lon="10.4853960">
	<ele>2004.40</ele>
	<time>2024-07-25T09:01:25.000Z</time>
</trkpt>
<trkpt lat="46.1164480" lon="10.4854160">
	<ele>2004.60</ele>
	<time>2024-07-25T09:01:26.000Z</time>
</trkpt>
<trkpt lat="46.1164450" lon="10.4854360">
	<ele>2004.60</ele>
	<time>2024-07-25T09:01:27.000Z</time>
</trkpt>
<trkpt lat="46.1164430" lon="10.4854560">
	<ele>2004.60</ele>
	<time>2024-07-25T09:01:28.000Z</time>
</trkpt>
<trkpt lat="46.1164430" lon="10.4854730">
	<ele>2004.60</ele>
	<time>2024-07-25T09:01:29.000Z</time>
</trkpt>
<trkpt lat="46.1164420" lon="10.4854900">
	<ele>2004.60</ele>
	<time>2024-07-25T09:01:30.000Z</time>
</trkpt>
<trkpt lat="46.1164400" lon="10.4855060">
	<ele>2004.60</ele>
	<time>2024-07-25T09:01:31.000Z</time>
</trkpt>
<trkpt lat="46.1164400" lon="10.4855230">
	<ele>2004.60</ele>
	<time>2024-07-25T09:01:32.000Z</time>
</trkpt>
<trkpt lat="46.1164410" lon="10.4855420">
	<ele>2004.80</ele>
	<time>2024-07-25T09:01:33.000Z</time>
</trkpt>
<trkpt lat="46.1164390" lon="10.4855610">
	<ele>2004.80</ele>
	<time>2024-07-25T09:01:34.000Z</time>
</trkpt>
<trkpt lat="46.1164360" lon="10.4855790">
	<ele>2004.80</ele>
	<time>2024-07-25T09:01:35.000Z</time>
</trkpt>
<trkpt lat="46.1164370" lon="10.4856010">
	<ele>2004.80</ele>
	<time>2024-07-25T09:01:36.000Z</time>
</trkpt>
<trkpt lat="46.1164400" lon="10.4856240">
	<ele>2004.80</ele>
	<time>2024-07-25T09:01:37.000Z</time>
</trkpt>
<trkpt lat="46.1164420" lon="10.4856450">
	<ele>2004.80</ele>
	<time>2024-07-25T09:01:38.000Z</time>
</trkpt>
<trkpt lat="46.1164430" lon="10.4856640">
	<ele>2004.80</ele>
	<time>2024-07-25T09:01:39.000Z</time>
</trkpt>
<trkpt lat="46.1164410" lon="10.4856800">
	<ele>2004.80</ele>
	<time>2024-07-25T09:01:40.000Z</time>
</trkpt>
<trkpt lat="46.1164440" lon="10.4856980">
	<ele>2004.60</ele>
	<time>2024-07-25T09:01:41.000Z</time>
</trkpt>
<trkpt lat="46.1164480" lon="10.4857160">
	<ele>2004.60</ele>
	<time>2024-07-25T09:01:42.000Z</time>
</trkpt>
<trkpt lat="46.1164510" lon="10.4857310">
	<ele>2004.60</ele>
	<time>2024-07-25T09:01:43.000Z</time>
</trkpt>
<trkpt lat="46.1164530" lon="10.4857440">
	<ele>2004.60</ele>
	<time>2024-07-25T09:01:44.000Z</time>
</trkpt>
<trkpt lat="46.1164510" lon="10.4857580">
	<ele>2004.60</ele>
	<time>2024-07-25T09:01:45.000Z</time>
</trkpt>
<trkpt lat="46.1164520" lon="10.4857730">
	<ele>2004.80</ele>
	<time>2024-07-25T09:01:46.000Z</time>
</trkpt>
<trkpt lat="46.1164520" lon="10.4857880">
	<ele>2004.80</ele>
	<time>2024-07-25T09:01:47.000Z</time>
</trkpt>
<trkpt lat="46.1164550" lon="10.4858050">
	<ele>2005.00</ele>
	<time>2024-07-25T09:01:48.000Z</time>
</trkpt>
<trkpt lat="46.1164580" lon="10.4858200">
	<ele>2005.00</ele>
	<time>2024-07-25T09:01:49.000Z</time>
</trkpt>
<trkpt lat="46.1164600" lon="10.4858340">
	<ele>2005.00</ele>
	<time>2024-07-25T09:01:50.000Z</time>
</trkpt>
<trkpt lat="46.1164620" lon="10.4858480">
	<ele>2004.80</ele>
	<time>2024-07-25T09:01:51.000Z</time>
</trkpt>
<trkpt lat="46.1164640" lon="10.4858590">
	<ele>2004.80</ele>
	<time>2024-07-25T09:01:52.000Z</time>
</trkpt>
<trkpt lat="46.1164680" lon="10.4858760">
	<ele>2004.80</ele>
	<time>2024-07-25T09:01:53.000Z</time>
</trkpt>
<trkpt lat="46.1164710" lon="10.4858880">
	<ele>2004.80</ele>
	<time>2024-07-25T09:01:54.000Z</time>
</trkpt>
<trkpt lat="46.1164730" lon="10.4859040">
	<ele>2004.80</ele>
	<time>2024-07-25T09:01:55.000Z</time>
</trkpt>
<trkpt lat="46.1164740" lon="10.4859210">
	<ele>2004.80</ele>
	<time>2024-07-25T09:01:56.000Z</time>
</trkpt>
<trkpt lat="46.1164730" lon="10.4859380">
	<ele>2004.80</ele>
	<time>2024-07-25T09:01:57.000Z</time>
</trkpt>
<trkpt lat="46.1164660" lon="10.4859530">
	<ele>2004.80</ele>
	<time>2024-07-25T09:01:58.000Z</time>
</trkpt>
<trkpt lat="46.1164600" lon="10.4859660">
	<ele>2004.60</ele>
	<time>2024-07-25T09:01:59.000Z</time>
</trkpt>
<trkpt lat="46.1164600" lon="10.4859810">
	<ele>2004.80</ele>
	<time>2024-07-25T09:02:00.000Z</time>
</trkpt>
<trkpt lat="46.1164590" lon="10.4859970">
	<ele>2004.80</ele>
	<time>2024-07-25T09:02:01.000Z</time>
</trkpt>
<trkpt lat="46.1164580" lon="10.4860100">
	<ele>2004.80</ele>
	<time>2024-07-25T09:02:02.000Z</time>
</trkpt>
<trkpt lat="46.1164590" lon="10.4860230">
	<ele>2004.80</ele>
	<time>2024-07-25T09:02:03.000Z</time>
</trkpt>
<trkpt lat="46.1164630" lon="10.4860390">
	<ele>2004.80</ele>
	<time>2024-07-25T09:02:04.000Z</time>
</trkpt>
<trkpt lat="46.1164620" lon="10.4860540">
	<ele>2004.80</ele>
	<time>2024-07-25T09:02:05.000Z</time>
</trkpt>
<trkpt lat="46.1164630" lon="10.4860700">
	<ele>2004.80</ele>
	<time>2024-07-25T09:02:06.000Z</time>
</trkpt>
<trkpt lat="46.1164620" lon="10.4860870">
	<ele>2004.80</ele>
	<time>2024-07-25T09:02:07.000Z</time>
</trkpt>
<trkpt lat="46.1164590" lon="10.4861020">
	<ele>2004.80</ele>
	<time>2024-07-25T09:02:08.000Z</time>
</trkpt>
<trkpt lat="46.1164530" lon="10.4861200">
	<ele>2004.80</ele>
	<time>2024-07-25T09:02:09.000Z</time>
</trkpt>
<trkpt lat="46.1164460" lon="10.4861360">
	<ele>2005.00</ele>
	<time>2024-07-25T09:02:10.000Z</time>
</trkpt>
<trkpt lat="46.1164420" lon="10.4861500">
	<ele>2005.00</ele>
	<time>2024-07-25T09:02:11.000Z</time>
</trkpt>
<trkpt lat="46.1164370" lon="10.4861640">
	<ele>2005.00</ele>
	<time>2024-07-25T09:02:12.000Z</time>
</trkpt>
<trkpt lat="46.1164310" lon="10.4861750">
	<ele>2005.00</ele>
	<time>2024-07-25T09:02:13.000Z</time>
</trkpt>
<trkpt lat="46.1164240" lon="10.4861860">
	<ele>2005.00</ele>
	<time>2024-07-25T09:02:14.000Z</time>
</trkpt>
<trkpt lat="46.1164150" lon="10.4861990">
	<ele>2005.00</ele>
	<time>2024-07-25T09:02:15.000Z</time>
</trkpt>
<trkpt lat="46.1164080" lon="10.4862110">
	<ele>2005.00</ele>
	<time>2024-07-25T09:02:16.000Z</time>
</trkpt>
<trkpt lat="46.1164030" lon="10.4862250">
	<ele>2005.00</ele>
	<time>2024-07-25T09:02:17.000Z</time>
</trkpt>
<trkpt lat="46.1164030" lon="10.4862400">
	<ele>2005.00</ele>
	<time>2024-07-25T09:02:18.000Z</time>
</trkpt>
<trkpt lat="46.1164020" lon="10.4862540">
	<ele>2005.00</ele>
	<time>2024-07-25T09:02:19.000Z</time>
</trkpt>
<trkpt lat="46.1163980" lon="10.4862680">
	<ele>2005.20</ele>
	<time>2024-07-25T09:02:20.000Z</time>
</trkpt>
<trkpt lat="46.1163920" lon="10.4862820">
	<ele>2005.20</ele>
	<time>2024-07-25T09:02:21.000Z</time>
</trkpt>
<trkpt lat="46.1163870" lon="10.4862960">
	<ele>2005.20</ele>
	<time>2024-07-25T09:02:22.000Z</time>
</trkpt>
<trkpt lat="46.1163770" lon="10.4863080">
	<ele>2005.20</ele>
	<time>2024-07-25T09:02:23.000Z</time>
</trkpt>
<trkpt lat="46.1163660" lon="10.4863210">
	<ele>2005.20</ele>
	<time>2024-07-25T09:02:24.000Z</time>
</trkpt>
<trkpt lat="46.1163590" lon="10.4863360">
	<ele>2005.20</ele>
	<time>2024-07-25T09:02:25.000Z</time>
</trkpt>
<trkpt lat="46.1163540" lon="10.4863520">
	<ele>2005.20</ele>
	<time>2024-07-25T09:02:26.000Z</time>
</trkpt>
<trkpt lat="46.1163440" lon="10.4863590">
	<ele>2005.20</ele>
	<time>2024-07-25T09:02:27.000Z</time>
</trkpt>
<trkpt lat="46.1163380" lon="10.4863730">
	<ele>2005.40</ele>
	<time>2024-07-25T09:02:28.000Z</time>
</trkpt>
<trkpt lat="46.1163380" lon="10.4863890">
	<ele>2005.40</ele>
	<time>2024-07-25T09:02:29.000Z</time>
</trkpt>
<trkpt lat="46.1163340" lon="10.4864070">
	<ele>2005.40</ele>
	<time>2024-07-25T09:02:30.000Z</time>
</trkpt>
<trkpt lat="46.1163340" lon="10.4864240">
	<ele>2005.40</ele>
	<time>2024-07-25T09:02:31.000Z</time>
</trkpt>
<trkpt lat="46.1163340" lon="10.4864460">
	<ele>2005.40</ele>
	<time>2024-07-25T09:02:32.000Z</time>
</trkpt>
<trkpt lat="46.1163430" lon="10.4864600">
	<ele>2005.40</ele>
	<time>2024-07-25T09:02:33.000Z</time>
</trkpt>
<trkpt lat="46.1163520" lon="10.4864720">
	<ele>2005.40</ele>
	<time>2024-07-25T09:02:34.000Z</time>
</trkpt>
<trkpt lat="46.1163580" lon="10.4864890">
	<ele>2005.40</ele>
	<time>2024-07-25T09:02:35.000Z</time>
</trkpt>
<trkpt lat="46.1163620" lon="10.4865070">
	<ele>2005.40</ele>
	<time>2024-07-25T09:02:36.000Z</time>
</trkpt>
<trkpt lat="46.1163640" lon="10.4865180">
	<ele>2005.60</ele>
	<time>2024-07-25T09:02:37.000Z</time>
</trkpt>
<trkpt lat="46.1163670" lon="10.4865340">
	<ele>2005.60</ele>
	<time>2024-07-25T09:02:38.000Z</time>
</trkpt>
<trkpt lat="46.1163700" lon="10.4865510">
	<ele>2005.60</ele>
	<time>2024-07-25T09:02:39.000Z</time>
</trkpt>
<trkpt lat="46.1163720" lon="10.4865700">
	<ele>2005.60</ele>
	<time>2024-07-25T09:02:40.000Z</time>
</trkpt>
<trkpt lat="46.1163740" lon="10.4865870">
	<ele>2005.60</ele>
	<time>2024-07-25T09:02:41.000Z</time>
</trkpt>
<trkpt lat="46.1163810" lon="10.4866020">
	<ele>2005.60</ele>
	<time>2024-07-25T09:02:42.000Z</time>
</trkpt>
<trkpt lat="46.1163880" lon="10.4866200">
	<ele>2005.60</ele>
	<time>2024-07-25T09:02:43.000Z</time>
</trkpt>
<trkpt lat="46.1163900" lon="10.4866350">
	<ele>2005.60</ele>
	<time>2024-07-25T09:02:44.000Z</time>
</trkpt>
<trkpt lat="46.1163950" lon="10.4866490">
	<ele>2005.40</ele>
	<time>2024-07-25T09:02:45.000Z</time>
</trkpt>
<trkpt lat="46.1163960" lon="10.4866670">
	<ele>2005.40</ele>
	<time>2024-07-25T09:02:46.000Z</time>
</trkpt>
<trkpt lat="46.1163980" lon="10.4866820">
	<ele>2005.40</ele>
	<time>2024-07-25T09:02:47.000Z</time>
</trkpt>
<trkpt lat="46.1164020" lon="10.4866990">
	<ele>2005.60</ele>
	<time>2024-07-25T09:02:48.000Z</time>
</trkpt>
<trkpt lat="46.1164060" lon="10.4867110">
	<ele>2005.60</ele>
	<time>2024-07-25T09:02:49.000Z</time>
</trkpt>
<trkpt lat="46.1164130" lon="10.4867290">
	<ele>2005.60</ele>
	<time>2024-07-25T09:02:50.000Z</time>
</trkpt>
<trkpt lat="46.1164140" lon="10.4867440">
	<ele>2005.60</ele>
	<time>2024-07-25T09:02:51.000Z</time>
</trkpt>
<trkpt lat="46.1164110" lon="10.4867600">
	<ele>2005.60</ele>
	<time>2024-07-25T09:02:52.000Z</time>
</trkpt>
<trkpt lat="46.1164070" lon="10.4867770">
	<ele>2005.60</ele>
	<time>2024-07-25T09:02:53.000Z</time>
</trkpt>
<trkpt lat="46.1164030" lon="10.4867930">
	<ele>2005.60</ele>
	<time>2024-07-25T09:02:54.000Z</time>
</trkpt>
<trkpt lat="46.1164000" lon="10.4868150">
	<ele>2005.60</ele>
	<time>2024-07-25T09:02:55.000Z</time>
</trkpt>
<trkpt lat="46.1163990" lon="10.4868320">
	<ele>2005.60</ele>
	<time>2024-07-25T09:02:56.000Z</time>
</trkpt>
<trkpt lat="46.1163990" lon="10.4868500">
	<ele>2005.60</ele>
	<time>2024-07-25T09:02:57.000Z</time>
</trkpt>
<trkpt lat="46.1163980" lon="10.4868640">
	<ele>2005.60</ele>
	<time>2024-07-25T09:02:58.000Z</time>
</trkpt>
<trkpt lat="46.1163990" lon="10.4868840">
	<ele>2005.60</ele>
	<time>2024-07-25T09:02:59.000Z</time>
</trkpt>
<trkpt lat="46.1164000" lon="10.4869020">
	<ele>2005.60</ele>
	<time>2024-07-25T09:03:00.000Z</time>
</trkpt>
<trkpt lat="46.1163980" lon="10.4869190">
	<ele>2005.60</ele>
	<time>2024-07-25T09:03:01.000Z</time>
</trkpt>
<trkpt lat="46.1163980" lon="10.4869320">
	<ele>2005.60</ele>
	<time>2024-07-25T09:03:02.000Z</time>
</trkpt>
<trkpt lat="46.1163960" lon="10.4869490">
	<ele>2005.80</ele>
	<time>2024-07-25T09:03:03.000Z</time>
</trkpt>
<trkpt lat="46.1163970" lon="10.4869640">
	<ele>2005.80</ele>
	<time>2024-07-25T09:03:04.000Z</time>
</trkpt>
<trkpt lat="46.1164010" lon="10.4869810">
	<ele>2005.80</ele>
	<time>2024-07-25T09:03:05.000Z</time>
</trkpt>
<trkpt lat="46.1164010" lon="10.4869990">
	<ele>2005.80</ele>
	<time>2024-07-25T09:03:06.000Z</time>
</trkpt>
<trkpt lat="46.1164020" lon="10.4870170">
	<ele>2006.00</ele>
	<time>2024-07-25T09:03:07.000Z</time>
</trkpt>
<trkpt lat="46.1164030" lon="10.4870410">
	<ele>2006.00</ele>
	<time>2024-07-25T09:03:08.000Z</time>
</trkpt>
<trkpt lat="46.1164040" lon="10.4870620">
	<ele>2006.00</ele>
	<time>2024-07-25T09:03:09.000Z</time>
</trkpt>
<trkpt lat="46.1164040" lon="10.4870770">
	<ele>2006.00</ele>
	<time>2024-07-25T09:03:10.000Z</time>
</trkpt>
<trkpt lat="46.1164010" lon="10.4870940">
	<ele>2006.00</ele>
	<time>2024-07-25T09:03:11.000Z</time>
</trkpt>
<trkpt lat="46.1164020" lon="10.4871110">
	<ele>2006.20</ele>
	<time>2024-07-25T09:03:12.000Z</time>
</trkpt>
<trkpt lat="46.1164010" lon="10.4871310">
	<ele>2006.40</ele>
	<time>2024-07-25T09:03:13.000Z</time>
</trkpt>
<trkpt lat="46.1164020" lon="10.4871510">
	<ele>2006.40</ele>
	<time>2024-07-25T09:03:14.000Z</time>
</trkpt>
<trkpt lat="46.1164030" lon="10.4871700">
	<ele>2006.40</ele>
	<time>2024-07-25T09:03:15.000Z</time>
</trkpt>
<trkpt lat="46.1164030" lon="10.4871890">
	<ele>2006.60</ele>
	<time>2024-07-25T09:03:16.000Z</time>
</trkpt>
<trkpt lat="46.1164040" lon="10.4872030">
	<ele>2006.80</ele>
	<time>2024-07-25T09:03:17.000Z</time>
</trkpt>
<trkpt lat="46.1164080" lon="10.4872260">
	<ele>2006.80</ele>
	<time>2024-07-25T09:03:18.000Z</time>
</trkpt>
<trkpt lat="46.1164110" lon="10.4872440">
	<ele>2007.00</ele>
	<time>2024-07-25T09:03:19.000Z</time>
</trkpt>
<trkpt lat="46.1164140" lon="10.4872570">
	<ele>2007.00</ele>
	<time>2024-07-25T09:03:20.000Z</time>
</trkpt>
<trkpt lat="46.1164180" lon="10.4872740">
	<ele>2007.00</ele>
	<time>2024-07-25T09:03:21.000Z</time>
</trkpt>
<trkpt lat="46.1164230" lon="10.4872890">
	<ele>2007.00</ele>
	<time>2024-07-25T09:03:22.000Z</time>
</trkpt>
<trkpt lat="46.1164260" lon="10.4873050">
	<ele>2007.20</ele>
	<time>2024-07-25T09:03:23.000Z</time>
</trkpt>
<trkpt lat="46.1164320" lon="10.4873220">
	<ele>2007.20</ele>
	<time>2024-07-25T09:03:24.000Z</time>
</trkpt>
<trkpt lat="46.1164370" lon="10.4873400">
	<ele>2007.40</ele>
	<time>2024-07-25T09:03:25.000Z</time>
</trkpt>
<trkpt lat="46.1164420" lon="10.4873560">
	<ele>2007.60</ele>
	<time>2024-07-25T09:03:26.000Z</time>
</trkpt>
<trkpt lat="46.1164470" lon="10.4873690">
	<ele>2007.60</ele>
	<time>2024-07-25T09:03:27.000Z</time>
</trkpt>
<trkpt lat="46.1164530" lon="10.4873860">
	<ele>2007.60</ele>
	<time>2024-07-25T09:03:28.000Z</time>
</trkpt>
<trkpt lat="46.1164610" lon="10.4873970">
	<ele>2007.80</ele>
	<time>2024-07-25T09:03:29.000Z</time>
</trkpt>
<trkpt lat="46.1164680" lon="10.4874100">
	<ele>2007.80</ele>
	<time>2024-07-25T09:03:30.000Z</time>
</trkpt>
<trkpt lat="46.1164740" lon="10.4874270">
	<ele>2007.80</ele>
	<time>2024-07-25T09:03:31.000Z</time>
</trkpt>
<trkpt lat="46.1164830" lon="10.4874440">
	<ele>2007.60</ele>
	<time>2024-07-25T09:03:32.000Z</time>
</trkpt>
<trkpt lat="46.1164920" lon="10.4874570">
	<ele>2007.60</ele>
	<time>2024-07-25T09:03:33.000Z</time>
</trkpt>
<trkpt lat="46.1164990" lon="10.4874700">
	<ele>2007.60</ele>
	<time>2024-07-25T09:03:34.000Z</time>
</trkpt>
<trkpt lat="46.1165050" lon="10.4874820">
	<ele>2007.60</ele>
	<time>2024-07-25T09:03:35.000Z</time>
</trkpt>
<trkpt lat="46.1165110" lon="10.4874920">
	<ele>2007.40</ele>
	<time>2024-07-25T09:03:36.000Z</time>
</trkpt>
<trkpt lat="46.1165170" lon="10.4875010">
	<ele>2007.40</ele>
	<time>2024-07-25T09:03:37.000Z</time>
</trkpt>
<trkpt lat="46.1165260" lon="10.4875130">
	<ele>2007.40</ele>
	<time>2024-07-25T09:03:38.000Z</time>
</trkpt>
<trkpt lat="46.1165350" lon="10.4875280">
	<ele>2007.40</ele>
	<time>2024-07-25T09:03:39.000Z</time>
</trkpt>
<trkpt lat="46.1165380" lon="10.4875410">
	<ele>2007.20</ele>
	<time>2024-07-25T09:03:40.000Z</time>
</trkpt>
<trkpt lat="46.1165410" lon="10.4875540">
	<ele>2007.20</ele>
	<time>2024-07-25T09:03:41.000Z</time>
</trkpt>
<trkpt lat="46.1165440" lon="10.4875680">
	<ele>2007.20</ele>
	<time>2024-07-25T09:03:42.000Z</time>
</trkpt>
<trkpt lat="46.1165460" lon="10.4875850">
	<ele>2007.20</ele>
	<time>2024-07-25T09:03:43.000Z</time>
</trkpt>
<trkpt lat="46.1165490" lon="10.4876010">
	<ele>2007.20</ele>
	<time>2024-07-25T09:03:44.000Z</time>
</trkpt>
<trkpt lat="46.1165540" lon="10.4876180">
	<ele>2007.00</ele>
	<time>2024-07-25T09:03:45.000Z</time>
</trkpt>
<trkpt lat="46.1165600" lon="10.4876340">
	<ele>2007.00</ele>
	<time>2024-07-25T09:03:46.000Z</time>
</trkpt>
<trkpt lat="46.1165650" lon="10.4876490">
	<ele>2007.00</ele>
	<time>2024-07-25T09:03:47.000Z</time>
</trkpt>
<trkpt lat="46.1165710" lon="10.4876660">
	<ele>2006.80</ele>
	<time>2024-07-25T09:03:48.000Z</time>
</trkpt>
<trkpt lat="46.1165750" lon="10.4876770">
	<ele>2006.80</ele>
	<time>2024-07-25T09:03:49.000Z</time>
</trkpt>
<trkpt lat="46.1165810" lon="10.4876920">
	<ele>2006.80</ele>
	<time>2024-07-25T09:03:50.000Z</time>
</trkpt>
<trkpt lat="46.1165860" lon="10.4877070">
	<ele>2006.80</ele>
	<time>2024-07-25T09:03:51.000Z</time>
</trkpt>
<trkpt lat="46.1165890" lon="10.4877240">
	<ele>2006.80</ele>
	<time>2024-07-25T09:03:52.000Z</time>
</trkpt>
<trkpt lat="46.1165930" lon="10.4877380">
	<ele>2006.80</ele>
	<time>2024-07-25T09:03:53.000Z</time>
</trkpt>
<trkpt lat="46.1165960" lon="10.4877540">
	<ele>2006.80</ele>
	<time>2024-07-25T09:03:54.000Z</time>
</trkpt>
<trkpt lat="46.1165980" lon="10.4877670">
	<ele>2006.80</ele>
	<time>2024-07-25T09:03:55.000Z</time>
</trkpt>
<trkpt lat="46.1165980" lon="10.4877820">
	<ele>2006.80</ele>
	<time>2024-07-25T09:03:56.000Z</time>
</trkpt>
<trkpt lat="46.1166020" lon="10.4878010">
	<ele>2006.80</ele>
	<time>2024-07-25T09:03:57.000Z</time>
</trkpt>
<trkpt lat="46.1166090" lon="10.4878100">
	<ele>2006.80</ele>
	<time>2024-07-25T09:03:58.000Z</time>
</trkpt>
<trkpt lat="46.1166130" lon="10.4878230">
	<ele>2006.80</ele>
	<time>2024-07-25T09:03:59.000Z</time>
</trkpt>
<trkpt lat="46.1166120" lon="10.4878400">
	<ele>2006.80</ele>
	<time>2024-07-25T09:04:00.000Z</time>
</trkpt>
<trkpt lat="46.1166100" lon="10.4878540">
	<ele>2006.80</ele>
	<time>2024-07-25T09:04:01.000Z</time>
</trkpt>
<trkpt lat="46.1166110" lon="10.4878650">
	<ele>2006.80</ele>
	<time>2024-07-25T09:04:02.000Z</time>
</trkpt>
<trkpt lat="46.1166140" lon="10.4878800">
	<ele>2006.80</ele>
	<time>2024-07-25T09:04:03.000Z</time>
</trkpt>
<trkpt lat="46.1166180" lon="10.4878980">
	<ele>2006.80</ele>
	<time>2024-07-25T09:04:04.000Z</time>
</trkpt>
<trkpt lat="46.1166200" lon="10.4879120">
	<ele>2007.00</ele>
	<time>2024-07-25T09:04:05.000Z</time>
</trkpt>
<trkpt lat="46.1166190" lon="10.4879250">
	<ele>2007.00</ele>
	<time>2024-07-25T09:04:06.000Z</time>
</trkpt>
<trkpt lat="46.1166170" lon="10.4879440">
	<ele>2007.00</ele>
	<time>2024-07-25T09:04:07.000Z</time>
</trkpt>
<trkpt lat="46.1166160" lon="10.4879600">
	<ele>2007.00</ele>
	<time>2024-07-25T09:04:08.000Z</time>
</trkpt>
<trkpt lat="46.1166190" lon="10.4879790">
	<ele>2007.00</ele>
	<time>2024-07-25T09:04:09.000Z</time>
</trkpt>
<trkpt lat="46.1166200" lon="10.4879940">
	<ele>2007.00</ele>
	<time>2024-07-25T09:04:10.000Z</time>
</trkpt>
<trkpt lat="46.1166190" lon="10.4880070">
	<ele>2007.00</ele>
	<time>2024-07-25T09:04:11.000Z</time>
</trkpt>
<trkpt lat="46.1166200" lon="10.4880240">
	<ele>2007.00</ele>
	<time>2024-07-25T09:04:12.000Z</time>
</trkpt>
<trkpt lat="46.1166220" lon="10.4880390">
	<ele>2007.00</ele>
	<time>2024-07-25T09:04:13.000Z</time>
</trkpt>
<trkpt lat="46.1166230" lon="10.4880560">
	<ele>2007.00</ele>
	<time>2024-07-25T09:04:14.000Z</time>
</trkpt>
<trkpt lat="46.1166210" lon="10.4880680">
	<ele>2007.00</ele>
	<time>2024-07-25T09:04:15.000Z</time>
</trkpt>
<trkpt lat="46.1166120" lon="10.4880870">
	<ele>2007.00</ele>
	<time>2024-07-25T09:04:16.000Z</time>
</trkpt>
<trkpt lat="46.1166050" lon="10.4881100">
	<ele>2007.00</ele>
	<time>2024-07-25T09:04:17.000Z</time>
</trkpt>
<trkpt lat="46.1165980" lon="10.4881270">
	<ele>2007.00</ele>
	<time>2024-07-25T09:04:18.000Z</time>
</trkpt>
<trkpt lat="46.1165940" lon="10.4881430">
	<ele>2007.00</ele>
	<time>2024-07-25T09:04:19.000Z</time>
</trkpt>
<trkpt lat="46.1165930" lon="10.4881570">
	<ele>2007.00</ele>
	<time>2024-07-25T09:04:20.000Z</time>
</trkpt>
<trkpt lat="46.1165920" lon="10.4881710">
	<ele>2007.00</ele>
	<time>2024-07-25T09:04:21.000Z</time>
</trkpt>
<trkpt lat="46.1165920" lon="10.4881830">
	<ele>2007.00</ele>
	<time>2024-07-25T09:04:22.000Z</time>
</trkpt>
<trkpt lat="46.1165920" lon="10.4881960">
	<ele>2007.00</ele>
	<time>2024-07-25T09:04:23.000Z</time>
</trkpt>
<trkpt lat="46.1165910" lon="10.4882170">
	<ele>2007.20</ele>
	<time>2024-07-25T09:04:24.000Z</time>
</trkpt>
<trkpt lat="46.1165870" lon="10.4882380">
	<ele>2007.20</ele>
	<time>2024-07-25T09:04:25.000Z</time>
</trkpt>
<trkpt lat="46.1165820" lon="10.4882580">
	<ele>2007.20</ele>
	<time>2024-07-25T09:04:26.000Z</time>
</trkpt>
<trkpt lat="46.1165770" lon="10.4882780">
	<ele>2007.20</ele>
	<time>2024-07-25T09:04:27.000Z</time>
</trkpt>
<trkpt lat="46.1165730" lon="10.4882980">
	<ele>2007.40</ele>
	<time>2024-07-25T09:04:28.000Z</time>
</trkpt>
<trkpt lat="46.1165690" lon="10.4883140">
	<ele>2007.40</ele>
	<time>2024-07-25T09:04:29.000Z</time>
</trkpt>
<trkpt lat="46.1165670" lon="10.4883280">
	<ele>2007.40</ele>
	<time>2024-07-25T09:04:30.000Z</time>
</trkpt>
<trkpt lat="46.1165630" lon="10.4883430">
	<ele>2007.40</ele>
	<time>2024-07-25T09:04:31.000Z</time>
</trkpt>
<trkpt lat="46.1165580" lon="10.4883700">
	<ele>2007.40</ele>
	<time>2024-07-25T09:04:32.000Z</time>
</trkpt>
<trkpt lat="46.1165540" lon="10.4883920">
	<ele>2007.40</ele>
	<time>2024-07-25T09:04:33.000Z</time>
</trkpt>
<trkpt lat="46.1165500" lon="10.4884090">
	<ele>2007.40</ele>
	<time>2024-07-25T09:04:34.000Z</time>
</trkpt>
<trkpt lat="46.1165450" lon="10.4884250">
	<ele>2007.40</ele>
	<time>2024-07-25T09:04:35.000Z</time>
</trkpt>
<trkpt lat="46.1165410" lon="10.4884410">
	<ele>2007.40</ele>
	<time>2024-07-25T09:04:36.000Z</time>
</trkpt>
<trkpt lat="46.1165350" lon="10.4884560">
	<ele>2007.40</ele>
	<time>2024-07-25T09:04:37.000Z</time>
</trkpt>
<trkpt lat="46.1165290" lon="10.4884760">
	<ele>2007.40</ele>
	<time>2024-07-25T09:04:38.000Z</time>
</trkpt>
<trkpt lat="46.1165250" lon="10.4884890">
	<ele>2007.40</ele>
	<time>2024-07-25T09:04:39.000Z</time>
</trkpt>
<trkpt lat="46.1165200" lon="10.4885010">
	<ele>2007.40</ele>
	<time>2024-07-25T09:04:40.000Z</time>
</trkpt>
<trkpt lat="46.1165140" lon="10.4885080">
	<ele>2007.40</ele>
	<time>2024-07-25T09:04:41.000Z</time>
</trkpt>
<trkpt lat="46.1165070" lon="10.4885240">
	<ele>2007.40</ele>
	<time>2024-07-25T09:04:42.000Z</time>
</trkpt>
<trkpt lat="46.1164990" lon="10.4885360">
	<ele>2007.40</ele>
	<time>2024-07-25T09:04:43.000Z</time>
</trkpt>
<trkpt lat="46.1164920" lon="10.4885480">
	<ele>2007.60</ele>
	<time>2024-07-25T09:04:44.000Z</time>
</trkpt>
<trkpt lat="46.1164840" lon="10.4885660">
	<ele>2007.60</ele>
	<time>2024-07-25T09:04:45.000Z</time>
</trkpt>
<trkpt lat="46.1164790" lon="10.4885830">
	<ele>2007.60</ele>
	<time>2024-07-25T09:04:46.000Z</time>
</trkpt>
<trkpt lat="46.1164740" lon="10.4885980">
	<ele>2007.60</ele>
	<time>2024-07-25T09:04:47.000Z</time>
</trkpt>
<trkpt lat="46.1164690" lon="10.4886150">
	<ele>2007.60</ele>
	<time>2024-07-25T09:04:48.000Z</time>
</trkpt>
<trkpt lat="46.1164660" lon="10.4886290">
	<ele>2007.80</ele>
	<time>2024-07-25T09:04:49.000Z</time>
</trkpt>
<trkpt lat="46.1164630" lon="10.4886460">
	<ele>2007.80</ele>
	<time>2024-07-25T09:04:50.000Z</time>
</trkpt>
<trkpt lat="46.1164590" lon="10.4886640">
	<ele>2007.80</ele>
	<time>2024-07-25T09:04:51.000Z</time>
</trkpt>
<trkpt lat="46.1164560" lon="10.4886800">
	<ele>2007.80</ele>
	<time>2024-07-25T09:04:52.000Z</time>
</trkpt>
<trkpt lat="46.1164510" lon="10.4886970">
	<ele>2007.80</ele>
	<time>2024-07-25T09:04:53.000Z</time>
</trkpt>
<trkpt lat="46.1164440" lon="10.4887160">
	<ele>2007.80</ele>
	<time>2024-07-25T09:04:54.000Z</time>
</trkpt>
<trkpt lat="46.1164360" lon="10.4887360">
	<ele>2008.00</ele>
	<time>2024-07-25T09:04:55.000Z</time>
</trkpt>
<trkpt lat="46.1164240" lon="10.4887510">
	<ele>2008.00</ele>
	<time>2024-07-25T09:04:56.000Z</time>
</trkpt>
<trkpt lat="46.1164170" lon="10.4887630">
	<ele>2008.00</ele>
	<time>2024-07-25T09:04:57.000Z</time>
</trkpt>
<trkpt lat="46.1164100" lon="10.4887740">
	<ele>2008.00</ele>
	<time>2024-07-25T09:04:58.000Z</time>
</trkpt>
<trkpt lat="46.1164030" lon="10.4887830">
	<ele>2008.00</ele>
	<time>2024-07-25T09:04:59.000Z</time>
</trkpt>
<trkpt lat="46.1163970" lon="10.4887970">
	<ele>2008.00</ele>
	<time>2024-07-25T09:05:00.000Z</time>
</trkpt>
<trkpt lat="46.1163930" lon="10.4888120">
	<ele>2008.00</ele>
	<time>2024-07-25T09:05:01.000Z</time>
</trkpt>
<trkpt lat="46.1163860" lon="10.4888240">
	<ele>2008.00</ele>
	<time>2024-07-25T09:05:02.000Z</time>
</trkpt>
<trkpt lat="46.1163740" lon="10.4888370">
	<ele>2008.00</ele>
	<time>2024-07-25T09:05:03.000Z</time>
</trkpt>
<trkpt lat="46.1163670" lon="10.4888510">
	<ele>2008.00</ele>
	<time>2024-07-25T09:05:04.000Z</time>
</trkpt>
<trkpt lat="46.1163590" lon="10.4888660">
	<ele>2008.00</ele>
	<time>2024-07-25T09:05:05.000Z</time>
</trkpt>
<trkpt lat="46.1163510" lon="10.4888810">
	<ele>2008.00</ele>
	<time>2024-07-25T09:05:06.000Z</time>
</trkpt>
<trkpt lat="46.1163450" lon="10.4889000">
	<ele>2008.20</ele>
	<time>2024-07-25T09:05:07.000Z</time>
</trkpt>
<trkpt lat="46.1163390" lon="10.4889190">
	<ele>2008.40</ele>
	<time>2024-07-25T09:05:08.000Z</time>
</trkpt>
<trkpt lat="46.1163320" lon="10.4889350">
	<ele>2008.60</ele>
	<time>2024-07-25T09:05:09.000Z</time>
</trkpt>
<trkpt lat="46.1163300" lon="10.4889520">
	<ele>2008.80</ele>
	<time>2024-07-25T09:05:10.000Z</time>
</trkpt>
<trkpt lat="46.1163280" lon="10.4889600">
	<ele>2009.00</ele>
	<time>2024-07-25T09:05:11.000Z</time>
</trkpt>
<trkpt lat="46.1163240" lon="10.4889730">
	<ele>2009.20</ele>
	<time>2024-07-25T09:05:12.000Z</time>
</trkpt>
<trkpt lat="46.1163170" lon="10.4889890">
	<ele>2009.20</ele>
	<time>2024-07-25T09:05:13.000Z</time>
</trkpt>
<trkpt lat="46.1163140" lon="10.4890120">
	<ele>2009.40</ele>
	<time>2024-07-25T09:05:14.000Z</time>
</trkpt>
<trkpt lat="46.1163140" lon="10.4890300">
	<ele>2009.40</ele>
	<time>2024-07-25T09:05:15.000Z</time>
</trkpt>
<trkpt lat="46.1163100" lon="10.4890500">
	<ele>2009.40</ele>
	<time>2024-07-25T09:05:16.000Z</time>
</trkpt>
<trkpt lat="46.1163090" lon="10.4890690">
	<ele>2009.40</ele>
	<time>2024-07-25T09:05:17.000Z</time>
</trkpt>
<trkpt lat="46.1163070" lon="10.4890840">
	<ele>2009.40</ele>
	<time>2024-07-25T09:05:18.000Z</time>
</trkpt>
<trkpt lat="46.1163040" lon="10.4890970">
	<ele>2009.40</ele>
	<time>2024-07-25T09:05:19.000Z</time>
</trkpt>
<trkpt lat="46.1163000" lon="10.4891090">
	<ele>2009.40</ele>
	<time>2024-07-25T09:05:20.000Z</time>
</trkpt>
<trkpt lat="46.1162940" lon="10.4891240">
	<ele>2009.40</ele>
	<time>2024-07-25T09:05:21.000Z</time>
</trkpt>
<trkpt lat="46.1162870" lon="10.4891410">
	<ele>2009.60</ele>
	<time>2024-07-25T09:05:22.000Z</time>
</trkpt>
<trkpt lat="46.1162820" lon="10.4891580">
	<ele>2009.80</ele>
	<time>2024-07-25T09:05:23.000Z</time>
</trkpt>
<trkpt lat="46.1162780" lon="10.4891730">
	<ele>2009.80</ele>
	<time>2024-07-25T09:05:24.000Z</time>
</trkpt>
<trkpt lat="46.1162710" lon="10.4891890">
	<ele>2010.00</ele>
	<time>2024-07-25T09:05:25.000Z</time>
</trkpt>
<trkpt lat="46.1162650" lon="10.4892050">
	<ele>2010.00</ele>
	<time>2024-07-25T09:05:26.000Z</time>
</trkpt>
<trkpt lat="46.1162590" lon="10.4892210">
	<ele>2010.20</ele>
	<time>2024-07-25T09:05:27.000Z</time>
</trkpt>
<trkpt lat="46.1162530" lon="10.4892360">
	<ele>2010.40</ele>
	<time>2024-07-25T09:05:28.000Z</time>
</trkpt>
<trkpt lat="46.1162460" lon="10.4892520">
	<ele>2010.40</ele>
	<time>2024-07-25T09:05:29.000Z</time>
</trkpt>
<trkpt lat="46.1162380" lon="10.4892660">
	<ele>2010.40</ele>
	<time>2024-07-25T09:05:30.000Z</time>
</trkpt>
<trkpt lat="46.1162310" lon="10.4892780">
	<ele>2010.40</ele>
	<time>2024-07-25T09:05:31.000Z</time>
</trkpt>
<trkpt lat="46.1162220" lon="10.4892910">
	<ele>2010.40</ele>
	<time>2024-07-25T09:05:32.000Z</time>
</trkpt>
<trkpt lat="46.1162120" lon="10.4893070">
	<ele>2010.40</ele>
	<time>2024-07-25T09:05:33.000Z</time>
</trkpt>
<trkpt lat="46.1162050" lon="10.4893230">
	<ele>2010.40</ele>
	<time>2024-07-25T09:05:34.000Z</time>
</trkpt>
<trkpt lat="46.1162010" lon="10.4893390">
	<ele>2010.40</ele>
	<time>2024-07-25T09:05:35.000Z</time>
</trkpt>
<trkpt lat="46.1161980" lon="10.4893540">
	<ele>2010.40</ele>
	<time>2024-07-25T09:05:36.000Z</time>
</trkpt>
<trkpt lat="46.1161920" lon="10.4893690">
	<ele>2010.60</ele>
	<time>2024-07-25T09:05:37.000Z</time>
</trkpt>
<trkpt lat="46.1161890" lon="10.4893900">
	<ele>2010.80</ele>
	<time>2024-07-25T09:05:38.000Z</time>
</trkpt>
<trkpt lat="46.1161890" lon="10.4894080">
	<ele>2010.80</ele>
	<time>2024-07-25T09:05:39.000Z</time>
</trkpt>
<trkpt lat="46.1161880" lon="10.4894250">
	<ele>2011.00</ele>
	<time>2024-07-25T09:05:40.000Z</time>
</trkpt>
<trkpt lat="46.1161880" lon="10.4894420">
	<ele>2011.00</ele>
	<time>2024-07-25T09:05:41.000Z</time>
</trkpt>
<trkpt lat="46.1161870" lon="10.4894610">
	<ele>2011.00</ele>
	<time>2024-07-25T09:05:42.000Z</time>
</trkpt>
<trkpt lat="46.1161860" lon="10.4894810">
	<ele>2011.00</ele>
	<time>2024-07-25T09:05:43.000Z</time>
</trkpt>
<trkpt lat="46.1161850" lon="10.4894990">
	<ele>2011.00</ele>
	<time>2024-07-25T09:05:44.000Z</time>
</trkpt>
<trkpt lat="46.1161860" lon="10.4895140">
	<ele>2011.00</ele>
	<time>2024-07-25T09:05:45.000Z</time>
</trkpt>
<trkpt lat="46.1161870" lon="10.4895220">
	<ele>2011.00</ele>
	<time>2024-07-25T09:05:46.000Z</time>
</trkpt>
<trkpt lat="46.1161870" lon="10.4895240">
	<ele>2011.00</ele>
	<time>2024-07-25T09:05:47.000Z</time>
</trkpt>
<trkpt lat="46.1161860" lon="10.4895250">
	<ele>2011.00</ele>
	<time>2024-07-25T09:05:48.000Z</time>
</trkpt>
<trkpt lat="46.1161860" lon="10.4895250">
	<ele>2011.00</ele>
	<time>2024-07-25T09:05:49.000Z</time>
</trkpt>
<trkpt lat="46.1161850" lon="10.4895270">
	<ele>2010.80</ele>
	<time>2024-07-25T09:05:50.000Z</time>
</trkpt>
<trkpt lat="46.1161850" lon="10.4895330">
	<ele>2010.80</ele>
	<time>2024-07-25T09:05:51.000Z</time>
</trkpt>
<trkpt lat="46.1161870" lon="10.4895470">
	<ele>2010.60</ele>
	<time>2024-07-25T09:05:52.000Z</time>
</trkpt>
<trkpt lat="46.1161910" lon="10.4895630">
	<ele>2010.20</ele>
	<time>2024-07-25T09:05:53.000Z</time>
</trkpt>
<trkpt lat="46.1161930" lon="10.4895880">
	<ele>2010.00</ele>
	<time>2024-07-25T09:05:54.000Z</time>
</trkpt>
<trkpt lat="46.1161950" lon="10.4896090">
	<ele>2010.00</ele>
	<time>2024-07-25T09:05:55.000Z</time>
</trkpt>
<trkpt lat="46.1161940" lon="10.4896320">
	<ele>2009.80</ele>
	<time>2024-07-25T09:05:56.000Z</time>
</trkpt>
<trkpt lat="46.1161940" lon="10.4896500">
	<ele>2009.80</ele>
	<time>2024-07-25T09:05:57.000Z</time>
</trkpt>
<trkpt lat="46.1161930" lon="10.4896750">
	<ele>2009.60</ele>
	<time>2024-07-25T09:05:58.000Z</time>
</trkpt>
<trkpt lat="46.1161920" lon="10.4896960">
	<ele>2009.60</ele>
	<time>2024-07-25T09:05:59.000Z</time>
</trkpt>
<trkpt lat="46.1161910" lon="10.4897100">
	<ele>2009.60</ele>
	<time>2024-07-25T09:06:00.000Z</time>
</trkpt>
<trkpt lat="46.1161900" lon="10.4897290">
	<ele>2009.60</ele>
	<time>2024-07-25T09:06:01.000Z</time>
</trkpt>
<trkpt lat="46.1161890" lon="10.4897450">
	<ele>2009.60</ele>
	<time>2024-07-25T09:06:02.000Z</time>
</trkpt>
<trkpt lat="46.1161890" lon="10.4897580">
	<ele>2009.60</ele>
	<time>2024-07-25T09:06:03.000Z</time>
</trkpt>
<trkpt lat="46.1161880" lon="10.4897740">
	<ele>2009.40</ele>
	<time>2024-07-25T09:06:04.000Z</time>
</trkpt>
<trkpt lat="46.1161870" lon="10.4897910">
	<ele>2009.40</ele>
	<time>2024-07-25T09:06:05.000Z</time>
</trkpt>
<trkpt lat="46.1161880" lon="10.4898100">
	<ele>2009.40</ele>
	<time>2024-07-25T09:06:06.000Z</time>
</trkpt>
<trkpt lat="46.1161890" lon="10.4898270">
	<ele>2009.40</ele>
	<time>2024-07-25T09:06:07.000Z</time>
</trkpt>
<trkpt lat="46.1161910" lon="10.4898380">
	<ele>2009.60</ele>
	<time>2024-07-25T09:06:08.000Z</time>
</trkpt>
<trkpt lat="46.1161920" lon="10.4898530">
	<ele>2009.60</ele>
	<time>2024-07-25T09:06:09.000Z</time>
</trkpt>
<trkpt lat="46.1161900" lon="10.4898810">
	<ele>2009.80</ele>
	<time>2024-07-25T09:06:10.000Z</time>
</trkpt>
<trkpt lat="46.1161880" lon="10.4898980">
	<ele>2009.80</ele>
	<time>2024-07-25T09:06:11.000Z</time>
</trkpt>
<trkpt lat="46.1161860" lon="10.4899060">
	<ele>2010.00</ele>
	<time>2024-07-25T09:06:12.000Z</time>
</trkpt>
<trkpt lat="46.1161870" lon="10.4899130">
	<ele>2010.00</ele>
	<time>2024-07-25T09:06:13.000Z</time>
</trkpt>
<trkpt lat="46.1161890" lon="10.4899160">
	<ele>2010.00</ele>
	<time>2024-07-25T09:06:14.000Z</time>
</trkpt>
<trkpt lat="46.1161870" lon="10.4899190">
	<ele>2010.20</ele>
	<time>2024-07-25T09:06:15.000Z</time>
</trkpt>
<trkpt lat="46.1161870" lon="10.4899190">
	<ele>2010.20</ele>
	<time>2024-07-25T09:06:16.000Z</time>
</trkpt>
<trkpt lat="46.1161870" lon="10.4899180">
	<ele>2010.20</ele>
	<time>2024-07-25T09:06:17.000Z</time>
</trkpt>
<trkpt lat="46.1161890" lon="10.4899180">
	<ele>2010.20</ele>
	<time>2024-07-25T09:06:18.000Z</time>
</trkpt>
<trkpt lat="46.1161880" lon="10.4899230">
	<ele>2010.20</ele>
	<time>2024-07-25T09:06:19.000Z</time>
</trkpt>
<trkpt lat="46.1161860" lon="10.4899350">
	<ele>2010.20</ele>
	<time>2024-07-25T09:06:20.000Z</time>
</trkpt>
<trkpt lat="46.1161880" lon="10.4899490">
	<ele>2010.20</ele>
	<time>2024-07-25T09:06:21.000Z</time>
</trkpt>
<trkpt lat="46.1161890" lon="10.4899650">
	<ele>2010.20</ele>
	<time>2024-07-25T09:06:22.000Z</time>
</trkpt>
<trkpt lat="46.1161940" lon="10.4899800">
	<ele>2010.20</ele>
	<time>2024-07-25T09:06:23.000Z</time>
</trkpt>
<trkpt lat="46.1161970" lon="10.4899970">
	<ele>2010.20</ele>
	<time>2024-07-25T09:06:24.000Z</time>
</trkpt>
<trkpt lat="46.1161990" lon="10.4900130">
	<ele>2010.20</ele>
	<time>2024-07-25T09:06:25.000Z</time>
</trkpt>
<trkpt lat="46.1161990" lon="10.4900260">
	<ele>2010.20</ele>
	<time>2024-07-25T09:06:26.000Z</time>
</trkpt>
<trkpt lat="46.1162020" lon="10.4900390">
	<ele>2010.20</ele>
	<time>2024-07-25T09:06:27.000Z</time>
</trkpt>
<trkpt lat="46.1162040" lon="10.4900510">
	<ele>2010.20</ele>
	<time>2024-07-25T09:06:28.000Z</time>
</trkpt>
<trkpt lat="46.1162050" lon="10.4900720">
	<ele>2010.20</ele>
	<time>2024-07-25T09:06:29.000Z</time>
</trkpt>
<trkpt lat="46.1162030" lon="10.4900900">
	<ele>2010.20</ele>
	<time>2024-07-25T09:06:30.000Z</time>
</trkpt>
<trkpt lat="46.1162000" lon="10.4901100">
	<ele>2010.20</ele>
	<time>2024-07-25T09:06:31.000Z</time>
</trkpt>
<trkpt lat="46.1161970" lon="10.4901260">
	<ele>2010.20</ele>
	<time>2024-07-25T09:06:32.000Z</time>
</trkpt>
<trkpt lat="46.1161940" lon="10.4901500">
	<ele>2010.20</ele>
	<time>2024-07-25T09:06:33.000Z</time>
</trkpt>
<trkpt lat="46.1161900" lon="10.4901710">
	<ele>2010.20</ele>
	<time>2024-07-25T09:06:34.000Z</time>
</trkpt>
<trkpt lat="46.1161850" lon="10.4901930">
	<ele>2010.20</ele>
	<time>2024-07-25T09:06:35.000Z</time>
</trkpt>
<trkpt lat="46.1161840" lon="10.4902150">
	<ele>2010.20</ele>
	<time>2024-07-25T09:06:36.000Z</time>
</trkpt>
<trkpt lat="46.1161790" lon="10.4902330">
	<ele>2010.20</ele>
	<time>2024-07-25T09:06:37.000Z</time>
</trkpt>
<trkpt lat="46.1161740" lon="10.4902480">
	<ele>2010.00</ele>
	<time>2024-07-25T09:06:38.000Z</time>
</trkpt>
<trkpt lat="46.1161730" lon="10.4902640">
	<ele>2010.00</ele>
	<time>2024-07-25T09:06:39.000Z</time>
</trkpt>
<trkpt lat="46.1161700" lon="10.4902840">
	<ele>2009.80</ele>
	<time>2024-07-25T09:06:40.000Z</time>
</trkpt>
<trkpt lat="46.1161720" lon="10.4903000">
	<ele>2010.00</ele>
	<time>2024-07-25T09:06:41.000Z</time>
</trkpt>
<trkpt lat="46.1161700" lon="10.4903150">
	<ele>2010.20</ele>
	<time>2024-07-25T09:06:42.000Z</time>
</trkpt>
<trkpt lat="46.1161690" lon="10.4903230">
	<ele>2010.20</ele>
	<time>2024-07-25T09:06:43.000Z</time>
</trkpt>
<trkpt lat="46.1161690" lon="10.4903280">
	<ele>2010.40</ele>
	<time>2024-07-25T09:06:44.000Z</time>
</trkpt>
<trkpt lat="46.1161690" lon="10.4903300">
	<ele>2010.40</ele>
	<time>2024-07-25T09:06:45.000Z</time>
</trkpt>
<trkpt lat="46.1161680" lon="10.4903300">
	<ele>2010.60</ele>
	<time>2024-07-25T09:06:46.000Z</time>
</trkpt>
<trkpt lat="46.1161680" lon="10.4903290">
	<ele>2010.80</ele>
	<time>2024-07-25T09:06:47.000Z</time>
</trkpt>
<trkpt lat="46.1161670" lon="10.4903290">
	<ele>2010.80</ele>
	<time>2024-07-25T09:06:48.000Z</time>
</trkpt>
<trkpt lat="46.1161660" lon="10.4903270">
	<ele>2011.00</ele>
	<time>2024-07-25T09:06:49.000Z</time>
</trkpt>
<trkpt lat="46.1161670" lon="10.4903260">
	<ele>2011.00</ele>
	<time>2024-07-25T09:06:50.000Z</time>
</trkpt>
<trkpt lat="46.1161680" lon="10.4903260">
	<ele>2011.00</ele>
	<time>2024-07-25T09:06:51.000Z</time>
</trkpt>
<trkpt lat="46.1161680" lon="10.4903250">
	<ele>2011.00</ele>
	<time>2024-07-25T09:06:52.000Z</time>
</trkpt>
<trkpt lat="46.1161690" lon="10.4903270">
	<ele>2011.00</ele>
	<time>2024-07-25T09:06:53.000Z</time>
</trkpt>
<trkpt lat="46.1161680" lon="10.4903340">
	<ele>2011.00</ele>
	<time>2024-07-25T09:06:54.000Z</time>
</trkpt>
<trkpt lat="46.1161640" lon="10.4903420">
	<ele>2011.00</ele>
	<time>2024-07-25T09:06:55.000Z</time>
</trkpt>
<trkpt lat="46.1161610" lon="10.4903550">
	<ele>2010.80</ele>
	<time>2024-07-25T09:06:56.000Z</time>
</trkpt>
<trkpt lat="46.1161580" lon="10.4903720">
	<ele>2010.80</ele>
	<time>2024-07-25T09:06:57.000Z</time>
</trkpt>
<trkpt lat="46.1161540" lon="10.4903860">
	<ele>2011.00</ele>
	<time>2024-07-25T09:06:58.000Z</time>
</trkpt>
<trkpt lat="46.1161500" lon="10.4904010">
	<ele>2011.00</ele>
	<time>2024-07-25T09:06:59.000Z</time>
</trkpt>
<trkpt lat="46.1161480" lon="10.4904170">
	<ele>2011.00</ele>
	<time>2024-07-25T09:07:00.000Z</time>
</trkpt>
<trkpt lat="46.1161470" lon="10.4904290">
	<ele>2011.20</ele>
	<time>2024-07-25T09:07:01.000Z</time>
</trkpt>
<trkpt lat="46.1161460" lon="10.4904410">
	<ele>2011.20</ele>
	<time>2024-07-25T09:07:02.000Z</time>
</trkpt>
<trkpt lat="46.1161450" lon="10.4904550">
	<ele>2011.20</ele>
	<time>2024-07-25T09:07:03.000Z</time>
</trkpt>
<trkpt lat="46.1161430" lon="10.4904810">
	<ele>2011.20</ele>
	<time>2024-07-25T09:07:04.000Z</time>
</trkpt>
<trkpt lat="46.1161420" lon="10.4905000">
	<ele>2011.20</ele>
	<time>2024-07-25T09:07:05.000Z</time>
</trkpt>
<trkpt lat="46.1161410" lon="10.4905180">
	<ele>2011.20</ele>
	<time>2024-07-25T09:07:06.000Z</time>
</trkpt>
<trkpt lat="46.1161400" lon="10.4905280">
	<ele>2011.40</ele>
	<time>2024-07-25T09:07:07.000Z</time>
</trkpt>
<trkpt lat="46.1161400" lon="10.4905460">
	<ele>2011.40</ele>
	<time>2024-07-25T09:07:08.000Z</time>
</trkpt>
<trkpt lat="46.1161420" lon="10.4905570">
	<ele>2011.40</ele>
	<time>2024-07-25T09:07:09.000Z</time>
</trkpt>
<trkpt lat="46.1161420" lon="10.4905730">
	<ele>2011.60</ele>
	<time>2024-07-25T09:07:10.000Z</time>
</trkpt>
<trkpt lat="46.1161410" lon="10.4905910">
	<ele>2011.80</ele>
	<time>2024-07-25T09:07:11.000Z</time>
</trkpt>
<trkpt lat="46.1161410" lon="10.4906130">
	<ele>2011.80</ele>
	<time>2024-07-25T09:07:12.000Z</time>
</trkpt>
<trkpt lat="46.1161460" lon="10.4906360">
	<ele>2011.80</ele>
	<time>2024-07-25T09:07:13.000Z</time>
</trkpt>
<trkpt lat="46.1161460" lon="10.4906610">
	<ele>2011.80</ele>
	<time>2024-07-25T09:07:14.000Z</time>
</trkpt>
<trkpt lat="46.1161460" lon="10.4906790">
	<ele>2011.80</ele>
	<time>2024-07-25T09:07:15.000Z</time>
</trkpt>
<trkpt lat="46.1161440" lon="10.4906920">
	<ele>2011.80</ele>
	<time>2024-07-25T09:07:16.000Z</time>
</trkpt>
<trkpt lat="46.1161440" lon="10.4907090">
	<ele>2011.80</ele>
	<time>2024-07-25T09:07:17.000Z</time>
</trkpt>
<trkpt lat="46.1161460" lon="10.4907170">
	<ele>2011.60</ele>
	<time>2024-07-25T09:07:18.000Z</time>
</trkpt>
<trkpt lat="46.1161470" lon="10.4907210">
	<ele>2011.80</ele>
	<time>2024-07-25T09:07:19.000Z</time>
</trkpt>
<trkpt lat="46.1161470" lon="10.4907230">
	<ele>2011.80</ele>
	<time>2024-07-25T09:07:20.000Z</time>
</trkpt>
<trkpt lat="46.1161480" lon="10.4907260">
	<ele>2011.80</ele>
	<time>2024-07-25T09:07:21.000Z</time>
</trkpt>
<trkpt lat="46.1161490" lon="10.4907280">
	<ele>2011.80</ele>
	<time>2024-07-25T09:07:22.000Z</time>
</trkpt>
<trkpt lat="46.1161480" lon="10.4907250">
	<ele>2012.00</ele>
	<time>2024-07-25T09:07:23.000Z</time>
</trkpt>
<trkpt lat="46.1161460" lon="10.4907200">
	<ele>2012.00</ele>
	<time>2024-07-25T09:07:24.000Z</time>
</trkpt>
<trkpt lat="46.1161460" lon="10.4907190">
	<ele>2012.00</ele>
	<time>2024-07-25T09:07:25.000Z</time>
</trkpt>
<trkpt lat="46.1161450" lon="10.4907190">
	<ele>2012.00</ele>
	<time>2024-07-25T09:07:26.000Z</time>
</trkpt>
<trkpt lat="46.1161460" lon="10.4907200">
	<ele>2012.00</ele>
	<time>2024-07-25T09:07:27.000Z</time>
</trkpt>
<trkpt lat="46.1161460" lon="10.4907200">
	<ele>2012.00</ele>
	<time>2024-07-25T09:07:28.000Z</time>
</trkpt>
<trkpt lat="46.1161430" lon="10.4907200">
	<ele>2012.00</ele>
	<time>2024-07-25T09:07:29.000Z</time>
</trkpt>
<trkpt lat="46.1161430" lon="10.4907240">
	<ele>2012.00</ele>
	<time>2024-07-25T09:07:30.000Z</time>
</trkpt>
<trkpt lat="46.1161460" lon="10.4907310">
	<ele>2011.80</ele>
	<time>2024-07-25T09:07:31.000Z</time>
</trkpt>
<trkpt lat="46.1161460" lon="10.4907410">
	<ele>2011.80</ele>
	<time>2024-07-25T09:07:32.000Z</time>
</trkpt>
<trkpt lat="46.1161490" lon="10.4907570">
	<ele>2011.80</ele>
	<time>2024-07-25T09:07:33.000Z</time>
</trkpt>
<trkpt lat="46.1161500" lon="10.4907720">
	<ele>2011.80</ele>
	<time>2024-07-25T09:07:34.000Z</time>
</trkpt>
<trkpt lat="46.1161500" lon="10.4907900">
	<ele>2011.80</ele>
	<time>2024-07-25T09:07:35.000Z</time>
</trkpt>
<trkpt lat="46.1161450" lon="10.4908060">
	<ele>2011.80</ele>
	<time>2024-07-25T09:07:36.000Z</time>
</trkpt>
<trkpt lat="46.1161450" lon="10.4908230">
	<ele>2011.80</ele>
	<time>2024-07-25T09:07:37.000Z</time>
</trkpt>
<trkpt lat="46.1161430" lon="10.4908400">
	<ele>2011.80</ele>
	<time>2024-07-25T09:07:38.000Z</time>
</trkpt>
<trkpt lat="46.1161440" lon="10.4908480">
	<ele>2011.80</ele>
	<time>2024-07-25T09:07:39.000Z</time>
</trkpt>
<trkpt lat="46.1161440" lon="10.4908620">
	<ele>2011.80</ele>
	<time>2024-07-25T09:07:40.000Z</time>
</trkpt>
<trkpt lat="46.1161470" lon="10.4908760">
	<ele>2011.80</ele>
	<time>2024-07-25T09:07:41.000Z</time>
</trkpt>
<trkpt lat="46.1161490" lon="10.4908920">
	<ele>2012.00</ele>
	<time>2024-07-25T09:07:42.000Z</time>
</trkpt>
<trkpt lat="46.1161530" lon="10.4909110">
	<ele>2012.00</ele>
	<time>2024-07-25T09:07:43.000Z</time>
</trkpt>
<trkpt lat="46.1161590" lon="10.4909300">
	<ele>2012.20</ele>
	<time>2024-07-25T09:07:44.000Z</time>
</trkpt>
<trkpt lat="46.1161680" lon="10.4909460">
	<ele>2012.20</ele>
	<time>2024-07-25T09:07:45.000Z</time>
</trkpt>
<trkpt lat="46.1161790" lon="10.4909540">
	<ele>2011.80</ele>
	<time>2024-07-25T09:07:46.000Z</time>
</trkpt>
<trkpt lat="46.1161860" lon="10.4909590">
	<ele>2011.80</ele>
	<time>2024-07-25T09:07:47.000Z</time>
</trkpt>
<trkpt lat="46.1161990" lon="10.4909650">
	<ele>2011.60</ele>
	<time>2024-07-25T09:07:48.000Z</time>
</trkpt>
<trkpt lat="46.1162180" lon="10.4909750">
	<ele>2011.60</ele>
	<time>2024-07-25T09:07:49.000Z</time>
</trkpt>
<trkpt lat="46.1162360" lon="10.4909880">
	<ele>2011.40</ele>
	<time>2024-07-25T09:07:50.000Z</time>
</trkpt>
<trkpt lat="46.1162480" lon="10.4910020">
	<ele>2011.40</ele>
	<time>2024-07-25T09:07:51.000Z</time>
</trkpt>
<trkpt lat="46.1162590" lon="10.4910150">
	<ele>2011.40</ele>
	<time>2024-07-25T09:07:52.000Z</time>
</trkpt>
<trkpt lat="46.1162730" lon="10.4910230">
	<ele>2011.40</ele>
	<time>2024-07-25T09:07:53.000Z</time>
</trkpt>
<trkpt lat="46.1162890" lon="10.4910320">
	<ele>2011.40</ele>
	<time>2024-07-25T09:07:54.000Z</time>
</trkpt>
<trkpt lat="46.1163020" lon="10.4910410">
	<ele>2011.40</ele>
	<time>2024-07-25T09:07:55.000Z</time>
</trkpt>
<trkpt lat="46.1163140" lon="10.4910490">
	<ele>2011.40</ele>
	<time>2024-07-25T09:07:56.000Z</time>
</trkpt>
<trkpt lat="46.1163220" lon="10.4910570">
	<ele>2011.60</ele>
	<time>2024-07-25T09:07:57.000Z</time>
</trkpt>
<trkpt lat="46.1163330" lon="10.4910670">
	<ele>2011.60</ele>
	<time>2024-07-25T09:07:58.000Z</time>
</trkpt>
<trkpt lat="46.1163430" lon="10.4910790">
	<ele>2011.60</ele>
	<time>2024-07-25T09:07:59.000Z</time>
</trkpt>
<trkpt lat="46.1163570" lon="10.4910900">
	<ele>2011.40</ele>
	<time>2024-07-25T09:08:00.000Z</time>
</trkpt>
<trkpt lat="46.1163670" lon="10.4910980">
	<ele>2011.40</ele>
	<time>2024-07-25T09:08:01.000Z</time>
</trkpt>
<trkpt lat="46.1163760" lon="10.4911090">
	<ele>2011.40</ele>
	<time>2024-07-25T09:08:02.000Z</time>
</trkpt>
<trkpt lat="46.1163860" lon="10.4911230">
	<ele>2011.40</ele>
	<time>2024-07-25T09:08:03.000Z</time>
</trkpt>
<trkpt lat="46.1163950" lon="10.4911350">
	<ele>2011.60</ele>
	<time>2024-07-25T09:08:04.000Z</time>
</trkpt>
<trkpt lat="46.1164030" lon="10.4911440">
	<ele>2011.80</ele>
	<time>2024-07-25T09:08:05.000Z</time>
</trkpt>
<trkpt lat="46.1164160" lon="10.4911510">
	<ele>2012.00</ele>
	<time>2024-07-25T09:08:06.000Z</time>
</trkpt>
<trkpt lat="46.1164260" lon="10.4911540">
	<ele>2012.20</ele>
	<time>2024-07-25T09:08:07.000Z</time>
</trkpt>
<trkpt lat="46.1164370" lon="10.4911630">
	<ele>2012.40</ele>
	<time>2024-07-25T09:08:08.000Z</time>
</trkpt>
<trkpt lat="46.1164430" lon="10.4911770">
	<ele>2012.40</ele>
	<time>2024-07-25T09:08:09.000Z</time>
</trkpt>
<trkpt lat="46.1164510" lon="10.4911870">
	<ele>2012.40</ele>
	<time>2024-07-25T09:08:10.000Z</time>
</trkpt>
<trkpt lat="46.1164600" lon="10.4911920">
	<ele>2012.40</ele>
	<time>2024-07-25T09:08:11.000Z</time>
</trkpt>
<trkpt lat="46.1164690" lon="10.4912020">
	<ele>2012.40</ele>
	<time>2024-07-25T09:08:12.000Z</time>
</trkpt>
<trkpt lat="46.1164790" lon="10.4912130">
	<ele>2012.40</ele>
	<time>2024-07-25T09:08:13.000Z</time>
</trkpt>
<trkpt lat="46.1164890" lon="10.4912240">
	<ele>2012.60</ele>
	<time>2024-07-25T09:08:14.000Z</time>
</trkpt>
<trkpt lat="46.1164980" lon="10.4912340">
	<ele>2012.60</ele>
	<time>2024-07-25T09:08:15.000Z</time>
</trkpt>
<trkpt lat="46.1165090" lon="10.4912430">
	<ele>2012.60</ele>
	<time>2024-07-25T09:08:16.000Z</time>
</trkpt>
<trkpt lat="46.1165200" lon="10.4912520">
	<ele>2012.60</ele>
	<time>2024-07-25T09:08:17.000Z</time>
</trkpt>
<trkpt lat="46.1165300" lon="10.4912610">
	<ele>2012.60</ele>
	<time>2024-07-25T09:08:18.000Z</time>
</trkpt>
<trkpt lat="46.1165380" lon="10.4912720">
	<ele>2012.80</ele>
	<time>2024-07-25T09:08:19.000Z</time>
</trkpt>
<trkpt lat="46.1165460" lon="10.4912820">
	<ele>2012.80</ele>
	<time>2024-07-25T09:08:20.000Z</time>
</trkpt>
<trkpt lat="46.1165540" lon="10.4912900">
	<ele>2013.00</ele>
	<time>2024-07-25T09:08:21.000Z</time>
</trkpt>
<trkpt lat="46.1165630" lon="10.4913040">
	<ele>2013.00</ele>
	<time>2024-07-25T09:08:22.000Z</time>
</trkpt>
<trkpt lat="46.1165710" lon="10.4913150">
	<ele>2013.00</ele>
	<time>2024-07-25T09:08:23.000Z</time>
</trkpt>
<trkpt lat="46.1165810" lon="10.4913240">
	<ele>2013.20</ele>
	<time>2024-07-25T09:08:24.000Z</time>
</trkpt>
<trkpt lat="46.1165900" lon="10.4913340">
	<ele>2013.20</ele>
	<time>2024-07-25T09:08:25.000Z</time>
</trkpt>
<trkpt lat="46.1166000" lon="10.4913450">
	<ele>2013.20</ele>
	<time>2024-07-25T09:08:26.000Z</time>
</trkpt>
<trkpt lat="46.1166070" lon="10.4913540">
	<ele>2013.20</ele>
	<time>2024-07-25T09:08:27.000Z</time>
</trkpt>
<trkpt lat="46.1166180" lon="10.4913690">
	<ele>2013.40</ele>
	<time>2024-07-25T09:08:28.000Z</time>
</trkpt>
<trkpt lat="46.1166300" lon="10.4913830">
	<ele>2013.40</ele>
	<time>2024-07-25T09:08:29.000Z</time>
</trkpt>
<trkpt lat="46.1166390" lon="10.4913950">
	<ele>2013.40</ele>
	<time>2024-07-25T09:08:30.000Z</time>
</trkpt>
<trkpt lat="46.1166480" lon="10.4914030">
	<ele>2013.40</ele>
	<time>2024-07-25T09:08:31.000Z</time>
</trkpt>
<trkpt lat="46.1166570" lon="10.4914190">
	<ele>2013.60</ele>
	<time>2024-07-25T09:08:32.000Z</time>
</trkpt>
<trkpt lat="46.1166630" lon="10.4914350">
	<ele>2013.60</ele>
	<time>2024-07-25T09:08:33.000Z</time>
</trkpt>
<trkpt lat="46.1166690" lon="10.4914510">
	<ele>2013.60</ele>
	<time>2024-07-25T09:08:34.000Z</time>
</trkpt>
<trkpt lat="46.1166770" lon="10.4914660">
	<ele>2013.60</ele>
	<time>2024-07-25T09:08:35.000Z</time>
</trkpt>
<trkpt lat="46.1166840" lon="10.4914800">
	<ele>2013.60</ele>
	<time>2024-07-25T09:08:36.000Z</time>
</trkpt>
<trkpt lat="46.1166900" lon="10.4914930">
	<ele>2013.80</ele>
	<time>2024-07-25T09:08:37.000Z</time>
</trkpt>
<trkpt lat="46.1166950" lon="10.4915080">
	<ele>2013.80</ele>
	<time>2024-07-25T09:08:38.000Z</time>
</trkpt>
<trkpt lat="46.1166990" lon="10.4915240">
	<ele>2013.80</ele>
	<time>2024-07-25T09:08:39.000Z</time>
</trkpt>
<trkpt lat="46.1167050" lon="10.4915450">
	<ele>2014.00</ele>
	<time>2024-07-25T09:08:40.000Z</time>
</trkpt>
<trkpt lat="46.1167110" lon="10.4915600">
	<ele>2014.00</ele>
	<time>2024-07-25T09:08:41.000Z</time>
</trkpt>
<trkpt lat="46.1167190" lon="10.4915730">
	<ele>2014.20</ele>
	<time>2024-07-25T09:08:42.000Z</time>
</trkpt>
<trkpt lat="46.1167280" lon="10.4915810">
	<ele>2014.20</ele>
	<time>2024-07-25T09:08:43.000Z</time>
</trkpt>
<trkpt lat="46.1167370" lon="10.4915940">
	<ele>2014.20</ele>
	<time>2024-07-25T09:08:44.000Z</time>
</trkpt>
<trkpt lat="46.1167440" lon="10.4916070">
	<ele>2014.40</ele>
	<time>2024-07-25T09:08:45.000Z</time>
</trkpt>
<trkpt lat="46.1167510" lon="10.4916200">
	<ele>2014.40</ele>
	<time>2024-07-25T09:08:46.000Z</time>
</trkpt>
<trkpt lat="46.1167570" lon="10.4916340">
	<ele>2014.40</ele>
	<time>2024-07-25T09:08:47.000Z</time>
</trkpt>
<trkpt lat="46.1167600" lon="10.4916450">
	<ele>2014.40</ele>
	<time>2024-07-25T09:08:48.000Z</time>
</trkpt>
<trkpt lat="46.1167660" lon="10.4916610">
	<ele>2014.60</ele>
	<time>2024-07-25T09:08:49.000Z</time>
</trkpt>
<trkpt lat="46.1167730" lon="10.4916760">
	<ele>2014.60</ele>
	<time>2024-07-25T09:08:50.000Z</time>
</trkpt>
<trkpt lat="46.1167820" lon="10.4916920">
	<ele>2014.60</ele>
	<time>2024-07-25T09:08:51.000Z</time>
</trkpt>
<trkpt lat="46.1167900" lon="10.4917110">
	<ele>2014.60</ele>
	<time>2024-07-25T09:08:52.000Z</time>
</trkpt>
<trkpt lat="46.1167940" lon="10.4917280">
	<ele>2014.60</ele>
	<time>2024-07-25T09:08:53.000Z</time>
</trkpt>
<trkpt lat="46.1168020" lon="10.4917410">
	<ele>2014.80</ele>
	<time>2024-07-25T09:08:54.000Z</time>
</trkpt>
<trkpt lat="46.1168090" lon="10.4917510">
	<ele>2014.80</ele>
	<time>2024-07-25T09:08:55.000Z</time>
</trkpt>
<trkpt lat="46.1168170" lon="10.4917660">
	<ele>2014.80</ele>
	<time>2024-07-25T09:08:56.000Z</time>
</trkpt>
<trkpt lat="46.1168240" lon="10.4917720">
	<ele>2014.80</ele>
	<time>2024-07-25T09:08:57.000Z</time>
</trkpt>
<trkpt lat="46.1168370" lon="10.4917860">
	<ele>2014.80</ele>
	<time>2024-07-25T09:08:58.000Z</time>
</trkpt>
<trkpt lat="46.1168480" lon="10.4917980">
	<ele>2015.00</ele>
	<time>2024-07-25T09:08:59.000Z</time>
</trkpt>
<trkpt lat="46.1168590" lon="10.4918080">
	<ele>2015.00</ele>
	<time>2024-07-25T09:09:00.000Z</time>
</trkpt>
<trkpt lat="46.1168670" lon="10.4918210">
	<ele>2015.00</ele>
	<time>2024-07-25T09:09:01.000Z</time>
</trkpt>
<trkpt lat="46.1168750" lon="10.4918350">
	<ele>2015.20</ele>
	<time>2024-07-25T09:09:02.000Z</time>
</trkpt>
<trkpt lat="46.1168840" lon="10.4918510">
	<ele>2015.20</ele>
	<time>2024-07-25T09:09:03.000Z</time>
</trkpt>
<trkpt lat="46.1168920" lon="10.4918640">
	<ele>2015.20</ele>
	<time>2024-07-25T09:09:04.000Z</time>
</trkpt>
<trkpt lat="46.1168980" lon="10.4918790">
	<ele>2015.20</ele>
	<time>2024-07-25T09:09:05.000Z</time>
</trkpt>
<trkpt lat="46.1169030" lon="10.4918950">
	<ele>2015.20</ele>
	<time>2024-07-25T09:09:06.000Z</time>
</trkpt>
<trkpt lat="46.1169070" lon="10.4919120">
	<ele>2015.40</ele>
	<time>2024-07-25T09:09:07.000Z</time>
</trkpt>
<trkpt lat="46.1169100" lon="10.4919260">
	<ele>2015.40</ele>
	<time>2024-07-25T09:09:08.000Z</time>
</trkpt>
<trkpt lat="46.1169170" lon="10.4919470">
	<ele>2015.40</ele>
	<time>2024-07-25T09:09:09.000Z</time>
</trkpt>
<trkpt lat="46.1169250" lon="10.4919610">
	<ele>2015.60</ele>
	<time>2024-07-25T09:09:10.000Z</time>
</trkpt>
<trkpt lat="46.1169320" lon="10.4919730">
	<ele>2015.60</ele>
	<time>2024-07-25T09:09:11.000Z</time>
</trkpt>
<trkpt lat="46.1169390" lon="10.4919830">
	<ele>2015.60</ele>
	<time>2024-07-25T09:09:12.000Z</time>
</trkpt>
<trkpt lat="46.1169470" lon="10.4919990">
	<ele>2015.60</ele>
	<time>2024-07-25T09:09:13.000Z</time>
</trkpt>
<trkpt lat="46.1169530" lon="10.4920140">
	<ele>2015.60</ele>
	<time>2024-07-25T09:09:14.000Z</time>
</trkpt>
<trkpt lat="46.1169600" lon="10.4920250">
	<ele>2015.60</ele>
	<time>2024-07-25T09:09:15.000Z</time>
</trkpt>
<trkpt lat="46.1169660" lon="10.4920360">
	<ele>2015.80</ele>
	<time>2024-07-25T09:09:16.000Z</time>
</trkpt>
<trkpt lat="46.1169750" lon="10.4920510">
	<ele>2015.80</ele>
	<time>2024-07-25T09:09:17.000Z</time>
</trkpt>
<trkpt lat="46.1169830" lon="10.4920620">
	<ele>2015.80</ele>
	<time>2024-07-25T09:09:18.000Z</time>
</trkpt>
<trkpt lat="46.1169820" lon="10.4920740">
	<ele>2015.80</ele>
	<time>2024-07-25T09:09:19.000Z</time>
</trkpt>
<trkpt lat="46.1169850" lon="10.4920880">
	<ele>2015.80</ele>
	<time>2024-07-25T09:09:20.000Z</time>
</trkpt>
<trkpt lat="46.1169900" lon="10.4921030">
	<ele>2015.80</ele>
	<time>2024-07-25T09:09:21.000Z</time>
</trkpt>
<trkpt lat="46.1169930" lon="10.4921230">
	<ele>2016.00</ele>
	<time>2024-07-25T09:09:22.000Z</time>
</trkpt>
<trkpt lat="46.1169960" lon="10.4921320">
	<ele>2016.00</ele>
	<time>2024-07-25T09:09:23.000Z</time>
</trkpt>
<trkpt lat="46.1170030" lon="10.4921430">
	<ele>2016.20</ele>
	<time>2024-07-25T09:09:24.000Z</time>
</trkpt>
<trkpt lat="46.1170100" lon="10.4921570">
	<ele>2016.20</ele>
	<time>2024-07-25T09:09:25.000Z</time>
</trkpt>
<trkpt lat="46.1170140" lon="10.4921700">
	<ele>2016.20</ele>
	<time>2024-07-25T09:09:26.000Z</time>
</trkpt>
<trkpt lat="46.1170190" lon="10.4921830">
	<ele>2016.20</ele>
	<time>2024-07-25T09:09:27.000Z</time>
</trkpt>
<trkpt lat="46.1170300" lon="10.4921990">
	<ele>2016.20</ele>
	<time>2024-07-25T09:09:28.000Z</time>
</trkpt>
<trkpt lat="46.1170380" lon="10.4922110">
	<ele>2016.40</ele>
	<time>2024-07-25T09:09:29.000Z</time>
</trkpt>
<trkpt lat="46.1170480" lon="10.4922270">
	<ele>2016.60</ele>
	<time>2024-07-25T09:09:30.000Z</time>
</trkpt>
<trkpt lat="46.1170530" lon="10.4922380">
	<ele>2016.80</ele>
	<time>2024-07-25T09:09:31.000Z</time>
</trkpt>
<trkpt lat="46.1170580" lon="10.4922520">
	<ele>2017.00</ele>
	<time>2024-07-25T09:09:32.000Z</time>
</trkpt>
<trkpt lat="46.1170640" lon="10.4922660">
	<ele>2017.20</ele>
	<time>2024-07-25T09:09:33.000Z</time>
</trkpt>
<trkpt lat="46.1170720" lon="10.4922800">
	<ele>2017.40</ele>
	<time>2024-07-25T09:09:34.000Z</time>
</trkpt>
<trkpt lat="46.1170770" lon="10.4922890">
	<ele>2017.60</ele>
	<time>2024-07-25T09:09:35.000Z</time>
</trkpt>
<trkpt lat="46.1170810" lon="10.4923010">
	<ele>2017.60</ele>
	<time>2024-07-25T09:09:36.000Z</time>
</trkpt>
<trkpt lat="46.1170870" lon="10.4923130">
	<ele>2017.80</ele>
	<time>2024-07-25T09:09:37.000Z</time>
</trkpt>
<trkpt lat="46.1170900" lon="10.4923280">
	<ele>2017.80</ele>
	<time>2024-07-25T09:09:38.000Z</time>
</trkpt>
<trkpt lat="46.1170950" lon="10.4923410">
	<ele>2018.00</ele>
	<time>2024-07-25T09:09:39.000Z</time>
</trkpt>
<trkpt lat="46.1171030" lon="10.4923570">
	<ele>2018.00</ele>
	<time>2024-07-25T09:09:40.000Z</time>
</trkpt>
<trkpt lat="46.1171100" lon="10.4923720">
	<ele>2018.00</ele>
	<time>2024-07-25T09:09:41.000Z</time>
</trkpt>
<trkpt lat="46.1171150" lon="10.4923830">
	<ele>2018.20</ele>
	<time>2024-07-25T09:09:42.000Z</time>
</trkpt>
<trkpt lat="46.1171200" lon="10.4923950">
	<ele>2018.40</ele>
	<time>2024-07-25T09:09:43.000Z</time>
</trkpt>
<trkpt lat="46.1171260" lon="10.4924110">
	<ele>2018.40</ele>
	<time>2024-07-25T09:09:44.000Z</time>
</trkpt>
<trkpt lat="46.1171290" lon="10.4924260">
	<ele>2018.40</ele>
	<time>2024-07-25T09:09:45.000Z</time>
</trkpt>
<trkpt lat="46.1171350" lon="10.4924360">
	<ele>2018.60</ele>
	<time>2024-07-25T09:09:46.000Z</time>
</trkpt>
<trkpt lat="46.1171440" lon="10.4924490">
	<ele>2018.60</ele>
	<time>2024-07-25T09:09:47.000Z</time>
</trkpt>
<trkpt lat="46.1171520" lon="10.4924630">
	<ele>2018.80</ele>
	<time>2024-07-25T09:09:48.000Z</time>
</trkpt>
<trkpt lat="46.1171580" lon="10.4924800">
	<ele>2018.80</ele>
	<time>2024-07-25T09:09:49.000Z</time>
</trkpt>
<trkpt lat="46.1171670" lon="10.4924910">
	<ele>2018.80</ele>
	<time>2024-07-25T09:09:50.000Z</time>
</trkpt>
<trkpt lat="46.1171740" lon="10.4925040">
	<ele>2018.80</ele>
	<time>2024-07-25T09:09:51.000Z</time>
</trkpt>
<trkpt lat="46.1171830" lon="10.4925150">
	<ele>2018.80</ele>
	<time>2024-07-25T09:09:52.000Z</time>
</trkpt>
<trkpt lat="46.1171940" lon="10.4925250">
	<ele>2019.00</ele>
	<time>2024-07-25T09:09:53.000Z</time>
</trkpt>
<trkpt lat="46.1172010" lon="10.4925330">
	<ele>2019.00</ele>
	<time>2024-07-25T09:09:54.000Z</time>
</trkpt>
<trkpt lat="46.1172110" lon="10.4925410">
	<ele>2019.00</ele>
	<time>2024-07-25T09:09:55.000Z</time>
</trkpt>
<trkpt lat="46.1172200" lon="10.4925530">
	<ele>2019.20</ele>
	<time>2024-07-25T09:09:56.000Z</time>
</trkpt>
<trkpt lat="46.1172270" lon="10.4925620">
	<ele>2019.20</ele>
	<time>2024-07-25T09:09:57.000Z</time>
</trkpt>
<trkpt lat="46.1172360" lon="10.4925700">
	<ele>2019.20</ele>
	<time>2024-07-25T09:09:58.000Z</time>
</trkpt>
<trkpt lat="46.1172450" lon="10.4925800">
	<ele>2019.40</ele>
	<time>2024-07-25T09:09:59.000Z</time>
</trkpt>
<trkpt lat="46.1172530" lon="10.4925890">
	<ele>2019.60</ele>
	<time>2024-07-25T09:10:00.000Z</time>
</trkpt>
<trkpt lat="46.1172600" lon="10.4926020">
	<ele>2019.80</ele>
	<time>2024-07-25T09:10:01.000Z</time>
</trkpt>
<trkpt lat="46.1172660" lon="10.4926160">
	<ele>2019.80</ele>
	<time>2024-07-25T09:10:02.000Z</time>
</trkpt>
<trkpt lat="46.1172740" lon="10.4926300">
	<ele>2020.00</ele>
	<time>2024-07-25T09:10:03.000Z</time>
</trkpt>
<trkpt lat="46.1172820" lon="10.4926380">
	<ele>2020.20</ele>
	<time>2024-07-25T09:10:04.000Z</time>
</trkpt>
<trkpt lat="46.1172910" lon="10.4926500">
	<ele>2020.20</ele>
	<time>2024-07-25T09:10:05.000Z</time>
</trkpt>
<trkpt lat="46.1172980" lon="10.4926620">
	<ele>2020.20</ele>
	<time>2024-07-25T09:10:06.000Z</time>
</trkpt>
<trkpt lat="46.1173050" lon="10.4926750">
	<ele>2020.40</ele>
	<time>2024-07-25T09:10:07.000Z</time>
</trkpt>
<trkpt lat="46.1173160" lon="10.4926860">
	<ele>2020.40</ele>
	<time>2024-07-25T09:10:08.000Z</time>
</trkpt>
<trkpt lat="46.1173250" lon="10.4926960">
	<ele>2020.40</ele>
	<time>2024-07-25T09:10:09.000Z</time>
</trkpt>
<trkpt lat="46.1173320" lon="10.4927050">
	<ele>2020.40</ele>
	<time>2024-07-25T09:10:10.000Z</time>
</trkpt>
<trkpt lat="46.1173380" lon="10.4927150">
	<ele>2020.40</ele>
	<time>2024-07-25T09:10:11.000Z</time>
</trkpt>
<trkpt lat="46.1173480" lon="10.4927260">
	<ele>2020.80</ele>
	<time>2024-07-25T09:10:12.000Z</time>
</trkpt>
<trkpt lat="46.1173560" lon="10.4927350">
	<ele>2020.80</ele>
	<time>2024-07-25T09:10:13.000Z</time>
</trkpt>
<trkpt lat="46.1173660" lon="10.4927440">
	<ele>2021.00</ele>
	<time>2024-07-25T09:10:14.000Z</time>
</trkpt>
<trkpt lat="46.1173740" lon="10.4927530">
	<ele>2021.20</ele>
	<time>2024-07-25T09:10:15.000Z</time>
</trkpt>
<trkpt lat="46.1173810" lon="10.4927610">
	<ele>2021.20</ele>
	<time>2024-07-25T09:10:16.000Z</time>
</trkpt>
<trkpt lat="46.1173870" lon="10.4927680">
	<ele>2021.40</ele>
	<time>2024-07-25T09:10:17.000Z</time>
</trkpt>
<trkpt lat="46.1173960" lon="10.4927800">
	<ele>2021.40</ele>
	<time>2024-07-25T09:10:18.000Z</time>
</trkpt>
<trkpt lat="46.1174060" lon="10.4927920">
	<ele>2021.60</ele>
	<time>2024-07-25T09:10:19.000Z</time>
</trkpt>
<trkpt lat="46.1174160" lon="10.4928030">
	<ele>2021.60</ele>
	<time>2024-07-25T09:10:20.000Z</time>
</trkpt>
<trkpt lat="46.1174270" lon="10.4928130">
	<ele>2021.60</ele>
	<time>2024-07-25T09:10:21.000Z</time>
</trkpt>
<trkpt lat="46.1174360" lon="10.4928210">
	<ele>2021.80</ele>
	<time>2024-07-25T09:10:22.000Z</time>
</trkpt>
<trkpt lat="46.1174400" lon="10.4928280">
	<ele>2021.80</ele>
	<time>2024-07-25T09:10:23.000Z</time>
</trkpt>
<trkpt lat="46.1174460" lon="10.4928360">
	<ele>2022.00</ele>
	<time>2024-07-25T09:10:24.000Z</time>
</trkpt>
<trkpt lat="46.1174520" lon="10.4928460">
	<ele>2022.20</ele>
	<time>2024-07-25T09:10:25.000Z</time>
</trkpt>
<trkpt lat="46.1174600" lon="10.4928570">
	<ele>2022.20</ele>
	<time>2024-07-25T09:10:26.000Z</time>
</trkpt>
<trkpt lat="46.1174690" lon="10.4928720">
	<ele>2022.20</ele>
	<time>2024-07-25T09:10:27.000Z</time>
</trkpt>
<trkpt lat="46.1174750" lon="10.4928870">
	<ele>2022.40</ele>
	<time>2024-07-25T09:10:28.000Z</time>
</trkpt>
<trkpt lat="46.1174840" lon="10.4928990">
	<ele>2022.40</ele>
	<time>2024-07-25T09:10:29.000Z</time>
</trkpt>
<trkpt lat="46.1174940" lon="10.4929120">
	<ele>2022.60</ele>
	<time>2024-07-25T09:10:30.000Z</time>
</trkpt>
<trkpt lat="46.1175010" lon="10.4929210">
	<ele>2022.60</ele>
	<time>2024-07-25T09:10:31.000Z</time>
</trkpt>
<trkpt lat="46.1175040" lon="10.4929340">
	<ele>2022.80</ele>
	<time>2024-07-25T09:10:32.000Z</time>
</trkpt>
<trkpt lat="46.1175090" lon="10.4929480">
	<ele>2022.80</ele>
	<time>2024-07-25T09:10:33.000Z</time>
</trkpt>
<trkpt lat="46.1175150" lon="10.4929620">
	<ele>2023.00</ele>
	<time>2024-07-25T09:10:34.000Z</time>
</trkpt>
<trkpt lat="46.1175200" lon="10.4929740">
	<ele>2023.20</ele>
	<time>2024-07-25T09:10:35.000Z</time>
</trkpt>
<trkpt lat="46.1175260" lon="10.4929870">
	<ele>2023.40</ele>
	<time>2024-07-25T09:10:36.000Z</time>
</trkpt>
<trkpt lat="46.1175310" lon="10.4930040">
	<ele>2023.40</ele>
	<time>2024-07-25T09:10:37.000Z</time>
</trkpt>
<trkpt lat="46.1175370" lon="10.4930180">
	<ele>2023.60</ele>
	<time>2024-07-25T09:10:38.000Z</time>
</trkpt>
<trkpt lat="46.1175420" lon="10.4930350">
	<ele>2023.60</ele>
	<time>2024-07-25T09:10:39.000Z</time>
</trkpt>
<trkpt lat="46.1175490" lon="10.4930470">
	<ele>2023.80</ele>
	<time>2024-07-25T09:10:40.000Z</time>
</trkpt>
<trkpt lat="46.1175580" lon="10.4930600">
	<ele>2024.00</ele>
	<time>2024-07-25T09:10:41.000Z</time>
</trkpt>
<trkpt lat="46.1175670" lon="10.4930720">
	<ele>2024.20</ele>
	<time>2024-07-25T09:10:42.000Z</time>
</trkpt>
<trkpt lat="46.1175750" lon="10.4930890">
	<ele>2024.20</ele>
	<time>2024-07-25T09:10:43.000Z</time>
</trkpt>
<trkpt lat="46.1175850" lon="10.4931030">
	<ele>2024.40</ele>
	<time>2024-07-25T09:10:44.000Z</time>
</trkpt>
<trkpt lat="46.1175950" lon="10.4931130">
	<ele>2024.60</ele>
	<time>2024-07-25T09:10:45.000Z</time>
</trkpt>
<trkpt lat="46.1176030" lon="10.4931210">
	<ele>2024.60</ele>
	<time>2024-07-25T09:10:46.000Z</time>
</trkpt>
<trkpt lat="46.1176100" lon="10.4931350">
	<ele>2024.80</ele>
	<time>2024-07-25T09:10:47.000Z</time>
</trkpt>
<trkpt lat="46.1176180" lon="10.4931490">
	<ele>2024.80</ele>
	<time>2024-07-25T09:10:48.000Z</time>
</trkpt>
<trkpt lat="46.1176260" lon="10.4931650">
	<ele>2024.80</ele>
	<time>2024-07-25T09:10:49.000Z</time>
</trkpt>
<trkpt lat="46.1176330" lon="10.4931840">
	<ele>2024.80</ele>
	<time>2024-07-25T09:10:50.000Z</time>
</trkpt>
<trkpt lat="46.1176390" lon="10.4932020">
	<ele>2024.80</ele>
	<time>2024-07-25T09:10:51.000Z</time>
</trkpt>
<trkpt lat="46.1176490" lon="10.4932150">
	<ele>2024.80</ele>
	<time>2024-07-25T09:10:52.000Z</time>
</trkpt>
<trkpt lat="46.1176570" lon="10.4932260">
	<ele>2024.80</ele>
	<time>2024-07-25T09:10:53.000Z</time>
</trkpt>
<trkpt lat="46.1176670" lon="10.4932370">
	<ele>2024.80</ele>
	<time>2024-07-25T09:10:54.000Z</time>
</trkpt>
<trkpt lat="46.1176760" lon="10.4932520">
	<ele>2024.80</ele>
	<time>2024-07-25T09:10:55.000Z</time>
</trkpt>
<trkpt lat="46.1176840" lon="10.4932650">
	<ele>2024.80</ele>
	<time>2024-07-25T09:10:56.000Z</time>
</trkpt>
<trkpt lat="46.1176920" lon="10.4932790">
	<ele>2024.80</ele>
	<time>2024-07-25T09:10:57.000Z</time>
</trkpt>
<trkpt lat="46.1176990" lon="10.4932880">
	<ele>2024.80</ele>
	<time>2024-07-25T09:10:58.000Z</time>
</trkpt>
<trkpt lat="46.1177050" lon="10.4933000">
	<ele>2024.80</ele>
	<time>2024-07-25T09:10:59.000Z</time>
</trkpt>
<trkpt lat="46.1177110" lon="10.4933120">
	<ele>2025.00</ele>
	<time>2024-07-25T09:11:00.000Z</time>
</trkpt>
<trkpt lat="46.1177170" lon="10.4933250">
	<ele>2025.00</ele>
	<time>2024-07-25T09:11:01.000Z</time>
</trkpt>
<trkpt lat="46.1177230" lon="10.4933350">
	<ele>2025.00</ele>
	<time>2024-07-25T09:11:02.000Z</time>
</trkpt>
<trkpt lat="46.1177300" lon="10.4933450">
	<ele>2025.00</ele>
	<time>2024-07-25T09:11:03.000Z</time>
</trkpt>
<trkpt lat="46.1177370" lon="10.4933580">
	<ele>2025.00</ele>
	<time>2024-07-25T09:11:04.000Z</time>
</trkpt>
<trkpt lat="46.1177450" lon="10.4933720">
	<ele>2025.00</ele>
	<time>2024-07-25T09:11:05.000Z</time>
</trkpt>
<trkpt lat="46.1177560" lon="10.4933880">
	<ele>2025.00</ele>
	<time>2024-07-25T09:11:06.000Z</time>
</trkpt>
<trkpt lat="46.1177610" lon="10.4934010">
	<ele>2025.00</ele>
	<time>2024-07-25T09:11:07.000Z</time>
</trkpt>
<trkpt lat="46.1177690" lon="10.4934170">
	<ele>2025.00</ele>
	<time>2024-07-25T09:11:08.000Z</time>
</trkpt>
<trkpt lat="46.1177780" lon="10.4934320">
	<ele>2025.00</ele>
	<time>2024-07-25T09:11:09.000Z</time>
</trkpt>
<trkpt lat="46.1177860" lon="10.4934470">
	<ele>2025.00</ele>
	<time>2024-07-25T09:11:10.000Z</time>
</trkpt>
<trkpt lat="46.1177940" lon="10.4934600">
	<ele>2025.00</ele>
	<time>2024-07-25T09:11:11.000Z</time>
</trkpt>
<trkpt lat="46.1178040" lon="10.4934790">
	<ele>2025.00</ele>
	<time>2024-07-25T09:11:12.000Z</time>
</trkpt>
<trkpt lat="46.1178100" lon="10.4934950">
	<ele>2025.20</ele>
	<time>2024-07-25T09:11:13.000Z</time>
</trkpt>
<trkpt lat="46.1178170" lon="10.4935090">
	<ele>2025.00</ele>
	<time>2024-07-25T09:11:14.000Z</time>
</trkpt>
<trkpt lat="46.1178250" lon="10.4935250">
	<ele>2025.00</ele>
	<time>2024-07-25T09:11:15.000Z</time>
</trkpt>
<trkpt lat="46.1178320" lon="10.4935380">
	<ele>2025.00</ele>
	<time>2024-07-25T09:11:16.000Z</time>
</trkpt>
<trkpt lat="46.1178420" lon="10.4935510">
	<ele>2025.00</ele>
	<time>2024-07-25T09:11:17.000Z</time>
</trkpt>
<trkpt lat="46.1178520" lon="10.4935620">
	<ele>2025.00</ele>
	<time>2024-07-25T09:11:18.000Z</time>
</trkpt>
<trkpt lat="46.1178630" lon="10.4935750">
	<ele>2025.00</ele>
	<time>2024-07-25T09:11:19.000Z</time>
</trkpt>
<trkpt lat="46.1178720" lon="10.4935900">
	<ele>2025.00</ele>
	<time>2024-07-25T09:11:20.000Z</time>
</trkpt>
<trkpt lat="46.1178830" lon="10.4936060">
	<ele>2025.00</ele>
	<time>2024-07-25T09:11:21.000Z</time>
</trkpt>
<trkpt lat="46.1178920" lon="10.4936200">
	<ele>2025.00</ele>
	<time>2024-07-25T09:11:22.000Z</time>
</trkpt>
<trkpt lat="46.1179020" lon="10.4936300">
	<ele>2024.80</ele>
	<time>2024-07-25T09:11:23.000Z</time>
</trkpt>
<trkpt lat="46.1179120" lon="10.4936380">
	<ele>2024.80</ele>
	<time>2024-07-25T09:11:24.000Z</time>
</trkpt>
<trkpt lat="46.1179210" lon="10.4936440">
	<ele>2024.80</ele>
	<time>2024-07-25T09:11:25.000Z</time>
</trkpt>
<trkpt lat="46.1179300" lon="10.4936530">
	<ele>2024.80</ele>
	<time>2024-07-25T09:11:26.000Z</time>
</trkpt>
<trkpt lat="46.1179390" lon="10.4936660">
	<ele>2024.80</ele>
	<time>2024-07-25T09:11:27.000Z</time>
</trkpt>
<trkpt lat="46.1179500" lon="10.4936780">
	<ele>2024.80</ele>
	<time>2024-07-25T09:11:28.000Z</time>
</trkpt>
<trkpt lat="46.1179620" lon="10.4936920">
	<ele>2024.80</ele>
	<time>2024-07-25T09:11:29.000Z</time>
</trkpt>
<trkpt lat="46.1179710" lon="10.4937070">
	<ele>2024.80</ele>
	<time>2024-07-25T09:11:30.000Z</time>
</trkpt>
<trkpt lat="46.1179800" lon="10.4937190">
	<ele>2024.60</ele>
	<time>2024-07-25T09:11:31.000Z</time>
</trkpt>
<trkpt lat="46.1179890" lon="10.4937300">
	<ele>2024.60</ele>
	<time>2024-07-25T09:11:32.000Z</time>
</trkpt>
<trkpt lat="46.1179970" lon="10.4937430">
	<ele>2024.60</ele>
	<time>2024-07-25T09:11:33.000Z</time>
</trkpt>
<trkpt lat="46.1180010" lon="10.4937590">
	<ele>2024.60</ele>
	<time>2024-07-25T09:11:34.000Z</time>
</trkpt>
<trkpt lat="46.1180060" lon="10.4937730">
	<ele>2024.60</ele>
	<time>2024-07-25T09:11:35.000Z</time>
</trkpt>
<trkpt lat="46.1180100" lon="10.4937900">
	<ele>2024.80</ele>
	<time>2024-07-25T09:11:36.000Z</time>
</trkpt>
<trkpt lat="46.1180130" lon="10.4938070">
	<ele>2024.80</ele>
	<time>2024-07-25T09:11:37.000Z</time>
</trkpt>
<trkpt lat="46.1180210" lon="10.4938200">
	<ele>2024.80</ele>
	<time>2024-07-25T09:11:38.000Z</time>
</trkpt>
<trkpt lat="46.1180250" lon="10.4938360">
	<ele>2025.00</ele>
	<time>2024-07-25T09:11:39.000Z</time>
</trkpt>
<trkpt lat="46.1180310" lon="10.4938530">
	<ele>2025.00</ele>
	<time>2024-07-25T09:11:40.000Z</time>
</trkpt>
<trkpt lat="46.1180370" lon="10.4938680">
	<ele>2025.20</ele>
	<time>2024-07-25T09:11:41.000Z</time>
</trkpt>
<trkpt lat="46.1180440" lon="10.4938800">
	<ele>2025.40</ele>
	<time>2024-07-25T09:11:42.000Z</time>
</trkpt>
<trkpt lat="46.1180520" lon="10.4938880">
	<ele>2025.60</ele>
	<time>2024-07-25T09:11:43.000Z</time>
</trkpt>
<trkpt lat="46.1180600" lon="10.4938980">
	<ele>2025.80</ele>
	<time>2024-07-25T09:11:44.000Z</time>
</trkpt>
<trkpt lat="46.1180650" lon="10.4939100">
	<ele>2025.80</ele>
	<time>2024-07-25T09:11:45.000Z</time>
</trkpt>
<trkpt lat="46.1180700" lon="10.4939260">
	<ele>2025.80</ele>
	<time>2024-07-25T09:11:46.000Z</time>
</trkpt>
<trkpt lat="46.1180690" lon="10.4939420">
	<ele>2026.00</ele>
	<time>2024-07-25T09:11:47.000Z</time>
</trkpt>
<trkpt lat="46.1180730" lon="10.4939570">
	<ele>2026.20</ele>
	<time>2024-07-25T09:11:48.000Z</time>
</trkpt>
<trkpt lat="46.1180750" lon="10.4939690">
	<ele>2026.20</ele>
	<time>2024-07-25T09:11:49.000Z</time>
</trkpt>
<trkpt lat="46.1180790" lon="10.4939820">
	<ele>2026.60</ele>
	<time>2024-07-25T09:11:50.000Z</time>
</trkpt>
<trkpt lat="46.1180830" lon="10.4939900">
	<ele>2026.80</ele>
	<time>2024-07-25T09:11:51.000Z</time>
</trkpt>
<trkpt lat="46.1180870" lon="10.4939990">
	<ele>2027.00</ele>
	<time>2024-07-25T09:11:52.000Z</time>
</trkpt>
<trkpt lat="46.1180920" lon="10.4940080">
	<ele>2027.00</ele>
	<time>2024-07-25T09:11:53.000Z</time>
</trkpt>
<trkpt lat="46.1180980" lon="10.4940160">
	<ele>2027.20</ele>
	<time>2024-07-25T09:11:54.000Z</time>
</trkpt>
<trkpt lat="46.1181000" lon="10.4940290">
	<ele>2027.40</ele>
	<time>2024-07-25T09:11:55.000Z</time>
</trkpt>
<trkpt lat="46.1181050" lon="10.4940410">
	<ele>2027.40</ele>
	<time>2024-07-25T09:11:56.000Z</time>
</trkpt>
<trkpt lat="46.1181110" lon="10.4940520">
	<ele>2027.60</ele>
	<time>2024-07-25T09:11:57.000Z</time>
</trkpt>
<trkpt lat="46.1181130" lon="10.4940620">
	<ele>2027.60</ele>
	<time>2024-07-25T09:11:58.000Z</time>
</trkpt>
<trkpt lat="46.1181160" lon="10.4940710">
	<ele>2027.80</ele>
	<time>2024-07-25T09:11:59.000Z</time>
</trkpt>
<trkpt lat="46.1181200" lon="10.4940810">
	<ele>2027.80</ele>
	<time>2024-07-25T09:12:00.000Z</time>
</trkpt>
<trkpt lat="46.1181210" lon="10.4940910">
	<ele>2028.20</ele>
	<time>2024-07-25T09:12:01.000Z</time>
</trkpt>
<trkpt lat="46.1181230" lon="10.4941000">
	<ele>2028.40</ele>
	<time>2024-07-25T09:12:02.000Z</time>
</trkpt>
<trkpt lat="46.1181270" lon="10.4941140">
	<ele>2028.60</ele>
	<time>2024-07-25T09:12:03.000Z</time>
</trkpt>
<trkpt lat="46.1181310" lon="10.4941270">
	<ele>2028.60</ele>
	<time>2024-07-25T09:12:04.000Z</time>
</trkpt>
<trkpt lat="46.1181330" lon="10.4941380">
	<ele>2028.80</ele>
	<time>2024-07-25T09:12:05.000Z</time>
</trkpt>
<trkpt lat="46.1181350" lon="10.4941510">
	<ele>2028.80</ele>
	<time>2024-07-25T09:12:06.000Z</time>
</trkpt>
<trkpt lat="46.1181400" lon="10.4941650">
	<ele>2029.20</ele>
	<time>2024-07-25T09:12:07.000Z</time>
</trkpt>
<trkpt lat="46.1181450" lon="10.4941740">
	<ele>2029.40</ele>
	<time>2024-07-25T09:12:08.000Z</time>
</trkpt>
<trkpt lat="46.1181490" lon="10.4941820">
	<ele>2029.60</ele>
	<time>2024-07-25T09:12:09.000Z</time>
</trkpt>
<trkpt lat="46.1181520" lon="10.4941910">
	<ele>2029.80</ele>
	<time>2024-07-25T09:12:10.000Z</time>
</trkpt>
<trkpt lat="46.1181570" lon="10.4942020">
	<ele>2029.80</ele>
	<time>2024-07-25T09:12:11.000Z</time>
</trkpt>
<trkpt lat="46.1181600" lon="10.4942130">
	<ele>2030.20</ele>
	<time>2024-07-25T09:12:12.000Z</time>
</trkpt>
<trkpt lat="46.1181630" lon="10.4942220">
	<ele>2030.20</ele>
	<time>2024-07-25T09:12:13.000Z</time>
</trkpt>
<trkpt lat="46.1181660" lon="10.4942310">
	<ele>2030.40</ele>
	<time>2024-07-25T09:12:14.000Z</time>
</trkpt>
<trkpt lat="46.1181680" lon="10.4942420">
	<ele>2030.60</ele>
	<time>2024-07-25T09:12:15.000Z</time>
</trkpt>
<trkpt lat="46.1181720" lon="10.4942530">
	<ele>2030.60</ele>
	<time>2024-07-25T09:12:16.000Z</time>
</trkpt>
<trkpt lat="46.1181760" lon="10.4942640">
	<ele>2030.80</ele>
	<time>2024-07-25T09:12:17.000Z</time>
</trkpt>
<trkpt lat="46.1181800" lon="10.4942750">
	<ele>2030.80</ele>
	<time>2024-07-25T09:12:18.000Z</time>
</trkpt>
<trkpt lat="46.1181820" lon="10.4942830">
	<ele>2031.00</ele>
	<time>2024-07-25T09:12:19.000Z</time>
</trkpt>
<trkpt lat="46.1181830" lon="10.4942930">
	<ele>2031.00</ele>
	<time>2024-07-25T09:12:20.000Z</time>
</trkpt>
<trkpt lat="46.1181850" lon="10.4943040">
	<ele>2031.40</ele>
	<time>2024-07-25T09:12:21.000Z</time>
</trkpt>
<trkpt lat="46.1181890" lon="10.4943170">
	<ele>2031.60</ele>
	<time>2024-07-25T09:12:22.000Z</time>
</trkpt>
<trkpt lat="46.1181890" lon="10.4943280">
	<ele>2031.80</ele>
	<time>2024-07-25T09:12:23.000Z</time>
</trkpt>
<trkpt lat="46.1181910" lon="10.4943390">
	<ele>2032.20</ele>
	<time>2024-07-25T09:12:24.000Z</time>
</trkpt>
<trkpt lat="46.1181950" lon="10.4943490">
	<ele>2032.20</ele>
	<time>2024-07-25T09:12:25.000Z</time>
</trkpt>
<trkpt lat="46.1182000" lon="10.4943600">
	<ele>2032.40</ele>
	<time>2024-07-25T09:12:26.000Z</time>
</trkpt>
<trkpt lat="46.1182060" lon="10.4943680">
	<ele>2032.60</ele>
	<time>2024-07-25T09:12:27.000Z</time>
</trkpt>
<trkpt lat="46.1182110" lon="10.4943780">
	<ele>2032.80</ele>
	<time>2024-07-25T09:12:28.000Z</time>
</trkpt>
<trkpt lat="46.1182150" lon="10.4943870">
	<ele>2032.80</ele>
	<time>2024-07-25T09:12:29.000Z</time>
</trkpt>
<trkpt lat="46.1182190" lon="10.4943970">
	<ele>2033.20</ele>
	<time>2024-07-25T09:12:30.000Z</time>
</trkpt>
<trkpt lat="46.1182240" lon="10.4944050">
	<ele>2033.80</ele>
	<time>2024-07-25T09:12:31.000Z</time>
</trkpt>
<trkpt lat="46.1182270" lon="10.4944150">
	<ele>2034.00</ele>
	<time>2024-07-25T09:12:32.000Z</time>
</trkpt>
<trkpt lat="46.1182300" lon="10.4944270">
	<ele>2034.20</ele>
	<time>2024-07-25T09:12:33.000Z</time>
</trkpt>
<trkpt lat="46.1182330" lon="10.4944380">
	<ele>2034.60</ele>
	<time>2024-07-25T09:12:34.000Z</time>
</trkpt>
<trkpt lat="46.1182380" lon="10.4944480">
	<ele>2034.60</ele>
	<time>2024-07-25T09:12:35.000Z</time>
</trkpt>
<trkpt lat="46.1182430" lon="10.4944570">
	<ele>2034.80</ele>
	<time>2024-07-25T09:12:36.000Z</time>
</trkpt>
<trkpt lat="46.1182490" lon="10.4944660">
	<ele>2035.20</ele>
	<time>2024-07-25T09:12:37.000Z</time>
</trkpt>
<trkpt lat="46.1182550" lon="10.4944760">
	<ele>2035.40</ele>
	<time>2024-07-25T09:12:38.000Z</time>
</trkpt>
<trkpt lat="46.1182580" lon="10.4944870">
	<ele>2035.60</ele>
	<time>2024-07-25T09:12:39.000Z</time>
</trkpt>
<trkpt lat="46.1182590" lon="10.4944970">
	<ele>2035.80</ele>
	<time>2024-07-25T09:12:40.000Z</time>
</trkpt>
<trkpt lat="46.1182630" lon="10.4945140">
	<ele>2035.80</ele>
	<time>2024-07-25T09:12:41.000Z</time>
</trkpt>
<trkpt lat="46.1182670" lon="10.4945240">
	<ele>2036.00</ele>
	<time>2024-07-25T09:12:42.000Z</time>
</trkpt>
<trkpt lat="46.1182730" lon="10.4945340">
	<ele>2036.00</ele>
	<time>2024-07-25T09:12:43.000Z</time>
</trkpt>
<trkpt lat="46.1182800" lon="10.4945450">
	<ele>2036.20</ele>
	<time>2024-07-25T09:12:44.000Z</time>
</trkpt>
<trkpt lat="46.1182840" lon="10.4945520">
	<ele>2036.40</ele>
	<time>2024-07-25T09:12:45.000Z</time>
</trkpt>
<trkpt lat="46.1182890" lon="10.4945630">
	<ele>2036.60</ele>
	<time>2024-07-25T09:12:46.000Z</time>
</trkpt>
<trkpt lat="46.1182960" lon="10.4945750">
	<ele>2036.60</ele>
	<time>2024-07-25T09:12:47.000Z</time>
</trkpt>
<trkpt lat="46.1183000" lon="10.4945860">
	<ele>2037.00</ele>
	<time>2024-07-25T09:12:48.000Z</time>
</trkpt>
<trkpt lat="46.1183050" lon="10.4945960">
	<ele>2037.20</ele>
	<time>2024-07-25T09:12:49.000Z</time>
</trkpt>
<trkpt lat="46.1183090" lon="10.4946050">
	<ele>2037.40</ele>
	<time>2024-07-25T09:12:50.000Z</time>
</trkpt>
<trkpt lat="46.1183160" lon="10.4946140">
	<ele>2037.60</ele>
	<time>2024-07-25T09:12:51.000Z</time>
</trkpt>
<trkpt lat="46.1183250" lon="10.4946240">
	<ele>2037.80</ele>
	<time>2024-07-25T09:12:52.000Z</time>
</trkpt>
<trkpt lat="46.1183310" lon="10.4946320">
	<ele>2037.80</ele>
	<time>2024-07-25T09:12:53.000Z</time>
</trkpt>
<trkpt lat="46.1183350" lon="10.4946390">
	<ele>2038.00</ele>
	<time>2024-07-25T09:12:54.000Z</time>
</trkpt>
<trkpt lat="46.1183400" lon="10.4946480">
	<ele>2038.00</ele>
	<time>2024-07-25T09:12:55.000Z</time>
</trkpt>
<trkpt lat="46.1183460" lon="10.4946590">
	<ele>2038.20</ele>
	<time>2024-07-25T09:12:56.000Z</time>
</trkpt>
<trkpt lat="46.1183490" lon="10.4946700">
	<ele>2038.20</ele>
	<time>2024-07-25T09:12:57.000Z</time>
</trkpt>
<trkpt lat="46.1183560" lon="10.4946820">
	<ele>2038.40</ele>
	<time>2024-07-25T09:12:58.000Z</time>
</trkpt>
<trkpt lat="46.1183600" lon="10.4946920">
	<ele>2038.60</ele>
	<time>2024-07-25T09:12:59.000Z</time>
</trkpt>
<trkpt lat="46.1183650" lon="10.4947000">
	<ele>2038.60</ele>
	<time>2024-07-25T09:13:00.000Z</time>
</trkpt>
<trkpt lat="46.1183710" lon="10.4947100">
	<ele>2038.60</ele>
	<time>2024-07-25T09:13:01.000Z</time>
</trkpt>
<trkpt lat="46.1183760" lon="10.4947190">
	<ele>2038.80</ele>
	<time>2024-07-25T09:13:02.000Z</time>
</trkpt>
<trkpt lat="46.1183820" lon="10.4947340">
	<ele>2038.80</ele>
	<time>2024-07-25T09:13:03.000Z</time>
</trkpt>
<trkpt lat="46.1183860" lon="10.4947480">
	<ele>2039.00</ele>
	<time>2024-07-25T09:13:04.000Z</time>
</trkpt>
<trkpt lat="46.1183910" lon="10.4947590">
	<ele>2039.00</ele>
	<time>2024-07-25T09:13:05.000Z</time>
</trkpt>
<trkpt lat="46.1183980" lon="10.4947710">
	<ele>2039.00</ele>
	<time>2024-07-25T09:13:06.000Z</time>
</trkpt>
<trkpt lat="46.1184040" lon="10.4947840">
	<ele>2039.00</ele>
	<time>2024-07-25T09:13:07.000Z</time>
</trkpt>
<trkpt lat="46.1184100" lon="10.4947990">
	<ele>2039.20</ele>
	<time>2024-07-25T09:13:08.000Z</time>
</trkpt>
<trkpt lat="46.1184160" lon="10.4948110">
	<ele>2039.20</ele>
	<time>2024-07-25T09:13:09.000Z</time>
</trkpt>
<trkpt lat="46.1184240" lon="10.4948220">
	<ele>2039.20</ele>
	<time>2024-07-25T09:13:10.000Z</time>
</trkpt>
<trkpt lat="46.1184320" lon="10.4948340">
	<ele>2039.20</ele>
	<time>2024-07-25T09:13:11.000Z</time>
</trkpt>
<trkpt lat="46.1184380" lon="10.4948450">
	<ele>2039.20</ele>
	<time>2024-07-25T09:13:12.000Z</time>
</trkpt>
<trkpt lat="46.1184420" lon="10.4948560">
	<ele>2039.40</ele>
	<time>2024-07-25T09:13:13.000Z</time>
</trkpt>
<trkpt lat="46.1184470" lon="10.4948680">
	<ele>2039.40</ele>
	<time>2024-07-25T09:13:14.000Z</time>
</trkpt>
<trkpt lat="46.1184510" lon="10.4948820">
	<ele>2039.40</ele>
	<time>2024-07-25T09:13:15.000Z</time>
</trkpt>
<trkpt lat="46.1184570" lon="10.4948930">
	<ele>2039.60</ele>
	<time>2024-07-25T09:13:16.000Z</time>
</trkpt>
<trkpt lat="46.1184610" lon="10.4949020">
	<ele>2039.60</ele>
	<time>2024-07-25T09:13:17.000Z</time>
</trkpt>
<trkpt lat="46.1184650" lon="10.4949140">
	<ele>2039.80</ele>
	<time>2024-07-25T09:13:18.000Z</time>
</trkpt>
<trkpt lat="46.1184680" lon="10.4949300">
	<ele>2039.80</ele>
	<time>2024-07-25T09:13:19.000Z</time>
</trkpt>
<trkpt lat="46.1184720" lon="10.4949410">
	<ele>2039.80</ele>
	<time>2024-07-25T09:13:20.000Z</time>
</trkpt>
<trkpt lat="46.1184790" lon="10.4949530">
	<ele>2040.00</ele>
	<time>2024-07-25T09:13:21.000Z</time>
</trkpt>
<trkpt lat="46.1184840" lon="10.4949650">
	<ele>2040.20</ele>
	<time>2024-07-25T09:13:22.000Z</time>
</trkpt>
<trkpt lat="46.1184870" lon="10.4949780">
	<ele>2040.40</ele>
	<time>2024-07-25T09:13:23.000Z</time>
</trkpt>
<trkpt lat="46.1184910" lon="10.4949890">
	<ele>2040.60</ele>
	<time>2024-07-25T09:13:24.000Z</time>
</trkpt>
<trkpt lat="46.1184970" lon="10.4949980">
	<ele>2040.80</ele>
	<time>2024-07-25T09:13:25.000Z</time>
</trkpt>
<trkpt lat="46.1185030" lon="10.4950070">
	<ele>2040.80</ele>
	<time>2024-07-25T09:13:26.000Z</time>
</trkpt>
<trkpt lat="46.1185110" lon="10.4950240">
	<ele>2040.80</ele>
	<time>2024-07-25T09:13:27.000Z</time>
</trkpt>
<trkpt lat="46.1185150" lon="10.4950410">
	<ele>2040.80</ele>
	<time>2024-07-25T09:13:28.000Z</time>
</trkpt>
<trkpt lat="46.1185180" lon="10.4950570">
	<ele>2040.80</ele>
	<time>2024-07-25T09:13:29.000Z</time>
</trkpt>
<trkpt lat="46.1185210" lon="10.4950690">
	<ele>2040.80</ele>
	<time>2024-07-25T09:13:30.000Z</time>
</trkpt>
<trkpt lat="46.1185290" lon="10.4950760">
	<ele>2040.80</ele>
	<time>2024-07-25T09:13:31.000Z</time>
</trkpt>
<trkpt lat="46.1185350" lon="10.4950870">
	<ele>2040.80</ele>
	<time>2024-07-25T09:13:32.000Z</time>
</trkpt>
<trkpt lat="46.1185380" lon="10.4950950">
	<ele>2041.00</ele>
	<time>2024-07-25T09:13:33.000Z</time>
</trkpt>
<trkpt lat="46.1185390" lon="10.4950980">
	<ele>2041.00</ele>
	<time>2024-07-25T09:13:34.000Z</time>
</trkpt>
<trkpt lat="46.1185400" lon="10.4951000">
	<ele>2041.20</ele>
	<time>2024-07-25T09:13:35.000Z</time>
</trkpt>
<trkpt lat="46.1185390" lon="10.4951030">
	<ele>2041.20</ele>
	<time>2024-07-25T09:13:36.000Z</time>
</trkpt>
<trkpt lat="46.1185400" lon="10.4951060">
	<ele>2041.40</ele>
	<time>2024-07-25T09:13:37.000Z</time>
</trkpt>
<trkpt lat="46.1185400" lon="10.4951080">
	<ele>2041.40</ele>
	<time>2024-07-25T09:13:38.000Z</time>
</trkpt>
<trkpt lat="46.1185400" lon="10.4951110">
	<ele>2041.40</ele>
	<time>2024-07-25T09:13:39.000Z</time>
</trkpt>
<trkpt lat="46.1185400" lon="10.4951120">
	<ele>2041.40</ele>
	<time>2024-07-25T09:13:40.000Z</time>
</trkpt>
<trkpt lat="46.1185410" lon="10.4951150">
	<ele>2041.40</ele>
	<time>2024-07-25T09:13:41.000Z</time>
</trkpt>
<trkpt lat="46.1185410" lon="10.4951170">
	<ele>2041.20</ele>
	<time>2024-07-25T09:13:42.000Z</time>
</trkpt>
<trkpt lat="46.1185410" lon="10.4951180">
	<ele>2041.40</ele>
	<time>2024-07-25T09:13:43.000Z</time>
</trkpt>
<trkpt lat="46.1185400" lon="10.4951180">
	<ele>2041.20</ele>
	<time>2024-07-25T09:13:44.000Z</time>
</trkpt>
<trkpt lat="46.1185400" lon="10.4951180">
	<ele>2041.40</ele>
	<time>2024-07-25T09:13:45.000Z</time>
</trkpt>
<trkpt lat="46.1185400" lon="10.4951180">
	<ele>2041.20</ele>
	<time>2024-07-25T09:13:46.000Z</time>
</trkpt>
<trkpt lat="46.1185400" lon="10.4951180">
	<ele>2041.20</ele>
	<time>2024-07-25T09:13:47.000Z</time>
</trkpt>
<trkpt lat="46.1185400" lon="10.4951180">
	<ele>2041.20</ele>
	<time>2024-07-25T09:13:48.000Z</time>
</trkpt>
<trkpt lat="46.1185400" lon="10.4951180">
	<ele>2041.40</ele>
	<time>2024-07-25T09:13:49.000Z</time>
</trkpt>
<trkpt lat="46.1185400" lon="10.4951180">
	<ele>2041.20</ele>
	<time>2024-07-25T09:13:50.000Z</time>
</trkpt>
<trkpt lat="46.1185400" lon="10.4951180">
	<ele>2041.20</ele>
	<time>2024-07-25T09:13:51.000Z</time>
</trkpt>
<trkpt lat="46.1185400" lon="10.4951180">
	<ele>2041.00</ele>
	<time>2024-07-25T09:13:52.000Z</time>
</trkpt>
<trkpt lat="46.1185400" lon="10.4951180">
	<ele>2041.00</ele>
	<time>2024-07-25T09:13:53.000Z</time>
</trkpt>
<trkpt lat="46.1185400" lon="10.4951180">
	<ele>2041.20</ele>
	<time>2024-07-25T09:13:54.000Z</time>
</trkpt>
<trkpt lat="46.1185400" lon="10.4951180">
	<ele>2041.20</ele>
	<time>2024-07-25T09:13:55.000Z</time>
</trkpt>
<trkpt lat="46.1185420" lon="10.4951240">
	<ele>2041.40</ele>
	<time>2024-07-25T09:13:56.000Z</time>
</trkpt>
<trkpt lat="46.1185470" lon="10.4951450">
	<ele>2041.40</ele>
	<time>2024-07-25T09:13:57.000Z</time>
</trkpt>
<trkpt lat="46.1185550" lon="10.4951700">
	<ele>2041.40</ele>
	<time>2024-07-25T09:13:58.000Z</time>
</trkpt>
<trkpt lat="46.1185630" lon="10.4951880">
	<ele>2041.40</ele>
	<time>2024-07-25T09:13:59.000Z</time>
</trkpt>
<trkpt lat="46.1185680" lon="10.4952020">
	<ele>2041.40</ele>
	<time>2024-07-25T09:14:00.000Z</time>
</trkpt>
<trkpt lat="46.1185720" lon="10.4952200">
	<ele>2041.40</ele>
	<time>2024-07-25T09:14:01.000Z</time>
</trkpt>
<trkpt lat="46.1185760" lon="10.4952390">
	<ele>2041.20</ele>
	<time>2024-07-25T09:14:02.000Z</time>
</trkpt>
<trkpt lat="46.1185800" lon="10.4952620">
	<ele>2041.20</ele>
	<time>2024-07-25T09:14:03.000Z</time>
</trkpt>
<trkpt lat="46.1185860" lon="10.4952840">
	<ele>2041.00</ele>
	<time>2024-07-25T09:14:04.000Z</time>
</trkpt>
<trkpt lat="46.1185930" lon="10.4953070">
	<ele>2041.00</ele>
	<time>2024-07-25T09:14:05.000Z</time>
</trkpt>
<trkpt lat="46.1186010" lon="10.4953270">
	<ele>2041.00</ele>
	<time>2024-07-25T09:14:06.000Z</time>
</trkpt>
<trkpt lat="46.1186090" lon="10.4953440">
	<ele>2041.00</ele>
	<time>2024-07-25T09:14:07.000Z</time>
</trkpt>
<trkpt lat="46.1186210" lon="10.4953670">
	<ele>2041.00</ele>
	<time>2024-07-25T09:14:08.000Z</time>
</trkpt>
<trkpt lat="46.1186250" lon="10.4953790">
	<ele>2041.00</ele>
	<time>2024-07-25T09:14:09.000Z</time>
</trkpt>
<trkpt lat="46.1186340" lon="10.4954010">
	<ele>2041.20</ele>
	<time>2024-07-25T09:14:10.000Z</time>
</trkpt>
<trkpt lat="46.1186400" lon="10.4954160">
	<ele>2041.20</ele>
	<time>2024-07-25T09:14:11.000Z</time>
</trkpt>
<trkpt lat="46.1186460" lon="10.4954290">
	<ele>2041.20</ele>
	<time>2024-07-25T09:14:12.000Z</time>
</trkpt>
<trkpt lat="46.1186520" lon="10.4954410">
	<ele>2041.20</ele>
	<time>2024-07-25T09:14:13.000Z</time>
</trkpt>
<trkpt lat="46.1186590" lon="10.4954610">
	<ele>2041.20</ele>
	<time>2024-07-25T09:14:14.000Z</time>
</trkpt>
<trkpt lat="46.1186680" lon="10.4954800">
	<ele>2041.20</ele>
	<time>2024-07-25T09:14:15.000Z</time>
</trkpt>
<trkpt lat="46.1186770" lon="10.4954970">
	<ele>2041.20</ele>
	<time>2024-07-25T09:14:16.000Z</time>
</trkpt>
<trkpt lat="46.1186830" lon="10.4955110">
	<ele>2041.20</ele>
	<time>2024-07-25T09:14:17.000Z</time>
</trkpt>
<trkpt lat="46.1186940" lon="10.4955330">
	<ele>2041.20</ele>
	<time>2024-07-25T09:14:18.000Z</time>
</trkpt>
<trkpt lat="46.1187020" lon="10.4955490">
	<ele>2041.20</ele>
	<time>2024-07-25T09:14:19.000Z</time>
</trkpt>
<trkpt lat="46.1187100" lon="10.4955690">
	<ele>2041.00</ele>
	<time>2024-07-25T09:14:20.000Z</time>
</trkpt>
<trkpt lat="46.1187150" lon="10.4955850">
	<ele>2041.00</ele>
	<time>2024-07-25T09:14:21.000Z</time>
</trkpt>
<trkpt lat="46.1187250" lon="10.4956040">
	<ele>2041.00</ele>
	<time>2024-07-25T09:14:22.000Z</time>
</trkpt>
<trkpt lat="46.1187310" lon="10.4956130">
	<ele>2041.00</ele>
	<time>2024-07-25T09:14:23.000Z</time>
</trkpt>
<trkpt lat="46.1187410" lon="10.4956260">
	<ele>2041.00</ele>
	<time>2024-07-25T09:14:24.000Z</time>
</trkpt>
<trkpt lat="46.1187510" lon="10.4956400">
	<ele>2040.80</ele>
	<time>2024-07-25T09:14:25.000Z</time>
</trkpt>
<trkpt lat="46.1187580" lon="10.4956470">
	<ele>2040.80</ele>
	<time>2024-07-25T09:14:26.000Z</time>
</trkpt>
<trkpt lat="46.1187620" lon="10.4956550">
	<ele>2040.60</ele>
	<time>2024-07-25T09:14:27.000Z</time>
</trkpt>
<trkpt lat="46.1187630" lon="10.4956670">
	<ele>2040.60</ele>
	<time>2024-07-25T09:14:28.000Z</time>
</trkpt>
<trkpt lat="46.1187640" lon="10.4956860">
	<ele>2040.40</ele>
	<time>2024-07-25T09:14:29.000Z</time>
</trkpt>
<trkpt lat="46.1187710" lon="10.4957090">
	<ele>2040.40</ele>
	<time>2024-07-25T09:14:30.000Z</time>
</trkpt>
<trkpt lat="46.1187800" lon="10.4957250">
	<ele>2040.40</ele>
	<time>2024-07-25T09:14:31.000Z</time>
</trkpt>
<trkpt lat="46.1187890" lon="10.4957350">
	<ele>2040.40</ele>
	<time>2024-07-25T09:14:32.000Z</time>
</trkpt>
<trkpt lat="46.1187980" lon="10.4957490">
	<ele>2040.40</ele>
	<time>2024-07-25T09:14:33.000Z</time>
</trkpt>
<trkpt lat="46.1188070" lon="10.4957620">
	<ele>2040.40</ele>
	<time>2024-07-25T09:14:34.000Z</time>
</trkpt>
<trkpt lat="46.1188150" lon="10.4957730">
	<ele>2040.40</ele>
	<time>2024-07-25T09:14:35.000Z</time>
</trkpt>
<trkpt lat="46.1188220" lon="10.4957890">
	<ele>2040.40</ele>
	<time>2024-07-25T09:14:36.000Z</time>
</trkpt>
<trkpt lat="46.1188280" lon="10.4958040">
	<ele>2040.20</ele>
	<time>2024-07-25T09:14:37.000Z</time>
</trkpt>
<trkpt lat="46.1188350" lon="10.4958180">
	<ele>2040.20</ele>
	<time>2024-07-25T09:14:38.000Z</time>
</trkpt>
<trkpt lat="46.1188450" lon="10.4958300">
	<ele>2040.20</ele>
	<time>2024-07-25T09:14:39.000Z</time>
</trkpt>
<trkpt lat="46.1188530" lon="10.4958470">
	<ele>2040.20</ele>
	<time>2024-07-25T09:14:40.000Z</time>
</trkpt>
<trkpt lat="46.1188600" lon="10.4958660">
	<ele>2040.00</ele>
	<time>2024-07-25T09:14:41.000Z</time>
</trkpt>
<trkpt lat="46.1188640" lon="10.4958800">
	<ele>2040.00</ele>
	<time>2024-07-25T09:14:42.000Z</time>
</trkpt>
<trkpt lat="46.1188710" lon="10.4958970">
	<ele>2040.00</ele>
	<time>2024-07-25T09:14:43.000Z</time>
</trkpt>
<trkpt lat="46.1188760" lon="10.4959100">
	<ele>2039.80</ele>
	<time>2024-07-25T09:14:44.000Z</time>
</trkpt>
<trkpt lat="46.1188810" lon="10.4959210">
	<ele>2039.60</ele>
	<time>2024-07-25T09:14:45.000Z</time>
</trkpt>
<trkpt lat="46.1188830" lon="10.4959380">
	<ele>2039.40</ele>
	<time>2024-07-25T09:14:46.000Z</time>
</trkpt>
<trkpt lat="46.1188890" lon="10.4959570">
	<ele>2039.20</ele>
	<time>2024-07-25T09:14:47.000Z</time>
</trkpt>
<trkpt lat="46.1188930" lon="10.4959640">
	<ele>2039.00</ele>
	<time>2024-07-25T09:14:48.000Z</time>
</trkpt>
<trkpt lat="46.1188980" lon="10.4959740">
	<ele>2038.80</ele>
	<time>2024-07-25T09:14:49.000Z</time>
</trkpt>
<trkpt lat="46.1189040" lon="10.4959800">
	<ele>2038.60</ele>
	<time>2024-07-25T09:14:50.000Z</time>
</trkpt>
<trkpt lat="46.1189050" lon="10.4959810">
	<ele>2038.60</ele>
	<time>2024-07-25T09:14:51.000Z</time>
</trkpt>
<trkpt lat="46.1189040" lon="10.4959850">
	<ele>2038.40</ele>
	<time>2024-07-25T09:14:52.000Z</time>
</trkpt>
<trkpt lat="46.1189070" lon="10.4959860">
	<ele>2038.40</ele>
	<time>2024-07-25T09:14:53.000Z</time>
</trkpt>
<trkpt lat="46.1189130" lon="10.4959900">
	<ele>2038.40</ele>
	<time>2024-07-25T09:14:54.000Z</time>
</trkpt>
<trkpt lat="46.1189150" lon="10.4959980">
	<ele>2038.40</ele>
	<time>2024-07-25T09:14:55.000Z</time>
</trkpt>
<trkpt lat="46.1189180" lon="10.4960100">
	<ele>2038.40</ele>
	<time>2024-07-25T09:14:56.000Z</time>
</trkpt>
<trkpt lat="46.1189200" lon="10.4960170">
	<ele>2038.40</ele>
	<time>2024-07-25T09:14:57.000Z</time>
</trkpt>
<trkpt lat="46.1189220" lon="10.4960230">
	<ele>2038.40</ele>
	<time>2024-07-25T09:14:58.000Z</time>
</trkpt>
<trkpt lat="46.1189250" lon="10.4960310">
	<ele>2038.20</ele>
	<time>2024-07-25T09:14:59.000Z</time>
</trkpt>
<trkpt lat="46.1189270" lon="10.4960400">
	<ele>2038.20</ele>
	<time>2024-07-25T09:15:00.000Z</time>
</trkpt>
<trkpt lat="46.1189320" lon="10.4960530">
	<ele>2038.20</ele>
	<time>2024-07-25T09:15:01.000Z</time>
</trkpt>
<trkpt lat="46.1189370" lon="10.4960680">
	<ele>2038.00</ele>
	<time>2024-07-25T09:15:02.000Z</time>
</trkpt>
<trkpt lat="46.1189390" lon="10.4960840">
	<ele>2038.00</ele>
	<time>2024-07-25T09:15:03.000Z</time>
</trkpt>
<trkpt lat="46.1189410" lon="10.4961000">
	<ele>2038.00</ele>
	<time>2024-07-25T09:15:04.000Z</time>
</trkpt>
<trkpt lat="46.1189420" lon="10.4961160">
	<ele>2037.80</ele>
	<time>2024-07-25T09:15:05.000Z</time>
</trkpt>
<trkpt lat="46.1189470" lon="10.4961320">
	<ele>2037.60</ele>
	<time>2024-07-25T09:15:06.000Z</time>
</trkpt>
<trkpt lat="46.1189520" lon="10.4961440">
	<ele>2037.40</ele>
	<time>2024-07-25T09:15:07.000Z</time>
</trkpt>
<trkpt lat="46.1189560" lon="10.4961620">
	<ele>2037.20</ele>
	<time>2024-07-25T09:15:08.000Z</time>
</trkpt>
<trkpt lat="46.1189620" lon="10.4961810">
	<ele>2037.20</ele>
	<time>2024-07-25T09:15:09.000Z</time>
</trkpt>
<trkpt lat="46.1189690" lon="10.4961920">
	<ele>2037.20</ele>
	<time>2024-07-25T09:15:10.000Z</time>
</trkpt>
<trkpt lat="46.1189790" lon="10.4961900">
	<ele>2037.00</ele>
	<time>2024-07-25T09:15:11.000Z</time>
</trkpt>
<trkpt lat="46.1189860" lon="10.4961860">
	<ele>2037.00</ele>
	<time>2024-07-25T09:15:12.000Z</time>
</trkpt>
<trkpt lat="46.1189890" lon="10.4961870">
	<ele>2036.80</ele>
	<time>2024-07-25T09:15:13.000Z</time>
</trkpt>
<trkpt lat="46.1189900" lon="10.4961890">
	<ele>2036.80</ele>
	<time>2024-07-25T09:15:14.000Z</time>
</trkpt>
<trkpt lat="46.1189910" lon="10.4961900">
	<ele>2036.60</ele>
	<time>2024-07-25T09:15:15.000Z</time>
</trkpt>
<trkpt lat="46.1189910" lon="10.4961900">
	<ele>2036.60</ele>
	<time>2024-07-25T09:15:16.000Z</time>
</trkpt>
<trkpt lat="46.1189910" lon="10.4961960">
	<ele>2036.60</ele>
	<time>2024-07-25T09:15:17.000Z</time>
</trkpt>
<trkpt lat="46.1189910" lon="10.4961980">
	<ele>2036.40</ele>
	<time>2024-07-25T09:15:18.000Z</time>
</trkpt>
<trkpt lat="46.1189920" lon="10.4961980">
	<ele>2036.40</ele>
	<time>2024-07-25T09:15:19.000Z</time>
</trkpt>
<trkpt lat="46.1189930" lon="10.4961960">
	<ele>2036.40</ele>
	<time>2024-07-25T09:15:20.000Z</time>
</trkpt>
<trkpt lat="46.1189930" lon="10.4961960">
	<ele>2036.40</ele>
	<time>2024-07-25T09:15:21.000Z</time>
</trkpt>
<trkpt lat="46.1189920" lon="10.4961940">
	<ele>2036.40</ele>
	<time>2024-07-25T09:15:22.000Z</time>
</trkpt>
<trkpt lat="46.1189920" lon="10.4961920">
	<ele>2036.40</ele>
	<time>2024-07-25T09:15:23.000Z</time>
</trkpt>
<trkpt lat="46.1189940" lon="10.4961910">
	<ele>2036.40</ele>
	<time>2024-07-25T09:15:24.000Z</time>
</trkpt>
<trkpt lat="46.1189950" lon="10.4961900">
	<ele>2036.40</ele>
	<time>2024-07-25T09:15:25.000Z</time>
</trkpt>
<trkpt lat="46.1189950" lon="10.4961900">
	<ele>2036.40</ele>
	<time>2024-07-25T09:15:26.000Z</time>
</trkpt>
<trkpt lat="46.1189950" lon="10.4961900">
	<ele>2036.40</ele>
	<time>2024-07-25T09:15:27.000Z</time>
</trkpt>
<trkpt lat="46.1189950" lon="10.4961900">
	<ele>2036.40</ele>
	<time>2024-07-25T09:15:28.000Z</time>
</trkpt>
<trkpt lat="46.1189950" lon="10.4961900">
	<ele>2036.40</ele>
	<time>2024-07-25T09:15:29.000Z</time>
</trkpt>
<trkpt lat="46.1189950" lon="10.4961900">
	<ele>2036.40</ele>
	<time>2024-07-25T09:15:30.000Z</time>
</trkpt>
<trkpt lat="46.1189950" lon="10.4961900">
	<ele>2036.40</ele>
	<time>2024-07-25T09:15:31.000Z</time>
</trkpt>
<trkpt lat="46.1189950" lon="10.4961900">
	<ele>2036.40</ele>
	<time>2024-07-25T09:15:32.000Z</time>
</trkpt>
<trkpt lat="46.1189950" lon="10.4961900">
	<ele>2036.40</ele>
	<time>2024-07-25T09:15:33.000Z</time>
</trkpt>
<trkpt lat="46.1189950" lon="10.4961900">
	<ele>2036.40</ele>
	<time>2024-07-25T09:15:34.000Z</time>
</trkpt>
<trkpt lat="46.1189950" lon="10.4961900">
	<ele>2036.40</ele>
	<time>2024-07-25T09:15:35.000Z</time>
</trkpt>
<trkpt lat="46.1189950" lon="10.4961900">
	<ele>2036.40</ele>
	<time>2024-07-25T09:15:36.000Z</time>
</trkpt>
<trkpt lat="46.1189950" lon="10.4961900">
	<ele>2036.40</ele>
	<time>2024-07-25T09:15:37.000Z</time>
</trkpt>
<trkpt lat="46.1189950" lon="10.4961900">
	<ele>2036.40</ele>
	<time>2024-07-25T09:15:38.000Z</time>
</trkpt>
<trkpt lat="46.1189950" lon="10.4961900">
	<ele>2036.40</ele>
	<time>2024-07-25T09:15:39.000Z</time>
</trkpt>
<trkpt lat="46.1189950" lon="10.4961900">
	<ele>2036.60</ele>
	<time>2024-07-25T09:15:40.000Z</time>
</trkpt>
<trkpt lat="46.1189950" lon="10.4961900">
	<ele>2036.60</ele>
	<time>2024-07-25T09:15:41.000Z</time>
</trkpt>
<trkpt lat="46.1189950" lon="10.4961900">
	<ele>2036.60</ele>
	<time>2024-07-25T09:15:42.000Z</time>
</trkpt>
<trkpt lat="46.1189950" lon="10.4961900">
	<ele>2036.60</ele>
	<time>2024-07-25T09:15:43.000Z</time>
</trkpt>
<trkpt lat="46.1189950" lon="10.4961890">
	<ele>2036.60</ele>
	<time>2024-07-25T09:15:44.000Z</time>
</trkpt>
<trkpt lat="46.1189950" lon="10.4961890">
	<ele>2036.60</ele>
	<time>2024-07-25T09:15:45.000Z</time>
</trkpt>
<trkpt lat="46.1189940" lon="10.4961920">
	<ele>2036.60</ele>
	<time>2024-07-25T09:15:46.000Z</time>
</trkpt>
<trkpt lat="46.1189980" lon="10.4962070">
	<ele>2036.60</ele>
	<time>2024-07-25T09:15:47.000Z</time>
</trkpt>
<trkpt lat="46.1190010" lon="10.4962250">
	<ele>2036.40</ele>
	<time>2024-07-25T09:15:48.000Z</time>
</trkpt>
<trkpt lat="46.1190050" lon="10.4962450">
	<ele>2036.40</ele>
	<time>2024-07-25T09:15:49.000Z</time>
</trkpt>
<trkpt lat="46.1190110" lon="10.4962640">
	<ele>2036.20</ele>
	<time>2024-07-25T09:15:50.000Z</time>
</trkpt>
<trkpt lat="46.1190190" lon="10.4962820">
	<ele>2036.20</ele>
	<time>2024-07-25T09:15:51.000Z</time>
</trkpt>
<trkpt lat="46.1190260" lon="10.4962960">
	<ele>2036.20</ele>
	<time>2024-07-25T09:15:52.000Z</time>
</trkpt>
<trkpt lat="46.1190340" lon="10.4963100">
	<ele>2036.00</ele>
	<time>2024-07-25T09:15:53.000Z</time>
</trkpt>
<trkpt lat="46.1190410" lon="10.4963250">
	<ele>2036.00</ele>
	<time>2024-07-25T09:15:54.000Z</time>
</trkpt>
<trkpt lat="46.1190460" lon="10.4963400">
	<ele>2036.20</ele>
	<time>2024-07-25T09:15:55.000Z</time>
</trkpt>
<trkpt lat="46.1190540" lon="10.4963570">
	<ele>2036.20</ele>
	<time>2024-07-25T09:15:56.000Z</time>
</trkpt>
<trkpt lat="46.1190630" lon="10.4963770">
	<ele>2036.20</ele>
	<time>2024-07-25T09:15:57.000Z</time>
</trkpt>
<trkpt lat="46.1190710" lon="10.4963890">
	<ele>2036.20</ele>
	<time>2024-07-25T09:15:58.000Z</time>
</trkpt>
<trkpt lat="46.1190800" lon="10.4963980">
	<ele>2036.20</ele>
	<time>2024-07-25T09:15:59.000Z</time>
</trkpt>
<trkpt lat="46.1190940" lon="10.4964130">
	<ele>2036.20</ele>
	<time>2024-07-25T09:16:00.000Z</time>
</trkpt>
<trkpt lat="46.1191030" lon="10.4964200">
	<ele>2036.20</ele>
	<time>2024-07-25T09:16:01.000Z</time>
</trkpt>
<trkpt lat="46.1191180" lon="10.4964340">
	<ele>2036.20</ele>
	<time>2024-07-25T09:16:02.000Z</time>
</trkpt>
<trkpt lat="46.1191250" lon="10.4964440">
	<ele>2036.20</ele>
	<time>2024-07-25T09:16:03.000Z</time>
</trkpt>
<trkpt lat="46.1191340" lon="10.4964580">
	<ele>2036.20</ele>
	<time>2024-07-25T09:16:04.000Z</time>
</trkpt>
<trkpt lat="46.1191400" lon="10.4964720">
	<ele>2036.00</ele>
	<time>2024-07-25T09:16:05.000Z</time>
</trkpt>
<trkpt lat="46.1191460" lon="10.4964880">
	<ele>2036.00</ele>
	<time>2024-07-25T09:16:06.000Z</time>
</trkpt>
<trkpt lat="46.1191520" lon="10.4965040">
	<ele>2036.00</ele>
	<time>2024-07-25T09:16:07.000Z</time>
</trkpt>
<trkpt lat="46.1191560" lon="10.4965240">
	<ele>2036.00</ele>
	<time>2024-07-25T09:16:08.000Z</time>
</trkpt>
<trkpt lat="46.1191600" lon="10.4965400">
	<ele>2036.00</ele>
	<time>2024-07-25T09:16:09.000Z</time>
</trkpt>
<trkpt lat="46.1191640" lon="10.4965560">
	<ele>2036.00</ele>
	<time>2024-07-25T09:16:10.000Z</time>
</trkpt>
<trkpt lat="46.1191730" lon="10.4965710">
	<ele>2036.00</ele>
	<time>2024-07-25T09:16:11.000Z</time>
</trkpt>
<trkpt lat="46.1191840" lon="10.4965860">
	<ele>2036.00</ele>
	<time>2024-07-25T09:16:12.000Z</time>
</trkpt>
<trkpt lat="46.1191930" lon="10.4965990">
	<ele>2036.20</ele>
	<time>2024-07-25T09:16:13.000Z</time>
</trkpt>
<trkpt lat="46.1191990" lon="10.4966120">
	<ele>2036.40</ele>
	<time>2024-07-25T09:16:14.000Z</time>
</trkpt>
<trkpt lat="46.1192020" lon="10.4966240">
	<ele>2036.40</ele>
	<time>2024-07-25T09:16:15.000Z</time>
</trkpt>
<trkpt lat="46.1192080" lon="10.4966340">
	<ele>2036.60</ele>
	<time>2024-07-25T09:16:16.000Z</time>
</trkpt>
<trkpt lat="46.1192190" lon="10.4966400">
	<ele>2036.60</ele>
	<time>2024-07-25T09:16:17.000Z</time>
</trkpt>
<trkpt lat="46.1192310" lon="10.4966430">
	<ele>2036.60</ele>
	<time>2024-07-25T09:16:18.000Z</time>
</trkpt>
<trkpt lat="46.1192430" lon="10.4966450">
	<ele>2036.60</ele>
	<time>2024-07-25T09:16:19.000Z</time>
</trkpt>
<trkpt lat="46.1192550" lon="10.4966490">
	<ele>2036.80</ele>
	<time>2024-07-25T09:16:20.000Z</time>
</trkpt>
<trkpt lat="46.1192640" lon="10.4966490">
	<ele>2036.80</ele>
	<time>2024-07-25T09:16:21.000Z</time>
</trkpt>
<trkpt lat="46.1192740" lon="10.4966500">
	<ele>2036.80</ele>
	<time>2024-07-25T09:16:22.000Z</time>
</trkpt>
<trkpt lat="46.1192840" lon="10.4966480">
	<ele>2037.00</ele>
	<time>2024-07-25T09:16:23.000Z</time>
</trkpt>
<trkpt lat="46.1192940" lon="10.4966540">
	<ele>2037.00</ele>
	<time>2024-07-25T09:16:24.000Z</time>
</trkpt>
<trkpt lat="46.1193030" lon="10.4966580">
	<ele>2037.00</ele>
	<time>2024-07-25T09:16:25.000Z</time>
</trkpt>
<trkpt lat="46.1193160" lon="10.4966660">
	<ele>2037.20</ele>
	<time>2024-07-25T09:16:26.000Z</time>
</trkpt>
<trkpt lat="46.1193220" lon="10.4966730">
	<ele>2037.20</ele>
	<time>2024-07-25T09:16:27.000Z</time>
</trkpt>
<trkpt lat="46.1193310" lon="10.4966800">
	<ele>2037.20</ele>
	<time>2024-07-25T09:16:28.000Z</time>
</trkpt>
<trkpt lat="46.1193420" lon="10.4966850">
	<ele>2037.40</ele>
	<time>2024-07-25T09:16:29.000Z</time>
</trkpt>
<trkpt lat="46.1193520" lon="10.4966890">
	<ele>2037.40</ele>
	<time>2024-07-25T09:16:30.000Z</time>
</trkpt>
<trkpt lat="46.1193600" lon="10.4966960">
	<ele>2037.60</ele>
	<time>2024-07-25T09:16:31.000Z</time>
</trkpt>
<trkpt lat="46.1193680" lon="10.4967040">
	<ele>2037.60</ele>
	<time>2024-07-25T09:16:32.000Z</time>
</trkpt>
<trkpt lat="46.1193810" lon="10.4967140">
	<ele>2037.80</ele>
	<time>2024-07-25T09:16:33.000Z</time>
</trkpt>
<trkpt lat="46.1193920" lon="10.4967220">
	<ele>2037.80</ele>
	<time>2024-07-25T09:16:34.000Z</time>
</trkpt>
<trkpt lat="46.1194010" lon="10.4967250">
	<ele>2038.00</ele>
	<time>2024-07-25T09:16:35.000Z</time>
</trkpt>
<trkpt lat="46.1194120" lon="10.4967300">
	<ele>2038.00</ele>
	<time>2024-07-25T09:16:36.000Z</time>
</trkpt>
<trkpt lat="46.1194210" lon="10.4967340">
	<ele>2038.00</ele>
	<time>2024-07-25T09:16:37.000Z</time>
</trkpt>
<trkpt lat="46.1194330" lon="10.4967380">
	<ele>2038.00</ele>
	<time>2024-07-25T09:16:38.000Z</time>
</trkpt>
<trkpt lat="46.1194430" lon="10.4967450">
	<ele>2038.20</ele>
	<time>2024-07-25T09:16:39.000Z</time>
</trkpt>
<trkpt lat="46.1194520" lon="10.4967510">
	<ele>2038.20</ele>
	<time>2024-07-25T09:16:40.000Z</time>
</trkpt>
<trkpt lat="46.1194600" lon="10.4967570">
	<ele>2038.40</ele>
	<time>2024-07-25T09:16:41.000Z</time>
</trkpt>
<trkpt lat="46.1194670" lon="10.4967580">
	<ele>2038.40</ele>
	<time>2024-07-25T09:16:42.000Z</time>
</trkpt>
<trkpt lat="46.1194790" lon="10.4967610">
	<ele>2038.60</ele>
	<time>2024-07-25T09:16:43.000Z</time>
</trkpt>
<trkpt lat="46.1194910" lon="10.4967620">
	<ele>2038.80</ele>
	<time>2024-07-25T09:16:44.000Z</time>
</trkpt>
<trkpt lat="46.1195000" lon="10.4967650">
	<ele>2039.00</ele>
	<time>2024-07-25T09:16:45.000Z</time>
</trkpt>
<trkpt lat="46.1195060" lon="10.4967700">
	<ele>2039.00</ele>
	<time>2024-07-25T09:16:46.000Z</time>
</trkpt>
<trkpt lat="46.1195160" lon="10.4967740">
	<ele>2039.20</ele>
	<time>2024-07-25T09:16:47.000Z</time>
</trkpt>
<trkpt lat="46.1195210" lon="10.4967790">
	<ele>2039.20</ele>
	<time>2024-07-25T09:16:48.000Z</time>
</trkpt>
<trkpt lat="46.1195270" lon="10.4967860">
	<ele>2039.20</ele>
	<time>2024-07-25T09:16:49.000Z</time>
</trkpt>
<trkpt lat="46.1195440" lon="10.4967920">
	<ele>2039.40</ele>
	<time>2024-07-25T09:16:50.000Z</time>
</trkpt>
<trkpt lat="46.1195580" lon="10.4967980">
	<ele>2039.40</ele>
	<time>2024-07-25T09:16:51.000Z</time>
</trkpt>
<trkpt lat="46.1195730" lon="10.4968010">
	<ele>2039.40</ele>
	<time>2024-07-25T09:16:52.000Z</time>
</trkpt>
<trkpt lat="46.1195800" lon="10.4968020">
	<ele>2039.60</ele>
	<time>2024-07-25T09:16:53.000Z</time>
</trkpt>
<trkpt lat="46.1195940" lon="10.4968090">
	<ele>2039.60</ele>
	<time>2024-07-25T09:16:54.000Z</time>
</trkpt>
<trkpt lat="46.1196060" lon="10.4968130">
	<ele>2039.60</ele>
	<time>2024-07-25T09:16:55.000Z</time>
</trkpt>
<trkpt lat="46.1196180" lon="10.4968200">
	<ele>2039.60</ele>
	<time>2024-07-25T09:16:56.000Z</time>
</trkpt>
<trkpt lat="46.1196300" lon="10.4968290">
	<ele>2039.80</ele>
	<time>2024-07-25T09:16:57.000Z</time>
</trkpt>
<trkpt lat="46.1196410" lon="10.4968370">
	<ele>2039.80</ele>
	<time>2024-07-25T09:16:58.000Z</time>
</trkpt>
<trkpt lat="46.1196490" lon="10.4968470">
	<ele>2039.80</ele>
	<time>2024-07-25T09:16:59.000Z</time>
</trkpt>
<trkpt lat="46.1196570" lon="10.4968540">
	<ele>2039.80</ele>
	<time>2024-07-25T09:17:00.000Z</time>
</trkpt>
<trkpt lat="46.1196680" lon="10.4968600">
	<ele>2040.00</ele>
	<time>2024-07-25T09:17:01.000Z</time>
</trkpt>
<trkpt lat="46.1196800" lon="10.4968620">
	<ele>2040.00</ele>
	<time>2024-07-25T09:17:02.000Z</time>
</trkpt>
<trkpt lat="46.1196870" lon="10.4968620">
	<ele>2040.00</ele>
	<time>2024-07-25T09:17:03.000Z</time>
</trkpt>
<trkpt lat="46.1196990" lon="10.4968640">
	<ele>2040.20</ele>
	<time>2024-07-25T09:17:04.000Z</time>
</trkpt>
<trkpt lat="46.1197120" lon="10.4968650">
	<ele>2040.40</ele>
	<time>2024-07-25T09:17:05.000Z</time>
</trkpt>
<trkpt lat="46.1197200" lon="10.4968670">
	<ele>2040.60</ele>
	<time>2024-07-25T09:17:06.000Z</time>
</trkpt>
<trkpt lat="46.1197300" lon="10.4968710">
	<ele>2040.80</ele>
	<time>2024-07-25T09:17:07.000Z</time>
</trkpt>
<trkpt lat="46.1197420" lon="10.4968730">
	<ele>2040.80</ele>
	<time>2024-07-25T09:17:08.000Z</time>
</trkpt>
<trkpt lat="46.1197530" lon="10.4968750">
	<ele>2041.00</ele>
	<time>2024-07-25T09:17:09.000Z</time>
</trkpt>
<trkpt lat="46.1197580" lon="10.4968780">
	<ele>2041.00</ele>
	<time>2024-07-25T09:17:10.000Z</time>
</trkpt>
<trkpt lat="46.1197680" lon="10.4968840">
	<ele>2041.20</ele>
	<time>2024-07-25T09:17:11.000Z</time>
</trkpt>
<trkpt lat="46.1197720" lon="10.4968930">
	<ele>2041.40</ele>
	<time>2024-07-25T09:17:12.000Z</time>
</trkpt>
<trkpt lat="46.1197770" lon="10.4969020">
	<ele>2041.40</ele>
	<time>2024-07-25T09:17:13.000Z</time>
</trkpt>
<trkpt lat="46.1197800" lon="10.4969180">
	<ele>2041.60</ele>
	<time>2024-07-25T09:17:14.000Z</time>
</trkpt>
<trkpt lat="46.1197860" lon="10.4969290">
	<ele>2041.60</ele>
	<time>2024-07-25T09:17:15.000Z</time>
</trkpt>
<trkpt lat="46.1197900" lon="10.4969430">
	<ele>2041.60</ele>
	<time>2024-07-25T09:17:16.000Z</time>
</trkpt>
<trkpt lat="46.1197970" lon="10.4969550">
	<ele>2041.60</ele>
	<time>2024-07-25T09:17:17.000Z</time>
</trkpt>
<trkpt lat="46.1198030" lon="10.4969680">
	<ele>2041.60</ele>
	<time>2024-07-25T09:17:18.000Z</time>
</trkpt>
<trkpt lat="46.1198090" lon="10.4969820">
	<ele>2041.60</ele>
	<time>2024-07-25T09:17:19.000Z</time>
</trkpt>
<trkpt lat="46.1198110" lon="10.4969920">
	<ele>2041.60</ele>
	<time>2024-07-25T09:17:20.000Z</time>
</trkpt>
<trkpt lat="46.1198100" lon="10.4970060">
	<ele>2041.60</ele>
	<time>2024-07-25T09:17:21.000Z</time>
</trkpt>
<trkpt lat="46.1198070" lon="10.4970140">
	<ele>2041.60</ele>
	<time>2024-07-25T09:17:22.000Z</time>
</trkpt>
<trkpt lat="46.1198060" lon="10.4970300">
	<ele>2041.80</ele>
	<time>2024-07-25T09:17:23.000Z</time>
</trkpt>
<trkpt lat="46.1198070" lon="10.4970440">
	<ele>2041.80</ele>
	<time>2024-07-25T09:17:24.000Z</time>
</trkpt>
<trkpt lat="46.1198060" lon="10.4970600">
	<ele>2042.00</ele>
	<time>2024-07-25T09:17:25.000Z</time>
</trkpt>
<trkpt lat="46.1198060" lon="10.4970750">
	<ele>2042.20</ele>
	<time>2024-07-25T09:17:26.000Z</time>
</trkpt>
<trkpt lat="46.1198060" lon="10.4970900">
	<ele>2042.20</ele>
	<time>2024-07-25T09:17:27.000Z</time>
</trkpt>
<trkpt lat="46.1198040" lon="10.4971000">
	<ele>2042.40</ele>
	<time>2024-07-25T09:17:28.000Z</time>
</trkpt>
<trkpt lat="46.1198050" lon="10.4971140">
	<ele>2042.40</ele>
	<time>2024-07-25T09:17:29.000Z</time>
</trkpt>
<trkpt lat="46.1198030" lon="10.4971320">
	<ele>2042.40</ele>
	<time>2024-07-25T09:17:30.000Z</time>
</trkpt>
<trkpt lat="46.1198020" lon="10.4971480">
	<ele>2042.60</ele>
	<time>2024-07-25T09:17:31.000Z</time>
</trkpt>
<trkpt lat="46.1198000" lon="10.4971620">
	<ele>2042.80</ele>
	<time>2024-07-25T09:17:32.000Z</time>
</trkpt>
<trkpt lat="46.1197990" lon="10.4971780">
	<ele>2043.00</ele>
	<time>2024-07-25T09:17:33.000Z</time>
</trkpt>
<trkpt lat="46.1198010" lon="10.4971930">
	<ele>2043.20</ele>
	<time>2024-07-25T09:17:34.000Z</time>
</trkpt>
<trkpt lat="46.1198070" lon="10.4972090">
	<ele>2043.20</ele>
	<time>2024-07-25T09:17:35.000Z</time>
</trkpt>
<trkpt lat="46.1198120" lon="10.4972230">
	<ele>2043.20</ele>
	<time>2024-07-25T09:17:36.000Z</time>
</trkpt>
<trkpt lat="46.1198150" lon="10.4972360">
	<ele>2043.40</ele>
	<time>2024-07-25T09:17:37.000Z</time>
</trkpt>
<trkpt lat="46.1198180" lon="10.4972480">
	<ele>2043.40</ele>
	<time>2024-07-25T09:17:38.000Z</time>
</trkpt>
<trkpt lat="46.1198260" lon="10.4972590">
	<ele>2043.60</ele>
	<time>2024-07-25T09:17:39.000Z</time>
</trkpt>
<trkpt lat="46.1198330" lon="10.4972710">
	<ele>2043.60</ele>
	<time>2024-07-25T09:17:40.000Z</time>
</trkpt>
<trkpt lat="46.1198410" lon="10.4972850">
	<ele>2043.60</ele>
	<time>2024-07-25T09:17:41.000Z</time>
</trkpt>
<trkpt lat="46.1198430" lon="10.4972960">
	<ele>2043.80</ele>
	<time>2024-07-25T09:17:42.000Z</time>
</trkpt>
<trkpt lat="46.1198500" lon="10.4973070">
	<ele>2044.00</ele>
	<time>2024-07-25T09:17:43.000Z</time>
</trkpt>
<trkpt lat="46.1198560" lon="10.4973140">
	<ele>2044.00</ele>
	<time>2024-07-25T09:17:44.000Z</time>
</trkpt>
<trkpt lat="46.1198640" lon="10.4973260">
	<ele>2044.00</ele>
	<time>2024-07-25T09:17:45.000Z</time>
</trkpt>
<trkpt lat="46.1198670" lon="10.4973410">
	<ele>2044.20</ele>
	<time>2024-07-25T09:17:46.000Z</time>
</trkpt>
<trkpt lat="46.1198710" lon="10.4973570">
	<ele>2044.20</ele>
	<time>2024-07-25T09:17:47.000Z</time>
</trkpt>
<trkpt lat="46.1198750" lon="10.4973650">
	<ele>2044.20</ele>
	<time>2024-07-25T09:17:48.000Z</time>
</trkpt>
<trkpt lat="46.1198820" lon="10.4973770">
	<ele>2044.40</ele>
	<time>2024-07-25T09:17:49.000Z</time>
</trkpt>
<trkpt lat="46.1198860" lon="10.4973890">
	<ele>2044.60</ele>
	<time>2024-07-25T09:17:50.000Z</time>
</trkpt>
<trkpt lat="46.1198900" lon="10.4974060">
	<ele>2044.80</ele>
	<time>2024-07-25T09:17:51.000Z</time>
</trkpt>
<trkpt lat="46.1198970" lon="10.4974160">
	<ele>2044.80</ele>
	<time>2024-07-25T09:17:52.000Z</time>
</trkpt>
<trkpt lat="46.1199020" lon="10.4974290">
	<ele>2045.00</ele>
	<time>2024-07-25T09:17:53.000Z</time>
</trkpt>
<trkpt lat="46.1199050" lon="10.4974420">
	<ele>2045.40</ele>
	<time>2024-07-25T09:17:54.000Z</time>
</trkpt>
<trkpt lat="46.1199080" lon="10.4974560">
	<ele>2045.60</ele>
	<time>2024-07-25T09:17:55.000Z</time>
</trkpt>
<trkpt lat="46.1199120" lon="10.4974680">
	<ele>2045.80</ele>
	<time>2024-07-25T09:17:56.000Z</time>
</trkpt>
<trkpt lat="46.1199160" lon="10.4974800">
	<ele>2045.80</ele>
	<time>2024-07-25T09:17:57.000Z</time>
</trkpt>
<trkpt lat="46.1199220" lon="10.4974910">
	<ele>2046.00</ele>
	<time>2024-07-25T09:17:58.000Z</time>
</trkpt>
<trkpt lat="46.1199270" lon="10.4975040">
	<ele>2046.00</ele>
	<time>2024-07-25T09:17:59.000Z</time>
</trkpt>
<trkpt lat="46.1199330" lon="10.4975160">
	<ele>2046.00</ele>
	<time>2024-07-25T09:18:00.000Z</time>
</trkpt>
<trkpt lat="46.1199350" lon="10.4975280">
	<ele>2046.00</ele>
	<time>2024-07-25T09:18:01.000Z</time>
</trkpt>
<trkpt lat="46.1199380" lon="10.4975410">
	<ele>2046.20</ele>
	<time>2024-07-25T09:18:02.000Z</time>
</trkpt>
<trkpt lat="46.1199400" lon="10.4975550">
	<ele>2046.40</ele>
	<time>2024-07-25T09:18:03.000Z</time>
</trkpt>
<trkpt lat="46.1199410" lon="10.4975670">
	<ele>2046.60</ele>
	<time>2024-07-25T09:18:04.000Z</time>
</trkpt>
<trkpt lat="46.1199450" lon="10.4975760">
	<ele>2046.60</ele>
	<time>2024-07-25T09:18:05.000Z</time>
</trkpt>
<trkpt lat="46.1199520" lon="10.4975870">
	<ele>2046.80</ele>
	<time>2024-07-25T09:18:06.000Z</time>
</trkpt>
<trkpt lat="46.1199610" lon="10.4975960">
	<ele>2046.80</ele>
	<time>2024-07-25T09:18:07.000Z</time>
</trkpt>
<trkpt lat="46.1199690" lon="10.4976050">
	<ele>2047.00</ele>
	<time>2024-07-25T09:18:08.000Z</time>
</trkpt>
<trkpt lat="46.1199760" lon="10.4976130">
	<ele>2047.20</ele>
	<time>2024-07-25T09:18:09.000Z</time>
</trkpt>
<trkpt lat="46.1199850" lon="10.4976200">
	<ele>2047.40</ele>
	<time>2024-07-25T09:18:10.000Z</time>
</trkpt>
<trkpt lat="46.1199930" lon="10.4976260">
	<ele>2047.60</ele>
	<time>2024-07-25T09:18:11.000Z</time>
</trkpt>
<trkpt lat="46.1200000" lon="10.4976310">
	<ele>2047.80</ele>
	<time>2024-07-25T09:18:12.000Z</time>
</trkpt>
<trkpt lat="46.1200050" lon="10.4976370">
	<ele>2047.80</ele>
	<time>2024-07-25T09:18:13.000Z</time>
</trkpt>
<trkpt lat="46.1200140" lon="10.4976430">
	<ele>2048.00</ele>
	<time>2024-07-25T09:18:14.000Z</time>
</trkpt>
<trkpt lat="46.1200230" lon="10.4976500">
	<ele>2048.00</ele>
	<time>2024-07-25T09:18:15.000Z</time>
</trkpt>
<trkpt lat="46.1200260" lon="10.4976490">
	<ele>2048.20</ele>
	<time>2024-07-25T09:18:16.000Z</time>
</trkpt>
<trkpt lat="46.1200330" lon="10.4976500">
	<ele>2048.40</ele>
	<time>2024-07-25T09:18:17.000Z</time>
</trkpt>
<trkpt lat="46.1200390" lon="10.4976530">
	<ele>2048.40</ele>
	<time>2024-07-25T09:18:18.000Z</time>
</trkpt>
<trkpt lat="46.1200450" lon="10.4976590">
	<ele>2048.60</ele>
	<time>2024-07-25T09:18:19.000Z</time>
</trkpt>
<trkpt lat="46.1200490" lon="10.4976680">
	<ele>2048.60</ele>
	<time>2024-07-25T09:18:20.000Z</time>
</trkpt>
<trkpt lat="46.1200510" lon="10.4976740">
	<ele>2048.80</ele>
	<time>2024-07-25T09:18:21.000Z</time>
</trkpt>
<trkpt lat="46.1200510" lon="10.4976790">
	<ele>2049.00</ele>
	<time>2024-07-25T09:18:22.000Z</time>
</trkpt>
<trkpt lat="46.1200500" lon="10.4976810">
	<ele>2049.20</ele>
	<time>2024-07-25T09:18:23.000Z</time>
</trkpt>
<trkpt lat="46.1200490" lon="10.4976820">
	<ele>2049.40</ele>
	<time>2024-07-25T09:18:24.000Z</time>
</trkpt>
<trkpt lat="46.1200480" lon="10.4976860">
	<ele>2049.40</ele>
	<time>2024-07-25T09:18:25.000Z</time>
</trkpt>
<trkpt lat="46.1200480" lon="10.4976920">
	<ele>2049.40</ele>
	<time>2024-07-25T09:18:26.000Z</time>
</trkpt>
<trkpt lat="46.1200470" lon="10.4977000">
	<ele>2049.60</ele>
	<time>2024-07-25T09:18:27.000Z</time>
</trkpt>
<trkpt lat="46.1200520" lon="10.4977100">
	<ele>2049.60</ele>
	<time>2024-07-25T09:18:28.000Z</time>
</trkpt>
<trkpt lat="46.1200530" lon="10.4977170">
	<ele>2049.80</ele>
	<time>2024-07-25T09:18:29.000Z</time>
</trkpt>
<trkpt lat="46.1200530" lon="10.4977280">
	<ele>2049.80</ele>
	<time>2024-07-25T09:18:30.000Z</time>
</trkpt>
<trkpt lat="46.1200530" lon="10.4977380">
	<ele>2050.00</ele>
	<time>2024-07-25T09:18:31.000Z</time>
</trkpt>
<trkpt lat="46.1200490" lon="10.4977450">
	<ele>2050.00</ele>
	<time>2024-07-25T09:18:32.000Z</time>
</trkpt>
<trkpt lat="46.1200420" lon="10.4977540">
	<ele>2050.20</ele>
	<time>2024-07-25T09:18:33.000Z</time>
</trkpt>
<trkpt lat="46.1200340" lon="10.4977610">
	<ele>2050.20</ele>
	<time>2024-07-25T09:18:34.000Z</time>
</trkpt>
<trkpt lat="46.1200280" lon="10.4977690">
	<ele>2050.40</ele>
	<time>2024-07-25T09:18:35.000Z</time>
</trkpt>
<trkpt lat="46.1200190" lon="10.4977730">
	<ele>2050.40</ele>
	<time>2024-07-25T09:18:36.000Z</time>
</trkpt>
<trkpt lat="46.1200130" lon="10.4977760">
	<ele>2050.60</ele>
	<time>2024-07-25T09:18:37.000Z</time>
</trkpt>
<trkpt lat="46.1200060" lon="10.4977770">
	<ele>2050.80</ele>
	<time>2024-07-25T09:18:38.000Z</time>
</trkpt>
<trkpt lat="46.1200000" lon="10.4977820">
	<ele>2051.00</ele>
	<time>2024-07-25T09:18:39.000Z</time>
</trkpt>
<trkpt lat="46.1199940" lon="10.4977830">
	<ele>2051.20</ele>
	<time>2024-07-25T09:18:40.000Z</time>
</trkpt>
<trkpt lat="46.1199870" lon="10.4977810">
	<ele>2051.40</ele>
	<time>2024-07-25T09:18:41.000Z</time>
</trkpt>
<trkpt lat="46.1199790" lon="10.4977800">
	<ele>2051.40</ele>
	<time>2024-07-25T09:18:42.000Z</time>
</trkpt>
<trkpt lat="46.1199720" lon="10.4977820">
	<ele>2051.60</ele>
	<time>2024-07-25T09:18:43.000Z</time>
</trkpt>
<trkpt lat="46.1199630" lon="10.4977840">
	<ele>2051.60</ele>
	<time>2024-07-25T09:18:44.000Z</time>
</trkpt>
<trkpt lat="46.1199520" lon="10.4977890">
	<ele>2051.80</ele>
	<time>2024-07-25T09:18:45.000Z</time>
</trkpt>
<trkpt lat="46.1199430" lon="10.4977990">
	<ele>2052.00</ele>
	<time>2024-07-25T09:18:46.000Z</time>
</trkpt>
<trkpt lat="46.1199360" lon="10.4978050">
	<ele>2052.20</ele>
	<time>2024-07-25T09:18:47.000Z</time>
</trkpt>
<trkpt lat="46.1199310" lon="10.4978080">
	<ele>2052.20</ele>
	<time>2024-07-25T09:18:48.000Z</time>
</trkpt>
<trkpt lat="46.1199230" lon="10.4978150">
	<ele>2052.60</ele>
	<time>2024-07-25T09:18:49.000Z</time>
</trkpt>
<trkpt lat="46.1199150" lon="10.4978290">
	<ele>2052.60</ele>
	<time>2024-07-25T09:18:50.000Z</time>
</trkpt>
<trkpt lat="46.1199120" lon="10.4978340">
	<ele>2052.80</ele>
	<time>2024-07-25T09:18:51.000Z</time>
</trkpt>
<trkpt lat="46.1199080" lon="10.4978480">
	<ele>2053.00</ele>
	<time>2024-07-25T09:18:52.000Z</time>
</trkpt>
<trkpt lat="46.1199000" lon="10.4978560">
	<ele>2053.00</ele>
	<time>2024-07-25T09:18:53.000Z</time>
</trkpt>
<trkpt lat="46.1198960" lon="10.4978630">
	<ele>2053.20</ele>
	<time>2024-07-25T09:18:54.000Z</time>
</trkpt>
<trkpt lat="46.1198910" lon="10.4978730">
	<ele>2053.20</ele>
	<time>2024-07-25T09:18:55.000Z</time>
</trkpt>
<trkpt lat="46.1198900" lon="10.4978820">
	<ele>2053.60</ele>
	<time>2024-07-25T09:18:56.000Z</time>
</trkpt>
<trkpt lat="46.1198890" lon="10.4978900">
	<ele>2053.80</ele>
	<time>2024-07-25T09:18:57.000Z</time>
</trkpt>
<trkpt lat="46.1198860" lon="10.4979010">
	<ele>2054.00</ele>
	<time>2024-07-25T09:18:58.000Z</time>
</trkpt>
<trkpt lat="46.1198830" lon="10.4979080">
	<ele>2054.20</ele>
	<time>2024-07-25T09:18:59.000Z</time>
</trkpt>
<trkpt lat="46.1198780" lon="10.4979230">
	<ele>2054.20</ele>
	<time>2024-07-25T09:19:00.000Z</time>
</trkpt>
<trkpt lat="46.1198740" lon="10.4979330">
	<ele>2054.40</ele>
	<time>2024-07-25T09:19:01.000Z</time>
</trkpt>
<trkpt lat="46.1198670" lon="10.4979440">
	<ele>2054.60</ele>
	<time>2024-07-25T09:19:02.000Z</time>
</trkpt>
<trkpt lat="46.1198620" lon="10.4979570">
	<ele>2054.80</ele>
	<time>2024-07-25T09:19:03.000Z</time>
</trkpt>
<trkpt lat="46.1198560" lon="10.4979660">
	<ele>2055.00</ele>
	<time>2024-07-25T09:19:04.000Z</time>
</trkpt>
<trkpt lat="46.1198520" lon="10.4979780">
	<ele>2055.20</ele>
	<time>2024-07-25T09:19:05.000Z</time>
</trkpt>
<trkpt lat="46.1198470" lon="10.4979890">
	<ele>2055.20</ele>
	<time>2024-07-25T09:19:06.000Z</time>
</trkpt>
<trkpt lat="46.1198430" lon="10.4979970">
	<ele>2055.40</ele>
	<time>2024-07-25T09:19:07.000Z</time>
</trkpt>
<trkpt lat="46.1198430" lon="10.4980060">
	<ele>2055.80</ele>
	<time>2024-07-25T09:19:08.000Z</time>
</trkpt>
<trkpt lat="46.1198420" lon="10.4980120">
	<ele>2056.00</ele>
	<time>2024-07-25T09:19:09.000Z</time>
</trkpt>
<trkpt lat="46.1198420" lon="10.4980240">
	<ele>2056.40</ele>
	<time>2024-07-25T09:19:10.000Z</time>
</trkpt>
<trkpt lat="46.1198430" lon="10.4980370">
	<ele>2056.60</ele>
	<time>2024-07-25T09:19:11.000Z</time>
</trkpt>
<trkpt lat="46.1198470" lon="10.4980500">
	<ele>2056.60</ele>
	<time>2024-07-25T09:19:12.000Z</time>
</trkpt>
<trkpt lat="46.1198500" lon="10.4980610">
	<ele>2056.80</ele>
	<time>2024-07-25T09:19:13.000Z</time>
</trkpt>
<trkpt lat="46.1198510" lon="10.4980730">
	<ele>2057.00</ele>
	<time>2024-07-25T09:19:14.000Z</time>
</trkpt>
<trkpt lat="46.1198510" lon="10.4980840">
	<ele>2057.00</ele>
	<time>2024-07-25T09:19:15.000Z</time>
</trkpt>
<trkpt lat="46.1198510" lon="10.4980960">
	<ele>2057.20</ele>
	<time>2024-07-25T09:19:16.000Z</time>
</trkpt>
<trkpt lat="46.1198530" lon="10.4981080">
	<ele>2057.40</ele>
	<time>2024-07-25T09:19:17.000Z</time>
</trkpt>
<trkpt lat="46.1198530" lon="10.4981190">
	<ele>2057.60</ele>
	<time>2024-07-25T09:19:18.000Z</time>
</trkpt>
<trkpt lat="46.1198540" lon="10.4981310">
	<ele>2057.60</ele>
	<time>2024-07-25T09:19:19.000Z</time>
</trkpt>
<trkpt lat="46.1198560" lon="10.4981440">
	<ele>2057.60</ele>
	<time>2024-07-25T09:19:20.000Z</time>
</trkpt>
<trkpt lat="46.1198570" lon="10.4981570">
	<ele>2058.00</ele>
	<time>2024-07-25T09:19:21.000Z</time>
</trkpt>
<trkpt lat="46.1198560" lon="10.4981690">
	<ele>2058.00</ele>
	<time>2024-07-25T09:19:22.000Z</time>
</trkpt>
<trkpt lat="46.1198570" lon="10.4981750">
	<ele>2058.20</ele>
	<time>2024-07-25T09:19:23.000Z</time>
</trkpt>
<trkpt lat="46.1198560" lon="10.4981840">
	<ele>2058.60</ele>
	<time>2024-07-25T09:19:24.000Z</time>
</trkpt>
<trkpt lat="46.1198550" lon="10.4981930">
	<ele>2058.80</ele>
	<time>2024-07-25T09:19:25.000Z</time>
</trkpt>
<trkpt lat="46.1198540" lon="10.4982050">
	<ele>2059.00</ele>
	<time>2024-07-25T09:19:26.000Z</time>
</trkpt>
<trkpt lat="46.1198520" lon="10.4982180">
	<ele>2059.20</ele>
	<time>2024-07-25T09:19:27.000Z</time>
</trkpt>
<trkpt lat="46.1198530" lon="10.4982270">
	<ele>2059.40</ele>
	<time>2024-07-25T09:19:28.000Z</time>
</trkpt>
<trkpt lat="46.1198520" lon="10.4982350">
	<ele>2059.80</ele>
	<time>2024-07-25T09:19:29.000Z</time>
</trkpt>
<trkpt lat="46.1198540" lon="10.4982440">
	<ele>2060.00</ele>
	<time>2024-07-25T09:19:30.000Z</time>
</trkpt>
<trkpt lat="46.1198520" lon="10.4982560">
	<ele>2060.20</ele>
	<time>2024-07-25T09:19:31.000Z</time>
</trkpt>
<trkpt lat="46.1198500" lon="10.4982670">
	<ele>2060.40</ele>
	<time>2024-07-25T09:19:32.000Z</time>
</trkpt>
<trkpt lat="46.1198490" lon="10.4982790">
	<ele>2060.40</ele>
	<time>2024-07-25T09:19:33.000Z</time>
</trkpt>
<trkpt lat="46.1198460" lon="10.4982900">
	<ele>2060.60</ele>
	<time>2024-07-25T09:19:34.000Z</time>
</trkpt>
<trkpt lat="46.1198450" lon="10.4983000">
	<ele>2061.00</ele>
	<time>2024-07-25T09:19:35.000Z</time>
</trkpt>
<trkpt lat="46.1198430" lon="10.4983130">
	<ele>2061.00</ele>
	<time>2024-07-25T09:19:36.000Z</time>
</trkpt>
<trkpt lat="46.1198420" lon="10.4983260">
	<ele>2061.20</ele>
	<time>2024-07-25T09:19:37.000Z</time>
</trkpt>
<trkpt lat="46.1198430" lon="10.4983370">
	<ele>2061.40</ele>
	<time>2024-07-25T09:19:38.000Z</time>
</trkpt>
<trkpt lat="46.1198460" lon="10.4983470">
	<ele>2061.40</ele>
	<time>2024-07-25T09:19:39.000Z</time>
</trkpt>
<trkpt lat="46.1198490" lon="10.4983570">
	<ele>2061.60</ele>
	<time>2024-07-25T09:19:40.000Z</time>
</trkpt>
<trkpt lat="46.1198540" lon="10.4983730">
	<ele>2061.60</ele>
	<time>2024-07-25T09:19:41.000Z</time>
</trkpt>
<trkpt lat="46.1198600" lon="10.4983840">
	<ele>2061.60</ele>
	<time>2024-07-25T09:19:42.000Z</time>
</trkpt>
<trkpt lat="46.1198660" lon="10.4983940">
	<ele>2061.80</ele>
	<time>2024-07-25T09:19:43.000Z</time>
</trkpt>
<trkpt lat="46.1198740" lon="10.4984030">
	<ele>2061.80</ele>
	<time>2024-07-25T09:19:44.000Z</time>
</trkpt>
<trkpt lat="46.1198830" lon="10.4984100">
	<ele>2061.80</ele>
	<time>2024-07-25T09:19:45.000Z</time>
</trkpt>
<trkpt lat="46.1198910" lon="10.4984130">
	<ele>2062.00</ele>
	<time>2024-07-25T09:19:46.000Z</time>
</trkpt>
<trkpt lat="46.1199000" lon="10.4984100">
	<ele>2062.20</ele>
	<time>2024-07-25T09:19:47.000Z</time>
</trkpt>
<trkpt lat="46.1199090" lon="10.4984070">
	<ele>2062.20</ele>
	<time>2024-07-25T09:19:48.000Z</time>
</trkpt>
<trkpt lat="46.1199170" lon="10.4984020">
	<ele>2062.40</ele>
	<time>2024-07-25T09:19:49.000Z</time>
</trkpt>
<trkpt lat="46.1199250" lon="10.4983950">
	<ele>2062.60</ele>
	<time>2024-07-25T09:19:50.000Z</time>
</trkpt>
<trkpt lat="46.1199340" lon="10.4983890">
	<ele>2062.80</ele>
	<time>2024-07-25T09:19:51.000Z</time>
</trkpt>
<trkpt lat="46.1199400" lon="10.4983860">
	<ele>2063.00</ele>
	<time>2024-07-25T09:19:52.000Z</time>
</trkpt>
<trkpt lat="46.1199470" lon="10.4983830">
	<ele>2063.00</ele>
	<time>2024-07-25T09:19:53.000Z</time>
</trkpt>
<trkpt lat="46.1199550" lon="10.4983810">
	<ele>2063.20</ele>
	<time>2024-07-25T09:19:54.000Z</time>
</trkpt>
<trkpt lat="46.1199650" lon="10.4983800">
	<ele>2063.40</ele>
	<time>2024-07-25T09:19:55.000Z</time>
</trkpt>
<trkpt lat="46.1199740" lon="10.4983810">
	<ele>2063.60</ele>
	<time>2024-07-25T09:19:56.000Z</time>
</trkpt>
<trkpt lat="46.1199840" lon="10.4983840">
	<ele>2063.60</ele>
	<time>2024-07-25T09:19:57.000Z</time>
</trkpt>
<trkpt lat="46.1199950" lon="10.4983810">
	<ele>2063.80</ele>
	<time>2024-07-25T09:19:58.000Z</time>
</trkpt>
<trkpt lat="46.1200060" lon="10.4983730">
	<ele>2063.80</ele>
	<time>2024-07-25T09:19:59.000Z</time>
</trkpt>
<trkpt lat="46.1200150" lon="10.4983690">
	<ele>2064.00</ele>
	<time>2024-07-25T09:20:00.000Z</time>
</trkpt>
<trkpt lat="46.1200250" lon="10.4983610">
	<ele>2064.40</ele>
	<time>2024-07-25T09:20:01.000Z</time>
</trkpt>
<trkpt lat="46.1200320" lon="10.4983550">
	<ele>2064.40</ele>
	<time>2024-07-25T09:20:02.000Z</time>
</trkpt>
<trkpt lat="46.1200370" lon="10.4983500">
	<ele>2064.60</ele>
	<time>2024-07-25T09:20:03.000Z</time>
</trkpt>
<trkpt lat="46.1200440" lon="10.4983460">
	<ele>2064.60</ele>
	<time>2024-07-25T09:20:04.000Z</time>
</trkpt>
<trkpt lat="46.1200520" lon="10.4983470">
	<ele>2064.80</ele>
	<time>2024-07-25T09:20:05.000Z</time>
</trkpt>
<trkpt lat="46.1200610" lon="10.4983440">
	<ele>2065.00</ele>
	<time>2024-07-25T09:20:06.000Z</time>
</trkpt>
<trkpt lat="46.1200690" lon="10.4983410">
	<ele>2065.00</ele>
	<time>2024-07-25T09:20:07.000Z</time>
</trkpt>
<trkpt lat="46.1200780" lon="10.4983380">
	<ele>2065.00</ele>
	<time>2024-07-25T09:20:08.000Z</time>
</trkpt>
<trkpt lat="46.1200850" lon="10.4983320">
	<ele>2065.20</ele>
	<time>2024-07-25T09:20:09.000Z</time>
</trkpt>
<trkpt lat="46.1200930" lon="10.4983230">
	<ele>2065.40</ele>
	<time>2024-07-25T09:20:10.000Z</time>
</trkpt>
<trkpt lat="46.1200970" lon="10.4983160">
	<ele>2065.60</ele>
	<time>2024-07-25T09:20:11.000Z</time>
</trkpt>
<trkpt lat="46.1201020" lon="10.4983060">
	<ele>2065.80</ele>
	<time>2024-07-25T09:20:12.000Z</time>
</trkpt>
<trkpt lat="46.1201090" lon="10.4982980">
	<ele>2066.00</ele>
	<time>2024-07-25T09:20:13.000Z</time>
</trkpt>
<trkpt lat="46.1201140" lon="10.4982900">
	<ele>2066.20</ele>
	<time>2024-07-25T09:20:14.000Z</time>
</trkpt>
<trkpt lat="46.1201200" lon="10.4982820">
	<ele>2066.40</ele>
	<time>2024-07-25T09:20:15.000Z</time>
</trkpt>
<trkpt lat="46.1201260" lon="10.4982760">
	<ele>2066.60</ele>
	<time>2024-07-25T09:20:16.000Z</time>
</trkpt>
<trkpt lat="46.1201350" lon="10.4982740">
	<ele>2066.60</ele>
	<time>2024-07-25T09:20:17.000Z</time>
</trkpt>
<trkpt lat="46.1201440" lon="10.4982750">
	<ele>2066.80</ele>
	<time>2024-07-25T09:20:18.000Z</time>
</trkpt>
<trkpt lat="46.1201520" lon="10.4982790">
	<ele>2066.80</ele>
	<time>2024-07-25T09:20:19.000Z</time>
</trkpt>
<trkpt lat="46.1201610" lon="10.4982840">
	<ele>2067.00</ele>
	<time>2024-07-25T09:20:20.000Z</time>
</trkpt>
<trkpt lat="46.1201700" lon="10.4982890">
	<ele>2067.00</ele>
	<time>2024-07-25T09:20:21.000Z</time>
</trkpt>
<trkpt lat="46.1201800" lon="10.4982960">
	<ele>2067.20</ele>
	<time>2024-07-25T09:20:22.000Z</time>
</trkpt>
<trkpt lat="46.1201860" lon="10.4983040">
	<ele>2067.20</ele>
	<time>2024-07-25T09:20:23.000Z</time>
</trkpt>
<trkpt lat="46.1201920" lon="10.4983150">
	<ele>2067.40</ele>
	<time>2024-07-25T09:20:24.000Z</time>
</trkpt>
<trkpt lat="46.1201970" lon="10.4983240">
	<ele>2067.60</ele>
	<time>2024-07-25T09:20:25.000Z</time>
</trkpt>
<trkpt lat="46.1202020" lon="10.4983340">
	<ele>2067.80</ele>
	<time>2024-07-25T09:20:26.000Z</time>
</trkpt>
<trkpt lat="46.1202080" lon="10.4983460">
	<ele>2068.00</ele>
	<time>2024-07-25T09:20:27.000Z</time>
</trkpt>
<trkpt lat="46.1202140" lon="10.4983580">
	<ele>2068.00</ele>
	<time>2024-07-25T09:20:28.000Z</time>
</trkpt>
<trkpt lat="46.1202180" lon="10.4983700">
	<ele>2068.20</ele>
	<time>2024-07-25T09:20:29.000Z</time>
</trkpt>
<trkpt lat="46.1202240" lon="10.4983830">
	<ele>2068.20</ele>
	<time>2024-07-25T09:20:30.000Z</time>
</trkpt>
<trkpt lat="46.1202280" lon="10.4983960">
	<ele>2068.40</ele>
	<time>2024-07-25T09:20:31.000Z</time>
</trkpt>
<trkpt lat="46.1202330" lon="10.4984070">
	<ele>2068.60</ele>
	<time>2024-07-25T09:20:32.000Z</time>
</trkpt>
<trkpt lat="46.1202390" lon="10.4984190">
	<ele>2068.60</ele>
	<time>2024-07-25T09:20:33.000Z</time>
</trkpt>
<trkpt lat="46.1202450" lon="10.4984290">
	<ele>2068.60</ele>
	<time>2024-07-25T09:20:34.000Z</time>
</trkpt>
<trkpt lat="46.1202500" lon="10.4984400">
	<ele>2068.80</ele>
	<time>2024-07-25T09:20:35.000Z</time>
</trkpt>
<trkpt lat="46.1202530" lon="10.4984470">
	<ele>2069.00</ele>
	<time>2024-07-25T09:20:36.000Z</time>
</trkpt>
<trkpt lat="46.1202570" lon="10.4984590">
	<ele>2069.00</ele>
	<time>2024-07-25T09:20:37.000Z</time>
</trkpt>
<trkpt lat="46.1202600" lon="10.4984730">
	<ele>2069.20</ele>
	<time>2024-07-25T09:20:38.000Z</time>
</trkpt>
<trkpt lat="46.1202640" lon="10.4984830">
	<ele>2069.40</ele>
	<time>2024-07-25T09:20:39.000Z</time>
</trkpt>
<trkpt lat="46.1202670" lon="10.4984960">
	<ele>2069.60</ele>
	<time>2024-07-25T09:20:40.000Z</time>
</trkpt>
<trkpt lat="46.1202710" lon="10.4985080">
	<ele>2069.80</ele>
	<time>2024-07-25T09:20:41.000Z</time>
</trkpt>
<trkpt lat="46.1202770" lon="10.4985250">
	<ele>2070.00</ele>
	<time>2024-07-25T09:20:42.000Z</time>
</trkpt>
<trkpt lat="46.1202820" lon="10.4985360">
	<ele>2070.00</ele>
	<time>2024-07-25T09:20:43.000Z</time>
</trkpt>
<trkpt lat="46.1202840" lon="10.4985450">
	<ele>2070.20</ele>
	<time>2024-07-25T09:20:44.000Z</time>
</trkpt>
<trkpt lat="46.1202880" lon="10.4985600">
	<ele>2070.20</ele>
	<time>2024-07-25T09:20:45.000Z</time>
</trkpt>
<trkpt lat="46.1202900" lon="10.4985740">
	<ele>2070.40</ele>
	<time>2024-07-25T09:20:46.000Z</time>
</trkpt>
<trkpt lat="46.1202910" lon="10.4985830">
	<ele>2070.40</ele>
	<time>2024-07-25T09:20:47.000Z</time>
</trkpt>
<trkpt lat="46.1202910" lon="10.4985970">
	<ele>2070.40</ele>
	<time>2024-07-25T09:20:48.000Z</time>
</trkpt>
<trkpt lat="46.1202950" lon="10.4986090">
	<ele>2070.60</ele>
	<time>2024-07-25T09:20:49.000Z</time>
</trkpt>
<trkpt lat="46.1203000" lon="10.4986190">
	<ele>2070.60</ele>
	<time>2024-07-25T09:20:50.000Z</time>
</trkpt>
<trkpt lat="46.1203040" lon="10.4986280">
	<ele>2070.80</ele>
	<time>2024-07-25T09:20:51.000Z</time>
</trkpt>
<trkpt lat="46.1203100" lon="10.4986390">
	<ele>2070.80</ele>
	<time>2024-07-25T09:20:52.000Z</time>
</trkpt>
<trkpt lat="46.1203190" lon="10.4986460">
	<ele>2071.00</ele>
	<time>2024-07-25T09:20:53.000Z</time>
</trkpt>
<trkpt lat="46.1203270" lon="10.4986510">
	<ele>2071.40</ele>
	<time>2024-07-25T09:20:54.000Z</time>
</trkpt>
<trkpt lat="46.1203360" lon="10.4986530">
	<ele>2071.40</ele>
	<time>2024-07-25T09:20:55.000Z</time>
</trkpt>
<trkpt lat="46.1203450" lon="10.4986540">
	<ele>2071.60</ele>
	<time>2024-07-25T09:20:56.000Z</time>
</trkpt>
<trkpt lat="46.1203550" lon="10.4986540">
	<ele>2071.60</ele>
	<time>2024-07-25T09:20:57.000Z</time>
</trkpt>
<trkpt lat="46.1203630" lon="10.4986530">
	<ele>2071.80</ele>
	<time>2024-07-25T09:20:58.000Z</time>
</trkpt>
<trkpt lat="46.1203720" lon="10.4986510">
	<ele>2071.80</ele>
	<time>2024-07-25T09:20:59.000Z</time>
</trkpt>
<trkpt lat="46.1203810" lon="10.4986450">
	<ele>2071.80</ele>
	<time>2024-07-25T09:21:00.000Z</time>
</trkpt>
<trkpt lat="46.1203900" lon="10.4986390">
	<ele>2071.80</ele>
	<time>2024-07-25T09:21:01.000Z</time>
</trkpt>
<trkpt lat="46.1203970" lon="10.4986310">
	<ele>2072.00</ele>
	<time>2024-07-25T09:21:02.000Z</time>
</trkpt>
<trkpt lat="46.1204030" lon="10.4986220">
	<ele>2072.00</ele>
	<time>2024-07-25T09:21:03.000Z</time>
</trkpt>
<trkpt lat="46.1204070" lon="10.4986150">
	<ele>2072.20</ele>
	<time>2024-07-25T09:21:04.000Z</time>
</trkpt>
<trkpt lat="46.1204160" lon="10.4986030">
	<ele>2072.40</ele>
	<time>2024-07-25T09:21:05.000Z</time>
</trkpt>
<trkpt lat="46.1204210" lon="10.4985870">
	<ele>2072.40</ele>
	<time>2024-07-25T09:21:06.000Z</time>
</trkpt>
<trkpt lat="46.1204260" lon="10.4985740">
	<ele>2072.60</ele>
	<time>2024-07-25T09:21:07.000Z</time>
</trkpt>
<trkpt lat="46.1204320" lon="10.4985670">
	<ele>2072.60</ele>
	<time>2024-07-25T09:21:08.000Z</time>
</trkpt>
<trkpt lat="46.1204420" lon="10.4985600">
	<ele>2072.80</ele>
	<time>2024-07-25T09:21:09.000Z</time>
</trkpt>
<trkpt lat="46.1204500" lon="10.4985620">
	<ele>2072.80</ele>
	<time>2024-07-25T09:21:10.000Z</time>
</trkpt>
<trkpt lat="46.1204570" lon="10.4985630">
	<ele>2072.80</ele>
	<time>2024-07-25T09:21:11.000Z</time>
</trkpt>
<trkpt lat="46.1204640" lon="10.4985670">
	<ele>2073.00</ele>
	<time>2024-07-25T09:21:12.000Z</time>
</trkpt>
<trkpt lat="46.1204740" lon="10.4985710">
	<ele>2073.00</ele>
	<time>2024-07-25T09:21:13.000Z</time>
</trkpt>
<trkpt lat="46.1204810" lon="10.4985730">
	<ele>2073.00</ele>
	<time>2024-07-25T09:21:14.000Z</time>
</trkpt>
<trkpt lat="46.1204860" lon="10.4985800">
	<ele>2073.20</ele>
	<time>2024-07-25T09:21:15.000Z</time>
</trkpt>
<trkpt lat="46.1204910" lon="10.4985890">
	<ele>2073.40</ele>
	<time>2024-07-25T09:21:16.000Z</time>
</trkpt>
<trkpt lat="46.1204970" lon="10.4985910">
	<ele>2073.80</ele>
	<time>2024-07-25T09:21:17.000Z</time>
</trkpt>
<trkpt lat="46.1205020" lon="10.4985990">
	<ele>2074.40</ele>
	<time>2024-07-25T09:21:18.000Z</time>
</trkpt>
<trkpt lat="46.1205060" lon="10.4986070">
	<ele>2074.60</ele>
	<time>2024-07-25T09:21:19.000Z</time>
</trkpt>
<trkpt lat="46.1205080" lon="10.4986120">
	<ele>2075.00</ele>
	<time>2024-07-25T09:21:20.000Z</time>
</trkpt>
<trkpt lat="46.1205150" lon="10.4986190">
	<ele>2075.20</ele>
	<time>2024-07-25T09:21:21.000Z</time>
</trkpt>
<trkpt lat="46.1205210" lon="10.4986260">
	<ele>2075.40</ele>
	<time>2024-07-25T09:21:22.000Z</time>
</trkpt>
<trkpt lat="46.1205260" lon="10.4986350">
	<ele>2075.60</ele>
	<time>2024-07-25T09:21:23.000Z</time>
</trkpt>
<trkpt lat="46.1205310" lon="10.4986440">
	<ele>2075.60</ele>
	<time>2024-07-25T09:21:24.000Z</time>
</trkpt>
<trkpt lat="46.1205350" lon="10.4986540">
	<ele>2075.80</ele>
	<time>2024-07-25T09:21:25.000Z</time>
</trkpt>
<trkpt lat="46.1205400" lon="10.4986630">
	<ele>2075.80</ele>
	<time>2024-07-25T09:21:26.000Z</time>
</trkpt>
<trkpt lat="46.1205460" lon="10.4986720">
	<ele>2076.00</ele>
	<time>2024-07-25T09:21:27.000Z</time>
</trkpt>
<trkpt lat="46.1205500" lon="10.4986760">
	<ele>2076.20</ele>
	<time>2024-07-25T09:21:28.000Z</time>
</trkpt>
<trkpt lat="46.1205560" lon="10.4986850">
	<ele>2076.40</ele>
	<time>2024-07-25T09:21:29.000Z</time>
</trkpt>
<trkpt lat="46.1205600" lon="10.4986920">
	<ele>2076.60</ele>
	<time>2024-07-25T09:21:30.000Z</time>
</trkpt>
<trkpt lat="46.1205650" lon="10.4986980">
	<ele>2076.80</ele>
	<time>2024-07-25T09:21:31.000Z</time>
</trkpt>
<trkpt lat="46.1205690" lon="10.4987030">
	<ele>2077.00</ele>
	<time>2024-07-25T09:21:32.000Z</time>
</trkpt>
<trkpt lat="46.1205750" lon="10.4987080">
	<ele>2077.00</ele>
	<time>2024-07-25T09:21:33.000Z</time>
</trkpt>
<trkpt lat="46.1205770" lon="10.4987140">
	<ele>2077.40</ele>
	<time>2024-07-25T09:21:34.000Z</time>
</trkpt>
<trkpt lat="46.1205830" lon="10.4987240">
	<ele>2077.60</ele>
	<time>2024-07-25T09:21:35.000Z</time>
</trkpt>
<trkpt lat="46.1205870" lon="10.4987340">
	<ele>2077.60</ele>
	<time>2024-07-25T09:21:36.000Z</time>
</trkpt>
<trkpt lat="46.1205950" lon="10.4987430">
	<ele>2077.80</ele>
	<time>2024-07-25T09:21:37.000Z</time>
</trkpt>
<trkpt lat="46.1206020" lon="10.4987490">
	<ele>2078.00</ele>
	<time>2024-07-25T09:21:38.000Z</time>
</trkpt>
<trkpt lat="46.1206100" lon="10.4987560">
	<ele>2078.00</ele>
	<time>2024-07-25T09:21:39.000Z</time>
</trkpt>
<trkpt lat="46.1206160" lon="10.4987640">
	<ele>2078.00</ele>
	<time>2024-07-25T09:21:40.000Z</time>
</trkpt>
<trkpt lat="46.1206180" lon="10.4987730">
	<ele>2078.20</ele>
	<time>2024-07-25T09:21:41.000Z</time>
</trkpt>
<trkpt lat="46.1206310" lon="10.4987860">
	<ele>2078.20</ele>
	<time>2024-07-25T09:21:42.000Z</time>
</trkpt>
<trkpt lat="46.1206420" lon="10.4987960">
	<ele>2078.40</ele>
	<time>2024-07-25T09:21:43.000Z</time>
</trkpt>
<trkpt lat="46.1206470" lon="10.4988050">
	<ele>2078.40</ele>
	<time>2024-07-25T09:21:44.000Z</time>
</trkpt>
<trkpt lat="46.1206540" lon="10.4988150">
	<ele>2078.60</ele>
	<time>2024-07-25T09:21:45.000Z</time>
</trkpt>
<trkpt lat="46.1206600" lon="10.4988260">
	<ele>2078.80</ele>
	<time>2024-07-25T09:21:46.000Z</time>
</trkpt>
<trkpt lat="46.1206650" lon="10.4988350">
	<ele>2078.80</ele>
	<time>2024-07-25T09:21:47.000Z</time>
</trkpt>
<trkpt lat="46.1206700" lon="10.4988470">
	<ele>2079.00</ele>
	<time>2024-07-25T09:21:48.000Z</time>
</trkpt>
<trkpt lat="46.1206760" lon="10.4988530">
	<ele>2079.00</ele>
	<time>2024-07-25T09:21:49.000Z</time>
</trkpt>
<trkpt lat="46.1206840" lon="10.4988590">
	<ele>2079.20</ele>
	<time>2024-07-25T09:21:50.000Z</time>
</trkpt>
<trkpt lat="46.1206920" lon="10.4988680">
	<ele>2079.20</ele>
	<time>2024-07-25T09:21:51.000Z</time>
</trkpt>
<trkpt lat="46.1207010" lon="10.4988780">
	<ele>2079.40</ele>
	<time>2024-07-25T09:21:52.000Z</time>
</trkpt>
<trkpt lat="46.1207100" lon="10.4988860">
	<ele>2079.40</ele>
	<time>2024-07-25T09:21:53.000Z</time>
</trkpt>
<trkpt lat="46.1207140" lon="10.4988950">
	<ele>2079.60</ele>
	<time>2024-07-25T09:21:54.000Z</time>
</trkpt>
<trkpt lat="46.1207150" lon="10.4989020">
	<ele>2079.80</ele>
	<time>2024-07-25T09:21:55.000Z</time>
</trkpt>
<trkpt lat="46.1207220" lon="10.4989080">
	<ele>2079.80</ele>
	<time>2024-07-25T09:21:56.000Z</time>
</trkpt>
<trkpt lat="46.1207320" lon="10.4989150">
	<ele>2080.00</ele>
	<time>2024-07-25T09:21:57.000Z</time>
</trkpt>
<trkpt lat="46.1207400" lon="10.4989210">
	<ele>2080.00</ele>
	<time>2024-07-25T09:21:58.000Z</time>
</trkpt>
<trkpt lat="46.1207460" lon="10.4989320">
	<ele>2080.00</ele>
	<time>2024-07-25T09:21:59.000Z</time>
</trkpt>
<trkpt lat="46.1207530" lon="10.4989410">
	<ele>2080.20</ele>
	<time>2024-07-25T09:22:00.000Z</time>
</trkpt>
<trkpt lat="46.1207580" lon="10.4989480">
	<ele>2080.20</ele>
	<time>2024-07-25T09:22:01.000Z</time>
</trkpt>
<trkpt lat="46.1207600" lon="10.4989600">
	<ele>2080.20</ele>
	<time>2024-07-25T09:22:02.000Z</time>
</trkpt>
<trkpt lat="46.1207640" lon="10.4989700">
	<ele>2080.20</ele>
	<time>2024-07-25T09:22:03.000Z</time>
</trkpt>
<trkpt lat="46.1207670" lon="10.4989770">
	<ele>2080.40</ele>
	<time>2024-07-25T09:22:04.000Z</time>
</trkpt>
<trkpt lat="46.1207690" lon="10.4989810">
	<ele>2080.40</ele>
	<time>2024-07-25T09:22:05.000Z</time>
</trkpt>
<trkpt lat="46.1207690" lon="10.4989830">
	<ele>2080.60</ele>
	<time>2024-07-25T09:22:06.000Z</time>
</trkpt>
<trkpt lat="46.1207690" lon="10.4989850">
	<ele>2080.80</ele>
	<time>2024-07-25T09:22:07.000Z</time>
</trkpt>
<trkpt lat="46.1207700" lon="10.4989870">
	<ele>2081.00</ele>
	<time>2024-07-25T09:22:08.000Z</time>
</trkpt>
<trkpt lat="46.1207710" lon="10.4989950">
	<ele>2081.00</ele>
	<time>2024-07-25T09:22:09.000Z</time>
</trkpt>
<trkpt lat="46.1207750" lon="10.4990040">
	<ele>2081.00</ele>
	<time>2024-07-25T09:22:10.000Z</time>
</trkpt>
<trkpt lat="46.1207770" lon="10.4990140">
	<ele>2081.00</ele>
	<time>2024-07-25T09:22:11.000Z</time>
</trkpt>
<trkpt lat="46.1207800" lon="10.4990230">
	<ele>2081.00</ele>
	<time>2024-07-25T09:22:12.000Z</time>
</trkpt>
<trkpt lat="46.1207870" lon="10.4990340">
	<ele>2081.00</ele>
	<time>2024-07-25T09:22:13.000Z</time>
</trkpt>
<trkpt lat="46.1207970" lon="10.4990400">
	<ele>2081.20</ele>
	<time>2024-07-25T09:22:14.000Z</time>
</trkpt>
<trkpt lat="46.1208050" lon="10.4990460">
	<ele>2081.40</ele>
	<time>2024-07-25T09:22:15.000Z</time>
</trkpt>
<trkpt lat="46.1208150" lon="10.4990510">
	<ele>2081.40</ele>
	<time>2024-07-25T09:22:16.000Z</time>
</trkpt>
<trkpt lat="46.1208240" lon="10.4990530">
	<ele>2081.60</ele>
	<time>2024-07-25T09:22:17.000Z</time>
</trkpt>
<trkpt lat="46.1208300" lon="10.4990550">
	<ele>2081.60</ele>
	<time>2024-07-25T09:22:18.000Z</time>
</trkpt>
<trkpt lat="46.1208350" lon="10.4990580">
	<ele>2081.60</ele>
	<time>2024-07-25T09:22:19.000Z</time>
</trkpt>
<trkpt lat="46.1208400" lon="10.4990660">
	<ele>2081.80</ele>
	<time>2024-07-25T09:22:20.000Z</time>
</trkpt>
<trkpt lat="46.1208530" lon="10.4990740">
	<ele>2081.80</ele>
	<time>2024-07-25T09:22:21.000Z</time>
</trkpt>
<trkpt lat="46.1208650" lon="10.4990820">
	<ele>2082.00</ele>
	<time>2024-07-25T09:22:22.000Z</time>
</trkpt>
<trkpt lat="46.1208780" lon="10.4990910">
	<ele>2082.00</ele>
	<time>2024-07-25T09:22:23.000Z</time>
</trkpt>
<trkpt lat="46.1208880" lon="10.4991020">
	<ele>2082.20</ele>
	<time>2024-07-25T09:22:24.000Z</time>
</trkpt>
<trkpt lat="46.1208990" lon="10.4991130">
	<ele>2082.20</ele>
	<time>2024-07-25T09:22:25.000Z</time>
</trkpt>
<trkpt lat="46.1209100" lon="10.4991190">
	<ele>2082.40</ele>
	<time>2024-07-25T09:22:26.000Z</time>
</trkpt>
<trkpt lat="46.1209200" lon="10.4991210">
	<ele>2082.40</ele>
	<time>2024-07-25T09:22:27.000Z</time>
</trkpt>
<trkpt lat="46.1209290" lon="10.4991260">
	<ele>2082.40</ele>
	<time>2024-07-25T09:22:28.000Z</time>
</trkpt>
<trkpt lat="46.1209430" lon="10.4991350">
	<ele>2082.20</ele>
	<time>2024-07-25T09:22:29.000Z</time>
</trkpt>
<trkpt lat="46.1209560" lon="10.4991450">
	<ele>2082.00</ele>
	<time>2024-07-25T09:22:30.000Z</time>
</trkpt>
<trkpt lat="46.1209680" lon="10.4991510">
	<ele>2082.00</ele>
	<time>2024-07-25T09:22:31.000Z</time>
</trkpt>
<trkpt lat="46.1209770" lon="10.4991550">
	<ele>2081.80</ele>
	<time>2024-07-25T09:22:32.000Z</time>
</trkpt>
<trkpt lat="46.1209810" lon="10.4991580">
	<ele>2081.80</ele>
	<time>2024-07-25T09:22:33.000Z</time>
</trkpt>
<trkpt lat="46.1209890" lon="10.4991640">
	<ele>2081.80</ele>
	<time>2024-07-25T09:22:34.000Z</time>
</trkpt>
<trkpt lat="46.1210000" lon="10.4991700">
	<ele>2081.80</ele>
	<time>2024-07-25T09:22:35.000Z</time>
</trkpt>
<trkpt lat="46.1210130" lon="10.4991770">
	<ele>2081.80</ele>
	<time>2024-07-25T09:22:36.000Z</time>
</trkpt>
<trkpt lat="46.1210280" lon="10.4991870">
	<ele>2081.60</ele>
	<time>2024-07-25T09:22:37.000Z</time>
</trkpt>
<trkpt lat="46.1210420" lon="10.4991940">
	<ele>2081.60</ele>
	<time>2024-07-25T09:22:38.000Z</time>
</trkpt>
<trkpt lat="46.1210530" lon="10.4992020">
	<ele>2081.60</ele>
	<time>2024-07-25T09:22:39.000Z</time>
</trkpt>
<trkpt lat="46.1210630" lon="10.4992110">
	<ele>2081.60</ele>
	<time>2024-07-25T09:22:40.000Z</time>
</trkpt>
<trkpt lat="46.1210720" lon="10.4992190">
	<ele>2081.60</ele>
	<time>2024-07-25T09:22:41.000Z</time>
</trkpt>
<trkpt lat="46.1210820" lon="10.4992270">
	<ele>2081.80</ele>
	<time>2024-07-25T09:22:42.000Z</time>
</trkpt>
<trkpt lat="46.1210910" lon="10.4992340">
	<ele>2081.80</ele>
	<time>2024-07-25T09:22:43.000Z</time>
</trkpt>
<trkpt lat="46.1211030" lon="10.4992440">
	<ele>2081.80</ele>
	<time>2024-07-25T09:22:44.000Z</time>
</trkpt>
<trkpt lat="46.1211140" lon="10.4992540">
	<ele>2081.80</ele>
	<time>2024-07-25T09:22:45.000Z</time>
</trkpt>
<trkpt lat="46.1211250" lon="10.4992670">
	<ele>2081.80</ele>
	<time>2024-07-25T09:22:46.000Z</time>
</trkpt>
<trkpt lat="46.1211380" lon="10.4992780">
	<ele>2081.80</ele>
	<time>2024-07-25T09:22:47.000Z</time>
</trkpt>
<trkpt lat="46.1211510" lon="10.4992860">
	<ele>2082.00</ele>
	<time>2024-07-25T09:22:48.000Z</time>
</trkpt>
<trkpt lat="46.1211620" lon="10.4992950">
	<ele>2082.00</ele>
	<time>2024-07-25T09:22:49.000Z</time>
</trkpt>
<trkpt lat="46.1211730" lon="10.4993030">
	<ele>2082.20</ele>
	<time>2024-07-25T09:22:50.000Z</time>
</trkpt>
<trkpt lat="46.1211830" lon="10.4993080">
	<ele>2082.20</ele>
	<time>2024-07-25T09:22:51.000Z</time>
</trkpt>
<trkpt lat="46.1211940" lon="10.4993150">
	<ele>2082.20</ele>
	<time>2024-07-25T09:22:52.000Z</time>
</trkpt>
<trkpt lat="46.1212040" lon="10.4993250">
	<ele>2082.20</ele>
	<time>2024-07-25T09:22:53.000Z</time>
</trkpt>
<trkpt lat="46.1212130" lon="10.4993340">
	<ele>2082.00</ele>
	<time>2024-07-25T09:22:54.000Z</time>
</trkpt>
<trkpt lat="46.1212220" lon="10.4993450">
	<ele>2082.00</ele>
	<time>2024-07-25T09:22:55.000Z</time>
</trkpt>
<trkpt lat="46.1212340" lon="10.4993580">
	<ele>2082.00</ele>
	<time>2024-07-25T09:22:56.000Z</time>
</trkpt>
<trkpt lat="46.1212450" lon="10.4993730">
	<ele>2082.00</ele>
	<time>2024-07-25T09:22:57.000Z</time>
</trkpt>
<trkpt lat="46.1212540" lon="10.4993870">
	<ele>2082.00</ele>
	<time>2024-07-25T09:22:58.000Z</time>
</trkpt>
<trkpt lat="46.1212630" lon="10.4993980">
	<ele>2082.00</ele>
	<time>2024-07-25T09:22:59.000Z</time>
</trkpt>
<trkpt lat="46.1212730" lon="10.4994140">
	<ele>2082.00</ele>
	<time>2024-07-25T09:23:00.000Z</time>
</trkpt>
<trkpt lat="46.1212820" lon="10.4994240">
	<ele>2082.00</ele>
	<time>2024-07-25T09:23:01.000Z</time>
</trkpt>
<trkpt lat="46.1212890" lon="10.4994340">
	<ele>2082.00</ele>
	<time>2024-07-25T09:23:02.000Z</time>
</trkpt>
<trkpt lat="46.1212970" lon="10.4994420">
	<ele>2082.00</ele>
	<time>2024-07-25T09:23:03.000Z</time>
</trkpt>
<trkpt lat="46.1213050" lon="10.4994520">
	<ele>2082.00</ele>
	<time>2024-07-25T09:23:04.000Z</time>
</trkpt>
<trkpt lat="46.1213150" lon="10.4994620">
	<ele>2082.00</ele>
	<time>2024-07-25T09:23:05.000Z</time>
</trkpt>
<trkpt lat="46.1213280" lon="10.4994720">
	<ele>2082.20</ele>
	<time>2024-07-25T09:23:06.000Z</time>
</trkpt>
<trkpt lat="46.1213410" lon="10.4994820">
	<ele>2082.20</ele>
	<time>2024-07-25T09:23:07.000Z</time>
</trkpt>
<trkpt lat="46.1213510" lon="10.4994940">
	<ele>2082.20</ele>
	<time>2024-07-25T09:23:08.000Z</time>
</trkpt>
<trkpt lat="46.1213610" lon="10.4995060">
	<ele>2082.20</ele>
	<time>2024-07-25T09:23:09.000Z</time>
</trkpt>
<trkpt lat="46.1213700" lon="10.4995210">
	<ele>2082.20</ele>
	<time>2024-07-25T09:23:10.000Z</time>
</trkpt>
<trkpt lat="46.1213790" lon="10.4995360">
	<ele>2082.20</ele>
	<time>2024-07-25T09:23:11.000Z</time>
</trkpt>
<trkpt lat="46.1213860" lon="10.4995490">
	<ele>2082.00</ele>
	<time>2024-07-25T09:23:12.000Z</time>
</trkpt>
<trkpt lat="46.1213900" lon="10.4995630">
	<ele>2082.00</ele>
	<time>2024-07-25T09:23:13.000Z</time>
</trkpt>
<trkpt lat="46.1213940" lon="10.4995750">
	<ele>2082.00</ele>
	<time>2024-07-25T09:23:14.000Z</time>
</trkpt>
<trkpt lat="46.1213990" lon="10.4995880">
	<ele>2082.00</ele>
	<time>2024-07-25T09:23:15.000Z</time>
</trkpt>
<trkpt lat="46.1214060" lon="10.4996030">
	<ele>2081.80</ele>
	<time>2024-07-25T09:23:16.000Z</time>
</trkpt>
<trkpt lat="46.1214130" lon="10.4996230">
	<ele>2081.80</ele>
	<time>2024-07-25T09:23:17.000Z</time>
</trkpt>
<trkpt lat="46.1214210" lon="10.4996390">
	<ele>2081.80</ele>
	<time>2024-07-25T09:23:18.000Z</time>
</trkpt>
<trkpt lat="46.1214310" lon="10.4996510">
	<ele>2081.80</ele>
	<time>2024-07-25T09:23:19.000Z</time>
</trkpt>
<trkpt lat="46.1214420" lon="10.4996620">
	<ele>2082.00</ele>
	<time>2024-07-25T09:23:20.000Z</time>
</trkpt>
<trkpt lat="46.1214530" lon="10.4996700">
	<ele>2082.00</ele>
	<time>2024-07-25T09:23:21.000Z</time>
</trkpt>
<trkpt lat="46.1214650" lon="10.4996730">
	<ele>2082.00</ele>
	<time>2024-07-25T09:23:22.000Z</time>
</trkpt>
<trkpt lat="46.1214760" lon="10.4996770">
	<ele>2082.00</ele>
	<time>2024-07-25T09:23:23.000Z</time>
</trkpt>
<trkpt lat="46.1214850" lon="10.4996820">
	<ele>2082.00</ele>
	<time>2024-07-25T09:23:24.000Z</time>
</trkpt>
<trkpt lat="46.1214960" lon="10.4996880">
	<ele>2082.00</ele>
	<time>2024-07-25T09:23:25.000Z</time>
</trkpt>
<trkpt lat="46.1215090" lon="10.4996930">
	<ele>2082.00</ele>
	<time>2024-07-25T09:23:26.000Z</time>
</trkpt>
<trkpt lat="46.1215210" lon="10.4997010">
	<ele>2082.20</ele>
	<time>2024-07-25T09:23:27.000Z</time>
</trkpt>
<trkpt lat="46.1215330" lon="10.4997090">
	<ele>2082.20</ele>
	<time>2024-07-25T09:23:28.000Z</time>
</trkpt>
<trkpt lat="46.1215440" lon="10.4997190">
	<ele>2082.40</ele>
	<time>2024-07-25T09:23:29.000Z</time>
</trkpt>
<trkpt lat="46.1215530" lon="10.4997290">
	<ele>2082.40</ele>
	<time>2024-07-25T09:23:30.000Z</time>
</trkpt>
<trkpt lat="46.1215630" lon="10.4997420">
	<ele>2082.40</ele>
	<time>2024-07-25T09:23:31.000Z</time>
</trkpt>
<trkpt lat="46.1215700" lon="10.4997520">
	<ele>2082.40</ele>
	<time>2024-07-25T09:23:32.000Z</time>
</trkpt>
<trkpt lat="46.1215800" lon="10.4997600">
	<ele>2082.40</ele>
	<time>2024-07-25T09:23:33.000Z</time>
</trkpt>
<trkpt lat="46.1215930" lon="10.4997730">
	<ele>2082.40</ele>
	<time>2024-07-25T09:23:34.000Z</time>
</trkpt>
<trkpt lat="46.1216010" lon="10.4997850">
	<ele>2082.40</ele>
	<time>2024-07-25T09:23:35.000Z</time>
</trkpt>
<trkpt lat="46.1216100" lon="10.4997960">
	<ele>2082.40</ele>
	<time>2024-07-25T09:23:36.000Z</time>
</trkpt>
<trkpt lat="46.1216180" lon="10.4998050">
	<ele>2082.40</ele>
	<time>2024-07-25T09:23:37.000Z</time>
</trkpt>
<trkpt lat="46.1216260" lon="10.4998140">
	<ele>2082.40</ele>
	<time>2024-07-25T09:23:38.000Z</time>
</trkpt>
<trkpt lat="46.1216320" lon="10.4998200">
	<ele>2082.40</ele>
	<time>2024-07-25T09:23:39.000Z</time>
</trkpt>
<trkpt lat="46.1216430" lon="10.4998280">
	<ele>2082.40</ele>
	<time>2024-07-25T09:23:40.000Z</time>
</trkpt>
<trkpt lat="46.1216530" lon="10.4998380">
	<ele>2082.60</ele>
	<time>2024-07-25T09:23:41.000Z</time>
</trkpt>
<trkpt lat="46.1216620" lon="10.4998530">
	<ele>2082.40</ele>
	<time>2024-07-25T09:23:42.000Z</time>
</trkpt>
<trkpt lat="46.1216720" lon="10.4998650">
	<ele>2082.60</ele>
	<time>2024-07-25T09:23:43.000Z</time>
</trkpt>
<trkpt lat="46.1216810" lon="10.4998760">
	<ele>2082.60</ele>
	<time>2024-07-25T09:23:44.000Z</time>
</trkpt>
<trkpt lat="46.1216890" lon="10.4998860">
	<ele>2082.60</ele>
	<time>2024-07-25T09:23:45.000Z</time>
</trkpt>
<trkpt lat="46.1216960" lon="10.4998950">
	<ele>2082.60</ele>
	<time>2024-07-25T09:23:46.000Z</time>
</trkpt>
<trkpt lat="46.1217020" lon="10.4999040">
	<ele>2082.60</ele>
	<time>2024-07-25T09:23:47.000Z</time>
</trkpt>
<trkpt lat="46.1217110" lon="10.4999150">
	<ele>2082.60</ele>
	<time>2024-07-25T09:23:48.000Z</time>
</trkpt>
<trkpt lat="46.1217170" lon="10.4999280">
	<ele>2082.60</ele>
	<time>2024-07-25T09:23:49.000Z</time>
</trkpt>
<trkpt lat="46.1217240" lon="10.4999430">
	<ele>2082.60</ele>
	<time>2024-07-25T09:23:50.000Z</time>
</trkpt>
<trkpt lat="46.1217340" lon="10.4999570">
	<ele>2082.60</ele>
	<time>2024-07-25T09:23:51.000Z</time>
</trkpt>
<trkpt lat="46.1217420" lon="10.4999710">
	<ele>2082.60</ele>
	<time>2024-07-25T09:23:52.000Z</time>
</trkpt>
<trkpt lat="46.1217510" lon="10.4999820">
	<ele>2082.60</ele>
	<time>2024-07-25T09:23:53.000Z</time>
</trkpt>
<trkpt lat="46.1217630" lon="10.4999930">
	<ele>2082.60</ele>
	<time>2024-07-25T09:23:54.000Z</time>
</trkpt>
<trkpt lat="46.1217720" lon="10.5000020">
	<ele>2082.60</ele>
	<time>2024-07-25T09:23:55.000Z</time>
</trkpt>
<trkpt lat="46.1217800" lon="10.5000110">
	<ele>2082.60</ele>
	<time>2024-07-25T09:23:56.000Z</time>
</trkpt>
<trkpt lat="46.1217910" lon="10.5000210">
	<ele>2082.60</ele>
	<time>2024-07-25T09:23:57.000Z</time>
</trkpt>
<trkpt lat="46.1218000" lon="10.5000310">
	<ele>2082.60</ele>
	<time>2024-07-25T09:23:58.000Z</time>
</trkpt>
<trkpt lat="46.1218100" lon="10.5000430">
	<ele>2082.80</ele>
	<time>2024-07-25T09:23:59.000Z</time>
</trkpt>
<trkpt lat="46.1218190" lon="10.5000520">
	<ele>2082.80</ele>
	<time>2024-07-25T09:24:00.000Z</time>
</trkpt>
<trkpt lat="46.1218290" lon="10.5000600">
	<ele>2082.80</ele>
	<time>2024-07-25T09:24:01.000Z</time>
</trkpt>
<trkpt lat="46.1218380" lon="10.5000700">
	<ele>2082.80</ele>
	<time>2024-07-25T09:24:02.000Z</time>
</trkpt>
<trkpt lat="46.1218470" lon="10.5000790">
	<ele>2082.80</ele>
	<time>2024-07-25T09:24:03.000Z</time>
</trkpt>
<trkpt lat="46.1218560" lon="10.5000890">
	<ele>2083.00</ele>
	<time>2024-07-25T09:24:04.000Z</time>
</trkpt>
<trkpt lat="46.1218670" lon="10.5001000">
	<ele>2083.00</ele>
	<time>2024-07-25T09:24:05.000Z</time>
</trkpt>
<trkpt lat="46.1218790" lon="10.5001090">
	<ele>2083.00</ele>
	<time>2024-07-25T09:24:06.000Z</time>
</trkpt>
<trkpt lat="46.1218900" lon="10.5001180">
	<ele>2083.00</ele>
	<time>2024-07-25T09:24:07.000Z</time>
</trkpt>
<trkpt lat="46.1219000" lon="10.5001310">
	<ele>2083.00</ele>
	<time>2024-07-25T09:24:08.000Z</time>
</trkpt>
<trkpt lat="46.1219070" lon="10.5001430">
	<ele>2083.20</ele>
	<time>2024-07-25T09:24:09.000Z</time>
</trkpt>
<trkpt lat="46.1219140" lon="10.5001530">
	<ele>2083.20</ele>
	<time>2024-07-25T09:24:10.000Z</time>
</trkpt>
<trkpt lat="46.1219240" lon="10.5001640">
	<ele>2083.20</ele>
	<time>2024-07-25T09:24:11.000Z</time>
</trkpt>
<trkpt lat="46.1219350" lon="10.5001770">
	<ele>2083.40</ele>
	<time>2024-07-25T09:24:12.000Z</time>
</trkpt>
<trkpt lat="46.1219460" lon="10.5001910">
	<ele>2083.40</ele>
	<time>2024-07-25T09:24:13.000Z</time>
</trkpt>
<trkpt lat="46.1219540" lon="10.5002050">
	<ele>2083.40</ele>
	<time>2024-07-25T09:24:14.000Z</time>
</trkpt>
<trkpt lat="46.1219630" lon="10.5002150">
	<ele>2083.60</ele>
	<time>2024-07-25T09:24:15.000Z</time>
</trkpt>
<trkpt lat="46.1219720" lon="10.5002200">
	<ele>2083.60</ele>
	<time>2024-07-25T09:24:16.000Z</time>
</trkpt>
<trkpt lat="46.1219790" lon="10.5002270">
	<ele>2083.60</ele>
	<time>2024-07-25T09:24:17.000Z</time>
</trkpt>
<trkpt lat="46.1219870" lon="10.5002380">
	<ele>2083.80</ele>
	<time>2024-07-25T09:24:18.000Z</time>
</trkpt>
<trkpt lat="46.1219950" lon="10.5002540">
	<ele>2083.60</ele>
	<time>2024-07-25T09:24:19.000Z</time>
</trkpt>
<trkpt lat="46.1220040" lon="10.5002690">
	<ele>2083.60</ele>
	<time>2024-07-25T09:24:20.000Z</time>
</trkpt>
<trkpt lat="46.1220130" lon="10.5002810">
	<ele>2083.60</ele>
	<time>2024-07-25T09:24:21.000Z</time>
</trkpt>
<trkpt lat="46.1220220" lon="10.5002940">
	<ele>2083.60</ele>
	<time>2024-07-25T09:24:22.000Z</time>
</trkpt>
<trkpt lat="46.1220280" lon="10.5003060">
	<ele>2083.60</ele>
	<time>2024-07-25T09:24:23.000Z</time>
</trkpt>
<trkpt lat="46.1220330" lon="10.5003180">
	<ele>2083.60</ele>
	<time>2024-07-25T09:24:24.000Z</time>
</trkpt>
<trkpt lat="46.1220380" lon="10.5003340">
	<ele>2083.60</ele>
	<time>2024-07-25T09:24:25.000Z</time>
</trkpt>
<trkpt lat="46.1220430" lon="10.5003460">
	<ele>2083.80</ele>
	<time>2024-07-25T09:24:26.000Z</time>
</trkpt>
<trkpt lat="46.1220480" lon="10.5003580">
	<ele>2083.80</ele>
	<time>2024-07-25T09:24:27.000Z</time>
</trkpt>
<trkpt lat="46.1220550" lon="10.5003680">
	<ele>2083.80</ele>
	<time>2024-07-25T09:24:28.000Z</time>
</trkpt>
<trkpt lat="46.1220600" lon="10.5003820">
	<ele>2083.80</ele>
	<time>2024-07-25T09:24:29.000Z</time>
</trkpt>
<trkpt lat="46.1220640" lon="10.5003960">
	<ele>2084.00</ele>
	<time>2024-07-25T09:24:30.000Z</time>
</trkpt>
<trkpt lat="46.1220680" lon="10.5004100">
	<ele>2084.20</ele>
	<time>2024-07-25T09:24:31.000Z</time>
</trkpt>
<trkpt lat="46.1220700" lon="10.5004220">
	<ele>2084.20</ele>
	<time>2024-07-25T09:24:32.000Z</time>
</trkpt>
<trkpt lat="46.1220750" lon="10.5004320">
	<ele>2084.40</ele>
	<time>2024-07-25T09:24:33.000Z</time>
</trkpt>
<trkpt lat="46.1220810" lon="10.5004430">
	<ele>2084.60</ele>
	<time>2024-07-25T09:24:34.000Z</time>
</trkpt>
<trkpt lat="46.1220830" lon="10.5004560">
	<ele>2084.60</ele>
	<time>2024-07-25T09:24:35.000Z</time>
</trkpt>
<trkpt lat="46.1220830" lon="10.5004700">
	<ele>2084.80</ele>
	<time>2024-07-25T09:24:36.000Z</time>
</trkpt>
<trkpt lat="46.1220850" lon="10.5004880">
	<ele>2084.80</ele>
	<time>2024-07-25T09:24:37.000Z</time>
</trkpt>
<trkpt lat="46.1220870" lon="10.5004980">
	<ele>2085.00</ele>
	<time>2024-07-25T09:24:38.000Z</time>
</trkpt>
<trkpt lat="46.1220890" lon="10.5005090">
	<ele>2085.00</ele>
	<time>2024-07-25T09:24:39.000Z</time>
</trkpt>
<trkpt lat="46.1220940" lon="10.5005230">
	<ele>2085.20</ele>
	<time>2024-07-25T09:24:40.000Z</time>
</trkpt>
<trkpt lat="46.1220980" lon="10.5005330">
	<ele>2085.20</ele>
	<time>2024-07-25T09:24:41.000Z</time>
</trkpt>
<trkpt lat="46.1221020" lon="10.5005420">
	<ele>2085.40</ele>
	<time>2024-07-25T09:24:42.000Z</time>
</trkpt>
<trkpt lat="46.1221060" lon="10.5005510">
	<ele>2085.60</ele>
	<time>2024-07-25T09:24:43.000Z</time>
</trkpt>
<trkpt lat="46.1221120" lon="10.5005580">
	<ele>2085.80</ele>
	<time>2024-07-25T09:24:44.000Z</time>
</trkpt>
<trkpt lat="46.1221160" lon="10.5005700">
	<ele>2086.00</ele>
	<time>2024-07-25T09:24:45.000Z</time>
</trkpt>
<trkpt lat="46.1221180" lon="10.5005820">
	<ele>2086.20</ele>
	<time>2024-07-25T09:24:46.000Z</time>
</trkpt>
<trkpt lat="46.1221200" lon="10.5005940">
	<ele>2086.40</ele>
	<time>2024-07-25T09:24:47.000Z</time>
</trkpt>
<trkpt lat="46.1221210" lon="10.5006060">
	<ele>2086.60</ele>
	<time>2024-07-25T09:24:48.000Z</time>
</trkpt>
<trkpt lat="46.1221240" lon="10.5006180">
	<ele>2087.00</ele>
	<time>2024-07-25T09:24:49.000Z</time>
</trkpt>
<trkpt lat="46.1221260" lon="10.5006290">
	<ele>2087.20</ele>
	<time>2024-07-25T09:24:50.000Z</time>
</trkpt>
<trkpt lat="46.1221300" lon="10.5006400">
	<ele>2087.20</ele>
	<time>2024-07-25T09:24:51.000Z</time>
</trkpt>
<trkpt lat="46.1221340" lon="10.5006500">
	<ele>2087.40</ele>
	<time>2024-07-25T09:24:52.000Z</time>
</trkpt>
<trkpt lat="46.1221380" lon="10.5006600">
	<ele>2087.40</ele>
	<time>2024-07-25T09:24:53.000Z</time>
</trkpt>
<trkpt lat="46.1221390" lon="10.5006690">
	<ele>2087.60</ele>
	<time>2024-07-25T09:24:54.000Z</time>
</trkpt>
<trkpt lat="46.1221400" lon="10.5006790">
	<ele>2087.60</ele>
	<time>2024-07-25T09:24:55.000Z</time>
</trkpt>
<trkpt lat="46.1221430" lon="10.5006900">
	<ele>2087.80</ele>
	<time>2024-07-25T09:24:56.000Z</time>
</trkpt>
<trkpt lat="46.1221500" lon="10.5006980">
	<ele>2088.20</ele>
	<time>2024-07-25T09:24:57.000Z</time>
</trkpt>
<trkpt lat="46.1221540" lon="10.5007050">
	<ele>2088.40</ele>
	<time>2024-07-25T09:24:58.000Z</time>
</trkpt>
<trkpt lat="46.1221600" lon="10.5007130">
	<ele>2088.60</ele>
	<time>2024-07-25T09:24:59.000Z</time>
</trkpt>
<trkpt lat="46.1221660" lon="10.5007210">
	<ele>2088.80</ele>
	<time>2024-07-25T09:25:00.000Z</time>
</trkpt>
<trkpt lat="46.1221720" lon="10.5007290">
	<ele>2089.20</ele>
	<time>2024-07-25T09:25:01.000Z</time>
</trkpt>
<trkpt lat="46.1221790" lon="10.5007330">
	<ele>2089.40</ele>
	<time>2024-07-25T09:25:02.000Z</time>
</trkpt>
<trkpt lat="46.1221850" lon="10.5007330">
	<ele>2089.80</ele>
	<time>2024-07-25T09:25:03.000Z</time>
</trkpt>
<trkpt lat="46.1221920" lon="10.5007340">
	<ele>2090.00</ele>
	<time>2024-07-25T09:25:04.000Z</time>
</trkpt>
<trkpt lat="46.1221970" lon="10.5007350">
	<ele>2090.20</ele>
	<time>2024-07-25T09:25:05.000Z</time>
</trkpt>
<trkpt lat="46.1222020" lon="10.5007370">
	<ele>2090.20</ele>
	<time>2024-07-25T09:25:06.000Z</time>
</trkpt>
<trkpt lat="46.1222100" lon="10.5007400">
	<ele>2090.40</ele>
	<time>2024-07-25T09:25:07.000Z</time>
</trkpt>
<trkpt lat="46.1222160" lon="10.5007430">
	<ele>2090.60</ele>
	<time>2024-07-25T09:25:08.000Z</time>
</trkpt>
<trkpt lat="46.1222230" lon="10.5007480">
	<ele>2090.80</ele>
	<time>2024-07-25T09:25:09.000Z</time>
</trkpt>
<trkpt lat="46.1222310" lon="10.5007540">
	<ele>2090.80</ele>
	<time>2024-07-25T09:25:10.000Z</time>
</trkpt>
<trkpt lat="46.1222360" lon="10.5007620">
	<ele>2091.00</ele>
	<time>2024-07-25T09:25:11.000Z</time>
</trkpt>
<trkpt lat="46.1222420" lon="10.5007680">
	<ele>2091.20</ele>
	<time>2024-07-25T09:25:12.000Z</time>
</trkpt>
<trkpt lat="46.1222480" lon="10.5007730">
	<ele>2091.40</ele>
	<time>2024-07-25T09:25:13.000Z</time>
</trkpt>
<trkpt lat="46.1222550" lon="10.5007790">
	<ele>2091.60</ele>
	<time>2024-07-25T09:25:14.000Z</time>
</trkpt>
<trkpt lat="46.1222610" lon="10.5007840">
	<ele>2092.00</ele>
	<time>2024-07-25T09:25:15.000Z</time>
</trkpt>
<trkpt lat="46.1222670" lon="10.5007900">
	<ele>2092.40</ele>
	<time>2024-07-25T09:25:16.000Z</time>
</trkpt>
<trkpt lat="46.1222720" lon="10.5007930">
	<ele>2092.80</ele>
	<time>2024-07-25T09:25:17.000Z</time>
</trkpt>
<trkpt lat="46.1222770" lon="10.5007940">
	<ele>2093.20</ele>
	<time>2024-07-25T09:25:18.000Z</time>
</trkpt>
<trkpt lat="46.1222870" lon="10.5007960">
	<ele>2093.40</ele>
	<time>2024-07-25T09:25:19.000Z</time>
</trkpt>
<trkpt lat="46.1222970" lon="10.5007990">
	<ele>2093.80</ele>
	<time>2024-07-25T09:25:20.000Z</time>
</trkpt>
<trkpt lat="46.1223070" lon="10.5008040">
	<ele>2094.00</ele>
	<time>2024-07-25T09:25:21.000Z</time>
</trkpt>
<trkpt lat="46.1223150" lon="10.5008070">
	<ele>2094.20</ele>
	<time>2024-07-25T09:25:22.000Z</time>
</trkpt>
<trkpt lat="46.1223240" lon="10.5008110">
	<ele>2094.20</ele>
	<time>2024-07-25T09:25:23.000Z</time>
</trkpt>
<trkpt lat="46.1223320" lon="10.5008150">
	<ele>2094.20</ele>
	<time>2024-07-25T09:25:24.000Z</time>
</trkpt>
<trkpt lat="46.1223420" lon="10.5008160">
	<ele>2094.40</ele>
	<time>2024-07-25T09:25:25.000Z</time>
</trkpt>
<trkpt lat="46.1223510" lon="10.5008170">
	<ele>2094.40</ele>
	<time>2024-07-25T09:25:26.000Z</time>
</trkpt>
<trkpt lat="46.1223590" lon="10.5008160">
	<ele>2094.60</ele>
	<time>2024-07-25T09:25:27.000Z</time>
</trkpt>
<trkpt lat="46.1223680" lon="10.5008150">
	<ele>2094.80</ele>
	<time>2024-07-25T09:25:28.000Z</time>
</trkpt>
<trkpt lat="46.1223790" lon="10.5008110">
	<ele>2094.80</ele>
	<time>2024-07-25T09:25:29.000Z</time>
</trkpt>
<trkpt lat="46.1223900" lon="10.5008030">
	<ele>2095.00</ele>
	<time>2024-07-25T09:25:30.000Z</time>
</trkpt>
<trkpt lat="46.1224020" lon="10.5007940">
	<ele>2095.20</ele>
	<time>2024-07-25T09:25:31.000Z</time>
</trkpt>
<trkpt lat="46.1224110" lon="10.5007860">
	<ele>2095.40</ele>
	<time>2024-07-25T09:25:32.000Z</time>
</trkpt>
<trkpt lat="46.1224220" lon="10.5007780">
	<ele>2095.40</ele>
	<time>2024-07-25T09:25:33.000Z</time>
</trkpt>
<trkpt lat="46.1224320" lon="10.5007660">
	<ele>2095.80</ele>
	<time>2024-07-25T09:25:34.000Z</time>
</trkpt>
<trkpt lat="46.1224410" lon="10.5007520">
	<ele>2096.00</ele>
	<time>2024-07-25T09:25:35.000Z</time>
</trkpt>
<trkpt lat="46.1224510" lon="10.5007410">
	<ele>2096.00</ele>
	<time>2024-07-25T09:25:36.000Z</time>
</trkpt>
<trkpt lat="46.1224590" lon="10.5007330">
	<ele>2096.20</ele>
	<time>2024-07-25T09:25:37.000Z</time>
</trkpt>
<trkpt lat="46.1224660" lon="10.5007280">
	<ele>2096.40</ele>
	<time>2024-07-25T09:25:38.000Z</time>
</trkpt>
<trkpt lat="46.1224720" lon="10.5007220">
	<ele>2096.80</ele>
	<time>2024-07-25T09:25:39.000Z</time>
</trkpt>
<trkpt lat="46.1224800" lon="10.5007120">
	<ele>2097.00</ele>
	<time>2024-07-25T09:25:40.000Z</time>
</trkpt>
<trkpt lat="46.1224860" lon="10.5007000">
	<ele>2097.20</ele>
	<time>2024-07-25T09:25:41.000Z</time>
</trkpt>
<trkpt lat="46.1224930" lon="10.5006850">
	<ele>2097.20</ele>
	<time>2024-07-25T09:25:42.000Z</time>
</trkpt>
<trkpt lat="46.1225010" lon="10.5006760">
	<ele>2097.40</ele>
	<time>2024-07-25T09:25:43.000Z</time>
</trkpt>
<trkpt lat="46.1225130" lon="10.5006620">
	<ele>2097.60</ele>
	<time>2024-07-25T09:25:44.000Z</time>
</trkpt>
<trkpt lat="46.1225220" lon="10.5006520">
	<ele>2097.60</ele>
	<time>2024-07-25T09:25:45.000Z</time>
</trkpt>
<trkpt lat="46.1225210" lon="10.5006390">
	<ele>2097.80</ele>
	<time>2024-07-25T09:25:46.000Z</time>
</trkpt>
<trkpt lat="46.1225280" lon="10.5006330">
	<ele>2097.80</ele>
	<time>2024-07-25T09:25:47.000Z</time>
</trkpt>
<trkpt lat="46.1225290" lon="10.5006270">
	<ele>2098.00</ele>
	<time>2024-07-25T09:25:48.000Z</time>
</trkpt>
<trkpt lat="46.1225350" lon="10.5006220">
	<ele>2098.00</ele>
	<time>2024-07-25T09:25:49.000Z</time>
</trkpt>
<trkpt lat="46.1225430" lon="10.5006190">
	<ele>2098.20</ele>
	<time>2024-07-25T09:25:50.000Z</time>
</trkpt>
<trkpt lat="46.1225490" lon="10.5006130">
	<ele>2098.20</ele>
	<time>2024-07-25T09:25:51.000Z</time>
</trkpt>
<trkpt lat="46.1225560" lon="10.5006040">
	<ele>2098.20</ele>
	<time>2024-07-25T09:25:52.000Z</time>
</trkpt>
<trkpt lat="46.1225650" lon="10.5005980">
	<ele>2098.40</ele>
	<time>2024-07-25T09:25:53.000Z</time>
</trkpt>
<trkpt lat="46.1225710" lon="10.5005890">
	<ele>2098.40</ele>
	<time>2024-07-25T09:25:54.000Z</time>
</trkpt>
<trkpt lat="46.1225760" lon="10.5005760">
	<ele>2098.60</ele>
	<time>2024-07-25T09:25:55.000Z</time>
</trkpt>
<trkpt lat="46.1225830" lon="10.5005650">
	<ele>2098.60</ele>
	<time>2024-07-25T09:25:56.000Z</time>
</trkpt>
<trkpt lat="46.1225880" lon="10.5005540">
	<ele>2098.80</ele>
	<time>2024-07-25T09:25:57.000Z</time>
</trkpt>
<trkpt lat="46.1225940" lon="10.5005470">
	<ele>2098.80</ele>
	<time>2024-07-25T09:25:58.000Z</time>
</trkpt>
<trkpt lat="46.1226010" lon="10.5005400">
	<ele>2099.20</ele>
	<time>2024-07-25T09:25:59.000Z</time>
</trkpt>
<trkpt lat="46.1226080" lon="10.5005300">
	<ele>2099.40</ele>
	<time>2024-07-25T09:26:00.000Z</time>
</trkpt>
<trkpt lat="46.1226160" lon="10.5005180">
	<ele>2099.40</ele>
	<time>2024-07-25T09:26:01.000Z</time>
</trkpt>
<trkpt lat="46.1226260" lon="10.5005060">
	<ele>2099.40</ele>
	<time>2024-07-25T09:26:02.000Z</time>
</trkpt>
<trkpt lat="46.1226340" lon="10.5004920">
	<ele>2099.40</ele>
	<time>2024-07-25T09:26:03.000Z</time>
</trkpt>
<trkpt lat="46.1226410" lon="10.5004800">
	<ele>2099.60</ele>
	<time>2024-07-25T09:26:04.000Z</time>
</trkpt>
<trkpt lat="46.1226490" lon="10.5004690">
	<ele>2099.60</ele>
	<time>2024-07-25T09:26:05.000Z</time>
</trkpt>
<trkpt lat="46.1226540" lon="10.5004570">
	<ele>2099.60</ele>
	<time>2024-07-25T09:26:06.000Z</time>
</trkpt>
<trkpt lat="46.1226600" lon="10.5004460">
	<ele>2099.60</ele>
	<time>2024-07-25T09:26:07.000Z</time>
</trkpt>
<trkpt lat="46.1226670" lon="10.5004340">
	<ele>2099.80</ele>
	<time>2024-07-25T09:26:08.000Z</time>
</trkpt>
<trkpt lat="46.1226750" lon="10.5004250">
	<ele>2099.80</ele>
	<time>2024-07-25T09:26:09.000Z</time>
</trkpt>
<trkpt lat="46.1226850" lon="10.5004150">
	<ele>2100.00</ele>
	<time>2024-07-25T09:26:10.000Z</time>
</trkpt>
<trkpt lat="46.1226920" lon="10.5004050">
	<ele>2100.20</ele>
	<time>2024-07-25T09:26:11.000Z</time>
</trkpt>
<trkpt lat="46.1227000" lon="10.5003960">
	<ele>2100.40</ele>
	<time>2024-07-25T09:26:12.000Z</time>
</trkpt>
<trkpt lat="46.1227080" lon="10.5003920">
	<ele>2100.40</ele>
	<time>2024-07-25T09:26:13.000Z</time>
</trkpt>
<trkpt lat="46.1227180" lon="10.5003880">
	<ele>2100.60</ele>
	<time>2024-07-25T09:26:14.000Z</time>
</trkpt>
<trkpt lat="46.1227290" lon="10.5003850">
	<ele>2100.60</ele>
	<time>2024-07-25T09:26:15.000Z</time>
</trkpt>
<trkpt lat="46.1227400" lon="10.5003830">
	<ele>2100.60</ele>
	<time>2024-07-25T09:26:16.000Z</time>
</trkpt>
<trkpt lat="46.1227490" lon="10.5003840">
	<ele>2100.80</ele>
	<time>2024-07-25T09:26:17.000Z</time>
</trkpt>
<trkpt lat="46.1227580" lon="10.5003880">
	<ele>2100.80</ele>
	<time>2024-07-25T09:26:18.000Z</time>
</trkpt>
<trkpt lat="46.1227660" lon="10.5003950">
	<ele>2100.80</ele>
	<time>2024-07-25T09:26:19.000Z</time>
</trkpt>
<trkpt lat="46.1227700" lon="10.5004000">
	<ele>2100.80</ele>
	<time>2024-07-25T09:26:20.000Z</time>
</trkpt>
<trkpt lat="46.1227800" lon="10.5004070">
	<ele>2101.00</ele>
	<time>2024-07-25T09:26:21.000Z</time>
</trkpt>
<trkpt lat="46.1227930" lon="10.5004100">
	<ele>2101.00</ele>
	<time>2024-07-25T09:26:22.000Z</time>
</trkpt>
<trkpt lat="46.1228030" lon="10.5004130">
	<ele>2101.20</ele>
	<time>2024-07-25T09:26:23.000Z</time>
</trkpt>
<trkpt lat="46.1228140" lon="10.5004160">
	<ele>2101.20</ele>
	<time>2024-07-25T09:26:24.000Z</time>
</trkpt>
<trkpt lat="46.1228260" lon="10.5004170">
	<ele>2101.40</ele>
	<time>2024-07-25T09:26:25.000Z</time>
</trkpt>
<trkpt lat="46.1228350" lon="10.5004160">
	<ele>2101.60</ele>
	<time>2024-07-25T09:26:26.000Z</time>
</trkpt>
<trkpt lat="46.1228450" lon="10.5004200">
	<ele>2101.60</ele>
	<time>2024-07-25T09:26:27.000Z</time>
</trkpt>
<trkpt lat="46.1228510" lon="10.5004240">
	<ele>2101.80</ele>
	<time>2024-07-25T09:26:28.000Z</time>
</trkpt>
<trkpt lat="46.1228580" lon="10.5004260">
	<ele>2101.80</ele>
	<time>2024-07-25T09:26:29.000Z</time>
</trkpt>
<trkpt lat="46.1228670" lon="10.5004270">
	<ele>2102.00</ele>
	<time>2024-07-25T09:26:30.000Z</time>
</trkpt>
<trkpt lat="46.1228760" lon="10.5004240">
	<ele>2102.00</ele>
	<time>2024-07-25T09:26:31.000Z</time>
</trkpt>
<trkpt lat="46.1228830" lon="10.5004220">
	<ele>2102.20</ele>
	<time>2024-07-25T09:26:32.000Z</time>
</trkpt>
<trkpt lat="46.1228900" lon="10.5004190">
	<ele>2102.40</ele>
	<time>2024-07-25T09:26:33.000Z</time>
</trkpt>
<trkpt lat="46.1228970" lon="10.5004180">
	<ele>2102.40</ele>
	<time>2024-07-25T09:26:34.000Z</time>
</trkpt>
<trkpt lat="46.1229040" lon="10.5004170">
	<ele>2102.60</ele>
	<time>2024-07-25T09:26:35.000Z</time>
</trkpt>
<trkpt lat="46.1229140" lon="10.5004180">
	<ele>2102.80</ele>
	<time>2024-07-25T09:26:36.000Z</time>
</trkpt>
<trkpt lat="46.1229210" lon="10.5004210">
	<ele>2103.00</ele>
	<time>2024-07-25T09:26:37.000Z</time>
</trkpt>
<trkpt lat="46.1229300" lon="10.5004240">
	<ele>2103.00</ele>
	<time>2024-07-25T09:26:38.000Z</time>
</trkpt>
<trkpt lat="46.1229400" lon="10.5004250">
	<ele>2103.20</ele>
	<time>2024-07-25T09:26:39.000Z</time>
</trkpt>
<trkpt lat="46.1229480" lon="10.5004240">
	<ele>2103.20</ele>
	<time>2024-07-25T09:26:40.000Z</time>
</trkpt>
<trkpt lat="46.1229600" lon="10.5004240">
	<ele>2103.40</ele>
	<time>2024-07-25T09:26:41.000Z</time>
</trkpt>
<trkpt lat="46.1229690" lon="10.5004220">
	<ele>2103.60</ele>
	<time>2024-07-25T09:26:42.000Z</time>
</trkpt>
<trkpt lat="46.1229760" lon="10.5004170">
	<ele>2103.80</ele>
	<time>2024-07-25T09:26:43.000Z</time>
</trkpt>
<trkpt lat="46.1229820" lon="10.5004140">
	<ele>2104.00</ele>
	<time>2024-07-25T09:26:44.000Z</time>
</trkpt>
<trkpt lat="46.1229880" lon="10.5004120">
	<ele>2104.20</ele>
	<time>2024-07-25T09:26:45.000Z</time>
</trkpt>
<trkpt lat="46.1229960" lon="10.5004140">
	<ele>2104.20</ele>
	<time>2024-07-25T09:26:46.000Z</time>
</trkpt>
<trkpt lat="46.1230050" lon="10.5004120">
	<ele>2104.20</ele>
	<time>2024-07-25T09:26:47.000Z</time>
</trkpt>
<trkpt lat="46.1230130" lon="10.5004100">
	<ele>2104.40</ele>
	<time>2024-07-25T09:26:48.000Z</time>
</trkpt>
<trkpt lat="46.1230210" lon="10.5004090">
	<ele>2104.60</ele>
	<time>2024-07-25T09:26:49.000Z</time>
</trkpt>
<trkpt lat="46.1230290" lon="10.5004090">
	<ele>2104.60</ele>
	<time>2024-07-25T09:26:50.000Z</time>
</trkpt>
<trkpt lat="46.1230380" lon="10.5004090">
	<ele>2104.80</ele>
	<time>2024-07-25T09:26:51.000Z</time>
</trkpt>
<trkpt lat="46.1230480" lon="10.5004070">
	<ele>2105.00</ele>
	<time>2024-07-25T09:26:52.000Z</time>
</trkpt>
<trkpt lat="46.1230550" lon="10.5004100">
	<ele>2105.00</ele>
	<time>2024-07-25T09:26:53.000Z</time>
</trkpt>
<trkpt lat="46.1230620" lon="10.5004090">
	<ele>2105.20</ele>
	<time>2024-07-25T09:26:54.000Z</time>
</trkpt>
<trkpt lat="46.1230710" lon="10.5004070">
	<ele>2105.20</ele>
	<time>2024-07-25T09:26:55.000Z</time>
</trkpt>
<trkpt lat="46.1230780" lon="10.5004090">
	<ele>2105.40</ele>
	<time>2024-07-25T09:26:56.000Z</time>
</trkpt>
<trkpt lat="46.1230830" lon="10.5004110">
	<ele>2105.60</ele>
	<time>2024-07-25T09:26:57.000Z</time>
</trkpt>
<trkpt lat="46.1230910" lon="10.5004120">
	<ele>2105.60</ele>
	<time>2024-07-25T09:26:58.000Z</time>
</trkpt>
<trkpt lat="46.1230990" lon="10.5004090">
	<ele>2105.80</ele>
	<time>2024-07-25T09:26:59.000Z</time>
</trkpt>
<trkpt lat="46.1231070" lon="10.5004070">
	<ele>2105.80</ele>
	<time>2024-07-25T09:27:00.000Z</time>
</trkpt>
<trkpt lat="46.1231170" lon="10.5004020">
	<ele>2106.20</ele>
	<time>2024-07-25T09:27:01.000Z</time>
</trkpt>
<trkpt lat="46.1231240" lon="10.5003990">
	<ele>2106.40</ele>
	<time>2024-07-25T09:27:02.000Z</time>
</trkpt>
<trkpt lat="46.1231310" lon="10.5003980">
	<ele>2106.60</ele>
	<time>2024-07-25T09:27:03.000Z</time>
</trkpt>
<trkpt lat="46.1231380" lon="10.5003940">
	<ele>2106.60</ele>
	<time>2024-07-25T09:27:04.000Z</time>
</trkpt>
<trkpt lat="46.1231440" lon="10.5003920">
	<ele>2106.80</ele>
	<time>2024-07-25T09:27:05.000Z</time>
</trkpt>
<trkpt lat="46.1231520" lon="10.5003850">
	<ele>2106.80</ele>
	<time>2024-07-25T09:27:06.000Z</time>
</trkpt>
<trkpt lat="46.1231610" lon="10.5003810">
	<ele>2107.00</ele>
	<time>2024-07-25T09:27:07.000Z</time>
</trkpt>
<trkpt lat="46.1231700" lon="10.5003800">
	<ele>2107.20</ele>
	<time>2024-07-25T09:27:08.000Z</time>
</trkpt>
<trkpt lat="46.1231760" lon="10.5003790">
	<ele>2107.40</ele>
	<time>2024-07-25T09:27:09.000Z</time>
</trkpt>
<trkpt lat="46.1231810" lon="10.5003740">
	<ele>2107.40</ele>
	<time>2024-07-25T09:27:10.000Z</time>
</trkpt>
<trkpt lat="46.1231880" lon="10.5003670">
	<ele>2107.60</ele>
	<time>2024-07-25T09:27:11.000Z</time>
</trkpt>
<trkpt lat="46.1231910" lon="10.5003640">
	<ele>2107.60</ele>
	<time>2024-07-25T09:27:12.000Z</time>
</trkpt>
<trkpt lat="46.1231990" lon="10.5003590">
	<ele>2108.00</ele>
	<time>2024-07-25T09:27:13.000Z</time>
</trkpt>
<trkpt lat="46.1232060" lon="10.5003550">
	<ele>2108.20</ele>
	<time>2024-07-25T09:27:14.000Z</time>
</trkpt>
<trkpt lat="46.1232120" lon="10.5003510">
	<ele>2108.40</ele>
	<time>2024-07-25T09:27:15.000Z</time>
</trkpt>
<trkpt lat="46.1232180" lon="10.5003500">
	<ele>2108.60</ele>
	<time>2024-07-25T09:27:16.000Z</time>
</trkpt>
<trkpt lat="46.1232260" lon="10.5003480">
	<ele>2108.80</ele>
	<time>2024-07-25T09:27:17.000Z</time>
</trkpt>
<trkpt lat="46.1232310" lon="10.5003480">
	<ele>2109.00</ele>
	<time>2024-07-25T09:27:18.000Z</time>
</trkpt>
<trkpt lat="46.1232410" lon="10.5003490">
	<ele>2109.20</ele>
	<time>2024-07-25T09:27:19.000Z</time>
</trkpt>
<trkpt lat="46.1232460" lon="10.5003520">
	<ele>2109.40</ele>
	<time>2024-07-25T09:27:20.000Z</time>
</trkpt>
<trkpt lat="46.1232520" lon="10.5003550">
	<ele>2109.80</ele>
	<time>2024-07-25T09:27:21.000Z</time>
</trkpt>
<trkpt lat="46.1232600" lon="10.5003590">
	<ele>2110.00</ele>
	<time>2024-07-25T09:27:22.000Z</time>
</trkpt>
<trkpt lat="46.1232670" lon="10.5003640">
	<ele>2110.20</ele>
	<time>2024-07-25T09:27:23.000Z</time>
</trkpt>
<trkpt lat="46.1232760" lon="10.5003700">
	<ele>2110.40</ele>
	<time>2024-07-25T09:27:24.000Z</time>
</trkpt>
<trkpt lat="46.1232860" lon="10.5003790">
	<ele>2110.60</ele>
	<time>2024-07-25T09:27:25.000Z</time>
</trkpt>
<trkpt lat="46.1232930" lon="10.5003900">
	<ele>2110.80</ele>
	<time>2024-07-25T09:27:26.000Z</time>
</trkpt>
<trkpt lat="46.1232990" lon="10.5003940">
	<ele>2110.80</ele>
	<time>2024-07-25T09:27:27.000Z</time>
</trkpt>
<trkpt lat="46.1233060" lon="10.5003960">
	<ele>2111.20</ele>
	<time>2024-07-25T09:27:28.000Z</time>
</trkpt>
<trkpt lat="46.1233140" lon="10.5004010">
	<ele>2111.40</ele>
	<time>2024-07-25T09:27:29.000Z</time>
</trkpt>
<trkpt lat="46.1233270" lon="10.5004110">
	<ele>2111.40</ele>
	<time>2024-07-25T09:27:30.000Z</time>
</trkpt>
<trkpt lat="46.1233370" lon="10.5004170">
	<ele>2111.40</ele>
	<time>2024-07-25T09:27:31.000Z</time>
</trkpt>
<trkpt lat="46.1233480" lon="10.5004230">
	<ele>2111.40</ele>
	<time>2024-07-25T09:27:32.000Z</time>
</trkpt>
<trkpt lat="46.1233580" lon="10.5004280">
	<ele>2111.40</ele>
	<time>2024-07-25T09:27:33.000Z</time>
</trkpt>
<trkpt lat="46.1233670" lon="10.5004330">
	<ele>2111.60</ele>
	<time>2024-07-25T09:27:34.000Z</time>
</trkpt>
<trkpt lat="46.1233760" lon="10.5004380">
	<ele>2111.60</ele>
	<time>2024-07-25T09:27:35.000Z</time>
</trkpt>
<trkpt lat="46.1233840" lon="10.5004450">
	<ele>2111.60</ele>
	<time>2024-07-25T09:27:36.000Z</time>
</trkpt>
<trkpt lat="46.1233930" lon="10.5004530">
	<ele>2111.80</ele>
	<time>2024-07-25T09:27:37.000Z</time>
</trkpt>
<trkpt lat="46.1234020" lon="10.5004580">
	<ele>2111.80</ele>
	<time>2024-07-25T09:27:38.000Z</time>
</trkpt>
<trkpt lat="46.1234100" lon="10.5004630">
	<ele>2112.00</ele>
	<time>2024-07-25T09:27:39.000Z</time>
</trkpt>
<trkpt lat="46.1234180" lon="10.5004690">
	<ele>2112.00</ele>
	<time>2024-07-25T09:27:40.000Z</time>
</trkpt>
<trkpt lat="46.1234250" lon="10.5004760">
	<ele>2112.20</ele>
	<time>2024-07-25T09:27:41.000Z</time>
</trkpt>
<trkpt lat="46.1234320" lon="10.5004840">
	<ele>2112.20</ele>
	<time>2024-07-25T09:27:42.000Z</time>
</trkpt>
<trkpt lat="46.1234390" lon="10.5004930">
	<ele>2112.40</ele>
	<time>2024-07-25T09:27:43.000Z</time>
</trkpt>
<trkpt lat="46.1234450" lon="10.5005000">
	<ele>2112.40</ele>
	<time>2024-07-25T09:27:44.000Z</time>
</trkpt>
<trkpt lat="46.1234510" lon="10.5005090">
	<ele>2112.60</ele>
	<time>2024-07-25T09:27:45.000Z</time>
</trkpt>
<trkpt lat="46.1234590" lon="10.5005160">
	<ele>2112.60</ele>
	<time>2024-07-25T09:27:46.000Z</time>
</trkpt>
<trkpt lat="46.1234650" lon="10.5005240">
	<ele>2112.80</ele>
	<time>2024-07-25T09:27:47.000Z</time>
</trkpt>
<trkpt lat="46.1234710" lon="10.5005310">
	<ele>2113.00</ele>
	<time>2024-07-25T09:27:48.000Z</time>
</trkpt>
<trkpt lat="46.1234780" lon="10.5005380">
	<ele>2113.00</ele>
	<time>2024-07-25T09:27:49.000Z</time>
</trkpt>
<trkpt lat="46.1234840" lon="10.5005470">
	<ele>2113.20</ele>
	<time>2024-07-25T09:27:50.000Z</time>
</trkpt>
<trkpt lat="46.1234910" lon="10.5005540">
	<ele>2113.40</ele>
	<time>2024-07-25T09:27:51.000Z</time>
</trkpt>
<trkpt lat="46.1234980" lon="10.5005600">
	<ele>2113.40</ele>
	<time>2024-07-25T09:27:52.000Z</time>
</trkpt>
<trkpt lat="46.1235080" lon="10.5005640">
	<ele>2113.80</ele>
	<time>2024-07-25T09:27:53.000Z</time>
</trkpt>
<trkpt lat="46.1235140" lon="10.5005680">
	<ele>2114.00</ele>
	<time>2024-07-25T09:27:54.000Z</time>
</trkpt>
<trkpt lat="46.1235200" lon="10.5005730">
	<ele>2114.20</ele>
	<time>2024-07-25T09:27:55.000Z</time>
</trkpt>
<trkpt lat="46.1235290" lon="10.5005750">
	<ele>2114.40</ele>
	<time>2024-07-25T09:27:56.000Z</time>
</trkpt>
<trkpt lat="46.1235380" lon="10.5005770">
	<ele>2114.80</ele>
	<time>2024-07-25T09:27:57.000Z</time>
</trkpt>
<trkpt lat="46.1235470" lon="10.5005790">
	<ele>2114.80</ele>
	<time>2024-07-25T09:27:58.000Z</time>
</trkpt>
<trkpt lat="46.1235560" lon="10.5005810">
	<ele>2115.00</ele>
	<time>2024-07-25T09:27:59.000Z</time>
</trkpt>
<trkpt lat="46.1235670" lon="10.5005820">
	<ele>2115.20</ele>
	<time>2024-07-25T09:28:00.000Z</time>
</trkpt>
<trkpt lat="46.1235770" lon="10.5005840">
	<ele>2115.20</ele>
	<time>2024-07-25T09:28:01.000Z</time>
</trkpt>
<trkpt lat="46.1235850" lon="10.5005860">
	<ele>2115.40</ele>
	<time>2024-07-25T09:28:02.000Z</time>
</trkpt>
<trkpt lat="46.1235890" lon="10.5005860">
	<ele>2115.40</ele>
	<time>2024-07-25T09:28:03.000Z</time>
</trkpt>
<trkpt lat="46.1235930" lon="10.5005890">
	<ele>2115.40</ele>
	<time>2024-07-25T09:28:04.000Z</time>
</trkpt>
<trkpt lat="46.1235940" lon="10.5005930">
	<ele>2115.60</ele>
	<time>2024-07-25T09:28:05.000Z</time>
</trkpt>
<trkpt lat="46.1235960" lon="10.5006010">
	<ele>2115.60</ele>
	<time>2024-07-25T09:28:06.000Z</time>
</trkpt>
<trkpt lat="46.1236020" lon="10.5006120">
	<ele>2115.60</ele>
	<time>2024-07-25T09:28:07.000Z</time>
</trkpt>
<trkpt lat="46.1236090" lon="10.5006210">
	<ele>2115.60</ele>
	<time>2024-07-25T09:28:08.000Z</time>
</trkpt>
<trkpt lat="46.1236160" lon="10.5006280">
	<ele>2115.80</ele>
	<time>2024-07-25T09:28:09.000Z</time>
</trkpt>
<trkpt lat="46.1236250" lon="10.5006340">
	<ele>2115.80</ele>
	<time>2024-07-25T09:28:10.000Z</time>
</trkpt>
<trkpt lat="46.1236330" lon="10.5006400">
	<ele>2116.00</ele>
	<time>2024-07-25T09:28:11.000Z</time>
</trkpt>
<trkpt lat="46.1236420" lon="10.5006480">
	<ele>2116.00</ele>
	<time>2024-07-25T09:28:12.000Z</time>
</trkpt>
<trkpt lat="46.1236520" lon="10.5006530">
	<ele>2116.00</ele>
	<time>2024-07-25T09:28:13.000Z</time>
</trkpt>
<trkpt lat="46.1236580" lon="10.5006650">
	<ele>2116.20</ele>
	<time>2024-07-25T09:28:14.000Z</time>
</trkpt>
<trkpt lat="46.1236660" lon="10.5006710">
	<ele>2116.20</ele>
	<time>2024-07-25T09:28:15.000Z</time>
</trkpt>
<trkpt lat="46.1236740" lon="10.5006800">
	<ele>2116.40</ele>
	<time>2024-07-25T09:28:16.000Z</time>
</trkpt>
<trkpt lat="46.1236820" lon="10.5006860">
	<ele>2116.60</ele>
	<time>2024-07-25T09:28:17.000Z</time>
</trkpt>
<trkpt lat="46.1236890" lon="10.5006920">
	<ele>2116.80</ele>
	<time>2024-07-25T09:28:18.000Z</time>
</trkpt>
<trkpt lat="46.1236970" lon="10.5006950">
	<ele>2116.80</ele>
	<time>2024-07-25T09:28:19.000Z</time>
</trkpt>
<trkpt lat="46.1237050" lon="10.5006950">
	<ele>2117.00</ele>
	<time>2024-07-25T09:28:20.000Z</time>
</trkpt>
<trkpt lat="46.1237140" lon="10.5006860">
	<ele>2117.00</ele>
	<time>2024-07-25T09:28:21.000Z</time>
</trkpt>
<trkpt lat="46.1237220" lon="10.5006790">
	<ele>2117.20</ele>
	<time>2024-07-25T09:28:22.000Z</time>
</trkpt>
<trkpt lat="46.1237290" lon="10.5006710">
	<ele>2117.40</ele>
	<time>2024-07-25T09:28:23.000Z</time>
</trkpt>
<trkpt lat="46.1237350" lon="10.5006620">
	<ele>2117.40</ele>
	<time>2024-07-25T09:28:24.000Z</time>
</trkpt>
<trkpt lat="46.1237400" lon="10.5006520">
	<ele>2117.60</ele>
	<time>2024-07-25T09:28:25.000Z</time>
</trkpt>
<trkpt lat="46.1237470" lon="10.5006460">
	<ele>2117.80</ele>
	<time>2024-07-25T09:28:26.000Z</time>
</trkpt>
<trkpt lat="46.1237520" lon="10.5006380">
	<ele>2117.80</ele>
	<time>2024-07-25T09:28:27.000Z</time>
</trkpt>
<trkpt lat="46.1237580" lon="10.5006300">
	<ele>2118.00</ele>
	<time>2024-07-25T09:28:28.000Z</time>
</trkpt>
<trkpt lat="46.1237620" lon="10.5006210">
	<ele>2118.20</ele>
	<time>2024-07-25T09:28:29.000Z</time>
</trkpt>
<trkpt lat="46.1237680" lon="10.5006120">
	<ele>2118.40</ele>
	<time>2024-07-25T09:28:30.000Z</time>
</trkpt>
<trkpt lat="46.1237740" lon="10.5006000">
	<ele>2118.40</ele>
	<time>2024-07-25T09:28:31.000Z</time>
</trkpt>
<trkpt lat="46.1237800" lon="10.5005920">
	<ele>2118.60</ele>
	<time>2024-07-25T09:28:32.000Z</time>
</trkpt>
<trkpt lat="46.1237840" lon="10.5005870">
	<ele>2119.00</ele>
	<time>2024-07-25T09:28:33.000Z</time>
</trkpt>
<trkpt lat="46.1237910" lon="10.5005790">
	<ele>2119.20</ele>
	<time>2024-07-25T09:28:34.000Z</time>
</trkpt>
<trkpt lat="46.1238000" lon="10.5005740">
	<ele>2119.40</ele>
	<time>2024-07-25T09:28:35.000Z</time>
</trkpt>
<trkpt lat="46.1238060" lon="10.5005730">
	<ele>2119.60</ele>
	<time>2024-07-25T09:28:36.000Z</time>
</trkpt>
<trkpt lat="46.1238120" lon="10.5005720">
	<ele>2119.80</ele>
	<time>2024-07-25T09:28:37.000Z</time>
</trkpt>
<trkpt lat="46.1238210" lon="10.5005710">
	<ele>2120.00</ele>
	<time>2024-07-25T09:28:38.000Z</time>
</trkpt>
<trkpt lat="46.1238280" lon="10.5005650">
	<ele>2120.20</ele>
	<time>2024-07-25T09:28:39.000Z</time>
</trkpt>
<trkpt lat="46.1238340" lon="10.5005620">
	<ele>2120.20</ele>
	<time>2024-07-25T09:28:40.000Z</time>
</trkpt>
<trkpt lat="46.1238400" lon="10.5005650">
	<ele>2120.40</ele>
	<time>2024-07-25T09:28:41.000Z</time>
</trkpt>
<trkpt lat="46.1238440" lon="10.5005660">
	<ele>2120.40</ele>
	<time>2024-07-25T09:28:42.000Z</time>
</trkpt>
<trkpt lat="46.1238510" lon="10.5005730">
	<ele>2120.60</ele>
	<time>2024-07-25T09:28:43.000Z</time>
</trkpt>
<trkpt lat="46.1238570" lon="10.5005830">
	<ele>2120.60</ele>
	<time>2024-07-25T09:28:44.000Z</time>
</trkpt>
<trkpt lat="46.1238610" lon="10.5005940">
	<ele>2120.80</ele>
	<time>2024-07-25T09:28:45.000Z</time>
</trkpt>
<trkpt lat="46.1238670" lon="10.5006040">
	<ele>2121.00</ele>
	<time>2024-07-25T09:28:46.000Z</time>
</trkpt>
<trkpt lat="46.1238710" lon="10.5006150">
	<ele>2121.00</ele>
	<time>2024-07-25T09:28:47.000Z</time>
</trkpt>
<trkpt lat="46.1238730" lon="10.5006300">
	<ele>2121.00</ele>
	<time>2024-07-25T09:28:48.000Z</time>
</trkpt>
<trkpt lat="46.1238750" lon="10.5006400">
	<ele>2121.20</ele>
	<time>2024-07-25T09:28:49.000Z</time>
</trkpt>
<trkpt lat="46.1238770" lon="10.5006490">
	<ele>2121.60</ele>
	<time>2024-07-25T09:28:50.000Z</time>
</trkpt>
<trkpt lat="46.1238770" lon="10.5006520">
	<ele>2121.80</ele>
	<time>2024-07-25T09:28:51.000Z</time>
</trkpt>
<trkpt lat="46.1238790" lon="10.5006600">
	<ele>2122.00</ele>
	<time>2024-07-25T09:28:52.000Z</time>
</trkpt>
<trkpt lat="46.1238780" lon="10.5006690">
	<ele>2122.20</ele>
	<time>2024-07-25T09:28:53.000Z</time>
</trkpt>
<trkpt lat="46.1238770" lon="10.5006800">
	<ele>2122.40</ele>
	<time>2024-07-25T09:28:54.000Z</time>
</trkpt>
<trkpt lat="46.1238770" lon="10.5006900">
	<ele>2122.60</ele>
	<time>2024-07-25T09:28:55.000Z</time>
</trkpt>
<trkpt lat="46.1238780" lon="10.5006990">
	<ele>2122.60</ele>
	<time>2024-07-25T09:28:56.000Z</time>
</trkpt>
<trkpt lat="46.1238790" lon="10.5007080">
	<ele>2122.80</ele>
	<time>2024-07-25T09:28:57.000Z</time>
</trkpt>
<trkpt lat="46.1238790" lon="10.5007190">
	<ele>2123.00</ele>
	<time>2024-07-25T09:28:58.000Z</time>
</trkpt>
<trkpt lat="46.1238790" lon="10.5007300">
	<ele>2123.20</ele>
	<time>2024-07-25T09:28:59.000Z</time>
</trkpt>
<trkpt lat="46.1238780" lon="10.5007400">
	<ele>2123.40</ele>
	<time>2024-07-25T09:29:00.000Z</time>
</trkpt>
<trkpt lat="46.1238790" lon="10.5007510">
	<ele>2123.40</ele>
	<time>2024-07-25T09:29:01.000Z</time>
</trkpt>
<trkpt lat="46.1238800" lon="10.5007610">
	<ele>2123.60</ele>
	<time>2024-07-25T09:29:02.000Z</time>
</trkpt>
<trkpt lat="46.1238810" lon="10.5007700">
	<ele>2123.60</ele>
	<time>2024-07-25T09:29:03.000Z</time>
</trkpt>
<trkpt lat="46.1238820" lon="10.5007770">
	<ele>2123.80</ele>
	<time>2024-07-25T09:29:04.000Z</time>
</trkpt>
<trkpt lat="46.1238810" lon="10.5007850">
	<ele>2124.00</ele>
	<time>2024-07-25T09:29:05.000Z</time>
</trkpt>
<trkpt lat="46.1238800" lon="10.5007910">
	<ele>2124.20</ele>
	<time>2024-07-25T09:29:06.000Z</time>
</trkpt>
<trkpt lat="46.1238790" lon="10.5007970">
	<ele>2124.40</ele>
	<time>2024-07-25T09:29:07.000Z</time>
</trkpt>
<trkpt lat="46.1238780" lon="10.5008070">
	<ele>2124.60</ele>
	<time>2024-07-25T09:29:08.000Z</time>
</trkpt>
<trkpt lat="46.1238760" lon="10.5008180">
	<ele>2124.80</ele>
	<time>2024-07-25T09:29:09.000Z</time>
</trkpt>
<trkpt lat="46.1238750" lon="10.5008290">
	<ele>2125.00</ele>
	<time>2024-07-25T09:29:10.000Z</time>
</trkpt>
<trkpt lat="46.1238740" lon="10.5008360">
	<ele>2125.20</ele>
	<time>2024-07-25T09:29:11.000Z</time>
</trkpt>
<trkpt lat="46.1238740" lon="10.5008440">
	<ele>2125.40</ele>
	<time>2024-07-25T09:29:12.000Z</time>
</trkpt>
<trkpt lat="46.1238730" lon="10.5008530">
	<ele>2125.40</ele>
	<time>2024-07-25T09:29:13.000Z</time>
</trkpt>
<trkpt lat="46.1238700" lon="10.5008610">
	<ele>2125.80</ele>
	<time>2024-07-25T09:29:14.000Z</time>
</trkpt>
<trkpt lat="46.1238670" lon="10.5008710">
	<ele>2126.00</ele>
	<time>2024-07-25T09:29:15.000Z</time>
</trkpt>
<trkpt lat="46.1238630" lon="10.5008790">
	<ele>2126.20</ele>
	<time>2024-07-25T09:29:16.000Z</time>
</trkpt>
<trkpt lat="46.1238590" lon="10.5008880">
	<ele>2126.20</ele>
	<time>2024-07-25T09:29:17.000Z</time>
</trkpt>
<trkpt lat="46.1238540" lon="10.5008960">
	<ele>2126.40</ele>
	<time>2024-07-25T09:29:18.000Z</time>
</trkpt>
<trkpt lat="46.1238490" lon="10.5009050">
	<ele>2126.40</ele>
	<time>2024-07-25T09:29:19.000Z</time>
</trkpt>
<trkpt lat="46.1238460" lon="10.5009140">
	<ele>2126.60</ele>
	<time>2024-07-25T09:29:20.000Z</time>
</trkpt>
<trkpt lat="46.1238450" lon="10.5009230">
	<ele>2126.80</ele>
	<time>2024-07-25T09:29:21.000Z</time>
</trkpt>
<trkpt lat="46.1238420" lon="10.5009330">
	<ele>2127.00</ele>
	<time>2024-07-25T09:29:22.000Z</time>
</trkpt>
<trkpt lat="46.1238410" lon="10.5009430">
	<ele>2127.40</ele>
	<time>2024-07-25T09:29:23.000Z</time>
</trkpt>
<trkpt lat="46.1238390" lon="10.5009520">
	<ele>2127.60</ele>
	<time>2024-07-25T09:29:24.000Z</time>
</trkpt>
<trkpt lat="46.1238350" lon="10.5009610">
	<ele>2127.80</ele>
	<time>2024-07-25T09:29:25.000Z</time>
</trkpt>
<trkpt lat="46.1238340" lon="10.5009690">
	<ele>2128.00</ele>
	<time>2024-07-25T09:29:26.000Z</time>
</trkpt>
<trkpt lat="46.1238300" lon="10.5009770">
	<ele>2128.00</ele>
	<time>2024-07-25T09:29:27.000Z</time>
</trkpt>
<trkpt lat="46.1238290" lon="10.5009880">
	<ele>2128.20</ele>
	<time>2024-07-25T09:29:28.000Z</time>
</trkpt>
<trkpt lat="46.1238260" lon="10.5009980">
	<ele>2128.40</ele>
	<time>2024-07-25T09:29:29.000Z</time>
</trkpt>
<trkpt lat="46.1238230" lon="10.5010070">
	<ele>2128.60</ele>
	<time>2024-07-25T09:29:30.000Z</time>
</trkpt>
<trkpt lat="46.1238200" lon="10.5010160">
	<ele>2128.80</ele>
	<time>2024-07-25T09:29:31.000Z</time>
</trkpt>
<trkpt lat="46.1238170" lon="10.5010240">
	<ele>2128.80</ele>
	<time>2024-07-25T09:29:32.000Z</time>
</trkpt>
<trkpt lat="46.1238140" lon="10.5010330">
	<ele>2129.00</ele>
	<time>2024-07-25T09:29:33.000Z</time>
</trkpt>
<trkpt lat="46.1238140" lon="10.5010420">
	<ele>2129.20</ele>
	<time>2024-07-25T09:29:34.000Z</time>
</trkpt>
<trkpt lat="46.1238110" lon="10.5010500">
	<ele>2129.40</ele>
	<time>2024-07-25T09:29:35.000Z</time>
</trkpt>
<trkpt lat="46.1238080" lon="10.5010590">
	<ele>2129.60</ele>
	<time>2024-07-25T09:29:36.000Z</time>
</trkpt>
<trkpt lat="46.1238070" lon="10.5010710">
	<ele>2129.60</ele>
	<time>2024-07-25T09:29:37.000Z</time>
</trkpt>
<trkpt lat="46.1238040" lon="10.5010810">
	<ele>2129.80</ele>
	<time>2024-07-25T09:29:38.000Z</time>
</trkpt>
<trkpt lat="46.1238010" lon="10.5010890">
	<ele>2130.00</ele>
	<time>2024-07-25T09:29:39.000Z</time>
</trkpt>
<trkpt lat="46.1237980" lon="10.5010980">
	<ele>2130.00</ele>
	<time>2024-07-25T09:29:40.000Z</time>
</trkpt>
<trkpt lat="46.1237980" lon="10.5011060">
	<ele>2130.20</ele>
	<time>2024-07-25T09:29:41.000Z</time>
</trkpt>
<trkpt lat="46.1237930" lon="10.5011150">
	<ele>2130.20</ele>
	<time>2024-07-25T09:29:42.000Z</time>
</trkpt>
<trkpt lat="46.1237900" lon="10.5011250">
	<ele>2130.40</ele>
	<time>2024-07-25T09:29:43.000Z</time>
</trkpt>
<trkpt lat="46.1237870" lon="10.5011360">
	<ele>2130.60</ele>
	<time>2024-07-25T09:29:44.000Z</time>
</trkpt>
<trkpt lat="46.1237840" lon="10.5011450">
	<ele>2130.60</ele>
	<time>2024-07-25T09:29:45.000Z</time>
</trkpt>
<trkpt lat="46.1237820" lon="10.5011570">
	<ele>2130.80</ele>
	<time>2024-07-25T09:29:46.000Z</time>
</trkpt>
<trkpt lat="46.1237770" lon="10.5011730">
	<ele>2130.80</ele>
	<time>2024-07-25T09:29:47.000Z</time>
</trkpt>
<trkpt lat="46.1237740" lon="10.5011860">
	<ele>2130.80</ele>
	<time>2024-07-25T09:29:48.000Z</time>
</trkpt>
<trkpt lat="46.1237720" lon="10.5011990">
	<ele>2130.80</ele>
	<time>2024-07-25T09:29:49.000Z</time>
</trkpt>
<trkpt lat="46.1237690" lon="10.5012110">
	<ele>2130.80</ele>
	<time>2024-07-25T09:29:50.000Z</time>
</trkpt>
<trkpt lat="46.1237640" lon="10.5012250">
	<ele>2130.80</ele>
	<time>2024-07-25T09:29:51.000Z</time>
</trkpt>
<trkpt lat="46.1237610" lon="10.5012400">
	<ele>2130.80</ele>
	<time>2024-07-25T09:29:52.000Z</time>
</trkpt>
<trkpt lat="46.1237570" lon="10.5012540">
	<ele>2130.80</ele>
	<time>2024-07-25T09:29:53.000Z</time>
</trkpt>
<trkpt lat="46.1237520" lon="10.5012670">
	<ele>2130.80</ele>
	<time>2024-07-25T09:29:54.000Z</time>
</trkpt>
<trkpt lat="46.1237480" lon="10.5012800">
	<ele>2130.80</ele>
	<time>2024-07-25T09:29:55.000Z</time>
</trkpt>
<trkpt lat="46.1237430" lon="10.5012920">
	<ele>2130.60</ele>
	<time>2024-07-25T09:29:56.000Z</time>
</trkpt>
<trkpt lat="46.1237380" lon="10.5013040">
	<ele>2130.60</ele>
	<time>2024-07-25T09:29:57.000Z</time>
</trkpt>
<trkpt lat="46.1237350" lon="10.5013110">
	<ele>2130.40</ele>
	<time>2024-07-25T09:29:58.000Z</time>
</trkpt>
<trkpt lat="46.1237300" lon="10.5013210">
	<ele>2130.40</ele>
	<time>2024-07-25T09:29:59.000Z</time>
</trkpt>
<trkpt lat="46.1237270" lon="10.5013310">
	<ele>2130.20</ele>
	<time>2024-07-25T09:30:00.000Z</time>
</trkpt>
<trkpt lat="46.1237200" lon="10.5013460">
	<ele>2130.00</ele>
	<time>2024-07-25T09:30:01.000Z</time>
</trkpt>
<trkpt lat="46.1237150" lon="10.5013560">
	<ele>2130.00</ele>
	<time>2024-07-25T09:30:02.000Z</time>
</trkpt>
<trkpt lat="46.1237110" lon="10.5013680">
	<ele>2129.80</ele>
	<time>2024-07-25T09:30:03.000Z</time>
</trkpt>
<trkpt lat="46.1237080" lon="10.5013800">
	<ele>2129.80</ele>
	<time>2024-07-25T09:30:04.000Z</time>
</trkpt>
<trkpt lat="46.1237050" lon="10.5013970">
	<ele>2129.80</ele>
	<time>2024-07-25T09:30:05.000Z</time>
</trkpt>
<trkpt lat="46.1237030" lon="10.5014120">
	<ele>2129.60</ele>
	<time>2024-07-25T09:30:06.000Z</time>
</trkpt>
<trkpt lat="46.1237010" lon="10.5014250">
	<ele>2129.60</ele>
	<time>2024-07-25T09:30:07.000Z</time>
</trkpt>
<trkpt lat="46.1236960" lon="10.5014380">
	<ele>2129.60</ele>
	<time>2024-07-25T09:30:08.000Z</time>
</trkpt>
<trkpt lat="46.1236940" lon="10.5014520">
	<ele>2129.60</ele>
	<time>2024-07-25T09:30:09.000Z</time>
</trkpt>
<trkpt lat="46.1236940" lon="10.5014630">
	<ele>2130.00</ele>
	<time>2024-07-25T09:30:10.000Z</time>
</trkpt>
<trkpt lat="46.1236920" lon="10.5014760">
	<ele>2130.20</ele>
	<time>2024-07-25T09:30:11.000Z</time>
</trkpt>
<trkpt lat="46.1236920" lon="10.5014850">
	<ele>2130.40</ele>
	<time>2024-07-25T09:30:12.000Z</time>
</trkpt>
<trkpt lat="46.1236910" lon="10.5014930">
	<ele>2130.40</ele>
	<time>2024-07-25T09:30:13.000Z</time>
</trkpt>
<trkpt lat="46.1236890" lon="10.5015040">
	<ele>2130.60</ele>
	<time>2024-07-25T09:30:14.000Z</time>
</trkpt>
<trkpt lat="46.1236890" lon="10.5015150">
	<ele>2130.60</ele>
	<time>2024-07-25T09:30:15.000Z</time>
</trkpt>
<trkpt lat="46.1236870" lon="10.5015250">
	<ele>2130.80</ele>
	<time>2024-07-25T09:30:16.000Z</time>
</trkpt>
<trkpt lat="46.1236860" lon="10.5015320">
	<ele>2131.00</ele>
	<time>2024-07-25T09:30:17.000Z</time>
</trkpt>
<trkpt lat="46.1236850" lon="10.5015380">
	<ele>2131.40</ele>
	<time>2024-07-25T09:30:18.000Z</time>
</trkpt>
<trkpt lat="46.1236840" lon="10.5015500">
	<ele>2131.80</ele>
	<time>2024-07-25T09:30:19.000Z</time>
</trkpt>
<trkpt lat="46.1236830" lon="10.5015660">
	<ele>2131.80</ele>
	<time>2024-07-25T09:30:20.000Z</time>
</trkpt>
<trkpt lat="46.1236850" lon="10.5015770">
	<ele>2132.00</ele>
	<time>2024-07-25T09:30:21.000Z</time>
</trkpt>
<trkpt lat="46.1236830" lon="10.5015890">
	<ele>2132.00</ele>
	<time>2024-07-25T09:30:22.000Z</time>
</trkpt>
<trkpt lat="46.1236830" lon="10.5015960">
	<ele>2132.00</ele>
	<time>2024-07-25T09:30:23.000Z</time>
</trkpt>
<trkpt lat="46.1236820" lon="10.5016040">
	<ele>2132.00</ele>
	<time>2024-07-25T09:30:24.000Z</time>
</trkpt>
<trkpt lat="46.1236810" lon="10.5016190">
	<ele>2132.00</ele>
	<time>2024-07-25T09:30:25.000Z</time>
</trkpt>
<trkpt lat="46.1236840" lon="10.5016330">
	<ele>2132.20</ele>
	<time>2024-07-25T09:30:26.000Z</time>
</trkpt>
<trkpt lat="46.1236860" lon="10.5016450">
	<ele>2132.40</ele>
	<time>2024-07-25T09:30:27.000Z</time>
</trkpt>
<trkpt lat="46.1236890" lon="10.5016570">
	<ele>2132.60</ele>
	<time>2024-07-25T09:30:28.000Z</time>
</trkpt>
<trkpt lat="46.1236940" lon="10.5016720">
	<ele>2132.60</ele>
	<time>2024-07-25T09:30:29.000Z</time>
</trkpt>
<trkpt lat="46.1236960" lon="10.5016870">
	<ele>2132.80</ele>
	<time>2024-07-25T09:30:30.000Z</time>
</trkpt>
<trkpt lat="46.1236950" lon="10.5017000">
	<ele>2132.80</ele>
	<time>2024-07-25T09:30:31.000Z</time>
</trkpt>
<trkpt lat="46.1236960" lon="10.5017130">
	<ele>2133.00</ele>
	<time>2024-07-25T09:30:32.000Z</time>
</trkpt>
<trkpt lat="46.1236990" lon="10.5017290">
	<ele>2133.00</ele>
	<time>2024-07-25T09:30:33.000Z</time>
</trkpt>
<trkpt lat="46.1237030" lon="10.5017460">
	<ele>2133.00</ele>
	<time>2024-07-25T09:30:34.000Z</time>
</trkpt>
<trkpt lat="46.1237080" lon="10.5017630">
	<ele>2133.00</ele>
	<time>2024-07-25T09:30:35.000Z</time>
</trkpt>
<trkpt lat="46.1237070" lon="10.5017780">
	<ele>2133.00</ele>
	<time>2024-07-25T09:30:36.000Z</time>
</trkpt>
<trkpt lat="46.1237090" lon="10.5017920">
	<ele>2133.00</ele>
	<time>2024-07-25T09:30:37.000Z</time>
</trkpt>
<trkpt lat="46.1237160" lon="10.5018010">
	<ele>2133.00</ele>
	<time>2024-07-25T09:30:38.000Z</time>
</trkpt>
<trkpt lat="46.1237250" lon="10.5018140">
	<ele>2132.80</ele>
	<time>2024-07-25T09:30:39.000Z</time>
</trkpt>
<trkpt lat="46.1237270" lon="10.5018270">
	<ele>2132.80</ele>
	<time>2024-07-25T09:30:40.000Z</time>
</trkpt>
<trkpt lat="46.1237330" lon="10.5018360">
	<ele>2132.60</ele>
	<time>2024-07-25T09:30:41.000Z</time>
</trkpt>
<trkpt lat="46.1237410" lon="10.5018490">
	<ele>2132.60</ele>
	<time>2024-07-25T09:30:42.000Z</time>
</trkpt>
<trkpt lat="46.1237490" lon="10.5018600">
	<ele>2132.60</ele>
	<time>2024-07-25T09:30:43.000Z</time>
</trkpt>
<trkpt lat="46.1237570" lon="10.5018700">
	<ele>2132.40</ele>
	<time>2024-07-25T09:30:44.000Z</time>
</trkpt>
<trkpt lat="46.1237620" lon="10.5018780">
	<ele>2132.40</ele>
	<time>2024-07-25T09:30:45.000Z</time>
</trkpt>
<trkpt lat="46.1237670" lon="10.5018910">
	<ele>2132.20</ele>
	<time>2024-07-25T09:30:46.000Z</time>
</trkpt>
<trkpt lat="46.1237690" lon="10.5018990">
	<ele>2132.20</ele>
	<time>2024-07-25T09:30:47.000Z</time>
</trkpt>
<trkpt lat="46.1237740" lon="10.5019060">
	<ele>2132.20</ele>
	<time>2024-07-25T09:30:48.000Z</time>
</trkpt>
<trkpt lat="46.1237780" lon="10.5019080">
	<ele>2132.20</ele>
	<time>2024-07-25T09:30:49.000Z</time>
</trkpt>
<trkpt lat="46.1237820" lon="10.5019090">
	<ele>2132.20</ele>
	<time>2024-07-25T09:30:50.000Z</time>
</trkpt>
<trkpt lat="46.1237860" lon="10.5019090">
	<ele>2132.20</ele>
	<time>2024-07-25T09:30:51.000Z</time>
</trkpt>
<trkpt lat="46.1237870" lon="10.5019130">
	<ele>2132.20</ele>
	<time>2024-07-25T09:30:52.000Z</time>
</trkpt>
<trkpt lat="46.1237880" lon="10.5019120">
	<ele>2132.40</ele>
	<time>2024-07-25T09:30:53.000Z</time>
</trkpt>
<trkpt lat="46.1237890" lon="10.5019130">
	<ele>2132.40</ele>
	<time>2024-07-25T09:30:54.000Z</time>
</trkpt>
<trkpt lat="46.1237860" lon="10.5019060">
	<ele>2132.40</ele>
	<time>2024-07-25T09:30:55.000Z</time>
</trkpt>
<trkpt lat="46.1237830" lon="10.5019020">
	<ele>2132.40</ele>
	<time>2024-07-25T09:30:56.000Z</time>
</trkpt>
<trkpt lat="46.1237740" lon="10.5018990">
	<ele>2132.40</ele>
	<time>2024-07-25T09:30:57.000Z</time>
</trkpt>
<trkpt lat="46.1237640" lon="10.5018930">
	<ele>2132.40</ele>
	<time>2024-07-25T09:30:58.000Z</time>
</trkpt>
<trkpt lat="46.1237560" lon="10.5018930">
	<ele>2132.40</ele>
	<time>2024-07-25T09:30:59.000Z</time>
</trkpt>
<trkpt lat="46.1237460" lon="10.5018900">
	<ele>2132.20</ele>
	<time>2024-07-25T09:31:00.000Z</time>
</trkpt>
<trkpt lat="46.1237350" lon="10.5018910">
	<ele>2132.20</ele>
	<time>2024-07-25T09:31:01.000Z</time>
</trkpt>
<trkpt lat="46.1237260" lon="10.5018920">
	<ele>2132.00</ele>
	<time>2024-07-25T09:31:02.000Z</time>
</trkpt>
<trkpt lat="46.1237060" lon="10.5018980">
	<ele>2132.00</ele>
	<time>2024-07-25T09:31:03.000Z</time>
</trkpt>
<trkpt lat="46.1236970" lon="10.5019030">
	<ele>2132.00</ele>
	<time>2024-07-25T09:31:04.000Z</time>
</trkpt>
<trkpt lat="46.1236870" lon="10.5019080">
	<ele>2131.80</ele>
	<time>2024-07-25T09:31:05.000Z</time>
</trkpt>
<trkpt lat="46.1236730" lon="10.5019090">
	<ele>2131.80</ele>
	<time>2024-07-25T09:31:06.000Z</time>
</trkpt>
<trkpt lat="46.1236600" lon="10.5019090">
	<ele>2131.60</ele>
	<time>2024-07-25T09:31:07.000Z</time>
</trkpt>
<trkpt lat="46.1236400" lon="10.5019000">
	<ele>2131.60</ele>
	<time>2024-07-25T09:31:08.000Z</time>
</trkpt>
<trkpt lat="46.1236310" lon="10.5018850">
	<ele>2131.60</ele>
	<time>2024-07-25T09:31:09.000Z</time>
</trkpt>
<trkpt lat="46.1236200" lon="10.5018760">
	<ele>2131.60</ele>
	<time>2024-07-25T09:31:10.000Z</time>
</trkpt>
<trkpt lat="46.1236040" lon="10.5018730">
	<ele>2131.60</ele>
	<time>2024-07-25T09:31:11.000Z</time>
</trkpt>
<trkpt lat="46.1235860" lon="10.5018710">
	<ele>2131.60</ele>
	<time>2024-07-25T09:31:12.000Z</time>
</trkpt>
<trkpt lat="46.1235770" lon="10.5018690">
	<ele>2131.60</ele>
	<time>2024-07-25T09:31:13.000Z</time>
</trkpt>
<trkpt lat="46.1235700" lon="10.5018610">
	<ele>2131.60</ele>
	<time>2024-07-25T09:31:14.000Z</time>
</trkpt>
<trkpt lat="46.1235600" lon="10.5018540">
	<ele>2131.60</ele>
	<time>2024-07-25T09:31:15.000Z</time>
</trkpt>
<trkpt lat="46.1235480" lon="10.5018460">
	<ele>2131.60</ele>
	<time>2024-07-25T09:31:16.000Z</time>
</trkpt>
<trkpt lat="46.1235400" lon="10.5018390">
	<ele>2131.60</ele>
	<time>2024-07-25T09:31:17.000Z</time>
</trkpt>
<trkpt lat="46.1235340" lon="10.5018330">
	<ele>2131.60</ele>
	<time>2024-07-25T09:31:18.000Z</time>
</trkpt>
<trkpt lat="46.1235280" lon="10.5018250">
	<ele>2131.60</ele>
	<time>2024-07-25T09:31:19.000Z</time>
</trkpt>
<trkpt lat="46.1235220" lon="10.5018150">
	<ele>2131.60</ele>
	<time>2024-07-25T09:31:20.000Z</time>
</trkpt>
<trkpt lat="46.1235180" lon="10.5018040">
	<ele>2131.60</ele>
	<time>2024-07-25T09:31:21.000Z</time>
</trkpt>
<trkpt lat="46.1235150" lon="10.5017960">
	<ele>2131.60</ele>
	<time>2024-07-25T09:31:22.000Z</time>
</trkpt>
<trkpt lat="46.1235140" lon="10.5017960">
	<ele>2131.60</ele>
	<time>2024-07-25T09:31:23.000Z</time>
</trkpt>
<trkpt lat="46.1235120" lon="10.5017970">
	<ele>2131.60</ele>
	<time>2024-07-25T09:31:24.000Z</time>
</trkpt>
<trkpt lat="46.1235100" lon="10.5017970">
	<ele>2131.60</ele>
	<time>2024-07-25T09:31:25.000Z</time>
</trkpt>
<trkpt lat="46.1235090" lon="10.5017990">
	<ele>2131.80</ele>
	<time>2024-07-25T09:31:26.000Z</time>
</trkpt>
<trkpt lat="46.1235080" lon="10.5018020">
	<ele>2132.00</ele>
	<time>2024-07-25T09:31:27.000Z</time>
</trkpt>
<trkpt lat="46.1235090" lon="10.5018040">
	<ele>2132.00</ele>
	<time>2024-07-25T09:31:28.000Z</time>
</trkpt>
<trkpt lat="46.1235080" lon="10.5018020">
	<ele>2132.20</ele>
	<time>2024-07-25T09:31:29.000Z</time>
</trkpt>
<trkpt lat="46.1235060" lon="10.5018020">
	<ele>2132.20</ele>
	<time>2024-07-25T09:31:30.000Z</time>
</trkpt>
<trkpt lat="46.1235050" lon="10.5018040">
	<ele>2132.20</ele>
	<time>2024-07-25T09:31:31.000Z</time>
</trkpt>
<trkpt lat="46.1235040" lon="10.5018050">
	<ele>2132.20</ele>
	<time>2024-07-25T09:31:32.000Z</time>
</trkpt>
<trkpt lat="46.1235040" lon="10.5018050">
	<ele>2132.20</ele>
	<time>2024-07-25T09:31:33.000Z</time>
</trkpt>
<trkpt lat="46.1235040" lon="10.5018050">
	<ele>2132.20</ele>
	<time>2024-07-25T09:31:34.000Z</time>
</trkpt>
<trkpt lat="46.1235040" lon="10.5018050">
	<ele>2132.20</ele>
	<time>2024-07-25T09:31:35.000Z</time>
</trkpt>
<trkpt lat="46.1235040" lon="10.5018050">
	<ele>2132.20</ele>
	<time>2024-07-25T09:31:36.000Z</time>
</trkpt>
<trkpt lat="46.1235040" lon="10.5018050">
	<ele>2132.20</ele>
	<time>2024-07-25T09:31:37.000Z</time>
</trkpt>
<trkpt lat="46.1235040" lon="10.5018050">
	<ele>2132.20</ele>
	<time>2024-07-25T09:31:38.000Z</time>
</trkpt>
<trkpt lat="46.1235040" lon="10.5018050">
	<ele>2132.20</ele>
	<time>2024-07-25T09:31:39.000Z</time>
</trkpt>
<trkpt lat="46.1235040" lon="10.5018050">
	<ele>2132.00</ele>
	<time>2024-07-25T09:31:40.000Z</time>
</trkpt>
<trkpt lat="46.1235040" lon="10.5018050">
	<ele>2131.80</ele>
	<time>2024-07-25T09:31:41.000Z</time>
</trkpt>
<trkpt lat="46.1235040" lon="10.5018050">
	<ele>2131.80</ele>
	<time>2024-07-25T09:31:42.000Z</time>
</trkpt>
<trkpt lat="46.1235040" lon="10.5018050">
	<ele>2131.80</ele>
	<time>2024-07-25T09:31:43.000Z</time>
</trkpt>
<trkpt lat="46.1235050" lon="10.5018050">
	<ele>2131.80</ele>
	<time>2024-07-25T09:31:44.000Z</time>
</trkpt>
<trkpt lat="46.1235100" lon="10.5018010">
	<ele>2131.80</ele>
	<time>2024-07-25T09:31:45.000Z</time>
</trkpt>
<trkpt lat="46.1235180" lon="10.5017800">
	<ele>2132.00</ele>
	<time>2024-07-25T09:31:46.000Z</time>
</trkpt>
<trkpt lat="46.1235310" lon="10.5017630">
	<ele>2132.00</ele>
	<time>2024-07-25T09:31:47.000Z</time>
</trkpt>
<trkpt lat="46.1235370" lon="10.5017440">
	<ele>2132.00</ele>
	<time>2024-07-25T09:31:48.000Z</time>
</trkpt>
<trkpt lat="46.1235430" lon="10.5017320">
	<ele>2132.00</ele>
	<time>2024-07-25T09:31:49.000Z</time>
</trkpt>
<trkpt lat="46.1235520" lon="10.5017240">
	<ele>2132.00</ele>
	<time>2024-07-25T09:31:50.000Z</time>
</trkpt>
<trkpt lat="46.1235570" lon="10.5017180">
	<ele>2132.00</ele>
	<time>2024-07-25T09:31:51.000Z</time>
</trkpt>
<trkpt lat="46.1235610" lon="10.5017140">
	<ele>2131.80</ele>
	<time>2024-07-25T09:31:52.000Z</time>
</trkpt>
<trkpt lat="46.1235640" lon="10.5017080">
	<ele>2131.80</ele>
	<time>2024-07-25T09:31:53.000Z</time>
</trkpt>
<trkpt lat="46.1235670" lon="10.5017040">
	<ele>2131.80</ele>
	<time>2024-07-25T09:31:54.000Z</time>
</trkpt>
<trkpt lat="46.1235650" lon="10.5017080">
	<ele>2131.80</ele>
	<time>2024-07-25T09:31:55.000Z</time>
</trkpt>
<trkpt lat="46.1235610" lon="10.5017080">
	<ele>2131.60</ele>
	<time>2024-07-25T09:31:56.000Z</time>
</trkpt>
<trkpt lat="46.1235590" lon="10.5017070">
	<ele>2131.60</ele>
	<time>2024-07-25T09:31:57.000Z</time>
</trkpt>
<trkpt lat="46.1235550" lon="10.5017060">
	<ele>2131.60</ele>
	<time>2024-07-25T09:31:58.000Z</time>
</trkpt>
<trkpt lat="46.1235580" lon="10.5017050">
	<ele>2131.60</ele>
	<time>2024-07-25T09:31:59.000Z</time>
</trkpt>
<trkpt lat="46.1234320" lon="10.5016960">
	<ele>2131.20</ele>
	<time>2024-07-25T09:35:02.000Z</time>
</trkpt>
<trkpt lat="46.1232980" lon="10.5017680">
	<ele>2131.20</ele>
	<time>2024-07-25T09:35:03.000Z</time>
</trkpt>
<trkpt lat="46.1234150" lon="10.5017250">
	<ele>2131.20</ele>
	<time>2024-07-25T09:35:04.000Z</time>
</trkpt>
<trkpt lat="46.1234810" lon="10.5018790">
	<ele>2131.20</ele>
	<time>2024-07-25T09:35:05.000Z</time>
</trkpt>
<trkpt lat="46.1233640" lon="10.5018020">
	<ele>2131.20</ele>
	<time>2024-07-25T09:35:06.000Z</time>
</trkpt>
<trkpt lat="46.1236420" lon="10.5018900">
	<ele>2131.20</ele>
	<time>2024-07-25T09:35:07.000Z</time>
</trkpt>
<trkpt lat="46.1235550" lon="10.5017760">
	<ele>2131.20</ele>
	<time>2024-07-25T09:35:08.000Z</time>
</trkpt>
<trkpt lat="46.1236010" lon="10.5018280">
	<ele>2131.20</ele>
	<time>2024-07-25T09:35:09.000Z</time>
</trkpt>
<trkpt lat="46.1235900" lon="10.5018500">
	<ele>2131.20</ele>
	<time>2024-07-25T09:35:10.000Z</time>
</trkpt>
<trkpt lat="46.1235910" lon="10.5018790">
	<ele>2131.20</ele>
	<time>2024-07-25T09:35:11.000Z</time>
</trkpt>
<trkpt lat="46.1235890" lon="10.5019050">
	<ele>2131.20</ele>
	<time>2024-07-25T09:35:12.000Z</time>
</trkpt>
<trkpt lat="46.1236110" lon="10.5019240">
	<ele>2131.20</ele>
	<time>2024-07-25T09:35:13.000Z</time>
</trkpt>
<trkpt lat="46.1236200" lon="10.5019290">
	<ele>2131.40</ele>
	<time>2024-07-25T09:35:14.000Z</time>
</trkpt>
<trkpt lat="46.1236260" lon="10.5019320">
	<ele>2131.40</ele>
	<time>2024-07-25T09:35:15.000Z</time>
</trkpt>
<trkpt lat="46.1236350" lon="10.5019370">
	<ele>2131.40</ele>
	<time>2024-07-25T09:35:16.000Z</time>
</trkpt>
<trkpt lat="46.1236480" lon="10.5019480">
	<ele>2131.40</ele>
	<time>2024-07-25T09:35:17.000Z</time>
</trkpt>
<trkpt lat="46.1236610" lon="10.5019440">
	<ele>2131.40</ele>
	<time>2024-07-25T09:35:18.000Z</time>
</trkpt>
<trkpt lat="46.1236660" lon="10.5019480">
	<ele>2131.40</ele>
	<time>2024-07-25T09:35:19.000Z</time>
</trkpt>
<trkpt lat="46.1236620" lon="10.5019430">
	<ele>2131.40</ele>
	<time>2024-07-25T09:35:20.000Z</time>
</trkpt>
<trkpt lat="46.1236560" lon="10.5019370">
	<ele>2131.40</ele>
	<time>2024-07-25T09:35:21.000Z</time>
</trkpt>
<trkpt lat="46.1236670" lon="10.5019280">
	<ele>2131.40</ele>
	<time>2024-07-25T09:35:22.000Z</time>
</trkpt>
<trkpt lat="46.1236750" lon="10.5019290">
	<ele>2131.40</ele>
	<time>2024-07-25T09:35:23.000Z</time>
</trkpt>
<trkpt lat="46.1236760" lon="10.5019240">
	<ele>2131.40</ele>
	<time>2024-07-25T09:35:24.000Z</time>
</trkpt>
<trkpt lat="46.1236710" lon="10.5019330">
	<ele>2131.40</ele>
	<time>2024-07-25T09:35:25.000Z</time>
</trkpt>
<trkpt lat="46.1236740" lon="10.5019390">
	<ele>2131.40</ele>
	<time>2024-07-25T09:35:26.000Z</time>
</trkpt>
<trkpt lat="46.1236700" lon="10.5019440">
	<ele>2131.40</ele>
	<time>2024-07-25T09:35:27.000Z</time>
</trkpt>
<trkpt lat="46.1236620" lon="10.5019620">
	<ele>2131.40</ele>
	<time>2024-07-25T09:35:28.000Z</time>
</trkpt>
<trkpt lat="46.1236540" lon="10.5019800">
	<ele>2131.20</ele>
	<time>2024-07-25T09:35:29.000Z</time>
</trkpt>
<trkpt lat="46.1236510" lon="10.5019950">
	<ele>2131.20</ele>
	<time>2024-07-25T09:35:30.000Z</time>
</trkpt>
<trkpt lat="46.1236480" lon="10.5020090">
	<ele>2131.20</ele>
	<time>2024-07-25T09:35:31.000Z</time>
</trkpt>
<trkpt lat="46.1236490" lon="10.5020250">
	<ele>2131.20</ele>
	<time>2024-07-25T09:35:32.000Z</time>
</trkpt>
<trkpt lat="46.1236510" lon="10.5020300">
	<ele>2131.00</ele>
	<time>2024-07-25T09:35:33.000Z</time>
</trkpt>
<trkpt lat="46.1236520" lon="10.5020240">
	<ele>2131.00</ele>
	<time>2024-07-25T09:35:34.000Z</time>
</trkpt>
<trkpt lat="46.1236560" lon="10.5020260">
	<ele>2130.80</ele>
	<time>2024-07-25T09:35:35.000Z</time>
</trkpt>
<trkpt lat="46.1236570" lon="10.5020240">
	<ele>2130.80</ele>
	<time>2024-07-25T09:35:36.000Z</time>
</trkpt>
<trkpt lat="46.1236560" lon="10.5020110">
	<ele>2131.00</ele>
	<time>2024-07-25T09:35:37.000Z</time>
</trkpt>
<trkpt lat="46.1236550" lon="10.5020010">
	<ele>2131.20</ele>
	<time>2024-07-25T09:35:38.000Z</time>
</trkpt>
<trkpt lat="46.1236490" lon="10.5019990">
	<ele>2131.20</ele>
	<time>2024-07-25T09:35:39.000Z</time>
</trkpt>
<trkpt lat="46.1236520" lon="10.5019930">
	<ele>2131.40</ele>
	<time>2024-07-25T09:35:40.000Z</time>
</trkpt>
<trkpt lat="46.1236530" lon="10.5019920">
	<ele>2131.40</ele>
	<time>2024-07-25T09:35:41.000Z</time>
</trkpt>
<trkpt lat="46.1236560" lon="10.5019900">
	<ele>2131.40</ele>
	<time>2024-07-25T09:35:42.000Z</time>
</trkpt>
<trkpt lat="46.1236600" lon="10.5019870">
	<ele>2131.40</ele>
	<time>2024-07-25T09:35:43.000Z</time>
</trkpt>
<trkpt lat="46.1236590" lon="10.5019920">
	<ele>2131.40</ele>
	<time>2024-07-25T09:35:44.000Z</time>
</trkpt>
<trkpt lat="46.1236610" lon="10.5020150">
	<ele>2131.40</ele>
	<time>2024-07-25T09:35:45.000Z</time>
</trkpt>
<trkpt lat="46.1236600" lon="10.5020210">
	<ele>2131.40</ele>
	<time>2024-07-25T09:35:46.000Z</time>
</trkpt>
<trkpt lat="46.1236600" lon="10.5020250">
	<ele>2131.40</ele>
	<time>2024-07-25T09:35:47.000Z</time>
</trkpt>
<trkpt lat="46.1236580" lon="10.5020270">
	<ele>2131.40</ele>
	<time>2024-07-25T09:35:48.000Z</time>
</trkpt>
<trkpt lat="46.1236560" lon="10.5020290">
	<ele>2131.40</ele>
	<time>2024-07-25T09:35:49.000Z</time>
</trkpt>
<trkpt lat="46.1236550" lon="10.5020300">
	<ele>2131.40</ele>
	<time>2024-07-25T09:35:50.000Z</time>
</trkpt>
<trkpt lat="46.1236530" lon="10.5020360">
	<ele>2131.40</ele>
	<time>2024-07-25T09:35:51.000Z</time>
</trkpt>
<trkpt lat="46.1236500" lon="10.5020410">
	<ele>2131.60</ele>
	<time>2024-07-25T09:35:52.000Z</time>
</trkpt>
<trkpt lat="46.1236490" lon="10.5020450">
	<ele>2131.40</ele>
	<time>2024-07-25T09:35:53.000Z</time>
</trkpt>
<trkpt lat="46.1236490" lon="10.5020480">
	<ele>2131.40</ele>
	<time>2024-07-25T09:35:54.000Z</time>
</trkpt>
<trkpt lat="46.1236490" lon="10.5020470">
	<ele>2131.40</ele>
	<time>2024-07-25T09:35:55.000Z</time>
</trkpt>
<trkpt lat="46.1236500" lon="10.5020430">
	<ele>2131.40</ele>
	<time>2024-07-25T09:35:56.000Z</time>
</trkpt>
<trkpt lat="46.1236520" lon="10.5020410">
	<ele>2131.40</ele>
	<time>2024-07-25T09:35:57.000Z</time>
</trkpt>
<trkpt lat="46.1236530" lon="10.5020290">
	<ele>2131.40</ele>
	<time>2024-07-25T09:35:58.000Z</time>
</trkpt>
<trkpt lat="46.1236600" lon="10.5020260">
	<ele>2131.40</ele>
	<time>2024-07-25T09:35:59.000Z</time>
</trkpt>
<trkpt lat="46.1236650" lon="10.5020200">
	<ele>2131.40</ele>
	<time>2024-07-25T09:36:00.000Z</time>
</trkpt>
<trkpt lat="46.1236700" lon="10.5020060">
	<ele>2131.40</ele>
	<time>2024-07-25T09:36:01.000Z</time>
</trkpt>
<trkpt lat="46.1236700" lon="10.5020060">
	<ele>2131.40</ele>
	<time>2024-07-25T09:36:02.000Z</time>
</trkpt>
<trkpt lat="46.1236700" lon="10.5020060">
	<ele>2131.60</ele>
	<time>2024-07-25T09:36:03.000Z</time>
</trkpt>
<trkpt lat="46.1236700" lon="10.5020060">
	<ele>2131.60</ele>
	<time>2024-07-25T09:36:04.000Z</time>
</trkpt>
<trkpt lat="46.1236700" lon="10.5020060">
	<ele>2131.60</ele>
	<time>2024-07-25T09:36:05.000Z</time>
</trkpt>
<trkpt lat="46.1236700" lon="10.5020060">
	<ele>2131.60</ele>
	<time>2024-07-25T09:36:06.000Z</time>
</trkpt>
<trkpt lat="46.1236700" lon="10.5020060">
	<ele>2131.60</ele>
	<time>2024-07-25T09:36:07.000Z</time>
</trkpt>
<trkpt lat="46.1236700" lon="10.5020060">
	<ele>2131.60</ele>
	<time>2024-07-25T09:36:08.000Z</time>
</trkpt>
<trkpt lat="46.1236700" lon="10.5020060">
	<ele>2131.60</ele>
	<time>2024-07-25T09:36:09.000Z</time>
</trkpt>
<trkpt lat="46.1236700" lon="10.5020090">
	<ele>2131.60</ele>
	<time>2024-07-25T09:36:10.000Z</time>
</trkpt>
<trkpt lat="46.1236700" lon="10.5020130">
	<ele>2131.80</ele>
	<time>2024-07-25T09:36:11.000Z</time>
</trkpt>
<trkpt lat="46.1236700" lon="10.5020180">
	<ele>2131.80</ele>
	<time>2024-07-25T09:36:12.000Z</time>
</trkpt>
<trkpt lat="46.1236700" lon="10.5020200">
	<ele>2131.80</ele>
	<time>2024-07-25T09:36:13.000Z</time>
</trkpt>
<trkpt lat="46.1236700" lon="10.5020200">
	<ele>2131.80</ele>
	<time>2024-07-25T09:36:14.000Z</time>
</trkpt>
<trkpt lat="46.1236700" lon="10.5020200">
	<ele>2131.80</ele>
	<time>2024-07-25T09:36:15.000Z</time>
</trkpt>
<trkpt lat="46.1236700" lon="10.5020210">
	<ele>2131.80</ele>
	<time>2024-07-25T09:36:16.000Z</time>
</trkpt>
<trkpt lat="46.1236700" lon="10.5020210">
	<ele>2131.80</ele>
	<time>2024-07-25T09:36:17.000Z</time>
</trkpt>
<trkpt lat="46.1236700" lon="10.5020230">
	<ele>2131.80</ele>
	<time>2024-07-25T09:36:18.000Z</time>
</trkpt>
<trkpt lat="46.1236700" lon="10.5020230">
	<ele>2131.80</ele>
	<time>2024-07-25T09:36:19.000Z</time>
</trkpt>
<trkpt lat="46.1236700" lon="10.5020230">
	<ele>2131.80</ele>
	<time>2024-07-25T09:36:20.000Z</time>
</trkpt>
<trkpt lat="46.1236700" lon="10.5020240">
	<ele>2131.80</ele>
	<time>2024-07-25T09:36:21.000Z</time>
</trkpt>
<trkpt lat="46.1236700" lon="10.5020240">
	<ele>2131.80</ele>
	<time>2024-07-25T09:36:22.000Z</time>
</trkpt>
<trkpt lat="46.1236700" lon="10.5020240">
	<ele>2131.80</ele>
	<time>2024-07-25T09:36:23.000Z</time>
</trkpt>
<trkpt lat="46.1236700" lon="10.5020240">
	<ele>2132.00</ele>
	<time>2024-07-25T09:36:24.000Z</time>
</trkpt>
<trkpt lat="46.1236700" lon="10.5020240">
	<ele>2132.00</ele>
	<time>2024-07-25T09:36:25.000Z</time>
</trkpt>
<trkpt lat="46.1236700" lon="10.5020240">
	<ele>2132.00</ele>
	<time>2024-07-25T09:36:26.000Z</time>
</trkpt>
<trkpt lat="46.1236700" lon="10.5020240">
	<ele>2132.20</ele>
	<time>2024-07-25T09:36:27.000Z</time>
</trkpt>
<trkpt lat="46.1236700" lon="10.5020240">
	<ele>2132.20</ele>
	<time>2024-07-25T09:36:28.000Z</time>
</trkpt>
<trkpt lat="46.1236700" lon="10.5020240">
	<ele>2132.20</ele>
	<time>2024-07-25T09:36:29.000Z</time>
</trkpt>
<trkpt lat="46.1236700" lon="10.5020240">
	<ele>2132.20</ele>
	<time>2024-07-25T09:36:30.000Z</time>
</trkpt>
<trkpt lat="46.1236700" lon="10.5020240">
	<ele>2132.00</ele>
	<time>2024-07-25T09:36:31.000Z</time>
</trkpt>
<trkpt lat="46.1236700" lon="10.5020240">
	<ele>2132.00</ele>
	<time>2024-07-25T09:36:32.000Z</time>
</trkpt>
<trkpt lat="46.1236700" lon="10.5020240">
	<ele>2132.00</ele>
	<time>2024-07-25T09:36:33.000Z</time>
</trkpt>
<trkpt lat="46.1236700" lon="10.5020240">
	<ele>2132.00</ele>
	<time>2024-07-25T09:36:34.000Z</time>
</trkpt>
<trkpt lat="46.1236700" lon="10.5020240">
	<ele>2132.00</ele>
	<time>2024-07-25T09:36:35.000Z</time>
</trkpt>
<trkpt lat="46.1236700" lon="10.5020240">
	<ele>2131.80</ele>
	<time>2024-07-25T09:36:36.000Z</time>
</trkpt>
<trkpt lat="46.1236700" lon="10.5020240">
	<ele>2131.80</ele>
	<time>2024-07-25T09:36:37.000Z</time>
</trkpt>
<trkpt lat="46.1236700" lon="10.5020240">
	<ele>2131.80</ele>
	<time>2024-07-25T09:36:38.000Z</time>
</trkpt>
<trkpt lat="46.1236700" lon="10.5020230">
	<ele>2131.80</ele>
	<time>2024-07-25T09:36:39.000Z</time>
</trkpt>
<trkpt lat="46.1236700" lon="10.5020220">
	<ele>2131.80</ele>
	<time>2024-07-25T09:36:40.000Z</time>
</trkpt>
<trkpt lat="46.1236700" lon="10.5020220">
	<ele>2131.80</ele>
	<time>2024-07-25T09:36:41.000Z</time>
</trkpt>
<trkpt lat="46.1236690" lon="10.5020230">
	<ele>2132.20</ele>
	<time>2024-07-25T09:36:42.000Z</time>
</trkpt>
<trkpt lat="46.1236690" lon="10.5020230">
	<ele>2132.20</ele>
	<time>2024-07-25T09:36:43.000Z</time>
</trkpt>
<trkpt lat="46.1236690" lon="10.5020240">
	<ele>2132.40</ele>
	<time>2024-07-25T09:36:44.000Z</time>
</trkpt>
<trkpt lat="46.1236690" lon="10.5020240">
	<ele>2132.60</ele>
	<time>2024-07-25T09:36:45.000Z</time>
</trkpt>
<trkpt lat="46.1236690" lon="10.5020240">
	<ele>2132.60</ele>
	<time>2024-07-25T09:36:46.000Z</time>
</trkpt>
<trkpt lat="46.1236690" lon="10.5020250">
	<ele>2132.60</ele>
	<time>2024-07-25T09:36:47.000Z</time>
</trkpt>
<trkpt lat="46.1236690" lon="10.5020250">
	<ele>2132.80</ele>
	<time>2024-07-25T09:36:48.000Z</time>
</trkpt>
<trkpt lat="46.1236690" lon="10.5020270">
	<ele>2132.80</ele>
	<time>2024-07-25T09:36:49.000Z</time>
</trkpt>
<trkpt lat="46.1236690" lon="10.5020270">
	<ele>2132.60</ele>
	<time>2024-07-25T09:36:50.000Z</time>
</trkpt>
<trkpt lat="46.1236690" lon="10.5020270">
	<ele>2132.60</ele>
	<time>2024-07-25T09:36:51.000Z</time>
</trkpt>
<trkpt lat="46.1236700" lon="10.5020270">
	<ele>2132.60</ele>
	<time>2024-07-25T09:36:52.000Z</time>
</trkpt>
<trkpt lat="46.1236700" lon="10.5020270">
	<ele>2132.40</ele>
	<time>2024-07-25T09:36:53.000Z</time>
</trkpt>
<trkpt lat="46.1236710" lon="10.5020280">
	<ele>2132.20</ele>
	<time>2024-07-25T09:36:54.000Z</time>
</trkpt>
<trkpt lat="46.1236710" lon="10.5020290">
	<ele>2132.00</ele>
	<time>2024-07-25T09:36:55.000Z</time>
</trkpt>
<trkpt lat="46.1236710" lon="10.5020290">
	<ele>2131.80</ele>
	<time>2024-07-25T09:36:56.000Z</time>
</trkpt>
<trkpt lat="46.1236710" lon="10.5020290">
	<ele>2131.80</ele>
	<time>2024-07-25T09:36:57.000Z</time>
</trkpt>
<trkpt lat="46.1236710" lon="10.5020300">
	<ele>2131.60</ele>
	<time>2024-07-25T09:36:58.000Z</time>
</trkpt>
<trkpt lat="46.1236710" lon="10.5020300">
	<ele>2131.80</ele>
	<time>2024-07-25T09:36:59.000Z</time>
</trkpt>
<trkpt lat="46.1236710" lon="10.5020310">
	<ele>2131.80</ele>
	<time>2024-07-25T09:37:00.000Z</time>
</trkpt>
<trkpt lat="46.1236710" lon="10.5020310">
	<ele>2131.80</ele>
	<time>2024-07-25T09:37:01.000Z</time>
</trkpt>
<trkpt lat="46.1236710" lon="10.5020310">
	<ele>2131.80</ele>
	<time>2024-07-25T09:37:02.000Z</time>
</trkpt>
<trkpt lat="46.1236710" lon="10.5020310">
	<ele>2131.80</ele>
	<time>2024-07-25T09:37:03.000Z</time>
</trkpt>
<trkpt lat="46.1236710" lon="10.5020310">
	<ele>2131.80</ele>
	<time>2024-07-25T09:37:04.000Z</time>
</trkpt>
<trkpt lat="46.1236710" lon="10.5020310">
	<ele>2131.80</ele>
	<time>2024-07-25T09:37:05.000Z</time>
</trkpt>
<trkpt lat="46.1236710" lon="10.5020310">
	<ele>2131.80</ele>
	<time>2024-07-25T09:37:06.000Z</time>
</trkpt>
<trkpt lat="46.1236700" lon="10.5020310">
	<ele>2131.60</ele>
	<time>2024-07-25T09:37:07.000Z</time>
</trkpt>
<trkpt lat="46.1236690" lon="10.5020310">
	<ele>2131.60</ele>
	<time>2024-07-25T09:37:08.000Z</time>
</trkpt>
<trkpt lat="46.1236690" lon="10.5020310">
	<ele>2131.60</ele>
	<time>2024-07-25T09:37:09.000Z</time>
</trkpt>
<trkpt lat="46.1236680" lon="10.5020310">
	<ele>2131.60</ele>
	<time>2024-07-25T09:37:10.000Z</time>
</trkpt>
<trkpt lat="46.1236650" lon="10.5020310">
	<ele>2131.60</ele>
	<time>2024-07-25T09:37:11.000Z</time>
</trkpt>
<trkpt lat="46.1236610" lon="10.5020300">
	<ele>2131.60</ele>
	<time>2024-07-25T09:37:12.000Z</time>
</trkpt>
<trkpt lat="46.1236580" lon="10.5020300">
	<ele>2131.60</ele>
	<time>2024-07-25T09:37:13.000Z</time>
</trkpt>
<trkpt lat="46.1236560" lon="10.5020300">
	<ele>2131.60</ele>
	<time>2024-07-25T09:37:14.000Z</time>
</trkpt>
<trkpt lat="46.1236560" lon="10.5020300">
	<ele>2131.60</ele>
	<time>2024-07-25T09:37:15.000Z</time>
</trkpt>
<trkpt lat="46.1236550" lon="10.5020290">
	<ele>2131.60</ele>
	<time>2024-07-25T09:37:16.000Z</time>
</trkpt>
<trkpt lat="46.1236550" lon="10.5020290">
	<ele>2131.60</ele>
	<time>2024-07-25T09:37:17.000Z</time>
</trkpt>
<trkpt lat="46.1236550" lon="10.5020290">
	<ele>2131.60</ele>
	<time>2024-07-25T09:37:18.000Z</time>
</trkpt>
<trkpt lat="46.1236550" lon="10.5020280">
	<ele>2131.60</ele>
	<time>2024-07-25T09:37:19.000Z</time>
</trkpt>
<trkpt lat="46.1236550" lon="10.5020280">
	<ele>2131.60</ele>
	<time>2024-07-25T09:37:20.000Z</time>
</trkpt>
<trkpt lat="46.1236550" lon="10.5020260">
	<ele>2131.60</ele>
	<time>2024-07-25T09:37:21.000Z</time>
</trkpt>
<trkpt lat="46.1236550" lon="10.5020240">
	<ele>2131.60</ele>
	<time>2024-07-25T09:37:22.000Z</time>
</trkpt>
<trkpt lat="46.1236550" lon="10.5020230">
	<ele>2131.60</ele>
	<time>2024-07-25T09:37:23.000Z</time>
</trkpt>
<trkpt lat="46.1236550" lon="10.5020200">
	<ele>2131.60</ele>
	<time>2024-07-25T09:37:24.000Z</time>
</trkpt>
<trkpt lat="46.1236550" lon="10.5020170">
	<ele>2131.60</ele>
	<time>2024-07-25T09:37:25.000Z</time>
</trkpt>
<trkpt lat="46.1236550" lon="10.5020160">
	<ele>2131.60</ele>
	<time>2024-07-25T09:37:26.000Z</time>
</trkpt>
<trkpt lat="46.1236550" lon="10.5020160">
	<ele>2131.60</ele>
	<time>2024-07-25T09:37:27.000Z</time>
</trkpt>
<trkpt lat="46.1236560" lon="10.5020150">
	<ele>2131.60</ele>
	<time>2024-07-25T09:37:28.000Z</time>
</trkpt>
<trkpt lat="46.1236560" lon="10.5020150">
	<ele>2131.80</ele>
	<time>2024-07-25T09:37:29.000Z</time>
</trkpt>
<trkpt lat="46.1236570" lon="10.5020150">
	<ele>2131.80</ele>
	<time>2024-07-25T09:37:30.000Z</time>
</trkpt>
<trkpt lat="46.1236570" lon="10.5020150">
	<ele>2131.80</ele>
	<time>2024-07-25T09:37:31.000Z</time>
</trkpt>
<trkpt lat="46.1236580" lon="10.5020150">
	<ele>2131.80</ele>
	<time>2024-07-25T09:37:32.000Z</time>
</trkpt>
<trkpt lat="46.1236580" lon="10.5020150">
	<ele>2131.80</ele>
	<time>2024-07-25T09:37:33.000Z</time>
</trkpt>
<trkpt lat="46.1236580" lon="10.5020150">
	<ele>2131.80</ele>
	<time>2024-07-25T09:37:34.000Z</time>
</trkpt>
<trkpt lat="46.1236580" lon="10.5020150">
	<ele>2131.80</ele>
	<time>2024-07-25T09:37:35.000Z</time>
</trkpt>
<trkpt lat="46.1236580" lon="10.5020150">
	<ele>2131.80</ele>
	<time>2024-07-25T09:37:36.000Z</time>
</trkpt>
<trkpt lat="46.1236580" lon="10.5020150">
	<ele>2132.00</ele>
	<time>2024-07-25T09:37:37.000Z</time>
</trkpt>
<trkpt lat="46.1236580" lon="10.5020150">
	<ele>2132.00</ele>
	<time>2024-07-25T09:37:38.000Z</time>
</trkpt>
<trkpt lat="46.1236580" lon="10.5020150">
	<ele>2132.00</ele>
	<time>2024-07-25T09:37:39.000Z</time>
</trkpt>
<trkpt lat="46.1236580" lon="10.5020160">
	<ele>2132.00</ele>
	<time>2024-07-25T09:37:40.000Z</time>
</trkpt>
<trkpt lat="46.1236580" lon="10.5020180">
	<ele>2132.00</ele>
	<time>2024-07-25T09:37:41.000Z</time>
</trkpt>
<trkpt lat="46.1236580" lon="10.5020230">
	<ele>2132.00</ele>
	<time>2024-07-25T09:37:42.000Z</time>
</trkpt>
<trkpt lat="46.1236580" lon="10.5020310">
	<ele>2132.00</ele>
	<time>2024-07-25T09:37:43.000Z</time>
</trkpt>
<trkpt lat="46.1236580" lon="10.5020380">
	<ele>2132.00</ele>
	<time>2024-07-25T09:37:44.000Z</time>
</trkpt>
<trkpt lat="46.1236560" lon="10.5020410">
	<ele>2132.00</ele>
	<time>2024-07-25T09:37:45.000Z</time>
</trkpt>
<trkpt lat="46.1236550" lon="10.5020430">
	<ele>2132.00</ele>
	<time>2024-07-25T09:37:46.000Z</time>
</trkpt>
<trkpt lat="46.1236530" lon="10.5020440">
	<ele>2132.00</ele>
	<time>2024-07-25T09:37:47.000Z</time>
</trkpt>
<trkpt lat="46.1236520" lon="10.5020440">
	<ele>2132.00</ele>
	<time>2024-07-25T09:37:48.000Z</time>
</trkpt>
<trkpt lat="46.1236520" lon="10.5020450">
	<ele>2132.00</ele>
	<time>2024-07-25T09:37:49.000Z</time>
</trkpt>
<trkpt lat="46.1236500" lon="10.5020470">
	<ele>2132.00</ele>
	<time>2024-07-25T09:37:50.000Z</time>
</trkpt>
<trkpt lat="46.1236490" lon="10.5020480">
	<ele>2132.00</ele>
	<time>2024-07-25T09:37:51.000Z</time>
</trkpt>
<trkpt lat="46.1236490" lon="10.5020490">
	<ele>2132.00</ele>
	<time>2024-07-25T09:37:52.000Z</time>
</trkpt>
<trkpt lat="46.1236480" lon="10.5020500">
	<ele>2132.00</ele>
	<time>2024-07-25T09:37:53.000Z</time>
</trkpt>
<trkpt lat="46.1236480" lon="10.5020500">
	<ele>2132.00</ele>
	<time>2024-07-25T09:37:54.000Z</time>
</trkpt>
<trkpt lat="46.1236480" lon="10.5020510">
	<ele>2132.00</ele>
	<time>2024-07-25T09:37:55.000Z</time>
</trkpt>
<trkpt lat="46.1236480" lon="10.5020510">
	<ele>2132.00</ele>
	<time>2024-07-25T09:37:56.000Z</time>
</trkpt>
<trkpt lat="46.1236480" lon="10.5020510">
	<ele>2132.00</ele>
	<time>2024-07-25T09:37:57.000Z</time>
</trkpt>
<trkpt lat="46.1236470" lon="10.5020510">
	<ele>2132.00</ele>
	<time>2024-07-25T09:37:58.000Z</time>
</trkpt>
<trkpt lat="46.1236470" lon="10.5020510">
	<ele>2132.00</ele>
	<time>2024-07-25T09:37:59.000Z</time>
</trkpt>
<trkpt lat="46.1236470" lon="10.5020510">
	<ele>2132.00</ele>
	<time>2024-07-25T09:38:00.000Z</time>
</trkpt>
<trkpt lat="46.1236470" lon="10.5020510">
	<ele>2132.00</ele>
	<time>2024-07-25T09:38:01.000Z</time>
</trkpt>
<trkpt lat="46.1236470" lon="10.5020500">
	<ele>2132.00</ele>
	<time>2024-07-25T09:38:02.000Z</time>
</trkpt>
<trkpt lat="46.1236470" lon="10.5020500">
	<ele>2132.00</ele>
	<time>2024-07-25T09:38:03.000Z</time>
</trkpt>
<trkpt lat="46.1236470" lon="10.5020490">
	<ele>2132.00</ele>
	<time>2024-07-25T09:38:04.000Z</time>
</trkpt>
<trkpt lat="46.1236470" lon="10.5020490">
	<ele>2132.00</ele>
	<time>2024-07-25T09:38:05.000Z</time>
</trkpt>
<trkpt lat="46.1236470" lon="10.5020480">
	<ele>2132.00</ele>
	<time>2024-07-25T09:38:06.000Z</time>
</trkpt>
<trkpt lat="46.1236480" lon="10.5020470">
	<ele>2132.00</ele>
	<time>2024-07-25T09:38:07.000Z</time>
</trkpt>
<trkpt lat="46.1236480" lon="10.5020470">
	<ele>2132.00</ele>
	<time>2024-07-25T09:38:08.000Z</time>
</trkpt>
<trkpt lat="46.1236480" lon="10.5020460">
	<ele>2132.00</ele>
	<time>2024-07-25T09:38:09.000Z</time>
</trkpt>
<trkpt lat="46.1236480" lon="10.5020460">
	<ele>2132.00</ele>
	<time>2024-07-25T09:38:10.000Z</time>
</trkpt>
<trkpt lat="46.1236480" lon="10.5020450">
	<ele>2132.00</ele>
	<time>2024-07-25T09:38:11.000Z</time>
</trkpt>
<trkpt lat="46.1236480" lon="10.5020430">
	<ele>2132.00</ele>
	<time>2024-07-25T09:38:12.000Z</time>
</trkpt>
<trkpt lat="46.1236480" lon="10.5020420">
	<ele>2132.00</ele>
	<time>2024-07-25T09:38:13.000Z</time>
</trkpt>
<trkpt lat="46.1236480" lon="10.5020410">
	<ele>2132.00</ele>
	<time>2024-07-25T09:38:14.000Z</time>
</trkpt>
<trkpt lat="46.1236490" lon="10.5020410">
	<ele>2132.00</ele>
	<time>2024-07-25T09:38:15.000Z</time>
</trkpt>
<trkpt lat="46.1236490" lon="10.5020400">
	<ele>2132.00</ele>
	<time>2024-07-25T09:38:16.000Z</time>
</trkpt>
<trkpt lat="46.1236490" lon="10.5020400">
	<ele>2132.00</ele>
	<time>2024-07-25T09:38:17.000Z</time>
</trkpt>
<trkpt lat="46.1236480" lon="10.5020380">
	<ele>2132.00</ele>
	<time>2024-07-25T09:38:18.000Z</time>
</trkpt>
<trkpt lat="46.1236490" lon="10.5020350">
	<ele>2132.00</ele>
	<time>2024-07-25T09:38:19.000Z</time>
</trkpt>
<trkpt lat="46.1236490" lon="10.5020330">
	<ele>2132.00</ele>
	<time>2024-07-25T09:38:20.000Z</time>
</trkpt>
<trkpt lat="46.1236490" lon="10.5020320">
	<ele>2132.00</ele>
	<time>2024-07-25T09:38:21.000Z</time>
</trkpt>
<trkpt lat="46.1236490" lon="10.5020290">
	<ele>2132.00</ele>
	<time>2024-07-25T09:38:22.000Z</time>
</trkpt>
<trkpt lat="46.1236490" lon="10.5020260">
	<ele>2132.00</ele>
	<time>2024-07-25T09:38:23.000Z</time>
</trkpt>
<trkpt lat="46.1236490" lon="10.5020210">
	<ele>2132.00</ele>
	<time>2024-07-25T09:38:24.000Z</time>
</trkpt>
<trkpt lat="46.1236490" lon="10.5020150">
	<ele>2132.00</ele>
	<time>2024-07-25T09:38:25.000Z</time>
</trkpt>
<trkpt lat="46.1236490" lon="10.5020110">
	<ele>2132.00</ele>
	<time>2024-07-25T09:38:26.000Z</time>
</trkpt>
<trkpt lat="46.1236490" lon="10.5020070">
	<ele>2132.00</ele>
	<time>2024-07-25T09:38:27.000Z</time>
</trkpt>
<trkpt lat="46.1236500" lon="10.5020040">
	<ele>2132.00</ele>
	<time>2024-07-25T09:38:28.000Z</time>
</trkpt>
<trkpt lat="46.1236500" lon="10.5020010">
	<ele>2132.00</ele>
	<time>2024-07-25T09:38:29.000Z</time>
</trkpt>
<trkpt lat="46.1236510" lon="10.5019990">
	<ele>2132.00</ele>
	<time>2024-07-25T09:38:30.000Z</time>
</trkpt>
<trkpt lat="46.1236510" lon="10.5019980">
	<ele>2132.00</ele>
	<time>2024-07-25T09:38:31.000Z</time>
</trkpt>
<trkpt lat="46.1236510" lon="10.5019960">
	<ele>2132.00</ele>
	<time>2024-07-25T09:38:32.000Z</time>
</trkpt>
<trkpt lat="46.1236520" lon="10.5019950">
	<ele>2132.00</ele>
	<time>2024-07-25T09:38:33.000Z</time>
</trkpt>
<trkpt lat="46.1236520" lon="10.5019930">
	<ele>2132.00</ele>
	<time>2024-07-25T09:38:34.000Z</time>
</trkpt>
<trkpt lat="46.1236530" lon="10.5019920">
	<ele>2132.00</ele>
	<time>2024-07-25T09:38:35.000Z</time>
</trkpt>
<trkpt lat="46.1236550" lon="10.5019890">
	<ele>2132.00</ele>
	<time>2024-07-25T09:38:36.000Z</time>
</trkpt>
<trkpt lat="46.1236570" lon="10.5019860">
	<ele>2132.00</ele>
	<time>2024-07-25T09:38:37.000Z</time>
</trkpt>
<trkpt lat="46.1236600" lon="10.5019820">
	<ele>2132.00</ele>
	<time>2024-07-25T09:38:38.000Z</time>
</trkpt>
<trkpt lat="46.1236630" lon="10.5019780">
	<ele>2132.00</ele>
	<time>2024-07-25T09:38:39.000Z</time>
</trkpt>
<trkpt lat="46.1236660" lon="10.5019750">
	<ele>2132.00</ele>
	<time>2024-07-25T09:38:40.000Z</time>
</trkpt>
<trkpt lat="46.1236700" lon="10.5019730">
	<ele>2132.00</ele>
	<time>2024-07-25T09:38:41.000Z</time>
</trkpt>
<trkpt lat="46.1236740" lon="10.5019700">
	<ele>2132.00</ele>
	<time>2024-07-25T09:38:42.000Z</time>
</trkpt>
<trkpt lat="46.1236780" lon="10.5019680">
	<ele>2132.00</ele>
	<time>2024-07-25T09:38:43.000Z</time>
</trkpt>
<trkpt lat="46.1236820" lon="10.5019670">
	<ele>2132.00</ele>
	<time>2024-07-25T09:38:44.000Z</time>
</trkpt>
<trkpt lat="46.1236860" lon="10.5019660">
	<ele>2132.00</ele>
	<time>2024-07-25T09:38:45.000Z</time>
</trkpt>
<trkpt lat="46.1236910" lon="10.5019650">
	<ele>2132.00</ele>
	<time>2024-07-25T09:38:46.000Z</time>
</trkpt>
<trkpt lat="46.1236950" lon="10.5019640">
	<ele>2132.00</ele>
	<time>2024-07-25T09:38:47.000Z</time>
</trkpt>
<trkpt lat="46.1237000" lon="10.5019630">
	<ele>2132.00</ele>
	<time>2024-07-25T09:38:48.000Z</time>
</trkpt>
<trkpt lat="46.1237050" lon="10.5019630">
	<ele>2132.00</ele>
	<time>2024-07-25T09:38:49.000Z</time>
</trkpt>
<trkpt lat="46.1237090" lon="10.5019620">
	<ele>2132.00</ele>
	<time>2024-07-25T09:38:50.000Z</time>
</trkpt>
<trkpt lat="46.1237140" lon="10.5019620">
	<ele>2132.00</ele>
	<time>2024-07-25T09:38:51.000Z</time>
</trkpt>
<trkpt lat="46.1237180" lon="10.5019620">
	<ele>2132.00</ele>
	<time>2024-07-25T09:38:52.000Z</time>
</trkpt>
<trkpt lat="46.1237220" lon="10.5019610">
	<ele>2132.00</ele>
	<time>2024-07-25T09:38:53.000Z</time>
</trkpt>
<trkpt lat="46.1237250" lon="10.5019610">
	<ele>2132.00</ele>
	<time>2024-07-25T09:38:54.000Z</time>
</trkpt>
<trkpt lat="46.1237280" lon="10.5019610">
	<ele>2132.00</ele>
	<time>2024-07-25T09:38:55.000Z</time>
</trkpt>
<trkpt lat="46.1237300" lon="10.5019610">
	<ele>2132.00</ele>
	<time>2024-07-25T09:38:56.000Z</time>
</trkpt>
<trkpt lat="46.1237320" lon="10.5019610">
	<ele>2132.00</ele>
	<time>2024-07-25T09:38:57.000Z</time>
</trkpt>
<trkpt lat="46.1237330" lon="10.5019610">
	<ele>2132.00</ele>
	<time>2024-07-25T09:38:58.000Z</time>
</trkpt>
<trkpt lat="46.1237350" lon="10.5019610">
	<ele>2132.00</ele>
	<time>2024-07-25T09:38:59.000Z</time>
</trkpt>
<trkpt lat="46.1237360" lon="10.5019610">
	<ele>2132.00</ele>
	<time>2024-07-25T09:39:00.000Z</time>
</trkpt>
<trkpt lat="46.1237370" lon="10.5019610">
	<ele>2132.00</ele>
	<time>2024-07-25T09:39:01.000Z</time>
</trkpt>
<trkpt lat="46.1237380" lon="10.5019610">
	<ele>2132.00</ele>
	<time>2024-07-25T09:39:02.000Z</time>
</trkpt>
<trkpt lat="46.1237390" lon="10.5019610">
	<ele>2132.00</ele>
	<time>2024-07-25T09:39:03.000Z</time>
</trkpt>
<trkpt lat="46.1237400" lon="10.5019620">
	<ele>2132.00</ele>
	<time>2024-07-25T09:39:04.000Z</time>
</trkpt>
<trkpt lat="46.1237400" lon="10.5019620">
	<ele>2132.00</ele>
	<time>2024-07-25T09:39:05.000Z</time>
</trkpt>
<trkpt lat="46.1237410" lon="10.5019620">
	<ele>2132.00</ele>
	<time>2024-07-25T09:39:06.000Z</time>
</trkpt>
<trkpt lat="46.1237410" lon="10.5019620">
	<ele>2132.00</ele>
	<time>2024-07-25T09:39:07.000Z</time>
</trkpt>
<trkpt lat="46.1237420" lon="10.5019630">
	<ele>2132.00</ele>
	<time>2024-07-25T09:39:08.000Z</time>
</trkpt>
<trkpt lat="46.1237420" lon="10.5019640">
	<ele>2132.00</ele>
	<time>2024-07-25T09:39:09.000Z</time>
</trkpt>
<trkpt lat="46.1237430" lon="10.5019650">
	<ele>2132.00</ele>
	<time>2024-07-25T09:39:10.000Z</time>
</trkpt>
<trkpt lat="46.1237430" lon="10.5019670">
	<ele>2132.00</ele>
	<time>2024-07-25T09:39:11.000Z</time>
</trkpt>
<trkpt lat="46.1237430" lon="10.5019670">
	<ele>2132.00</ele>
	<time>2024-07-25T09:39:12.000Z</time>
</trkpt>
<trkpt lat="46.1237440" lon="10.5019680">
	<ele>2132.00</ele>
	<time>2024-07-25T09:39:13.000Z</time>
</trkpt>
<trkpt lat="46.1237440" lon="10.5019690">
	<ele>2132.00</ele>
	<time>2024-07-25T09:39:14.000Z</time>
</trkpt>
<trkpt lat="46.1237440" lon="10.5019700">
	<ele>2132.00</ele>
	<time>2024-07-25T09:39:15.000Z</time>
</trkpt>
<trkpt lat="46.1237440" lon="10.5019710">
	<ele>2132.00</ele>
	<time>2024-07-25T09:39:16.000Z</time>
</trkpt>
<trkpt lat="46.1237450" lon="10.5019710">
	<ele>2132.00</ele>
	<time>2024-07-25T09:39:17.000Z</time>
</trkpt>
<trkpt lat="46.1237450" lon="10.5019720">
	<ele>2132.00</ele>
	<time>2024-07-25T09:39:18.000Z</time>
</trkpt>
<trkpt lat="46.1237450" lon="10.5019720">
	<ele>2132.00</ele>
	<time>2024-07-25T09:39:19.000Z</time>
</trkpt>
<trkpt lat="46.1237450" lon="10.5019720">
	<ele>2132.00</ele>
	<time>2024-07-25T09:39:20.000Z</time>
</trkpt>
<trkpt lat="46.1237450" lon="10.5019720">
	<ele>2132.00</ele>
	<time>2024-07-25T09:39:21.000Z</time>
</trkpt>
<trkpt lat="46.1237450" lon="10.5019720">
	<ele>2132.00</ele>
	<time>2024-07-25T09:39:22.000Z</time>
</trkpt>
<trkpt lat="46.1237450" lon="10.5019730">
	<ele>2132.00</ele>
	<time>2024-07-25T09:39:23.000Z</time>
</trkpt>
<trkpt lat="46.1237450" lon="10.5019730">
	<ele>2132.00</ele>
	<time>2024-07-25T09:39:24.000Z</time>
</trkpt>
<trkpt lat="46.1237450" lon="10.5019730">
	<ele>2132.00</ele>
	<time>2024-07-25T09:39:25.000Z</time>
</trkpt>
<trkpt lat="46.1237450" lon="10.5019730">
	<ele>2132.00</ele>
	<time>2024-07-25T09:39:26.000Z</time>
</trkpt>
<trkpt lat="46.1237460" lon="10.5019730">
	<ele>2132.00</ele>
	<time>2024-07-25T09:39:27.000Z</time>
</trkpt>
<trkpt lat="46.1237460" lon="10.5019730">
	<ele>2132.00</ele>
	<time>2024-07-25T09:39:28.000Z</time>
</trkpt>
<trkpt lat="46.1237460" lon="10.5019730">
	<ele>2132.00</ele>
	<time>2024-07-25T09:39:29.000Z</time>
</trkpt>
<trkpt lat="46.1237460" lon="10.5019730">
	<ele>2132.00</ele>
	<time>2024-07-25T09:39:30.000Z</time>
</trkpt>
<trkpt lat="46.1237460" lon="10.5019730">
	<ele>2132.00</ele>
	<time>2024-07-25T09:39:31.000Z</time>
</trkpt>
<trkpt lat="46.1237460" lon="10.5019730">
	<ele>2132.00</ele>
	<time>2024-07-25T09:39:32.000Z</time>
</trkpt>
<trkpt lat="46.1237460" lon="10.5019730">
	<ele>2132.00</ele>
	<time>2024-07-25T09:39:33.000Z</time>
</trkpt>
<trkpt lat="46.1237460" lon="10.5019720">
	<ele>2132.00</ele>
	<time>2024-07-25T09:39:34.000Z</time>
</trkpt>
<trkpt lat="46.1237470" lon="10.5019720">
	<ele>2132.00</ele>
	<time>2024-07-25T09:39:35.000Z</time>
</trkpt>
<trkpt lat="46.1237470" lon="10.5019720">
	<ele>2132.00</ele>
	<time>2024-07-25T09:39:36.000Z</time>
</trkpt>
<trkpt lat="46.1237470" lon="10.5019730">
	<ele>2132.00</ele>
	<time>2024-07-25T09:39:37.000Z</time>
</trkpt>
<trkpt lat="46.1237470" lon="10.5019730">
	<ele>2132.00</ele>
	<time>2024-07-25T09:39:38.000Z</time>
</trkpt>
<trkpt lat="46.1237470" lon="10.5019730">
	<ele>2132.00</ele>
	<time>2024-07-25T09:39:39.000Z</time>
</trkpt>
<trkpt lat="46.1237470" lon="10.5019720">
	<ele>2132.00</ele>
	<time>2024-07-25T09:39:40.000Z</time>
</trkpt>
<trkpt lat="46.1237470" lon="10.5019720">
	<ele>2132.00</ele>
	<time>2024-07-25T09:39:41.000Z</time>
</trkpt>
<trkpt lat="46.1237470" lon="10.5019720">
	<ele>2132.00</ele>
	<time>2024-07-25T09:39:42.000Z</time>
</trkpt>
<trkpt lat="46.1237470" lon="10.5019720">
	<ele>2132.00</ele>
	<time>2024-07-25T09:39:43.000Z</time>
</trkpt>
<trkpt lat="46.1237480" lon="10.5019720">
	<ele>2132.00</ele>
	<time>2024-07-25T09:39:44.000Z</time>
</trkpt>
<trkpt lat="46.1237480" lon="10.5019720">
	<ele>2132.00</ele>
	<time>2024-07-25T09:39:45.000Z</time>
</trkpt>
<trkpt lat="46.1237480" lon="10.5019720">
	<ele>2132.00</ele>
	<time>2024-07-25T09:39:46.000Z</time>
</trkpt>
<trkpt lat="46.1237480" lon="10.5019730">
	<ele>2132.00</ele>
	<time>2024-07-25T09:39:47.000Z</time>
</trkpt>
<trkpt lat="46.1237480" lon="10.5019730">
	<ele>2132.00</ele>
	<time>2024-07-25T09:39:48.000Z</time>
</trkpt>
<trkpt lat="46.1237480" lon="10.5019720">
	<ele>2132.00</ele>
	<time>2024-07-25T09:39:49.000Z</time>
</trkpt>
<trkpt lat="46.1237480" lon="10.5019730">
	<ele>2132.00</ele>
	<time>2024-07-25T09:39:50.000Z</time>
</trkpt>
<trkpt lat="46.1237480" lon="10.5019720">
	<ele>2132.00</ele>
	<time>2024-07-25T09:39:51.000Z</time>
</trkpt>
<trkpt lat="46.1237480" lon="10.5019720">
	<ele>2132.00</ele>
	<time>2024-07-25T09:39:52.000Z</time>
</trkpt>
<trkpt lat="46.1237480" lon="10.5019730">
	<ele>2132.00</ele>
	<time>2024-07-25T09:39:53.000Z</time>
</trkpt>
<trkpt lat="46.1237480" lon="10.5019730">
	<ele>2132.00</ele>
	<time>2024-07-25T09:39:54.000Z</time>
</trkpt>
<trkpt lat="46.1237480" lon="10.5019730">
	<ele>2132.00</ele>
	<time>2024-07-25T09:39:55.000Z</time>
</trkpt>
<trkpt lat="46.1237480" lon="10.5019730">
	<ele>2132.00</ele>
	<time>2024-07-25T09:39:56.000Z</time>
</trkpt>
<trkpt lat="46.1237480" lon="10.5019730">
	<ele>2132.00</ele>
	<time>2024-07-25T09:39:57.000Z</time>
</trkpt>
<trkpt lat="46.1237480" lon="10.5019730">
	<ele>2132.00</ele>
	<time>2024-07-25T09:39:58.000Z</time>
</trkpt>
<trkpt lat="46.1237480" lon="10.5019730">
	<ele>2132.00</ele>
	<time>2024-07-25T09:39:59.000Z</time>
</trkpt>
<trkpt lat="46.1237480" lon="10.5019730">
	<ele>2132.00</ele>
	<time>2024-07-25T09:40:00.000Z</time>
</trkpt>
<trkpt lat="46.1237480" lon="10.5019730">
	<ele>2132.00</ele>
	<time>2024-07-25T09:40:01.000Z</time>
</trkpt>
<trkpt lat="46.1237480" lon="10.5019730">
	<ele>2132.00</ele>
	<time>2024-07-25T09:40:02.000Z</time>
</trkpt>
<trkpt lat="46.1237480" lon="10.5019740">
	<ele>2132.00</ele>
	<time>2024-07-25T09:40:03.000Z</time>
</trkpt>
<trkpt lat="46.1237480" lon="10.5019740">
	<ele>2132.00</ele>
	<time>2024-07-25T09:40:04.000Z</time>
</trkpt>
<trkpt lat="46.1237480" lon="10.5019740">
	<ele>2132.00</ele>
	<time>2024-07-25T09:40:05.000Z</time>
</trkpt>
<trkpt lat="46.1237480" lon="10.5019740">
	<ele>2132.00</ele>
	<time>2024-07-25T09:40:06.000Z</time>
</trkpt>
<trkpt lat="46.1237490" lon="10.5019730">
	<ele>2132.00</ele>
	<time>2024-07-25T09:40:07.000Z</time>
</trkpt>
<trkpt lat="46.1237490" lon="10.5019730">
	<ele>2132.00</ele>
	<time>2024-07-25T09:40:08.000Z</time>
</trkpt>
<trkpt lat="46.1237480" lon="10.5019730">
	<ele>2132.00</ele>
	<time>2024-07-25T09:40:09.000Z</time>
</trkpt>
<trkpt lat="46.1237490" lon="10.5019730">
	<ele>2132.00</ele>
	<time>2024-07-25T09:40:10.000Z</time>
</trkpt>
<trkpt lat="46.1237490" lon="10.5019730">
	<ele>2132.00</ele>
	<time>2024-07-25T09:40:11.000Z</time>
</trkpt>
<trkpt lat="46.1237490" lon="10.5019740">
	<ele>2132.00</ele>
	<time>2024-07-25T09:40:12.000Z</time>
</trkpt>
<trkpt lat="46.1237490" lon="10.5019740">
	<ele>2132.00</ele>
	<time>2024-07-25T09:40:13.000Z</time>
</trkpt>
<trkpt lat="46.1237490" lon="10.5019740">
	<ele>2132.00</ele>
	<time>2024-07-25T09:40:14.000Z</time>
</trkpt>
<trkpt lat="46.1237490" lon="10.5019740">
	<ele>2132.00</ele>
	<time>2024-07-25T09:40:15.000Z</time>
</trkpt>
<trkpt lat="46.1237490" lon="10.5019740">
	<ele>2132.00</ele>
	<time>2024-07-25T09:40:16.000Z</time>
</trkpt>
<trkpt lat="46.1237490" lon="10.5019730">
	<ele>2132.00</ele>
	<time>2024-07-25T09:40:17.000Z</time>
</trkpt>
<trkpt lat="46.1237490" lon="10.5019730">
	<ele>2132.00</ele>
	<time>2024-07-25T09:40:18.000Z</time>
</trkpt>
<trkpt lat="46.1237490" lon="10.5019730">
	<ele>2132.00</ele>
	<time>2024-07-25T09:40:19.000Z</time>
</trkpt>
<trkpt lat="46.1237490" lon="10.5019730">
	<ele>2132.00</ele>
	<time>2024-07-25T09:40:20.000Z</time>
</trkpt>
<trkpt lat="46.1237490" lon="10.5019730">
	<ele>2132.00</ele>
	<time>2024-07-25T09:40:21.000Z</time>
</trkpt>
<trkpt lat="46.1237490" lon="10.5019740">
	<ele>2132.00</ele>
	<time>2024-07-25T09:40:22.000Z</time>
</trkpt>
<trkpt lat="46.1237490" lon="10.5019730">
	<ele>2132.00</ele>
	<time>2024-07-25T09:40:23.000Z</time>
</trkpt>
<trkpt lat="46.1237490" lon="10.5019730">
	<ele>2132.00</ele>
	<time>2024-07-25T09:40:24.000Z</time>
</trkpt>
<trkpt lat="46.1237490" lon="10.5019730">
	<ele>2132.00</ele>
	<time>2024-07-25T09:40:25.000Z</time>
</trkpt>
<trkpt lat="46.1237490" lon="10.5019730">
	<ele>2132.00</ele>
	<time>2024-07-25T09:40:26.000Z</time>
</trkpt>
<trkpt lat="46.1237490" lon="10.5019730">
	<ele>2132.00</ele>
	<time>2024-07-25T09:40:27.000Z</time>
</trkpt>
<trkpt lat="46.1237490" lon="10.5019730">
	<ele>2132.00</ele>
	<time>2024-07-25T09:40:28.000Z</time>
</trkpt>
<trkpt lat="46.1237490" lon="10.5019730">
	<ele>2132.00</ele>
	<time>2024-07-25T09:40:29.000Z</time>
</trkpt>
<trkpt lat="46.1237490" lon="10.5019730">
	<ele>2132.00</ele>
	<time>2024-07-25T09:40:30.000Z</time>
</trkpt>
<trkpt lat="46.1237490" lon="10.5019730">
	<ele>2132.00</ele>
	<time>2024-07-25T09:40:31.000Z</time>
</trkpt>
<trkpt lat="46.1237490" lon="10.5019730">
	<ele>2132.00</ele>
	<time>2024-07-25T09:40:32.000Z</time>
</trkpt>
<trkpt lat="46.1237490" lon="10.5019730">
	<ele>2132.00</ele>
	<time>2024-07-25T09:40:33.000Z</time>
</trkpt>
<trkpt lat="46.1237490" lon="10.5019730">
	<ele>2132.00</ele>
	<time>2024-07-25T09:40:34.000Z</time>
</trkpt>
<trkpt lat="46.1237490" lon="10.5019730">
	<ele>2132.00</ele>
	<time>2024-07-25T09:40:35.000Z</time>
</trkpt>
<trkpt lat="46.1237490" lon="10.5019730">
	<ele>2132.00</ele>
	<time>2024-07-25T09:40:36.000Z</time>
</trkpt>
<trkpt lat="46.1237490" lon="10.5019730">
	<ele>2132.00</ele>
	<time>2024-07-25T09:40:37.000Z</time>
</trkpt>
<trkpt lat="46.1237490" lon="10.5019730">
	<ele>2132.00</ele>
	<time>2024-07-25T09:40:38.000Z</time>
</trkpt>
<trkpt lat="46.1237490" lon="10.5019730">
	<ele>2132.00</ele>
	<time>2024-07-25T09:40:39.000Z</time>
</trkpt>
<trkpt lat="46.1237490" lon="10.5019730">
	<ele>2132.00</ele>
	<time>2024-07-25T09:40:40.000Z</time>
</trkpt>
<trkpt lat="46.1237490" lon="10.5019730">
	<ele>2132.00</ele>
	<time>2024-07-25T09:40:41.000Z</time>
</trkpt>
<trkpt lat="46.1237490" lon="10.5019730">
	<ele>2132.00</ele>
	<time>2024-07-25T09:40:42.000Z</time>
</trkpt>
<trkpt lat="46.1237490" lon="10.5019730">
	<ele>2132.00</ele>
	<time>2024-07-25T09:40:43.000Z</time>
</trkpt>
<trkpt lat="46.1237490" lon="10.5019740">
	<ele>2132.00</ele>
	<time>2024-07-25T09:40:44.000Z</time>
</trkpt>
<trkpt lat="46.1237490" lon="10.5019740">
	<ele>2132.00</ele>
	<time>2024-07-25T09:40:45.000Z</time>
</trkpt>
<trkpt lat="46.1237490" lon="10.5019740">
	<ele>2132.00</ele>
	<time>2024-07-25T09:40:46.000Z</time>
</trkpt>
<trkpt lat="46.1237490" lon="10.5019740">
	<ele>2132.00</ele>
	<time>2024-07-25T09:40:47.000Z</time>
</trkpt>
<trkpt lat="46.1237490" lon="10.5019740">
	<ele>2132.00</ele>
	<time>2024-07-25T09:40:48.000Z</time>
</trkpt>
<trkpt lat="46.1237490" lon="10.5019740">
	<ele>2132.00</ele>
	<time>2024-07-25T09:40:49.000Z</time>
</trkpt>
<trkpt lat="46.1237490" lon="10.5019740">
	<ele>2132.00</ele>
	<time>2024-07-25T09:40:50.000Z</time>
</trkpt>
<trkpt lat="46.1237490" lon="10.5019740">
	<ele>2132.00</ele>
	<time>2024-07-25T09:40:51.000Z</time>
</trkpt>
<trkpt lat="46.1237490" lon="10.5019750">
	<ele>2132.00</ele>
	<time>2024-07-25T09:40:52.000Z</time>
</trkpt>
<trkpt lat="46.1237490" lon="10.5019750">
	<ele>2132.00</ele>
	<time>2024-07-25T09:40:53.000Z</time>
</trkpt>
<trkpt lat="46.1237490" lon="10.5019750">
	<ele>2132.00</ele>
	<time>2024-07-25T09:40:54.000Z</time>
</trkpt>
<trkpt lat="46.1237490" lon="10.5019750">
	<ele>2132.00</ele>
	<time>2024-07-25T09:40:55.000Z</time>
</trkpt>
<trkpt lat="46.1237490" lon="10.5019740">
	<ele>2132.00</ele>
	<time>2024-07-25T09:40:56.000Z</time>
</trkpt>
<trkpt lat="46.1237490" lon="10.5019750">
	<ele>2132.00</ele>
	<time>2024-07-25T09:40:57.000Z</time>
</trkpt>
<trkpt lat="46.1237490" lon="10.5019750">
	<ele>2132.00</ele>
	<time>2024-07-25T09:40:58.000Z</time>
</trkpt>
<trkpt lat="46.1237490" lon="10.5019750">
	<ele>2132.00</ele>
	<time>2024-07-25T09:40:59.000Z</time>
</trkpt>
<trkpt lat="46.1237490" lon="10.5019750">
	<ele>2132.00</ele>
	<time>2024-07-25T09:41:00.000Z</time>
</trkpt>
<trkpt lat="46.1237490" lon="10.5019750">
	<ele>2132.00</ele>
	<time>2024-07-25T09:41:01.000Z</time>
</trkpt>
<trkpt lat="46.1237490" lon="10.5019750">
	<ele>2132.00</ele>
	<time>2024-07-25T09:41:02.000Z</time>
</trkpt>
<trkpt lat="46.1237490" lon="10.5019750">
	<ele>2132.00</ele>
	<time>2024-07-25T09:41:03.000Z</time>
</trkpt>
<trkpt lat="46.1237490" lon="10.5019750">
	<ele>2132.00</ele>
	<time>2024-07-25T09:41:04.000Z</time>
</trkpt>
<trkpt lat="46.1237490" lon="10.5019750">
	<ele>2132.00</ele>
	<time>2024-07-25T09:41:05.000Z</time>
</trkpt>
<trkpt lat="46.1237490" lon="10.5019750">
	<ele>2132.00</ele>
	<time>2024-07-25T09:41:06.000Z</time>
</trkpt>
<trkpt lat="46.1237490" lon="10.5019750">
	<ele>2132.00</ele>
	<time>2024-07-25T09:41:07.000Z</time>
</trkpt>
<trkpt lat="46.1237490" lon="10.5019750">
	<ele>2132.00</ele>
	<time>2024-07-25T09:41:08.000Z</time>
</trkpt>
<trkpt lat="46.1237490" lon="10.5019750">
	<ele>2132.00</ele>
	<time>2024-07-25T09:41:09.000Z</time>
</trkpt>
<trkpt lat="46.1237490" lon="10.5019750">
	<ele>2132.00</ele>
	<time>2024-07-25T09:41:10.000Z</time>
</trkpt>
<trkpt lat="46.1237490" lon="10.5019750">
	<ele>2132.00</ele>
	<time>2024-07-25T09:41:11.000Z</time>
</trkpt>
<trkpt lat="46.1237490" lon="10.5019750">
	<ele>2132.00</ele>
	<time>2024-07-25T09:41:12.000Z</time>
</trkpt>
<trkpt lat="46.1237490" lon="10.5019750">
	<ele>2132.00</ele>
	<time>2024-07-25T09:41:13.000Z</time>
</trkpt>
<trkpt lat="46.1237490" lon="10.5019750">
	<ele>2132.00</ele>
	<time>2024-07-25T09:41:14.000Z</time>
</trkpt>
<trkpt lat="46.1237490" lon="10.5019750">
	<ele>2132.00</ele>
	<time>2024-07-25T09:41:15.000Z</time>
</trkpt>
<trkpt lat="46.1237490" lon="10.5019750">
	<ele>2132.00</ele>
	<time>2024-07-25T09:41:16.000Z</time>
</trkpt>
<trkpt lat="46.1237490" lon="10.5019750">
	<ele>2132.00</ele>
	<time>2024-07-25T09:41:17.000Z</time>
</trkpt>
<trkpt lat="46.1237490" lon="10.5019750">
	<ele>2132.00</ele>
	<time>2024-07-25T09:41:18.000Z</time>
</trkpt>
<trkpt lat="46.1237490" lon="10.5019750">
	<ele>2132.00</ele>
	<time>2024-07-25T09:41:19.000Z</time>
</trkpt>
<trkpt lat="46.1237490" lon="10.5019760">
	<ele>2132.00</ele>
	<time>2024-07-25T09:41:20.000Z</time>
</trkpt>
<trkpt lat="46.1237490" lon="10.5019760">
	<ele>2132.00</ele>
	<time>2024-07-25T09:41:21.000Z</time>
</trkpt>
<trkpt lat="46.1237500" lon="10.5019760">
	<ele>2132.00</ele>
	<time>2024-07-25T09:41:22.000Z</time>
</trkpt>
<trkpt lat="46.1237500" lon="10.5019750">
	<ele>2132.00</ele>
	<time>2024-07-25T09:41:23.000Z</time>
</trkpt>
<trkpt lat="46.1237500" lon="10.5019750">
	<ele>2132.00</ele>
	<time>2024-07-25T09:41:24.000Z</time>
</trkpt>
<trkpt lat="46.1237500" lon="10.5019760">
	<ele>2132.00</ele>
	<time>2024-07-25T09:41:25.000Z</time>
</trkpt>
<trkpt lat="46.1237500" lon="10.5019760">
	<ele>2132.00</ele>
	<time>2024-07-25T09:41:26.000Z</time>
</trkpt>
<trkpt lat="46.1237500" lon="10.5019760">
	<ele>2132.00</ele>
	<time>2024-07-25T09:41:27.000Z</time>
</trkpt>
<trkpt lat="46.1237500" lon="10.5019760">
	<ele>2132.00</ele>
	<time>2024-07-25T09:41:28.000Z</time>
</trkpt>
<trkpt lat="46.1237500" lon="10.5019760">
	<ele>2132.00</ele>
	<time>2024-07-25T09:41:29.000Z</time>
</trkpt>
<trkpt lat="46.1237500" lon="10.5019760">
	<ele>2132.00</ele>
	<time>2024-07-25T09:41:30.000Z</time>
</trkpt>
<trkpt lat="46.1237500" lon="10.5019760">
	<ele>2132.00</ele>
	<time>2024-07-25T09:41:31.000Z</time>
</trkpt>
<trkpt lat="46.1237500" lon="10.5019760">
	<ele>2132.00</ele>
	<time>2024-07-25T09:41:32.000Z</time>
</trkpt>
<trkpt lat="46.1237500" lon="10.5019760">
	<ele>2132.00</ele>
	<time>2024-07-25T09:41:33.000Z</time>
</trkpt>
<trkpt lat="46.1237500" lon="10.5019760">
	<ele>2132.00</ele>
	<time>2024-07-25T09:41:34.000Z</time>
</trkpt>
<trkpt lat="46.1237500" lon="10.5019760">
	<ele>2132.00</ele>
	<time>2024-07-25T09:41:35.000Z</time>
</trkpt>
<trkpt lat="46.1237500" lon="10.5019760">
	<ele>2132.00</ele>
	<time>2024-07-25T09:41:36.000Z</time>
</trkpt>
<trkpt lat="46.1237500" lon="10.5019760">
	<ele>2132.00</ele>
	<time>2024-07-25T09:41:37.000Z</time>
</trkpt>
<trkpt lat="46.1237500" lon="10.5019770">
	<ele>2132.00</ele>
	<time>2024-07-25T09:41:38.000Z</time>
</trkpt>
<trkpt lat="46.1237500" lon="10.5019760">
	<ele>2132.00</ele>
	<time>2024-07-25T09:41:39.000Z</time>
</trkpt>
<trkpt lat="46.1237500" lon="10.5019760">
	<ele>2132.00</ele>
	<time>2024-07-25T09:41:40.000Z</time>
</trkpt>
<trkpt lat="46.1237500" lon="10.5019760">
	<ele>2132.00</ele>
	<time>2024-07-25T09:41:41.000Z</time>
</trkpt>
<trkpt lat="46.1237500" lon="10.5019760">
	<ele>2132.00</ele>
	<time>2024-07-25T09:41:42.000Z</time>
</trkpt>
<trkpt lat="46.1237500" lon="10.5019760">
	<ele>2132.00</ele>
	<time>2024-07-25T09:41:43.000Z</time>
</trkpt>
<trkpt lat="46.1237500" lon="10.5019760">
	<ele>2132.00</ele>
	<time>2024-07-25T09:41:44.000Z</time>
</trkpt>
<trkpt lat="46.1237500" lon="10.5019760">
	<ele>2132.00</ele>
	<time>2024-07-25T09:41:45.000Z</time>
</trkpt>
<trkpt lat="46.1237500" lon="10.5019760">
	<ele>2132.00</ele>
	<time>2024-07-25T09:41:46.000Z</time>
</trkpt>
<trkpt lat="46.1237500" lon="10.5019760">
	<ele>2132.00</ele>
	<time>2024-07-25T09:41:47.000Z</time>
</trkpt>
<trkpt lat="46.1237500" lon="10.5019760">
	<ele>2132.00</ele>
	<time>2024-07-25T09:41:48.000Z</time>
</trkpt>
<trkpt lat="46.1237500" lon="10.5019760">
	<ele>2132.00</ele>
	<time>2024-07-25T09:41:49.000Z</time>
</trkpt>
<trkpt lat="46.1237500" lon="10.5019760">
	<ele>2132.00</ele>
	<time>2024-07-25T09:41:50.000Z</time>
</trkpt>
<trkpt lat="46.1237500" lon="10.5019760">
	<ele>2132.00</ele>
	<time>2024-07-25T09:41:51.000Z</time>
</trkpt>
<trkpt lat="46.1237500" lon="10.5019760">
	<ele>2132.00</ele>
	<time>2024-07-25T09:41:52.000Z</time>
</trkpt>
<trkpt lat="46.1237500" lon="10.5019760">
	<ele>2132.00</ele>
	<time>2024-07-25T09:41:53.000Z</time>
</trkpt>
<trkpt lat="46.1237500" lon="10.5019760">
	<ele>2132.00</ele>
	<time>2024-07-25T09:41:54.000Z</time>
</trkpt>
<trkpt lat="46.1237500" lon="10.5019760">
	<ele>2132.00</ele>
	<time>2024-07-25T09:41:55.000Z</time>
</trkpt>
<trkpt lat="46.1237500" lon="10.5019760">
	<ele>2132.00</ele>
	<time>2024-07-25T09:41:56.000Z</time>
</trkpt>
<trkpt lat="46.1237500" lon="10.5019760">
	<ele>2132.00</ele>
	<time>2024-07-25T09:41:57.000Z</time>
</trkpt>
<trkpt lat="46.1237500" lon="10.5019760">
	<ele>2132.00</ele>
	<time>2024-07-25T09:41:58.000Z</time>
</trkpt>
<trkpt lat="46.1237500" lon="10.5019770">
	<ele>2132.00</ele>
	<time>2024-07-25T09:41:59.000Z</time>
</trkpt>
<trkpt lat="46.1237500" lon="10.5019770">
	<ele>2132.00</ele>
	<time>2024-07-25T09:42:00.000Z</time>
</trkpt>
<trkpt lat="46.1237500" lon="10.5019770">
	<ele>2132.00</ele>
	<time>2024-07-25T09:42:01.000Z</time>
</trkpt>
<trkpt lat="46.1237500" lon="10.5019770">
	<ele>2132.00</ele>
	<time>2024-07-25T09:42:02.000Z</time>
</trkpt>
<trkpt lat="46.1237500" lon="10.5019770">
	<ele>2132.00</ele>
	<time>2024-07-25T09:42:03.000Z</time>
</trkpt>
<trkpt lat="46.1237500" lon="10.5019770">
	<ele>2132.00</ele>
	<time>2024-07-25T09:42:04.000Z</time>
</trkpt>
<trkpt lat="46.1237500" lon="10.5019770">
	<ele>2132.00</ele>
	<time>2024-07-25T09:42:05.000Z</time>
</trkpt>
<trkpt lat="46.1237500" lon="10.5019770">
	<ele>2132.00</ele>
	<time>2024-07-25T09:42:06.000Z</time>
</trkpt>
<trkpt lat="46.1237500" lon="10.5019770">
	<ele>2132.00</ele>
	<time>2024-07-25T09:42:07.000Z</time>
</trkpt>
<trkpt lat="46.1237500" lon="10.5019770">
	<ele>2132.00</ele>
	<time>2024-07-25T09:42:08.000Z</time>
</trkpt>
<trkpt lat="46.1237500" lon="10.5019770">
	<ele>2132.00</ele>
	<time>2024-07-25T09:42:09.000Z</time>
</trkpt>
<trkpt lat="46.1237500" lon="10.5019770">
	<ele>2132.00</ele>
	<time>2024-07-25T09:42:10.000Z</time>
</trkpt>
<trkpt lat="46.1237500" lon="10.5019770">
	<ele>2132.00</ele>
	<time>2024-07-25T09:42:11.000Z</time>
</trkpt>
<trkpt lat="46.1237500" lon="10.5019780">
	<ele>2132.00</ele>
	<time>2024-07-25T09:42:12.000Z</time>
</trkpt>
<trkpt lat="46.1237500" lon="10.5019780">
	<ele>2132.00</ele>
	<time>2024-07-25T09:42:13.000Z</time>
</trkpt>
<trkpt lat="46.1237500" lon="10.5019780">
	<ele>2132.00</ele>
	<time>2024-07-25T09:42:14.000Z</time>
</trkpt>
<trkpt lat="46.1237500" lon="10.5019780">
	<ele>2132.00</ele>
	<time>2024-07-25T09:42:15.000Z</time>
</trkpt>
<trkpt lat="46.1237500" lon="10.5019780">
	<ele>2132.00</ele>
	<time>2024-07-25T09:42:16.000Z</time>
</trkpt>
<trkpt lat="46.1237500" lon="10.5019780">
	<ele>2132.00</ele>
	<time>2024-07-25T09:42:17.000Z</time>
</trkpt>
<trkpt lat="46.1237500" lon="10.5019780">
	<ele>2132.00</ele>
	<time>2024-07-25T09:42:18.000Z</time>
</trkpt>
<trkpt lat="46.1237500" lon="10.5019790">
	<ele>2132.00</ele>
	<time>2024-07-25T09:42:19.000Z</time>
</trkpt>
<trkpt lat="46.1237500" lon="10.5019790">
	<ele>2132.00</ele>
	<time>2024-07-25T09:42:20.000Z</time>
</trkpt>
<trkpt lat="46.1237500" lon="10.5019790">
	<ele>2132.00</ele>
	<time>2024-07-25T09:42:21.000Z</time>
</trkpt>
<trkpt lat="46.1237500" lon="10.5019790">
	<ele>2132.00</ele>
	<time>2024-07-25T09:42:22.000Z</time>
</trkpt>
<trkpt lat="46.1237500" lon="10.5019790">
	<ele>2132.00</ele>
	<time>2024-07-25T09:42:23.000Z</time>
</trkpt>
<trkpt lat="46.1237500" lon="10.5019790">
	<ele>2132.00</ele>
	<time>2024-07-25T09:42:24.000Z</time>
</trkpt>
<trkpt lat="46.1237500" lon="10.5019790">
	<ele>2132.00</ele>
	<time>2024-07-25T09:42:25.000Z</time>
</trkpt>
<trkpt lat="46.1237500" lon="10.5019790">
	<ele>2132.00</ele>
	<time>2024-07-25T09:42:26.000Z</time>
</trkpt>
<trkpt lat="46.1237500" lon="10.5019790">
	<ele>2132.00</ele>
	<time>2024-07-25T09:42:27.000Z</time>
</trkpt>
<trkpt lat="46.1237500" lon="10.5019790">
	<ele>2132.00</ele>
	<time>2024-07-25T09:42:28.000Z</time>
</trkpt>
<trkpt lat="46.1237500" lon="10.5019790">
	<ele>2132.00</ele>
	<time>2024-07-25T09:42:29.000Z</time>
</trkpt>
<trkpt lat="46.1237500" lon="10.5019790">
	<ele>2132.00</ele>
	<time>2024-07-25T09:42:30.000Z</time>
</trkpt>
<trkpt lat="46.1237500" lon="10.5019790">
	<ele>2132.00</ele>
	<time>2024-07-25T09:42:31.000Z</time>
</trkpt>
<trkpt lat="46.1237500" lon="10.5019790">
	<ele>2132.00</ele>
	<time>2024-07-25T09:42:32.000Z</time>
</trkpt>
<trkpt lat="46.1237500" lon="10.5019790">
	<ele>2132.00</ele>
	<time>2024-07-25T09:42:33.000Z</time>
</trkpt>
<trkpt lat="46.1237500" lon="10.5019790">
	<ele>2132.00</ele>
	<time>2024-07-25T09:42:34.000Z</time>
</trkpt>
<trkpt lat="46.1237500" lon="10.5019790">
	<ele>2132.00</ele>
	<time>2024-07-25T09:42:35.000Z</time>
</trkpt>
<trkpt lat="46.1237500" lon="10.5019790">
	<ele>2132.00</ele>
	<time>2024-07-25T09:42:36.000Z</time>
</trkpt>
<trkpt lat="46.1237500" lon="10.5019790">
	<ele>2132.00</ele>
	<time>2024-07-25T09:42:37.000Z</time>
</trkpt>
<trkpt lat="46.1237500" lon="10.5019790">
	<ele>2132.00</ele>
	<time>2024-07-25T09:42:38.000Z</time>
</trkpt>
<trkpt lat="46.1237500" lon="10.5019790">
	<ele>2132.00</ele>
	<time>2024-07-25T09:42:39.000Z</time>
</trkpt>
<trkpt lat="46.1237500" lon="10.5019790">
	<ele>2132.00</ele>
	<time>2024-07-25T09:42:40.000Z</time>
</trkpt>
<trkpt lat="46.1237500" lon="10.5019790">
	<ele>2132.00</ele>
	<time>2024-07-25T09:42:41.000Z</time>
</trkpt>
<trkpt lat="46.1237500" lon="10.5019790">
	<ele>2132.00</ele>
	<time>2024-07-25T09:42:42.000Z</time>
</trkpt>
<trkpt lat="46.1237500" lon="10.5019790">
	<ele>2132.00</ele>
	<time>2024-07-25T09:42:43.000Z</time>
</trkpt>
<trkpt lat="46.1237500" lon="10.5019790">
	<ele>2132.00</ele>
	<time>2024-07-25T09:42:44.000Z</time>
</trkpt>
<trkpt lat="46.1237500" lon="10.5019790">
	<ele>2132.00</ele>
	<time>2024-07-25T09:42:45.000Z</time>
</trkpt>
<trkpt lat="46.1237500" lon="10.5019790">
	<ele>2132.00</ele>
	<time>2024-07-25T09:42:46.000Z</time>
</trkpt>
<trkpt lat="46.1237500" lon="10.5019790">
	<ele>2132.00</ele>
	<time>2024-07-25T09:42:47.000Z</time>
</trkpt>
<trkpt lat="46.1237500" lon="10.5019790">
	<ele>2132.00</ele>
	<time>2024-07-25T09:42:48.000Z</time>
</trkpt>
<trkpt lat="46.1237500" lon="10.5019790">
	<ele>2132.00</ele>
	<time>2024-07-25T09:42:49.000Z</time>
</trkpt>
<trkpt lat="46.1237500" lon="10.5019800">
	<ele>2132.00</ele>
	<time>2024-07-25T09:42:50.000Z</time>
</trkpt>
<trkpt lat="46.1237500" lon="10.5019790">
	<ele>2132.00</ele>
	<time>2024-07-25T09:42:51.000Z</time>
</trkpt>
<trkpt lat="46.1237500" lon="10.5019790">
	<ele>2132.00</ele>
	<time>2024-07-25T09:42:52.000Z</time>
</trkpt>
<trkpt lat="46.1237500" lon="10.5019800">
	<ele>2132.00</ele>
	<time>2024-07-25T09:42:53.000Z</time>
</trkpt>
<trkpt lat="46.1237500" lon="10.5019800">
	<ele>2132.00</ele>
	<time>2024-07-25T09:42:54.000Z</time>
</trkpt>
<trkpt lat="46.1237500" lon="10.5019800">
	<ele>2132.00</ele>
	<time>2024-07-25T09:42:55.000Z</time>
</trkpt>
<trkpt lat="46.1237500" lon="10.5019800">
	<ele>2132.00</ele>
	<time>2024-07-25T09:42:56.000Z</time>
</trkpt>
<trkpt lat="46.1237500" lon="10.5019800">
	<ele>2132.00</ele>
	<time>2024-07-25T09:42:57.000Z</time>
</trkpt>
<trkpt lat="46.1237500" lon="10.5019800">
	<ele>2132.00</ele>
	<time>2024-07-25T09:42:58.000Z</time>
</trkpt>
<trkpt lat="46.1237500" lon="10.5019800">
	<ele>2132.00</ele>
	<time>2024-07-25T09:42:59.000Z</time>
</trkpt>
<trkpt lat="46.1237500" lon="10.5019800">
	<ele>2132.00</ele>
	<time>2024-07-25T09:43:00.000Z</time>
</trkpt>
<trkpt lat="46.1237500" lon="10.5019800">
	<ele>2132.00</ele>
	<time>2024-07-25T09:43:01.000Z</time>
</trkpt>
<trkpt lat="46.1237500" lon="10.5019800">
	<ele>2132.00</ele>
	<time>2024-07-25T09:43:02.000Z</time>
</trkpt>
<trkpt lat="46.1237500" lon="10.5019800">
	<ele>2132.00</ele>
	<time>2024-07-25T09:43:03.000Z</time>
</trkpt>
<trkpt lat="46.1237500" lon="10.5019800">
	<ele>2132.00</ele>
	<time>2024-07-25T09:43:04.000Z</time>
</trkpt>
<trkpt lat="46.1237500" lon="10.5019800">
	<ele>2132.00</ele>
	<time>2024-07-25T09:43:05.000Z</time>
</trkpt>
<trkpt lat="46.1237500" lon="10.5019800">
	<ele>2132.00</ele>
	<time>2024-07-25T09:43:06.000Z</time>
</trkpt>
<trkpt lat="46.1237500" lon="10.5019800">
	<ele>2132.00</ele>
	<time>2024-07-25T09:43:07.000Z</time>
</trkpt>
<trkpt lat="46.1237500" lon="10.5019800">
	<ele>2132.00</ele>
	<time>2024-07-25T09:43:08.000Z</time>
</trkpt>
<trkpt lat="46.1237500" lon="10.5019800">
	<ele>2132.00</ele>
	<time>2024-07-25T09:43:09.000Z</time>
</trkpt>
<trkpt lat="46.1237500" lon="10.5019800">
	<ele>2132.00</ele>
	<time>2024-07-25T09:43:10.000Z</time>
</trkpt>
<trkpt lat="46.1237500" lon="10.5019800">
	<ele>2132.00</ele>
	<time>2024-07-25T09:43:11.000Z</time>
</trkpt>
<trkpt lat="46.1237500" lon="10.5019800">
	<ele>2132.00</ele>
	<time>2024-07-25T09:43:12.000Z</time>
</trkpt>
<trkpt lat="46.1237500" lon="10.5019810">
	<ele>2132.00</ele>
	<time>2024-07-25T09:43:13.000Z</time>
</trkpt>
<trkpt lat="46.1237500" lon="10.5019810">
	<ele>2132.00</ele>
	<time>2024-07-25T09:43:14.000Z</time>
</trkpt>
<trkpt lat="46.1237500" lon="10.5019810">
	<ele>2132.00</ele>
	<time>2024-07-25T09:43:15.000Z</time>
</trkpt>
<trkpt lat="46.1237500" lon="10.5019870">
	<ele>2132.00</ele>
	<time>2024-07-25T09:43:16.000Z</time>
</trkpt>
<trkpt lat="46.1237530" lon="10.5019870">
	<ele>2132.00</ele>
	<time>2024-07-25T09:43:17.000Z</time>
</trkpt>
<trkpt lat="46.1237560" lon="10.5019880">
	<ele>2132.00</ele>
	<time>2024-07-25T09:43:18.000Z</time>
</trkpt>
<trkpt lat="46.1237560" lon="10.5019880">
	<ele>2132.00</ele>
	<time>2024-07-25T09:43:19.000Z</time>
</trkpt>
<trkpt lat="46.1237560" lon="10.5019880">
	<ele>2132.00</ele>
	<time>2024-07-25T09:43:20.000Z</time>
</trkpt>
<trkpt lat="46.1237560" lon="10.5019880">
	<ele>2132.00</ele>
	<time>2024-07-25T09:43:21.000Z</time>
</trkpt>
<trkpt lat="46.1237560" lon="10.5019880">
	<ele>2132.00</ele>
	<time>2024-07-25T09:43:22.000Z</time>
</trkpt>
<trkpt lat="46.1237560" lon="10.5019880">
	<ele>2132.00</ele>
	<time>2024-07-25T09:43:23.000Z</time>
</trkpt>
<trkpt lat="46.1237560" lon="10.5019880">
	<ele>2132.00</ele>
	<time>2024-07-25T09:43:24.000Z</time>
</trkpt>
<trkpt lat="46.1237560" lon="10.5020010">
	<ele>2132.00</ele>
	<time>2024-07-25T09:43:25.000Z</time>
</trkpt>
<trkpt lat="46.1237560" lon="10.5020010">
	<ele>2132.00</ele>
	<time>2024-07-25T09:43:26.000Z</time>
</trkpt>
<trkpt lat="46.1237560" lon="10.5020010">
	<ele>2132.00</ele>
	<time>2024-07-25T09:43:27.000Z</time>
</trkpt>
<trkpt lat="46.1237560" lon="10.5020020">
	<ele>2132.00</ele>
	<time>2024-07-25T09:43:28.000Z</time>
</trkpt>
<trkpt lat="46.1237560" lon="10.5020020">
	<ele>2132.00</ele>
	<time>2024-07-25T09:43:29.000Z</time>
</trkpt>
<trkpt lat="46.1237560" lon="10.5020020">
	<ele>2132.00</ele>
	<time>2024-07-25T09:43:30.000Z</time>
</trkpt>
<trkpt lat="46.1237570" lon="10.5020020">
	<ele>2132.00</ele>
	<time>2024-07-25T09:43:31.000Z</time>
</trkpt>
<trkpt lat="46.1237570" lon="10.5020020">
	<ele>2132.00</ele>
	<time>2024-07-25T09:43:32.000Z</time>
</trkpt>
<trkpt lat="46.1237570" lon="10.5020020">
	<ele>2132.00</ele>
	<time>2024-07-25T09:43:33.000Z</time>
</trkpt>
<trkpt lat="46.1237590" lon="10.5020040">
	<ele>2132.00</ele>
	<time>2024-07-25T09:43:34.000Z</time>
</trkpt>
<trkpt lat="46.1237640" lon="10.5020040">
	<ele>2132.00</ele>
	<time>2024-07-25T09:43:35.000Z</time>
</trkpt>
<trkpt lat="46.1237670" lon="10.5020050">
	<ele>2132.00</ele>
	<time>2024-07-25T09:43:36.000Z</time>
</trkpt>
<trkpt lat="46.1237680" lon="10.5020060">
	<ele>2132.00</ele>
	<time>2024-07-25T09:43:37.000Z</time>
</trkpt>
<trkpt lat="46.1237680" lon="10.5020070">
	<ele>2132.00</ele>
	<time>2024-07-25T09:43:38.000Z</time>
</trkpt>
<trkpt lat="46.1237690" lon="10.5020070">
	<ele>2132.00</ele>
	<time>2024-07-25T09:43:39.000Z</time>
</trkpt>
<trkpt lat="46.1237690" lon="10.5020050">
	<ele>2132.00</ele>
	<time>2024-07-25T09:43:40.000Z</time>
</trkpt>
<trkpt lat="46.1237690" lon="10.5020040">
	<ele>2132.00</ele>
	<time>2024-07-25T09:43:41.000Z</time>
</trkpt>
<trkpt lat="46.1237690" lon="10.5020040">
	<ele>2132.00</ele>
	<time>2024-07-25T09:43:42.000Z</time>
</trkpt>
<trkpt lat="46.1237690" lon="10.5020020">
	<ele>2132.00</ele>
	<time>2024-07-25T09:43:43.000Z</time>
</trkpt>
<trkpt lat="46.1237690" lon="10.5020020">
	<ele>2132.00</ele>
	<time>2024-07-25T09:43:44.000Z</time>
</trkpt>
<trkpt lat="46.1237690" lon="10.5020020">
	<ele>2132.00</ele>
	<time>2024-07-25T09:43:45.000Z</time>
</trkpt>
<trkpt lat="46.1237690" lon="10.5020010">
	<ele>2132.00</ele>
	<time>2024-07-25T09:43:46.000Z</time>
</trkpt>
<trkpt lat="46.1237690" lon="10.5020010">
	<ele>2132.00</ele>
	<time>2024-07-25T09:43:47.000Z</time>
</trkpt>
<trkpt lat="46.1237690" lon="10.5020000">
	<ele>2132.00</ele>
	<time>2024-07-25T09:43:48.000Z</time>
</trkpt>
<trkpt lat="46.1237690" lon="10.5020000">
	<ele>2132.00</ele>
	<time>2024-07-25T09:43:49.000Z</time>
</trkpt>
<trkpt lat="46.1237690" lon="10.5019990">
	<ele>2132.00</ele>
	<time>2024-07-25T09:43:50.000Z</time>
</trkpt>
<trkpt lat="46.1237690" lon="10.5019990">
	<ele>2132.00</ele>
	<time>2024-07-25T09:43:51.000Z</time>
</trkpt>
<trkpt lat="46.1237680" lon="10.5019980">
	<ele>2132.00</ele>
	<time>2024-07-25T09:43:52.000Z</time>
</trkpt>
<trkpt lat="46.1237670" lon="10.5019980">
	<ele>2132.00</ele>
	<time>2024-07-25T09:43:53.000Z</time>
</trkpt>
<trkpt lat="46.1237650" lon="10.5019980">
	<ele>2132.00</ele>
	<time>2024-07-25T09:43:54.000Z</time>
</trkpt>
<trkpt lat="46.1237630" lon="10.5019980">
	<ele>2132.00</ele>
	<time>2024-07-25T09:43:55.000Z</time>
</trkpt>
<trkpt lat="46.1237550" lon="10.5019980">
	<ele>2132.00</ele>
	<time>2024-07-25T09:43:56.000Z</time>
</trkpt>
<trkpt lat="46.1237530" lon="10.5019980">
	<ele>2132.00</ele>
	<time>2024-07-25T09:43:57.000Z</time>
</trkpt>
<trkpt lat="46.1237520" lon="10.5019980">
	<ele>2132.00</ele>
	<time>2024-07-25T09:43:58.000Z</time>
</trkpt>
<trkpt lat="46.1237510" lon="10.5019980">
	<ele>2132.00</ele>
	<time>2024-07-25T09:43:59.000Z</time>
</trkpt>
<trkpt lat="46.1237510" lon="10.5019990">
	<ele>2132.00</ele>
	<time>2024-07-25T09:44:00.000Z</time>
</trkpt>
<trkpt lat="46.1237500" lon="10.5019990">
	<ele>2132.00</ele>
	<time>2024-07-25T09:44:01.000Z</time>
</trkpt>
<trkpt lat="46.1237500" lon="10.5019990">
	<ele>2132.00</ele>
	<time>2024-07-25T09:44:02.000Z</time>
</trkpt>
<trkpt lat="46.1237500" lon="10.5020010">
	<ele>2132.00</ele>
	<time>2024-07-25T09:44:03.000Z</time>
</trkpt>
<trkpt lat="46.1237430" lon="10.5020500">
	<ele>2132.00</ele>
	<time>2024-07-25T09:44:07.000Z</time>
</trkpt>
<trkpt lat="46.1237390" lon="10.5020700">
	<ele>2132.00</ele>
	<time>2024-07-25T09:44:08.000Z</time>
</trkpt>
<trkpt lat="46.1237540" lon="10.5020800">
	<ele>2132.00</ele>
	<time>2024-07-25T09:44:09.000Z</time>
</trkpt>
<trkpt lat="46.1237540" lon="10.5020900">
	<ele>2132.00</ele>
	<time>2024-07-25T09:44:10.000Z</time>
</trkpt>
<trkpt lat="46.1237530" lon="10.5020990">
	<ele>2132.00</ele>
	<time>2024-07-25T09:44:11.000Z</time>
</trkpt>
<trkpt lat="46.1237530" lon="10.5021060">
	<ele>2132.00</ele>
	<time>2024-07-25T09:44:12.000Z</time>
</trkpt>
<trkpt lat="46.1237520" lon="10.5021100">
	<ele>2132.00</ele>
	<time>2024-07-25T09:44:13.000Z</time>
</trkpt>
<trkpt lat="46.1237490" lon="10.5021080">
	<ele>2132.00</ele>
	<time>2024-07-25T09:44:14.000Z</time>
</trkpt>
<trkpt lat="46.1237660" lon="10.5021190">
	<ele>2132.00</ele>
	<time>2024-07-25T09:44:15.000Z</time>
</trkpt>
<trkpt lat="46.1237700" lon="10.5021060">
	<ele>2132.00</ele>
	<time>2024-07-25T09:44:16.000Z</time>
</trkpt>
<trkpt lat="46.1237780" lon="10.5021080">
	<ele>2132.00</ele>
	<time>2024-07-25T09:44:17.000Z</time>
</trkpt>
<trkpt lat="46.1237840" lon="10.5021300">
	<ele>2132.00</ele>
	<time>2024-07-25T09:44:18.000Z</time>
</trkpt>
<trkpt lat="46.1237880" lon="10.5021350">
	<ele>2132.00</ele>
	<time>2024-07-25T09:44:19.000Z</time>
</trkpt>
<trkpt lat="46.1237940" lon="10.5021340">
	<ele>2132.00</ele>
	<time>2024-07-25T09:44:20.000Z</time>
</trkpt>
<trkpt lat="46.1237970" lon="10.5021310">
	<ele>2132.00</ele>
	<time>2024-07-25T09:44:21.000Z</time>
</trkpt>
<trkpt lat="46.1238040" lon="10.5021270">
	<ele>2132.00</ele>
	<time>2024-07-25T09:44:22.000Z</time>
</trkpt>
<trkpt lat="46.1237980" lon="10.5021230">
	<ele>2132.00</ele>
	<time>2024-07-25T09:44:23.000Z</time>
</trkpt>
<trkpt lat="46.1237960" lon="10.5021110">
	<ele>2132.00</ele>
	<time>2024-07-25T09:44:24.000Z</time>
</trkpt>
<trkpt lat="46.1237920" lon="10.5021050">
	<ele>2132.00</ele>
	<time>2024-07-25T09:44:25.000Z</time>
</trkpt>
<trkpt lat="46.1237920" lon="10.5020910">
	<ele>2132.00</ele>
	<time>2024-07-25T09:44:26.000Z</time>
</trkpt>
<trkpt lat="46.1237910" lon="10.5020840">
	<ele>2132.00</ele>
	<time>2024-07-25T09:44:27.000Z</time>
</trkpt>
<trkpt lat="46.1237910" lon="10.5020780">
	<ele>2132.00</ele>
	<time>2024-07-25T09:44:28.000Z</time>
</trkpt>
<trkpt lat="46.1237930" lon="10.5020780">
	<ele>2132.00</ele>
	<time>2024-07-25T09:44:29.000Z</time>
</trkpt>
<trkpt lat="46.1237930" lon="10.5020780">
	<ele>2132.00</ele>
	<time>2024-07-25T09:44:30.000Z</time>
</trkpt>
<trkpt lat="46.1237930" lon="10.5020780">
	<ele>2132.00</ele>
	<time>2024-07-25T09:44:31.000Z</time>
</trkpt>
<trkpt lat="46.1237930" lon="10.5020780">
	<ele>2132.00</ele>
	<time>2024-07-25T09:44:32.000Z</time>
</trkpt>
<trkpt lat="46.1237930" lon="10.5020780">
	<ele>2132.00</ele>
	<time>2024-07-25T09:44:33.000Z</time>
</trkpt>
<trkpt lat="46.1237930" lon="10.5020780">
	<ele>2132.00</ele>
	<time>2024-07-25T09:44:34.000Z</time>
</trkpt>
<trkpt lat="46.1237930" lon="10.5020780">
	<ele>2132.00</ele>
	<time>2024-07-25T09:44:35.000Z</time>
</trkpt>
<trkpt lat="46.1237930" lon="10.5020780">
	<ele>2132.00</ele>
	<time>2024-07-25T09:44:36.000Z</time>
</trkpt>
<trkpt lat="46.1237930" lon="10.5020780">
	<ele>2132.00</ele>
	<time>2024-07-25T09:44:37.000Z</time>
</trkpt>
<trkpt lat="46.1237930" lon="10.5020780">
	<ele>2132.00</ele>
	<time>2024-07-25T09:44:38.000Z</time>
</trkpt>
<trkpt lat="46.1237930" lon="10.5020780">
	<ele>2132.00</ele>
	<time>2024-07-25T09:44:39.000Z</time>
</trkpt>
<trkpt lat="46.1237930" lon="10.5020780">
	<ele>2132.00</ele>
	<time>2024-07-25T09:44:40.000Z</time>
</trkpt>
<trkpt lat="46.1237960" lon="10.5020780">
	<ele>2132.00</ele>
	<time>2024-07-25T09:44:41.000Z</time>
</trkpt>
<trkpt lat="46.1237970" lon="10.5020780">
	<ele>2132.00</ele>
	<time>2024-07-25T09:44:42.000Z</time>
</trkpt>
<trkpt lat="46.1237980" lon="10.5020780">
	<ele>2132.00</ele>
	<time>2024-07-25T09:44:43.000Z</time>
</trkpt>
<trkpt lat="46.1237990" lon="10.5020780">
	<ele>2132.00</ele>
	<time>2024-07-25T09:44:44.000Z</time>
</trkpt>
<trkpt lat="46.1238000" lon="10.5020610">
	<ele>2132.00</ele>
	<time>2024-07-25T09:44:45.000Z</time>
</trkpt>
<trkpt lat="46.1238010" lon="10.5020470">
	<ele>2132.00</ele>
	<time>2024-07-25T09:44:46.000Z</time>
</trkpt>
<trkpt lat="46.1238020" lon="10.5020420">
	<ele>2132.00</ele>
	<time>2024-07-25T09:44:47.000Z</time>
</trkpt>
<trkpt lat="46.1238030" lon="10.5020420">
	<ele>2132.00</ele>
	<time>2024-07-25T09:44:48.000Z</time>
</trkpt>
<trkpt lat="46.1238040" lon="10.5020400">
	<ele>2132.00</ele>
	<time>2024-07-25T09:44:49.000Z</time>
</trkpt>
<trkpt lat="46.1238040" lon="10.5020360">
	<ele>2132.00</ele>
	<time>2024-07-25T09:44:50.000Z</time>
</trkpt>
<trkpt lat="46.1238040" lon="10.5020360">
	<ele>2132.00</ele>
	<time>2024-07-25T09:44:51.000Z</time>
</trkpt>
<trkpt lat="46.1238040" lon="10.5020360">
	<ele>2132.00</ele>
	<time>2024-07-25T09:44:52.000Z</time>
</trkpt>
<trkpt lat="46.1238040" lon="10.5020320">
	<ele>2132.00</ele>
	<time>2024-07-25T09:44:53.000Z</time>
</trkpt>
<trkpt lat="46.1238040" lon="10.5020310">
	<ele>2132.00</ele>
	<time>2024-07-25T09:44:54.000Z</time>
</trkpt>
<trkpt lat="46.1238040" lon="10.5020270">
	<ele>2132.00</ele>
	<time>2024-07-25T09:44:55.000Z</time>
</trkpt>
<trkpt lat="46.1238040" lon="10.5020220">
	<ele>2132.00</ele>
	<time>2024-07-25T09:44:56.000Z</time>
</trkpt>
<trkpt lat="46.1238040" lon="10.5020210">
	<ele>2132.00</ele>
	<time>2024-07-25T09:44:57.000Z</time>
</trkpt>
<trkpt lat="46.1238040" lon="10.5020180">
	<ele>2132.00</ele>
	<time>2024-07-25T09:44:58.000Z</time>
</trkpt>
<trkpt lat="46.1238040" lon="10.5020180">
	<ele>2132.00</ele>
	<time>2024-07-25T09:44:59.000Z</time>
</trkpt>
<trkpt lat="46.1238040" lon="10.5020160">
	<ele>2132.00</ele>
	<time>2024-07-25T09:45:00.000Z</time>
</trkpt>
<trkpt lat="46.1238040" lon="10.5020130">
	<ele>2132.00</ele>
	<time>2024-07-25T09:45:01.000Z</time>
</trkpt>
<trkpt lat="46.1238040" lon="10.5020120">
	<ele>2132.00</ele>
	<time>2024-07-25T09:45:02.000Z</time>
</trkpt>
<trkpt lat="46.1238030" lon="10.5020120">
	<ele>2132.00</ele>
	<time>2024-07-25T09:45:03.000Z</time>
</trkpt>
<trkpt lat="46.1238020" lon="10.5020100">
	<ele>2132.00</ele>
	<time>2024-07-25T09:45:04.000Z</time>
</trkpt>
<trkpt lat="46.1238020" lon="10.5020100">
	<ele>2132.00</ele>
	<time>2024-07-25T09:45:05.000Z</time>
</trkpt>
<trkpt lat="46.1238020" lon="10.5020090">
	<ele>2132.00</ele>
	<time>2024-07-25T09:45:06.000Z</time>
</trkpt>
<trkpt lat="46.1238020" lon="10.5020090">
	<ele>2132.00</ele>
	<time>2024-07-25T09:45:07.000Z</time>
</trkpt>
<trkpt lat="46.1238010" lon="10.5020080">
	<ele>2132.00</ele>
	<time>2024-07-25T09:45:08.000Z</time>
</trkpt>
<trkpt lat="46.1238000" lon="10.5020080">
	<ele>2132.00</ele>
	<time>2024-07-25T09:45:09.000Z</time>
</trkpt>
<trkpt lat="46.1237980" lon="10.5020070">
	<ele>2132.00</ele>
	<time>2024-07-25T09:45:10.000Z</time>
</trkpt>
<trkpt lat="46.1237970" lon="10.5020070">
	<ele>2132.00</ele>
	<time>2024-07-25T09:45:11.000Z</time>
</trkpt>
<trkpt lat="46.1237970" lon="10.5020050">
	<ele>2132.00</ele>
	<time>2024-07-25T09:45:12.000Z</time>
</trkpt>
<trkpt lat="46.1237970" lon="10.5020050">
	<ele>2132.00</ele>
	<time>2024-07-25T09:45:13.000Z</time>
</trkpt>
<trkpt lat="46.1237960" lon="10.5020050">
	<ele>2132.00</ele>
	<time>2024-07-25T09:45:14.000Z</time>
</trkpt>
<trkpt lat="46.1237950" lon="10.5020050">
	<ele>2132.00</ele>
	<time>2024-07-25T09:45:15.000Z</time>
</trkpt>
<trkpt lat="46.1237930" lon="10.5020050">
	<ele>2132.00</ele>
	<time>2024-07-25T09:45:16.000Z</time>
</trkpt>
<trkpt lat="46.1237920" lon="10.5020040">
	<ele>2132.00</ele>
	<time>2024-07-25T09:45:17.000Z</time>
</trkpt>
<trkpt lat="46.1237910" lon="10.5020000">
	<ele>2132.00</ele>
	<time>2024-07-25T09:45:18.000Z</time>
</trkpt>
<trkpt lat="46.1237890" lon="10.5019970">
	<ele>2132.00</ele>
	<time>2024-07-25T09:45:19.000Z</time>
</trkpt>
<trkpt lat="46.1237880" lon="10.5019960">
	<ele>2132.00</ele>
	<time>2024-07-25T09:45:20.000Z</time>
</trkpt>
<trkpt lat="46.1237870" lon="10.5019950">
	<ele>2132.00</ele>
	<time>2024-07-25T09:45:21.000Z</time>
</trkpt>
<trkpt lat="46.1237860" lon="10.5019920">
	<ele>2132.00</ele>
	<time>2024-07-25T09:45:22.000Z</time>
</trkpt>
<trkpt lat="46.1237840" lon="10.5019900">
	<ele>2132.00</ele>
	<time>2024-07-25T09:45:23.000Z</time>
</trkpt>
<trkpt lat="46.1237840" lon="10.5019880">
	<ele>2132.00</ele>
	<time>2024-07-25T09:45:24.000Z</time>
</trkpt>
<trkpt lat="46.1237820" lon="10.5019870">
	<ele>2132.00</ele>
	<time>2024-07-25T09:45:25.000Z</time>
</trkpt>
<trkpt lat="46.1237810" lon="10.5019860">
	<ele>2132.00</ele>
	<time>2024-07-25T09:45:26.000Z</time>
</trkpt>
<trkpt lat="46.1237800" lon="10.5019850">
	<ele>2132.00</ele>
	<time>2024-07-25T09:45:27.000Z</time>
</trkpt>
<trkpt lat="46.1237800" lon="10.5019840">
	<ele>2132.00</ele>
	<time>2024-07-25T09:45:28.000Z</time>
</trkpt>
<trkpt lat="46.1237790" lon="10.5019800">
	<ele>2132.00</ele>
	<time>2024-07-25T09:45:29.000Z</time>
</trkpt>
<trkpt lat="46.1237790" lon="10.5019750">
	<ele>2132.00</ele>
	<time>2024-07-25T09:45:30.000Z</time>
</trkpt>
<trkpt lat="46.1237790" lon="10.5019730">
	<ele>2132.00</ele>
	<time>2024-07-25T09:45:31.000Z</time>
</trkpt>
<trkpt lat="46.1237790" lon="10.5019730">
	<ele>2132.00</ele>
	<time>2024-07-25T09:45:32.000Z</time>
</trkpt>
<trkpt lat="46.1237780" lon="10.5019730">
	<ele>2132.00</ele>
	<time>2024-07-25T09:45:33.000Z</time>
</trkpt>
<trkpt lat="46.1237770" lon="10.5019730">
	<ele>2132.00</ele>
	<time>2024-07-25T09:45:34.000Z</time>
</trkpt>
<trkpt lat="46.1237770" lon="10.5019730">
	<ele>2132.00</ele>
	<time>2024-07-25T09:45:35.000Z</time>
</trkpt>
<trkpt lat="46.1237780" lon="10.5019730">
	<ele>2132.00</ele>
	<time>2024-07-25T09:45:36.000Z</time>
</trkpt>
<trkpt lat="46.1237780" lon="10.5019730">
	<ele>2132.00</ele>
	<time>2024-07-25T09:45:37.000Z</time>
</trkpt>
<trkpt lat="46.1237790" lon="10.5019730">
	<ele>2132.00</ele>
	<time>2024-07-25T09:45:38.000Z</time>
</trkpt>
<trkpt lat="46.1237790" lon="10.5019730">
	<ele>2132.00</ele>
	<time>2024-07-25T09:45:39.000Z</time>
</trkpt>
<trkpt lat="46.1237790" lon="10.5019730">
	<ele>2132.00</ele>
	<time>2024-07-25T09:45:40.000Z</time>
</trkpt>
<trkpt lat="46.1237800" lon="10.5019730">
	<ele>2132.00</ele>
	<time>2024-07-25T09:45:41.000Z</time>
</trkpt>
<trkpt lat="46.1237800" lon="10.5019730">
	<ele>2132.00</ele>
	<time>2024-07-25T09:45:42.000Z</time>
</trkpt>
<trkpt lat="46.1237800" lon="10.5019730">
	<ele>2132.00</ele>
	<time>2024-07-25T09:45:43.000Z</time>
</trkpt>
<trkpt lat="46.1237800" lon="10.5019730">
	<ele>2132.00</ele>
	<time>2024-07-25T09:45:44.000Z</time>
</trkpt>
<trkpt lat="46.1237800" lon="10.5019780">
	<ele>2132.00</ele>
	<time>2024-07-25T09:45:45.000Z</time>
</trkpt>
<trkpt lat="46.1237800" lon="10.5019820">
	<ele>2132.00</ele>
	<time>2024-07-25T09:45:46.000Z</time>
</trkpt>
<trkpt lat="46.1237800" lon="10.5019860">
	<ele>2132.00</ele>
	<time>2024-07-25T09:45:47.000Z</time>
</trkpt>
<trkpt lat="46.1237800" lon="10.5019910">
	<ele>2132.00</ele>
	<time>2024-07-25T09:45:48.000Z</time>
</trkpt>
<trkpt lat="46.1237810" lon="10.5020010">
	<ele>2132.00</ele>
	<time>2024-07-25T09:45:49.000Z</time>
</trkpt>
<trkpt lat="46.1237810" lon="10.5020080">
	<ele>2132.00</ele>
	<time>2024-07-25T09:45:50.000Z</time>
</trkpt>
<trkpt lat="46.1237820" lon="10.5020110">
	<ele>2132.00</ele>
	<time>2024-07-25T09:45:51.000Z</time>
</trkpt>
<trkpt lat="46.1237820" lon="10.5020120">
	<ele>2132.00</ele>
	<time>2024-07-25T09:45:52.000Z</time>
</trkpt>
<trkpt lat="46.1237820" lon="10.5020130">
	<ele>2132.00</ele>
	<time>2024-07-25T09:45:53.000Z</time>
</trkpt>
<trkpt lat="46.1237820" lon="10.5020130">
	<ele>2132.00</ele>
	<time>2024-07-25T09:45:54.000Z</time>
</trkpt>
<trkpt lat="46.1237820" lon="10.5020130">
	<ele>2132.00</ele>
	<time>2024-07-25T09:45:55.000Z</time>
</trkpt>
<trkpt lat="46.1237820" lon="10.5020130">
	<ele>2132.00</ele>
	<time>2024-07-25T09:45:56.000Z</time>
</trkpt>
<trkpt lat="46.1237820" lon="10.5020130">
	<ele>2132.00</ele>
	<time>2024-07-25T09:45:57.000Z</time>
</trkpt>
<trkpt lat="46.1237810" lon="10.5020130">
	<ele>2132.00</ele>
	<time>2024-07-25T09:45:58.000Z</time>
</trkpt>
<trkpt lat="46.1237800" lon="10.5020130">
	<ele>2132.00</ele>
	<time>2024-07-25T09:45:59.000Z</time>
</trkpt>
<trkpt lat="46.1237800" lon="10.5020130">
	<ele>2132.00</ele>
	<time>2024-07-25T09:46:00.000Z</time>
</trkpt>
<trkpt lat="46.1237810" lon="10.5020130">
	<ele>2132.00</ele>
	<time>2024-07-25T09:46:01.000Z</time>
</trkpt>
<trkpt lat="46.1237810" lon="10.5020130">
	<ele>2132.00</ele>
	<time>2024-07-25T09:46:02.000Z</time>
</trkpt>
<trkpt lat="46.1237810" lon="10.5020130">
	<ele>2132.00</ele>
	<time>2024-07-25T09:46:03.000Z</time>
</trkpt>
<trkpt lat="46.1237810" lon="10.5020130">
	<ele>2132.00</ele>
	<time>2024-07-25T09:46:04.000Z</time>
</trkpt>
<trkpt lat="46.1237810" lon="10.5020130">
	<ele>2132.00</ele>
	<time>2024-07-25T09:46:05.000Z</time>
</trkpt>
<trkpt lat="46.1237810" lon="10.5020130">
	<ele>2132.00</ele>
	<time>2024-07-25T09:46:06.000Z</time>
</trkpt>
<trkpt lat="46.1237800" lon="10.5020100">
	<ele>2132.00</ele>
	<time>2024-07-25T09:46:07.000Z</time>
</trkpt>
<trkpt lat="46.1237800" lon="10.5020050">
	<ele>2132.00</ele>
	<time>2024-07-25T09:46:08.000Z</time>
</trkpt>
<trkpt lat="46.1237790" lon="10.5020000">
	<ele>2132.00</ele>
	<time>2024-07-25T09:46:09.000Z</time>
</trkpt>
<trkpt lat="46.1237790" lon="10.5019980">
	<ele>2132.00</ele>
	<time>2024-07-25T09:46:10.000Z</time>
</trkpt>
<trkpt lat="46.1237790" lon="10.5019970">
	<ele>2132.00</ele>
	<time>2024-07-25T09:46:11.000Z</time>
</trkpt>
<trkpt lat="46.1237790" lon="10.5019950">
	<ele>2132.00</ele>
	<time>2024-07-25T09:46:12.000Z</time>
</trkpt>
<trkpt lat="46.1237790" lon="10.5019940">
	<ele>2132.00</ele>
	<time>2024-07-25T09:46:13.000Z</time>
</trkpt>
<trkpt lat="46.1237790" lon="10.5019930">
	<ele>2132.00</ele>
	<time>2024-07-25T09:46:14.000Z</time>
</trkpt>
<trkpt lat="46.1237790" lon="10.5019920">
	<ele>2132.00</ele>
	<time>2024-07-25T09:46:15.000Z</time>
</trkpt>
<trkpt lat="46.1237790" lon="10.5019900">
	<ele>2132.00</ele>
	<time>2024-07-25T09:46:16.000Z</time>
</trkpt>
<trkpt lat="46.1237790" lon="10.5019890">
	<ele>2132.00</ele>
	<time>2024-07-25T09:46:17.000Z</time>
</trkpt>
<trkpt lat="46.1237790" lon="10.5019880">
	<ele>2132.00</ele>
	<time>2024-07-25T09:46:18.000Z</time>
</trkpt>
<trkpt lat="46.1237790" lon="10.5019870">
	<ele>2132.00</ele>
	<time>2024-07-25T09:46:19.000Z</time>
</trkpt>
<trkpt lat="46.1237790" lon="10.5019870">
	<ele>2132.00</ele>
	<time>2024-07-25T09:46:20.000Z</time>
</trkpt>
<trkpt lat="46.1237790" lon="10.5019850">
	<ele>2132.00</ele>
	<time>2024-07-25T09:46:21.000Z</time>
</trkpt>
<trkpt lat="46.1237800" lon="10.5019840">
	<ele>2132.00</ele>
	<time>2024-07-25T09:46:22.000Z</time>
</trkpt>
<trkpt lat="46.1237800" lon="10.5019820">
	<ele>2132.00</ele>
	<time>2024-07-25T09:46:23.000Z</time>
</trkpt>
<trkpt lat="46.1237810" lon="10.5019800">
	<ele>2132.00</ele>
	<time>2024-07-25T09:46:24.000Z</time>
</trkpt>
<trkpt lat="46.1237810" lon="10.5019770">
	<ele>2132.00</ele>
	<time>2024-07-25T09:46:25.000Z</time>
</trkpt>
<trkpt lat="46.1237820" lon="10.5019750">
	<ele>2132.00</ele>
	<time>2024-07-25T09:46:26.000Z</time>
</trkpt>
<trkpt lat="46.1237820" lon="10.5019740">
	<ele>2132.00</ele>
	<time>2024-07-25T09:46:27.000Z</time>
</trkpt>
<trkpt lat="46.1237820" lon="10.5019650">
	<ele>2132.00</ele>
	<time>2024-07-25T09:46:28.000Z</time>
</trkpt>
<trkpt lat="46.1237820" lon="10.5019600">
	<ele>2132.00</ele>
	<time>2024-07-25T09:46:29.000Z</time>
</trkpt>
<trkpt lat="46.1237820" lon="10.5019560">
	<ele>2132.00</ele>
	<time>2024-07-25T09:46:30.000Z</time>
</trkpt>
<trkpt lat="46.1237820" lon="10.5019540">
	<ele>2132.00</ele>
	<time>2024-07-25T09:46:31.000Z</time>
</trkpt>
<trkpt lat="46.1237820" lon="10.5019500">
	<ele>2132.00</ele>
	<time>2024-07-25T09:46:32.000Z</time>
</trkpt>
<trkpt lat="46.1237820" lon="10.5019480">
	<ele>2132.00</ele>
	<time>2024-07-25T09:46:33.000Z</time>
</trkpt>
<trkpt lat="46.1237820" lon="10.5019460">
	<ele>2132.00</ele>
	<time>2024-07-25T09:46:34.000Z</time>
</trkpt>
<trkpt lat="46.1237820" lon="10.5019450">
	<ele>2132.00</ele>
	<time>2024-07-25T09:46:35.000Z</time>
</trkpt>
<trkpt lat="46.1237820" lon="10.5019430">
	<ele>2132.00</ele>
	<time>2024-07-25T09:46:36.000Z</time>
</trkpt>
<trkpt lat="46.1237820" lon="10.5019430">
	<ele>2132.00</ele>
	<time>2024-07-25T09:46:37.000Z</time>
</trkpt>
<trkpt lat="46.1237820" lon="10.5019420">
	<ele>2132.00</ele>
	<time>2024-07-25T09:46:38.000Z</time>
</trkpt>
<trkpt lat="46.1237820" lon="10.5019420">
	<ele>2132.00</ele>
	<time>2024-07-25T09:46:39.000Z</time>
</trkpt>
<trkpt lat="46.1237820" lon="10.5019420">
	<ele>2132.00</ele>
	<time>2024-07-25T09:46:40.000Z</time>
</trkpt>
<trkpt lat="46.1237820" lon="10.5019420">
	<ele>2132.00</ele>
	<time>2024-07-25T09:46:41.000Z</time>
</trkpt>
<trkpt lat="46.1237810" lon="10.5019420">
	<ele>2132.00</ele>
	<time>2024-07-25T09:46:42.000Z</time>
</trkpt>
<trkpt lat="46.1237800" lon="10.5019420">
	<ele>2132.00</ele>
	<time>2024-07-25T09:46:43.000Z</time>
</trkpt>
<trkpt lat="46.1237770" lon="10.5019420">
	<ele>2132.00</ele>
	<time>2024-07-25T09:46:44.000Z</time>
</trkpt>
<trkpt lat="46.1237730" lon="10.5019420">
	<ele>2132.00</ele>
	<time>2024-07-25T09:46:45.000Z</time>
</trkpt>
<trkpt lat="46.1237700" lon="10.5019420">
	<ele>2132.00</ele>
	<time>2024-07-25T09:46:46.000Z</time>
</trkpt>
<trkpt lat="46.1237670" lon="10.5019420">
	<ele>2132.00</ele>
	<time>2024-07-25T09:46:47.000Z</time>
</trkpt>
<trkpt lat="46.1237650" lon="10.5019420">
	<ele>2132.00</ele>
	<time>2024-07-25T09:46:48.000Z</time>
</trkpt>
<trkpt lat="46.1237630" lon="10.5019420">
	<ele>2132.00</ele>
	<time>2024-07-25T09:46:49.000Z</time>
</trkpt>
<trkpt lat="46.1237610" lon="10.5019430">
	<ele>2132.00</ele>
	<time>2024-07-25T09:46:50.000Z</time>
</trkpt>
<trkpt lat="46.1237600" lon="10.5019440">
	<ele>2132.00</ele>
	<time>2024-07-25T09:46:51.000Z</time>
</trkpt>
<trkpt lat="46.1237590" lon="10.5019470">
	<ele>2132.00</ele>
	<time>2024-07-25T09:46:52.000Z</time>
</trkpt>
<trkpt lat="46.1237580" lon="10.5019520">
	<ele>2132.00</ele>
	<time>2024-07-25T09:46:53.000Z</time>
</trkpt>
<trkpt lat="46.1237570" lon="10.5019560">
	<ele>2132.00</ele>
	<time>2024-07-25T09:46:54.000Z</time>
</trkpt>
<trkpt lat="46.1237570" lon="10.5019610">
	<ele>2132.00</ele>
	<time>2024-07-25T09:46:55.000Z</time>
</trkpt>
<trkpt lat="46.1237560" lon="10.5019660">
	<ele>2132.00</ele>
	<time>2024-07-25T09:46:56.000Z</time>
</trkpt>
<trkpt lat="46.1237560" lon="10.5019690">
	<ele>2132.00</ele>
	<time>2024-07-25T09:46:57.000Z</time>
</trkpt>
<trkpt lat="46.1237560" lon="10.5019730">
	<ele>2132.00</ele>
	<time>2024-07-25T09:46:58.000Z</time>
</trkpt>
<trkpt lat="46.1237560" lon="10.5019770">
	<ele>2132.00</ele>
	<time>2024-07-25T09:46:59.000Z</time>
</trkpt>
<trkpt lat="46.1237560" lon="10.5019800">
	<ele>2132.00</ele>
	<time>2024-07-25T09:47:00.000Z</time>
</trkpt>
<trkpt lat="46.1237560" lon="10.5019840">
	<ele>2132.00</ele>
	<time>2024-07-25T09:47:01.000Z</time>
</trkpt>
<trkpt lat="46.1237560" lon="10.5019880">
	<ele>2132.00</ele>
	<time>2024-07-25T09:47:02.000Z</time>
</trkpt>
<trkpt lat="46.1237560" lon="10.5019920">
	<ele>2132.00</ele>
	<time>2024-07-25T09:47:03.000Z</time>
</trkpt>
<trkpt lat="46.1237560" lon="10.5019950">
	<ele>2132.00</ele>
	<time>2024-07-25T09:47:04.000Z</time>
</trkpt>
<trkpt lat="46.1237560" lon="10.5019980">
	<ele>2132.00</ele>
	<time>2024-07-25T09:47:05.000Z</time>
</trkpt>
<trkpt lat="46.1237560" lon="10.5020000">
	<ele>2132.00</ele>
	<time>2024-07-25T09:47:06.000Z</time>
</trkpt>
<trkpt lat="46.1237570" lon="10.5020010">
	<ele>2132.00</ele>
	<time>2024-07-25T09:47:07.000Z</time>
</trkpt>
<trkpt lat="46.1237570" lon="10.5020030">
	<ele>2132.00</ele>
	<time>2024-07-25T09:47:08.000Z</time>
</trkpt>
<trkpt lat="46.1237570" lon="10.5020040">
	<ele>2132.00</ele>
	<time>2024-07-25T09:47:09.000Z</time>
</trkpt>
<trkpt lat="46.1237580" lon="10.5020050">
	<ele>2132.00</ele>
	<time>2024-07-25T09:47:10.000Z</time>
</trkpt>
<trkpt lat="46.1237600" lon="10.5020070">
	<ele>2132.00</ele>
	<time>2024-07-25T09:47:11.000Z</time>
</trkpt>
<trkpt lat="46.1237610" lon="10.5020080">
	<ele>2132.00</ele>
	<time>2024-07-25T09:47:12.000Z</time>
</trkpt>
<trkpt lat="46.1237630" lon="10.5020090">
	<ele>2132.00</ele>
	<time>2024-07-25T09:47:13.000Z</time>
</trkpt>
<trkpt lat="46.1237640" lon="10.5020100">
	<ele>2132.00</ele>
	<time>2024-07-25T09:47:14.000Z</time>
</trkpt>
<trkpt lat="46.1237650" lon="10.5020110">
	<ele>2132.00</ele>
	<time>2024-07-25T09:47:15.000Z</time>
</trkpt>
<trkpt lat="46.1237650" lon="10.5020110">
	<ele>2132.00</ele>
	<time>2024-07-25T09:47:16.000Z</time>
</trkpt>
<trkpt lat="46.1237660" lon="10.5020120">
	<ele>2132.00</ele>
	<time>2024-07-25T09:47:17.000Z</time>
</trkpt>
<trkpt lat="46.1237660" lon="10.5020130">
	<ele>2132.00</ele>
	<time>2024-07-25T09:47:18.000Z</time>
</trkpt>
<trkpt lat="46.1237670" lon="10.5020140">
	<ele>2132.00</ele>
	<time>2024-07-25T09:47:19.000Z</time>
</trkpt>
<trkpt lat="46.1237670" lon="10.5020140">
	<ele>2132.00</ele>
	<time>2024-07-25T09:47:20.000Z</time>
</trkpt>
<trkpt lat="46.1237680" lon="10.5020150">
	<ele>2132.00</ele>
	<time>2024-07-25T09:47:21.000Z</time>
</trkpt>
<trkpt lat="46.1237680" lon="10.5020160">
	<ele>2132.00</ele>
	<time>2024-07-25T09:47:22.000Z</time>
</trkpt>
<trkpt lat="46.1237680" lon="10.5020160">
	<ele>2132.00</ele>
	<time>2024-07-25T09:47:23.000Z</time>
</trkpt>
<trkpt lat="46.1237690" lon="10.5020170">
	<ele>2132.00</ele>
	<time>2024-07-25T09:47:24.000Z</time>
</trkpt>
<trkpt lat="46.1237690" lon="10.5020180">
	<ele>2132.00</ele>
	<time>2024-07-25T09:47:25.000Z</time>
</trkpt>
<trkpt lat="46.1237690" lon="10.5020180">
	<ele>2132.00</ele>
	<time>2024-07-25T09:47:26.000Z</time>
</trkpt>
<trkpt lat="46.1237690" lon="10.5020180">
	<ele>2132.00</ele>
	<time>2024-07-25T09:47:27.000Z</time>
</trkpt>
<trkpt lat="46.1237690" lon="10.5020190">
	<ele>2132.00</ele>
	<time>2024-07-25T09:47:28.000Z</time>
</trkpt>
<trkpt lat="46.1237700" lon="10.5020190">
	<ele>2132.00</ele>
	<time>2024-07-25T09:47:29.000Z</time>
</trkpt>
<trkpt lat="46.1237700" lon="10.5020190">
	<ele>2132.00</ele>
	<time>2024-07-25T09:47:30.000Z</time>
</trkpt>
<trkpt lat="46.1237700" lon="10.5020190">
	<ele>2132.00</ele>
	<time>2024-07-25T09:47:31.000Z</time>
</trkpt>
<trkpt lat="46.1237700" lon="10.5020200">
	<ele>2132.00</ele>
	<time>2024-07-25T09:47:32.000Z</time>
</trkpt>
<trkpt lat="46.1237700" lon="10.5020200">
	<ele>2132.00</ele>
	<time>2024-07-25T09:47:33.000Z</time>
</trkpt>
<trkpt lat="46.1237700" lon="10.5020200">
	<ele>2132.00</ele>
	<time>2024-07-25T09:47:34.000Z</time>
</trkpt>
<trkpt lat="46.1237710" lon="10.5020200">
	<ele>2132.00</ele>
	<time>2024-07-25T09:47:35.000Z</time>
</trkpt>
<trkpt lat="46.1237710" lon="10.5020200">
	<ele>2132.00</ele>
	<time>2024-07-25T09:47:36.000Z</time>
</trkpt>
<trkpt lat="46.1237710" lon="10.5020200">
	<ele>2132.00</ele>
	<time>2024-07-25T09:47:37.000Z</time>
</trkpt>
<trkpt lat="46.1237710" lon="10.5020200">
	<ele>2132.00</ele>
	<time>2024-07-25T09:47:38.000Z</time>
</trkpt>
<trkpt lat="46.1237710" lon="10.5020200">
	<ele>2132.00</ele>
	<time>2024-07-25T09:47:39.000Z</time>
</trkpt>
<trkpt lat="46.1237710" lon="10.5020200">
	<ele>2132.00</ele>
	<time>2024-07-25T09:47:40.000Z</time>
</trkpt>
<trkpt lat="46.1237710" lon="10.5020200">
	<ele>2132.00</ele>
	<time>2024-07-25T09:47:41.000Z</time>
</trkpt>
<trkpt lat="46.1237710" lon="10.5020200">
	<ele>2132.00</ele>
	<time>2024-07-25T09:47:42.000Z</time>
</trkpt>
<trkpt lat="46.1237710" lon="10.5020190">
	<ele>2132.00</ele>
	<time>2024-07-25T09:47:43.000Z</time>
</trkpt>
<trkpt lat="46.1237720" lon="10.5020190">
	<ele>2132.00</ele>
	<time>2024-07-25T09:47:44.000Z</time>
</trkpt>
<trkpt lat="46.1237720" lon="10.5020180">
	<ele>2132.00</ele>
	<time>2024-07-25T09:47:45.000Z</time>
</trkpt>
<trkpt lat="46.1237720" lon="10.5020180">
	<ele>2132.00</ele>
	<time>2024-07-25T09:47:46.000Z</time>
</trkpt>
<trkpt lat="46.1237720" lon="10.5020180">
	<ele>2132.00</ele>
	<time>2024-07-25T09:47:47.000Z</time>
</trkpt>
<trkpt lat="46.1237720" lon="10.5020170">
	<ele>2132.00</ele>
	<time>2024-07-25T09:47:48.000Z</time>
</trkpt>
<trkpt lat="46.1237720" lon="10.5020170">
	<ele>2132.00</ele>
	<time>2024-07-25T09:47:49.000Z</time>
</trkpt>
<trkpt lat="46.1237720" lon="10.5020170">
	<ele>2132.00</ele>
	<time>2024-07-25T09:47:50.000Z</time>
</trkpt>
<trkpt lat="46.1237720" lon="10.5020180">
	<ele>2132.00</ele>
	<time>2024-07-25T09:47:51.000Z</time>
</trkpt>
<trkpt lat="46.1237720" lon="10.5020180">
	<ele>2132.00</ele>
	<time>2024-07-25T09:47:52.000Z</time>
</trkpt>
<trkpt lat="46.1237720" lon="10.5020180">
	<ele>2132.00</ele>
	<time>2024-07-25T09:47:53.000Z</time>
</trkpt>
<trkpt lat="46.1237720" lon="10.5020180">
	<ele>2132.00</ele>
	<time>2024-07-25T09:47:54.000Z</time>
</trkpt>
<trkpt lat="46.1237720" lon="10.5020180">
	<ele>2132.00</ele>
	<time>2024-07-25T09:47:55.000Z</time>
</trkpt>
<trkpt lat="46.1237720" lon="10.5020170">
	<ele>2132.00</ele>
	<time>2024-07-25T09:47:56.000Z</time>
</trkpt>
<trkpt lat="46.1237720" lon="10.5020170">
	<ele>2132.00</ele>
	<time>2024-07-25T09:47:57.000Z</time>
</trkpt>
<trkpt lat="46.1237720" lon="10.5020170">
	<ele>2132.00</ele>
	<time>2024-07-25T09:47:58.000Z</time>
</trkpt>
<trkpt lat="46.1237720" lon="10.5020170">
	<ele>2132.00</ele>
	<time>2024-07-25T09:47:59.000Z</time>
</trkpt>
<trkpt lat="46.1237720" lon="10.5020160">
	<ele>2132.00</ele>
	<time>2024-07-25T09:48:00.000Z</time>
</trkpt>
<trkpt lat="46.1237720" lon="10.5020160">
	<ele>2132.00</ele>
	<time>2024-07-25T09:48:01.000Z</time>
</trkpt>
<trkpt lat="46.1237720" lon="10.5020160">
	<ele>2132.00</ele>
	<time>2024-07-25T09:48:02.000Z</time>
</trkpt>
<trkpt lat="46.1237720" lon="10.5020150">
	<ele>2132.00</ele>
	<time>2024-07-25T09:48:03.000Z</time>
</trkpt>
<trkpt lat="46.1237720" lon="10.5020150">
	<ele>2132.00</ele>
	<time>2024-07-25T09:48:04.000Z</time>
</trkpt>
<trkpt lat="46.1237720" lon="10.5020150">
	<ele>2132.00</ele>
	<time>2024-07-25T09:48:05.000Z</time>
</trkpt>
<trkpt lat="46.1237730" lon="10.5020150">
	<ele>2132.00</ele>
	<time>2024-07-25T09:48:06.000Z</time>
</trkpt>
<trkpt lat="46.1237730" lon="10.5020150">
	<ele>2132.00</ele>
	<time>2024-07-25T09:48:07.000Z</time>
</trkpt>
<trkpt lat="46.1237730" lon="10.5020150">
	<ele>2132.00</ele>
	<time>2024-07-25T09:48:08.000Z</time>
</trkpt>
<trkpt lat="46.1237730" lon="10.5020150">
	<ele>2132.00</ele>
	<time>2024-07-25T09:48:09.000Z</time>
</trkpt>
<trkpt lat="46.1237730" lon="10.5020150">
	<ele>2132.00</ele>
	<time>2024-07-25T09:48:10.000Z</time>
</trkpt>
<trkpt lat="46.1237730" lon="10.5020150">
	<ele>2132.00</ele>
	<time>2024-07-25T09:48:11.000Z</time>
</trkpt>
<trkpt lat="46.1237730" lon="10.5020150">
	<ele>2132.00</ele>
	<time>2024-07-25T09:48:12.000Z</time>
</trkpt>
<trkpt lat="46.1237730" lon="10.5020150">
	<ele>2132.00</ele>
	<time>2024-07-25T09:48:13.000Z</time>
</trkpt>
<trkpt lat="46.1237730" lon="10.5020140">
	<ele>2132.00</ele>
	<time>2024-07-25T09:48:14.000Z</time>
</trkpt>
<trkpt lat="46.1237730" lon="10.5020140">
	<ele>2132.00</ele>
	<time>2024-07-25T09:48:15.000Z</time>
</trkpt>
<trkpt lat="46.1237730" lon="10.5020140">
	<ele>2132.00</ele>
	<time>2024-07-25T09:48:16.000Z</time>
</trkpt>
<trkpt lat="46.1237730" lon="10.5020140">
	<ele>2132.00</ele>
	<time>2024-07-25T09:48:17.000Z</time>
</trkpt>
<trkpt lat="46.1237730" lon="10.5020150">
	<ele>2132.00</ele>
	<time>2024-07-25T09:48:18.000Z</time>
</trkpt>
<trkpt lat="46.1237730" lon="10.5020150">
	<ele>2132.00</ele>
	<time>2024-07-25T09:48:19.000Z</time>
</trkpt>
<trkpt lat="46.1237730" lon="10.5020150">
	<ele>2132.00</ele>
	<time>2024-07-25T09:48:20.000Z</time>
</trkpt>
<trkpt lat="46.1237730" lon="10.5020150">
	<ele>2132.00</ele>
	<time>2024-07-25T09:48:21.000Z</time>
</trkpt>
<trkpt lat="46.1237730" lon="10.5020140">
	<ele>2132.00</ele>
	<time>2024-07-25T09:48:22.000Z</time>
</trkpt>
<trkpt lat="46.1237730" lon="10.5020140">
	<ele>2132.00</ele>
	<time>2024-07-25T09:48:23.000Z</time>
</trkpt>
<trkpt lat="46.1237730" lon="10.5020140">
	<ele>2132.00</ele>
	<time>2024-07-25T09:48:24.000Z</time>
</trkpt>
<trkpt lat="46.1237730" lon="10.5020140">
	<ele>2132.00</ele>
	<time>2024-07-25T09:48:25.000Z</time>
</trkpt>
<trkpt lat="46.1237730" lon="10.5020140">
	<ele>2132.00</ele>
	<time>2024-07-25T09:48:26.000Z</time>
</trkpt>
<trkpt lat="46.1237730" lon="10.5020130">
	<ele>2132.00</ele>
	<time>2024-07-25T09:48:27.000Z</time>
</trkpt>
<trkpt lat="46.1237730" lon="10.5020130">
	<ele>2132.00</ele>
	<time>2024-07-25T09:48:28.000Z</time>
</trkpt>
<trkpt lat="46.1237730" lon="10.5020130">
	<ele>2132.00</ele>
	<time>2024-07-25T09:48:29.000Z</time>
</trkpt>
<trkpt lat="46.1237730" lon="10.5020130">
	<ele>2132.00</ele>
	<time>2024-07-25T09:48:30.000Z</time>
</trkpt>
<trkpt lat="46.1237730" lon="10.5020130">
	<ele>2132.00</ele>
	<time>2024-07-25T09:48:31.000Z</time>
</trkpt>
<trkpt lat="46.1237730" lon="10.5020120">
	<ele>2132.00</ele>
	<time>2024-07-25T09:48:32.000Z</time>
</trkpt>
<trkpt lat="46.1237730" lon="10.5020130">
	<ele>2132.00</ele>
	<time>2024-07-25T09:48:33.000Z</time>
</trkpt>
<trkpt lat="46.1237730" lon="10.5020130">
	<ele>2132.00</ele>
	<time>2024-07-25T09:48:34.000Z</time>
</trkpt>
<trkpt lat="46.1237730" lon="10.5020120">
	<ele>2132.00</ele>
	<time>2024-07-25T09:48:35.000Z</time>
</trkpt>
<trkpt lat="46.1237730" lon="10.5020120">
	<ele>2132.00</ele>
	<time>2024-07-25T09:48:36.000Z</time>
</trkpt>
<trkpt lat="46.1237730" lon="10.5020120">
	<ele>2132.00</ele>
	<time>2024-07-25T09:48:37.000Z</time>
</trkpt>
<trkpt lat="46.1237730" lon="10.5020120">
	<ele>2132.00</ele>
	<time>2024-07-25T09:48:38.000Z</time>
</trkpt>
<trkpt lat="46.1237730" lon="10.5020120">
	<ele>2132.00</ele>
	<time>2024-07-25T09:48:39.000Z</time>
</trkpt>
<trkpt lat="46.1237730" lon="10.5020120">
	<ele>2132.00</ele>
	<time>2024-07-25T09:48:40.000Z</time>
</trkpt>
<trkpt lat="46.1237730" lon="10.5020120">
	<ele>2132.00</ele>
	<time>2024-07-25T09:48:41.000Z</time>
</trkpt>
<trkpt lat="46.1237730" lon="10.5020120">
	<ele>2132.00</ele>
	<time>2024-07-25T09:48:42.000Z</time>
</trkpt>
<trkpt lat="46.1237730" lon="10.5020130">
	<ele>2132.00</ele>
	<time>2024-07-25T09:48:43.000Z</time>
</trkpt>
<trkpt lat="46.1237730" lon="10.5020130">
	<ele>2132.00</ele>
	<time>2024-07-25T09:48:44.000Z</time>
</trkpt>
<trkpt lat="46.1237730" lon="10.5020130">
	<ele>2132.00</ele>
	<time>2024-07-25T09:48:45.000Z</time>
</trkpt>
<trkpt lat="46.1237730" lon="10.5020130">
	<ele>2132.00</ele>
	<time>2024-07-25T09:48:46.000Z</time>
</trkpt>
<trkpt lat="46.1237730" lon="10.5020130">
	<ele>2132.00</ele>
	<time>2024-07-25T09:48:47.000Z</time>
</trkpt>
<trkpt lat="46.1237730" lon="10.5020130">
	<ele>2132.00</ele>
	<time>2024-07-25T09:48:48.000Z</time>
</trkpt>
<trkpt lat="46.1237740" lon="10.5020130">
	<ele>2132.00</ele>
	<time>2024-07-25T09:48:49.000Z</time>
</trkpt>
<trkpt lat="46.1237740" lon="10.5020130">
	<ele>2132.00</ele>
	<time>2024-07-25T09:48:50.000Z</time>
</trkpt>
<trkpt lat="46.1237740" lon="10.5020130">
	<ele>2132.00</ele>
	<time>2024-07-25T09:48:51.000Z</time>
</trkpt>
<trkpt lat="46.1237740" lon="10.5020120">
	<ele>2132.00</ele>
	<time>2024-07-25T09:48:52.000Z</time>
</trkpt>
<trkpt lat="46.1237740" lon="10.5020120">
	<ele>2132.00</ele>
	<time>2024-07-25T09:48:53.000Z</time>
</trkpt>
<trkpt lat="46.1237740" lon="10.5020120">
	<ele>2132.00</ele>
	<time>2024-07-25T09:48:54.000Z</time>
</trkpt>
<trkpt lat="46.1237740" lon="10.5020120">
	<ele>2132.00</ele>
	<time>2024-07-25T09:48:55.000Z</time>
</trkpt>
<trkpt lat="46.1237740" lon="10.5020120">
	<ele>2132.00</ele>
	<time>2024-07-25T09:48:56.000Z</time>
</trkpt>
<trkpt lat="46.1237740" lon="10.5020120">
	<ele>2132.00</ele>
	<time>2024-07-25T09:48:57.000Z</time>
</trkpt>
<trkpt lat="46.1237740" lon="10.5020110">
	<ele>2132.00</ele>
	<time>2024-07-25T09:48:58.000Z</time>
</trkpt>
<trkpt lat="46.1237740" lon="10.5020110">
	<ele>2132.00</ele>
	<time>2024-07-25T09:48:59.000Z</time>
</trkpt>
<trkpt lat="46.1237740" lon="10.5020110">
	<ele>2132.00</ele>
	<time>2024-07-25T09:49:00.000Z</time>
</trkpt>
<trkpt lat="46.1237740" lon="10.5020110">
	<ele>2132.00</ele>
	<time>2024-07-25T09:49:01.000Z</time>
</trkpt>
<trkpt lat="46.1237740" lon="10.5020110">
	<ele>2132.00</ele>
	<time>2024-07-25T09:49:02.000Z</time>
</trkpt>
<trkpt lat="46.1237740" lon="10.5020110">
	<ele>2132.00</ele>
	<time>2024-07-25T09:49:03.000Z</time>
</trkpt>
<trkpt lat="46.1237740" lon="10.5020120">
	<ele>2132.00</ele>
	<time>2024-07-25T09:49:04.000Z</time>
</trkpt>
<trkpt lat="46.1237740" lon="10.5020120">
	<ele>2132.00</ele>
	<time>2024-07-25T09:49:05.000Z</time>
</trkpt>
<trkpt lat="46.1237740" lon="10.5020120">
	<ele>2132.00</ele>
	<time>2024-07-25T09:49:06.000Z</time>
</trkpt>
<trkpt lat="46.1237740" lon="10.5020130">
	<ele>2132.00</ele>
	<time>2024-07-25T09:49:07.000Z</time>
</trkpt>
<trkpt lat="46.1237740" lon="10.5020130">
	<ele>2132.00</ele>
	<time>2024-07-25T09:49:08.000Z</time>
</trkpt>
<trkpt lat="46.1237740" lon="10.5020130">
	<ele>2132.00</ele>
	<time>2024-07-25T09:49:09.000Z</time>
</trkpt>
<trkpt lat="46.1237740" lon="10.5020130">
	<ele>2132.00</ele>
	<time>2024-07-25T09:49:10.000Z</time>
</trkpt>
<trkpt lat="46.1237740" lon="10.5020130">
	<ele>2132.00</ele>
	<time>2024-07-25T09:49:11.000Z</time>
</trkpt>
<trkpt lat="46.1237740" lon="10.5020130">
	<ele>2132.00</ele>
	<time>2024-07-25T09:49:12.000Z</time>
</trkpt>
<trkpt lat="46.1237740" lon="10.5020130">
	<ele>2132.00</ele>
	<time>2024-07-25T09:49:13.000Z</time>
</trkpt>
<trkpt lat="46.1237740" lon="10.5020130">
	<ele>2132.00</ele>
	<time>2024-07-25T09:49:14.000Z</time>
</trkpt>
<trkpt lat="46.1237740" lon="10.5020130">
	<ele>2132.00</ele>
	<time>2024-07-25T09:49:15.000Z</time>
</trkpt>
<trkpt lat="46.1237740" lon="10.5020130">
	<ele>2132.00</ele>
	<time>2024-07-25T09:49:16.000Z</time>
</trkpt>
<trkpt lat="46.1237740" lon="10.5020130">
	<ele>2132.00</ele>
	<time>2024-07-25T09:49:17.000Z</time>
</trkpt>
<trkpt lat="46.1237740" lon="10.5020130">
	<ele>2132.00</ele>
	<time>2024-07-25T09:49:18.000Z</time>
</trkpt>
<trkpt lat="46.1237740" lon="10.5020130">
	<ele>2132.00</ele>
	<time>2024-07-25T09:49:19.000Z</time>
</trkpt>
<trkpt lat="46.1237740" lon="10.5020130">
	<ele>2132.00</ele>
	<time>2024-07-25T09:49:20.000Z</time>
</trkpt>
<trkpt lat="46.1237740" lon="10.5020130">
	<ele>2132.00</ele>
	<time>2024-07-25T09:49:21.000Z</time>
</trkpt>
<trkpt lat="46.1237740" lon="10.5020130">
	<ele>2132.00</ele>
	<time>2024-07-25T09:49:22.000Z</time>
</trkpt>
<trkpt lat="46.1237740" lon="10.5020130">
	<ele>2132.00</ele>
	<time>2024-07-25T09:49:23.000Z</time>
</trkpt>
<trkpt lat="46.1237740" lon="10.5020130">
	<ele>2132.00</ele>
	<time>2024-07-25T09:49:24.000Z</time>
</trkpt>
<trkpt lat="46.1237740" lon="10.5020130">
	<ele>2132.00</ele>
	<time>2024-07-25T09:49:25.000Z</time>
</trkpt>
<trkpt lat="46.1237740" lon="10.5020120">
	<ele>2132.00</ele>
	<time>2024-07-25T09:49:26.000Z</time>
</trkpt>
<trkpt lat="46.1237740" lon="10.5020130">
	<ele>2132.00</ele>
	<time>2024-07-25T09:49:27.000Z</time>
</trkpt>
<trkpt lat="46.1237750" lon="10.5020120">
	<ele>2132.00</ele>
	<time>2024-07-25T09:49:28.000Z</time>
</trkpt>
<trkpt lat="46.1237750" lon="10.5020120">
	<ele>2132.00</ele>
	<time>2024-07-25T09:49:29.000Z</time>
</trkpt>
<trkpt lat="46.1237750" lon="10.5020120">
	<ele>2132.00</ele>
	<time>2024-07-25T09:49:30.000Z</time>
</trkpt>
<trkpt lat="46.1237750" lon="10.5020120">
	<ele>2132.00</ele>
	<time>2024-07-25T09:49:31.000Z</time>
</trkpt>
<trkpt lat="46.1237740" lon="10.5020120">
	<ele>2132.00</ele>
	<time>2024-07-25T09:49:32.000Z</time>
</trkpt>
<trkpt lat="46.1237750" lon="10.5020120">
	<ele>2132.00</ele>
	<time>2024-07-25T09:49:33.000Z</time>
</trkpt>
<trkpt lat="46.1237750" lon="10.5020120">
	<ele>2132.00</ele>
	<time>2024-07-25T09:49:34.000Z</time>
</trkpt>
<trkpt lat="46.1237750" lon="10.5020120">
	<ele>2132.00</ele>
	<time>2024-07-25T09:49:35.000Z</time>
</trkpt>
<trkpt lat="46.1237750" lon="10.5020120">
	<ele>2132.00</ele>
	<time>2024-07-25T09:49:36.000Z</time>
</trkpt>
<trkpt lat="46.1237750" lon="10.5020120">
	<ele>2132.00</ele>
	<time>2024-07-25T09:49:37.000Z</time>
</trkpt>
<trkpt lat="46.1237750" lon="10.5020120">
	<ele>2132.00</ele>
	<time>2024-07-25T09:49:38.000Z</time>
</trkpt>
<trkpt lat="46.1237750" lon="10.5020120">
	<ele>2132.00</ele>
	<time>2024-07-25T09:49:39.000Z</time>
</trkpt>
<trkpt lat="46.1237750" lon="10.5020110">
	<ele>2132.00</ele>
	<time>2024-07-25T09:49:40.000Z</time>
</trkpt>
<trkpt lat="46.1237750" lon="10.5020110">
	<ele>2132.00</ele>
	<time>2024-07-25T09:49:41.000Z</time>
</trkpt>
<trkpt lat="46.1237740" lon="10.5020110">
	<ele>2132.00</ele>
	<time>2024-07-25T09:49:42.000Z</time>
</trkpt>
<trkpt lat="46.1237750" lon="10.5020110">
	<ele>2132.00</ele>
	<time>2024-07-25T09:49:43.000Z</time>
</trkpt>
<trkpt lat="46.1237750" lon="10.5020110">
	<ele>2132.00</ele>
	<time>2024-07-25T09:49:44.000Z</time>
</trkpt>
<trkpt lat="46.1237740" lon="10.5020110">
	<ele>2132.00</ele>
	<time>2024-07-25T09:49:45.000Z</time>
</trkpt>
<trkpt lat="46.1237750" lon="10.5020120">
	<ele>2132.00</ele>
	<time>2024-07-25T09:49:46.000Z</time>
</trkpt>
<trkpt lat="46.1237750" lon="10.5020120">
	<ele>2132.00</ele>
	<time>2024-07-25T09:49:47.000Z</time>
</trkpt>
<trkpt lat="46.1237750" lon="10.5020110">
	<ele>2132.00</ele>
	<time>2024-07-25T09:49:48.000Z</time>
</trkpt>
<trkpt lat="46.1237750" lon="10.5020110">
	<ele>2132.00</ele>
	<time>2024-07-25T09:49:49.000Z</time>
</trkpt>
<trkpt lat="46.1237750" lon="10.5020110">
	<ele>2132.00</ele>
	<time>2024-07-25T09:49:50.000Z</time>
</trkpt>
<trkpt lat="46.1237750" lon="10.5020100">
	<ele>2132.00</ele>
	<time>2024-07-25T09:49:51.000Z</time>
</trkpt>
<trkpt lat="46.1237750" lon="10.5020100">
	<ele>2132.00</ele>
	<time>2024-07-25T09:49:52.000Z</time>
</trkpt>
<trkpt lat="46.1237750" lon="10.5020100">
	<ele>2132.00</ele>
	<time>2024-07-25T09:49:53.000Z</time>
</trkpt>
<trkpt lat="46.1237760" lon="10.5020100">
	<ele>2132.00</ele>
	<time>2024-07-25T09:49:54.000Z</time>
</trkpt>
<trkpt lat="46.1237760" lon="10.5020100">
	<ele>2132.00</ele>
	<time>2024-07-25T09:49:55.000Z</time>
</trkpt>
<trkpt lat="46.1237760" lon="10.5020100">
	<ele>2132.00</ele>
	<time>2024-07-25T09:49:56.000Z</time>
</trkpt>
<trkpt lat="46.1237760" lon="10.5020100">
	<ele>2132.00</ele>
	<time>2024-07-25T09:49:57.000Z</time>
</trkpt>
<trkpt lat="46.1237760" lon="10.5020100">
	<ele>2132.00</ele>
	<time>2024-07-25T09:49:58.000Z</time>
</trkpt>
<trkpt lat="46.1237760" lon="10.5020100">
	<ele>2132.00</ele>
	<time>2024-07-25T09:49:59.000Z</time>
</trkpt>
<trkpt lat="46.1237760" lon="10.5020100">
	<ele>2132.00</ele>
	<time>2024-07-25T09:50:00.000Z</time>
</trkpt>
<trkpt lat="46.1237760" lon="10.5020100">
	<ele>2132.00</ele>
	<time>2024-07-25T09:50:01.000Z</time>
</trkpt>
<trkpt lat="46.1237750" lon="10.5020100">
	<ele>2132.00</ele>
	<time>2024-07-25T09:50:02.000Z</time>
</trkpt>
<trkpt lat="46.1237750" lon="10.5020100">
	<ele>2132.00</ele>
	<time>2024-07-25T09:50:03.000Z</time>
</trkpt>
<trkpt lat="46.1237760" lon="10.5020090">
	<ele>2132.00</ele>
	<time>2024-07-25T09:50:04.000Z</time>
</trkpt>
<trkpt lat="46.1237760" lon="10.5020090">
	<ele>2132.00</ele>
	<time>2024-07-25T09:50:05.000Z</time>
</trkpt>
<trkpt lat="46.1237760" lon="10.5020090">
	<ele>2132.00</ele>
	<time>2024-07-25T09:50:06.000Z</time>
</trkpt>
<trkpt lat="46.1237760" lon="10.5020090">
	<ele>2132.00</ele>
	<time>2024-07-25T09:50:07.000Z</time>
</trkpt>
<trkpt lat="46.1237760" lon="10.5020090">
	<ele>2132.00</ele>
	<time>2024-07-25T09:50:08.000Z</time>
</trkpt>
<trkpt lat="46.1237770" lon="10.5020090">
	<ele>2132.00</ele>
	<time>2024-07-25T09:50:09.000Z</time>
</trkpt>
<trkpt lat="46.1237770" lon="10.5020090">
	<ele>2132.00</ele>
	<time>2024-07-25T09:50:10.000Z</time>
</trkpt>
<trkpt lat="46.1237770" lon="10.5020090">
	<ele>2132.00</ele>
	<time>2024-07-25T09:50:11.000Z</time>
</trkpt>
<trkpt lat="46.1237770" lon="10.5020090">
	<ele>2132.00</ele>
	<time>2024-07-25T09:50:12.000Z</time>
</trkpt>
<trkpt lat="46.1237770" lon="10.5020090">
	<ele>2132.00</ele>
	<time>2024-07-25T09:50:13.000Z</time>
</trkpt>
<trkpt lat="46.1237770" lon="10.5020090">
	<ele>2132.00</ele>
	<time>2024-07-25T09:50:14.000Z</time>
</trkpt>
<trkpt lat="46.1237770" lon="10.5020090">
	<ele>2132.00</ele>
	<time>2024-07-25T09:50:15.000Z</time>
</trkpt>
<trkpt lat="46.1237770" lon="10.5020090">
	<ele>2132.00</ele>
	<time>2024-07-25T09:50:16.000Z</time>
</trkpt>
<trkpt lat="46.1237770" lon="10.5020090">
	<ele>2132.00</ele>
	<time>2024-07-25T09:50:17.000Z</time>
</trkpt>
<trkpt lat="46.1237770" lon="10.5020090">
	<ele>2132.00</ele>
	<time>2024-07-25T09:50:18.000Z</time>
</trkpt>
<trkpt lat="46.1237770" lon="10.5020090">
	<ele>2132.00</ele>
	<time>2024-07-25T09:50:19.000Z</time>
</trkpt>
<trkpt lat="46.1237770" lon="10.5020090">
	<ele>2132.00</ele>
	<time>2024-07-25T09:50:20.000Z</time>
</trkpt>
<trkpt lat="46.1237770" lon="10.5020090">
	<ele>2132.00</ele>
	<time>2024-07-25T09:50:21.000Z</time>
</trkpt>
<trkpt lat="46.1237770" lon="10.5020090">
	<ele>2132.00</ele>
	<time>2024-07-25T09:50:22.000Z</time>
</trkpt>
<trkpt lat="46.1237770" lon="10.5020090">
	<ele>2132.00</ele>
	<time>2024-07-25T09:50:23.000Z</time>
</trkpt>
<trkpt lat="46.1237770" lon="10.5020090">
	<ele>2132.00</ele>
	<time>2024-07-25T09:50:24.000Z</time>
</trkpt>
<trkpt lat="46.1237770" lon="10.5020090">
	<ele>2132.00</ele>
	<time>2024-07-25T09:50:25.000Z</time>
</trkpt>
<trkpt lat="46.1237770" lon="10.5020090">
	<ele>2132.00</ele>
	<time>2024-07-25T09:50:26.000Z</time>
</trkpt>
<trkpt lat="46.1237770" lon="10.5020090">
	<ele>2132.00</ele>
	<time>2024-07-25T09:50:27.000Z</time>
</trkpt>
<trkpt lat="46.1237770" lon="10.5020090">
	<ele>2132.00</ele>
	<time>2024-07-25T09:50:28.000Z</time>
</trkpt>
<trkpt lat="46.1237770" lon="10.5020090">
	<ele>2132.00</ele>
	<time>2024-07-25T09:50:29.000Z</time>
</trkpt>
<trkpt lat="46.1237770" lon="10.5020090">
	<ele>2132.00</ele>
	<time>2024-07-25T09:50:30.000Z</time>
</trkpt>
<trkpt lat="46.1237770" lon="10.5020090">
	<ele>2132.00</ele>
	<time>2024-07-25T09:50:31.000Z</time>
</trkpt>
<trkpt lat="46.1237770" lon="10.5020090">
	<ele>2132.00</ele>
	<time>2024-07-25T09:50:32.000Z</time>
</trkpt>
<trkpt lat="46.1237770" lon="10.5020090">
	<ele>2132.00</ele>
	<time>2024-07-25T09:50:33.000Z</time>
</trkpt>
<trkpt lat="46.1237770" lon="10.5020090">
	<ele>2132.00</ele>
	<time>2024-07-25T09:50:34.000Z</time>
</trkpt>
<trkpt lat="46.1237770" lon="10.5020090">
	<ele>2132.00</ele>
	<time>2024-07-25T09:50:35.000Z</time>
</trkpt>
<trkpt lat="46.1237770" lon="10.5020090">
	<ele>2132.00</ele>
	<time>2024-07-25T09:50:36.000Z</time>
</trkpt>
<trkpt lat="46.1237770" lon="10.5020090">
	<ele>2132.00</ele>
	<time>2024-07-25T09:50:37.000Z</time>
</trkpt>
<trkpt lat="46.1237770" lon="10.5020090">
	<ele>2132.00</ele>
	<time>2024-07-25T09:50:38.000Z</time>
</trkpt>
<trkpt lat="46.1237770" lon="10.5020090">
	<ele>2132.00</ele>
	<time>2024-07-25T09:50:39.000Z</time>
</trkpt>
<trkpt lat="46.1237800" lon="10.5020120">
	<ele>2132.00</ele>
	<time>2024-07-25T09:50:40.000Z</time>
</trkpt>
<trkpt lat="46.1237830" lon="10.5020220">
	<ele>2132.00</ele>
	<time>2024-07-25T09:50:41.000Z</time>
</trkpt>
<trkpt lat="46.1237840" lon="10.5020240">
	<ele>2132.00</ele>
	<time>2024-07-25T09:50:42.000Z</time>
</trkpt>
<trkpt lat="46.1237850" lon="10.5020190">
	<ele>2132.00</ele>
	<time>2024-07-25T09:50:43.000Z</time>
</trkpt>
<trkpt lat="46.1237890" lon="10.5020230">
	<ele>2132.00</ele>
	<time>2024-07-25T09:50:44.000Z</time>
</trkpt>
<trkpt lat="46.1237890" lon="10.5020230">
	<ele>2132.00</ele>
	<time>2024-07-25T09:50:45.000Z</time>
</trkpt>
<trkpt lat="46.1237890" lon="10.5020230">
	<ele>2132.00</ele>
	<time>2024-07-25T09:50:46.000Z</time>
</trkpt>
<trkpt lat="46.1237890" lon="10.5020230">
	<ele>2132.00</ele>
	<time>2024-07-25T09:50:47.000Z</time>
</trkpt>
<trkpt lat="46.1237890" lon="10.5020230">
	<ele>2132.00</ele>
	<time>2024-07-25T09:50:48.000Z</time>
</trkpt>
<trkpt lat="46.1237890" lon="10.5020230">
	<ele>2132.00</ele>
	<time>2024-07-25T09:50:49.000Z</time>
</trkpt>
<trkpt lat="46.1237860" lon="10.5020240">
	<ele>2132.00</ele>
	<time>2024-07-25T09:50:50.000Z</time>
</trkpt>
<trkpt lat="46.1237840" lon="10.5020170">
	<ele>2132.00</ele>
	<time>2024-07-25T09:50:51.000Z</time>
</trkpt>
<trkpt lat="46.1237790" lon="10.5020100">
	<ele>2132.00</ele>
	<time>2024-07-25T09:50:52.000Z</time>
</trkpt>
<trkpt lat="46.1237760" lon="10.5020000">
	<ele>2132.00</ele>
	<time>2024-07-25T09:50:53.000Z</time>
</trkpt>
<trkpt lat="46.1237760" lon="10.5019980">
	<ele>2132.00</ele>
	<time>2024-07-25T09:50:54.000Z</time>
</trkpt>
<trkpt lat="46.1237810" lon="10.5019840">
	<ele>2132.00</ele>
	<time>2024-07-25T09:50:55.000Z</time>
</trkpt>
<trkpt lat="46.1237760" lon="10.5019840">
	<ele>2132.00</ele>
	<time>2024-07-25T09:50:56.000Z</time>
</trkpt>
<trkpt lat="46.1237710" lon="10.5019800">
	<ele>2132.00</ele>
	<time>2024-07-25T09:50:57.000Z</time>
</trkpt>
<trkpt lat="46.1237710" lon="10.5019800">
	<ele>2132.00</ele>
	<time>2024-07-25T09:50:58.000Z</time>
</trkpt>
<trkpt lat="46.1237720" lon="10.5019730">
	<ele>2132.00</ele>
	<time>2024-07-25T09:50:59.000Z</time>
</trkpt>
<trkpt lat="46.1237720" lon="10.5019730">
	<ele>2132.00</ele>
	<time>2024-07-25T09:51:00.000Z</time>
</trkpt>
<trkpt lat="46.1237720" lon="10.5019730">
	<ele>2132.00</ele>
	<time>2024-07-25T09:51:01.000Z</time>
</trkpt>
<trkpt lat="46.1237720" lon="10.5019730">
	<ele>2132.00</ele>
	<time>2024-07-25T09:51:02.000Z</time>
</trkpt>
<trkpt lat="46.1237720" lon="10.5019730">
	<ele>2132.00</ele>
	<time>2024-07-25T09:51:03.000Z</time>
</trkpt>
<trkpt lat="46.1237720" lon="10.5019730">
	<ele>2132.00</ele>
	<time>2024-07-25T09:51:04.000Z</time>
</trkpt>
<trkpt lat="46.1237720" lon="10.5019730">
	<ele>2132.00</ele>
	<time>2024-07-25T09:51:05.000Z</time>
</trkpt>
<trkpt lat="46.1237720" lon="10.5019730">
	<ele>2132.00</ele>
	<time>2024-07-25T09:51:06.000Z</time>
</trkpt>
<trkpt lat="46.1237720" lon="10.5019730">
	<ele>2132.00</ele>
	<time>2024-07-25T09:51:07.000Z</time>
</trkpt>
<trkpt lat="46.1237720" lon="10.5019730">
	<ele>2132.00</ele>
	<time>2024-07-25T09:51:08.000Z</time>
</trkpt>
<trkpt lat="46.1237720" lon="10.5019730">
	<ele>2132.00</ele>
	<time>2024-07-25T09:51:09.000Z</time>
</trkpt>
<trkpt lat="46.1237720" lon="10.5019730">
	<ele>2132.00</ele>
	<time>2024-07-25T09:51:10.000Z</time>
</trkpt>
<trkpt lat="46.1237720" lon="10.5019730">
	<ele>2132.00</ele>
	<time>2024-07-25T09:51:11.000Z</time>
</trkpt>
<trkpt lat="46.1237720" lon="10.5019740">
	<ele>2132.00</ele>
	<time>2024-07-25T09:51:12.000Z</time>
</trkpt>
<trkpt lat="46.1237720" lon="10.5019780">
	<ele>2132.00</ele>
	<time>2024-07-25T09:51:13.000Z</time>
</trkpt>
<trkpt lat="46.1237710" lon="10.5019790">
	<ele>2132.00</ele>
	<time>2024-07-25T09:51:14.000Z</time>
</trkpt>
<trkpt lat="46.1237710" lon="10.5019790">
	<ele>2132.00</ele>
	<time>2024-07-25T09:51:15.000Z</time>
</trkpt>
<trkpt lat="46.1237690" lon="10.5019800">
	<ele>2132.00</ele>
	<time>2024-07-25T09:51:16.000Z</time>
</trkpt>
<trkpt lat="46.1237650" lon="10.5019810">
	<ele>2132.00</ele>
	<time>2024-07-25T09:51:17.000Z</time>
</trkpt>
<trkpt lat="46.1237630" lon="10.5019820">
	<ele>2132.00</ele>
	<time>2024-07-25T09:51:18.000Z</time>
</trkpt>
<trkpt lat="46.1237610" lon="10.5019820">
	<ele>2132.00</ele>
	<time>2024-07-25T09:51:19.000Z</time>
</trkpt>
<trkpt lat="46.1237580" lon="10.5019830">
	<ele>2132.00</ele>
	<time>2024-07-25T09:51:20.000Z</time>
</trkpt>
<trkpt lat="46.1237550" lon="10.5019830">
	<ele>2132.00</ele>
	<time>2024-07-25T09:51:21.000Z</time>
</trkpt>
<trkpt lat="46.1237540" lon="10.5019830">
	<ele>2132.00</ele>
	<time>2024-07-25T09:51:22.000Z</time>
</trkpt>
<trkpt lat="46.1237530" lon="10.5019830">
	<ele>2132.00</ele>
	<time>2024-07-25T09:51:23.000Z</time>
</trkpt>
<trkpt lat="46.1237520" lon="10.5019830">
	<ele>2132.00</ele>
	<time>2024-07-25T09:51:24.000Z</time>
</trkpt>
<trkpt lat="46.1237520" lon="10.5019830">
	<ele>2132.00</ele>
	<time>2024-07-25T09:51:25.000Z</time>
</trkpt>
<trkpt lat="46.1237520" lon="10.5019830">
	<ele>2132.00</ele>
	<time>2024-07-25T09:51:26.000Z</time>
</trkpt>
<trkpt lat="46.1237520" lon="10.5019830">
	<ele>2132.00</ele>
	<time>2024-07-25T09:51:27.000Z</time>
</trkpt>
<trkpt lat="46.1237520" lon="10.5019860">
	<ele>2132.00</ele>
	<time>2024-07-25T09:51:28.000Z</time>
</trkpt>
<trkpt lat="46.1237520" lon="10.5019920">
	<ele>2132.00</ele>
	<time>2024-07-25T09:51:29.000Z</time>
</trkpt>
<trkpt lat="46.1237510" lon="10.5019920">
	<ele>2132.00</ele>
	<time>2024-07-25T09:51:30.000Z</time>
</trkpt>
<trkpt lat="46.1237510" lon="10.5019940">
	<ele>2132.00</ele>
	<time>2024-07-25T09:51:31.000Z</time>
</trkpt>
<trkpt lat="46.1237500" lon="10.5019960">
	<ele>2132.00</ele>
	<time>2024-07-25T09:51:32.000Z</time>
</trkpt>
<trkpt lat="46.1237480" lon="10.5019960">
	<ele>2132.00</ele>
	<time>2024-07-25T09:51:33.000Z</time>
</trkpt>
<trkpt lat="46.1237480" lon="10.5019980">
	<ele>2132.00</ele>
	<time>2024-07-25T09:51:34.000Z</time>
</trkpt>
<trkpt lat="46.1237480" lon="10.5019980">
	<ele>2132.00</ele>
	<time>2024-07-25T09:51:35.000Z</time>
</trkpt>
<trkpt lat="46.1237470" lon="10.5020050">
	<ele>2132.00</ele>
	<time>2024-07-25T09:51:36.000Z</time>
</trkpt>
<trkpt lat="46.1237470" lon="10.5020130">
	<ele>2132.00</ele>
	<time>2024-07-25T09:51:37.000Z</time>
</trkpt>
<trkpt lat="46.1237460" lon="10.5020230">
	<ele>2132.00</ele>
	<time>2024-07-25T09:51:38.000Z</time>
</trkpt>
<trkpt lat="46.1237450" lon="10.5020280">
	<ele>2132.00</ele>
	<time>2024-07-25T09:51:39.000Z</time>
</trkpt>
<trkpt lat="46.1237450" lon="10.5020320">
	<ele>2132.00</ele>
	<time>2024-07-25T09:51:40.000Z</time>
</trkpt>
<trkpt lat="46.1237450" lon="10.5020340">
	<ele>2132.00</ele>
	<time>2024-07-25T09:51:41.000Z</time>
</trkpt>
<trkpt lat="46.1237450" lon="10.5020380">
	<ele>2132.00</ele>
	<time>2024-07-25T09:51:42.000Z</time>
</trkpt>
<trkpt lat="46.1237450" lon="10.5020420">
	<ele>2132.00</ele>
	<time>2024-07-25T09:51:43.000Z</time>
</trkpt>
<trkpt lat="46.1237450" lon="10.5020440">
	<ele>2132.00</ele>
	<time>2024-07-25T09:51:44.000Z</time>
</trkpt>
<trkpt lat="46.1237450" lon="10.5020450">
	<ele>2132.00</ele>
	<time>2024-07-25T09:51:45.000Z</time>
</trkpt>
<trkpt lat="46.1237450" lon="10.5020450">
	<ele>2132.00</ele>
	<time>2024-07-25T09:51:46.000Z</time>
</trkpt>
<trkpt lat="46.1237440" lon="10.5020490">
	<ele>2132.00</ele>
	<time>2024-07-25T09:51:47.000Z</time>
</trkpt>
<trkpt lat="46.1237440" lon="10.5020520">
	<ele>2132.00</ele>
	<time>2024-07-25T09:51:48.000Z</time>
</trkpt>
<trkpt lat="46.1237440" lon="10.5020540">
	<ele>2132.00</ele>
	<time>2024-07-25T09:51:49.000Z</time>
</trkpt>
<trkpt lat="46.1237440" lon="10.5020550">
	<ele>2132.00</ele>
	<time>2024-07-25T09:51:50.000Z</time>
</trkpt>
<trkpt lat="46.1237440" lon="10.5020560">
	<ele>2132.00</ele>
	<time>2024-07-25T09:51:51.000Z</time>
</trkpt>
<trkpt lat="46.1237440" lon="10.5020560">
	<ele>2132.00</ele>
	<time>2024-07-25T09:51:52.000Z</time>
</trkpt>
<trkpt lat="46.1237440" lon="10.5020560">
	<ele>2132.00</ele>
	<time>2024-07-25T09:51:53.000Z</time>
</trkpt>
<trkpt lat="46.1237440" lon="10.5020560">
	<ele>2132.00</ele>
	<time>2024-07-25T09:51:54.000Z</time>
</trkpt>
<trkpt lat="46.1237440" lon="10.5020560">
	<ele>2132.00</ele>
	<time>2024-07-25T09:51:55.000Z</time>
</trkpt>
<trkpt lat="46.1237440" lon="10.5020560">
	<ele>2132.00</ele>
	<time>2024-07-25T09:51:56.000Z</time>
</trkpt>
<trkpt lat="46.1237440" lon="10.5020560">
	<ele>2132.00</ele>
	<time>2024-07-25T09:51:57.000Z</time>
</trkpt>
<trkpt lat="46.1237440" lon="10.5020560">
	<ele>2132.00</ele>
	<time>2024-07-25T09:51:58.000Z</time>
</trkpt>
<trkpt lat="46.1237440" lon="10.5020560">
	<ele>2132.00</ele>
	<time>2024-07-25T09:51:59.000Z</time>
</trkpt>
<trkpt lat="46.1237440" lon="10.5020560">
	<ele>2132.00</ele>
	<time>2024-07-25T09:52:00.000Z</time>
</trkpt>
<trkpt lat="46.1237450" lon="10.5020560">
	<ele>2132.00</ele>
	<time>2024-07-25T09:52:01.000Z</time>
</trkpt>
<trkpt lat="46.1237450" lon="10.5020560">
	<ele>2132.00</ele>
	<time>2024-07-25T09:52:02.000Z</time>
</trkpt>
<trkpt lat="46.1237450" lon="10.5020560">
	<ele>2132.00</ele>
	<time>2024-07-25T09:52:03.000Z</time>
</trkpt>
<trkpt lat="46.1237450" lon="10.5020560">
	<ele>2132.00</ele>
	<time>2024-07-25T09:52:04.000Z</time>
</trkpt>
<trkpt lat="46.1237450" lon="10.5020560">
	<ele>2132.00</ele>
	<time>2024-07-25T09:52:05.000Z</time>
</trkpt>
<trkpt lat="46.1237450" lon="10.5020550">
	<ele>2132.00</ele>
	<time>2024-07-25T09:52:06.000Z</time>
</trkpt>
<trkpt lat="46.1237450" lon="10.5020540">
	<ele>2132.00</ele>
	<time>2024-07-25T09:52:07.000Z</time>
</trkpt>
<trkpt lat="46.1237450" lon="10.5020540">
	<ele>2132.00</ele>
	<time>2024-07-25T09:52:08.000Z</time>
</trkpt>
<trkpt lat="46.1237450" lon="10.5020520">
	<ele>2132.00</ele>
	<time>2024-07-25T09:52:09.000Z</time>
</trkpt>
<trkpt lat="46.1237460" lon="10.5020520">
	<ele>2132.00</ele>
	<time>2024-07-25T09:52:10.000Z</time>
</trkpt>
<trkpt lat="46.1237460" lon="10.5020500">
	<ele>2132.00</ele>
	<time>2024-07-25T09:52:11.000Z</time>
</trkpt>
<trkpt lat="46.1237470" lon="10.5020490">
	<ele>2132.00</ele>
	<time>2024-07-25T09:52:12.000Z</time>
</trkpt>
<trkpt lat="46.1237470" lon="10.5020490">
	<ele>2132.00</ele>
	<time>2024-07-25T09:52:13.000Z</time>
</trkpt>
<trkpt lat="46.1237470" lon="10.5020470">
	<ele>2132.00</ele>
	<time>2024-07-25T09:52:14.000Z</time>
</trkpt>
<trkpt lat="46.1237470" lon="10.5020440">
	<ele>2132.00</ele>
	<time>2024-07-25T09:52:15.000Z</time>
</trkpt>
<trkpt lat="46.1237490" lon="10.5020410">
	<ele>2132.00</ele>
	<time>2024-07-25T09:52:16.000Z</time>
</trkpt>
<trkpt lat="46.1237500" lon="10.5020390">
	<ele>2132.00</ele>
	<time>2024-07-25T09:52:17.000Z</time>
</trkpt>
<trkpt lat="46.1237510" lon="10.5020380">
	<ele>2132.00</ele>
	<time>2024-07-25T09:52:18.000Z</time>
</trkpt>
<trkpt lat="46.1237510" lon="10.5020330">
	<ele>2132.00</ele>
	<time>2024-07-25T09:52:19.000Z</time>
</trkpt>
<trkpt lat="46.1237520" lon="10.5020300">
	<ele>2132.00</ele>
	<time>2024-07-25T09:52:20.000Z</time>
</trkpt>
<trkpt lat="46.1237520" lon="10.5020290">
	<ele>2132.00</ele>
	<time>2024-07-25T09:52:21.000Z</time>
</trkpt>
<trkpt lat="46.1237520" lon="10.5020280">
	<ele>2132.00</ele>
	<time>2024-07-25T09:52:22.000Z</time>
</trkpt>
<trkpt lat="46.1237520" lon="10.5020270">
	<ele>2132.00</ele>
	<time>2024-07-25T09:52:23.000Z</time>
</trkpt>
<trkpt lat="46.1237520" lon="10.5020270">
	<ele>2132.00</ele>
	<time>2024-07-25T09:52:24.000Z</time>
</trkpt>
<trkpt lat="46.1237520" lon="10.5020270">
	<ele>2132.00</ele>
	<time>2024-07-25T09:52:25.000Z</time>
</trkpt>
<trkpt lat="46.1237510" lon="10.5020270">
	<ele>2132.00</ele>
	<time>2024-07-25T09:52:26.000Z</time>
</trkpt>
<trkpt lat="46.1237510" lon="10.5020270">
	<ele>2132.00</ele>
	<time>2024-07-25T09:52:27.000Z</time>
</trkpt>
<trkpt lat="46.1237510" lon="10.5020260">
	<ele>2132.00</ele>
	<time>2024-07-25T09:52:28.000Z</time>
</trkpt>
<trkpt lat="46.1237510" lon="10.5020260">
	<ele>2132.00</ele>
	<time>2024-07-25T09:52:29.000Z</time>
</trkpt>
<trkpt lat="46.1237510" lon="10.5020250">
	<ele>2132.00</ele>
	<time>2024-07-25T09:52:30.000Z</time>
</trkpt>
<trkpt lat="46.1237510" lon="10.5020240">
	<ele>2132.00</ele>
	<time>2024-07-25T09:52:31.000Z</time>
</trkpt>
<trkpt lat="46.1237510" lon="10.5020230">
	<ele>2132.00</ele>
	<time>2024-07-25T09:52:32.000Z</time>
</trkpt>
<trkpt lat="46.1237510" lon="10.5020220">
	<ele>2132.00</ele>
	<time>2024-07-25T09:52:33.000Z</time>
</trkpt>
<trkpt lat="46.1237510" lon="10.5020220">
	<ele>2132.00</ele>
	<time>2024-07-25T09:52:34.000Z</time>
</trkpt>
<trkpt lat="46.1237510" lon="10.5020200">
	<ele>2132.00</ele>
	<time>2024-07-25T09:52:35.000Z</time>
</trkpt>
<trkpt lat="46.1237500" lon="10.5020160">
	<ele>2132.00</ele>
	<time>2024-07-25T09:52:36.000Z</time>
</trkpt>
<trkpt lat="46.1237490" lon="10.5020140">
	<ele>2132.00</ele>
	<time>2024-07-25T09:52:37.000Z</time>
</trkpt>
<trkpt lat="46.1237490" lon="10.5020130">
	<ele>2132.00</ele>
	<time>2024-07-25T09:52:38.000Z</time>
</trkpt>
<trkpt lat="46.1237480" lon="10.5020130">
	<ele>2132.00</ele>
	<time>2024-07-25T09:52:39.000Z</time>
</trkpt>
<trkpt lat="46.1237470" lon="10.5020120">
	<ele>2132.00</ele>
	<time>2024-07-25T09:52:40.000Z</time>
</trkpt>
<trkpt lat="46.1237470" lon="10.5020120">
	<ele>2132.00</ele>
	<time>2024-07-25T09:52:41.000Z</time>
</trkpt>
<trkpt lat="46.1237460" lon="10.5020120">
	<ele>2132.00</ele>
	<time>2024-07-25T09:52:42.000Z</time>
</trkpt>
<trkpt lat="46.1237450" lon="10.5020120">
	<ele>2132.00</ele>
	<time>2024-07-25T09:52:43.000Z</time>
</trkpt>
<trkpt lat="46.1237450" lon="10.5020120">
	<ele>2132.00</ele>
	<time>2024-07-25T09:52:44.000Z</time>
</trkpt>
<trkpt lat="46.1237450" lon="10.5020120">
	<ele>2132.00</ele>
	<time>2024-07-25T09:52:45.000Z</time>
</trkpt>
<trkpt lat="46.1237450" lon="10.5020120">
	<ele>2132.00</ele>
	<time>2024-07-25T09:52:46.000Z</time>
</trkpt>
<trkpt lat="46.1237450" lon="10.5020120">
	<ele>2132.00</ele>
	<time>2024-07-25T09:52:47.000Z</time>
</trkpt>
<trkpt lat="46.1237450" lon="10.5020120">
	<ele>2132.00</ele>
	<time>2024-07-25T09:52:48.000Z</time>
</trkpt>
<trkpt lat="46.1237450" lon="10.5020120">
	<ele>2132.00</ele>
	<time>2024-07-25T09:52:49.000Z</time>
</trkpt>
<trkpt lat="46.1237450" lon="10.5020120">
	<ele>2132.00</ele>
	<time>2024-07-25T09:52:50.000Z</time>
</trkpt>
<trkpt lat="46.1237450" lon="10.5020130">
	<ele>2132.00</ele>
	<time>2024-07-25T09:52:51.000Z</time>
</trkpt>
<trkpt lat="46.1237450" lon="10.5020130">
	<ele>2132.00</ele>
	<time>2024-07-25T09:52:52.000Z</time>
</trkpt>
<trkpt lat="46.1237450" lon="10.5020140">
	<ele>2132.00</ele>
	<time>2024-07-25T09:52:53.000Z</time>
</trkpt>
<trkpt lat="46.1237460" lon="10.5020140">
	<ele>2132.00</ele>
	<time>2024-07-25T09:52:54.000Z</time>
</trkpt>
<trkpt lat="46.1237460" lon="10.5020140">
	<ele>2132.00</ele>
	<time>2024-07-25T09:52:55.000Z</time>
</trkpt>
<trkpt lat="46.1237470" lon="10.5020150">
	<ele>2132.00</ele>
	<time>2024-07-25T09:52:56.000Z</time>
</trkpt>
<trkpt lat="46.1237470" lon="10.5020150">
	<ele>2132.00</ele>
	<time>2024-07-25T09:52:57.000Z</time>
</trkpt>
<trkpt lat="46.1237470" lon="10.5020150">
	<ele>2132.00</ele>
	<time>2024-07-25T09:52:58.000Z</time>
</trkpt>
<trkpt lat="46.1237480" lon="10.5020150">
	<ele>2132.00</ele>
	<time>2024-07-25T09:52:59.000Z</time>
</trkpt>
<trkpt lat="46.1237490" lon="10.5020150">
	<ele>2132.00</ele>
	<time>2024-07-25T09:53:00.000Z</time>
</trkpt>
<trkpt lat="46.1237510" lon="10.5020150">
	<ele>2132.00</ele>
	<time>2024-07-25T09:53:01.000Z</time>
</trkpt>
<trkpt lat="46.1237520" lon="10.5020150">
	<ele>2132.00</ele>
	<time>2024-07-25T09:53:02.000Z</time>
</trkpt>
<trkpt lat="46.1237530" lon="10.5020150">
	<ele>2132.00</ele>
	<time>2024-07-25T09:53:03.000Z</time>
</trkpt>
<trkpt lat="46.1237540" lon="10.5020150">
	<ele>2132.00</ele>
	<time>2024-07-25T09:53:04.000Z</time>
</trkpt>
<trkpt lat="46.1237550" lon="10.5020150">
	<ele>2132.00</ele>
	<time>2024-07-25T09:53:05.000Z</time>
</trkpt>
<trkpt lat="46.1237550" lon="10.5020150">
	<ele>2132.00</ele>
	<time>2024-07-25T09:53:06.000Z</time>
</trkpt>
<trkpt lat="46.1237560" lon="10.5020140">
	<ele>2132.00</ele>
	<time>2024-07-25T09:53:07.000Z</time>
</trkpt>
<trkpt lat="46.1237570" lon="10.5020140">
	<ele>2132.00</ele>
	<time>2024-07-25T09:53:08.000Z</time>
</trkpt>
<trkpt lat="46.1237590" lon="10.5020140">
	<ele>2132.00</ele>
	<time>2024-07-25T09:53:09.000Z</time>
</trkpt>
<trkpt lat="46.1237620" lon="10.5020130">
	<ele>2132.00</ele>
	<time>2024-07-25T09:53:10.000Z</time>
</trkpt>
<trkpt lat="46.1237640" lon="10.5020090">
	<ele>2132.00</ele>
	<time>2024-07-25T09:53:11.000Z</time>
</trkpt>
<trkpt lat="46.1237650" lon="10.5020060">
	<ele>2132.00</ele>
	<time>2024-07-25T09:53:12.000Z</time>
</trkpt>
<trkpt lat="46.1237660" lon="10.5020030">
	<ele>2132.00</ele>
	<time>2024-07-25T09:53:13.000Z</time>
</trkpt>
<trkpt lat="46.1237660" lon="10.5020010">
	<ele>2132.00</ele>
	<time>2024-07-25T09:53:14.000Z</time>
</trkpt>
<trkpt lat="46.1237660" lon="10.5019990">
	<ele>2132.00</ele>
	<time>2024-07-25T09:53:15.000Z</time>
</trkpt>
<trkpt lat="46.1237670" lon="10.5019970">
	<ele>2132.00</ele>
	<time>2024-07-25T09:53:16.000Z</time>
</trkpt>
<trkpt lat="46.1237670" lon="10.5019950">
	<ele>2132.00</ele>
	<time>2024-07-25T09:53:17.000Z</time>
</trkpt>
<trkpt lat="46.1237700" lon="10.5019910">
	<ele>2132.00</ele>
	<time>2024-07-25T09:53:18.000Z</time>
</trkpt>
<trkpt lat="46.1237770" lon="10.5019910">
	<ele>2132.00</ele>
	<time>2024-07-25T09:53:19.000Z</time>
</trkpt>
<trkpt lat="46.1237810" lon="10.5019930">
	<ele>2132.00</ele>
	<time>2024-07-25T09:53:20.000Z</time>
</trkpt>
<trkpt lat="46.1237840" lon="10.5019890">
	<ele>2132.00</ele>
	<time>2024-07-25T09:53:21.000Z</time>
</trkpt>
<trkpt lat="46.1237860" lon="10.5019820">
	<ele>2132.00</ele>
	<time>2024-07-25T09:53:22.000Z</time>
</trkpt>
<trkpt lat="46.1237910" lon="10.5019790">
	<ele>2132.00</ele>
	<time>2024-07-25T09:53:23.000Z</time>
</trkpt>
<trkpt lat="46.1238020" lon="10.5019760">
	<ele>2132.00</ele>
	<time>2024-07-25T09:53:24.000Z</time>
</trkpt>
<trkpt lat="46.1238100" lon="10.5019750">
	<ele>2132.00</ele>
	<time>2024-07-25T09:53:25.000Z</time>
</trkpt>
<trkpt lat="46.1238120" lon="10.5019670">
	<ele>2132.00</ele>
	<time>2024-07-25T09:53:26.000Z</time>
</trkpt>
<trkpt lat="46.1238140" lon="10.5019590">
	<ele>2132.00</ele>
	<time>2024-07-25T09:53:27.000Z</time>
</trkpt>
<trkpt lat="46.1238140" lon="10.5019480">
	<ele>2132.00</ele>
	<time>2024-07-25T09:53:28.000Z</time>
</trkpt>
<trkpt lat="46.1238100" lon="10.5019410">
	<ele>2132.00</ele>
	<time>2024-07-25T09:53:29.000Z</time>
</trkpt>
<trkpt lat="46.1238090" lon="10.5019430">
	<ele>2132.00</ele>
	<time>2024-07-25T09:53:30.000Z</time>
</trkpt>
<trkpt lat="46.1238080" lon="10.5019450">
	<ele>2132.00</ele>
	<time>2024-07-25T09:53:31.000Z</time>
</trkpt>
<trkpt lat="46.1238090" lon="10.5019510">
	<ele>2132.00</ele>
	<time>2024-07-25T09:53:32.000Z</time>
</trkpt>
<trkpt lat="46.1238110" lon="10.5019570">
	<ele>2132.00</ele>
	<time>2024-07-25T09:53:33.000Z</time>
</trkpt>
<trkpt lat="46.1238150" lon="10.5019620">
	<ele>2132.00</ele>
	<time>2024-07-25T09:53:34.000Z</time>
</trkpt>
<trkpt lat="46.1238180" lon="10.5019690">
	<ele>2132.00</ele>
	<time>2024-07-25T09:53:35.000Z</time>
</trkpt>
<trkpt lat="46.1238210" lon="10.5019740">
	<ele>2132.00</ele>
	<time>2024-07-25T09:53:36.000Z</time>
</trkpt>
<trkpt lat="46.1238240" lon="10.5019790">
	<ele>2132.00</ele>
	<time>2024-07-25T09:53:37.000Z</time>
</trkpt>
<trkpt lat="46.1238260" lon="10.5019790">
	<ele>2132.00</ele>
	<time>2024-07-25T09:53:38.000Z</time>
</trkpt>
<trkpt lat="46.1238260" lon="10.5019790">
	<ele>2132.00</ele>
	<time>2024-07-25T09:53:39.000Z</time>
</trkpt>
<trkpt lat="46.1238260" lon="10.5019790">
	<ele>2132.00</ele>
	<time>2024-07-25T09:53:40.000Z</time>
</trkpt>
<trkpt lat="46.1238260" lon="10.5019790">
	<ele>2132.00</ele>
	<time>2024-07-25T09:53:41.000Z</time>
</trkpt>
<trkpt lat="46.1238260" lon="10.5019790">
	<ele>2132.00</ele>
	<time>2024-07-25T09:53:42.000Z</time>
</trkpt>
<trkpt lat="46.1238260" lon="10.5019790">
	<ele>2132.00</ele>
	<time>2024-07-25T09:53:43.000Z</time>
</trkpt>
<trkpt lat="46.1238260" lon="10.5019790">
	<ele>2132.00</ele>
	<time>2024-07-25T09:53:44.000Z</time>
</trkpt>
<trkpt lat="46.1238260" lon="10.5019790">
	<ele>2132.00</ele>
	<time>2024-07-25T09:53:45.000Z</time>
</trkpt>
<trkpt lat="46.1238260" lon="10.5019790">
	<ele>2132.00</ele>
	<time>2024-07-25T09:53:46.000Z</time>
</trkpt>
<trkpt lat="46.1238260" lon="10.5019770">
	<ele>2132.00</ele>
	<time>2024-07-25T09:53:47.000Z</time>
</trkpt>
<trkpt lat="46.1238260" lon="10.5019770">
	<ele>2132.00</ele>
	<time>2024-07-25T09:53:48.000Z</time>
</trkpt>
<trkpt lat="46.1238260" lon="10.5019760">
	<ele>2132.00</ele>
	<time>2024-07-25T09:53:49.000Z</time>
</trkpt>
<trkpt lat="46.1238260" lon="10.5019760">
	<ele>2132.00</ele>
	<time>2024-07-25T09:53:50.000Z</time>
</trkpt>
<trkpt lat="46.1238260" lon="10.5019750">
	<ele>2132.00</ele>
	<time>2024-07-25T09:53:51.000Z</time>
</trkpt>
<trkpt lat="46.1238260" lon="10.5019750">
	<ele>2132.00</ele>
	<time>2024-07-25T09:53:52.000Z</time>
</trkpt>
<trkpt lat="46.1238260" lon="10.5019740">
	<ele>2132.00</ele>
	<time>2024-07-25T09:53:53.000Z</time>
</trkpt>
<trkpt lat="46.1238260" lon="10.5019740">
	<ele>2132.00</ele>
	<time>2024-07-25T09:53:54.000Z</time>
</trkpt>
<trkpt lat="46.1238260" lon="10.5019730">
	<ele>2132.00</ele>
	<time>2024-07-25T09:53:55.000Z</time>
</trkpt>
<trkpt lat="46.1238250" lon="10.5019720">
	<ele>2132.00</ele>
	<time>2024-07-25T09:53:56.000Z</time>
</trkpt>
<trkpt lat="46.1238250" lon="10.5019720">
	<ele>2132.00</ele>
	<time>2024-07-25T09:53:57.000Z</time>
</trkpt>
<trkpt lat="46.1238240" lon="10.5019720">
	<ele>2132.00</ele>
	<time>2024-07-25T09:53:58.000Z</time>
</trkpt>
<trkpt lat="46.1238220" lon="10.5019720">
	<ele>2132.00</ele>
	<time>2024-07-25T09:53:59.000Z</time>
</trkpt>
<trkpt lat="46.1238210" lon="10.5019730">
	<ele>2132.00</ele>
	<time>2024-07-25T09:54:00.000Z</time>
</trkpt>
<trkpt lat="46.1238210" lon="10.5019730">
	<ele>2132.00</ele>
	<time>2024-07-25T09:54:01.000Z</time>
</trkpt>
<trkpt lat="46.1238210" lon="10.5019730">
	<ele>2132.00</ele>
	<time>2024-07-25T09:54:02.000Z</time>
</trkpt>
<trkpt lat="46.1238210" lon="10.5019740">
	<ele>2132.00</ele>
	<time>2024-07-25T09:54:03.000Z</time>
</trkpt>
<trkpt lat="46.1238210" lon="10.5019740">
	<ele>2132.00</ele>
	<time>2024-07-25T09:54:04.000Z</time>
</trkpt>
<trkpt lat="46.1238210" lon="10.5019740">
	<ele>2132.00</ele>
	<time>2024-07-25T09:54:05.000Z</time>
</trkpt>
<trkpt lat="46.1238200" lon="10.5019740">
	<ele>2132.00</ele>
	<time>2024-07-25T09:54:06.000Z</time>
</trkpt>
<trkpt lat="46.1238130" lon="10.5019730">
	<ele>2132.00</ele>
	<time>2024-07-25T09:54:07.000Z</time>
</trkpt>
<trkpt lat="46.1238090" lon="10.5019730">
	<ele>2132.00</ele>
	<time>2024-07-25T09:54:08.000Z</time>
</trkpt>
<trkpt lat="46.1238040" lon="10.5019720">
	<ele>2132.00</ele>
	<time>2024-07-25T09:54:09.000Z</time>
</trkpt>
<trkpt lat="46.1238020" lon="10.5019720">
	<ele>2132.00</ele>
	<time>2024-07-25T09:54:10.000Z</time>
</trkpt>
<trkpt lat="46.1238010" lon="10.5019720">
	<ele>2132.00</ele>
	<time>2024-07-25T09:54:11.000Z</time>
</trkpt>
<trkpt lat="46.1238000" lon="10.5019720">
	<ele>2132.00</ele>
	<time>2024-07-25T09:54:12.000Z</time>
</trkpt>
<trkpt lat="46.1238000" lon="10.5019720">
	<ele>2132.00</ele>
	<time>2024-07-25T09:54:13.000Z</time>
</trkpt>
<trkpt lat="46.1237990" lon="10.5019720">
	<ele>2132.00</ele>
	<time>2024-07-25T09:54:14.000Z</time>
</trkpt>
<trkpt lat="46.1237970" lon="10.5019730">
	<ele>2132.00</ele>
	<time>2024-07-25T09:54:15.000Z</time>
</trkpt>
<trkpt lat="46.1237970" lon="10.5019730">
	<ele>2132.00</ele>
	<time>2024-07-25T09:54:16.000Z</time>
</trkpt>
<trkpt lat="46.1237970" lon="10.5019730">
	<ele>2132.00</ele>
	<time>2024-07-25T09:54:17.000Z</time>
</trkpt>
<trkpt lat="46.1237970" lon="10.5019730">
	<ele>2132.00</ele>
	<time>2024-07-25T09:54:18.000Z</time>
</trkpt>
<trkpt lat="46.1237960" lon="10.5019730">
	<ele>2132.00</ele>
	<time>2024-07-25T09:54:19.000Z</time>
</trkpt>
<trkpt lat="46.1237950" lon="10.5019760">
	<ele>2132.00</ele>
	<time>2024-07-25T09:54:20.000Z</time>
</trkpt>
<trkpt lat="46.1237950" lon="10.5019770">
	<ele>2132.00</ele>
	<time>2024-07-25T09:54:21.000Z</time>
</trkpt>
<trkpt lat="46.1237950" lon="10.5019790">
	<ele>2132.00</ele>
	<time>2024-07-25T09:54:22.000Z</time>
</trkpt>
<trkpt lat="46.1237950" lon="10.5019800">
	<ele>2132.00</ele>
	<time>2024-07-25T09:54:23.000Z</time>
</trkpt>
<trkpt lat="46.1237950" lon="10.5019820">
	<ele>2132.00</ele>
	<time>2024-07-25T09:54:24.000Z</time>
</trkpt>
<trkpt lat="46.1237950" lon="10.5019830">
	<ele>2132.00</ele>
	<time>2024-07-25T09:54:25.000Z</time>
</trkpt>
<trkpt lat="46.1237950" lon="10.5019850">
	<ele>2132.00</ele>
	<time>2024-07-25T09:54:26.000Z</time>
</trkpt>
<trkpt lat="46.1237950" lon="10.5019890">
	<ele>2132.00</ele>
	<time>2024-07-25T09:54:27.000Z</time>
</trkpt>
<trkpt lat="46.1237950" lon="10.5019920">
	<ele>2132.00</ele>
	<time>2024-07-25T09:54:28.000Z</time>
</trkpt>
<trkpt lat="46.1237950" lon="10.5019930">
	<ele>2132.00</ele>
	<time>2024-07-25T09:54:29.000Z</time>
</trkpt>
<trkpt lat="46.1237950" lon="10.5019950">
	<ele>2132.00</ele>
	<time>2024-07-25T09:54:30.000Z</time>
</trkpt>
<trkpt lat="46.1237950" lon="10.5019960">
	<ele>2132.00</ele>
	<time>2024-07-25T09:54:31.000Z</time>
</trkpt>
<trkpt lat="46.1237960" lon="10.5019970">
	<ele>2132.00</ele>
	<time>2024-07-25T09:54:32.000Z</time>
</trkpt>
<trkpt lat="46.1237960" lon="10.5019970">
	<ele>2132.00</ele>
	<time>2024-07-25T09:54:33.000Z</time>
</trkpt>
<trkpt lat="46.1237960" lon="10.5019970">
	<ele>2132.00</ele>
	<time>2024-07-25T09:54:34.000Z</time>
</trkpt>
<trkpt lat="46.1237970" lon="10.5019970">
	<ele>2132.00</ele>
	<time>2024-07-25T09:54:35.000Z</time>
</trkpt>
<trkpt lat="46.1237970" lon="10.5019980">
	<ele>2132.00</ele>
	<time>2024-07-25T09:54:36.000Z</time>
</trkpt>
<trkpt lat="46.1237970" lon="10.5019980">
	<ele>2132.00</ele>
	<time>2024-07-25T09:54:37.000Z</time>
</trkpt>
<trkpt lat="46.1237970" lon="10.5019980">
	<ele>2132.00</ele>
	<time>2024-07-25T09:54:38.000Z</time>
</trkpt>
<trkpt lat="46.1237980" lon="10.5019980">
	<ele>2132.00</ele>
	<time>2024-07-25T09:54:39.000Z</time>
</trkpt>
<trkpt lat="46.1237980" lon="10.5019980">
	<ele>2132.00</ele>
	<time>2024-07-25T09:54:40.000Z</time>
</trkpt>
<trkpt lat="46.1237980" lon="10.5019980">
	<ele>2132.00</ele>
	<time>2024-07-25T09:54:41.000Z</time>
</trkpt>
<trkpt lat="46.1237980" lon="10.5019980">
	<ele>2132.00</ele>
	<time>2024-07-25T09:54:42.000Z</time>
</trkpt>
<trkpt lat="46.1237980" lon="10.5019980">
	<ele>2132.00</ele>
	<time>2024-07-25T09:54:43.000Z</time>
</trkpt>
<trkpt lat="46.1237980" lon="10.5019970">
	<ele>2132.00</ele>
	<time>2024-07-25T09:54:44.000Z</time>
</trkpt>
<trkpt lat="46.1237980" lon="10.5019970">
	<ele>2132.00</ele>
	<time>2024-07-25T09:54:45.000Z</time>
</trkpt>
<trkpt lat="46.1237980" lon="10.5019970">
	<ele>2132.00</ele>
	<time>2024-07-25T09:54:46.000Z</time>
</trkpt>
<trkpt lat="46.1237980" lon="10.5019970">
	<ele>2132.00</ele>
	<time>2024-07-25T09:54:47.000Z</time>
</trkpt>
<trkpt lat="46.1237980" lon="10.5019960">
	<ele>2132.00</ele>
	<time>2024-07-25T09:54:48.000Z</time>
</trkpt>
<trkpt lat="46.1237980" lon="10.5019960">
	<ele>2132.00</ele>
	<time>2024-07-25T09:54:49.000Z</time>
</trkpt>
<trkpt lat="46.1237980" lon="10.5019950">
	<ele>2132.00</ele>
	<time>2024-07-25T09:54:50.000Z</time>
</trkpt>
<trkpt lat="46.1237980" lon="10.5019940">
	<ele>2132.00</ele>
	<time>2024-07-25T09:54:51.000Z</time>
</trkpt>
<trkpt lat="46.1237970" lon="10.5019930">
	<ele>2132.00</ele>
	<time>2024-07-25T09:54:52.000Z</time>
</trkpt>
<trkpt lat="46.1237960" lon="10.5019920">
	<ele>2132.00</ele>
	<time>2024-07-25T09:54:53.000Z</time>
</trkpt>
<trkpt lat="46.1237950" lon="10.5019880">
	<ele>2132.00</ele>
	<time>2024-07-25T09:54:54.000Z</time>
</trkpt>
<trkpt lat="46.1237940" lon="10.5019870">
	<ele>2132.00</ele>
	<time>2024-07-25T09:54:55.000Z</time>
</trkpt>
<trkpt lat="46.1237920" lon="10.5019860">
	<ele>2132.00</ele>
	<time>2024-07-25T09:54:56.000Z</time>
</trkpt>
<trkpt lat="46.1237910" lon="10.5019840">
	<ele>2132.00</ele>
	<time>2024-07-25T09:54:57.000Z</time>
</trkpt>
<trkpt lat="46.1237890" lon="10.5019830">
	<ele>2132.00</ele>
	<time>2024-07-25T09:54:58.000Z</time>
</trkpt>
<trkpt lat="46.1237880" lon="10.5019820">
	<ele>2132.00</ele>
	<time>2024-07-25T09:54:59.000Z</time>
</trkpt>
<trkpt lat="46.1237870" lon="10.5019820">
	<ele>2132.00</ele>
	<time>2024-07-25T09:55:00.000Z</time>
</trkpt>
<trkpt lat="46.1237860" lon="10.5019820">
	<ele>2132.00</ele>
	<time>2024-07-25T09:55:01.000Z</time>
</trkpt>
<trkpt lat="46.1237860" lon="10.5019820">
	<ele>2132.00</ele>
	<time>2024-07-25T09:55:02.000Z</time>
</trkpt>
<trkpt lat="46.1237860" lon="10.5019820">
	<ele>2132.00</ele>
	<time>2024-07-25T09:55:03.000Z</time>
</trkpt>
<trkpt lat="46.1237860" lon="10.5019820">
	<ele>2132.00</ele>
	<time>2024-07-25T09:55:04.000Z</time>
</trkpt>
<trkpt lat="46.1237860" lon="10.5019820">
	<ele>2132.00</ele>
	<time>2024-07-25T09:55:05.000Z</time>
</trkpt>
<trkpt lat="46.1237860" lon="10.5019820">
	<ele>2132.00</ele>
	<time>2024-07-25T09:55:06.000Z</time>
</trkpt>
<trkpt lat="46.1237860" lon="10.5019820">
	<ele>2132.00</ele>
	<time>2024-07-25T09:55:07.000Z</time>
</trkpt>
<trkpt lat="46.1237860" lon="10.5019820">
	<ele>2132.00</ele>
	<time>2024-07-25T09:55:08.000Z</time>
</trkpt>
<trkpt lat="46.1237850" lon="10.5019820">
	<ele>2132.00</ele>
	<time>2024-07-25T09:55:09.000Z</time>
</trkpt>
<trkpt lat="46.1237850" lon="10.5019820">
	<ele>2132.00</ele>
	<time>2024-07-25T09:55:10.000Z</time>
</trkpt>
<trkpt lat="46.1237850" lon="10.5019820">
	<ele>2132.00</ele>
	<time>2024-07-25T09:55:11.000Z</time>
</trkpt>
<trkpt lat="46.1237840" lon="10.5019820">
	<ele>2132.00</ele>
	<time>2024-07-25T09:55:12.000Z</time>
</trkpt>
<trkpt lat="46.1237840" lon="10.5019840">
	<ele>2132.00</ele>
	<time>2024-07-25T09:55:13.000Z</time>
</trkpt>
<trkpt lat="46.1237840" lon="10.5019850">
	<ele>2132.00</ele>
	<time>2024-07-25T09:55:14.000Z</time>
</trkpt>
<trkpt lat="46.1237830" lon="10.5019870">
	<ele>2132.00</ele>
	<time>2024-07-25T09:55:15.000Z</time>
</trkpt>
<trkpt lat="46.1237830" lon="10.5019880">
	<ele>2132.00</ele>
	<time>2024-07-25T09:55:16.000Z</time>
</trkpt>
<trkpt lat="46.1237830" lon="10.5019880">
	<ele>2132.00</ele>
	<time>2024-07-25T09:55:17.000Z</time>
</trkpt>
<trkpt lat="46.1237830" lon="10.5019880">
	<ele>2132.00</ele>
	<time>2024-07-25T09:55:18.000Z</time>
</trkpt>
<trkpt lat="46.1237830" lon="10.5019880">
	<ele>2132.00</ele>
	<time>2024-07-25T09:55:19.000Z</time>
</trkpt>
<trkpt lat="46.1237830" lon="10.5019880">
	<ele>2132.00</ele>
	<time>2024-07-25T09:55:20.000Z</time>
</trkpt>
<trkpt lat="46.1237830" lon="10.5019880">
	<ele>2132.00</ele>
	<time>2024-07-25T09:55:21.000Z</time>
</trkpt>
<trkpt lat="46.1237830" lon="10.5019890">
	<ele>2132.00</ele>
	<time>2024-07-25T09:55:22.000Z</time>
</trkpt>
<trkpt lat="46.1237830" lon="10.5019890">
	<ele>2132.00</ele>
	<time>2024-07-25T09:55:23.000Z</time>
</trkpt>
<trkpt lat="46.1237830" lon="10.5019890">
	<ele>2132.00</ele>
	<time>2024-07-25T09:55:24.000Z</time>
</trkpt>
<trkpt lat="46.1237830" lon="10.5019890">
	<ele>2132.00</ele>
	<time>2024-07-25T09:55:25.000Z</time>
</trkpt>
<trkpt lat="46.1237830" lon="10.5019890">
	<ele>2132.00</ele>
	<time>2024-07-25T09:55:26.000Z</time>
</trkpt>
<trkpt lat="46.1237830" lon="10.5019890">
	<ele>2132.00</ele>
	<time>2024-07-25T09:55:27.000Z</time>
</trkpt>
<trkpt lat="46.1237830" lon="10.5019890">
	<ele>2132.00</ele>
	<time>2024-07-25T09:55:28.000Z</time>
</trkpt>
<trkpt lat="46.1237830" lon="10.5019890">
	<ele>2132.00</ele>
	<time>2024-07-25T09:55:29.000Z</time>
</trkpt>
<trkpt lat="46.1237820" lon="10.5019890">
	<ele>2132.00</ele>
	<time>2024-07-25T09:55:30.000Z</time>
</trkpt>
<trkpt lat="46.1237810" lon="10.5019890">
	<ele>2132.00</ele>
	<time>2024-07-25T09:55:31.000Z</time>
</trkpt>
<trkpt lat="46.1237810" lon="10.5019890">
	<ele>2132.00</ele>
	<time>2024-07-25T09:55:32.000Z</time>
</trkpt>
<trkpt lat="46.1237800" lon="10.5019890">
	<ele>2132.00</ele>
	<time>2024-07-25T09:55:33.000Z</time>
</trkpt>
<trkpt lat="46.1237800" lon="10.5019890">
	<ele>2132.00</ele>
	<time>2024-07-25T09:55:34.000Z</time>
</trkpt>
<trkpt lat="46.1237800" lon="10.5019880">
	<ele>2132.00</ele>
	<time>2024-07-25T09:55:35.000Z</time>
</trkpt>
<trkpt lat="46.1237800" lon="10.5019880">
	<ele>2132.00</ele>
	<time>2024-07-25T09:55:36.000Z</time>
</trkpt>
<trkpt lat="46.1237790" lon="10.5019880">
	<ele>2132.00</ele>
	<time>2024-07-25T09:55:37.000Z</time>
</trkpt>
<trkpt lat="46.1237800" lon="10.5019880">
	<ele>2132.00</ele>
	<time>2024-07-25T09:55:38.000Z</time>
</trkpt>
<trkpt lat="46.1237800" lon="10.5019880">
	<ele>2132.00</ele>
	<time>2024-07-25T09:55:39.000Z</time>
</trkpt>
<trkpt lat="46.1237800" lon="10.5019870">
	<ele>2132.00</ele>
	<time>2024-07-25T09:55:40.000Z</time>
</trkpt>
<trkpt lat="46.1237800" lon="10.5019870">
	<ele>2132.00</ele>
	<time>2024-07-25T09:55:41.000Z</time>
</trkpt>
<trkpt lat="46.1237800" lon="10.5019870">
	<ele>2132.00</ele>
	<time>2024-07-25T09:55:42.000Z</time>
</trkpt>
<trkpt lat="46.1237800" lon="10.5019860">
	<ele>2132.00</ele>
	<time>2024-07-25T09:55:43.000Z</time>
</trkpt>
<trkpt lat="46.1237800" lon="10.5019850">
	<ele>2132.00</ele>
	<time>2024-07-25T09:55:44.000Z</time>
</trkpt>
<trkpt lat="46.1237790" lon="10.5019840">
	<ele>2132.00</ele>
	<time>2024-07-25T09:55:45.000Z</time>
</trkpt>
<trkpt lat="46.1237790" lon="10.5019840">
	<ele>2132.00</ele>
	<time>2024-07-25T09:55:46.000Z</time>
</trkpt>
<trkpt lat="46.1237790" lon="10.5019830">
	<ele>2132.00</ele>
	<time>2024-07-25T09:55:47.000Z</time>
</trkpt>
<trkpt lat="46.1237790" lon="10.5019830">
	<ele>2132.00</ele>
	<time>2024-07-25T09:55:48.000Z</time>
</trkpt>
<trkpt lat="46.1237790" lon="10.5019820">
	<ele>2132.00</ele>
	<time>2024-07-25T09:55:49.000Z</time>
</trkpt>
<trkpt lat="46.1237780" lon="10.5019820">
	<ele>2132.00</ele>
	<time>2024-07-25T09:55:50.000Z</time>
</trkpt>
<trkpt lat="46.1237780" lon="10.5019790">
	<ele>2132.00</ele>
	<time>2024-07-25T09:55:51.000Z</time>
</trkpt>
<trkpt lat="46.1237770" lon="10.5019760">
	<ele>2132.00</ele>
	<time>2024-07-25T09:55:52.000Z</time>
</trkpt>
<trkpt lat="46.1237760" lon="10.5019720">
	<ele>2132.00</ele>
	<time>2024-07-25T09:55:53.000Z</time>
</trkpt>
<trkpt lat="46.1237760" lon="10.5019700">
	<ele>2132.00</ele>
	<time>2024-07-25T09:55:54.000Z</time>
</trkpt>
<trkpt lat="46.1237740" lon="10.5019690">
	<ele>2132.00</ele>
	<time>2024-07-25T09:55:55.000Z</time>
</trkpt>
<trkpt lat="46.1237710" lon="10.5019670">
	<ele>2132.00</ele>
	<time>2024-07-25T09:55:56.000Z</time>
</trkpt>
<trkpt lat="46.1237690" lon="10.5019660">
	<ele>2132.00</ele>
	<time>2024-07-25T09:55:57.000Z</time>
</trkpt>
<trkpt lat="46.1237670" lon="10.5019650">
	<ele>2132.00</ele>
	<time>2024-07-25T09:55:58.000Z</time>
</trkpt>
<trkpt lat="46.1237660" lon="10.5019650">
	<ele>2132.00</ele>
	<time>2024-07-25T09:55:59.000Z</time>
</trkpt>
<trkpt lat="46.1237650" lon="10.5019650">
	<ele>2132.00</ele>
	<time>2024-07-25T09:56:00.000Z</time>
</trkpt>
<trkpt lat="46.1237640" lon="10.5019640">
	<ele>2132.00</ele>
	<time>2024-07-25T09:56:01.000Z</time>
</trkpt>
<trkpt lat="46.1237640" lon="10.5019640">
	<ele>2132.00</ele>
	<time>2024-07-25T09:56:02.000Z</time>
</trkpt>
<trkpt lat="46.1237630" lon="10.5019640">
	<ele>2132.00</ele>
	<time>2024-07-25T09:56:03.000Z</time>
</trkpt>
<trkpt lat="46.1237630" lon="10.5019640">
	<ele>2132.00</ele>
	<time>2024-07-25T09:56:04.000Z</time>
</trkpt>
<trkpt lat="46.1237630" lon="10.5019640">
	<ele>2132.00</ele>
	<time>2024-07-25T09:56:05.000Z</time>
</trkpt>
<trkpt lat="46.1237630" lon="10.5019630">
	<ele>2132.00</ele>
	<time>2024-07-25T09:56:06.000Z</time>
</trkpt>
<trkpt lat="46.1237620" lon="10.5019630">
	<ele>2132.00</ele>
	<time>2024-07-25T09:56:07.000Z</time>
</trkpt>
<trkpt lat="46.1237620" lon="10.5019630">
	<ele>2132.00</ele>
	<time>2024-07-25T09:56:08.000Z</time>
</trkpt>
<trkpt lat="46.1237620" lon="10.5019630">
	<ele>2132.00</ele>
	<time>2024-07-25T09:56:09.000Z</time>
</trkpt>
<trkpt lat="46.1237620" lon="10.5019620">
	<ele>2132.00</ele>
	<time>2024-07-25T09:56:10.000Z</time>
</trkpt>
<trkpt lat="46.1237620" lon="10.5019620">
	<ele>2132.00</ele>
	<time>2024-07-25T09:56:11.000Z</time>
</trkpt>
<trkpt lat="46.1237620" lon="10.5019620">
	<ele>2132.00</ele>
	<time>2024-07-25T09:56:12.000Z</time>
</trkpt>
<trkpt lat="46.1237620" lon="10.5019620">
	<ele>2132.00</ele>
	<time>2024-07-25T09:56:13.000Z</time>
</trkpt>
<trkpt lat="46.1237630" lon="10.5019620">
	<ele>2132.00</ele>
	<time>2024-07-25T09:56:14.000Z</time>
</trkpt>
<trkpt lat="46.1237630" lon="10.5019620">
	<ele>2132.00</ele>
	<time>2024-07-25T09:56:15.000Z</time>
</trkpt>
<trkpt lat="46.1237630" lon="10.5019620">
	<ele>2132.00</ele>
	<time>2024-07-25T09:56:16.000Z</time>
</trkpt>
<trkpt lat="46.1237630" lon="10.5019620">
	<ele>2132.00</ele>
	<time>2024-07-25T09:56:17.000Z</time>
</trkpt>
<trkpt lat="46.1237630" lon="10.5019620">
	<ele>2132.00</ele>
	<time>2024-07-25T09:56:18.000Z</time>
</trkpt>
<trkpt lat="46.1237630" lon="10.5019620">
	<ele>2132.00</ele>
	<time>2024-07-25T09:56:19.000Z</time>
</trkpt>
<trkpt lat="46.1237630" lon="10.5019620">
	<ele>2132.00</ele>
	<time>2024-07-25T09:56:20.000Z</time>
</trkpt>
<trkpt lat="46.1237630" lon="10.5019620">
	<ele>2132.00</ele>
	<time>2024-07-25T09:56:21.000Z</time>
</trkpt>
<trkpt lat="46.1237630" lon="10.5019620">
	<ele>2132.00</ele>
	<time>2024-07-25T09:56:22.000Z</time>
</trkpt>
<trkpt lat="46.1237620" lon="10.5019620">
	<ele>2132.00</ele>
	<time>2024-07-25T09:56:23.000Z</time>
</trkpt>
<trkpt lat="46.1237620" lon="10.5019620">
	<ele>2132.00</ele>
	<time>2024-07-25T09:56:24.000Z</time>
</trkpt>
<trkpt lat="46.1237620" lon="10.5019620">
	<ele>2132.00</ele>
	<time>2024-07-25T09:56:25.000Z</time>
</trkpt>
<trkpt lat="46.1237620" lon="10.5019620">
	<ele>2132.00</ele>
	<time>2024-07-25T09:56:26.000Z</time>
</trkpt>
<trkpt lat="46.1237620" lon="10.5019610">
	<ele>2132.00</ele>
	<time>2024-07-25T09:56:27.000Z</time>
</trkpt>
<trkpt lat="46.1237630" lon="10.5019610">
	<ele>2132.00</ele>
	<time>2024-07-25T09:56:28.000Z</time>
</trkpt>
<trkpt lat="46.1237630" lon="10.5019610">
	<ele>2132.00</ele>
	<time>2024-07-25T09:56:29.000Z</time>
</trkpt>
<trkpt lat="46.1237630" lon="10.5019610">
	<ele>2132.00</ele>
	<time>2024-07-25T09:56:30.000Z</time>
</trkpt>
<trkpt lat="46.1237640" lon="10.5019610">
	<ele>2132.00</ele>
	<time>2024-07-25T09:56:31.000Z</time>
</trkpt>
<trkpt lat="46.1237640" lon="10.5019610">
	<ele>2132.00</ele>
	<time>2024-07-25T09:56:32.000Z</time>
</trkpt>
<trkpt lat="46.1237640" lon="10.5019610">
	<ele>2132.00</ele>
	<time>2024-07-25T09:56:33.000Z</time>
</trkpt>
<trkpt lat="46.1237650" lon="10.5019610">
	<ele>2132.00</ele>
	<time>2024-07-25T09:56:34.000Z</time>
</trkpt>
<trkpt lat="46.1237650" lon="10.5019610">
	<ele>2132.00</ele>
	<time>2024-07-25T09:56:35.000Z</time>
</trkpt>
<trkpt lat="46.1237650" lon="10.5019610">
	<ele>2132.00</ele>
	<time>2024-07-25T09:56:36.000Z</time>
</trkpt>
<trkpt lat="46.1237650" lon="10.5019610">
	<ele>2132.00</ele>
	<time>2024-07-25T09:56:37.000Z</time>
</trkpt>
<trkpt lat="46.1237650" lon="10.5019610">
	<ele>2132.00</ele>
	<time>2024-07-25T09:56:38.000Z</time>
</trkpt>
<trkpt lat="46.1237660" lon="10.5019610">
	<ele>2132.00</ele>
	<time>2024-07-25T09:56:39.000Z</time>
</trkpt>
<trkpt lat="46.1237660" lon="10.5019610">
	<ele>2132.00</ele>
	<time>2024-07-25T09:56:40.000Z</time>
</trkpt>
<trkpt lat="46.1237660" lon="10.5019610">
	<ele>2132.00</ele>
	<time>2024-07-25T09:56:41.000Z</time>
</trkpt>
<trkpt lat="46.1237660" lon="10.5019610">
	<ele>2132.00</ele>
	<time>2024-07-25T09:56:42.000Z</time>
</trkpt>
<trkpt lat="46.1237670" lon="10.5019610">
	<ele>2132.00</ele>
	<time>2024-07-25T09:56:43.000Z</time>
</trkpt>
<trkpt lat="46.1237670" lon="10.5019610">
	<ele>2132.00</ele>
	<time>2024-07-25T09:56:44.000Z</time>
</trkpt>
<trkpt lat="46.1237680" lon="10.5019610">
	<ele>2132.00</ele>
	<time>2024-07-25T09:56:45.000Z</time>
</trkpt>
<trkpt lat="46.1237680" lon="10.5019600">
	<ele>2132.00</ele>
	<time>2024-07-25T09:56:46.000Z</time>
</trkpt>
<trkpt lat="46.1237690" lon="10.5019600">
	<ele>2132.00</ele>
	<time>2024-07-25T09:56:47.000Z</time>
</trkpt>
<trkpt lat="46.1237690" lon="10.5019600">
	<ele>2132.00</ele>
	<time>2024-07-25T09:56:48.000Z</time>
</trkpt>
<trkpt lat="46.1237700" lon="10.5019590">
	<ele>2132.00</ele>
	<time>2024-07-25T09:56:49.000Z</time>
</trkpt>
<trkpt lat="46.1237700" lon="10.5019590">
	<ele>2132.00</ele>
	<time>2024-07-25T09:56:50.000Z</time>
</trkpt>
<trkpt lat="46.1237710" lon="10.5019580">
	<ele>2132.00</ele>
	<time>2024-07-25T09:56:51.000Z</time>
</trkpt>
<trkpt lat="46.1237700" lon="10.5019570">
	<ele>2132.00</ele>
	<time>2024-07-25T09:56:52.000Z</time>
</trkpt>
<trkpt lat="46.1237590" lon="10.5019410">
	<ele>2132.00</ele>
	<time>2024-07-25T09:56:59.000Z</time>
</trkpt>
<trkpt lat="46.1237590" lon="10.5019220">
	<ele>2132.00</ele>
	<time>2024-07-25T09:57:02.000Z</time>
</trkpt>
<trkpt lat="46.1237580" lon="10.5019120">
	<ele>2132.00</ele>
	<time>2024-07-25T09:57:03.000Z</time>
</trkpt>
<trkpt lat="46.1237590" lon="10.5019210">
	<ele>2132.00</ele>
	<time>2024-07-25T09:57:04.000Z</time>
</trkpt>
<trkpt lat="46.1237600" lon="10.5019400">
	<ele>2132.00</ele>
	<time>2024-07-25T09:57:05.000Z</time>
</trkpt>
<trkpt lat="46.1237580" lon="10.5019500">
	<ele>2132.00</ele>
	<time>2024-07-25T09:57:06.000Z</time>
</trkpt>
<trkpt lat="46.1237580" lon="10.5019600">
	<ele>2132.00</ele>
	<time>2024-07-25T09:57:07.000Z</time>
</trkpt>
<trkpt lat="46.1237580" lon="10.5019800">
	<ele>2132.00</ele>
	<time>2024-07-25T09:57:10.000Z</time>
</trkpt>
<trkpt lat="46.1237490" lon="10.5017440">
	<ele>2132.00</ele>
	<time>2024-07-25T09:58:35.000Z</time>
</trkpt>
<trkpt lat="46.1237500" lon="10.5017650">
	<ele>2132.00</ele>
	<time>2024-07-25T09:58:36.000Z</time>
</trkpt>
<trkpt lat="46.1237570" lon="10.5017780">
	<ele>2132.00</ele>
	<time>2024-07-25T09:58:37.000Z</time>
</trkpt>
<trkpt lat="46.1237600" lon="10.5017900">
	<ele>2132.00</ele>
	<time>2024-07-25T09:58:38.000Z</time>
</trkpt>
<trkpt lat="46.1237640" lon="10.5018090">
	<ele>2132.00</ele>
	<time>2024-07-25T09:58:39.000Z</time>
</trkpt>
<trkpt lat="46.1237680" lon="10.5018270">
	<ele>2132.00</ele>
	<time>2024-07-25T09:58:40.000Z</time>
</trkpt>
<trkpt lat="46.1237700" lon="10.5018380">
	<ele>2132.00</ele>
	<time>2024-07-25T09:58:41.000Z</time>
</trkpt>
<trkpt lat="46.1237700" lon="10.5018520">
	<ele>2132.00</ele>
	<time>2024-07-25T09:58:42.000Z</time>
</trkpt>
<trkpt lat="46.1237700" lon="10.5018600">
	<ele>2132.00</ele>
	<time>2024-07-25T09:58:43.000Z</time>
</trkpt>
<trkpt lat="46.1237740" lon="10.5018690">
	<ele>2132.00</ele>
	<time>2024-07-25T09:58:44.000Z</time>
</trkpt>
<trkpt lat="46.1237890" lon="10.5018800">
	<ele>2132.00</ele>
	<time>2024-07-25T09:58:45.000Z</time>
</trkpt>
<trkpt lat="46.1237950" lon="10.5018790">
	<ele>2132.00</ele>
	<time>2024-07-25T09:58:46.000Z</time>
</trkpt>
<trkpt lat="46.1237980" lon="10.5018720">
	<ele>2132.00</ele>
	<time>2024-07-25T09:58:47.000Z</time>
</trkpt>
<trkpt lat="46.1238010" lon="10.5018500">
	<ele>2132.00</ele>
	<time>2024-07-25T09:58:48.000Z</time>
</trkpt>
<trkpt lat="46.1238040" lon="10.5018480">
	<ele>2132.00</ele>
	<time>2024-07-25T09:58:50.000Z</time>
</trkpt>
<trkpt lat="46.1238030" lon="10.5018490">
	<ele>2132.00</ele>
	<time>2024-07-25T09:58:51.000Z</time>
</trkpt>
<trkpt lat="46.1237960" lon="10.5018510">
	<ele>2132.00</ele>
	<time>2024-07-25T09:58:53.000Z</time>
</trkpt>
<trkpt lat="46.1237930" lon="10.5018520">
	<ele>2132.00</ele>
	<time>2024-07-25T09:58:54.000Z</time>
</trkpt>
<trkpt lat="46.1237950" lon="10.5018530">
	<ele>2132.00</ele>
	<time>2024-07-25T09:58:55.000Z</time>
</trkpt>
<trkpt lat="46.1237930" lon="10.5018500">
	<ele>2132.00</ele>
	<time>2024-07-25T09:58:56.000Z</time>
</trkpt>
<trkpt lat="46.1237920" lon="10.5018390">
	<ele>2132.00</ele>
	<time>2024-07-25T09:58:57.000Z</time>
</trkpt>
<trkpt lat="46.1237720" lon="10.5018460">
	<ele>2132.00</ele>
	<time>2024-07-25T09:58:58.000Z</time>
</trkpt>
<trkpt lat="46.1237630" lon="10.5018480">
	<ele>2132.00</ele>
	<time>2024-07-25T09:58:59.000Z</time>
</trkpt>
<trkpt lat="46.1237620" lon="10.5018440">
	<ele>2132.00</ele>
	<time>2024-07-25T09:59:00.000Z</time>
</trkpt>
<trkpt lat="46.1237640" lon="10.5018400">
	<ele>2132.00</ele>
	<time>2024-07-25T09:59:01.000Z</time>
</trkpt>
<trkpt lat="46.1237690" lon="10.5018460">
	<ele>2132.00</ele>
	<time>2024-07-25T09:59:02.000Z</time>
</trkpt>
<trkpt lat="46.1237730" lon="10.5018660">
	<ele>2132.00</ele>
	<time>2024-07-25T09:59:03.000Z</time>
</trkpt>
<trkpt lat="46.1237790" lon="10.5018790">
	<ele>2132.00</ele>
	<time>2024-07-25T09:59:04.000Z</time>
</trkpt>
<trkpt lat="46.1237790" lon="10.5018830">
	<ele>2132.00</ele>
	<time>2024-07-25T09:59:05.000Z</time>
</trkpt>
<trkpt lat="46.1237810" lon="10.5018870">
	<ele>2132.00</ele>
	<time>2024-07-25T09:59:06.000Z</time>
</trkpt>
<trkpt lat="46.1237810" lon="10.5018880">
	<ele>2132.00</ele>
	<time>2024-07-25T09:59:07.000Z</time>
</trkpt>
<trkpt lat="46.1237830" lon="10.5019000">
	<ele>2132.00</ele>
	<time>2024-07-25T09:59:08.000Z</time>
</trkpt>
<trkpt lat="46.1237850" lon="10.5019090">
	<ele>2132.00</ele>
	<time>2024-07-25T09:59:09.000Z</time>
</trkpt>
<trkpt lat="46.1237870" lon="10.5019160">
	<ele>2132.00</ele>
	<time>2024-07-25T09:59:10.000Z</time>
</trkpt>
<trkpt lat="46.1237870" lon="10.5019290">
	<ele>2132.00</ele>
	<time>2024-07-25T09:59:11.000Z</time>
</trkpt>
<trkpt lat="46.1237750" lon="10.5019330">
	<ele>2132.00</ele>
	<time>2024-07-25T09:59:12.000Z</time>
</trkpt>
<trkpt lat="46.1237670" lon="10.5019380">
	<ele>2132.00</ele>
	<time>2024-07-25T09:59:13.000Z</time>
</trkpt>
<trkpt lat="46.1237580" lon="10.5019440">
	<ele>2132.00</ele>
	<time>2024-07-25T09:59:14.000Z</time>
</trkpt>
<trkpt lat="46.1237470" lon="10.5019480">
	<ele>2132.00</ele>
	<time>2024-07-25T09:59:15.000Z</time>
</trkpt>
<trkpt lat="46.1237340" lon="10.5019550">
	<ele>2132.00</ele>
	<time>2024-07-25T09:59:16.000Z</time>
</trkpt>
<trkpt lat="46.1237200" lon="10.5019610">
	<ele>2132.00</ele>
	<time>2024-07-25T09:59:17.000Z</time>
</trkpt>
<trkpt lat="46.1237070" lon="10.5019420">
	<ele>2132.00</ele>
	<time>2024-07-25T09:59:18.000Z</time>
</trkpt>
<trkpt lat="46.1237090" lon="10.5019420">
	<ele>2132.00</ele>
	<time>2024-07-25T09:59:19.000Z</time>
</trkpt>
<trkpt lat="46.1237100" lon="10.5019380">
	<ele>2132.00</ele>
	<time>2024-07-25T09:59:20.000Z</time>
</trkpt>
<trkpt lat="46.1237060" lon="10.5019360">
	<ele>2132.00</ele>
	<time>2024-07-25T09:59:21.000Z</time>
</trkpt>
<trkpt lat="46.1237010" lon="10.5019400">
	<ele>2132.00</ele>
	<time>2024-07-25T09:59:22.000Z</time>
</trkpt>
<trkpt lat="46.1237000" lon="10.5019350">
	<ele>2132.00</ele>
	<time>2024-07-25T09:59:23.000Z</time>
</trkpt>
<trkpt lat="46.1236990" lon="10.5019270">
	<ele>2132.00</ele>
	<time>2024-07-25T09:59:24.000Z</time>
</trkpt>
<trkpt lat="46.1236970" lon="10.5019130">
	<ele>2132.00</ele>
	<time>2024-07-25T09:59:26.000Z</time>
</trkpt>
<trkpt lat="46.1236950" lon="10.5019070">
	<ele>2132.00</ele>
	<time>2024-07-25T09:59:27.000Z</time>
</trkpt>
<trkpt lat="46.1236990" lon="10.5019380">
	<ele>2132.00</ele>
	<time>2024-07-25T09:59:28.000Z</time>
</trkpt>
<trkpt lat="46.1237110" lon="10.5019640">
	<ele>2132.00</ele>
	<time>2024-07-25T09:59:29.000Z</time>
</trkpt>
<trkpt lat="46.1237120" lon="10.5019690">
	<ele>2132.00</ele>
	<time>2024-07-25T09:59:51.000Z</time>
</trkpt>
<trkpt lat="46.1237290" lon="10.5020160">
	<ele>2132.00</ele>
	<time>2024-07-25T09:59:52.000Z</time>
</trkpt>
<trkpt lat="46.1237480" lon="10.5020310">
	<ele>2132.00</ele>
	<time>2024-07-25T09:59:53.000Z</time>
</trkpt>
<trkpt lat="46.1237450" lon="10.5020300">
	<ele>2132.00</ele>
	<time>2024-07-25T09:59:54.000Z</time>
</trkpt>
<trkpt lat="46.1237530" lon="10.5020350">
	<ele>2132.00</ele>
	<time>2024-07-25T09:59:55.000Z</time>
</trkpt>
<trkpt lat="46.1237400" lon="10.5020030">
	<ele>2132.00</ele>
	<time>2024-07-25T09:59:56.000Z</time>
</trkpt>
<trkpt lat="46.1237350" lon="10.5019890">
	<ele>2132.00</ele>
	<time>2024-07-25T09:59:57.000Z</time>
</trkpt>
<trkpt lat="46.1237220" lon="10.5019830">
	<ele>2132.00</ele>
	<time>2024-07-25T09:59:58.000Z</time>
</trkpt>
<trkpt lat="46.1237250" lon="10.5019750">
	<ele>2133.80</ele>
	<time>2024-07-25T09:59:59.000Z</time>
</trkpt>
<trkpt lat="46.1237270" lon="10.5019690">
	<ele>2135.00</ele>
	<time>2024-07-25T10:00:00.000Z</time>
</trkpt>
<trkpt lat="46.1237230" lon="10.5019600">
	<ele>2135.60</ele>
	<time>2024-07-25T10:00:01.000Z</time>
</trkpt>
<trkpt lat="46.1237310" lon="10.5019610">
	<ele>2136.00</ele>
	<time>2024-07-25T10:00:02.000Z</time>
</trkpt>
<trkpt lat="46.1237350" lon="10.5019640">
	<ele>2136.20</ele>
	<time>2024-07-25T10:00:03.000Z</time>
</trkpt>
<trkpt lat="46.1237370" lon="10.5019620">
	<ele>2136.20</ele>
	<time>2024-07-25T10:00:04.000Z</time>
</trkpt>
<trkpt lat="46.1237350" lon="10.5019620">
	<ele>2136.40</ele>
	<time>2024-07-25T10:00:05.000Z</time>
</trkpt>
<trkpt lat="46.1237370" lon="10.5019610">
	<ele>2136.20</ele>
	<time>2024-07-25T10:00:06.000Z</time>
</trkpt>
<trkpt lat="46.1237350" lon="10.5019580">
	<ele>2136.00</ele>
	<time>2024-07-25T10:00:07.000Z</time>
</trkpt>
<trkpt lat="46.1237320" lon="10.5019540">
	<ele>2135.80</ele>
	<time>2024-07-25T10:00:08.000Z</time>
</trkpt>
<trkpt lat="46.1237340" lon="10.5019460">
	<ele>2135.80</ele>
	<time>2024-07-25T10:00:09.000Z</time>
</trkpt>
<trkpt lat="46.1237430" lon="10.5019450">
	<ele>2135.60</ele>
	<time>2024-07-25T10:00:10.000Z</time>
</trkpt>
<trkpt lat="46.1237520" lon="10.5019560">
	<ele>2135.60</ele>
	<time>2024-07-25T10:00:11.000Z</time>
</trkpt>
<trkpt lat="46.1237550" lon="10.5019510">
	<ele>2135.60</ele>
	<time>2024-07-25T10:00:12.000Z</time>
</trkpt>
<trkpt lat="46.1237610" lon="10.5019410">
	<ele>2135.60</ele>
	<time>2024-07-25T10:00:13.000Z</time>
</trkpt>
<trkpt lat="46.1237560" lon="10.5019430">
	<ele>2135.60</ele>
	<time>2024-07-25T10:00:14.000Z</time>
</trkpt>
<trkpt lat="46.1237560" lon="10.5019490">
	<ele>2135.60</ele>
	<time>2024-07-25T10:00:15.000Z</time>
</trkpt>
<trkpt lat="46.1237600" lon="10.5019560">
	<ele>2135.40</ele>
	<time>2024-07-25T10:00:16.000Z</time>
</trkpt>
<trkpt lat="46.1237630" lon="10.5019530">
	<ele>2135.40</ele>
	<time>2024-07-25T10:00:17.000Z</time>
</trkpt>
<trkpt lat="46.1237620" lon="10.5019520">
	<ele>2135.40</ele>
	<time>2024-07-25T10:00:18.000Z</time>
</trkpt>
<trkpt lat="46.1237620" lon="10.5019580">
	<ele>2135.40</ele>
	<time>2024-07-25T10:00:19.000Z</time>
</trkpt>
<trkpt lat="46.1237620" lon="10.5019580">
	<ele>2135.40</ele>
	<time>2024-07-25T10:00:20.000Z</time>
</trkpt>
<trkpt lat="46.1237620" lon="10.5019580">
	<ele>2135.40</ele>
	<time>2024-07-25T10:00:21.000Z</time>
</trkpt>
<trkpt lat="46.1237620" lon="10.5019580">
	<ele>2135.40</ele>
	<time>2024-07-25T10:00:22.000Z</time>
</trkpt>
<trkpt lat="46.1237620" lon="10.5019580">
	<ele>2135.40</ele>
	<time>2024-07-25T10:00:23.000Z</time>
</trkpt>
<trkpt lat="46.1237620" lon="10.5019580">
	<ele>2135.40</ele>
	<time>2024-07-25T10:00:24.000Z</time>
</trkpt>
<trkpt lat="46.1237620" lon="10.5019580">
	<ele>2135.40</ele>
	<time>2024-07-25T10:00:25.000Z</time>
</trkpt>
<trkpt lat="46.1237620" lon="10.5019580">
	<ele>2135.40</ele>
	<time>2024-07-25T10:00:26.000Z</time>
</trkpt>
<trkpt lat="46.1237620" lon="10.5019580">
	<ele>2135.40</ele>
	<time>2024-07-25T10:00:27.000Z</time>
</trkpt>
<trkpt lat="46.1237620" lon="10.5019580">
	<ele>2135.40</ele>
	<time>2024-07-25T10:00:28.000Z</time>
</trkpt>
<trkpt lat="46.1237620" lon="10.5019580">
	<ele>2135.40</ele>
	<time>2024-07-25T10:00:29.000Z</time>
</trkpt>
<trkpt lat="46.1237620" lon="10.5019580">
	<ele>2135.40</ele>
	<time>2024-07-25T10:00:30.000Z</time>
</trkpt>
<trkpt lat="46.1237620" lon="10.5019580">
	<ele>2135.40</ele>
	<time>2024-07-25T10:00:31.000Z</time>
</trkpt>
<trkpt lat="46.1237620" lon="10.5019580">
	<ele>2135.20</ele>
	<time>2024-07-25T10:00:32.000Z</time>
</trkpt>
<trkpt lat="46.1237620" lon="10.5019570">
	<ele>2135.40</ele>
	<time>2024-07-25T10:00:33.000Z</time>
</trkpt>
<trkpt lat="46.1237620" lon="10.5019570">
	<ele>2135.40</ele>
	<time>2024-07-25T10:00:34.000Z</time>
</trkpt>
<trkpt lat="46.1237620" lon="10.5019560">
	<ele>2135.40</ele>
	<time>2024-07-25T10:00:35.000Z</time>
</trkpt>
<trkpt lat="46.1237620" lon="10.5019560">
	<ele>2135.40</ele>
	<time>2024-07-25T10:00:36.000Z</time>
</trkpt>
<trkpt lat="46.1237620" lon="10.5019560">
	<ele>2135.40</ele>
	<time>2024-07-25T10:00:37.000Z</time>
</trkpt>
<trkpt lat="46.1237620" lon="10.5019560">
	<ele>2135.40</ele>
	<time>2024-07-25T10:00:38.000Z</time>
</trkpt>
<trkpt lat="46.1237620" lon="10.5019560">
	<ele>2135.40</ele>
	<time>2024-07-25T10:00:39.000Z</time>
</trkpt>
<trkpt lat="46.1237620" lon="10.5019560">
	<ele>2135.40</ele>
	<time>2024-07-25T10:00:40.000Z</time>
</trkpt>
<trkpt lat="46.1237630" lon="10.5019560">
	<ele>2135.40</ele>
	<time>2024-07-25T10:00:41.000Z</time>
</trkpt>
<trkpt lat="46.1237630" lon="10.5019560">
	<ele>2135.40</ele>
	<time>2024-07-25T10:00:42.000Z</time>
</trkpt>
<trkpt lat="46.1237650" lon="10.5019570">
	<ele>2135.40</ele>
	<time>2024-07-25T10:00:43.000Z</time>
</trkpt>
<trkpt lat="46.1237650" lon="10.5019570">
	<ele>2135.40</ele>
	<time>2024-07-25T10:00:44.000Z</time>
</trkpt>
<trkpt lat="46.1237650" lon="10.5019580">
	<ele>2135.40</ele>
	<time>2024-07-25T10:00:45.000Z</time>
</trkpt>
<trkpt lat="46.1237650" lon="10.5019580">
	<ele>2135.40</ele>
	<time>2024-07-25T10:00:46.000Z</time>
</trkpt>
<trkpt lat="46.1237650" lon="10.5019580">
	<ele>2135.40</ele>
	<time>2024-07-25T10:00:47.000Z</time>
</trkpt>
<trkpt lat="46.1237650" lon="10.5019580">
	<ele>2135.40</ele>
	<time>2024-07-25T10:00:48.000Z</time>
</trkpt>
<trkpt lat="46.1237650" lon="10.5019580">
	<ele>2135.40</ele>
	<time>2024-07-25T10:00:49.000Z</time>
</trkpt>
<trkpt lat="46.1237640" lon="10.5019610">
	<ele>2135.40</ele>
	<time>2024-07-25T10:00:50.000Z</time>
</trkpt>
<trkpt lat="46.1237630" lon="10.5019680">
	<ele>2135.60</ele>
	<time>2024-07-25T10:00:51.000Z</time>
</trkpt>
<trkpt lat="46.1237640" lon="10.5019770">
	<ele>2135.60</ele>
	<time>2024-07-25T10:00:52.000Z</time>
</trkpt>
<trkpt lat="46.1237660" lon="10.5019910">
	<ele>2135.60</ele>
	<time>2024-07-25T10:00:53.000Z</time>
</trkpt>
<trkpt lat="46.1237690" lon="10.5020110">
	<ele>2135.60</ele>
	<time>2024-07-25T10:00:54.000Z</time>
</trkpt>
<trkpt lat="46.1237570" lon="10.5020030">
	<ele>2135.60</ele>
	<time>2024-07-25T10:00:55.000Z</time>
</trkpt>
<trkpt lat="46.1237510" lon="10.5020100">
	<ele>2135.60</ele>
	<time>2024-07-25T10:00:56.000Z</time>
</trkpt>
<trkpt lat="46.1237520" lon="10.5020270">
	<ele>2135.60</ele>
	<time>2024-07-25T10:00:57.000Z</time>
</trkpt>
<trkpt lat="46.1237500" lon="10.5020410">
	<ele>2135.40</ele>
	<time>2024-07-25T10:00:58.000Z</time>
</trkpt>
<trkpt lat="46.1237420" lon="10.5019890">
	<ele>2135.40</ele>
	<time>2024-07-25T10:00:59.000Z</time>
</trkpt>
<trkpt lat="46.1237270" lon="10.5020150">
	<ele>2135.40</ele>
	<time>2024-07-25T10:01:00.000Z</time>
</trkpt>
<trkpt lat="46.1237190" lon="10.5020190">
	<ele>2135.40</ele>
	<time>2024-07-25T10:01:01.000Z</time>
</trkpt>
<trkpt lat="46.1237210" lon="10.5020140">
	<ele>2135.40</ele>
	<time>2024-07-25T10:01:02.000Z</time>
</trkpt>
<trkpt lat="46.1237250" lon="10.5020110">
	<ele>2135.40</ele>
	<time>2024-07-25T10:01:03.000Z</time>
</trkpt>
<trkpt lat="46.1237240" lon="10.5020120">
	<ele>2135.40</ele>
	<time>2024-07-25T10:01:04.000Z</time>
</trkpt>
<trkpt lat="46.1237230" lon="10.5020060">
	<ele>2135.40</ele>
	<time>2024-07-25T10:01:05.000Z</time>
</trkpt>
<trkpt lat="46.1237230" lon="10.5020040">
	<ele>2135.40</ele>
	<time>2024-07-25T10:01:06.000Z</time>
</trkpt>
<trkpt lat="46.1237210" lon="10.5020010">
	<ele>2135.40</ele>
	<time>2024-07-25T10:01:07.000Z</time>
</trkpt>
<trkpt lat="46.1237190" lon="10.5019950">
	<ele>2135.40</ele>
	<time>2024-07-25T10:01:08.000Z</time>
</trkpt>
<trkpt lat="46.1237180" lon="10.5019960">
	<ele>2135.40</ele>
	<time>2024-07-25T10:01:09.000Z</time>
</trkpt>
<trkpt lat="46.1237160" lon="10.5019990">
	<ele>2135.40</ele>
	<time>2024-07-25T10:01:10.000Z</time>
</trkpt>
<trkpt lat="46.1237170" lon="10.5019980">
	<ele>2135.40</ele>
	<time>2024-07-25T10:01:11.000Z</time>
</trkpt>
<trkpt lat="46.1237160" lon="10.5019970">
	<ele>2135.40</ele>
	<time>2024-07-25T10:01:12.000Z</time>
</trkpt>
<trkpt lat="46.1237170" lon="10.5019930">
	<ele>2135.40</ele>
	<time>2024-07-25T10:01:13.000Z</time>
</trkpt>
<trkpt lat="46.1237140" lon="10.5019880">
	<ele>2135.40</ele>
	<time>2024-07-25T10:01:14.000Z</time>
</trkpt>
<trkpt lat="46.1237120" lon="10.5019840">
	<ele>2135.40</ele>
	<time>2024-07-25T10:01:15.000Z</time>
</trkpt>
<trkpt lat="46.1237100" lon="10.5019800">
	<ele>2135.40</ele>
	<time>2024-07-25T10:01:16.000Z</time>
</trkpt>
<trkpt lat="46.1237120" lon="10.5019820">
	<ele>2135.40</ele>
	<time>2024-07-25T10:01:17.000Z</time>
</trkpt>
<trkpt lat="46.1237190" lon="10.5019810">
	<ele>2135.40</ele>
	<time>2024-07-25T10:01:18.000Z</time>
</trkpt>
<trkpt lat="46.1237200" lon="10.5019810">
	<ele>2135.40</ele>
	<time>2024-07-25T10:01:19.000Z</time>
</trkpt>
<trkpt lat="46.1237220" lon="10.5019820">
	<ele>2135.40</ele>
	<time>2024-07-25T10:01:20.000Z</time>
</trkpt>
<trkpt lat="46.1237250" lon="10.5019850">
	<ele>2135.40</ele>
	<time>2024-07-25T10:01:21.000Z</time>
</trkpt>
<trkpt lat="46.1237300" lon="10.5019750">
	<ele>2135.40</ele>
	<time>2024-07-25T10:01:22.000Z</time>
</trkpt>
<trkpt lat="46.1237290" lon="10.5019660">
	<ele>2135.40</ele>
	<time>2024-07-25T10:01:23.000Z</time>
</trkpt>
<trkpt lat="46.1237290" lon="10.5019570">
	<ele>2135.40</ele>
	<time>2024-07-25T10:01:24.000Z</time>
</trkpt>
<trkpt lat="46.1237270" lon="10.5019540">
	<ele>2135.40</ele>
	<time>2024-07-25T10:01:25.000Z</time>
</trkpt>
<trkpt lat="46.1237270" lon="10.5019540">
	<ele>2135.40</ele>
	<time>2024-07-25T10:01:26.000Z</time>
</trkpt>
<trkpt lat="46.1237270" lon="10.5019540">
	<ele>2135.40</ele>
	<time>2024-07-25T10:01:27.000Z</time>
</trkpt>
<trkpt lat="46.1237270" lon="10.5019540">
	<ele>2135.40</ele>
	<time>2024-07-25T10:01:28.000Z</time>
</trkpt>
<trkpt lat="46.1237270" lon="10.5019540">
	<ele>2135.40</ele>
	<time>2024-07-25T10:01:29.000Z</time>
</trkpt>
<trkpt lat="46.1237270" lon="10.5019540">
	<ele>2135.40</ele>
	<time>2024-07-25T10:01:30.000Z</time>
</trkpt>
<trkpt lat="46.1237270" lon="10.5019540">
	<ele>2135.40</ele>
	<time>2024-07-25T10:01:31.000Z</time>
</trkpt>
<trkpt lat="46.1237270" lon="10.5019540">
	<ele>2135.40</ele>
	<time>2024-07-25T10:01:32.000Z</time>
</trkpt>
<trkpt lat="46.1237270" lon="10.5019570">
	<ele>2135.40</ele>
	<time>2024-07-25T10:01:33.000Z</time>
</trkpt>
<trkpt lat="46.1237270" lon="10.5019590">
	<ele>2135.40</ele>
	<time>2024-07-25T10:01:34.000Z</time>
</trkpt>
<trkpt lat="46.1237270" lon="10.5019610">
	<ele>2135.40</ele>
	<time>2024-07-25T10:01:35.000Z</time>
</trkpt>
<trkpt lat="46.1237270" lon="10.5019640">
	<ele>2135.40</ele>
	<time>2024-07-25T10:01:36.000Z</time>
</trkpt>
<trkpt lat="46.1237270" lon="10.5019650">
	<ele>2135.40</ele>
	<time>2024-07-25T10:01:37.000Z</time>
</trkpt>
<trkpt lat="46.1237270" lon="10.5019660">
	<ele>2135.40</ele>
	<time>2024-07-25T10:01:38.000Z</time>
</trkpt>
<trkpt lat="46.1237270" lon="10.5019660">
	<ele>2135.40</ele>
	<time>2024-07-25T10:01:39.000Z</time>
</trkpt>
<trkpt lat="46.1237270" lon="10.5019660">
	<ele>2135.40</ele>
	<time>2024-07-25T10:01:40.000Z</time>
</trkpt>
<trkpt lat="46.1237270" lon="10.5019660">
	<ele>2135.40</ele>
	<time>2024-07-25T10:01:41.000Z</time>
</trkpt>
<trkpt lat="46.1237270" lon="10.5019660">
	<ele>2135.40</ele>
	<time>2024-07-25T10:01:42.000Z</time>
</trkpt>
<trkpt lat="46.1237270" lon="10.5019660">
	<ele>2135.40</ele>
	<time>2024-07-25T10:01:43.000Z</time>
</trkpt>
<trkpt lat="46.1237270" lon="10.5019660">
	<ele>2135.40</ele>
	<time>2024-07-25T10:01:44.000Z</time>
</trkpt>
<trkpt lat="46.1237260" lon="10.5019660">
	<ele>2135.40</ele>
	<time>2024-07-25T10:01:45.000Z</time>
</trkpt>
<trkpt lat="46.1237260" lon="10.5019660">
	<ele>2135.40</ele>
	<time>2024-07-25T10:01:46.000Z</time>
</trkpt>
<trkpt lat="46.1237250" lon="10.5019660">
	<ele>2135.40</ele>
	<time>2024-07-25T10:01:47.000Z</time>
</trkpt>
<trkpt lat="46.1237250" lon="10.5019640">
	<ele>2135.40</ele>
	<time>2024-07-25T10:01:48.000Z</time>
</trkpt>
<trkpt lat="46.1237250" lon="10.5019640">
	<ele>2135.40</ele>
	<time>2024-07-25T10:01:49.000Z</time>
</trkpt>
<trkpt lat="46.1237250" lon="10.5019610">
	<ele>2135.40</ele>
	<time>2024-07-25T10:01:50.000Z</time>
</trkpt>
<trkpt lat="46.1237250" lon="10.5019590">
	<ele>2135.40</ele>
	<time>2024-07-25T10:01:51.000Z</time>
</trkpt>
<trkpt lat="46.1237240" lon="10.5019580">
	<ele>2135.40</ele>
	<time>2024-07-25T10:01:52.000Z</time>
</trkpt>
<trkpt lat="46.1237240" lon="10.5019570">
	<ele>2135.40</ele>
	<time>2024-07-25T10:01:53.000Z</time>
</trkpt>
<trkpt lat="46.1237230" lon="10.5019550">
	<ele>2135.40</ele>
	<time>2024-07-25T10:01:54.000Z</time>
</trkpt>
<trkpt lat="46.1237220" lon="10.5019490">
	<ele>2135.40</ele>
	<time>2024-07-25T10:01:55.000Z</time>
</trkpt>
<trkpt lat="46.1237220" lon="10.5019450">
	<ele>2135.40</ele>
	<time>2024-07-25T10:01:56.000Z</time>
</trkpt>
<trkpt lat="46.1237210" lon="10.5019430">
	<ele>2135.40</ele>
	<time>2024-07-25T10:01:57.000Z</time>
</trkpt>
<trkpt lat="46.1237190" lon="10.5019430">
	<ele>2135.40</ele>
	<time>2024-07-25T10:01:58.000Z</time>
</trkpt>
<trkpt lat="46.1237180" lon="10.5019430">
	<ele>2135.40</ele>
	<time>2024-07-25T10:01:59.000Z</time>
</trkpt>
<trkpt lat="46.1237180" lon="10.5019430">
	<ele>2135.40</ele>
	<time>2024-07-25T10:02:00.000Z</time>
</trkpt>
<trkpt lat="46.1237180" lon="10.5019430">
	<ele>2135.40</ele>
	<time>2024-07-25T10:02:01.000Z</time>
</trkpt>
<trkpt lat="46.1237170" lon="10.5019430">
	<ele>2135.40</ele>
	<time>2024-07-25T10:02:02.000Z</time>
</trkpt>
<trkpt lat="46.1237160" lon="10.5019430">
	<ele>2135.40</ele>
	<time>2024-07-25T10:02:03.000Z</time>
</trkpt>
<trkpt lat="46.1237160" lon="10.5019430">
	<ele>2135.40</ele>
	<time>2024-07-25T10:02:04.000Z</time>
</trkpt>
<trkpt lat="46.1237160" lon="10.5019430">
	<ele>2135.40</ele>
	<time>2024-07-25T10:02:05.000Z</time>
</trkpt>
<trkpt lat="46.1237160" lon="10.5019430">
	<ele>2135.40</ele>
	<time>2024-07-25T10:02:06.000Z</time>
</trkpt>
<trkpt lat="46.1237160" lon="10.5019430">
	<ele>2135.40</ele>
	<time>2024-07-25T10:02:07.000Z</time>
</trkpt>
<trkpt lat="46.1237160" lon="10.5019430">
	<ele>2135.40</ele>
	<time>2024-07-25T10:02:08.000Z</time>
</trkpt>
<trkpt lat="46.1237160" lon="10.5019430">
	<ele>2135.40</ele>
	<time>2024-07-25T10:02:09.000Z</time>
</trkpt>
<trkpt lat="46.1237160" lon="10.5019430">
	<ele>2135.40</ele>
	<time>2024-07-25T10:02:10.000Z</time>
</trkpt>
<trkpt lat="46.1237160" lon="10.5019430">
	<ele>2135.40</ele>
	<time>2024-07-25T10:02:11.000Z</time>
</trkpt>
<trkpt lat="46.1237160" lon="10.5019440">
	<ele>2135.40</ele>
	<time>2024-07-25T10:02:12.000Z</time>
</trkpt>
<trkpt lat="46.1237160" lon="10.5019450">
	<ele>2135.40</ele>
	<time>2024-07-25T10:02:13.000Z</time>
</trkpt>
<trkpt lat="46.1237160" lon="10.5019460">
	<ele>2135.40</ele>
	<time>2024-07-25T10:02:14.000Z</time>
</trkpt>
<trkpt lat="46.1237160" lon="10.5019470">
	<ele>2135.80</ele>
	<time>2024-07-25T10:02:15.000Z</time>
</trkpt>
<trkpt lat="46.1237160" lon="10.5019500">
	<ele>2136.20</ele>
	<time>2024-07-25T10:02:16.000Z</time>
</trkpt>
<trkpt lat="46.1237170" lon="10.5019520">
	<ele>2136.20</ele>
	<time>2024-07-25T10:02:17.000Z</time>
</trkpt>
<trkpt lat="46.1237170" lon="10.5019540">
	<ele>2136.40</ele>
	<time>2024-07-25T10:02:18.000Z</time>
</trkpt>
<trkpt lat="46.1237180" lon="10.5019550">
	<ele>2136.60</ele>
	<time>2024-07-25T10:02:19.000Z</time>
</trkpt>
<trkpt lat="46.1237200" lon="10.5019560">
	<ele>2136.60</ele>
	<time>2024-07-25T10:02:20.000Z</time>
</trkpt>
<trkpt lat="46.1237270" lon="10.5019590">
	<ele>2136.60</ele>
	<time>2024-07-25T10:02:21.000Z</time>
</trkpt>
<trkpt lat="46.1237300" lon="10.5019600">
	<ele>2136.60</ele>
	<time>2024-07-25T10:02:22.000Z</time>
</trkpt>
<trkpt lat="46.1237320" lon="10.5019620">
	<ele>2136.60</ele>
	<time>2024-07-25T10:02:23.000Z</time>
</trkpt>
<trkpt lat="46.1237330" lon="10.5019630">
	<ele>2136.40</ele>
	<time>2024-07-25T10:02:24.000Z</time>
</trkpt>
<trkpt lat="46.1237340" lon="10.5019650">
	<ele>2136.40</ele>
	<time>2024-07-25T10:02:25.000Z</time>
</trkpt>
<trkpt lat="46.1237350" lon="10.5019660">
	<ele>2136.40</ele>
	<time>2024-07-25T10:02:26.000Z</time>
</trkpt>
<trkpt lat="46.1237350" lon="10.5019680">
	<ele>2136.40</ele>
	<time>2024-07-25T10:02:27.000Z</time>
</trkpt>
<trkpt lat="46.1237350" lon="10.5019750">
	<ele>2136.40</ele>
	<time>2024-07-25T10:02:28.000Z</time>
</trkpt>
<trkpt lat="46.1237350" lon="10.5019780">
	<ele>2136.40</ele>
	<time>2024-07-25T10:02:29.000Z</time>
</trkpt>
<trkpt lat="46.1237350" lon="10.5019790">
	<ele>2136.40</ele>
	<time>2024-07-25T10:02:30.000Z</time>
</trkpt>
<trkpt lat="46.1237360" lon="10.5019800">
	<ele>2136.40</ele>
	<time>2024-07-25T10:02:31.000Z</time>
</trkpt>
<trkpt lat="46.1237370" lon="10.5019800">
	<ele>2136.40</ele>
	<time>2024-07-25T10:02:32.000Z</time>
</trkpt>
<trkpt lat="46.1237370" lon="10.5019820">
	<ele>2136.60</ele>
	<time>2024-07-25T10:02:33.000Z</time>
</trkpt>
<trkpt lat="46.1237370" lon="10.5019840">
	<ele>2136.60</ele>
	<time>2024-07-25T10:02:34.000Z</time>
</trkpt>
<trkpt lat="46.1237370" lon="10.5019850">
	<ele>2136.60</ele>
	<time>2024-07-25T10:02:35.000Z</time>
</trkpt>
<trkpt lat="46.1237370" lon="10.5019850">
	<ele>2136.60</ele>
	<time>2024-07-25T10:02:36.000Z</time>
</trkpt>
<trkpt lat="46.1237370" lon="10.5019860">
	<ele>2136.60</ele>
	<time>2024-07-25T10:02:37.000Z</time>
</trkpt>
<trkpt lat="46.1237370" lon="10.5019890">
	<ele>2136.60</ele>
	<time>2024-07-25T10:02:38.000Z</time>
</trkpt>
<trkpt lat="46.1237370" lon="10.5019910">
	<ele>2136.60</ele>
	<time>2024-07-25T10:02:39.000Z</time>
</trkpt>
<trkpt lat="46.1237370" lon="10.5019930">
	<ele>2136.80</ele>
	<time>2024-07-25T10:02:40.000Z</time>
</trkpt>
<trkpt lat="46.1237370" lon="10.5019950">
	<ele>2136.80</ele>
	<time>2024-07-25T10:02:41.000Z</time>
</trkpt>
<trkpt lat="46.1237370" lon="10.5019960">
	<ele>2136.80</ele>
	<time>2024-07-25T10:02:42.000Z</time>
</trkpt>
<trkpt lat="46.1237380" lon="10.5019970">
	<ele>2136.80</ele>
	<time>2024-07-25T10:02:43.000Z</time>
</trkpt>
<trkpt lat="46.1237390" lon="10.5019970">
	<ele>2136.80</ele>
	<time>2024-07-25T10:02:44.000Z</time>
</trkpt>
<trkpt lat="46.1237400" lon="10.5019990">
	<ele>2136.80</ele>
	<time>2024-07-25T10:02:45.000Z</time>
</trkpt>
<trkpt lat="46.1237410" lon="10.5020010">
	<ele>2136.80</ele>
	<time>2024-07-25T10:02:46.000Z</time>
</trkpt>
<trkpt lat="46.1237420" lon="10.5020020">
	<ele>2136.80</ele>
	<time>2024-07-25T10:02:47.000Z</time>
</trkpt>
<trkpt lat="46.1237430" lon="10.5020020">
	<ele>2136.80</ele>
	<time>2024-07-25T10:02:48.000Z</time>
</trkpt>
<trkpt lat="46.1237430" lon="10.5020020">
	<ele>2136.80</ele>
	<time>2024-07-25T10:02:49.000Z</time>
</trkpt>
<trkpt lat="46.1237440" lon="10.5020030">
	<ele>2137.00</ele>
	<time>2024-07-25T10:02:50.000Z</time>
</trkpt>
<trkpt lat="46.1237440" lon="10.5020030">
	<ele>2137.00</ele>
	<time>2024-07-25T10:02:51.000Z</time>
</trkpt>
<trkpt lat="46.1237440" lon="10.5020030">
	<ele>2137.20</ele>
	<time>2024-07-25T10:02:52.000Z</time>
</trkpt>
<trkpt lat="46.1237500" lon="10.5020030">
	<ele>2137.20</ele>
	<time>2024-07-25T10:02:53.000Z</time>
</trkpt>
<trkpt lat="46.1237570" lon="10.5020030">
	<ele>2137.20</ele>
	<time>2024-07-25T10:02:54.000Z</time>
</trkpt>
<trkpt lat="46.1237640" lon="10.5020030">
	<ele>2137.00</ele>
	<time>2024-07-25T10:02:55.000Z</time>
</trkpt>
<trkpt lat="46.1237710" lon="10.5020030">
	<ele>2137.00</ele>
	<time>2024-07-25T10:02:56.000Z</time>
</trkpt>
<trkpt lat="46.1237770" lon="10.5020030">
	<ele>2137.00</ele>
	<time>2024-07-25T10:02:57.000Z</time>
</trkpt>
<trkpt lat="46.1237820" lon="10.5020030">
	<ele>2137.00</ele>
	<time>2024-07-25T10:02:58.000Z</time>
</trkpt>
<trkpt lat="46.1237870" lon="10.5020030">
	<ele>2137.00</ele>
	<time>2024-07-25T10:02:59.000Z</time>
</trkpt>
<trkpt lat="46.1237930" lon="10.5020040">
	<ele>2137.00</ele>
	<time>2024-07-25T10:03:00.000Z</time>
</trkpt>
<trkpt lat="46.1237960" lon="10.5020040">
	<ele>2137.00</ele>
	<time>2024-07-25T10:03:01.000Z</time>
</trkpt>
<trkpt lat="46.1237980" lon="10.5020050">
	<ele>2137.00</ele>
	<time>2024-07-25T10:03:02.000Z</time>
</trkpt>
<trkpt lat="46.1237990" lon="10.5020050">
	<ele>2136.80</ele>
	<time>2024-07-25T10:03:03.000Z</time>
</trkpt>
<trkpt lat="46.1237990" lon="10.5020050">
	<ele>2136.80</ele>
	<time>2024-07-25T10:03:04.000Z</time>
</trkpt>
<trkpt lat="46.1238000" lon="10.5020050">
	<ele>2136.80</ele>
	<time>2024-07-25T10:03:05.000Z</time>
</trkpt>
<trkpt lat="46.1238000" lon="10.5020040">
	<ele>2136.80</ele>
	<time>2024-07-25T10:03:06.000Z</time>
</trkpt>
<trkpt lat="46.1238000" lon="10.5020040">
	<ele>2136.80</ele>
	<time>2024-07-25T10:03:07.000Z</time>
</trkpt>
<trkpt lat="46.1238000" lon="10.5020040">
	<ele>2136.80</ele>
	<time>2024-07-25T10:03:08.000Z</time>
</trkpt>
<trkpt lat="46.1238000" lon="10.5020040">
	<ele>2136.80</ele>
	<time>2024-07-25T10:03:09.000Z</time>
</trkpt>
<trkpt lat="46.1238000" lon="10.5020040">
	<ele>2136.80</ele>
	<time>2024-07-25T10:03:10.000Z</time>
</trkpt>
<trkpt lat="46.1238000" lon="10.5020040">
	<ele>2136.80</ele>
	<time>2024-07-25T10:03:11.000Z</time>
</trkpt>
<trkpt lat="46.1238000" lon="10.5020040">
	<ele>2136.80</ele>
	<time>2024-07-25T10:03:12.000Z</time>
</trkpt>
<trkpt lat="46.1238000" lon="10.5020030">
	<ele>2137.00</ele>
	<time>2024-07-25T10:03:13.000Z</time>
</trkpt>
<trkpt lat="46.1238010" lon="10.5020030">
	<ele>2137.00</ele>
	<time>2024-07-25T10:03:14.000Z</time>
</trkpt>
<trkpt lat="46.1238010" lon="10.5020030">
	<ele>2137.20</ele>
	<time>2024-07-25T10:03:15.000Z</time>
</trkpt>
<trkpt lat="46.1238010" lon="10.5020020">
	<ele>2137.40</ele>
	<time>2024-07-25T10:03:16.000Z</time>
</trkpt>
<trkpt lat="46.1238000" lon="10.5020020">
	<ele>2137.40</ele>
	<time>2024-07-25T10:03:17.000Z</time>
</trkpt>
<trkpt lat="46.1238000" lon="10.5020020">
	<ele>2137.40</ele>
	<time>2024-07-25T10:03:18.000Z</time>
</trkpt>
<trkpt lat="46.1238000" lon="10.5020020">
	<ele>2137.40</ele>
	<time>2024-07-25T10:03:19.000Z</time>
</trkpt>
<trkpt lat="46.1238000" lon="10.5020020">
	<ele>2137.40</ele>
	<time>2024-07-25T10:03:20.000Z</time>
</trkpt>
<trkpt lat="46.1238000" lon="10.5020010">
	<ele>2137.40</ele>
	<time>2024-07-25T10:03:21.000Z</time>
</trkpt>
<trkpt lat="46.1238000" lon="10.5020010">
	<ele>2137.40</ele>
	<time>2024-07-25T10:03:22.000Z</time>
</trkpt>
<trkpt lat="46.1238000" lon="10.5020010">
	<ele>2137.40</ele>
	<time>2024-07-25T10:03:23.000Z</time>
</trkpt>
<trkpt lat="46.1238000" lon="10.5020010">
	<ele>2137.40</ele>
	<time>2024-07-25T10:03:24.000Z</time>
</trkpt>
<trkpt lat="46.1238000" lon="10.5020010">
	<ele>2137.40</ele>
	<time>2024-07-25T10:03:25.000Z</time>
</trkpt>
<trkpt lat="46.1238000" lon="10.5020010">
	<ele>2137.40</ele>
	<time>2024-07-25T10:03:26.000Z</time>
</trkpt>
<trkpt lat="46.1238000" lon="10.5020020">
	<ele>2137.40</ele>
	<time>2024-07-25T10:03:27.000Z</time>
</trkpt>
<trkpt lat="46.1238000" lon="10.5020020">
	<ele>2137.40</ele>
	<time>2024-07-25T10:03:28.000Z</time>
</trkpt>
<trkpt lat="46.1238000" lon="10.5020020">
	<ele>2137.40</ele>
	<time>2024-07-25T10:03:29.000Z</time>
</trkpt>
<trkpt lat="46.1238000" lon="10.5020020">
	<ele>2137.40</ele>
	<time>2024-07-25T10:03:30.000Z</time>
</trkpt>
<trkpt lat="46.1238000" lon="10.5020020">
	<ele>2137.40</ele>
	<time>2024-07-25T10:03:31.000Z</time>
</trkpt>
<trkpt lat="46.1238000" lon="10.5020020">
	<ele>2137.40</ele>
	<time>2024-07-25T10:03:32.000Z</time>
</trkpt>
<trkpt lat="46.1238000" lon="10.5020020">
	<ele>2137.40</ele>
	<time>2024-07-25T10:03:33.000Z</time>
</trkpt>
<trkpt lat="46.1238000" lon="10.5020020">
	<ele>2137.40</ele>
	<time>2024-07-25T10:03:34.000Z</time>
</trkpt>
<trkpt lat="46.1238010" lon="10.5020020">
	<ele>2137.40</ele>
	<time>2024-07-25T10:03:35.000Z</time>
</trkpt>
<trkpt lat="46.1238010" lon="10.5020020">
	<ele>2137.40</ele>
	<time>2024-07-25T10:03:36.000Z</time>
</trkpt>
<trkpt lat="46.1238010" lon="10.5020020">
	<ele>2137.40</ele>
	<time>2024-07-25T10:03:37.000Z</time>
</trkpt>
<trkpt lat="46.1238010" lon="10.5020020">
	<ele>2137.40</ele>
	<time>2024-07-25T10:03:38.000Z</time>
</trkpt>
<trkpt lat="46.1238010" lon="10.5020020">
	<ele>2137.40</ele>
	<time>2024-07-25T10:03:39.000Z</time>
</trkpt>
<trkpt lat="46.1238010" lon="10.5020030">
	<ele>2137.40</ele>
	<time>2024-07-25T10:03:40.000Z</time>
</trkpt>
<trkpt lat="46.1238010" lon="10.5020040">
	<ele>2137.40</ele>
	<time>2024-07-25T10:03:41.000Z</time>
</trkpt>
<trkpt lat="46.1238010" lon="10.5020050">
	<ele>2137.40</ele>
	<time>2024-07-25T10:03:42.000Z</time>
</trkpt>
<trkpt lat="46.1238000" lon="10.5020060">
	<ele>2137.40</ele>
	<time>2024-07-25T10:03:43.000Z</time>
</trkpt>
<trkpt lat="46.1238010" lon="10.5020070">
	<ele>2137.40</ele>
	<time>2024-07-25T10:03:44.000Z</time>
</trkpt>
<trkpt lat="46.1238010" lon="10.5020070">
	<ele>2137.40</ele>
	<time>2024-07-25T10:03:45.000Z</time>
</trkpt>
<trkpt lat="46.1238010" lon="10.5020080">
	<ele>2137.40</ele>
	<time>2024-07-25T10:03:46.000Z</time>
</trkpt>
<trkpt lat="46.1238010" lon="10.5020100">
	<ele>2137.40</ele>
	<time>2024-07-25T10:03:47.000Z</time>
</trkpt>
<trkpt lat="46.1238010" lon="10.5020110">
	<ele>2137.40</ele>
	<time>2024-07-25T10:03:48.000Z</time>
</trkpt>
<trkpt lat="46.1238010" lon="10.5020110">
	<ele>2137.40</ele>
	<time>2024-07-25T10:03:49.000Z</time>
</trkpt>
<trkpt lat="46.1238010" lon="10.5020120">
	<ele>2137.40</ele>
	<time>2024-07-25T10:03:50.000Z</time>
</trkpt>
<trkpt lat="46.1238010" lon="10.5020130">
	<ele>2137.40</ele>
	<time>2024-07-25T10:03:51.000Z</time>
</trkpt>
<trkpt lat="46.1238010" lon="10.5020140">
	<ele>2137.40</ele>
	<time>2024-07-25T10:03:52.000Z</time>
</trkpt>
<trkpt lat="46.1238010" lon="10.5020150">
	<ele>2137.40</ele>
	<time>2024-07-25T10:03:53.000Z</time>
</trkpt>
<trkpt lat="46.1238010" lon="10.5020160">
	<ele>2137.40</ele>
	<time>2024-07-25T10:03:54.000Z</time>
</trkpt>
<trkpt lat="46.1238010" lon="10.5020170">
	<ele>2137.40</ele>
	<time>2024-07-25T10:03:55.000Z</time>
</trkpt>
<trkpt lat="46.1238010" lon="10.5020170">
	<ele>2137.40</ele>
	<time>2024-07-25T10:03:56.000Z</time>
</trkpt>
<trkpt lat="46.1238010" lon="10.5020180">
	<ele>2137.40</ele>
	<time>2024-07-25T10:03:57.000Z</time>
</trkpt>
<trkpt lat="46.1238010" lon="10.5020180">
	<ele>2137.40</ele>
	<time>2024-07-25T10:03:58.000Z</time>
</trkpt>
<trkpt lat="46.1238010" lon="10.5020180">
	<ele>2137.40</ele>
	<time>2024-07-25T10:03:59.000Z</time>
</trkpt>
<trkpt lat="46.1238000" lon="10.5020180">
	<ele>2137.40</ele>
	<time>2024-07-25T10:04:00.000Z</time>
</trkpt>
<trkpt lat="46.1238000" lon="10.5020180">
	<ele>2137.40</ele>
	<time>2024-07-25T10:04:01.000Z</time>
</trkpt>
<trkpt lat="46.1238000" lon="10.5020190">
	<ele>2137.40</ele>
	<time>2024-07-25T10:04:02.000Z</time>
</trkpt>
<trkpt lat="46.1238000" lon="10.5020190">
	<ele>2137.40</ele>
	<time>2024-07-25T10:04:03.000Z</time>
</trkpt>
<trkpt lat="46.1238000" lon="10.5020190">
	<ele>2137.40</ele>
	<time>2024-07-25T10:04:04.000Z</time>
</trkpt>
<trkpt lat="46.1238000" lon="10.5020190">
	<ele>2137.40</ele>
	<time>2024-07-25T10:04:05.000Z</time>
</trkpt>
<trkpt lat="46.1238000" lon="10.5020190">
	<ele>2137.40</ele>
	<time>2024-07-25T10:04:06.000Z</time>
</trkpt>
<trkpt lat="46.1238000" lon="10.5020190">
	<ele>2137.40</ele>
	<time>2024-07-25T10:04:07.000Z</time>
</trkpt>
<trkpt lat="46.1238000" lon="10.5020190">
	<ele>2137.40</ele>
	<time>2024-07-25T10:04:08.000Z</time>
</trkpt>
<trkpt lat="46.1238000" lon="10.5020180">
	<ele>2137.40</ele>
	<time>2024-07-25T10:04:09.000Z</time>
</trkpt>
<trkpt lat="46.1238000" lon="10.5020180">
	<ele>2137.40</ele>
	<time>2024-07-25T10:04:10.000Z</time>
</trkpt>
<trkpt lat="46.1238000" lon="10.5020180">
	<ele>2137.40</ele>
	<time>2024-07-25T10:04:11.000Z</time>
</trkpt>
<trkpt lat="46.1238010" lon="10.5020180">
	<ele>2137.40</ele>
	<time>2024-07-25T10:04:12.000Z</time>
</trkpt>
<trkpt lat="46.1238000" lon="10.5020180">
	<ele>2137.40</ele>
	<time>2024-07-25T10:04:13.000Z</time>
</trkpt>
<trkpt lat="46.1238000" lon="10.5020180">
	<ele>2137.40</ele>
	<time>2024-07-25T10:04:14.000Z</time>
</trkpt>
<trkpt lat="46.1238000" lon="10.5020180">
	<ele>2137.40</ele>
	<time>2024-07-25T10:04:15.000Z</time>
</trkpt>
<trkpt lat="46.1237990" lon="10.5020190">
	<ele>2137.40</ele>
	<time>2024-07-25T10:04:16.000Z</time>
</trkpt>
<trkpt lat="46.1237990" lon="10.5020190">
	<ele>2137.40</ele>
	<time>2024-07-25T10:04:17.000Z</time>
</trkpt>
<trkpt lat="46.1237980" lon="10.5020190">
	<ele>2137.40</ele>
	<time>2024-07-25T10:04:18.000Z</time>
</trkpt>
<trkpt lat="46.1237970" lon="10.5020190">
	<ele>2137.40</ele>
	<time>2024-07-25T10:04:19.000Z</time>
</trkpt>
<trkpt lat="46.1237970" lon="10.5020190">
	<ele>2137.40</ele>
	<time>2024-07-25T10:04:20.000Z</time>
</trkpt>
<trkpt lat="46.1237960" lon="10.5020190">
	<ele>2137.40</ele>
	<time>2024-07-25T10:04:21.000Z</time>
</trkpt>
<trkpt lat="46.1237950" lon="10.5020190">
	<ele>2137.40</ele>
	<time>2024-07-25T10:04:22.000Z</time>
</trkpt>
<trkpt lat="46.1237940" lon="10.5020180">
	<ele>2137.40</ele>
	<time>2024-07-25T10:04:23.000Z</time>
</trkpt>
<trkpt lat="46.1237920" lon="10.5020180">
	<ele>2137.40</ele>
	<time>2024-07-25T10:04:24.000Z</time>
</trkpt>
<trkpt lat="46.1237910" lon="10.5020180">
	<ele>2137.40</ele>
	<time>2024-07-25T10:04:25.000Z</time>
</trkpt>
<trkpt lat="46.1237910" lon="10.5020180">
	<ele>2137.40</ele>
	<time>2024-07-25T10:04:26.000Z</time>
</trkpt>
<trkpt lat="46.1237900" lon="10.5020190">
	<ele>2137.40</ele>
	<time>2024-07-25T10:04:27.000Z</time>
</trkpt>
<trkpt lat="46.1237880" lon="10.5020190">
	<ele>2137.40</ele>
	<time>2024-07-25T10:04:28.000Z</time>
</trkpt>
<trkpt lat="46.1237880" lon="10.5020190">
	<ele>2137.40</ele>
	<time>2024-07-25T10:04:29.000Z</time>
</trkpt>
<trkpt lat="46.1237870" lon="10.5020190">
	<ele>2137.40</ele>
	<time>2024-07-25T10:04:30.000Z</time>
</trkpt>
<trkpt lat="46.1237860" lon="10.5020190">
	<ele>2137.40</ele>
	<time>2024-07-25T10:04:31.000Z</time>
</trkpt>
<trkpt lat="46.1237850" lon="10.5020200">
	<ele>2137.40</ele>
	<time>2024-07-25T10:04:32.000Z</time>
</trkpt>
<trkpt lat="46.1237850" lon="10.5020200">
	<ele>2137.40</ele>
	<time>2024-07-25T10:04:33.000Z</time>
</trkpt>
<trkpt lat="46.1237840" lon="10.5020200">
	<ele>2137.40</ele>
	<time>2024-07-25T10:04:34.000Z</time>
</trkpt>
<trkpt lat="46.1237840" lon="10.5020200">
	<ele>2137.40</ele>
	<time>2024-07-25T10:04:35.000Z</time>
</trkpt>
<trkpt lat="46.1237840" lon="10.5020200">
	<ele>2137.40</ele>
	<time>2024-07-25T10:04:36.000Z</time>
</trkpt>
<trkpt lat="46.1237830" lon="10.5020200">
	<ele>2137.40</ele>
	<time>2024-07-25T10:04:37.000Z</time>
</trkpt>
<trkpt lat="46.1237830" lon="10.5020200">
	<ele>2137.40</ele>
	<time>2024-07-25T10:04:38.000Z</time>
</trkpt>
<trkpt lat="46.1237830" lon="10.5020200">
	<ele>2137.40</ele>
	<time>2024-07-25T10:04:39.000Z</time>
</trkpt>
<trkpt lat="46.1237830" lon="10.5020200">
	<ele>2137.40</ele>
	<time>2024-07-25T10:04:40.000Z</time>
</trkpt>
<trkpt lat="46.1237830" lon="10.5020200">
	<ele>2137.40</ele>
	<time>2024-07-25T10:04:41.000Z</time>
</trkpt>
<trkpt lat="46.1237830" lon="10.5020200">
	<ele>2137.40</ele>
	<time>2024-07-25T10:04:42.000Z</time>
</trkpt>
<trkpt lat="46.1237830" lon="10.5020190">
	<ele>2137.40</ele>
	<time>2024-07-25T10:04:43.000Z</time>
</trkpt>
<trkpt lat="46.1237830" lon="10.5020190">
	<ele>2137.40</ele>
	<time>2024-07-25T10:04:44.000Z</time>
</trkpt>
<trkpt lat="46.1237830" lon="10.5020190">
	<ele>2137.40</ele>
	<time>2024-07-25T10:04:45.000Z</time>
</trkpt>
<trkpt lat="46.1237830" lon="10.5020190">
	<ele>2137.40</ele>
	<time>2024-07-25T10:04:46.000Z</time>
</trkpt>
<trkpt lat="46.1237830" lon="10.5020190">
	<ele>2137.40</ele>
	<time>2024-07-25T10:04:47.000Z</time>
</trkpt>
<trkpt lat="46.1237830" lon="10.5020190">
	<ele>2137.40</ele>
	<time>2024-07-25T10:04:48.000Z</time>
</trkpt>
<trkpt lat="46.1237830" lon="10.5020190">
	<ele>2137.40</ele>
	<time>2024-07-25T10:04:49.000Z</time>
</trkpt>
<trkpt lat="46.1237830" lon="10.5020190">
	<ele>2137.40</ele>
	<time>2024-07-25T10:04:50.000Z</time>
</trkpt>
<trkpt lat="46.1237830" lon="10.5020190">
	<ele>2137.40</ele>
	<time>2024-07-25T10:04:51.000Z</time>
</trkpt>
<trkpt lat="46.1237830" lon="10.5020190">
	<ele>2137.40</ele>
	<time>2024-07-25T10:04:52.000Z</time>
</trkpt>
<trkpt lat="46.1237830" lon="10.5020190">
	<ele>2137.40</ele>
	<time>2024-07-25T10:04:53.000Z</time>
</trkpt>
<trkpt lat="46.1237830" lon="10.5020190">
	<ele>2137.40</ele>
	<time>2024-07-25T10:04:54.000Z</time>
</trkpt>
<trkpt lat="46.1237820" lon="10.5020200">
	<ele>2137.40</ele>
	<time>2024-07-25T10:04:55.000Z</time>
</trkpt>
<trkpt lat="46.1237820" lon="10.5020200">
	<ele>2137.40</ele>
	<time>2024-07-25T10:04:56.000Z</time>
</trkpt>
<trkpt lat="46.1237820" lon="10.5020200">
	<ele>2137.40</ele>
	<time>2024-07-25T10:04:57.000Z</time>
</trkpt>
<trkpt lat="46.1237820" lon="10.5020200">
	<ele>2137.40</ele>
	<time>2024-07-25T10:04:58.000Z</time>
</trkpt>
<trkpt lat="46.1237820" lon="10.5020200">
	<ele>2137.40</ele>
	<time>2024-07-25T10:04:59.000Z</time>
</trkpt>
<trkpt lat="46.1237820" lon="10.5020200">
	<ele>2137.40</ele>
	<time>2024-07-25T10:05:00.000Z</time>
</trkpt>
<trkpt lat="46.1237830" lon="10.5020200">
	<ele>2137.40</ele>
	<time>2024-07-25T10:05:01.000Z</time>
</trkpt>
<trkpt lat="46.1237830" lon="10.5020200">
	<ele>2137.40</ele>
	<time>2024-07-25T10:05:02.000Z</time>
</trkpt>
<trkpt lat="46.1237830" lon="10.5020200">
	<ele>2137.40</ele>
	<time>2024-07-25T10:05:03.000Z</time>
</trkpt>
<trkpt lat="46.1237830" lon="10.5020200">
	<ele>2137.40</ele>
	<time>2024-07-25T10:05:04.000Z</time>
</trkpt>
<trkpt lat="46.1237830" lon="10.5020200">
	<ele>2137.40</ele>
	<time>2024-07-25T10:05:05.000Z</time>
</trkpt>
<trkpt lat="46.1237830" lon="10.5020200">
	<ele>2137.40</ele>
	<time>2024-07-25T10:05:06.000Z</time>
</trkpt>
<trkpt lat="46.1237830" lon="10.5020200">
	<ele>2137.40</ele>
	<time>2024-07-25T10:05:07.000Z</time>
</trkpt>
<trkpt lat="46.1237830" lon="10.5020200">
	<ele>2137.40</ele>
	<time>2024-07-25T10:05:08.000Z</time>
</trkpt>
<trkpt lat="46.1237830" lon="10.5020200">
	<ele>2137.40</ele>
	<time>2024-07-25T10:05:09.000Z</time>
</trkpt>
<trkpt lat="46.1237830" lon="10.5020200">
	<ele>2137.40</ele>
	<time>2024-07-25T10:05:10.000Z</time>
</trkpt>
<trkpt lat="46.1237830" lon="10.5020200">
	<ele>2137.40</ele>
	<time>2024-07-25T10:05:11.000Z</time>
</trkpt>
<trkpt lat="46.1237830" lon="10.5020200">
	<ele>2137.40</ele>
	<time>2024-07-25T10:05:12.000Z</time>
</trkpt>
<trkpt lat="46.1237830" lon="10.5020200">
	<ele>2137.40</ele>
	<time>2024-07-25T10:05:13.000Z</time>
</trkpt>
<trkpt lat="46.1237840" lon="10.5020200">
	<ele>2137.40</ele>
	<time>2024-07-25T10:05:14.000Z</time>
</trkpt>
<trkpt lat="46.1237840" lon="10.5020200">
	<ele>2137.40</ele>
	<time>2024-07-25T10:05:15.000Z</time>
</trkpt>
<trkpt lat="46.1237840" lon="10.5020200">
	<ele>2137.40</ele>
	<time>2024-07-25T10:05:16.000Z</time>
</trkpt>
<trkpt lat="46.1237840" lon="10.5020200">
	<ele>2137.40</ele>
	<time>2024-07-25T10:05:17.000Z</time>
</trkpt>
<trkpt lat="46.1237840" lon="10.5020200">
	<ele>2137.40</ele>
	<time>2024-07-25T10:05:18.000Z</time>
</trkpt>
<trkpt lat="46.1237840" lon="10.5020200">
	<ele>2137.40</ele>
	<time>2024-07-25T10:05:19.000Z</time>
</trkpt>
<trkpt lat="46.1237840" lon="10.5020200">
	<ele>2137.40</ele>
	<time>2024-07-25T10:05:20.000Z</time>
</trkpt>
<trkpt lat="46.1237840" lon="10.5020210">
	<ele>2137.40</ele>
	<time>2024-07-25T10:05:21.000Z</time>
</trkpt>
<trkpt lat="46.1237850" lon="10.5020210">
	<ele>2137.40</ele>
	<time>2024-07-25T10:05:22.000Z</time>
</trkpt>
<trkpt lat="46.1237850" lon="10.5020210">
	<ele>2137.40</ele>
	<time>2024-07-25T10:05:23.000Z</time>
</trkpt>
<trkpt lat="46.1237850" lon="10.5020210">
	<ele>2137.40</ele>
	<time>2024-07-25T10:05:24.000Z</time>
</trkpt>
<trkpt lat="46.1237860" lon="10.5020200">
	<ele>2137.40</ele>
	<time>2024-07-25T10:05:25.000Z</time>
</trkpt>
<trkpt lat="46.1237860" lon="10.5020210">
	<ele>2137.40</ele>
	<time>2024-07-25T10:05:26.000Z</time>
</trkpt>
<trkpt lat="46.1237850" lon="10.5020210">
	<ele>2137.40</ele>
	<time>2024-07-25T10:05:27.000Z</time>
</trkpt>
<trkpt lat="46.1237850" lon="10.5020210">
	<ele>2137.40</ele>
	<time>2024-07-25T10:05:28.000Z</time>
</trkpt>
<trkpt lat="46.1237850" lon="10.5020210">
	<ele>2137.40</ele>
	<time>2024-07-25T10:05:29.000Z</time>
</trkpt>
<trkpt lat="46.1237850" lon="10.5020210">
	<ele>2137.40</ele>
	<time>2024-07-25T10:05:30.000Z</time>
</trkpt>
<trkpt lat="46.1237850" lon="10.5020210">
	<ele>2137.40</ele>
	<time>2024-07-25T10:05:31.000Z</time>
</trkpt>
<trkpt lat="46.1237850" lon="10.5020210">
	<ele>2137.40</ele>
	<time>2024-07-25T10:05:32.000Z</time>
</trkpt>
<trkpt lat="46.1237850" lon="10.5020210">
	<ele>2137.40</ele>
	<time>2024-07-25T10:05:33.000Z</time>
</trkpt>
<trkpt lat="46.1237850" lon="10.5020210">
	<ele>2137.40</ele>
	<time>2024-07-25T10:05:34.000Z</time>
</trkpt>
<trkpt lat="46.1237850" lon="10.5020200">
	<ele>2137.40</ele>
	<time>2024-07-25T10:05:35.000Z</time>
</trkpt>
<trkpt lat="46.1237850" lon="10.5020200">
	<ele>2137.40</ele>
	<time>2024-07-25T10:05:36.000Z</time>
</trkpt>
<trkpt lat="46.1237850" lon="10.5020200">
	<ele>2137.40</ele>
	<time>2024-07-25T10:05:37.000Z</time>
</trkpt>
<trkpt lat="46.1237850" lon="10.5020200">
	<ele>2137.40</ele>
	<time>2024-07-25T10:05:38.000Z</time>
</trkpt>
<trkpt lat="46.1237850" lon="10.5020200">
	<ele>2137.40</ele>
	<time>2024-07-25T10:05:39.000Z</time>
</trkpt>
<trkpt lat="46.1237850" lon="10.5020200">
	<ele>2137.40</ele>
	<time>2024-07-25T10:05:40.000Z</time>
</trkpt>
<trkpt lat="46.1237850" lon="10.5020210">
	<ele>2137.40</ele>
	<time>2024-07-25T10:05:41.000Z</time>
</trkpt>
<trkpt lat="46.1237850" lon="10.5020210">
	<ele>2137.40</ele>
	<time>2024-07-25T10:05:42.000Z</time>
</trkpt>
<trkpt lat="46.1237850" lon="10.5020210">
	<ele>2137.40</ele>
	<time>2024-07-25T10:05:43.000Z</time>
</trkpt>
<trkpt lat="46.1237850" lon="10.5020200">
	<ele>2137.40</ele>
	<time>2024-07-25T10:05:44.000Z</time>
</trkpt>
<trkpt lat="46.1237850" lon="10.5020200">
	<ele>2137.40</ele>
	<time>2024-07-25T10:05:45.000Z</time>
</trkpt>
<trkpt lat="46.1237850" lon="10.5020200">
	<ele>2137.40</ele>
	<time>2024-07-25T10:05:46.000Z</time>
</trkpt>
<trkpt lat="46.1237850" lon="10.5020200">
	<ele>2137.40</ele>
	<time>2024-07-25T10:05:47.000Z</time>
</trkpt>
<trkpt lat="46.1237850" lon="10.5020200">
	<ele>2137.40</ele>
	<time>2024-07-25T10:05:48.000Z</time>
</trkpt>
<trkpt lat="46.1237850" lon="10.5020210">
	<ele>2137.40</ele>
	<time>2024-07-25T10:05:49.000Z</time>
</trkpt>
<trkpt lat="46.1237850" lon="10.5020210">
	<ele>2137.40</ele>
	<time>2024-07-25T10:05:50.000Z</time>
</trkpt>
<trkpt lat="46.1237850" lon="10.5020200">
	<ele>2137.40</ele>
	<time>2024-07-25T10:05:51.000Z</time>
</trkpt>
<trkpt lat="46.1237850" lon="10.5020200">
	<ele>2137.40</ele>
	<time>2024-07-25T10:05:52.000Z</time>
</trkpt>
<trkpt lat="46.1237850" lon="10.5020200">
	<ele>2137.40</ele>
	<time>2024-07-25T10:05:53.000Z</time>
</trkpt>
<trkpt lat="46.1237850" lon="10.5020200">
	<ele>2137.40</ele>
	<time>2024-07-25T10:05:54.000Z</time>
</trkpt>
<trkpt lat="46.1237850" lon="10.5020200">
	<ele>2137.40</ele>
	<time>2024-07-25T10:05:55.000Z</time>
</trkpt>
<trkpt lat="46.1237850" lon="10.5020210">
	<ele>2137.40</ele>
	<time>2024-07-25T10:05:56.000Z</time>
</trkpt>
<trkpt lat="46.1237850" lon="10.5020210">
	<ele>2137.40</ele>
	<time>2024-07-25T10:05:57.000Z</time>
</trkpt>
<trkpt lat="46.1237850" lon="10.5020200">
	<ele>2137.40</ele>
	<time>2024-07-25T10:05:58.000Z</time>
</trkpt>
<trkpt lat="46.1237850" lon="10.5020200">
	<ele>2137.40</ele>
	<time>2024-07-25T10:05:59.000Z</time>
</trkpt>
<trkpt lat="46.1237850" lon="10.5020210">
	<ele>2137.40</ele>
	<time>2024-07-25T10:06:00.000Z</time>
</trkpt>
<trkpt lat="46.1237850" lon="10.5020210">
	<ele>2137.40</ele>
	<time>2024-07-25T10:06:01.000Z</time>
</trkpt>
<trkpt lat="46.1237850" lon="10.5020200">
	<ele>2137.40</ele>
	<time>2024-07-25T10:06:02.000Z</time>
</trkpt>
<trkpt lat="46.1237850" lon="10.5020200">
	<ele>2137.40</ele>
	<time>2024-07-25T10:06:03.000Z</time>
</trkpt>
<trkpt lat="46.1237850" lon="10.5020200">
	<ele>2137.40</ele>
	<time>2024-07-25T10:06:04.000Z</time>
</trkpt>
<trkpt lat="46.1237860" lon="10.5020200">
	<ele>2137.40</ele>
	<time>2024-07-25T10:06:05.000Z</time>
</trkpt>
<trkpt lat="46.1237860" lon="10.5020200">
	<ele>2137.40</ele>
	<time>2024-07-25T10:06:06.000Z</time>
</trkpt>
<trkpt lat="46.1237850" lon="10.5020200">
	<ele>2137.40</ele>
	<time>2024-07-25T10:06:07.000Z</time>
</trkpt>
<trkpt lat="46.1237850" lon="10.5020190">
	<ele>2137.40</ele>
	<time>2024-07-25T10:06:08.000Z</time>
</trkpt>
<trkpt lat="46.1237850" lon="10.5020190">
	<ele>2137.40</ele>
	<time>2024-07-25T10:06:09.000Z</time>
</trkpt>
<trkpt lat="46.1237850" lon="10.5020190">
	<ele>2137.40</ele>
	<time>2024-07-25T10:06:10.000Z</time>
</trkpt>
<trkpt lat="46.1237850" lon="10.5020190">
	<ele>2137.40</ele>
	<time>2024-07-25T10:06:11.000Z</time>
</trkpt>
<trkpt lat="46.1237850" lon="10.5020190">
	<ele>2137.40</ele>
	<time>2024-07-25T10:06:12.000Z</time>
</trkpt>
<trkpt lat="46.1237850" lon="10.5020190">
	<ele>2137.40</ele>
	<time>2024-07-25T10:06:13.000Z</time>
</trkpt>
<trkpt lat="46.1237850" lon="10.5020190">
	<ele>2137.40</ele>
	<time>2024-07-25T10:06:14.000Z</time>
</trkpt>
<trkpt lat="46.1237850" lon="10.5020190">
	<ele>2137.40</ele>
	<time>2024-07-25T10:06:15.000Z</time>
</trkpt>
<trkpt lat="46.1237850" lon="10.5020190">
	<ele>2137.40</ele>
	<time>2024-07-25T10:06:16.000Z</time>
</trkpt>
<trkpt lat="46.1237850" lon="10.5020190">
	<ele>2137.40</ele>
	<time>2024-07-25T10:06:17.000Z</time>
</trkpt>
<trkpt lat="46.1237860" lon="10.5020180">
	<ele>2137.40</ele>
	<time>2024-07-25T10:06:18.000Z</time>
</trkpt>
<trkpt lat="46.1237860" lon="10.5020180">
	<ele>2137.40</ele>
	<time>2024-07-25T10:06:19.000Z</time>
</trkpt>
<trkpt lat="46.1237860" lon="10.5020180">
	<ele>2137.40</ele>
	<time>2024-07-25T10:06:20.000Z</time>
</trkpt>
<trkpt lat="46.1237860" lon="10.5020180">
	<ele>2137.40</ele>
	<time>2024-07-25T10:06:21.000Z</time>
</trkpt>
<trkpt lat="46.1237850" lon="10.5020180">
	<ele>2137.40</ele>
	<time>2024-07-25T10:06:22.000Z</time>
</trkpt>
<trkpt lat="46.1237850" lon="10.5020180">
	<ele>2137.40</ele>
	<time>2024-07-25T10:06:23.000Z</time>
</trkpt>
<trkpt lat="46.1237850" lon="10.5020180">
	<ele>2137.40</ele>
	<time>2024-07-25T10:06:24.000Z</time>
</trkpt>
<trkpt lat="46.1237850" lon="10.5020190">
	<ele>2137.40</ele>
	<time>2024-07-25T10:06:25.000Z</time>
</trkpt>
<trkpt lat="46.1237850" lon="10.5020190">
	<ele>2137.40</ele>
	<time>2024-07-25T10:06:26.000Z</time>
</trkpt>
<trkpt lat="46.1237850" lon="10.5020190">
	<ele>2137.40</ele>
	<time>2024-07-25T10:06:27.000Z</time>
</trkpt>
<trkpt lat="46.1237850" lon="10.5020190">
	<ele>2137.40</ele>
	<time>2024-07-25T10:06:28.000Z</time>
</trkpt>
<trkpt lat="46.1237850" lon="10.5020190">
	<ele>2137.40</ele>
	<time>2024-07-25T10:06:29.000Z</time>
</trkpt>
<trkpt lat="46.1237850" lon="10.5020190">
	<ele>2137.40</ele>
	<time>2024-07-25T10:06:30.000Z</time>
</trkpt>
<trkpt lat="46.1237850" lon="10.5020180">
	<ele>2137.40</ele>
	<time>2024-07-25T10:06:31.000Z</time>
</trkpt>
<trkpt lat="46.1237850" lon="10.5020180">
	<ele>2137.40</ele>
	<time>2024-07-25T10:06:32.000Z</time>
</trkpt>
<trkpt lat="46.1237850" lon="10.5020180">
	<ele>2137.40</ele>
	<time>2024-07-25T10:06:33.000Z</time>
</trkpt>
<trkpt lat="46.1237850" lon="10.5020170">
	<ele>2137.40</ele>
	<time>2024-07-25T10:06:34.000Z</time>
</trkpt>
<trkpt lat="46.1237850" lon="10.5020170">
	<ele>2137.40</ele>
	<time>2024-07-25T10:06:35.000Z</time>
</trkpt>
<trkpt lat="46.1237850" lon="10.5020170">
	<ele>2137.40</ele>
	<time>2024-07-25T10:06:36.000Z</time>
</trkpt>
<trkpt lat="46.1237850" lon="10.5020170">
	<ele>2137.40</ele>
	<time>2024-07-25T10:06:37.000Z</time>
</trkpt>
<trkpt lat="46.1237850" lon="10.5020170">
	<ele>2137.40</ele>
	<time>2024-07-25T10:06:38.000Z</time>
</trkpt>
<trkpt lat="46.1237850" lon="10.5020170">
	<ele>2137.40</ele>
	<time>2024-07-25T10:06:39.000Z</time>
</trkpt>
<trkpt lat="46.1237850" lon="10.5020170">
	<ele>2137.40</ele>
	<time>2024-07-25T10:06:40.000Z</time>
</trkpt>
<trkpt lat="46.1237850" lon="10.5020170">
	<ele>2137.40</ele>
	<time>2024-07-25T10:06:41.000Z</time>
</trkpt>
<trkpt lat="46.1237850" lon="10.5020170">
	<ele>2137.40</ele>
	<time>2024-07-25T10:06:42.000Z</time>
</trkpt>
<trkpt lat="46.1237850" lon="10.5020170">
	<ele>2137.40</ele>
	<time>2024-07-25T10:06:43.000Z</time>
</trkpt>
<trkpt lat="46.1237850" lon="10.5020170">
	<ele>2137.40</ele>
	<time>2024-07-25T10:06:44.000Z</time>
</trkpt>
<trkpt lat="46.1237850" lon="10.5020160">
	<ele>2137.40</ele>
	<time>2024-07-25T10:06:45.000Z</time>
</trkpt>
<trkpt lat="46.1237850" lon="10.5020160">
	<ele>2137.40</ele>
	<time>2024-07-25T10:06:46.000Z</time>
</trkpt>
<trkpt lat="46.1237850" lon="10.5020160">
	<ele>2137.40</ele>
	<time>2024-07-25T10:06:47.000Z</time>
</trkpt>
<trkpt lat="46.1237850" lon="10.5020160">
	<ele>2137.40</ele>
	<time>2024-07-25T10:06:48.000Z</time>
</trkpt>
<trkpt lat="46.1237850" lon="10.5020160">
	<ele>2137.40</ele>
	<time>2024-07-25T10:06:49.000Z</time>
</trkpt>
<trkpt lat="46.1237850" lon="10.5020160">
	<ele>2137.40</ele>
	<time>2024-07-25T10:06:50.000Z</time>
</trkpt>
<trkpt lat="46.1237840" lon="10.5020160">
	<ele>2137.40</ele>
	<time>2024-07-25T10:06:51.000Z</time>
</trkpt>
<trkpt lat="46.1237840" lon="10.5020160">
	<ele>2137.40</ele>
	<time>2024-07-25T10:06:52.000Z</time>
</trkpt>
<trkpt lat="46.1237840" lon="10.5020160">
	<ele>2137.40</ele>
	<time>2024-07-25T10:06:53.000Z</time>
</trkpt>
<trkpt lat="46.1237840" lon="10.5020160">
	<ele>2137.40</ele>
	<time>2024-07-25T10:06:54.000Z</time>
</trkpt>
<trkpt lat="46.1237840" lon="10.5020150">
	<ele>2137.40</ele>
	<time>2024-07-25T10:06:55.000Z</time>
</trkpt>
<trkpt lat="46.1237840" lon="10.5020160">
	<ele>2137.40</ele>
	<time>2024-07-25T10:06:56.000Z</time>
</trkpt>
<trkpt lat="46.1237840" lon="10.5020160">
	<ele>2137.40</ele>
	<time>2024-07-25T10:06:57.000Z</time>
</trkpt>
<trkpt lat="46.1237840" lon="10.5020160">
	<ele>2137.40</ele>
	<time>2024-07-25T10:06:58.000Z</time>
</trkpt>
<trkpt lat="46.1237840" lon="10.5020160">
	<ele>2137.40</ele>
	<time>2024-07-25T10:06:59.000Z</time>
</trkpt>
<trkpt lat="46.1237840" lon="10.5020160">
	<ele>2137.40</ele>
	<time>2024-07-25T10:07:00.000Z</time>
</trkpt>
<trkpt lat="46.1237840" lon="10.5020160">
	<ele>2137.40</ele>
	<time>2024-07-25T10:07:01.000Z</time>
</trkpt>
<trkpt lat="46.1237840" lon="10.5020170">
	<ele>2137.40</ele>
	<time>2024-07-25T10:07:02.000Z</time>
</trkpt>
<trkpt lat="46.1237840" lon="10.5020170">
	<ele>2137.40</ele>
	<time>2024-07-25T10:07:03.000Z</time>
</trkpt>
<trkpt lat="46.1237840" lon="10.5020170">
	<ele>2137.40</ele>
	<time>2024-07-25T10:07:04.000Z</time>
</trkpt>
<trkpt lat="46.1237840" lon="10.5020170">
	<ele>2137.40</ele>
	<time>2024-07-25T10:07:05.000Z</time>
</trkpt>
<trkpt lat="46.1237840" lon="10.5020170">
	<ele>2137.40</ele>
	<time>2024-07-25T10:07:06.000Z</time>
</trkpt>
<trkpt lat="46.1237840" lon="10.5020170">
	<ele>2137.40</ele>
	<time>2024-07-25T10:07:07.000Z</time>
</trkpt>
<trkpt lat="46.1237840" lon="10.5020170">
	<ele>2137.40</ele>
	<time>2024-07-25T10:07:08.000Z</time>
</trkpt>
<trkpt lat="46.1237840" lon="10.5020180">
	<ele>2137.40</ele>
	<time>2024-07-25T10:07:09.000Z</time>
</trkpt>
<trkpt lat="46.1237840" lon="10.5020180">
	<ele>2137.40</ele>
	<time>2024-07-25T10:07:10.000Z</time>
</trkpt>
<trkpt lat="46.1237840" lon="10.5020180">
	<ele>2137.40</ele>
	<time>2024-07-25T10:07:11.000Z</time>
</trkpt>
<trkpt lat="46.1237840" lon="10.5020180">
	<ele>2137.40</ele>
	<time>2024-07-25T10:07:12.000Z</time>
</trkpt>
<trkpt lat="46.1237840" lon="10.5020180">
	<ele>2137.40</ele>
	<time>2024-07-25T10:07:13.000Z</time>
</trkpt>
<trkpt lat="46.1237840" lon="10.5020180">
	<ele>2137.40</ele>
	<time>2024-07-25T10:07:14.000Z</time>
</trkpt>
<trkpt lat="46.1237840" lon="10.5020170">
	<ele>2137.40</ele>
	<time>2024-07-25T10:07:15.000Z</time>
</trkpt>
<trkpt lat="46.1237840" lon="10.5020170">
	<ele>2137.40</ele>
	<time>2024-07-25T10:07:16.000Z</time>
</trkpt>
<trkpt lat="46.1237840" lon="10.5020170">
	<ele>2137.40</ele>
	<time>2024-07-25T10:07:17.000Z</time>
</trkpt>
<trkpt lat="46.1237840" lon="10.5020170">
	<ele>2137.40</ele>
	<time>2024-07-25T10:07:18.000Z</time>
</trkpt>
<trkpt lat="46.1237840" lon="10.5020170">
	<ele>2137.40</ele>
	<time>2024-07-25T10:07:19.000Z</time>
</trkpt>
<trkpt lat="46.1237840" lon="10.5020170">
	<ele>2137.40</ele>
	<time>2024-07-25T10:07:20.000Z</time>
</trkpt>
<trkpt lat="46.1237840" lon="10.5020170">
	<ele>2137.40</ele>
	<time>2024-07-25T10:07:21.000Z</time>
</trkpt>
<trkpt lat="46.1237840" lon="10.5020170">
	<ele>2137.40</ele>
	<time>2024-07-25T10:07:22.000Z</time>
</trkpt>
<trkpt lat="46.1237840" lon="10.5020170">
	<ele>2137.40</ele>
	<time>2024-07-25T10:07:23.000Z</time>
</trkpt>
<trkpt lat="46.1237840" lon="10.5020170">
	<ele>2137.40</ele>
	<time>2024-07-25T10:07:24.000Z</time>
</trkpt>
<trkpt lat="46.1237840" lon="10.5020180">
	<ele>2137.40</ele>
	<time>2024-07-25T10:07:25.000Z</time>
</trkpt>
<trkpt lat="46.1237840" lon="10.5020180">
	<ele>2137.40</ele>
	<time>2024-07-25T10:07:26.000Z</time>
</trkpt>
<trkpt lat="46.1237840" lon="10.5020180">
	<ele>2137.40</ele>
	<time>2024-07-25T10:07:27.000Z</time>
</trkpt>
<trkpt lat="46.1237830" lon="10.5020180">
	<ele>2137.40</ele>
	<time>2024-07-25T10:07:28.000Z</time>
</trkpt>
<trkpt lat="46.1237830" lon="10.5020180">
	<ele>2137.40</ele>
	<time>2024-07-25T10:07:29.000Z</time>
</trkpt>
<trkpt lat="46.1237830" lon="10.5020180">
	<ele>2137.40</ele>
	<time>2024-07-25T10:07:30.000Z</time>
</trkpt>
<trkpt lat="46.1237830" lon="10.5020180">
	<ele>2137.40</ele>
	<time>2024-07-25T10:07:31.000Z</time>
</trkpt>
<trkpt lat="46.1237830" lon="10.5020180">
	<ele>2137.40</ele>
	<time>2024-07-25T10:07:32.000Z</time>
</trkpt>
<trkpt lat="46.1237830" lon="10.5020190">
	<ele>2137.40</ele>
	<time>2024-07-25T10:07:33.000Z</time>
</trkpt>
<trkpt lat="46.1237830" lon="10.5020190">
	<ele>2137.40</ele>
	<time>2024-07-25T10:07:34.000Z</time>
</trkpt>
<trkpt lat="46.1237830" lon="10.5020190">
	<ele>2137.40</ele>
	<time>2024-07-25T10:07:35.000Z</time>
</trkpt>
<trkpt lat="46.1237830" lon="10.5020180">
	<ele>2137.40</ele>
	<time>2024-07-25T10:07:36.000Z</time>
</trkpt>
<trkpt lat="46.1237830" lon="10.5020180">
	<ele>2137.40</ele>
	<time>2024-07-25T10:07:37.000Z</time>
</trkpt>
<trkpt lat="46.1237830" lon="10.5020180">
	<ele>2137.40</ele>
	<time>2024-07-25T10:07:38.000Z</time>
</trkpt>
<trkpt lat="46.1237830" lon="10.5020180">
	<ele>2137.40</ele>
	<time>2024-07-25T10:07:39.000Z</time>
</trkpt>
<trkpt lat="46.1237830" lon="10.5020180">
	<ele>2137.40</ele>
	<time>2024-07-25T10:07:40.000Z</time>
</trkpt>
<trkpt lat="46.1237830" lon="10.5020180">
	<ele>2137.40</ele>
	<time>2024-07-25T10:07:41.000Z</time>
</trkpt>
<trkpt lat="46.1237830" lon="10.5020180">
	<ele>2137.40</ele>
	<time>2024-07-25T10:07:42.000Z</time>
</trkpt>
<trkpt lat="46.1237830" lon="10.5020180">
	<ele>2137.40</ele>
	<time>2024-07-25T10:07:43.000Z</time>
</trkpt>
<trkpt lat="46.1237830" lon="10.5020180">
	<ele>2137.40</ele>
	<time>2024-07-25T10:07:44.000Z</time>
</trkpt>
<trkpt lat="46.1237830" lon="10.5020180">
	<ele>2137.40</ele>
	<time>2024-07-25T10:07:45.000Z</time>
</trkpt>
<trkpt lat="46.1237830" lon="10.5020190">
	<ele>2137.40</ele>
	<time>2024-07-25T10:07:46.000Z</time>
</trkpt>
<trkpt lat="46.1237830" lon="10.5020190">
	<ele>2137.40</ele>
	<time>2024-07-25T10:07:47.000Z</time>
</trkpt>
<trkpt lat="46.1237830" lon="10.5020190">
	<ele>2137.40</ele>
	<time>2024-07-25T10:07:48.000Z</time>
</trkpt>
<trkpt lat="46.1237830" lon="10.5020190">
	<ele>2137.40</ele>
	<time>2024-07-25T10:07:49.000Z</time>
</trkpt>
<trkpt lat="46.1237830" lon="10.5020190">
	<ele>2137.40</ele>
	<time>2024-07-25T10:07:50.000Z</time>
</trkpt>
<trkpt lat="46.1237830" lon="10.5020190">
	<ele>2137.40</ele>
	<time>2024-07-25T10:07:51.000Z</time>
</trkpt>
<trkpt lat="46.1237830" lon="10.5020190">
	<ele>2137.40</ele>
	<time>2024-07-25T10:07:52.000Z</time>
</trkpt>
<trkpt lat="46.1237830" lon="10.5020190">
	<ele>2137.40</ele>
	<time>2024-07-25T10:07:53.000Z</time>
</trkpt>
<trkpt lat="46.1237830" lon="10.5020190">
	<ele>2137.40</ele>
	<time>2024-07-25T10:07:54.000Z</time>
</trkpt>
<trkpt lat="46.1237830" lon="10.5020190">
	<ele>2137.40</ele>
	<time>2024-07-25T10:07:55.000Z</time>
</trkpt>
<trkpt lat="46.1237830" lon="10.5020180">
	<ele>2137.40</ele>
	<time>2024-07-25T10:07:56.000Z</time>
</trkpt>
<trkpt lat="46.1237830" lon="10.5020180">
	<ele>2137.40</ele>
	<time>2024-07-25T10:07:57.000Z</time>
</trkpt>
<trkpt lat="46.1237830" lon="10.5020190">
	<ele>2137.40</ele>
	<time>2024-07-25T10:07:58.000Z</time>
</trkpt>
<trkpt lat="46.1237830" lon="10.5020180">
	<ele>2137.40</ele>
	<time>2024-07-25T10:07:59.000Z</time>
</trkpt>
<trkpt lat="46.1237830" lon="10.5020180">
	<ele>2137.40</ele>
	<time>2024-07-25T10:08:00.000Z</time>
</trkpt>
<trkpt lat="46.1237830" lon="10.5020180">
	<ele>2137.40</ele>
	<time>2024-07-25T10:08:01.000Z</time>
</trkpt>
<trkpt lat="46.1237830" lon="10.5020190">
	<ele>2137.40</ele>
	<time>2024-07-25T10:08:02.000Z</time>
</trkpt>
<trkpt lat="46.1237830" lon="10.5020190">
	<ele>2137.40</ele>
	<time>2024-07-25T10:08:03.000Z</time>
</trkpt>
<trkpt lat="46.1237830" lon="10.5020190">
	<ele>2137.40</ele>
	<time>2024-07-25T10:08:04.000Z</time>
</trkpt>
<trkpt lat="46.1237830" lon="10.5020190">
	<ele>2137.40</ele>
	<time>2024-07-25T10:08:05.000Z</time>
</trkpt>
<trkpt lat="46.1237830" lon="10.5020190">
	<ele>2137.40</ele>
	<time>2024-07-25T10:08:06.000Z</time>
</trkpt>
<trkpt lat="46.1237830" lon="10.5020190">
	<ele>2137.40</ele>
	<time>2024-07-25T10:08:07.000Z</time>
</trkpt>
<trkpt lat="46.1237840" lon="10.5020190">
	<ele>2137.40</ele>
	<time>2024-07-25T10:08:08.000Z</time>
</trkpt>
<trkpt lat="46.1237840" lon="10.5020190">
	<ele>2137.40</ele>
	<time>2024-07-25T10:08:09.000Z</time>
</trkpt>
<trkpt lat="46.1237840" lon="10.5020190">
	<ele>2137.40</ele>
	<time>2024-07-25T10:08:10.000Z</time>
</trkpt>
<trkpt lat="46.1237840" lon="10.5020190">
	<ele>2137.40</ele>
	<time>2024-07-25T10:08:11.000Z</time>
</trkpt>
<trkpt lat="46.1237840" lon="10.5020190">
	<ele>2137.40</ele>
	<time>2024-07-25T10:08:12.000Z</time>
</trkpt>
<trkpt lat="46.1237840" lon="10.5020190">
	<ele>2137.40</ele>
	<time>2024-07-25T10:08:13.000Z</time>
</trkpt>
<trkpt lat="46.1237840" lon="10.5020190">
	<ele>2137.40</ele>
	<time>2024-07-25T10:08:14.000Z</time>
</trkpt>
<trkpt lat="46.1237840" lon="10.5020190">
	<ele>2137.40</ele>
	<time>2024-07-25T10:08:15.000Z</time>
</trkpt>
<trkpt lat="46.1237840" lon="10.5020190">
	<ele>2137.40</ele>
	<time>2024-07-25T10:08:16.000Z</time>
</trkpt>
<trkpt lat="46.1237840" lon="10.5020190">
	<ele>2137.40</ele>
	<time>2024-07-25T10:08:17.000Z</time>
</trkpt>
<trkpt lat="46.1237840" lon="10.5020190">
	<ele>2137.40</ele>
	<time>2024-07-25T10:08:18.000Z</time>
</trkpt>
<trkpt lat="46.1237840" lon="10.5020190">
	<ele>2137.40</ele>
	<time>2024-07-25T10:08:19.000Z</time>
</trkpt>
<trkpt lat="46.1237840" lon="10.5020190">
	<ele>2137.40</ele>
	<time>2024-07-25T10:08:20.000Z</time>
</trkpt>
<trkpt lat="46.1237840" lon="10.5020190">
	<ele>2137.40</ele>
	<time>2024-07-25T10:08:21.000Z</time>
</trkpt>
<trkpt lat="46.1237840" lon="10.5020190">
	<ele>2137.40</ele>
	<time>2024-07-25T10:08:22.000Z</time>
</trkpt>
<trkpt lat="46.1237840" lon="10.5020190">
	<ele>2137.40</ele>
	<time>2024-07-25T10:08:23.000Z</time>
</trkpt>
<trkpt lat="46.1237840" lon="10.5020190">
	<ele>2137.40</ele>
	<time>2024-07-25T10:08:24.000Z</time>
</trkpt>
<trkpt lat="46.1237840" lon="10.5020190">
	<ele>2137.40</ele>
	<time>2024-07-25T10:08:25.000Z</time>
</trkpt>
<trkpt lat="46.1237840" lon="10.5020190">
	<ele>2137.40</ele>
	<time>2024-07-25T10:08:26.000Z</time>
</trkpt>
<trkpt lat="46.1237840" lon="10.5020190">
	<ele>2137.40</ele>
	<time>2024-07-25T10:08:27.000Z</time>
</trkpt>
<trkpt lat="46.1237840" lon="10.5020180">
	<ele>2137.40</ele>
	<time>2024-07-25T10:08:28.000Z</time>
</trkpt>
<trkpt lat="46.1237840" lon="10.5020180">
	<ele>2137.40</ele>
	<time>2024-07-25T10:08:29.000Z</time>
</trkpt>
<trkpt lat="46.1237840" lon="10.5020180">
	<ele>2137.40</ele>
	<time>2024-07-25T10:08:30.000Z</time>
</trkpt>
<trkpt lat="46.1237850" lon="10.5020180">
	<ele>2137.40</ele>
	<time>2024-07-25T10:08:31.000Z</time>
</trkpt>
<trkpt lat="46.1237850" lon="10.5020180">
	<ele>2137.40</ele>
	<time>2024-07-25T10:08:32.000Z</time>
</trkpt>
<trkpt lat="46.1237850" lon="10.5020180">
	<ele>2137.40</ele>
	<time>2024-07-25T10:08:33.000Z</time>
</trkpt>
<trkpt lat="46.1237850" lon="10.5020180">
	<ele>2137.40</ele>
	<time>2024-07-25T10:08:34.000Z</time>
</trkpt>
<trkpt lat="46.1237850" lon="10.5020180">
	<ele>2137.40</ele>
	<time>2024-07-25T10:08:35.000Z</time>
</trkpt>
<trkpt lat="46.1237850" lon="10.5020180">
	<ele>2137.40</ele>
	<time>2024-07-25T10:08:36.000Z</time>
</trkpt>
<trkpt lat="46.1237850" lon="10.5020180">
	<ele>2137.40</ele>
	<time>2024-07-25T10:08:37.000Z</time>
</trkpt>
<trkpt lat="46.1237850" lon="10.5020190">
	<ele>2137.40</ele>
	<time>2024-07-25T10:08:38.000Z</time>
</trkpt>
<trkpt lat="46.1237850" lon="10.5020190">
	<ele>2137.40</ele>
	<time>2024-07-25T10:08:39.000Z</time>
</trkpt>
<trkpt lat="46.1237850" lon="10.5020190">
	<ele>2137.40</ele>
	<time>2024-07-25T10:08:40.000Z</time>
</trkpt>
<trkpt lat="46.1237850" lon="10.5020190">
	<ele>2137.40</ele>
	<time>2024-07-25T10:08:41.000Z</time>
</trkpt>
<trkpt lat="46.1237850" lon="10.5020190">
	<ele>2137.40</ele>
	<time>2024-07-25T10:08:42.000Z</time>
</trkpt>
<trkpt lat="46.1237850" lon="10.5020190">
	<ele>2137.40</ele>
	<time>2024-07-25T10:08:43.000Z</time>
</trkpt>
<trkpt lat="46.1237850" lon="10.5020190">
	<ele>2137.40</ele>
	<time>2024-07-25T10:08:44.000Z</time>
</trkpt>
<trkpt lat="46.1237850" lon="10.5020190">
	<ele>2137.40</ele>
	<time>2024-07-25T10:08:45.000Z</time>
</trkpt>
<trkpt lat="46.1237850" lon="10.5020180">
	<ele>2137.40</ele>
	<time>2024-07-25T10:08:46.000Z</time>
</trkpt>
<trkpt lat="46.1237850" lon="10.5020180">
	<ele>2137.40</ele>
	<time>2024-07-25T10:08:47.000Z</time>
</trkpt>
<trkpt lat="46.1237860" lon="10.5020180">
	<ele>2137.40</ele>
	<time>2024-07-25T10:08:48.000Z</time>
</trkpt>
<trkpt lat="46.1237860" lon="10.5020180">
	<ele>2137.40</ele>
	<time>2024-07-25T10:08:49.000Z</time>
</trkpt>
<trkpt lat="46.1237860" lon="10.5020180">
	<ele>2137.40</ele>
	<time>2024-07-25T10:08:50.000Z</time>
</trkpt>
<trkpt lat="46.1237860" lon="10.5020180">
	<ele>2137.40</ele>
	<time>2024-07-25T10:08:51.000Z</time>
</trkpt>
<trkpt lat="46.1237860" lon="10.5020170">
	<ele>2137.40</ele>
	<time>2024-07-25T10:08:52.000Z</time>
</trkpt>
<trkpt lat="46.1237860" lon="10.5020170">
	<ele>2137.40</ele>
	<time>2024-07-25T10:08:53.000Z</time>
</trkpt>
<trkpt lat="46.1237860" lon="10.5020170">
	<ele>2137.40</ele>
	<time>2024-07-25T10:08:54.000Z</time>
</trkpt>
<trkpt lat="46.1237860" lon="10.5020170">
	<ele>2137.40</ele>
	<time>2024-07-25T10:08:55.000Z</time>
</trkpt>
<trkpt lat="46.1237860" lon="10.5020170">
	<ele>2137.40</ele>
	<time>2024-07-25T10:08:56.000Z</time>
</trkpt>
<trkpt lat="46.1237860" lon="10.5020170">
	<ele>2137.40</ele>
	<time>2024-07-25T10:08:57.000Z</time>
</trkpt>
<trkpt lat="46.1237860" lon="10.5020170">
	<ele>2137.40</ele>
	<time>2024-07-25T10:08:58.000Z</time>
</trkpt>
<trkpt lat="46.1237860" lon="10.5020170">
	<ele>2137.40</ele>
	<time>2024-07-25T10:08:59.000Z</time>
</trkpt>
<trkpt lat="46.1237860" lon="10.5020170">
	<ele>2137.40</ele>
	<time>2024-07-25T10:09:00.000Z</time>
</trkpt>
<trkpt lat="46.1237860" lon="10.5020170">
	<ele>2137.40</ele>
	<time>2024-07-25T10:09:01.000Z</time>
</trkpt>
<trkpt lat="46.1237860" lon="10.5020170">
	<ele>2137.40</ele>
	<time>2024-07-25T10:09:02.000Z</time>
</trkpt>
<trkpt lat="46.1237860" lon="10.5020160">
	<ele>2137.40</ele>
	<time>2024-07-25T10:09:03.000Z</time>
</trkpt>
<trkpt lat="46.1237860" lon="10.5020160">
	<ele>2137.40</ele>
	<time>2024-07-25T10:09:04.000Z</time>
</trkpt>
<trkpt lat="46.1237860" lon="10.5020160">
	<ele>2137.40</ele>
	<time>2024-07-25T10:09:05.000Z</time>
</trkpt>
<trkpt lat="46.1237860" lon="10.5020160">
	<ele>2137.40</ele>
	<time>2024-07-25T10:09:06.000Z</time>
</trkpt>
<trkpt lat="46.1237860" lon="10.5020160">
	<ele>2137.40</ele>
	<time>2024-07-25T10:09:07.000Z</time>
</trkpt>
<trkpt lat="46.1237860" lon="10.5020160">
	<ele>2137.40</ele>
	<time>2024-07-25T10:09:08.000Z</time>
</trkpt>
<trkpt lat="46.1237860" lon="10.5020160">
	<ele>2137.40</ele>
	<time>2024-07-25T10:09:09.000Z</time>
</trkpt>
<trkpt lat="46.1237900" lon="10.5020150">
	<ele>2137.40</ele>
	<time>2024-07-25T10:09:10.000Z</time>
</trkpt>
<trkpt lat="46.1237920" lon="10.5020190">
	<ele>2137.40</ele>
	<time>2024-07-25T10:09:11.000Z</time>
</trkpt>
<trkpt lat="46.1237950" lon="10.5020190">
	<ele>2137.40</ele>
	<time>2024-07-25T10:09:12.000Z</time>
</trkpt>
<trkpt lat="46.1238000" lon="10.5020160">
	<ele>2137.40</ele>
	<time>2024-07-25T10:09:13.000Z</time>
</trkpt>
<trkpt lat="46.1238030" lon="10.5020140">
	<ele>2137.40</ele>
	<time>2024-07-25T10:09:14.000Z</time>
</trkpt>
<trkpt lat="46.1238060" lon="10.5020110">
	<ele>2137.40</ele>
	<time>2024-07-25T10:09:15.000Z</time>
</trkpt>
<trkpt lat="46.1238110" lon="10.5020070">
	<ele>2137.40</ele>
	<time>2024-07-25T10:09:16.000Z</time>
</trkpt>
<trkpt lat="46.1238180" lon="10.5019960">
	<ele>2137.40</ele>
	<time>2024-07-25T10:09:17.000Z</time>
</trkpt>
<trkpt lat="46.1238260" lon="10.5019800">
	<ele>2137.40</ele>
	<time>2024-07-25T10:09:18.000Z</time>
</trkpt>
<trkpt lat="46.1238290" lon="10.5019650">
	<ele>2137.40</ele>
	<time>2024-07-25T10:09:19.000Z</time>
</trkpt>
<trkpt lat="46.1238250" lon="10.5019650">
	<ele>2137.40</ele>
	<time>2024-07-25T10:09:20.000Z</time>
</trkpt>
<trkpt lat="46.1238260" lon="10.5019680">
	<ele>2137.40</ele>
	<time>2024-07-25T10:09:21.000Z</time>
</trkpt>
<trkpt lat="46.1238290" lon="10.5019700">
	<ele>2137.40</ele>
	<time>2024-07-25T10:09:22.000Z</time>
</trkpt>
<trkpt lat="46.1238290" lon="10.5019700">
	<ele>2137.40</ele>
	<time>2024-07-25T10:09:23.000Z</time>
</trkpt>
<trkpt lat="46.1238290" lon="10.5019730">
	<ele>2137.40</ele>
	<time>2024-07-25T10:09:24.000Z</time>
</trkpt>
<trkpt lat="46.1238240" lon="10.5019740">
	<ele>2137.40</ele>
	<time>2024-07-25T10:09:25.000Z</time>
</trkpt>
<trkpt lat="46.1238180" lon="10.5019780">
	<ele>2137.40</ele>
	<time>2024-07-25T10:09:26.000Z</time>
</trkpt>
<trkpt lat="46.1238180" lon="10.5019780">
	<ele>2137.40</ele>
	<time>2024-07-25T10:09:27.000Z</time>
</trkpt>
<trkpt lat="46.1238180" lon="10.5019780">
	<ele>2137.40</ele>
	<time>2024-07-25T10:09:28.000Z</time>
</trkpt>
<trkpt lat="46.1238180" lon="10.5019780">
	<ele>2137.40</ele>
	<time>2024-07-25T10:09:29.000Z</time>
</trkpt>
<trkpt lat="46.1238180" lon="10.5019780">
	<ele>2137.40</ele>
	<time>2024-07-25T10:09:30.000Z</time>
</trkpt>
<trkpt lat="46.1238180" lon="10.5019780">
	<ele>2137.40</ele>
	<time>2024-07-25T10:09:31.000Z</time>
</trkpt>
<trkpt lat="46.1238180" lon="10.5019780">
	<ele>2137.40</ele>
	<time>2024-07-25T10:09:32.000Z</time>
</trkpt>
<trkpt lat="46.1238180" lon="10.5019780">
	<ele>2137.40</ele>
	<time>2024-07-25T10:09:33.000Z</time>
</trkpt>
<trkpt lat="46.1238190" lon="10.5019780">
	<ele>2137.40</ele>
	<time>2024-07-25T10:09:34.000Z</time>
</trkpt>
<trkpt lat="46.1238200" lon="10.5019780">
	<ele>2137.40</ele>
	<time>2024-07-25T10:09:35.000Z</time>
</trkpt>
<trkpt lat="46.1238210" lon="10.5019780">
	<ele>2137.40</ele>
	<time>2024-07-25T10:09:36.000Z</time>
</trkpt>
<trkpt lat="46.1238210" lon="10.5019760">
	<ele>2137.40</ele>
	<time>2024-07-25T10:09:37.000Z</time>
</trkpt>
<trkpt lat="46.1238210" lon="10.5019750">
	<ele>2137.40</ele>
	<time>2024-07-25T10:09:38.000Z</time>
</trkpt>
<trkpt lat="46.1238210" lon="10.5019750">
	<ele>2137.40</ele>
	<time>2024-07-25T10:09:39.000Z</time>
</trkpt>
<trkpt lat="46.1238210" lon="10.5019740">
	<ele>2137.40</ele>
	<time>2024-07-25T10:09:40.000Z</time>
</trkpt>
<trkpt lat="46.1238210" lon="10.5019730">
	<ele>2137.40</ele>
	<time>2024-07-25T10:09:41.000Z</time>
</trkpt>
<trkpt lat="46.1238210" lon="10.5019730">
	<ele>2137.40</ele>
	<time>2024-07-25T10:09:42.000Z</time>
</trkpt>
<trkpt lat="46.1238210" lon="10.5019710">
	<ele>2137.40</ele>
	<time>2024-07-25T10:09:43.000Z</time>
</trkpt>
<trkpt lat="46.1238210" lon="10.5019700">
	<ele>2137.40</ele>
	<time>2024-07-25T10:09:44.000Z</time>
</trkpt>
<trkpt lat="46.1238210" lon="10.5019700">
	<ele>2137.40</ele>
	<time>2024-07-25T10:09:45.000Z</time>
</trkpt>
<trkpt lat="46.1238210" lon="10.5019700">
	<ele>2137.40</ele>
	<time>2024-07-25T10:09:46.000Z</time>
</trkpt>
<trkpt lat="46.1238210" lon="10.5019700">
	<ele>2137.40</ele>
	<time>2024-07-25T10:09:47.000Z</time>
</trkpt>
<trkpt lat="46.1238200" lon="10.5019700">
	<ele>2137.40</ele>
	<time>2024-07-25T10:09:48.000Z</time>
</trkpt>
<trkpt lat="46.1238200" lon="10.5019700">
	<ele>2137.40</ele>
	<time>2024-07-25T10:09:49.000Z</time>
</trkpt>
<trkpt lat="46.1238190" lon="10.5019720">
	<ele>2137.40</ele>
	<time>2024-07-25T10:09:50.000Z</time>
</trkpt>
<trkpt lat="46.1238190" lon="10.5019730">
	<ele>2137.40</ele>
	<time>2024-07-25T10:09:51.000Z</time>
</trkpt>
<trkpt lat="46.1238190" lon="10.5019740">
	<ele>2137.40</ele>
	<time>2024-07-25T10:09:52.000Z</time>
</trkpt>
<trkpt lat="46.1238180" lon="10.5019750">
	<ele>2137.40</ele>
	<time>2024-07-25T10:09:53.000Z</time>
</trkpt>
<trkpt lat="46.1238180" lon="10.5019750">
	<ele>2137.40</ele>
	<time>2024-07-25T10:09:54.000Z</time>
</trkpt>
<trkpt lat="46.1238170" lon="10.5019760">
	<ele>2137.40</ele>
	<time>2024-07-25T10:09:55.000Z</time>
</trkpt>
<trkpt lat="46.1238170" lon="10.5019760">
	<ele>2137.40</ele>
	<time>2024-07-25T10:09:56.000Z</time>
</trkpt>
<trkpt lat="46.1238160" lon="10.5019760">
	<ele>2137.40</ele>
	<time>2024-07-25T10:09:57.000Z</time>
</trkpt>
<trkpt lat="46.1238140" lon="10.5019760">
	<ele>2137.40</ele>
	<time>2024-07-25T10:09:58.000Z</time>
</trkpt>
<trkpt lat="46.1238120" lon="10.5019760">
	<ele>2137.40</ele>
	<time>2024-07-25T10:09:59.000Z</time>
</trkpt>
<trkpt lat="46.1238080" lon="10.5019820">
	<ele>2137.40</ele>
	<time>2024-07-25T10:10:00.000Z</time>
</trkpt>
<trkpt lat="46.1238050" lon="10.5019860">
	<ele>2137.40</ele>
	<time>2024-07-25T10:10:01.000Z</time>
</trkpt>
<trkpt lat="46.1238040" lon="10.5019870">
	<ele>2137.40</ele>
	<time>2024-07-25T10:10:02.000Z</time>
</trkpt>
<trkpt lat="46.1238030" lon="10.5019880">
	<ele>2137.40</ele>
	<time>2024-07-25T10:10:03.000Z</time>
</trkpt>
<trkpt lat="46.1238030" lon="10.5019890">
	<ele>2137.40</ele>
	<time>2024-07-25T10:10:04.000Z</time>
</trkpt>
<trkpt lat="46.1238020" lon="10.5019910">
	<ele>2137.40</ele>
	<time>2024-07-25T10:10:05.000Z</time>
</trkpt>
<trkpt lat="46.1238020" lon="10.5019930">
	<ele>2137.40</ele>
	<time>2024-07-25T10:10:06.000Z</time>
</trkpt>
<trkpt lat="46.1237980" lon="10.5019980">
	<ele>2137.40</ele>
	<time>2024-07-25T10:10:07.000Z</time>
</trkpt>
<trkpt lat="46.1237960" lon="10.5020010">
	<ele>2137.40</ele>
	<time>2024-07-25T10:10:08.000Z</time>
</trkpt>
<trkpt lat="46.1237950" lon="10.5020010">
	<ele>2137.40</ele>
	<time>2024-07-25T10:10:09.000Z</time>
</trkpt>
<trkpt lat="46.1237950" lon="10.5020020">
	<ele>2137.40</ele>
	<time>2024-07-25T10:10:10.000Z</time>
</trkpt>
<trkpt lat="46.1237930" lon="10.5020030">
	<ele>2137.40</ele>
	<time>2024-07-25T10:10:11.000Z</time>
</trkpt>
<trkpt lat="46.1237910" lon="10.5020040">
	<ele>2137.40</ele>
	<time>2024-07-25T10:10:12.000Z</time>
</trkpt>
<trkpt lat="46.1237900" lon="10.5020050">
	<ele>2137.40</ele>
	<time>2024-07-25T10:10:13.000Z</time>
</trkpt>
<trkpt lat="46.1237900" lon="10.5020050">
	<ele>2137.40</ele>
	<time>2024-07-25T10:10:14.000Z</time>
</trkpt>
<trkpt lat="46.1237900" lon="10.5020050">
	<ele>2137.40</ele>
	<time>2024-07-25T10:10:15.000Z</time>
</trkpt>
<trkpt lat="46.1237900" lon="10.5020050">
	<ele>2137.40</ele>
	<time>2024-07-25T10:10:16.000Z</time>
</trkpt>
<trkpt lat="46.1237890" lon="10.5020060">
	<ele>2137.40</ele>
	<time>2024-07-25T10:10:17.000Z</time>
</trkpt>
<trkpt lat="46.1237890" lon="10.5020070">
	<ele>2137.40</ele>
	<time>2024-07-25T10:10:18.000Z</time>
</trkpt>
<trkpt lat="46.1237890" lon="10.5020080">
	<ele>2137.40</ele>
	<time>2024-07-25T10:10:19.000Z</time>
</trkpt>
<trkpt lat="46.1237880" lon="10.5020090">
	<ele>2137.40</ele>
	<time>2024-07-25T10:10:20.000Z</time>
</trkpt>
<trkpt lat="46.1237880" lon="10.5020110">
	<ele>2137.40</ele>
	<time>2024-07-25T10:10:21.000Z</time>
</trkpt>
<trkpt lat="46.1237870" lon="10.5020160">
	<ele>2137.40</ele>
	<time>2024-07-25T10:10:22.000Z</time>
</trkpt>
<trkpt lat="46.1237870" lon="10.5020180">
	<ele>2137.40</ele>
	<time>2024-07-25T10:10:23.000Z</time>
</trkpt>
<trkpt lat="46.1237870" lon="10.5020190">
	<ele>2137.40</ele>
	<time>2024-07-25T10:10:24.000Z</time>
</trkpt>
<trkpt lat="46.1237860" lon="10.5020190">
	<ele>2137.40</ele>
	<time>2024-07-25T10:10:25.000Z</time>
</trkpt>
<trkpt lat="46.1237840" lon="10.5020190">
	<ele>2137.40</ele>
	<time>2024-07-25T10:10:26.000Z</time>
</trkpt>
<trkpt lat="46.1237830" lon="10.5020190">
	<ele>2137.40</ele>
	<time>2024-07-25T10:10:27.000Z</time>
</trkpt>
<trkpt lat="46.1237830" lon="10.5020190">
	<ele>2137.40</ele>
	<time>2024-07-25T10:10:28.000Z</time>
</trkpt>
<trkpt lat="46.1237820" lon="10.5020190">
	<ele>2137.40</ele>
	<time>2024-07-25T10:10:29.000Z</time>
</trkpt>
<trkpt lat="46.1237800" lon="10.5020190">
	<ele>2137.40</ele>
	<time>2024-07-25T10:10:30.000Z</time>
</trkpt>
<trkpt lat="46.1237800" lon="10.5020190">
	<ele>2137.40</ele>
	<time>2024-07-25T10:10:31.000Z</time>
</trkpt>
<trkpt lat="46.1237790" lon="10.5020190">
	<ele>2137.40</ele>
	<time>2024-07-25T10:10:32.000Z</time>
</trkpt>
<trkpt lat="46.1237790" lon="10.5020190">
	<ele>2137.40</ele>
	<time>2024-07-25T10:10:33.000Z</time>
</trkpt>
<trkpt lat="46.1237790" lon="10.5020190">
	<ele>2137.40</ele>
	<time>2024-07-25T10:10:34.000Z</time>
</trkpt>
<trkpt lat="46.1237790" lon="10.5020190">
	<ele>2137.40</ele>
	<time>2024-07-25T10:10:35.000Z</time>
</trkpt>
<trkpt lat="46.1237790" lon="10.5020190">
	<ele>2137.40</ele>
	<time>2024-07-25T10:10:36.000Z</time>
</trkpt>
<trkpt lat="46.1237790" lon="10.5020190">
	<ele>2137.40</ele>
	<time>2024-07-25T10:10:37.000Z</time>
</trkpt>
<trkpt lat="46.1237790" lon="10.5020190">
	<ele>2137.40</ele>
	<time>2024-07-25T10:10:38.000Z</time>
</trkpt>
<trkpt lat="46.1237790" lon="10.5020170">
	<ele>2137.40</ele>
	<time>2024-07-25T10:10:39.000Z</time>
</trkpt>
<trkpt lat="46.1237790" lon="10.5020120">
	<ele>2137.40</ele>
	<time>2024-07-25T10:10:40.000Z</time>
</trkpt>
<trkpt lat="46.1237790" lon="10.5020090">
	<ele>2137.40</ele>
	<time>2024-07-25T10:10:41.000Z</time>
</trkpt>
<trkpt lat="46.1237790" lon="10.5020080">
	<ele>2137.40</ele>
	<time>2024-07-25T10:10:42.000Z</time>
</trkpt>
<trkpt lat="46.1237800" lon="10.5020070">
	<ele>2137.40</ele>
	<time>2024-07-25T10:10:43.000Z</time>
</trkpt>
<trkpt lat="46.1237800" lon="10.5020060">
	<ele>2137.40</ele>
	<time>2024-07-25T10:10:44.000Z</time>
</trkpt>
<trkpt lat="46.1237800" lon="10.5020050">
	<ele>2137.40</ele>
	<time>2024-07-25T10:10:45.000Z</time>
</trkpt>
<trkpt lat="46.1237810" lon="10.5020050">
	<ele>2137.40</ele>
	<time>2024-07-25T10:10:46.000Z</time>
</trkpt>
<trkpt lat="46.1237810" lon="10.5020050">
	<ele>2137.40</ele>
	<time>2024-07-25T10:10:47.000Z</time>
</trkpt>
<trkpt lat="46.1237810" lon="10.5020050">
	<ele>2137.40</ele>
	<time>2024-07-25T10:10:48.000Z</time>
</trkpt>
<trkpt lat="46.1237810" lon="10.5020050">
	<ele>2137.40</ele>
	<time>2024-07-25T10:10:49.000Z</time>
</trkpt>
<trkpt lat="46.1237820" lon="10.5020040">
	<ele>2137.40</ele>
	<time>2024-07-25T10:10:50.000Z</time>
</trkpt>
<trkpt lat="46.1237820" lon="10.5020040">
	<ele>2137.40</ele>
	<time>2024-07-25T10:10:51.000Z</time>
</trkpt>
<trkpt lat="46.1237820" lon="10.5020040">
	<ele>2137.40</ele>
	<time>2024-07-25T10:10:52.000Z</time>
</trkpt>
<trkpt lat="46.1237820" lon="10.5020040">
	<ele>2137.40</ele>
	<time>2024-07-25T10:10:53.000Z</time>
</trkpt>
<trkpt lat="46.1237820" lon="10.5020030">
	<ele>2137.40</ele>
	<time>2024-07-25T10:10:54.000Z</time>
</trkpt>
<trkpt lat="46.1237820" lon="10.5020030">
	<ele>2137.40</ele>
	<time>2024-07-25T10:10:55.000Z</time>
</trkpt>
<trkpt lat="46.1237820" lon="10.5020030">
	<ele>2137.40</ele>
	<time>2024-07-25T10:10:56.000Z</time>
</trkpt>
<trkpt lat="46.1237820" lon="10.5020040">
	<ele>2137.40</ele>
	<time>2024-07-25T10:10:57.000Z</time>
</trkpt>
<trkpt lat="46.1237820" lon="10.5020040">
	<ele>2137.40</ele>
	<time>2024-07-25T10:10:58.000Z</time>
</trkpt>
<trkpt lat="46.1237820" lon="10.5020040">
	<ele>2137.40</ele>
	<time>2024-07-25T10:10:59.000Z</time>
</trkpt>
<trkpt lat="46.1237830" lon="10.5020030">
	<ele>2137.40</ele>
	<time>2024-07-25T10:11:00.000Z</time>
</trkpt>
<trkpt lat="46.1237830" lon="10.5020030">
	<ele>2137.40</ele>
	<time>2024-07-25T10:11:01.000Z</time>
</trkpt>
<trkpt lat="46.1237830" lon="10.5020030">
	<ele>2137.40</ele>
	<time>2024-07-25T10:11:02.000Z</time>
</trkpt>
<trkpt lat="46.1237840" lon="10.5020030">
	<ele>2137.40</ele>
	<time>2024-07-25T10:11:03.000Z</time>
</trkpt>
<trkpt lat="46.1237850" lon="10.5020030">
	<ele>2137.40</ele>
	<time>2024-07-25T10:11:04.000Z</time>
</trkpt>
<trkpt lat="46.1237860" lon="10.5020020">
	<ele>2137.40</ele>
	<time>2024-07-25T10:11:05.000Z</time>
</trkpt>
<trkpt lat="46.1237860" lon="10.5020020">
	<ele>2137.40</ele>
	<time>2024-07-25T10:11:06.000Z</time>
</trkpt>
<trkpt lat="46.1237860" lon="10.5020010">
	<ele>2137.40</ele>
	<time>2024-07-25T10:11:07.000Z</time>
</trkpt>
<trkpt lat="46.1237870" lon="10.5020000">
	<ele>2137.40</ele>
	<time>2024-07-25T10:11:08.000Z</time>
</trkpt>
<trkpt lat="46.1237870" lon="10.5019990">
	<ele>2137.40</ele>
	<time>2024-07-25T10:11:09.000Z</time>
</trkpt>
<trkpt lat="46.1237880" lon="10.5019970">
	<ele>2137.40</ele>
	<time>2024-07-25T10:11:10.000Z</time>
</trkpt>
<trkpt lat="46.1237890" lon="10.5019960">
	<ele>2137.40</ele>
	<time>2024-07-25T10:11:11.000Z</time>
</trkpt>
<trkpt lat="46.1237900" lon="10.5019950">
	<ele>2137.40</ele>
	<time>2024-07-25T10:11:12.000Z</time>
</trkpt>
<trkpt lat="46.1237900" lon="10.5019950">
	<ele>2137.40</ele>
	<time>2024-07-25T10:11:13.000Z</time>
</trkpt>
<trkpt lat="46.1237910" lon="10.5019940">
	<ele>2137.40</ele>
	<time>2024-07-25T10:11:14.000Z</time>
</trkpt>
<trkpt lat="46.1237920" lon="10.5019940">
	<ele>2137.40</ele>
	<time>2024-07-25T10:11:15.000Z</time>
</trkpt>
<trkpt lat="46.1237920" lon="10.5019930">
	<ele>2137.40</ele>
	<time>2024-07-25T10:11:16.000Z</time>
</trkpt>
<trkpt lat="46.1237930" lon="10.5019930">
	<ele>2137.40</ele>
	<time>2024-07-25T10:11:17.000Z</time>
</trkpt>
<trkpt lat="46.1237930" lon="10.5019930">
	<ele>2137.40</ele>
	<time>2024-07-25T10:11:18.000Z</time>
</trkpt>
<trkpt lat="46.1237930" lon="10.5019930">
	<ele>2137.40</ele>
	<time>2024-07-25T10:11:19.000Z</time>
</trkpt>
<trkpt lat="46.1237930" lon="10.5019940">
	<ele>2137.40</ele>
	<time>2024-07-25T10:11:20.000Z</time>
</trkpt>
<trkpt lat="46.1237940" lon="10.5019940">
	<ele>2137.40</ele>
	<time>2024-07-25T10:11:21.000Z</time>
</trkpt>
<trkpt lat="46.1237940" lon="10.5019940">
	<ele>2137.40</ele>
	<time>2024-07-25T10:11:22.000Z</time>
</trkpt>
<trkpt lat="46.1237940" lon="10.5019940">
	<ele>2137.40</ele>
	<time>2024-07-25T10:11:23.000Z</time>
</trkpt>
<trkpt lat="46.1237940" lon="10.5019950">
	<ele>2137.40</ele>
	<time>2024-07-25T10:11:24.000Z</time>
</trkpt>
<trkpt lat="46.1237940" lon="10.5019950">
	<ele>2137.40</ele>
	<time>2024-07-25T10:11:25.000Z</time>
</trkpt>
<trkpt lat="46.1237940" lon="10.5019950">
	<ele>2137.40</ele>
	<time>2024-07-25T10:11:26.000Z</time>
</trkpt>
<trkpt lat="46.1237950" lon="10.5019950">
	<ele>2137.40</ele>
	<time>2024-07-25T10:11:27.000Z</time>
</trkpt>
<trkpt lat="46.1237950" lon="10.5019950">
	<ele>2137.40</ele>
	<time>2024-07-25T10:11:28.000Z</time>
</trkpt>
<trkpt lat="46.1237950" lon="10.5019950">
	<ele>2137.40</ele>
	<time>2024-07-25T10:11:29.000Z</time>
</trkpt>
<trkpt lat="46.1237960" lon="10.5019950">
	<ele>2137.40</ele>
	<time>2024-07-25T10:11:30.000Z</time>
</trkpt>
<trkpt lat="46.1237960" lon="10.5019950">
	<ele>2137.40</ele>
	<time>2024-07-25T10:11:31.000Z</time>
</trkpt>
<trkpt lat="46.1237960" lon="10.5019950">
	<ele>2137.40</ele>
	<time>2024-07-25T10:11:32.000Z</time>
</trkpt>
<trkpt lat="46.1237960" lon="10.5019960">
	<ele>2137.40</ele>
	<time>2024-07-25T10:11:33.000Z</time>
</trkpt>
<trkpt lat="46.1237960" lon="10.5019970">
	<ele>2137.40</ele>
	<time>2024-07-25T10:11:34.000Z</time>
</trkpt>
<trkpt lat="46.1237960" lon="10.5019970">
	<ele>2137.40</ele>
	<time>2024-07-25T10:11:35.000Z</time>
</trkpt>
<trkpt lat="46.1237960" lon="10.5019980">
	<ele>2137.40</ele>
	<time>2024-07-25T10:11:36.000Z</time>
</trkpt>
<trkpt lat="46.1237960" lon="10.5019980">
	<ele>2137.40</ele>
	<time>2024-07-25T10:11:37.000Z</time>
</trkpt>
<trkpt lat="46.1237960" lon="10.5019980">
	<ele>2137.40</ele>
	<time>2024-07-25T10:11:38.000Z</time>
</trkpt>
<trkpt lat="46.1237960" lon="10.5019990">
	<ele>2137.40</ele>
	<time>2024-07-25T10:11:39.000Z</time>
</trkpt>
<trkpt lat="46.1237950" lon="10.5020000">
	<ele>2137.40</ele>
	<time>2024-07-25T10:11:40.000Z</time>
</trkpt>
<trkpt lat="46.1237950" lon="10.5020000">
	<ele>2137.40</ele>
	<time>2024-07-25T10:11:41.000Z</time>
</trkpt>
<trkpt lat="46.1237940" lon="10.5020010">
	<ele>2137.40</ele>
	<time>2024-07-25T10:11:42.000Z</time>
</trkpt>
<trkpt lat="46.1237940" lon="10.5020010">
	<ele>2137.40</ele>
	<time>2024-07-25T10:11:43.000Z</time>
</trkpt>
<trkpt lat="46.1237920" lon="10.5020040">
	<ele>2137.40</ele>
	<time>2024-07-25T10:11:44.000Z</time>
</trkpt>
<trkpt lat="46.1237890" lon="10.5020070">
	<ele>2137.40</ele>
	<time>2024-07-25T10:11:45.000Z</time>
</trkpt>
<trkpt lat="46.1237860" lon="10.5020100">
	<ele>2137.40</ele>
	<time>2024-07-25T10:11:46.000Z</time>
</trkpt>
<trkpt lat="46.1237850" lon="10.5020130">
	<ele>2137.40</ele>
	<time>2024-07-25T10:11:47.000Z</time>
</trkpt>
<trkpt lat="46.1237840" lon="10.5020160">
	<ele>2137.40</ele>
	<time>2024-07-25T10:11:48.000Z</time>
</trkpt>
<trkpt lat="46.1237820" lon="10.5020180">
	<ele>2137.40</ele>
	<time>2024-07-25T10:11:49.000Z</time>
</trkpt>
<trkpt lat="46.1237810" lon="10.5020200">
	<ele>2137.40</ele>
	<time>2024-07-25T10:11:50.000Z</time>
</trkpt>
<trkpt lat="46.1237800" lon="10.5020230">
	<ele>2137.40</ele>
	<time>2024-07-25T10:11:51.000Z</time>
</trkpt>
<trkpt lat="46.1237790" lon="10.5020260">
	<ele>2137.40</ele>
	<time>2024-07-25T10:11:52.000Z</time>
</trkpt>
<trkpt lat="46.1237770" lon="10.5020290">
	<ele>2137.40</ele>
	<time>2024-07-25T10:11:53.000Z</time>
</trkpt>
<trkpt lat="46.1237750" lon="10.5020310">
	<ele>2137.40</ele>
	<time>2024-07-25T10:11:54.000Z</time>
</trkpt>
<trkpt lat="46.1237740" lon="10.5020320">
	<ele>2137.40</ele>
	<time>2024-07-25T10:11:55.000Z</time>
</trkpt>
<trkpt lat="46.1237730" lon="10.5020330">
	<ele>2137.40</ele>
	<time>2024-07-25T10:11:56.000Z</time>
</trkpt>
<trkpt lat="46.1237700" lon="10.5020340">
	<ele>2137.40</ele>
	<time>2024-07-25T10:11:57.000Z</time>
</trkpt>
<trkpt lat="46.1237660" lon="10.5020350">
	<ele>2137.40</ele>
	<time>2024-07-25T10:11:58.000Z</time>
</trkpt>
<trkpt lat="46.1237630" lon="10.5020350">
	<ele>2137.40</ele>
	<time>2024-07-25T10:11:59.000Z</time>
</trkpt>
<trkpt lat="46.1237610" lon="10.5020350">
	<ele>2137.40</ele>
	<time>2024-07-25T10:12:00.000Z</time>
</trkpt>
<trkpt lat="46.1237590" lon="10.5020360">
	<ele>2137.40</ele>
	<time>2024-07-25T10:12:01.000Z</time>
</trkpt>
<trkpt lat="46.1237570" lon="10.5020360">
	<ele>2137.40</ele>
	<time>2024-07-25T10:12:02.000Z</time>
</trkpt>
<trkpt lat="46.1237560" lon="10.5020360">
	<ele>2137.40</ele>
	<time>2024-07-25T10:12:03.000Z</time>
</trkpt>
<trkpt lat="46.1237550" lon="10.5020360">
	<ele>2137.40</ele>
	<time>2024-07-25T10:12:04.000Z</time>
</trkpt>
<trkpt lat="46.1237540" lon="10.5020360">
	<ele>2137.40</ele>
	<time>2024-07-25T10:12:05.000Z</time>
</trkpt>
<trkpt lat="46.1237540" lon="10.5020360">
	<ele>2137.40</ele>
	<time>2024-07-25T10:12:06.000Z</time>
</trkpt>
<trkpt lat="46.1237530" lon="10.5020360">
	<ele>2137.40</ele>
	<time>2024-07-25T10:12:07.000Z</time>
</trkpt>
<trkpt lat="46.1237530" lon="10.5020360">
	<ele>2137.40</ele>
	<time>2024-07-25T10:12:08.000Z</time>
</trkpt>
<trkpt lat="46.1237530" lon="10.5020350">
	<ele>2137.40</ele>
	<time>2024-07-25T10:12:09.000Z</time>
</trkpt>
<trkpt lat="46.1237530" lon="10.5020340">
	<ele>2137.40</ele>
	<time>2024-07-25T10:12:10.000Z</time>
</trkpt>
<trkpt lat="46.1237530" lon="10.5020340">
	<ele>2137.40</ele>
	<time>2024-07-25T10:12:11.000Z</time>
</trkpt>
<trkpt lat="46.1237520" lon="10.5020330">
	<ele>2137.40</ele>
	<time>2024-07-25T10:12:12.000Z</time>
</trkpt>
<trkpt lat="46.1237520" lon="10.5020320">
	<ele>2137.40</ele>
	<time>2024-07-25T10:12:13.000Z</time>
</trkpt>
<trkpt lat="46.1237530" lon="10.5020300">
	<ele>2137.40</ele>
	<time>2024-07-25T10:12:14.000Z</time>
</trkpt>
<trkpt lat="46.1237530" lon="10.5020280">
	<ele>2137.40</ele>
	<time>2024-07-25T10:12:15.000Z</time>
</trkpt>
<trkpt lat="46.1237540" lon="10.5020260">
	<ele>2137.40</ele>
	<time>2024-07-25T10:12:16.000Z</time>
</trkpt>
<trkpt lat="46.1237550" lon="10.5020240">
	<ele>2137.40</ele>
	<time>2024-07-25T10:12:17.000Z</time>
</trkpt>
<trkpt lat="46.1237560" lon="10.5020230">
	<ele>2137.40</ele>
	<time>2024-07-25T10:12:18.000Z</time>
</trkpt>
<trkpt lat="46.1237570" lon="10.5020220">
	<ele>2137.40</ele>
	<time>2024-07-25T10:12:19.000Z</time>
</trkpt>
<trkpt lat="46.1237580" lon="10.5020200">
	<ele>2137.40</ele>
	<time>2024-07-25T10:12:20.000Z</time>
</trkpt>
<trkpt lat="46.1237580" lon="10.5020190">
	<ele>2137.40</ele>
	<time>2024-07-25T10:12:21.000Z</time>
</trkpt>
<trkpt lat="46.1237590" lon="10.5020180">
	<ele>2137.40</ele>
	<time>2024-07-25T10:12:22.000Z</time>
</trkpt>
<trkpt lat="46.1237600" lon="10.5020170">
	<ele>2137.40</ele>
	<time>2024-07-25T10:12:23.000Z</time>
</trkpt>
<trkpt lat="46.1237600" lon="10.5020160">
	<ele>2137.40</ele>
	<time>2024-07-25T10:12:24.000Z</time>
</trkpt>
<trkpt lat="46.1237610" lon="10.5020160">
	<ele>2137.40</ele>
	<time>2024-07-25T10:12:25.000Z</time>
</trkpt>
<trkpt lat="46.1237610" lon="10.5020150">
	<ele>2137.40</ele>
	<time>2024-07-25T10:12:26.000Z</time>
</trkpt>
<trkpt lat="46.1237610" lon="10.5020140">
	<ele>2137.40</ele>
	<time>2024-07-25T10:12:27.000Z</time>
</trkpt>
<trkpt lat="46.1237620" lon="10.5020130">
	<ele>2137.40</ele>
	<time>2024-07-25T10:12:28.000Z</time>
</trkpt>
<trkpt lat="46.1237620" lon="10.5020130">
	<ele>2137.40</ele>
	<time>2024-07-25T10:12:29.000Z</time>
</trkpt>
<trkpt lat="46.1237620" lon="10.5020120">
	<ele>2137.40</ele>
	<time>2024-07-25T10:12:30.000Z</time>
</trkpt>
<trkpt lat="46.1237620" lon="10.5020120">
	<ele>2137.40</ele>
	<time>2024-07-25T10:12:31.000Z</time>
</trkpt>
<trkpt lat="46.1237620" lon="10.5020120">
	<ele>2137.40</ele>
	<time>2024-07-25T10:12:32.000Z</time>
</trkpt>
<trkpt lat="46.1237620" lon="10.5020110">
	<ele>2137.40</ele>
	<time>2024-07-25T10:12:33.000Z</time>
</trkpt>
<trkpt lat="46.1237630" lon="10.5020110">
	<ele>2137.40</ele>
	<time>2024-07-25T10:12:34.000Z</time>
</trkpt>
<trkpt lat="46.1237630" lon="10.5020110">
	<ele>2137.40</ele>
	<time>2024-07-25T10:12:35.000Z</time>
</trkpt>
<trkpt lat="46.1237630" lon="10.5020110">
	<ele>2137.40</ele>
	<time>2024-07-25T10:12:36.000Z</time>
</trkpt>
<trkpt lat="46.1237630" lon="10.5020100">
	<ele>2137.40</ele>
	<time>2024-07-25T10:12:37.000Z</time>
</trkpt>
<trkpt lat="46.1237630" lon="10.5020100">
	<ele>2137.40</ele>
	<time>2024-07-25T10:12:38.000Z</time>
</trkpt>
<trkpt lat="46.1237630" lon="10.5020100">
	<ele>2137.40</ele>
	<time>2024-07-25T10:12:39.000Z</time>
</trkpt>
<trkpt lat="46.1237630" lon="10.5020100">
	<ele>2137.40</ele>
	<time>2024-07-25T10:12:40.000Z</time>
</trkpt>
<trkpt lat="46.1237630" lon="10.5020090">
	<ele>2137.40</ele>
	<time>2024-07-25T10:12:41.000Z</time>
</trkpt>
<trkpt lat="46.1237630" lon="10.5020090">
	<ele>2137.40</ele>
	<time>2024-07-25T10:12:42.000Z</time>
</trkpt>
<trkpt lat="46.1237630" lon="10.5020090">
	<ele>2137.40</ele>
	<time>2024-07-25T10:12:43.000Z</time>
</trkpt>
<trkpt lat="46.1237630" lon="10.5020090">
	<ele>2137.40</ele>
	<time>2024-07-25T10:12:44.000Z</time>
</trkpt>
<trkpt lat="46.1237630" lon="10.5020090">
	<ele>2137.40</ele>
	<time>2024-07-25T10:12:45.000Z</time>
</trkpt>
<trkpt lat="46.1237630" lon="10.5020090">
	<ele>2137.40</ele>
	<time>2024-07-25T10:12:46.000Z</time>
</trkpt>
<trkpt lat="46.1237630" lon="10.5020090">
	<ele>2137.40</ele>
	<time>2024-07-25T10:12:47.000Z</time>
</trkpt>
<trkpt lat="46.1237630" lon="10.5020090">
	<ele>2137.40</ele>
	<time>2024-07-25T10:12:48.000Z</time>
</trkpt>
<trkpt lat="46.1237630" lon="10.5020090">
	<ele>2137.40</ele>
	<time>2024-07-25T10:12:49.000Z</time>
</trkpt>
<trkpt lat="46.1237630" lon="10.5020090">
	<ele>2137.40</ele>
	<time>2024-07-25T10:12:50.000Z</time>
</trkpt>
<trkpt lat="46.1237630" lon="10.5020090">
	<ele>2137.40</ele>
	<time>2024-07-25T10:12:51.000Z</time>
</trkpt>
<trkpt lat="46.1237620" lon="10.5020090">
	<ele>2137.40</ele>
	<time>2024-07-25T10:12:52.000Z</time>
</trkpt>
<trkpt lat="46.1237620" lon="10.5020100">
	<ele>2137.40</ele>
	<time>2024-07-25T10:12:53.000Z</time>
</trkpt>
<trkpt lat="46.1237620" lon="10.5020090">
	<ele>2137.40</ele>
	<time>2024-07-25T10:12:54.000Z</time>
</trkpt>
<trkpt lat="46.1237620" lon="10.5020090">
	<ele>2137.40</ele>
	<time>2024-07-25T10:12:55.000Z</time>
</trkpt>
<trkpt lat="46.1237620" lon="10.5020090">
	<ele>2137.40</ele>
	<time>2024-07-25T10:12:56.000Z</time>
</trkpt>
<trkpt lat="46.1237620" lon="10.5020090">
	<ele>2137.40</ele>
	<time>2024-07-25T10:12:57.000Z</time>
</trkpt>
<trkpt lat="46.1237620" lon="10.5020090">
	<ele>2137.40</ele>
	<time>2024-07-25T10:12:58.000Z</time>
</trkpt>
<trkpt lat="46.1237620" lon="10.5020090">
	<ele>2137.40</ele>
	<time>2024-07-25T10:12:59.000Z</time>
</trkpt>
<trkpt lat="46.1237620" lon="10.5020090">
	<ele>2137.40</ele>
	<time>2024-07-25T10:13:00.000Z</time>
</trkpt>
<trkpt lat="46.1237630" lon="10.5020080">
	<ele>2137.40</ele>
	<time>2024-07-25T10:13:01.000Z</time>
</trkpt>
<trkpt lat="46.1237630" lon="10.5020080">
	<ele>2137.40</ele>
	<time>2024-07-25T10:13:02.000Z</time>
</trkpt>
<trkpt lat="46.1237630" lon="10.5020080">
	<ele>2137.40</ele>
	<time>2024-07-25T10:13:03.000Z</time>
</trkpt>
<trkpt lat="46.1237630" lon="10.5020080">
	<ele>2137.40</ele>
	<time>2024-07-25T10:13:04.000Z</time>
</trkpt>
<trkpt lat="46.1237630" lon="10.5020080">
	<ele>2137.40</ele>
	<time>2024-07-25T10:13:05.000Z</time>
</trkpt>
<trkpt lat="46.1237630" lon="10.5020080">
	<ele>2137.40</ele>
	<time>2024-07-25T10:13:06.000Z</time>
</trkpt>
<trkpt lat="46.1237630" lon="10.5020080">
	<ele>2137.40</ele>
	<time>2024-07-25T10:13:07.000Z</time>
</trkpt>
<trkpt lat="46.1237630" lon="10.5020080">
	<ele>2137.40</ele>
	<time>2024-07-25T10:13:08.000Z</time>
</trkpt>
<trkpt lat="46.1237630" lon="10.5020080">
	<ele>2137.40</ele>
	<time>2024-07-25T10:13:09.000Z</time>
</trkpt>
<trkpt lat="46.1237630" lon="10.5020080">
	<ele>2137.40</ele>
	<time>2024-07-25T10:13:10.000Z</time>
</trkpt>
<trkpt lat="46.1237630" lon="10.5020090">
	<ele>2137.40</ele>
	<time>2024-07-25T10:13:11.000Z</time>
</trkpt>
<trkpt lat="46.1237630" lon="10.5020090">
	<ele>2137.40</ele>
	<time>2024-07-25T10:13:12.000Z</time>
</trkpt>
<trkpt lat="46.1237620" lon="10.5020090">
	<ele>2137.40</ele>
	<time>2024-07-25T10:13:13.000Z</time>
</trkpt>
<trkpt lat="46.1237620" lon="10.5020090">
	<ele>2137.40</ele>
	<time>2024-07-25T10:13:14.000Z</time>
</trkpt>
<trkpt lat="46.1237620" lon="10.5020090">
	<ele>2137.40</ele>
	<time>2024-07-25T10:13:15.000Z</time>
</trkpt>
<trkpt lat="46.1237620" lon="10.5020090">
	<ele>2137.40</ele>
	<time>2024-07-25T10:13:16.000Z</time>
</trkpt>
<trkpt lat="46.1237630" lon="10.5020090">
	<ele>2137.40</ele>
	<time>2024-07-25T10:13:17.000Z</time>
</trkpt>
<trkpt lat="46.1237630" lon="10.5020090">
	<ele>2137.40</ele>
	<time>2024-07-25T10:13:18.000Z</time>
</trkpt>
<trkpt lat="46.1237630" lon="10.5020090">
	<ele>2137.40</ele>
	<time>2024-07-25T10:13:19.000Z</time>
</trkpt>
<trkpt lat="46.1237630" lon="10.5020090">
	<ele>2137.40</ele>
	<time>2024-07-25T10:13:20.000Z</time>
</trkpt>
<trkpt lat="46.1237630" lon="10.5020090">
	<ele>2137.40</ele>
	<time>2024-07-25T10:13:21.000Z</time>
</trkpt>
<trkpt lat="46.1237630" lon="10.5020090">
	<ele>2137.40</ele>
	<time>2024-07-25T10:13:22.000Z</time>
</trkpt>
<trkpt lat="46.1237630" lon="10.5020100">
	<ele>2137.40</ele>
	<time>2024-07-25T10:13:23.000Z</time>
</trkpt>
<trkpt lat="46.1237630" lon="10.5020100">
	<ele>2137.40</ele>
	<time>2024-07-25T10:13:24.000Z</time>
</trkpt>
<trkpt lat="46.1237630" lon="10.5020100">
	<ele>2137.40</ele>
	<time>2024-07-25T10:13:25.000Z</time>
</trkpt>
<trkpt lat="46.1237630" lon="10.5020100">
	<ele>2137.40</ele>
	<time>2024-07-25T10:13:26.000Z</time>
</trkpt>
<trkpt lat="46.1237630" lon="10.5020100">
	<ele>2137.40</ele>
	<time>2024-07-25T10:13:27.000Z</time>
</trkpt>
<trkpt lat="46.1237630" lon="10.5020090">
	<ele>2137.40</ele>
	<time>2024-07-25T10:13:28.000Z</time>
</trkpt>
<trkpt lat="46.1237620" lon="10.5020090">
	<ele>2137.40</ele>
	<time>2024-07-25T10:13:29.000Z</time>
</trkpt>
<trkpt lat="46.1237620" lon="10.5020090">
	<ele>2137.40</ele>
	<time>2024-07-25T10:13:30.000Z</time>
</trkpt>
<trkpt lat="46.1237620" lon="10.5020090">
	<ele>2137.40</ele>
	<time>2024-07-25T10:13:31.000Z</time>
</trkpt>
<trkpt lat="46.1237620" lon="10.5020090">
	<ele>2137.40</ele>
	<time>2024-07-25T10:13:32.000Z</time>
</trkpt>
<trkpt lat="46.1237620" lon="10.5020090">
	<ele>2137.40</ele>
	<time>2024-07-25T10:13:33.000Z</time>
</trkpt>
<trkpt lat="46.1237620" lon="10.5020090">
	<ele>2137.40</ele>
	<time>2024-07-25T10:13:34.000Z</time>
</trkpt>
<trkpt lat="46.1237620" lon="10.5020090">
	<ele>2137.40</ele>
	<time>2024-07-25T10:13:35.000Z</time>
</trkpt>
<trkpt lat="46.1237620" lon="10.5020090">
	<ele>2137.40</ele>
	<time>2024-07-25T10:13:36.000Z</time>
</trkpt>
<trkpt lat="46.1237600" lon="10.5020130">
	<ele>2137.40</ele>
	<time>2024-07-25T10:13:37.000Z</time>
</trkpt>
<trkpt lat="46.1237580" lon="10.5020130">
	<ele>2137.40</ele>
	<time>2024-07-25T10:13:38.000Z</time>
</trkpt>
<trkpt lat="46.1237520" lon="10.5020190">
	<ele>2137.40</ele>
	<time>2024-07-25T10:13:39.000Z</time>
</trkpt>
<trkpt lat="46.1237490" lon="10.5020210">
	<ele>2137.40</ele>
	<time>2024-07-25T10:13:40.000Z</time>
</trkpt>
<trkpt lat="46.1237540" lon="10.5020110">
	<ele>2137.40</ele>
	<time>2024-07-25T10:13:41.000Z</time>
</trkpt>
<trkpt lat="46.1237590" lon="10.5020030">
	<ele>2137.40</ele>
	<time>2024-07-25T10:13:42.000Z</time>
</trkpt>
<trkpt lat="46.1237630" lon="10.5020000">
	<ele>2137.40</ele>
	<time>2024-07-25T10:13:43.000Z</time>
</trkpt>
<trkpt lat="46.1237620" lon="10.5020020">
	<ele>2137.40</ele>
	<time>2024-07-25T10:13:44.000Z</time>
</trkpt>
<trkpt lat="46.1237580" lon="10.5020100">
	<ele>2137.40</ele>
	<time>2024-07-25T10:13:45.000Z</time>
</trkpt>
<trkpt lat="46.1237470" lon="10.5020230">
	<ele>2137.40</ele>
	<time>2024-07-25T10:13:46.000Z</time>
</trkpt>
<trkpt lat="46.1237410" lon="10.5020300">
	<ele>2137.40</ele>
	<time>2024-07-25T10:13:47.000Z</time>
</trkpt>
<trkpt lat="46.1237360" lon="10.5020380">
	<ele>2137.40</ele>
	<time>2024-07-25T10:13:48.000Z</time>
</trkpt>
<trkpt lat="46.1237360" lon="10.5020370">
	<ele>2137.40</ele>
	<time>2024-07-25T10:13:49.000Z</time>
</trkpt>
<trkpt lat="46.1237360" lon="10.5020360">
	<ele>2137.40</ele>
	<time>2024-07-25T10:13:50.000Z</time>
</trkpt>
<trkpt lat="46.1237370" lon="10.5020400">
	<ele>2137.40</ele>
	<time>2024-07-25T10:13:51.000Z</time>
</trkpt>
<trkpt lat="46.1237360" lon="10.5020410">
	<ele>2137.40</ele>
	<time>2024-07-25T10:13:52.000Z</time>
</trkpt>
<trkpt lat="46.1237340" lon="10.5020440">
	<ele>2137.40</ele>
	<time>2024-07-25T10:13:53.000Z</time>
</trkpt>
<trkpt lat="46.1237330" lon="10.5020470">
	<ele>2137.40</ele>
	<time>2024-07-25T10:13:54.000Z</time>
</trkpt>
<trkpt lat="46.1237280" lon="10.5020590">
	<ele>2137.40</ele>
	<time>2024-07-25T10:13:55.000Z</time>
</trkpt>
<trkpt lat="46.1237280" lon="10.5020620">
	<ele>2137.40</ele>
	<time>2024-07-25T10:13:56.000Z</time>
</trkpt>
<trkpt lat="46.1237290" lon="10.5020640">
	<ele>2137.40</ele>
	<time>2024-07-25T10:13:57.000Z</time>
</trkpt>
<trkpt lat="46.1237290" lon="10.5020670">
	<ele>2137.40</ele>
	<time>2024-07-25T10:13:58.000Z</time>
</trkpt>
<trkpt lat="46.1237300" lon="10.5020670">
	<ele>2137.40</ele>
	<time>2024-07-25T10:13:59.000Z</time>
</trkpt>
<trkpt lat="46.1237280" lon="10.5020650">
	<ele>2137.40</ele>
	<time>2024-07-25T10:14:00.000Z</time>
</trkpt>
<trkpt lat="46.1237270" lon="10.5020600">
	<ele>2137.40</ele>
	<time>2024-07-25T10:14:01.000Z</time>
</trkpt>
<trkpt lat="46.1237280" lon="10.5020540">
	<ele>2137.40</ele>
	<time>2024-07-25T10:14:02.000Z</time>
</trkpt>
<trkpt lat="46.1237280" lon="10.5020540">
	<ele>2137.40</ele>
	<time>2024-07-25T10:14:03.000Z</time>
</trkpt>
<trkpt lat="46.1237280" lon="10.5020540">
	<ele>2137.40</ele>
	<time>2024-07-25T10:14:04.000Z</time>
</trkpt>
<trkpt lat="46.1237280" lon="10.5020540">
	<ele>2137.40</ele>
	<time>2024-07-25T10:14:05.000Z</time>
</trkpt>
<trkpt lat="46.1237280" lon="10.5020540">
	<ele>2137.40</ele>
	<time>2024-07-25T10:14:06.000Z</time>
</trkpt>
<trkpt lat="46.1237280" lon="10.5020540">
	<ele>2137.40</ele>
	<time>2024-07-25T10:14:07.000Z</time>
</trkpt>
<trkpt lat="46.1237280" lon="10.5020540">
	<ele>2137.40</ele>
	<time>2024-07-25T10:14:08.000Z</time>
</trkpt>
<trkpt lat="46.1237280" lon="10.5020540">
	<ele>2137.40</ele>
	<time>2024-07-25T10:14:09.000Z</time>
</trkpt>
<trkpt lat="46.1237280" lon="10.5020540">
	<ele>2137.40</ele>
	<time>2024-07-25T10:14:10.000Z</time>
</trkpt>
<trkpt lat="46.1237280" lon="10.5020540">
	<ele>2137.40</ele>
	<time>2024-07-25T10:14:11.000Z</time>
</trkpt>
<trkpt lat="46.1237280" lon="10.5020540">
	<ele>2137.40</ele>
	<time>2024-07-25T10:14:12.000Z</time>
</trkpt>
<trkpt lat="46.1237280" lon="10.5020540">
	<ele>2137.40</ele>
	<time>2024-07-25T10:14:13.000Z</time>
</trkpt>
<trkpt lat="46.1237280" lon="10.5020540">
	<ele>2137.40</ele>
	<time>2024-07-25T10:14:14.000Z</time>
</trkpt>
<trkpt lat="46.1237280" lon="10.5020540">
	<ele>2137.40</ele>
	<time>2024-07-25T10:14:15.000Z</time>
</trkpt>
<trkpt lat="46.1237290" lon="10.5020540">
	<ele>2137.40</ele>
	<time>2024-07-25T10:14:16.000Z</time>
</trkpt>
<trkpt lat="46.1237290" lon="10.5020480">
	<ele>2137.40</ele>
	<time>2024-07-25T10:14:17.000Z</time>
</trkpt>
<trkpt lat="46.1237300" lon="10.5020470">
	<ele>2137.40</ele>
	<time>2024-07-25T10:14:18.000Z</time>
</trkpt>
<trkpt lat="46.1237300" lon="10.5020460">
	<ele>2137.40</ele>
	<time>2024-07-25T10:14:19.000Z</time>
</trkpt>
<trkpt lat="46.1237300" lon="10.5020450">
	<ele>2137.40</ele>
	<time>2024-07-25T10:14:20.000Z</time>
</trkpt>
<trkpt lat="46.1237300" lon="10.5020450">
	<ele>2137.40</ele>
	<time>2024-07-25T10:14:21.000Z</time>
</trkpt>
<trkpt lat="46.1237300" lon="10.5020440">
	<ele>2137.40</ele>
	<time>2024-07-25T10:14:22.000Z</time>
</trkpt>
<trkpt lat="46.1237310" lon="10.5020430">
	<ele>2137.40</ele>
	<time>2024-07-25T10:14:23.000Z</time>
</trkpt>
<trkpt lat="46.1237310" lon="10.5020380">
	<ele>2137.40</ele>
	<time>2024-07-25T10:14:24.000Z</time>
</trkpt>
<trkpt lat="46.1237330" lon="10.5020330">
	<ele>2137.40</ele>
	<time>2024-07-25T10:14:25.000Z</time>
</trkpt>
<trkpt lat="46.1237380" lon="10.5020280">
	<ele>2137.40</ele>
	<time>2024-07-25T10:14:26.000Z</time>
</trkpt>
<trkpt lat="46.1237410" lon="10.5020230">
	<ele>2137.40</ele>
	<time>2024-07-25T10:14:27.000Z</time>
</trkpt>
<trkpt lat="46.1237420" lon="10.5020210">
	<ele>2137.40</ele>
	<time>2024-07-25T10:14:28.000Z</time>
</trkpt>
<trkpt lat="46.1237420" lon="10.5020210">
	<ele>2137.40</ele>
	<time>2024-07-25T10:14:29.000Z</time>
</trkpt>
<trkpt lat="46.1237420" lon="10.5020200">
	<ele>2137.40</ele>
	<time>2024-07-25T10:14:30.000Z</time>
</trkpt>
<trkpt lat="46.1237420" lon="10.5020200">
	<ele>2137.40</ele>
	<time>2024-07-25T10:14:31.000Z</time>
</trkpt>
<trkpt lat="46.1237430" lon="10.5020200">
	<ele>2137.40</ele>
	<time>2024-07-25T10:14:32.000Z</time>
</trkpt>
<trkpt lat="46.1237430" lon="10.5020200">
	<ele>2137.40</ele>
	<time>2024-07-25T10:14:33.000Z</time>
</trkpt>
<trkpt lat="46.1237430" lon="10.5020200">
	<ele>2137.40</ele>
	<time>2024-07-25T10:14:34.000Z</time>
</trkpt>
<trkpt lat="46.1237430" lon="10.5020200">
	<ele>2137.40</ele>
	<time>2024-07-25T10:14:35.000Z</time>
</trkpt>
<trkpt lat="46.1237440" lon="10.5020200">
	<ele>2137.40</ele>
	<time>2024-07-25T10:14:36.000Z</time>
</trkpt>
<trkpt lat="46.1237440" lon="10.5020200">
	<ele>2137.40</ele>
	<time>2024-07-25T10:14:37.000Z</time>
</trkpt>
<trkpt lat="46.1237440" lon="10.5020190">
	<ele>2137.40</ele>
	<time>2024-07-25T10:14:38.000Z</time>
</trkpt>
<trkpt lat="46.1237440" lon="10.5020170">
	<ele>2137.40</ele>
	<time>2024-07-25T10:14:39.000Z</time>
</trkpt>
<trkpt lat="46.1237450" lon="10.5020170">
	<ele>2137.40</ele>
	<time>2024-07-25T10:14:40.000Z</time>
</trkpt>
<trkpt lat="46.1237450" lon="10.5020170">
	<ele>2137.40</ele>
	<time>2024-07-25T10:14:41.000Z</time>
</trkpt>
<trkpt lat="46.1237450" lon="10.5020170">
	<ele>2137.40</ele>
	<time>2024-07-25T10:14:42.000Z</time>
</trkpt>
<trkpt lat="46.1237450" lon="10.5020170">
	<ele>2137.40</ele>
	<time>2024-07-25T10:14:43.000Z</time>
</trkpt>
<trkpt lat="46.1237450" lon="10.5020170">
	<ele>2137.40</ele>
	<time>2024-07-25T10:14:44.000Z</time>
</trkpt>
<trkpt lat="46.1237450" lon="10.5020190">
	<ele>2137.40</ele>
	<time>2024-07-25T10:14:45.000Z</time>
</trkpt>
<trkpt lat="46.1237450" lon="10.5020190">
	<ele>2137.40</ele>
	<time>2024-07-25T10:14:46.000Z</time>
</trkpt>
<trkpt lat="46.1237450" lon="10.5020200">
	<ele>2137.40</ele>
	<time>2024-07-25T10:14:47.000Z</time>
</trkpt>
<trkpt lat="46.1237450" lon="10.5020220">
	<ele>2137.40</ele>
	<time>2024-07-25T10:14:48.000Z</time>
</trkpt>
<trkpt lat="46.1237450" lon="10.5020230">
	<ele>2137.40</ele>
	<time>2024-07-25T10:14:49.000Z</time>
</trkpt>
<trkpt lat="46.1237450" lon="10.5020230">
	<ele>2137.40</ele>
	<time>2024-07-25T10:14:50.000Z</time>
</trkpt>
<trkpt lat="46.1237470" lon="10.5020230">
	<ele>2137.40</ele>
	<time>2024-07-25T10:14:51.000Z</time>
</trkpt>
<trkpt lat="46.1237480" lon="10.5020230">
	<ele>2137.40</ele>
	<time>2024-07-25T10:14:52.000Z</time>
</trkpt>
<trkpt lat="46.1237490" lon="10.5020230">
	<ele>2137.40</ele>
	<time>2024-07-25T10:14:53.000Z</time>
</trkpt>
<trkpt lat="46.1237490" lon="10.5020230">
	<ele>2137.40</ele>
	<time>2024-07-25T10:14:54.000Z</time>
</trkpt>
<trkpt lat="46.1237500" lon="10.5020230">
	<ele>2137.40</ele>
	<time>2024-07-25T10:14:55.000Z</time>
</trkpt>
<trkpt lat="46.1237510" lon="10.5020230">
	<ele>2137.40</ele>
	<time>2024-07-25T10:14:56.000Z</time>
</trkpt>
<trkpt lat="46.1237520" lon="10.5020230">
	<ele>2137.40</ele>
	<time>2024-07-25T10:14:57.000Z</time>
</trkpt>
<trkpt lat="46.1237530" lon="10.5020240">
	<ele>2137.40</ele>
	<time>2024-07-25T10:14:58.000Z</time>
</trkpt>
<trkpt lat="46.1237530" lon="10.5020250">
	<ele>2137.40</ele>
	<time>2024-07-25T10:14:59.000Z</time>
</trkpt>
<trkpt lat="46.1237530" lon="10.5020270">
	<ele>2137.40</ele>
	<time>2024-07-25T10:15:00.000Z</time>
</trkpt>
<trkpt lat="46.1237530" lon="10.5020280">
	<ele>2137.40</ele>
	<time>2024-07-25T10:15:01.000Z</time>
</trkpt>
<trkpt lat="46.1237530" lon="10.5020280">
	<ele>2137.40</ele>
	<time>2024-07-25T10:15:02.000Z</time>
</trkpt>
<trkpt lat="46.1237530" lon="10.5020280">
	<ele>2137.40</ele>
	<time>2024-07-25T10:15:03.000Z</time>
</trkpt>
<trkpt lat="46.1237530" lon="10.5020260">
	<ele>2137.40</ele>
	<time>2024-07-25T10:15:04.000Z</time>
</trkpt>
<trkpt lat="46.1237530" lon="10.5020260">
	<ele>2137.40</ele>
	<time>2024-07-25T10:15:05.000Z</time>
</trkpt>
<trkpt lat="46.1237530" lon="10.5020260">
	<ele>2137.40</ele>
	<time>2024-07-25T10:15:06.000Z</time>
</trkpt>
<trkpt lat="46.1237530" lon="10.5020280">
	<ele>2137.40</ele>
	<time>2024-07-25T10:15:07.000Z</time>
</trkpt>
<trkpt lat="46.1237520" lon="10.5020290">
	<ele>2137.40</ele>
	<time>2024-07-25T10:15:08.000Z</time>
</trkpt>
<trkpt lat="46.1237510" lon="10.5020310">
	<ele>2137.40</ele>
	<time>2024-07-25T10:15:09.000Z</time>
</trkpt>
<trkpt lat="46.1237490" lon="10.5020310">
	<ele>2137.40</ele>
	<time>2024-07-25T10:15:10.000Z</time>
</trkpt>
<trkpt lat="46.1237490" lon="10.5020310">
	<ele>2137.40</ele>
	<time>2024-07-25T10:15:11.000Z</time>
</trkpt>
<trkpt lat="46.1237490" lon="10.5020310">
	<ele>2137.40</ele>
	<time>2024-07-25T10:15:12.000Z</time>
</trkpt>
<trkpt lat="46.1237490" lon="10.5020310">
	<ele>2137.40</ele>
	<time>2024-07-25T10:15:13.000Z</time>
</trkpt>
<trkpt lat="46.1237480" lon="10.5020310">
	<ele>2137.40</ele>
	<time>2024-07-25T10:15:14.000Z</time>
</trkpt>
<trkpt lat="46.1237470" lon="10.5020310">
	<ele>2137.40</ele>
	<time>2024-07-25T10:15:15.000Z</time>
</trkpt>
<trkpt lat="46.1237470" lon="10.5020310">
	<ele>2137.40</ele>
	<time>2024-07-25T10:15:16.000Z</time>
</trkpt>
<trkpt lat="46.1237470" lon="10.5020340">
	<ele>2137.40</ele>
	<time>2024-07-25T10:15:17.000Z</time>
</trkpt>
<trkpt lat="46.1237470" lon="10.5020360">
	<ele>2137.40</ele>
	<time>2024-07-25T10:15:18.000Z</time>
</trkpt>
<trkpt lat="46.1237470" lon="10.5020380">
	<ele>2137.40</ele>
	<time>2024-07-25T10:15:19.000Z</time>
</trkpt>
<trkpt lat="46.1237470" lon="10.5020400">
	<ele>2137.40</ele>
	<time>2024-07-25T10:15:20.000Z</time>
</trkpt>
<trkpt lat="46.1237470" lon="10.5020410">
	<ele>2137.40</ele>
	<time>2024-07-25T10:15:21.000Z</time>
</trkpt>
<trkpt lat="46.1237470" lon="10.5020420">
	<ele>2137.40</ele>
	<time>2024-07-25T10:15:22.000Z</time>
</trkpt>
<trkpt lat="46.1237460" lon="10.5020420">
	<ele>2137.40</ele>
	<time>2024-07-25T10:15:23.000Z</time>
</trkpt>
<trkpt lat="46.1237460" lon="10.5020420">
	<ele>2137.40</ele>
	<time>2024-07-25T10:15:24.000Z</time>
</trkpt>
<trkpt lat="46.1237460" lon="10.5020420">
	<ele>2137.40</ele>
	<time>2024-07-25T10:15:25.000Z</time>
</trkpt>
<trkpt lat="46.1237460" lon="10.5020420">
	<ele>2137.40</ele>
	<time>2024-07-25T10:15:26.000Z</time>
</trkpt>
<trkpt lat="46.1237460" lon="10.5020420">
	<ele>2137.40</ele>
	<time>2024-07-25T10:15:27.000Z</time>
</trkpt>
<trkpt lat="46.1237460" lon="10.5020420">
	<ele>2137.40</ele>
	<time>2024-07-25T10:15:28.000Z</time>
</trkpt>
<trkpt lat="46.1237460" lon="10.5020420">
	<ele>2137.40</ele>
	<time>2024-07-25T10:15:29.000Z</time>
</trkpt>
<trkpt lat="46.1237460" lon="10.5020430">
	<ele>2137.40</ele>
	<time>2024-07-25T10:15:30.000Z</time>
</trkpt>
<trkpt lat="46.1237450" lon="10.5020430">
	<ele>2137.40</ele>
	<time>2024-07-25T10:15:31.000Z</time>
</trkpt>
<trkpt lat="46.1237450" lon="10.5020430">
	<ele>2137.40</ele>
	<time>2024-07-25T10:15:32.000Z</time>
</trkpt>
<trkpt lat="46.1237450" lon="10.5020430">
	<ele>2137.40</ele>
	<time>2024-07-25T10:15:33.000Z</time>
</trkpt>
<trkpt lat="46.1237440" lon="10.5020440">
	<ele>2137.40</ele>
	<time>2024-07-25T10:15:34.000Z</time>
</trkpt>
<trkpt lat="46.1237440" lon="10.5020440">
	<ele>2137.40</ele>
	<time>2024-07-25T10:15:35.000Z</time>
</trkpt>
<trkpt lat="46.1237440" lon="10.5020440">
	<ele>2137.40</ele>
	<time>2024-07-25T10:15:36.000Z</time>
</trkpt>
<trkpt lat="46.1237440" lon="10.5020440">
	<ele>2137.40</ele>
	<time>2024-07-25T10:15:37.000Z</time>
</trkpt>
<trkpt lat="46.1237440" lon="10.5020440">
	<ele>2137.40</ele>
	<time>2024-07-25T10:15:38.000Z</time>
</trkpt>
<trkpt lat="46.1237440" lon="10.5020440">
	<ele>2137.40</ele>
	<time>2024-07-25T10:15:39.000Z</time>
</trkpt>
<trkpt lat="46.1237440" lon="10.5020440">
	<ele>2137.40</ele>
	<time>2024-07-25T10:15:40.000Z</time>
</trkpt>
<trkpt lat="46.1237430" lon="10.5020440">
	<ele>2137.40</ele>
	<time>2024-07-25T10:15:41.000Z</time>
</trkpt>
<trkpt lat="46.1237410" lon="10.5020440">
	<ele>2137.40</ele>
	<time>2024-07-25T10:15:42.000Z</time>
</trkpt>
<trkpt lat="46.1237410" lon="10.5020430">
	<ele>2137.40</ele>
	<time>2024-07-25T10:15:43.000Z</time>
</trkpt>
<trkpt lat="46.1237400" lon="10.5020430">
	<ele>2137.40</ele>
	<time>2024-07-25T10:15:44.000Z</time>
</trkpt>
<trkpt lat="46.1237400" lon="10.5020430">
	<ele>2137.40</ele>
	<time>2024-07-25T10:15:45.000Z</time>
</trkpt>
<trkpt lat="46.1237400" lon="10.5020430">
	<ele>2137.40</ele>
	<time>2024-07-25T10:15:46.000Z</time>
</trkpt>
<trkpt lat="46.1237400" lon="10.5020430">
	<ele>2137.40</ele>
	<time>2024-07-25T10:15:47.000Z</time>
</trkpt>
<trkpt lat="46.1237400" lon="10.5020430">
	<ele>2137.40</ele>
	<time>2024-07-25T10:15:48.000Z</time>
</trkpt>
<trkpt lat="46.1237400" lon="10.5020420">
	<ele>2137.40</ele>
	<time>2024-07-25T10:15:49.000Z</time>
</trkpt>
<trkpt lat="46.1237400" lon="10.5020420">
	<ele>2137.40</ele>
	<time>2024-07-25T10:15:50.000Z</time>
</trkpt>
<trkpt lat="46.1237400" lon="10.5020410">
	<ele>2137.40</ele>
	<time>2024-07-25T10:15:51.000Z</time>
</trkpt>
<trkpt lat="46.1237400" lon="10.5020410">
	<ele>2137.40</ele>
	<time>2024-07-25T10:15:52.000Z</time>
</trkpt>
<trkpt lat="46.1237400" lon="10.5020400">
	<ele>2137.40</ele>
	<time>2024-07-25T10:15:53.000Z</time>
</trkpt>
<trkpt lat="46.1237400" lon="10.5020400">
	<ele>2137.40</ele>
	<time>2024-07-25T10:15:54.000Z</time>
</trkpt>
<trkpt lat="46.1237400" lon="10.5020400">
	<ele>2137.40</ele>
	<time>2024-07-25T10:15:55.000Z</time>
</trkpt>
<trkpt lat="46.1237400" lon="10.5020400">
	<ele>2137.40</ele>
	<time>2024-07-25T10:15:56.000Z</time>
</trkpt>
<trkpt lat="46.1237400" lon="10.5020400">
	<ele>2137.40</ele>
	<time>2024-07-25T10:15:57.000Z</time>
</trkpt>
<trkpt lat="46.1237410" lon="10.5020400">
	<ele>2137.40</ele>
	<time>2024-07-25T10:15:58.000Z</time>
</trkpt>
<trkpt lat="46.1237440" lon="10.5020400">
	<ele>2137.40</ele>
	<time>2024-07-25T10:15:59.000Z</time>
</trkpt>
<trkpt lat="46.1237460" lon="10.5020400">
	<ele>2137.40</ele>
	<time>2024-07-25T10:16:00.000Z</time>
</trkpt>
<trkpt lat="46.1237480" lon="10.5020400">
	<ele>2137.40</ele>
	<time>2024-07-25T10:16:01.000Z</time>
</trkpt>
<trkpt lat="46.1237500" lon="10.5020390">
	<ele>2137.40</ele>
	<time>2024-07-25T10:16:02.000Z</time>
</trkpt>
<trkpt lat="46.1237530" lon="10.5020390">
	<ele>2137.40</ele>
	<time>2024-07-25T10:16:03.000Z</time>
</trkpt>
<trkpt lat="46.1237560" lon="10.5020390">
	<ele>2137.40</ele>
	<time>2024-07-25T10:16:04.000Z</time>
</trkpt>
<trkpt lat="46.1237590" lon="10.5020390">
	<ele>2137.40</ele>
	<time>2024-07-25T10:16:05.000Z</time>
</trkpt>
<trkpt lat="46.1237600" lon="10.5020390">
	<ele>2137.40</ele>
	<time>2024-07-25T10:16:06.000Z</time>
</trkpt>
<trkpt lat="46.1237620" lon="10.5020390">
	<ele>2137.40</ele>
	<time>2024-07-25T10:16:07.000Z</time>
</trkpt>
<trkpt lat="46.1237630" lon="10.5020390">
	<ele>2137.40</ele>
	<time>2024-07-25T10:16:08.000Z</time>
</trkpt>
<trkpt lat="46.1237630" lon="10.5020400">
	<ele>2137.40</ele>
	<time>2024-07-25T10:16:09.000Z</time>
</trkpt>
<trkpt lat="46.1237640" lon="10.5020400">
	<ele>2137.40</ele>
	<time>2024-07-25T10:16:10.000Z</time>
</trkpt>
<trkpt lat="46.1237640" lon="10.5020400">
	<ele>2137.40</ele>
	<time>2024-07-25T10:16:11.000Z</time>
</trkpt>
<trkpt lat="46.1237640" lon="10.5020400">
	<ele>2137.40</ele>
	<time>2024-07-25T10:16:12.000Z</time>
</trkpt>
<trkpt lat="46.1237640" lon="10.5020400">
	<ele>2137.40</ele>
	<time>2024-07-25T10:16:13.000Z</time>
</trkpt>
<trkpt lat="46.1237650" lon="10.5020410">
	<ele>2137.40</ele>
	<time>2024-07-25T10:16:14.000Z</time>
</trkpt>
<trkpt lat="46.1237650" lon="10.5020420">
	<ele>2137.40</ele>
	<time>2024-07-25T10:16:15.000Z</time>
</trkpt>
<trkpt lat="46.1237650" lon="10.5020430">
	<ele>2137.40</ele>
	<time>2024-07-25T10:16:16.000Z</time>
</trkpt>
<trkpt lat="46.1237660" lon="10.5020430">
	<ele>2137.40</ele>
	<time>2024-07-25T10:16:17.000Z</time>
</trkpt>
<trkpt lat="46.1237660" lon="10.5020440">
	<ele>2137.40</ele>
	<time>2024-07-25T10:16:18.000Z</time>
</trkpt>
<trkpt lat="46.1237660" lon="10.5020440">
	<ele>2137.40</ele>
	<time>2024-07-25T10:16:19.000Z</time>
</trkpt>
<trkpt lat="46.1237660" lon="10.5020450">
	<ele>2137.40</ele>
	<time>2024-07-25T10:16:20.000Z</time>
</trkpt>
<trkpt lat="46.1237660" lon="10.5020450">
	<ele>2137.40</ele>
	<time>2024-07-25T10:16:21.000Z</time>
</trkpt>
<trkpt lat="46.1237660" lon="10.5020450">
	<ele>2137.40</ele>
	<time>2024-07-25T10:16:22.000Z</time>
</trkpt>
<trkpt lat="46.1237670" lon="10.5020460">
	<ele>2137.40</ele>
	<time>2024-07-25T10:16:23.000Z</time>
</trkpt>
<trkpt lat="46.1237670" lon="10.5020460">
	<ele>2137.40</ele>
	<time>2024-07-25T10:16:24.000Z</time>
</trkpt>
<trkpt lat="46.1237670" lon="10.5020460">
	<ele>2137.40</ele>
	<time>2024-07-25T10:16:25.000Z</time>
</trkpt>
<trkpt lat="46.1237670" lon="10.5020460">
	<ele>2137.40</ele>
	<time>2024-07-25T10:16:26.000Z</time>
</trkpt>
<trkpt lat="46.1237670" lon="10.5020470">
	<ele>2137.40</ele>
	<time>2024-07-25T10:16:27.000Z</time>
</trkpt>
<trkpt lat="46.1237680" lon="10.5020470">
	<ele>2137.40</ele>
	<time>2024-07-25T10:16:28.000Z</time>
</trkpt>
<trkpt lat="46.1237680" lon="10.5020470">
	<ele>2137.40</ele>
	<time>2024-07-25T10:16:29.000Z</time>
</trkpt>
<trkpt lat="46.1237690" lon="10.5020470">
	<ele>2137.40</ele>
	<time>2024-07-25T10:16:30.000Z</time>
</trkpt>
<trkpt lat="46.1237690" lon="10.5020470">
	<ele>2137.40</ele>
	<time>2024-07-25T10:16:31.000Z</time>
</trkpt>
<trkpt lat="46.1237690" lon="10.5020470">
	<ele>2137.40</ele>
	<time>2024-07-25T10:16:32.000Z</time>
</trkpt>
<trkpt lat="46.1237700" lon="10.5020460">
	<ele>2137.40</ele>
	<time>2024-07-25T10:16:33.000Z</time>
</trkpt>
<trkpt lat="46.1237700" lon="10.5020460">
	<ele>2137.40</ele>
	<time>2024-07-25T10:16:34.000Z</time>
</trkpt>
<trkpt lat="46.1237700" lon="10.5020460">
	<ele>2137.40</ele>
	<time>2024-07-25T10:16:35.000Z</time>
</trkpt>
<trkpt lat="46.1237710" lon="10.5020460">
	<ele>2137.40</ele>
	<time>2024-07-25T10:16:36.000Z</time>
</trkpt>
<trkpt lat="46.1237710" lon="10.5020460">
	<ele>2137.40</ele>
	<time>2024-07-25T10:16:37.000Z</time>
</trkpt>
<trkpt lat="46.1237710" lon="10.5020450">
	<ele>2137.40</ele>
	<time>2024-07-25T10:16:38.000Z</time>
</trkpt>
<trkpt lat="46.1237710" lon="10.5020450">
	<ele>2137.40</ele>
	<time>2024-07-25T10:16:39.000Z</time>
</trkpt>
<trkpt lat="46.1237720" lon="10.5020450">
	<ele>2137.40</ele>
	<time>2024-07-25T10:16:40.000Z</time>
</trkpt>
<trkpt lat="46.1237720" lon="10.5020440">
	<ele>2137.40</ele>
	<time>2024-07-25T10:16:41.000Z</time>
</trkpt>
<trkpt lat="46.1237720" lon="10.5020430">
	<ele>2137.40</ele>
	<time>2024-07-25T10:16:42.000Z</time>
</trkpt>
<trkpt lat="46.1237720" lon="10.5020430">
	<ele>2137.40</ele>
	<time>2024-07-25T10:16:43.000Z</time>
</trkpt>
<trkpt lat="46.1237730" lon="10.5020420">
	<ele>2137.40</ele>
	<time>2024-07-25T10:16:44.000Z</time>
</trkpt>
<trkpt lat="46.1237730" lon="10.5020420">
	<ele>2137.40</ele>
	<time>2024-07-25T10:16:45.000Z</time>
</trkpt>
<trkpt lat="46.1237730" lon="10.5020410">
	<ele>2137.40</ele>
	<time>2024-07-25T10:16:46.000Z</time>
</trkpt>
<trkpt lat="46.1237730" lon="10.5020410">
	<ele>2137.40</ele>
	<time>2024-07-25T10:16:47.000Z</time>
</trkpt>
<trkpt lat="46.1237730" lon="10.5020410">
	<ele>2137.40</ele>
	<time>2024-07-25T10:16:48.000Z</time>
</trkpt>
<trkpt lat="46.1237730" lon="10.5020410">
	<ele>2137.40</ele>
	<time>2024-07-25T10:16:49.000Z</time>
</trkpt>
<trkpt lat="46.1237730" lon="10.5020410">
	<ele>2137.40</ele>
	<time>2024-07-25T10:16:50.000Z</time>
</trkpt>
<trkpt lat="46.1237730" lon="10.5020400">
	<ele>2137.40</ele>
	<time>2024-07-25T10:16:51.000Z</time>
</trkpt>
<trkpt lat="46.1237730" lon="10.5020400">
	<ele>2137.40</ele>
	<time>2024-07-25T10:16:52.000Z</time>
</trkpt>
<trkpt lat="46.1237730" lon="10.5020400">
	<ele>2137.40</ele>
	<time>2024-07-25T10:16:53.000Z</time>
</trkpt>
<trkpt lat="46.1237730" lon="10.5020400">
	<ele>2137.40</ele>
	<time>2024-07-25T10:16:54.000Z</time>
</trkpt>
<trkpt lat="46.1237730" lon="10.5020400">
	<ele>2137.40</ele>
	<time>2024-07-25T10:16:55.000Z</time>
</trkpt>
<trkpt lat="46.1237730" lon="10.5020400">
	<ele>2137.40</ele>
	<time>2024-07-25T10:16:56.000Z</time>
</trkpt>
<trkpt lat="46.1237730" lon="10.5020400">
	<ele>2137.40</ele>
	<time>2024-07-25T10:16:57.000Z</time>
</trkpt>
<trkpt lat="46.1237740" lon="10.5020400">
	<ele>2137.40</ele>
	<time>2024-07-25T10:16:58.000Z</time>
</trkpt>
<trkpt lat="46.1237740" lon="10.5020400">
	<ele>2137.40</ele>
	<time>2024-07-25T10:16:59.000Z</time>
</trkpt>
<trkpt lat="46.1237740" lon="10.5020400">
	<ele>2137.40</ele>
	<time>2024-07-25T10:17:00.000Z</time>
</trkpt>
<trkpt lat="46.1237730" lon="10.5020400">
	<ele>2137.40</ele>
	<time>2024-07-25T10:17:01.000Z</time>
</trkpt>
<trkpt lat="46.1237730" lon="10.5020400">
	<ele>2137.40</ele>
	<time>2024-07-25T10:17:02.000Z</time>
</trkpt>
<trkpt lat="46.1237730" lon="10.5020400">
	<ele>2137.40</ele>
	<time>2024-07-25T10:17:03.000Z</time>
</trkpt>
<trkpt lat="46.1237720" lon="10.5020410">
	<ele>2137.40</ele>
	<time>2024-07-25T10:17:04.000Z</time>
</trkpt>
<trkpt lat="46.1237720" lon="10.5020410">
	<ele>2137.40</ele>
	<time>2024-07-25T10:17:05.000Z</time>
</trkpt>
<trkpt lat="46.1237720" lon="10.5020410">
	<ele>2137.40</ele>
	<time>2024-07-25T10:17:06.000Z</time>
</trkpt>
<trkpt lat="46.1237710" lon="10.5020420">
	<ele>2137.40</ele>
	<time>2024-07-25T10:17:07.000Z</time>
</trkpt>
<trkpt lat="46.1237710" lon="10.5020420">
	<ele>2137.40</ele>
	<time>2024-07-25T10:17:08.000Z</time>
</trkpt>
<trkpt lat="46.1237700" lon="10.5020430">
	<ele>2137.40</ele>
	<time>2024-07-25T10:17:09.000Z</time>
</trkpt>
<trkpt lat="46.1237700" lon="10.5020430">
	<ele>2137.40</ele>
	<time>2024-07-25T10:17:10.000Z</time>
</trkpt>
<trkpt lat="46.1237690" lon="10.5020430">
	<ele>2137.40</ele>
	<time>2024-07-25T10:17:11.000Z</time>
</trkpt>
<trkpt lat="46.1237690" lon="10.5020440">
	<ele>2137.40</ele>
	<time>2024-07-25T10:17:12.000Z</time>
</trkpt>
<trkpt lat="46.1237690" lon="10.5020440">
	<ele>2137.40</ele>
	<time>2024-07-25T10:17:13.000Z</time>
</trkpt>
<trkpt lat="46.1237690" lon="10.5020450">
	<ele>2137.40</ele>
	<time>2024-07-25T10:17:14.000Z</time>
</trkpt>
<trkpt lat="46.1237680" lon="10.5020450">
	<ele>2137.40</ele>
	<time>2024-07-25T10:17:15.000Z</time>
</trkpt>
<trkpt lat="46.1237680" lon="10.5020450">
	<ele>2137.40</ele>
	<time>2024-07-25T10:17:16.000Z</time>
</trkpt>
<trkpt lat="46.1237680" lon="10.5020450">
	<ele>2137.40</ele>
	<time>2024-07-25T10:17:17.000Z</time>
</trkpt>
<trkpt lat="46.1237680" lon="10.5020460">
	<ele>2137.40</ele>
	<time>2024-07-25T10:17:18.000Z</time>
</trkpt>
<trkpt lat="46.1237680" lon="10.5020460">
	<ele>2137.40</ele>
	<time>2024-07-25T10:17:19.000Z</time>
</trkpt>
<trkpt lat="46.1237680" lon="10.5020460">
	<ele>2137.40</ele>
	<time>2024-07-25T10:17:20.000Z</time>
</trkpt>
<trkpt lat="46.1237680" lon="10.5020460">
	<ele>2137.40</ele>
	<time>2024-07-25T10:17:21.000Z</time>
</trkpt>
<trkpt lat="46.1237680" lon="10.5020460">
	<ele>2137.40</ele>
	<time>2024-07-25T10:17:22.000Z</time>
</trkpt>
<trkpt lat="46.1237680" lon="10.5020460">
	<ele>2137.40</ele>
	<time>2024-07-25T10:17:23.000Z</time>
</trkpt>
<trkpt lat="46.1237680" lon="10.5020460">
	<ele>2137.40</ele>
	<time>2024-07-25T10:17:24.000Z</time>
</trkpt>
<trkpt lat="46.1237680" lon="10.5020460">
	<ele>2137.40</ele>
	<time>2024-07-25T10:17:25.000Z</time>
</trkpt>
<trkpt lat="46.1237680" lon="10.5020460">
	<ele>2137.40</ele>
	<time>2024-07-25T10:17:26.000Z</time>
</trkpt>
<trkpt lat="46.1237680" lon="10.5020450">
	<ele>2137.40</ele>
	<time>2024-07-25T10:17:27.000Z</time>
</trkpt>
<trkpt lat="46.1237680" lon="10.5020450">
	<ele>2137.40</ele>
	<time>2024-07-25T10:17:28.000Z</time>
</trkpt>
<trkpt lat="46.1237680" lon="10.5020450">
	<ele>2137.40</ele>
	<time>2024-07-25T10:17:29.000Z</time>
</trkpt>
<trkpt lat="46.1237680" lon="10.5020450">
	<ele>2137.40</ele>
	<time>2024-07-25T10:17:30.000Z</time>
</trkpt>
<trkpt lat="46.1237680" lon="10.5020450">
	<ele>2137.40</ele>
	<time>2024-07-25T10:17:31.000Z</time>
</trkpt>
<trkpt lat="46.1237680" lon="10.5020450">
	<ele>2137.40</ele>
	<time>2024-07-25T10:17:32.000Z</time>
</trkpt>
<trkpt lat="46.1237680" lon="10.5020450">
	<ele>2137.40</ele>
	<time>2024-07-25T10:17:33.000Z</time>
</trkpt>
<trkpt lat="46.1237680" lon="10.5020450">
	<ele>2137.40</ele>
	<time>2024-07-25T10:17:34.000Z</time>
</trkpt>
<trkpt lat="46.1237680" lon="10.5020450">
	<ele>2137.40</ele>
	<time>2024-07-25T10:17:35.000Z</time>
</trkpt>
<trkpt lat="46.1237680" lon="10.5020450">
	<ele>2137.40</ele>
	<time>2024-07-25T10:17:36.000Z</time>
</trkpt>
<trkpt lat="46.1237680" lon="10.5020450">
	<ele>2137.40</ele>
	<time>2024-07-25T10:17:37.000Z</time>
</trkpt>
<trkpt lat="46.1237680" lon="10.5020450">
	<ele>2137.40</ele>
	<time>2024-07-25T10:17:38.000Z</time>
</trkpt>
<trkpt lat="46.1237680" lon="10.5020440">
	<ele>2137.40</ele>
	<time>2024-07-25T10:17:39.000Z</time>
</trkpt>
<trkpt lat="46.1237680" lon="10.5020440">
	<ele>2137.40</ele>
	<time>2024-07-25T10:17:40.000Z</time>
</trkpt>
<trkpt lat="46.1237690" lon="10.5020440">
	<ele>2137.40</ele>
	<time>2024-07-25T10:17:41.000Z</time>
</trkpt>
<trkpt lat="46.1237690" lon="10.5020440">
	<ele>2137.40</ele>
	<time>2024-07-25T10:17:42.000Z</time>
</trkpt>
<trkpt lat="46.1237690" lon="10.5020440">
	<ele>2137.40</ele>
	<time>2024-07-25T10:17:43.000Z</time>
</trkpt>
<trkpt lat="46.1237690" lon="10.5020440">
	<ele>2137.40</ele>
	<time>2024-07-25T10:17:44.000Z</time>
</trkpt>
<trkpt lat="46.1237690" lon="10.5020440">
	<ele>2137.40</ele>
	<time>2024-07-25T10:17:45.000Z</time>
</trkpt>
<trkpt lat="46.1237690" lon="10.5020440">
	<ele>2137.40</ele>
	<time>2024-07-25T10:17:46.000Z</time>
</trkpt>
<trkpt lat="46.1237690" lon="10.5020440">
	<ele>2137.40</ele>
	<time>2024-07-25T10:17:47.000Z</time>
</trkpt>
<trkpt lat="46.1237690" lon="10.5020440">
	<ele>2137.40</ele>
	<time>2024-07-25T10:17:48.000Z</time>
</trkpt>
<trkpt lat="46.1237690" lon="10.5020430">
	<ele>2137.40</ele>
	<time>2024-07-25T10:17:49.000Z</time>
</trkpt>
<trkpt lat="46.1237690" lon="10.5020430">
	<ele>2137.40</ele>
	<time>2024-07-25T10:17:50.000Z</time>
</trkpt>
<trkpt lat="46.1237690" lon="10.5020430">
	<ele>2137.40</ele>
	<time>2024-07-25T10:17:51.000Z</time>
</trkpt>
<trkpt lat="46.1237690" lon="10.5020430">
	<ele>2137.40</ele>
	<time>2024-07-25T10:17:52.000Z</time>
</trkpt>
<trkpt lat="46.1237690" lon="10.5020430">
	<ele>2137.40</ele>
	<time>2024-07-25T10:17:53.000Z</time>
</trkpt>
<trkpt lat="46.1237690" lon="10.5020430">
	<ele>2137.40</ele>
	<time>2024-07-25T10:17:54.000Z</time>
</trkpt>
<trkpt lat="46.1237690" lon="10.5020430">
	<ele>2137.40</ele>
	<time>2024-07-25T10:17:55.000Z</time>
</trkpt>
<trkpt lat="46.1237690" lon="10.5020430">
	<ele>2137.40</ele>
	<time>2024-07-25T10:17:56.000Z</time>
</trkpt>
<trkpt lat="46.1237690" lon="10.5020430">
	<ele>2137.40</ele>
	<time>2024-07-25T10:17:57.000Z</time>
</trkpt>
<trkpt lat="46.1237690" lon="10.5020430">
	<ele>2137.40</ele>
	<time>2024-07-25T10:17:58.000Z</time>
</trkpt>
<trkpt lat="46.1237690" lon="10.5020430">
	<ele>2137.40</ele>
	<time>2024-07-25T10:17:59.000Z</time>
</trkpt>
<trkpt lat="46.1237690" lon="10.5020430">
	<ele>2137.40</ele>
	<time>2024-07-25T10:18:00.000Z</time>
</trkpt>
<trkpt lat="46.1237690" lon="10.5020430">
	<ele>2137.40</ele>
	<time>2024-07-25T10:18:01.000Z</time>
</trkpt>
<trkpt lat="46.1237690" lon="10.5020430">
	<ele>2137.40</ele>
	<time>2024-07-25T10:18:02.000Z</time>
</trkpt>
<trkpt lat="46.1237690" lon="10.5020430">
	<ele>2137.40</ele>
	<time>2024-07-25T10:18:03.000Z</time>
</trkpt>
<trkpt lat="46.1237690" lon="10.5020430">
	<ele>2137.40</ele>
	<time>2024-07-25T10:18:04.000Z</time>
</trkpt>
<trkpt lat="46.1237680" lon="10.5020430">
	<ele>2137.40</ele>
	<time>2024-07-25T10:18:05.000Z</time>
</trkpt>
<trkpt lat="46.1237680" lon="10.5020430">
	<ele>2137.40</ele>
	<time>2024-07-25T10:18:06.000Z</time>
</trkpt>
<trkpt lat="46.1237680" lon="10.5020430">
	<ele>2137.40</ele>
	<time>2024-07-25T10:18:07.000Z</time>
</trkpt>
<trkpt lat="46.1237680" lon="10.5020430">
	<ele>2137.40</ele>
	<time>2024-07-25T10:18:08.000Z</time>
</trkpt>
<trkpt lat="46.1237680" lon="10.5020430">
	<ele>2137.40</ele>
	<time>2024-07-25T10:18:09.000Z</time>
</trkpt>
<trkpt lat="46.1237680" lon="10.5020430">
	<ele>2137.40</ele>
	<time>2024-07-25T10:18:10.000Z</time>
</trkpt>
<trkpt lat="46.1237680" lon="10.5020430">
	<ele>2137.40</ele>
	<time>2024-07-25T10:18:11.000Z</time>
</trkpt>
<trkpt lat="46.1237680" lon="10.5020430">
	<ele>2137.40</ele>
	<time>2024-07-25T10:18:12.000Z</time>
</trkpt>
<trkpt lat="46.1237680" lon="10.5020430">
	<ele>2137.40</ele>
	<time>2024-07-25T10:18:13.000Z</time>
</trkpt>
<trkpt lat="46.1237680" lon="10.5020430">
	<ele>2137.40</ele>
	<time>2024-07-25T10:18:14.000Z</time>
</trkpt>
<trkpt lat="46.1237680" lon="10.5020430">
	<ele>2137.40</ele>
	<time>2024-07-25T10:18:15.000Z</time>
</trkpt>
<trkpt lat="46.1237680" lon="10.5020420">
	<ele>2137.40</ele>
	<time>2024-07-25T10:18:16.000Z</time>
</trkpt>
<trkpt lat="46.1237680" lon="10.5020420">
	<ele>2137.40</ele>
	<time>2024-07-25T10:18:17.000Z</time>
</trkpt>
<trkpt lat="46.1237680" lon="10.5020420">
	<ele>2137.40</ele>
	<time>2024-07-25T10:18:18.000Z</time>
</trkpt>
<trkpt lat="46.1237680" lon="10.5020420">
	<ele>2137.40</ele>
	<time>2024-07-25T10:18:19.000Z</time>
</trkpt>
<trkpt lat="46.1237680" lon="10.5020420">
	<ele>2137.40</ele>
	<time>2024-07-25T10:18:20.000Z</time>
</trkpt>
<trkpt lat="46.1237680" lon="10.5020420">
	<ele>2137.40</ele>
	<time>2024-07-25T10:18:21.000Z</time>
</trkpt>
<trkpt lat="46.1237680" lon="10.5020420">
	<ele>2137.40</ele>
	<time>2024-07-25T10:18:22.000Z</time>
</trkpt>
<trkpt lat="46.1237680" lon="10.5020420">
	<ele>2137.40</ele>
	<time>2024-07-25T10:18:23.000Z</time>
</trkpt>
<trkpt lat="46.1237680" lon="10.5020420">
	<ele>2137.40</ele>
	<time>2024-07-25T10:18:24.000Z</time>
</trkpt>
<trkpt lat="46.1237680" lon="10.5020420">
	<ele>2137.40</ele>
	<time>2024-07-25T10:18:25.000Z</time>
</trkpt>
<trkpt lat="46.1237680" lon="10.5020420">
	<ele>2137.40</ele>
	<time>2024-07-25T10:18:26.000Z</time>
</trkpt>
<trkpt lat="46.1237680" lon="10.5020420">
	<ele>2137.40</ele>
	<time>2024-07-25T10:18:27.000Z</time>
</trkpt>
<trkpt lat="46.1237680" lon="10.5020410">
	<ele>2137.40</ele>
	<time>2024-07-25T10:18:28.000Z</time>
</trkpt>
<trkpt lat="46.1237680" lon="10.5020410">
	<ele>2137.40</ele>
	<time>2024-07-25T10:18:29.000Z</time>
</trkpt>
<trkpt lat="46.1237690" lon="10.5020410">
	<ele>2137.40</ele>
	<time>2024-07-25T10:18:30.000Z</time>
</trkpt>
<trkpt lat="46.1237690" lon="10.5020410">
	<ele>2137.40</ele>
	<time>2024-07-25T10:18:31.000Z</time>
</trkpt>
<trkpt lat="46.1237690" lon="10.5020410">
	<ele>2137.40</ele>
	<time>2024-07-25T10:18:32.000Z</time>
</trkpt>
<trkpt lat="46.1237680" lon="10.5020410">
	<ele>2137.40</ele>
	<time>2024-07-25T10:18:33.000Z</time>
</trkpt>
<trkpt lat="46.1237690" lon="10.5020410">
	<ele>2137.40</ele>
	<time>2024-07-25T10:18:34.000Z</time>
</trkpt>
<trkpt lat="46.1237690" lon="10.5020410">
	<ele>2137.40</ele>
	<time>2024-07-25T10:18:35.000Z</time>
</trkpt>
<trkpt lat="46.1237690" lon="10.5020410">
	<ele>2137.40</ele>
	<time>2024-07-25T10:18:36.000Z</time>
</trkpt>
<trkpt lat="46.1237690" lon="10.5020410">
	<ele>2137.40</ele>
	<time>2024-07-25T10:18:37.000Z</time>
</trkpt>
<trkpt lat="46.1237690" lon="10.5020410">
	<ele>2137.40</ele>
	<time>2024-07-25T10:18:38.000Z</time>
</trkpt>
<trkpt lat="46.1237690" lon="10.5020410">
	<ele>2137.40</ele>
	<time>2024-07-25T10:18:39.000Z</time>
</trkpt>
<trkpt lat="46.1237690" lon="10.5020400">
	<ele>2137.40</ele>
	<time>2024-07-25T10:18:40.000Z</time>
</trkpt>
<trkpt lat="46.1237690" lon="10.5020400">
	<ele>2137.40</ele>
	<time>2024-07-25T10:18:41.000Z</time>
</trkpt>
<trkpt lat="46.1237690" lon="10.5020400">
	<ele>2137.40</ele>
	<time>2024-07-25T10:18:42.000Z</time>
</trkpt>
<trkpt lat="46.1237690" lon="10.5020400">
	<ele>2137.40</ele>
	<time>2024-07-25T10:18:43.000Z</time>
</trkpt>
<trkpt lat="46.1237690" lon="10.5020400">
	<ele>2137.40</ele>
	<time>2024-07-25T10:18:44.000Z</time>
</trkpt>
<trkpt lat="46.1237690" lon="10.5020400">
	<ele>2137.40</ele>
	<time>2024-07-25T10:18:45.000Z</time>
</trkpt>
<trkpt lat="46.1237690" lon="10.5020400">
	<ele>2137.40</ele>
	<time>2024-07-25T10:18:46.000Z</time>
</trkpt>
<trkpt lat="46.1237690" lon="10.5020400">
	<ele>2137.40</ele>
	<time>2024-07-25T10:18:47.000Z</time>
</trkpt>
<trkpt lat="46.1237690" lon="10.5020400">
	<ele>2137.40</ele>
	<time>2024-07-25T10:18:48.000Z</time>
</trkpt>
<trkpt lat="46.1237690" lon="10.5020400">
	<ele>2137.40</ele>
	<time>2024-07-25T10:18:49.000Z</time>
</trkpt>
<trkpt lat="46.1237690" lon="10.5020390">
	<ele>2137.40</ele>
	<time>2024-07-25T10:18:50.000Z</time>
</trkpt>
<trkpt lat="46.1237690" lon="10.5020390">
	<ele>2137.40</ele>
	<time>2024-07-25T10:18:51.000Z</time>
</trkpt>
<trkpt lat="46.1237690" lon="10.5020390">
	<ele>2137.40</ele>
	<time>2024-07-25T10:18:52.000Z</time>
</trkpt>
<trkpt lat="46.1237690" lon="10.5020390">
	<ele>2137.40</ele>
	<time>2024-07-25T10:18:53.000Z</time>
</trkpt>
<trkpt lat="46.1237690" lon="10.5020390">
	<ele>2137.40</ele>
	<time>2024-07-25T10:18:54.000Z</time>
</trkpt>
<trkpt lat="46.1237690" lon="10.5020390">
	<ele>2137.40</ele>
	<time>2024-07-25T10:18:55.000Z</time>
</trkpt>
<trkpt lat="46.1237690" lon="10.5020390">
	<ele>2137.40</ele>
	<time>2024-07-25T10:18:56.000Z</time>
</trkpt>
<trkpt lat="46.1237690" lon="10.5020390">
	<ele>2137.40</ele>
	<time>2024-07-25T10:18:57.000Z</time>
</trkpt>
<trkpt lat="46.1237690" lon="10.5020390">
	<ele>2137.40</ele>
	<time>2024-07-25T10:18:58.000Z</time>
</trkpt>
<trkpt lat="46.1237690" lon="10.5020390">
	<ele>2137.40</ele>
	<time>2024-07-25T10:18:59.000Z</time>
</trkpt>
<trkpt lat="46.1237690" lon="10.5020390">
	<ele>2137.40</ele>
	<time>2024-07-25T10:19:00.000Z</time>
</trkpt>
<trkpt lat="46.1237690" lon="10.5020390">
	<ele>2137.40</ele>
	<time>2024-07-25T10:19:01.000Z</time>
</trkpt>
<trkpt lat="46.1237690" lon="10.5020390">
	<ele>2137.40</ele>
	<time>2024-07-25T10:19:02.000Z</time>
</trkpt>
<trkpt lat="46.1237690" lon="10.5020390">
	<ele>2137.40</ele>
	<time>2024-07-25T10:19:03.000Z</time>
</trkpt>
<trkpt lat="46.1237690" lon="10.5020390">
	<ele>2137.40</ele>
	<time>2024-07-25T10:19:04.000Z</time>
</trkpt>
<trkpt lat="46.1237690" lon="10.5020390">
	<ele>2137.40</ele>
	<time>2024-07-25T10:19:05.000Z</time>
</trkpt>
<trkpt lat="46.1237690" lon="10.5020390">
	<ele>2137.40</ele>
	<time>2024-07-25T10:19:06.000Z</time>
</trkpt>
<trkpt lat="46.1237690" lon="10.5020380">
	<ele>2137.40</ele>
	<time>2024-07-25T10:19:07.000Z</time>
</trkpt>
<trkpt lat="46.1237690" lon="10.5020380">
	<ele>2137.40</ele>
	<time>2024-07-25T10:19:08.000Z</time>
</trkpt>
<trkpt lat="46.1237690" lon="10.5020380">
	<ele>2137.40</ele>
	<time>2024-07-25T10:19:09.000Z</time>
</trkpt>
<trkpt lat="46.1237690" lon="10.5020380">
	<ele>2137.40</ele>
	<time>2024-07-25T10:19:10.000Z</time>
</trkpt>
<trkpt lat="46.1237690" lon="10.5020380">
	<ele>2137.40</ele>
	<time>2024-07-25T10:19:11.000Z</time>
</trkpt>
<trkpt lat="46.1237690" lon="10.5020380">
	<ele>2137.40</ele>
	<time>2024-07-25T10:19:12.000Z</time>
</trkpt>
<trkpt lat="46.1237690" lon="10.5020380">
	<ele>2137.40</ele>
	<time>2024-07-25T10:19:13.000Z</time>
</trkpt>
<trkpt lat="46.1237690" lon="10.5020380">
	<ele>2137.40</ele>
	<time>2024-07-25T10:19:14.000Z</time>
</trkpt>
<trkpt lat="46.1237690" lon="10.5020380">
	<ele>2137.40</ele>
	<time>2024-07-25T10:19:15.000Z</time>
</trkpt>
<trkpt lat="46.1237690" lon="10.5020380">
	<ele>2137.40</ele>
	<time>2024-07-25T10:19:16.000Z</time>
</trkpt>
<trkpt lat="46.1237690" lon="10.5020380">
	<ele>2137.40</ele>
	<time>2024-07-25T10:19:17.000Z</time>
</trkpt>
<trkpt lat="46.1237690" lon="10.5020380">
	<ele>2137.40</ele>
	<time>2024-07-25T10:19:18.000Z</time>
</trkpt>
<trkpt lat="46.1237690" lon="10.5020380">
	<ele>2137.40</ele>
	<time>2024-07-25T10:19:19.000Z</time>
</trkpt>
<trkpt lat="46.1237690" lon="10.5020380">
	<ele>2137.40</ele>
	<time>2024-07-25T10:19:20.000Z</time>
</trkpt>
<trkpt lat="46.1237690" lon="10.5020380">
	<ele>2137.40</ele>
	<time>2024-07-25T10:19:21.000Z</time>
</trkpt>
<trkpt lat="46.1237690" lon="10.5020380">
	<ele>2137.40</ele>
	<time>2024-07-25T10:19:22.000Z</time>
</trkpt>
<trkpt lat="46.1237700" lon="10.5020380">
	<ele>2137.40</ele>
	<time>2024-07-25T10:19:23.000Z</time>
</trkpt>
<trkpt lat="46.1237700" lon="10.5020380">
	<ele>2137.40</ele>
	<time>2024-07-25T10:19:24.000Z</time>
</trkpt>
<trkpt lat="46.1237700" lon="10.5020380">
	<ele>2137.40</ele>
	<time>2024-07-25T10:19:25.000Z</time>
</trkpt>
<trkpt lat="46.1237700" lon="10.5020380">
	<ele>2137.40</ele>
	<time>2024-07-25T10:19:26.000Z</time>
</trkpt>
<trkpt lat="46.1237700" lon="10.5020380">
	<ele>2137.40</ele>
	<time>2024-07-25T10:19:27.000Z</time>
</trkpt>
<trkpt lat="46.1237700" lon="10.5020380">
	<ele>2137.40</ele>
	<time>2024-07-25T10:19:28.000Z</time>
</trkpt>
<trkpt lat="46.1237700" lon="10.5020370">
	<ele>2137.40</ele>
	<time>2024-07-25T10:19:29.000Z</time>
</trkpt>
<trkpt lat="46.1237700" lon="10.5020370">
	<ele>2137.40</ele>
	<time>2024-07-25T10:19:30.000Z</time>
</trkpt>
<trkpt lat="46.1237700" lon="10.5020370">
	<ele>2137.40</ele>
	<time>2024-07-25T10:19:31.000Z</time>
</trkpt>
<trkpt lat="46.1237700" lon="10.5020370">
	<ele>2137.40</ele>
	<time>2024-07-25T10:19:32.000Z</time>
</trkpt>
<trkpt lat="46.1237700" lon="10.5020370">
	<ele>2137.40</ele>
	<time>2024-07-25T10:19:33.000Z</time>
</trkpt>
<trkpt lat="46.1237700" lon="10.5020370">
	<ele>2137.40</ele>
	<time>2024-07-25T10:19:34.000Z</time>
</trkpt>
<trkpt lat="46.1237700" lon="10.5020370">
	<ele>2137.40</ele>
	<time>2024-07-25T10:19:35.000Z</time>
</trkpt>
<trkpt lat="46.1237700" lon="10.5020370">
	<ele>2137.40</ele>
	<time>2024-07-25T10:19:36.000Z</time>
</trkpt>
<trkpt lat="46.1237700" lon="10.5020370">
	<ele>2137.40</ele>
	<time>2024-07-25T10:19:37.000Z</time>
</trkpt>
<trkpt lat="46.1237700" lon="10.5020370">
	<ele>2137.40</ele>
	<time>2024-07-25T10:19:38.000Z</time>
</trkpt>
<trkpt lat="46.1237710" lon="10.5020370">
	<ele>2137.40</ele>
	<time>2024-07-25T10:19:39.000Z</time>
</trkpt>
<trkpt lat="46.1237710" lon="10.5020370">
	<ele>2137.40</ele>
	<time>2024-07-25T10:19:40.000Z</time>
</trkpt>
<trkpt lat="46.1237710" lon="10.5020370">
	<ele>2137.40</ele>
	<time>2024-07-25T10:19:41.000Z</time>
</trkpt>
<trkpt lat="46.1237710" lon="10.5020370">
	<ele>2137.40</ele>
	<time>2024-07-25T10:19:42.000Z</time>
</trkpt>
<trkpt lat="46.1237710" lon="10.5020370">
	<ele>2137.40</ele>
	<time>2024-07-25T10:19:43.000Z</time>
</trkpt>
<trkpt lat="46.1237710" lon="10.5020370">
	<ele>2137.40</ele>
	<time>2024-07-25T10:19:44.000Z</time>
</trkpt>
<trkpt lat="46.1237710" lon="10.5020370">
	<ele>2137.40</ele>
	<time>2024-07-25T10:19:45.000Z</time>
</trkpt>
<trkpt lat="46.1237710" lon="10.5020370">
	<ele>2137.40</ele>
	<time>2024-07-25T10:19:46.000Z</time>
</trkpt>
<trkpt lat="46.1237710" lon="10.5020370">
	<ele>2137.40</ele>
	<time>2024-07-25T10:19:47.000Z</time>
</trkpt>
<trkpt lat="46.1237710" lon="10.5020370">
	<ele>2137.40</ele>
	<time>2024-07-25T10:19:48.000Z</time>
</trkpt>
<trkpt lat="46.1237710" lon="10.5020370">
	<ele>2137.40</ele>
	<time>2024-07-25T10:19:49.000Z</time>
</trkpt>
<trkpt lat="46.1237710" lon="10.5020370">
	<ele>2137.40</ele>
	<time>2024-07-25T10:19:50.000Z</time>
</trkpt>
<trkpt lat="46.1237710" lon="10.5020370">
	<ele>2137.40</ele>
	<time>2024-07-25T10:19:51.000Z</time>
</trkpt>
<trkpt lat="46.1237710" lon="10.5020360">
	<ele>2137.40</ele>
	<time>2024-07-25T10:19:52.000Z</time>
</trkpt>
<trkpt lat="46.1237710" lon="10.5020370">
	<ele>2137.40</ele>
	<time>2024-07-25T10:19:53.000Z</time>
</trkpt>
<trkpt lat="46.1237710" lon="10.5020370">
	<ele>2137.40</ele>
	<time>2024-07-25T10:19:54.000Z</time>
</trkpt>
<trkpt lat="46.1237710" lon="10.5020370">
	<ele>2137.40</ele>
	<time>2024-07-25T10:19:55.000Z</time>
</trkpt>
<trkpt lat="46.1237710" lon="10.5020370">
	<ele>2137.40</ele>
	<time>2024-07-25T10:19:56.000Z</time>
</trkpt>
<trkpt lat="46.1237710" lon="10.5020370">
	<ele>2137.40</ele>
	<time>2024-07-25T10:19:57.000Z</time>
</trkpt>
<trkpt lat="46.1237710" lon="10.5020370">
	<ele>2137.40</ele>
	<time>2024-07-25T10:19:58.000Z</time>
</trkpt>
<trkpt lat="46.1237710" lon="10.5020370">
	<ele>2137.40</ele>
	<time>2024-07-25T10:19:59.000Z</time>
</trkpt>
<trkpt lat="46.1237710" lon="10.5020370">
	<ele>2137.40</ele>
	<time>2024-07-25T10:20:00.000Z</time>
</trkpt>
<trkpt lat="46.1237710" lon="10.5020370">
	<ele>2137.40</ele>
	<time>2024-07-25T10:20:01.000Z</time>
</trkpt>
<trkpt lat="46.1237710" lon="10.5020370">
	<ele>2137.40</ele>
	<time>2024-07-25T10:20:02.000Z</time>
</trkpt>
<trkpt lat="46.1237710" lon="10.5020370">
	<ele>2137.40</ele>
	<time>2024-07-25T10:20:03.000Z</time>
</trkpt>
<trkpt lat="46.1237710" lon="10.5020370">
	<ele>2137.40</ele>
	<time>2024-07-25T10:20:04.000Z</time>
</trkpt>
<trkpt lat="46.1237710" lon="10.5020370">
	<ele>2137.40</ele>
	<time>2024-07-25T10:20:05.000Z</time>
</trkpt>
<trkpt lat="46.1237710" lon="10.5020370">
	<ele>2137.40</ele>
	<time>2024-07-25T10:20:06.000Z</time>
</trkpt>
<trkpt lat="46.1237710" lon="10.5020370">
	<ele>2137.40</ele>
	<time>2024-07-25T10:20:07.000Z</time>
</trkpt>
<trkpt lat="46.1237710" lon="10.5020370">
	<ele>2137.40</ele>
	<time>2024-07-25T10:20:08.000Z</time>
</trkpt>
<trkpt lat="46.1237710" lon="10.5020370">
	<ele>2137.40</ele>
	<time>2024-07-25T10:20:09.000Z</time>
</trkpt>
<trkpt lat="46.1237710" lon="10.5020370">
	<ele>2137.40</ele>
	<time>2024-07-25T10:20:10.000Z</time>
</trkpt>
<trkpt lat="46.1237710" lon="10.5020370">
	<ele>2137.40</ele>
	<time>2024-07-25T10:20:11.000Z</time>
</trkpt>
<trkpt lat="46.1237710" lon="10.5020370">
	<ele>2137.40</ele>
	<time>2024-07-25T10:20:12.000Z</time>
</trkpt>
<trkpt lat="46.1237710" lon="10.5020370">
	<ele>2137.40</ele>
	<time>2024-07-25T10:20:13.000Z</time>
</trkpt>
<trkpt lat="46.1237710" lon="10.5020370">
	<ele>2137.40</ele>
	<time>2024-07-25T10:20:14.000Z</time>
</trkpt>
<trkpt lat="46.1237710" lon="10.5020370">
	<ele>2137.40</ele>
	<time>2024-07-25T10:20:15.000Z</time>
</trkpt>
<trkpt lat="46.1237710" lon="10.5020370">
	<ele>2137.40</ele>
	<time>2024-07-25T10:20:16.000Z</time>
</trkpt>
<trkpt lat="46.1237710" lon="10.5020370">
	<ele>2137.40</ele>
	<time>2024-07-25T10:20:17.000Z</time>
</trkpt>
<trkpt lat="46.1237720" lon="10.5020400">
	<ele>2137.40</ele>
	<time>2024-07-25T10:20:18.000Z</time>
</trkpt>
<trkpt lat="46.1237720" lon="10.5020440">
	<ele>2137.40</ele>
	<time>2024-07-25T10:20:19.000Z</time>
</trkpt>
<trkpt lat="46.1237720" lon="10.5020480">
	<ele>2137.40</ele>
	<time>2024-07-25T10:20:20.000Z</time>
</trkpt>
<trkpt lat="46.1237730" lon="10.5020500">
	<ele>2137.40</ele>
	<time>2024-07-25T10:20:21.000Z</time>
</trkpt>
<trkpt lat="46.1237730" lon="10.5020500">
	<ele>2137.40</ele>
	<time>2024-07-25T10:20:22.000Z</time>
</trkpt>
<trkpt lat="46.1237730" lon="10.5020500">
	<ele>2137.40</ele>
	<time>2024-07-25T10:20:23.000Z</time>
</trkpt>
<trkpt lat="46.1237730" lon="10.5020500">
	<ele>2137.40</ele>
	<time>2024-07-25T10:20:24.000Z</time>
</trkpt>
<trkpt lat="46.1237730" lon="10.5020500">
	<ele>2137.40</ele>
	<time>2024-07-25T10:20:25.000Z</time>
</trkpt>
<trkpt lat="46.1237730" lon="10.5020500">
	<ele>2137.40</ele>
	<time>2024-07-25T10:20:26.000Z</time>
</trkpt>
<trkpt lat="46.1237730" lon="10.5020500">
	<ele>2137.40</ele>
	<time>2024-07-25T10:20:27.000Z</time>
</trkpt>
<trkpt lat="46.1237770" lon="10.5020500">
	<ele>2137.40</ele>
	<time>2024-07-25T10:20:28.000Z</time>
</trkpt>
<trkpt lat="46.1237780" lon="10.5020500">
	<ele>2137.40</ele>
	<time>2024-07-25T10:20:29.000Z</time>
</trkpt>
<trkpt lat="46.1237780" lon="10.5020500">
	<ele>2137.40</ele>
	<time>2024-07-25T10:20:30.000Z</time>
</trkpt>
<trkpt lat="46.1237780" lon="10.5020500">
	<ele>2137.40</ele>
	<time>2024-07-25T10:20:31.000Z</time>
</trkpt>
<trkpt lat="46.1237790" lon="10.5020500">
	<ele>2137.40</ele>
	<time>2024-07-25T10:20:32.000Z</time>
</trkpt>
<trkpt lat="46.1237800" lon="10.5020510">
	<ele>2137.40</ele>
	<time>2024-07-25T10:20:33.000Z</time>
</trkpt>
<trkpt lat="46.1237810" lon="10.5020520">
	<ele>2137.40</ele>
	<time>2024-07-25T10:20:34.000Z</time>
</trkpt>
<trkpt lat="46.1237820" lon="10.5020520">
	<ele>2137.40</ele>
	<time>2024-07-25T10:20:35.000Z</time>
</trkpt>
<trkpt lat="46.1237830" lon="10.5020520">
	<ele>2137.40</ele>
	<time>2024-07-25T10:20:36.000Z</time>
</trkpt>
<trkpt lat="46.1237830" lon="10.5020520">
	<ele>2137.40</ele>
	<time>2024-07-25T10:20:37.000Z</time>
</trkpt>
<trkpt lat="46.1237830" lon="10.5020520">
	<ele>2137.40</ele>
	<time>2024-07-25T10:20:38.000Z</time>
</trkpt>
<trkpt lat="46.1237840" lon="10.5020520">
	<ele>2137.40</ele>
	<time>2024-07-25T10:20:39.000Z</time>
</trkpt>
<trkpt lat="46.1237850" lon="10.5020520">
	<ele>2137.40</ele>
	<time>2024-07-25T10:20:40.000Z</time>
</trkpt>
<trkpt lat="46.1237850" lon="10.5020520">
	<ele>2137.40</ele>
	<time>2024-07-25T10:20:41.000Z</time>
</trkpt>
<trkpt lat="46.1237850" lon="10.5020520">
	<ele>2137.40</ele>
	<time>2024-07-25T10:20:42.000Z</time>
</trkpt>
<trkpt lat="46.1237850" lon="10.5020520">
	<ele>2137.40</ele>
	<time>2024-07-25T10:20:43.000Z</time>
</trkpt>
<trkpt lat="46.1237860" lon="10.5020520">
	<ele>2137.40</ele>
	<time>2024-07-25T10:20:44.000Z</time>
</trkpt>
<trkpt lat="46.1237860" lon="10.5020520">
	<ele>2137.40</ele>
	<time>2024-07-25T10:20:45.000Z</time>
</trkpt>
<trkpt lat="46.1237860" lon="10.5020520">
	<ele>2137.40</ele>
	<time>2024-07-25T10:20:46.000Z</time>
</trkpt>
<trkpt lat="46.1237860" lon="10.5020520">
	<ele>2137.40</ele>
	<time>2024-07-25T10:20:47.000Z</time>
</trkpt>
<trkpt lat="46.1237860" lon="10.5020510">
	<ele>2137.40</ele>
	<time>2024-07-25T10:20:48.000Z</time>
</trkpt>
<trkpt lat="46.1237860" lon="10.5020510">
	<ele>2137.40</ele>
	<time>2024-07-25T10:20:49.000Z</time>
</trkpt>
<trkpt lat="46.1237860" lon="10.5020510">
	<ele>2137.40</ele>
	<time>2024-07-25T10:20:50.000Z</time>
</trkpt>
<trkpt lat="46.1237860" lon="10.5020500">
	<ele>2137.40</ele>
	<time>2024-07-25T10:20:51.000Z</time>
</trkpt>
<trkpt lat="46.1237860" lon="10.5020500">
	<ele>2137.40</ele>
	<time>2024-07-25T10:20:52.000Z</time>
</trkpt>
<trkpt lat="46.1237860" lon="10.5020500">
	<ele>2137.40</ele>
	<time>2024-07-25T10:20:53.000Z</time>
</trkpt>
<trkpt lat="46.1237860" lon="10.5020500">
	<ele>2137.40</ele>
	<time>2024-07-25T10:20:54.000Z</time>
</trkpt>
<trkpt lat="46.1237870" lon="10.5020500">
	<ele>2137.40</ele>
	<time>2024-07-25T10:20:55.000Z</time>
</trkpt>
<trkpt lat="46.1237880" lon="10.5020500">
	<ele>2137.40</ele>
	<time>2024-07-25T10:20:56.000Z</time>
</trkpt>
<trkpt lat="46.1237880" lon="10.5020500">
	<ele>2137.40</ele>
	<time>2024-07-25T10:20:57.000Z</time>
</trkpt>
<trkpt lat="46.1237880" lon="10.5020500">
	<ele>2137.40</ele>
	<time>2024-07-25T10:20:58.000Z</time>
</trkpt>
<trkpt lat="46.1237880" lon="10.5020500">
	<ele>2137.40</ele>
	<time>2024-07-25T10:20:59.000Z</time>
</trkpt>
<trkpt lat="46.1237880" lon="10.5020500">
	<ele>2137.40</ele>
	<time>2024-07-25T10:21:00.000Z</time>
</trkpt>
<trkpt lat="46.1237880" lon="10.5020500">
	<ele>2137.40</ele>
	<time>2024-07-25T10:21:01.000Z</time>
</trkpt>
<trkpt lat="46.1237880" lon="10.5020500">
	<ele>2137.40</ele>
	<time>2024-07-25T10:21:02.000Z</time>
</trkpt>
<trkpt lat="46.1237880" lon="10.5020490">
	<ele>2137.40</ele>
	<time>2024-07-25T10:21:03.000Z</time>
</trkpt>
<trkpt lat="46.1237880" lon="10.5020490">
	<ele>2137.40</ele>
	<time>2024-07-25T10:21:04.000Z</time>
</trkpt>
<trkpt lat="46.1237880" lon="10.5020480">
	<ele>2137.40</ele>
	<time>2024-07-25T10:21:05.000Z</time>
</trkpt>
<trkpt lat="46.1237880" lon="10.5020480">
	<ele>2137.40</ele>
	<time>2024-07-25T10:21:06.000Z</time>
</trkpt>
<trkpt lat="46.1237880" lon="10.5020480">
	<ele>2137.40</ele>
	<time>2024-07-25T10:21:07.000Z</time>
</trkpt>
<trkpt lat="46.1237880" lon="10.5020480">
	<ele>2137.40</ele>
	<time>2024-07-25T10:21:08.000Z</time>
</trkpt>
<trkpt lat="46.1237880" lon="10.5020480">
	<ele>2137.40</ele>
	<time>2024-07-25T10:21:09.000Z</time>
</trkpt>
<trkpt lat="46.1237880" lon="10.5020480">
	<ele>2137.40</ele>
	<time>2024-07-25T10:21:10.000Z</time>
</trkpt>
<trkpt lat="46.1237870" lon="10.5020500">
	<ele>2137.40</ele>
	<time>2024-07-25T10:21:11.000Z</time>
</trkpt>
<trkpt lat="46.1237850" lon="10.5020560">
	<ele>2137.40</ele>
	<time>2024-07-25T10:21:12.000Z</time>
</trkpt>
<trkpt lat="46.1237840" lon="10.5020580">
	<ele>2137.40</ele>
	<time>2024-07-25T10:21:13.000Z</time>
</trkpt>
<trkpt lat="46.1237850" lon="10.5020600">
	<ele>2137.40</ele>
	<time>2024-07-25T10:21:14.000Z</time>
</trkpt>
<trkpt lat="46.1237850" lon="10.5020600">
	<ele>2137.40</ele>
	<time>2024-07-25T10:21:15.000Z</time>
</trkpt>
<trkpt lat="46.1237850" lon="10.5020600">
	<ele>2137.40</ele>
	<time>2024-07-25T10:21:16.000Z</time>
</trkpt>
<trkpt lat="46.1237850" lon="10.5020600">
	<ele>2137.40</ele>
	<time>2024-07-25T10:21:17.000Z</time>
</trkpt>
<trkpt lat="46.1237850" lon="10.5020600">
	<ele>2137.40</ele>
	<time>2024-07-25T10:21:18.000Z</time>
</trkpt>
<trkpt lat="46.1237850" lon="10.5020600">
	<ele>2137.40</ele>
	<time>2024-07-25T10:21:19.000Z</time>
</trkpt>
<trkpt lat="46.1237850" lon="10.5020600">
	<ele>2137.40</ele>
	<time>2024-07-25T10:21:20.000Z</time>
</trkpt>
<trkpt lat="46.1237850" lon="10.5020600">
	<ele>2137.40</ele>
	<time>2024-07-25T10:21:21.000Z</time>
</trkpt>
<trkpt lat="46.1237850" lon="10.5020600">
	<ele>2137.40</ele>
	<time>2024-07-25T10:21:22.000Z</time>
</trkpt>
<trkpt lat="46.1237850" lon="10.5020600">
	<ele>2137.40</ele>
	<time>2024-07-25T10:21:23.000Z</time>
</trkpt>
<trkpt lat="46.1237850" lon="10.5020600">
	<ele>2137.40</ele>
	<time>2024-07-25T10:21:24.000Z</time>
</trkpt>
<trkpt lat="46.1237850" lon="10.5020600">
	<ele>2137.40</ele>
	<time>2024-07-25T10:21:25.000Z</time>
</trkpt>
<trkpt lat="46.1237830" lon="10.5020660">
	<ele>2137.40</ele>
	<time>2024-07-25T10:21:26.000Z</time>
</trkpt>
<trkpt lat="46.1237820" lon="10.5020700">
	<ele>2137.40</ele>
	<time>2024-07-25T10:21:27.000Z</time>
</trkpt>
<trkpt lat="46.1237820" lon="10.5020700">
	<ele>2137.40</ele>
	<time>2024-07-25T10:21:28.000Z</time>
</trkpt>
<trkpt lat="46.1237820" lon="10.5020710">
	<ele>2137.40</ele>
	<time>2024-07-25T10:21:29.000Z</time>
</trkpt>
<trkpt lat="46.1237820" lon="10.5020710">
	<ele>2137.40</ele>
	<time>2024-07-25T10:21:30.000Z</time>
</trkpt>
<trkpt lat="46.1237830" lon="10.5020720">
	<ele>2137.40</ele>
	<time>2024-07-25T10:21:31.000Z</time>
</trkpt>
<trkpt lat="46.1237810" lon="10.5020740">
	<ele>2137.40</ele>
	<time>2024-07-25T10:21:32.000Z</time>
</trkpt>
<trkpt lat="46.1237810" lon="10.5020720">
	<ele>2137.40</ele>
	<time>2024-07-25T10:21:33.000Z</time>
</trkpt>
<trkpt lat="46.1237810" lon="10.5020740">
	<ele>2137.40</ele>
	<time>2024-07-25T10:21:34.000Z</time>
</trkpt>
<trkpt lat="46.1237810" lon="10.5020760">
	<ele>2137.40</ele>
	<time>2024-07-25T10:21:35.000Z</time>
</trkpt>
<trkpt lat="46.1237810" lon="10.5020780">
	<ele>2137.40</ele>
	<time>2024-07-25T10:21:36.000Z</time>
</trkpt>
<trkpt lat="46.1237810" lon="10.5020810">
	<ele>2137.40</ele>
	<time>2024-07-25T10:21:37.000Z</time>
</trkpt>
<trkpt lat="46.1237820" lon="10.5020820">
	<ele>2137.40</ele>
	<time>2024-07-25T10:21:38.000Z</time>
</trkpt>
<trkpt lat="46.1237820" lon="10.5020820">
	<ele>2137.40</ele>
	<time>2024-07-25T10:21:39.000Z</time>
</trkpt>
<trkpt lat="46.1237860" lon="10.5020830">
	<ele>2137.40</ele>
	<time>2024-07-25T10:21:40.000Z</time>
</trkpt>
<trkpt lat="46.1237850" lon="10.5020850">
	<ele>2137.40</ele>
	<time>2024-07-25T10:21:41.000Z</time>
</trkpt>
<trkpt lat="46.1237850" lon="10.5020850">
	<ele>2137.40</ele>
	<time>2024-07-25T10:21:42.000Z</time>
</trkpt>
<trkpt lat="46.1237850" lon="10.5020850">
	<ele>2137.40</ele>
	<time>2024-07-25T10:21:43.000Z</time>
</trkpt>
<trkpt lat="46.1237850" lon="10.5020850">
	<ele>2137.40</ele>
	<time>2024-07-25T10:21:44.000Z</time>
</trkpt>
<trkpt lat="46.1237850" lon="10.5020850">
	<ele>2137.40</ele>
	<time>2024-07-25T10:21:45.000Z</time>
</trkpt>
<trkpt lat="46.1237850" lon="10.5020850">
	<ele>2137.40</ele>
	<time>2024-07-25T10:21:46.000Z</time>
</trkpt>
<trkpt lat="46.1237850" lon="10.5020850">
	<ele>2137.40</ele>
	<time>2024-07-25T10:21:47.000Z</time>
</trkpt>
<trkpt lat="46.1237850" lon="10.5020850">
	<ele>2137.40</ele>
	<time>2024-07-25T10:21:48.000Z</time>
</trkpt>
<trkpt lat="46.1237850" lon="10.5020850">
	<ele>2137.40</ele>
	<time>2024-07-25T10:21:49.000Z</time>
</trkpt>
<trkpt lat="46.1237850" lon="10.5020850">
	<ele>2137.40</ele>
	<time>2024-07-25T10:21:50.000Z</time>
</trkpt>
<trkpt lat="46.1237850" lon="10.5020840">
	<ele>2137.40</ele>
	<time>2024-07-25T10:21:51.000Z</time>
</trkpt>
<trkpt lat="46.1237850" lon="10.5020830">
	<ele>2137.40</ele>
	<time>2024-07-25T10:21:52.000Z</time>
</trkpt>
<trkpt lat="46.1237850" lon="10.5020830">
	<ele>2137.40</ele>
	<time>2024-07-25T10:21:53.000Z</time>
</trkpt>
<trkpt lat="46.1237850" lon="10.5020830">
	<ele>2137.40</ele>
	<time>2024-07-25T10:21:54.000Z</time>
</trkpt>
<trkpt lat="46.1237850" lon="10.5020810">
	<ele>2137.40</ele>
	<time>2024-07-25T10:21:55.000Z</time>
</trkpt>
<trkpt lat="46.1237850" lon="10.5020800">
	<ele>2137.40</ele>
	<time>2024-07-25T10:21:56.000Z</time>
</trkpt>
<trkpt lat="46.1237850" lon="10.5020800">
	<ele>2137.40</ele>
	<time>2024-07-25T10:21:57.000Z</time>
</trkpt>
<trkpt lat="46.1237860" lon="10.5020800">
	<ele>2137.40</ele>
	<time>2024-07-25T10:21:58.000Z</time>
</trkpt>
<trkpt lat="46.1237870" lon="10.5020800">
	<ele>2137.40</ele>
	<time>2024-07-25T10:21:59.000Z</time>
</trkpt>
<trkpt lat="46.1237870" lon="10.5020800">
	<ele>2137.40</ele>
	<time>2024-07-25T10:22:00.000Z</time>
</trkpt>
<trkpt lat="46.1237880" lon="10.5020800">
	<ele>2137.40</ele>
	<time>2024-07-25T10:22:01.000Z</time>
</trkpt>
<trkpt lat="46.1237880" lon="10.5020800">
	<ele>2137.40</ele>
	<time>2024-07-25T10:22:02.000Z</time>
</trkpt>
<trkpt lat="46.1237880" lon="10.5020800">
	<ele>2137.40</ele>
	<time>2024-07-25T10:22:03.000Z</time>
</trkpt>
<trkpt lat="46.1237880" lon="10.5020810">
	<ele>2137.40</ele>
	<time>2024-07-25T10:22:04.000Z</time>
</trkpt>
<trkpt lat="46.1237880" lon="10.5020830">
	<ele>2137.40</ele>
	<time>2024-07-25T10:22:05.000Z</time>
</trkpt>
<trkpt lat="46.1237890" lon="10.5020830">
	<ele>2137.40</ele>
	<time>2024-07-25T10:22:06.000Z</time>
</trkpt>
<trkpt lat="46.1237890" lon="10.5020830">
	<ele>2137.40</ele>
	<time>2024-07-25T10:22:07.000Z</time>
</trkpt>
<trkpt lat="46.1237890" lon="10.5020830">
	<ele>2137.40</ele>
	<time>2024-07-25T10:22:08.000Z</time>
</trkpt>
<trkpt lat="46.1237890" lon="10.5020810">
	<ele>2137.40</ele>
	<time>2024-07-25T10:22:09.000Z</time>
</trkpt>
<trkpt lat="46.1237890" lon="10.5020810">
	<ele>2137.40</ele>
	<time>2024-07-25T10:22:10.000Z</time>
</trkpt>
<trkpt lat="46.1237890" lon="10.5020800">
	<ele>2137.40</ele>
	<time>2024-07-25T10:22:11.000Z</time>
</trkpt>
<trkpt lat="46.1237890" lon="10.5020790">
	<ele>2137.40</ele>
	<time>2024-07-25T10:22:12.000Z</time>
</trkpt>
<trkpt lat="46.1237900" lon="10.5020780">
	<ele>2137.40</ele>
	<time>2024-07-25T10:22:13.000Z</time>
</trkpt>
<trkpt lat="46.1237900" lon="10.5020780">
	<ele>2137.40</ele>
	<time>2024-07-25T10:22:14.000Z</time>
</trkpt>
<trkpt lat="46.1237900" lon="10.5020780">
	<ele>2137.40</ele>
	<time>2024-07-25T10:22:15.000Z</time>
</trkpt>
<trkpt lat="46.1237900" lon="10.5020780">
	<ele>2137.40</ele>
	<time>2024-07-25T10:22:16.000Z</time>
</trkpt>
<trkpt lat="46.1237900" lon="10.5020780">
	<ele>2137.40</ele>
	<time>2024-07-25T10:22:17.000Z</time>
</trkpt>
<trkpt lat="46.1237900" lon="10.5020780">
	<ele>2137.40</ele>
	<time>2024-07-25T10:22:18.000Z</time>
</trkpt>
<trkpt lat="46.1237900" lon="10.5020780">
	<ele>2137.40</ele>
	<time>2024-07-25T10:22:19.000Z</time>
</trkpt>
<trkpt lat="46.1237900" lon="10.5020780">
	<ele>2137.40</ele>
	<time>2024-07-25T10:22:20.000Z</time>
</trkpt>
<trkpt lat="46.1237900" lon="10.5020780">
	<ele>2137.40</ele>
	<time>2024-07-25T10:22:21.000Z</time>
</trkpt>
<trkpt lat="46.1237900" lon="10.5020780">
	<ele>2137.40</ele>
	<time>2024-07-25T10:22:22.000Z</time>
</trkpt>
<trkpt lat="46.1237900" lon="10.5020780">
	<ele>2137.40</ele>
	<time>2024-07-25T10:22:23.000Z</time>
</trkpt>
<trkpt lat="46.1237900" lon="10.5020780">
	<ele>2137.40</ele>
	<time>2024-07-25T10:22:24.000Z</time>
</trkpt>
<trkpt lat="46.1237900" lon="10.5020790">
	<ele>2137.40</ele>
	<time>2024-07-25T10:22:25.000Z</time>
</trkpt>
<trkpt lat="46.1237910" lon="10.5020790">
	<ele>2137.40</ele>
	<time>2024-07-25T10:22:26.000Z</time>
</trkpt>
<trkpt lat="46.1237910" lon="10.5020790">
	<ele>2137.40</ele>
	<time>2024-07-25T10:22:27.000Z</time>
</trkpt>
<trkpt lat="46.1237910" lon="10.5020790">
	<ele>2137.40</ele>
	<time>2024-07-25T10:22:28.000Z</time>
</trkpt>
<trkpt lat="46.1237910" lon="10.5020790">
	<ele>2137.40</ele>
	<time>2024-07-25T10:22:29.000Z</time>
</trkpt>
<trkpt lat="46.1237910" lon="10.5020790">
	<ele>2137.40</ele>
	<time>2024-07-25T10:22:30.000Z</time>
</trkpt>
<trkpt lat="46.1237910" lon="10.5020790">
	<ele>2137.40</ele>
	<time>2024-07-25T10:22:31.000Z</time>
</trkpt>
<trkpt lat="46.1237910" lon="10.5020790">
	<ele>2137.40</ele>
	<time>2024-07-25T10:22:32.000Z</time>
</trkpt>
<trkpt lat="46.1237910" lon="10.5020790">
	<ele>2137.40</ele>
	<time>2024-07-25T10:22:33.000Z</time>
</trkpt>
<trkpt lat="46.1237910" lon="10.5020790">
	<ele>2137.40</ele>
	<time>2024-07-25T10:22:34.000Z</time>
</trkpt>
<trkpt lat="46.1237910" lon="10.5020790">
	<ele>2137.40</ele>
	<time>2024-07-25T10:22:35.000Z</time>
</trkpt>
<trkpt lat="46.1237920" lon="10.5020790">
	<ele>2137.40</ele>
	<time>2024-07-25T10:22:36.000Z</time>
</trkpt>
<trkpt lat="46.1237920" lon="10.5020790">
	<ele>2137.40</ele>
	<time>2024-07-25T10:22:37.000Z</time>
</trkpt>
<trkpt lat="46.1237920" lon="10.5020790">
	<ele>2137.40</ele>
	<time>2024-07-25T10:22:38.000Z</time>
</trkpt>
<trkpt lat="46.1237920" lon="10.5020800">
	<ele>2137.40</ele>
	<time>2024-07-25T10:22:39.000Z</time>
</trkpt>
<trkpt lat="46.1237920" lon="10.5020820">
	<ele>2137.40</ele>
	<time>2024-07-25T10:22:40.000Z</time>
</trkpt>
<trkpt lat="46.1237920" lon="10.5020830">
	<ele>2137.40</ele>
	<time>2024-07-25T10:22:41.000Z</time>
</trkpt>
<trkpt lat="46.1237920" lon="10.5020830">
	<ele>2137.40</ele>
	<time>2024-07-25T10:22:42.000Z</time>
</trkpt>
<trkpt lat="46.1237920" lon="10.5020840">
	<ele>2137.40</ele>
	<time>2024-07-25T10:22:43.000Z</time>
</trkpt>
<trkpt lat="46.1237920" lon="10.5020850">
	<ele>2137.40</ele>
	<time>2024-07-25T10:22:44.000Z</time>
</trkpt>
<trkpt lat="46.1237920" lon="10.5020850">
	<ele>2137.40</ele>
	<time>2024-07-25T10:22:45.000Z</time>
</trkpt>
<trkpt lat="46.1237920" lon="10.5020860">
	<ele>2137.40</ele>
	<time>2024-07-25T10:22:46.000Z</time>
</trkpt>
<trkpt lat="46.1237920" lon="10.5020860">
	<ele>2137.40</ele>
	<time>2024-07-25T10:22:47.000Z</time>
</trkpt>
<trkpt lat="46.1237910" lon="10.5020860">
	<ele>2137.40</ele>
	<time>2024-07-25T10:22:48.000Z</time>
</trkpt>
<trkpt lat="46.1237910" lon="10.5020860">
	<ele>2137.40</ele>
	<time>2024-07-25T10:22:49.000Z</time>
</trkpt>
<trkpt lat="46.1237910" lon="10.5020860">
	<ele>2137.40</ele>
	<time>2024-07-25T10:22:50.000Z</time>
</trkpt>
<trkpt lat="46.1237910" lon="10.5020860">
	<ele>2137.40</ele>
	<time>2024-07-25T10:22:51.000Z</time>
</trkpt>
<trkpt lat="46.1237910" lon="10.5020860">
	<ele>2137.40</ele>
	<time>2024-07-25T10:22:52.000Z</time>
</trkpt>
<trkpt lat="46.1237910" lon="10.5020860">
	<ele>2137.40</ele>
	<time>2024-07-25T10:22:53.000Z</time>
</trkpt>
<trkpt lat="46.1237910" lon="10.5020860">
	<ele>2137.40</ele>
	<time>2024-07-25T10:22:54.000Z</time>
</trkpt>
<trkpt lat="46.1237910" lon="10.5020860">
	<ele>2137.40</ele>
	<time>2024-07-25T10:22:55.000Z</time>
</trkpt>
<trkpt lat="46.1237910" lon="10.5020870">
	<ele>2137.40</ele>
	<time>2024-07-25T10:22:56.000Z</time>
</trkpt>
<trkpt lat="46.1237910" lon="10.5020870">
	<ele>2137.40</ele>
	<time>2024-07-25T10:22:57.000Z</time>
</trkpt>
<trkpt lat="46.1237910" lon="10.5020870">
	<ele>2137.40</ele>
	<time>2024-07-25T10:22:58.000Z</time>
</trkpt>
<trkpt lat="46.1237910" lon="10.5020870">
	<ele>2137.40</ele>
	<time>2024-07-25T10:22:59.000Z</time>
</trkpt>
<trkpt lat="46.1237910" lon="10.5020870">
	<ele>2137.40</ele>
	<time>2024-07-25T10:23:00.000Z</time>
</trkpt>
<trkpt lat="46.1237910" lon="10.5020880">
	<ele>2137.40</ele>
	<time>2024-07-25T10:23:01.000Z</time>
</trkpt>
<trkpt lat="46.1237910" lon="10.5020880">
	<ele>2137.40</ele>
	<time>2024-07-25T10:23:02.000Z</time>
</trkpt>
<trkpt lat="46.1237910" lon="10.5020880">
	<ele>2137.40</ele>
	<time>2024-07-25T10:23:03.000Z</time>
</trkpt>
<trkpt lat="46.1237910" lon="10.5020880">
	<ele>2137.40</ele>
	<time>2024-07-25T10:23:04.000Z</time>
</trkpt>
<trkpt lat="46.1237910" lon="10.5020880">
	<ele>2137.40</ele>
	<time>2024-07-25T10:23:05.000Z</time>
</trkpt>
<trkpt lat="46.1237910" lon="10.5020870">
	<ele>2137.40</ele>
	<time>2024-07-25T10:23:06.000Z</time>
</trkpt>
<trkpt lat="46.1237910" lon="10.5020870">
	<ele>2137.40</ele>
	<time>2024-07-25T10:23:07.000Z</time>
</trkpt>
<trkpt lat="46.1237900" lon="10.5020870">
	<ele>2137.40</ele>
	<time>2024-07-25T10:23:08.000Z</time>
</trkpt>
<trkpt lat="46.1237910" lon="10.5020870">
	<ele>2137.40</ele>
	<time>2024-07-25T10:23:09.000Z</time>
</trkpt>
<trkpt lat="46.1237910" lon="10.5020870">
	<ele>2137.40</ele>
	<time>2024-07-25T10:23:10.000Z</time>
</trkpt>
<trkpt lat="46.1237910" lon="10.5020870">
	<ele>2137.40</ele>
	<time>2024-07-25T10:23:11.000Z</time>
</trkpt>
<trkpt lat="46.1237910" lon="10.5020870">
	<ele>2137.40</ele>
	<time>2024-07-25T10:23:12.000Z</time>
</trkpt>
<trkpt lat="46.1237910" lon="10.5020860">
	<ele>2137.40</ele>
	<time>2024-07-25T10:23:13.000Z</time>
</trkpt>
<trkpt lat="46.1237910" lon="10.5020860">
	<ele>2137.40</ele>
	<time>2024-07-25T10:23:14.000Z</time>
</trkpt>
<trkpt lat="46.1237910" lon="10.5020860">
	<ele>2137.40</ele>
	<time>2024-07-25T10:23:15.000Z</time>
</trkpt>
<trkpt lat="46.1237910" lon="10.5020860">
	<ele>2137.40</ele>
	<time>2024-07-25T10:23:16.000Z</time>
</trkpt>
<trkpt lat="46.1237910" lon="10.5020860">
	<ele>2137.40</ele>
	<time>2024-07-25T10:23:17.000Z</time>
</trkpt>
<trkpt lat="46.1237910" lon="10.5020860">
	<ele>2137.40</ele>
	<time>2024-07-25T10:23:18.000Z</time>
</trkpt>
<trkpt lat="46.1237910" lon="10.5020860">
	<ele>2137.40</ele>
	<time>2024-07-25T10:23:19.000Z</time>
</trkpt>
<trkpt lat="46.1237910" lon="10.5020830">
	<ele>2137.40</ele>
	<time>2024-07-25T10:23:20.000Z</time>
</trkpt>
<trkpt lat="46.1237910" lon="10.5020820">
	<ele>2137.40</ele>
	<time>2024-07-25T10:23:21.000Z</time>
</trkpt>
<trkpt lat="46.1237910" lon="10.5020810">
	<ele>2137.40</ele>
	<time>2024-07-25T10:23:22.000Z</time>
</trkpt>
<trkpt lat="46.1237920" lon="10.5020800">
	<ele>2137.40</ele>
	<time>2024-07-25T10:23:23.000Z</time>
</trkpt>
<trkpt lat="46.1237940" lon="10.5020800">
	<ele>2137.40</ele>
	<time>2024-07-25T10:23:24.000Z</time>
</trkpt>
<trkpt lat="46.1237940" lon="10.5020790">
	<ele>2137.40</ele>
	<time>2024-07-25T10:23:25.000Z</time>
</trkpt>
<trkpt lat="46.1237960" lon="10.5020760">
	<ele>2137.40</ele>
	<time>2024-07-25T10:23:26.000Z</time>
</trkpt>
<trkpt lat="46.1237980" lon="10.5020700">
	<ele>2137.40</ele>
	<time>2024-07-25T10:23:27.000Z</time>
</trkpt>
<trkpt lat="46.1237990" lon="10.5020670">
	<ele>2137.40</ele>
	<time>2024-07-25T10:23:28.000Z</time>
</trkpt>
<trkpt lat="46.1238000" lon="10.5020650">
	<ele>2137.40</ele>
	<time>2024-07-25T10:23:29.000Z</time>
</trkpt>
<trkpt lat="46.1238010" lon="10.5020640">
	<ele>2137.40</ele>
	<time>2024-07-25T10:23:30.000Z</time>
</trkpt>
<trkpt lat="46.1238020" lon="10.5020640">
	<ele>2137.40</ele>
	<time>2024-07-25T10:23:31.000Z</time>
</trkpt>
<trkpt lat="46.1238030" lon="10.5020630">
	<ele>2137.40</ele>
	<time>2024-07-25T10:23:32.000Z</time>
</trkpt>
<trkpt lat="46.1238030" lon="10.5020630">
	<ele>2137.40</ele>
	<time>2024-07-25T10:23:33.000Z</time>
</trkpt>
<trkpt lat="46.1238040" lon="10.5020630">
	<ele>2137.40</ele>
	<time>2024-07-25T10:23:34.000Z</time>
</trkpt>
<trkpt lat="46.1238050" lon="10.5020620">
	<ele>2137.40</ele>
	<time>2024-07-25T10:23:35.000Z</time>
</trkpt>
<trkpt lat="46.1238060" lon="10.5020620">
	<ele>2137.40</ele>
	<time>2024-07-25T10:23:36.000Z</time>
</trkpt>
<trkpt lat="46.1238070" lon="10.5020620">
	<ele>2137.40</ele>
	<time>2024-07-25T10:23:37.000Z</time>
</trkpt>
<trkpt lat="46.1238080" lon="10.5020610">
	<ele>2137.40</ele>
	<time>2024-07-25T10:23:38.000Z</time>
</trkpt>
<trkpt lat="46.1238090" lon="10.5020610">
	<ele>2137.40</ele>
	<time>2024-07-25T10:23:39.000Z</time>
</trkpt>
<trkpt lat="46.1238090" lon="10.5020610">
	<ele>2137.40</ele>
	<time>2024-07-25T10:23:40.000Z</time>
</trkpt>
<trkpt lat="46.1238090" lon="10.5020610">
	<ele>2137.40</ele>
	<time>2024-07-25T10:23:41.000Z</time>
</trkpt>
<trkpt lat="46.1238090" lon="10.5020600">
	<ele>2137.40</ele>
	<time>2024-07-25T10:23:42.000Z</time>
</trkpt>
<trkpt lat="46.1238090" lon="10.5020600">
	<ele>2137.40</ele>
	<time>2024-07-25T10:23:43.000Z</time>
</trkpt>
<trkpt lat="46.1238090" lon="10.5020600">
	<ele>2137.40</ele>
	<time>2024-07-25T10:23:44.000Z</time>
</trkpt>
<trkpt lat="46.1238090" lon="10.5020590">
	<ele>2137.40</ele>
	<time>2024-07-25T10:23:45.000Z</time>
</trkpt>
<trkpt lat="46.1238090" lon="10.5020590">
	<ele>2137.40</ele>
	<time>2024-07-25T10:23:46.000Z</time>
</trkpt>
<trkpt lat="46.1238090" lon="10.5020590">
	<ele>2137.40</ele>
	<time>2024-07-25T10:23:47.000Z</time>
</trkpt>
<trkpt lat="46.1238090" lon="10.5020590">
	<ele>2137.40</ele>
	<time>2024-07-25T10:23:48.000Z</time>
</trkpt>
<trkpt lat="46.1238090" lon="10.5020590">
	<ele>2137.40</ele>
	<time>2024-07-25T10:23:49.000Z</time>
</trkpt>
<trkpt lat="46.1238100" lon="10.5020580">
	<ele>2137.40</ele>
	<time>2024-07-25T10:23:50.000Z</time>
</trkpt>
<trkpt lat="46.1238100" lon="10.5020580">
	<ele>2137.40</ele>
	<time>2024-07-25T10:23:51.000Z</time>
</trkpt>
<trkpt lat="46.1238110" lon="10.5020570">
	<ele>2137.40</ele>
	<time>2024-07-25T10:23:52.000Z</time>
</trkpt>
<trkpt lat="46.1238110" lon="10.5020570">
	<ele>2137.40</ele>
	<time>2024-07-25T10:23:53.000Z</time>
</trkpt>
<trkpt lat="46.1238120" lon="10.5020570">
	<ele>2137.40</ele>
	<time>2024-07-25T10:23:54.000Z</time>
</trkpt>
<trkpt lat="46.1238120" lon="10.5020560">
	<ele>2137.40</ele>
	<time>2024-07-25T10:23:55.000Z</time>
</trkpt>
<trkpt lat="46.1238120" lon="10.5020560">
	<ele>2137.40</ele>
	<time>2024-07-25T10:23:56.000Z</time>
</trkpt>
<trkpt lat="46.1238130" lon="10.5020560">
	<ele>2137.40</ele>
	<time>2024-07-25T10:23:57.000Z</time>
</trkpt>
<trkpt lat="46.1238130" lon="10.5020550">
	<ele>2137.40</ele>
	<time>2024-07-25T10:23:58.000Z</time>
</trkpt>
<trkpt lat="46.1238130" lon="10.5020550">
	<ele>2137.40</ele>
	<time>2024-07-25T10:23:59.000Z</time>
</trkpt>
<trkpt lat="46.1238130" lon="10.5020520">
	<ele>2137.40</ele>
	<time>2024-07-25T10:24:00.000Z</time>
</trkpt>
<trkpt lat="46.1238120" lon="10.5020500">
	<ele>2137.40</ele>
	<time>2024-07-25T10:24:01.000Z</time>
</trkpt>
<trkpt lat="46.1238120" lon="10.5020480">
	<ele>2137.40</ele>
	<time>2024-07-25T10:24:02.000Z</time>
</trkpt>
<trkpt lat="46.1238120" lon="10.5020460">
	<ele>2137.40</ele>
	<time>2024-07-25T10:24:03.000Z</time>
</trkpt>
<trkpt lat="46.1238120" lon="10.5020450">
	<ele>2137.40</ele>
	<time>2024-07-25T10:24:04.000Z</time>
</trkpt>
<trkpt lat="46.1238110" lon="10.5020440">
	<ele>2137.40</ele>
	<time>2024-07-25T10:24:05.000Z</time>
</trkpt>
<trkpt lat="46.1238110" lon="10.5020430">
	<ele>2137.40</ele>
	<time>2024-07-25T10:24:06.000Z</time>
</trkpt>
<trkpt lat="46.1238100" lon="10.5020410">
	<ele>2137.40</ele>
	<time>2024-07-25T10:24:07.000Z</time>
</trkpt>
<trkpt lat="46.1238100" lon="10.5020400">
	<ele>2137.40</ele>
	<time>2024-07-25T10:24:08.000Z</time>
</trkpt>
<trkpt lat="46.1238100" lon="10.5020390">
	<ele>2137.40</ele>
	<time>2024-07-25T10:24:09.000Z</time>
</trkpt>
<trkpt lat="46.1238100" lon="10.5020380">
	<ele>2137.40</ele>
	<time>2024-07-25T10:24:10.000Z</time>
</trkpt>
<trkpt lat="46.1238100" lon="10.5020380">
	<ele>2137.40</ele>
	<time>2024-07-25T10:24:11.000Z</time>
</trkpt>
<trkpt lat="46.1238090" lon="10.5020370">
	<ele>2137.40</ele>
	<time>2024-07-25T10:24:12.000Z</time>
</trkpt>
<trkpt lat="46.1238090" lon="10.5020360">
	<ele>2137.40</ele>
	<time>2024-07-25T10:24:13.000Z</time>
</trkpt>
<trkpt lat="46.1238090" lon="10.5020360">
	<ele>2137.40</ele>
	<time>2024-07-25T10:24:14.000Z</time>
</trkpt>
<trkpt lat="46.1238090" lon="10.5020350">
	<ele>2137.40</ele>
	<time>2024-07-25T10:24:15.000Z</time>
</trkpt>
<trkpt lat="46.1238090" lon="10.5020350">
	<ele>2137.40</ele>
	<time>2024-07-25T10:24:16.000Z</time>
</trkpt>
<trkpt lat="46.1238080" lon="10.5020350">
	<ele>2137.40</ele>
	<time>2024-07-25T10:24:17.000Z</time>
</trkpt>
<trkpt lat="46.1238080" lon="10.5020340">
	<ele>2137.40</ele>
	<time>2024-07-25T10:24:18.000Z</time>
</trkpt>
<trkpt lat="46.1238080" lon="10.5020340">
	<ele>2137.40</ele>
	<time>2024-07-25T10:24:19.000Z</time>
</trkpt>
<trkpt lat="46.1238080" lon="10.5020340">
	<ele>2137.40</ele>
	<time>2024-07-25T10:24:20.000Z</time>
</trkpt>
<trkpt lat="46.1238070" lon="10.5020340">
	<ele>2137.40</ele>
	<time>2024-07-25T10:24:21.000Z</time>
</trkpt>
<trkpt lat="46.1238070" lon="10.5020340">
	<ele>2137.40</ele>
	<time>2024-07-25T10:24:22.000Z</time>
</trkpt>
<trkpt lat="46.1238070" lon="10.5020340">
	<ele>2137.40</ele>
	<time>2024-07-25T10:24:23.000Z</time>
</trkpt>
<trkpt lat="46.1238060" lon="10.5020340">
	<ele>2137.40</ele>
	<time>2024-07-25T10:24:24.000Z</time>
</trkpt>
<trkpt lat="46.1238050" lon="10.5020340">
	<ele>2137.40</ele>
	<time>2024-07-25T10:24:25.000Z</time>
</trkpt>
<trkpt lat="46.1238050" lon="10.5020340">
	<ele>2137.40</ele>
	<time>2024-07-25T10:24:26.000Z</time>
</trkpt>
<trkpt lat="46.1238040" lon="10.5020340">
	<ele>2137.40</ele>
	<time>2024-07-25T10:24:27.000Z</time>
</trkpt>
<trkpt lat="46.1238040" lon="10.5020350">
	<ele>2137.40</ele>
	<time>2024-07-25T10:24:28.000Z</time>
</trkpt>
<trkpt lat="46.1238030" lon="10.5020350">
	<ele>2137.40</ele>
	<time>2024-07-25T10:24:29.000Z</time>
</trkpt>
<trkpt lat="46.1238020" lon="10.5020350">
	<ele>2137.40</ele>
	<time>2024-07-25T10:24:30.000Z</time>
</trkpt>
<trkpt lat="46.1238000" lon="10.5020350">
	<ele>2137.40</ele>
	<time>2024-07-25T10:24:31.000Z</time>
</trkpt>
<trkpt lat="46.1237990" lon="10.5020360">
	<ele>2137.40</ele>
	<time>2024-07-25T10:24:32.000Z</time>
</trkpt>
<trkpt lat="46.1237980" lon="10.5020370">
	<ele>2137.40</ele>
	<time>2024-07-25T10:24:33.000Z</time>
</trkpt>
<trkpt lat="46.1237960" lon="10.5020380">
	<ele>2137.40</ele>
	<time>2024-07-25T10:24:34.000Z</time>
</trkpt>
<trkpt lat="46.1237950" lon="10.5020380">
	<ele>2137.40</ele>
	<time>2024-07-25T10:24:35.000Z</time>
</trkpt>
<trkpt lat="46.1237940" lon="10.5020400">
	<ele>2137.40</ele>
	<time>2024-07-25T10:24:36.000Z</time>
</trkpt>
<trkpt lat="46.1237930" lon="10.5020410">
	<ele>2137.40</ele>
	<time>2024-07-25T10:24:37.000Z</time>
</trkpt>
<trkpt lat="46.1237920" lon="10.5020430">
	<ele>2137.40</ele>
	<time>2024-07-25T10:24:38.000Z</time>
</trkpt>
<trkpt lat="46.1237900" lon="10.5020450">
	<ele>2137.40</ele>
	<time>2024-07-25T10:24:39.000Z</time>
</trkpt>
<trkpt lat="46.1237890" lon="10.5020470">
	<ele>2137.40</ele>
	<time>2024-07-25T10:24:40.000Z</time>
</trkpt>
<trkpt lat="46.1237880" lon="10.5020480">
	<ele>2137.40</ele>
	<time>2024-07-25T10:24:41.000Z</time>
</trkpt>
<trkpt lat="46.1237870" lon="10.5020490">
	<ele>2137.40</ele>
	<time>2024-07-25T10:24:42.000Z</time>
</trkpt>
<trkpt lat="46.1237870" lon="10.5020500">
	<ele>2137.40</ele>
	<time>2024-07-25T10:24:43.000Z</time>
</trkpt>
<trkpt lat="46.1237860" lon="10.5020510">
	<ele>2137.40</ele>
	<time>2024-07-25T10:24:44.000Z</time>
</trkpt>
<trkpt lat="46.1237860" lon="10.5020520">
	<ele>2137.40</ele>
	<time>2024-07-25T10:24:45.000Z</time>
</trkpt>
<trkpt lat="46.1237850" lon="10.5020530">
	<ele>2137.40</ele>
	<time>2024-07-25T10:24:46.000Z</time>
</trkpt>
<trkpt lat="46.1237850" lon="10.5020530">
	<ele>2137.40</ele>
	<time>2024-07-25T10:24:47.000Z</time>
</trkpt>
<trkpt lat="46.1237840" lon="10.5020540">
	<ele>2137.40</ele>
	<time>2024-07-25T10:24:48.000Z</time>
</trkpt>
<trkpt lat="46.1237840" lon="10.5020540">
	<ele>2137.40</ele>
	<time>2024-07-25T10:24:49.000Z</time>
</trkpt>
<trkpt lat="46.1237840" lon="10.5020550">
	<ele>2137.40</ele>
	<time>2024-07-25T10:24:50.000Z</time>
</trkpt>
<trkpt lat="46.1237830" lon="10.5020550">
	<ele>2137.40</ele>
	<time>2024-07-25T10:24:51.000Z</time>
</trkpt>
<trkpt lat="46.1237830" lon="10.5020550">
	<ele>2137.40</ele>
	<time>2024-07-25T10:24:52.000Z</time>
</trkpt>
<trkpt lat="46.1237830" lon="10.5020560">
	<ele>2137.40</ele>
	<time>2024-07-25T10:24:53.000Z</time>
</trkpt>
<trkpt lat="46.1237830" lon="10.5020560">
	<ele>2137.40</ele>
	<time>2024-07-25T10:24:54.000Z</time>
</trkpt>
<trkpt lat="46.1237830" lon="10.5020560">
	<ele>2137.40</ele>
	<time>2024-07-25T10:24:55.000Z</time>
</trkpt>
<trkpt lat="46.1237830" lon="10.5020560">
	<ele>2137.40</ele>
	<time>2024-07-25T10:24:56.000Z</time>
</trkpt>
<trkpt lat="46.1237830" lon="10.5020560">
	<ele>2137.40</ele>
	<time>2024-07-25T10:24:57.000Z</time>
</trkpt>
<trkpt lat="46.1237820" lon="10.5020570">
	<ele>2137.40</ele>
	<time>2024-07-25T10:24:58.000Z</time>
</trkpt>
<trkpt lat="46.1237820" lon="10.5020570">
	<ele>2137.40</ele>
	<time>2024-07-25T10:24:59.000Z</time>
</trkpt>
<trkpt lat="46.1237820" lon="10.5020570">
	<ele>2137.40</ele>
	<time>2024-07-25T10:25:00.000Z</time>
</trkpt>
<trkpt lat="46.1237820" lon="10.5020570">
	<ele>2137.40</ele>
	<time>2024-07-25T10:25:01.000Z</time>
</trkpt>
<trkpt lat="46.1237820" lon="10.5020570">
	<ele>2137.40</ele>
	<time>2024-07-25T10:25:02.000Z</time>
</trkpt>
<trkpt lat="46.1237820" lon="10.5020570">
	<ele>2137.40</ele>
	<time>2024-07-25T10:25:03.000Z</time>
</trkpt>
<trkpt lat="46.1237830" lon="10.5020570">
	<ele>2137.40</ele>
	<time>2024-07-25T10:25:04.000Z</time>
</trkpt>
<trkpt lat="46.1237830" lon="10.5020570">
	<ele>2137.40</ele>
	<time>2024-07-25T10:25:05.000Z</time>
</trkpt>
<trkpt lat="46.1237830" lon="10.5020570">
	<ele>2137.40</ele>
	<time>2024-07-25T10:25:06.000Z</time>
</trkpt>
<trkpt lat="46.1237830" lon="10.5020570">
	<ele>2137.40</ele>
	<time>2024-07-25T10:25:07.000Z</time>
</trkpt>
<trkpt lat="46.1237830" lon="10.5020560">
	<ele>2137.40</ele>
	<time>2024-07-25T10:25:08.000Z</time>
</trkpt>
<trkpt lat="46.1237830" lon="10.5020560">
	<ele>2137.40</ele>
	<time>2024-07-25T10:25:09.000Z</time>
</trkpt>
<trkpt lat="46.1237830" lon="10.5020560">
	<ele>2137.40</ele>
	<time>2024-07-25T10:25:10.000Z</time>
</trkpt>
<trkpt lat="46.1237830" lon="10.5020560">
	<ele>2137.40</ele>
	<time>2024-07-25T10:25:11.000Z</time>
</trkpt>
<trkpt lat="46.1237830" lon="10.5020560">
	<ele>2137.40</ele>
	<time>2024-07-25T10:25:12.000Z</time>
</trkpt>
<trkpt lat="46.1237830" lon="10.5020560">
	<ele>2137.40</ele>
	<time>2024-07-25T10:25:13.000Z</time>
</trkpt>
<trkpt lat="46.1237830" lon="10.5020560">
	<ele>2137.40</ele>
	<time>2024-07-25T10:25:14.000Z</time>
</trkpt>
<trkpt lat="46.1237830" lon="10.5020560">
	<ele>2137.40</ele>
	<time>2024-07-25T10:25:15.000Z</time>
</trkpt>
<trkpt lat="46.1237830" lon="10.5020560">
	<ele>2137.40</ele>
	<time>2024-07-25T10:25:16.000Z</time>
</trkpt>
<trkpt lat="46.1237830" lon="10.5020560">
	<ele>2137.40</ele>
	<time>2024-07-25T10:25:17.000Z</time>
</trkpt>
<trkpt lat="46.1237830" lon="10.5020560">
	<ele>2137.40</ele>
	<time>2024-07-25T10:25:18.000Z</time>
</trkpt>
<trkpt lat="46.1237830" lon="10.5020560">
	<ele>2137.40</ele>
	<time>2024-07-25T10:25:19.000Z</time>
</trkpt>
<trkpt lat="46.1237830" lon="10.5020560">
	<ele>2137.40</ele>
	<time>2024-07-25T10:25:20.000Z</time>
</trkpt>
<trkpt lat="46.1237830" lon="10.5020550">
	<ele>2137.40</ele>
	<time>2024-07-25T10:25:21.000Z</time>
</trkpt>
<trkpt lat="46.1237830" lon="10.5020550">
	<ele>2137.40</ele>
	<time>2024-07-25T10:25:22.000Z</time>
</trkpt>
<trkpt lat="46.1237830" lon="10.5020550">
	<ele>2137.40</ele>
	<time>2024-07-25T10:25:23.000Z</time>
</trkpt>
<trkpt lat="46.1237830" lon="10.5020550">
	<ele>2137.40</ele>
	<time>2024-07-25T10:25:24.000Z</time>
</trkpt>
<trkpt lat="46.1237830" lon="10.5020550">
	<ele>2137.40</ele>
	<time>2024-07-25T10:25:25.000Z</time>
</trkpt>
<trkpt lat="46.1237830" lon="10.5020550">
	<ele>2137.40</ele>
	<time>2024-07-25T10:25:26.000Z</time>
</trkpt>
<trkpt lat="46.1237830" lon="10.5020550">
	<ele>2137.40</ele>
	<time>2024-07-25T10:25:27.000Z</time>
</trkpt>
<trkpt lat="46.1237830" lon="10.5020550">
	<ele>2137.40</ele>
	<time>2024-07-25T10:25:28.000Z</time>
</trkpt>
<trkpt lat="46.1237830" lon="10.5020550">
	<ele>2137.40</ele>
	<time>2024-07-25T10:25:29.000Z</time>
</trkpt>
<trkpt lat="46.1237830" lon="10.5020550">
	<ele>2137.40</ele>
	<time>2024-07-25T10:25:30.000Z</time>
</trkpt>
<trkpt lat="46.1237830" lon="10.5020540">
	<ele>2137.40</ele>
	<time>2024-07-25T10:25:31.000Z</time>
</trkpt>
<trkpt lat="46.1237830" lon="10.5020540">
	<ele>2137.40</ele>
	<time>2024-07-25T10:25:32.000Z</time>
</trkpt>
<trkpt lat="46.1237830" lon="10.5020540">
	<ele>2137.40</ele>
	<time>2024-07-25T10:25:33.000Z</time>
</trkpt>
<trkpt lat="46.1237830" lon="10.5020540">
	<ele>2137.40</ele>
	<time>2024-07-25T10:25:34.000Z</time>
</trkpt>
<trkpt lat="46.1237830" lon="10.5020530">
	<ele>2137.40</ele>
	<time>2024-07-25T10:25:35.000Z</time>
</trkpt>
<trkpt lat="46.1237830" lon="10.5020530">
	<ele>2137.40</ele>
	<time>2024-07-25T10:25:36.000Z</time>
</trkpt>
<trkpt lat="46.1237830" lon="10.5020540">
	<ele>2137.40</ele>
	<time>2024-07-25T10:25:37.000Z</time>
</trkpt>
<trkpt lat="46.1237830" lon="10.5020540">
	<ele>2137.40</ele>
	<time>2024-07-25T10:25:38.000Z</time>
</trkpt>
<trkpt lat="46.1237830" lon="10.5020540">
	<ele>2137.40</ele>
	<time>2024-07-25T10:25:39.000Z</time>
</trkpt>
<trkpt lat="46.1237840" lon="10.5020540">
	<ele>2137.40</ele>
	<time>2024-07-25T10:25:40.000Z</time>
</trkpt>
<trkpt lat="46.1237830" lon="10.5020540">
	<ele>2137.40</ele>
	<time>2024-07-25T10:25:41.000Z</time>
</trkpt>
<trkpt lat="46.1237830" lon="10.5020540">
	<ele>2137.40</ele>
	<time>2024-07-25T10:25:42.000Z</time>
</trkpt>
<trkpt lat="46.1237830" lon="10.5020540">
	<ele>2137.40</ele>
	<time>2024-07-25T10:25:43.000Z</time>
</trkpt>
<trkpt lat="46.1237840" lon="10.5020540">
	<ele>2137.40</ele>
	<time>2024-07-25T10:25:44.000Z</time>
</trkpt>
<trkpt lat="46.1237840" lon="10.5020540">
	<ele>2137.40</ele>
	<time>2024-07-25T10:25:45.000Z</time>
</trkpt>
<trkpt lat="46.1237840" lon="10.5020540">
	<ele>2137.40</ele>
	<time>2024-07-25T10:25:46.000Z</time>
</trkpt>
<trkpt lat="46.1237830" lon="10.5020540">
	<ele>2137.40</ele>
	<time>2024-07-25T10:25:47.000Z</time>
</trkpt>
<trkpt lat="46.1237830" lon="10.5020540">
	<ele>2137.40</ele>
	<time>2024-07-25T10:25:48.000Z</time>
</trkpt>
<trkpt lat="46.1237830" lon="10.5020540">
	<ele>2137.40</ele>
	<time>2024-07-25T10:25:49.000Z</time>
</trkpt>
<trkpt lat="46.1237830" lon="10.5020540">
	<ele>2137.40</ele>
	<time>2024-07-25T10:25:50.000Z</time>
</trkpt>
<trkpt lat="46.1237830" lon="10.5020540">
	<ele>2137.40</ele>
	<time>2024-07-25T10:25:51.000Z</time>
</trkpt>
<trkpt lat="46.1237830" lon="10.5020540">
	<ele>2137.40</ele>
	<time>2024-07-25T10:25:52.000Z</time>
</trkpt>
<trkpt lat="46.1237840" lon="10.5020540">
	<ele>2137.40</ele>
	<time>2024-07-25T10:25:53.000Z</time>
</trkpt>
<trkpt lat="46.1237840" lon="10.5020540">
	<ele>2137.40</ele>
	<time>2024-07-25T10:25:54.000Z</time>
</trkpt>
<trkpt lat="46.1237840" lon="10.5020530">
	<ele>2137.40</ele>
	<time>2024-07-25T10:25:55.000Z</time>
</trkpt>
<trkpt lat="46.1237840" lon="10.5020530">
	<ele>2137.40</ele>
	<time>2024-07-25T10:25:56.000Z</time>
</trkpt>
<trkpt lat="46.1237840" lon="10.5020530">
	<ele>2137.40</ele>
	<time>2024-07-25T10:25:57.000Z</time>
</trkpt>
<trkpt lat="46.1237840" lon="10.5020530">
	<ele>2137.40</ele>
	<time>2024-07-25T10:25:58.000Z</time>
</trkpt>
<trkpt lat="46.1237840" lon="10.5020530">
	<ele>2137.40</ele>
	<time>2024-07-25T10:25:59.000Z</time>
</trkpt>
<trkpt lat="46.1237840" lon="10.5020530">
	<ele>2137.40</ele>
	<time>2024-07-25T10:26:00.000Z</time>
</trkpt>
<trkpt lat="46.1237840" lon="10.5020530">
	<ele>2137.40</ele>
	<time>2024-07-25T10:26:01.000Z</time>
</trkpt>
<trkpt lat="46.1237840" lon="10.5020530">
	<ele>2137.40</ele>
	<time>2024-07-25T10:26:02.000Z</time>
</trkpt>
<trkpt lat="46.1237840" lon="10.5020540">
	<ele>2137.40</ele>
	<time>2024-07-25T10:26:03.000Z</time>
</trkpt>
<trkpt lat="46.1237840" lon="10.5020540">
	<ele>2137.40</ele>
	<time>2024-07-25T10:26:04.000Z</time>
</trkpt>
<trkpt lat="46.1237840" lon="10.5020530">
	<ele>2137.40</ele>
	<time>2024-07-25T10:26:05.000Z</time>
</trkpt>
<trkpt lat="46.1237850" lon="10.5020530">
	<ele>2137.40</ele>
	<time>2024-07-25T10:26:06.000Z</time>
</trkpt>
<trkpt lat="46.1237850" lon="10.5020530">
	<ele>2137.40</ele>
	<time>2024-07-25T10:26:07.000Z</time>
</trkpt>
<trkpt lat="46.1237850" lon="10.5020520">
	<ele>2137.40</ele>
	<time>2024-07-25T10:26:08.000Z</time>
</trkpt>
<trkpt lat="46.1237850" lon="10.5020520">
	<ele>2137.40</ele>
	<time>2024-07-25T10:26:09.000Z</time>
</trkpt>
<trkpt lat="46.1237850" lon="10.5020520">
	<ele>2137.40</ele>
	<time>2024-07-25T10:26:10.000Z</time>
</trkpt>
<trkpt lat="46.1237850" lon="10.5020520">
	<ele>2137.40</ele>
	<time>2024-07-25T10:26:11.000Z</time>
</trkpt>
<trkpt lat="46.1237850" lon="10.5020520">
	<ele>2137.40</ele>
	<time>2024-07-25T10:26:12.000Z</time>
</trkpt>
<trkpt lat="46.1237860" lon="10.5020610">
	<ele>2137.40</ele>
	<time>2024-07-25T10:26:13.000Z</time>
</trkpt>
<trkpt lat="46.1237870" lon="10.5020700">
	<ele>2137.40</ele>
	<time>2024-07-25T10:26:14.000Z</time>
</trkpt>
<trkpt lat="46.1237910" lon="10.5020730">
	<ele>2137.40</ele>
	<time>2024-07-25T10:26:15.000Z</time>
</trkpt>
<trkpt lat="46.1237940" lon="10.5020750">
	<ele>2137.40</ele>
	<time>2024-07-25T10:26:16.000Z</time>
</trkpt>
<trkpt lat="46.1237970" lon="10.5020820">
	<ele>2137.40</ele>
	<time>2024-07-25T10:26:17.000Z</time>
</trkpt>
<trkpt lat="46.1237990" lon="10.5020910">
	<ele>2137.40</ele>
	<time>2024-07-25T10:26:18.000Z</time>
</trkpt>
<trkpt lat="46.1238000" lon="10.5020990">
	<ele>2137.40</ele>
	<time>2024-07-25T10:26:19.000Z</time>
</trkpt>
<trkpt lat="46.1238000" lon="10.5020990">
	<ele>2137.40</ele>
	<time>2024-07-25T10:26:20.000Z</time>
</trkpt>
<trkpt lat="46.1238000" lon="10.5020990">
	<ele>2137.40</ele>
	<time>2024-07-25T10:26:21.000Z</time>
</trkpt>
<trkpt lat="46.1238000" lon="10.5020990">
	<ele>2137.40</ele>
	<time>2024-07-25T10:26:22.000Z</time>
</trkpt>
<trkpt lat="46.1238000" lon="10.5020990">
	<ele>2137.40</ele>
	<time>2024-07-25T10:26:23.000Z</time>
</trkpt>
<trkpt lat="46.1238000" lon="10.5020990">
	<ele>2137.40</ele>
	<time>2024-07-25T10:26:24.000Z</time>
</trkpt>
<trkpt lat="46.1238000" lon="10.5020990">
	<ele>2137.40</ele>
	<time>2024-07-25T10:26:25.000Z</time>
</trkpt>
<trkpt lat="46.1238000" lon="10.5021220">
	<ele>2137.40</ele>
	<time>2024-07-25T10:26:26.000Z</time>
</trkpt>
<trkpt lat="46.1238000" lon="10.5021240">
	<ele>2137.40</ele>
	<time>2024-07-25T10:26:27.000Z</time>
</trkpt>
<trkpt lat="46.1238000" lon="10.5021260">
	<ele>2137.40</ele>
	<time>2024-07-25T10:26:28.000Z</time>
</trkpt>
<trkpt lat="46.1238000" lon="10.5021260">
	<ele>2137.40</ele>
	<time>2024-07-25T10:26:29.000Z</time>
</trkpt>
<trkpt lat="46.1238000" lon="10.5021260">
	<ele>2137.40</ele>
	<time>2024-07-25T10:26:30.000Z</time>
</trkpt>
<trkpt lat="46.1238000" lon="10.5021260">
	<ele>2137.40</ele>
	<time>2024-07-25T10:26:31.000Z</time>
</trkpt>
<trkpt lat="46.1238000" lon="10.5021260">
	<ele>2137.40</ele>
	<time>2024-07-25T10:26:32.000Z</time>
</trkpt>
<trkpt lat="46.1238000" lon="10.5021270">
	<ele>2137.40</ele>
	<time>2024-07-25T10:26:33.000Z</time>
</trkpt>
<trkpt lat="46.1238000" lon="10.5021270">
	<ele>2137.40</ele>
	<time>2024-07-25T10:26:34.000Z</time>
</trkpt>
<trkpt lat="46.1238000" lon="10.5021270">
	<ele>2137.40</ele>
	<time>2024-07-25T10:26:35.000Z</time>
</trkpt>
<trkpt lat="46.1238000" lon="10.5021270">
	<ele>2137.40</ele>
	<time>2024-07-25T10:26:36.000Z</time>
</trkpt>
<trkpt lat="46.1238010" lon="10.5021270">
	<ele>2137.40</ele>
	<time>2024-07-25T10:26:37.000Z</time>
</trkpt>
<trkpt lat="46.1238010" lon="10.5021270">
	<ele>2137.40</ele>
	<time>2024-07-25T10:26:38.000Z</time>
</trkpt>
<trkpt lat="46.1238010" lon="10.5021270">
	<ele>2137.40</ele>
	<time>2024-07-25T10:26:39.000Z</time>
</trkpt>
<trkpt lat="46.1238010" lon="10.5021270">
	<ele>2137.40</ele>
	<time>2024-07-25T10:26:40.000Z</time>
</trkpt>
<trkpt lat="46.1238010" lon="10.5021270">
	<ele>2137.40</ele>
	<time>2024-07-25T10:26:41.000Z</time>
</trkpt>
<trkpt lat="46.1238010" lon="10.5021270">
	<ele>2137.40</ele>
	<time>2024-07-25T10:26:42.000Z</time>
</trkpt>
<trkpt lat="46.1238010" lon="10.5021260">
	<ele>2137.40</ele>
	<time>2024-07-25T10:26:43.000Z</time>
</trkpt>
<trkpt lat="46.1238010" lon="10.5021260">
	<ele>2137.40</ele>
	<time>2024-07-25T10:26:44.000Z</time>
</trkpt>
<trkpt lat="46.1238010" lon="10.5021260">
	<ele>2137.40</ele>
	<time>2024-07-25T10:26:45.000Z</time>
</trkpt>
<trkpt lat="46.1238010" lon="10.5021260">
	<ele>2137.40</ele>
	<time>2024-07-25T10:26:46.000Z</time>
</trkpt>
<trkpt lat="46.1238000" lon="10.5021250">
	<ele>2137.40</ele>
	<time>2024-07-25T10:26:47.000Z</time>
</trkpt>
<trkpt lat="46.1238000" lon="10.5021240">
	<ele>2137.40</ele>
	<time>2024-07-25T10:26:48.000Z</time>
</trkpt>
<trkpt lat="46.1238000" lon="10.5021230">
	<ele>2137.40</ele>
	<time>2024-07-25T10:26:49.000Z</time>
</trkpt>
<trkpt lat="46.1238000" lon="10.5021230">
	<ele>2137.40</ele>
	<time>2024-07-25T10:26:50.000Z</time>
</trkpt>
<trkpt lat="46.1238000" lon="10.5021220">
	<ele>2137.40</ele>
	<time>2024-07-25T10:26:51.000Z</time>
</trkpt>
<trkpt lat="46.1238000" lon="10.5021220">
	<ele>2137.40</ele>
	<time>2024-07-25T10:26:52.000Z</time>
</trkpt>
<trkpt lat="46.1238000" lon="10.5021220">
	<ele>2137.40</ele>
	<time>2024-07-25T10:26:53.000Z</time>
</trkpt>
<trkpt lat="46.1238000" lon="10.5021220">
	<ele>2137.40</ele>
	<time>2024-07-25T10:26:54.000Z</time>
</trkpt>
<trkpt lat="46.1238000" lon="10.5021220">
	<ele>2137.40</ele>
	<time>2024-07-25T10:26:55.000Z</time>
</trkpt>
<trkpt lat="46.1238000" lon="10.5021220">
	<ele>2137.40</ele>
	<time>2024-07-25T10:26:56.000Z</time>
</trkpt>
<trkpt lat="46.1238000" lon="10.5021220">
	<ele>2137.40</ele>
	<time>2024-07-25T10:26:57.000Z</time>
</trkpt>
<trkpt lat="46.1238000" lon="10.5021210">
	<ele>2137.40</ele>
	<time>2024-07-25T10:26:58.000Z</time>
</trkpt>
<trkpt lat="46.1238000" lon="10.5021190">
	<ele>2137.40</ele>
	<time>2024-07-25T10:26:59.000Z</time>
</trkpt>
<trkpt lat="46.1237990" lon="10.5021190">
	<ele>2137.40</ele>
	<time>2024-07-25T10:27:00.000Z</time>
</trkpt>
<trkpt lat="46.1237980" lon="10.5021190">
	<ele>2137.40</ele>
	<time>2024-07-25T10:27:01.000Z</time>
</trkpt>
<trkpt lat="46.1237970" lon="10.5021200">
	<ele>2137.40</ele>
	<time>2024-07-25T10:27:02.000Z</time>
</trkpt>
<trkpt lat="46.1237940" lon="10.5021260">
	<ele>2137.40</ele>
	<time>2024-07-25T10:27:03.000Z</time>
</trkpt>
<trkpt lat="46.1237910" lon="10.5021240">
	<ele>2137.40</ele>
	<time>2024-07-25T10:27:04.000Z</time>
</trkpt>
<trkpt lat="46.1237890" lon="10.5021290">
	<ele>2137.40</ele>
	<time>2024-07-25T10:27:05.000Z</time>
</trkpt>
<trkpt lat="46.1237880" lon="10.5021320">
	<ele>2137.40</ele>
	<time>2024-07-25T10:27:06.000Z</time>
</trkpt>
<trkpt lat="46.1237870" lon="10.5021340">
	<ele>2137.40</ele>
	<time>2024-07-25T10:27:07.000Z</time>
</trkpt>
<trkpt lat="46.1237850" lon="10.5021260">
	<ele>2137.40</ele>
	<time>2024-07-25T10:27:08.000Z</time>
</trkpt>
<trkpt lat="46.1237830" lon="10.5021210">
	<ele>2137.40</ele>
	<time>2024-07-25T10:27:09.000Z</time>
</trkpt>
<trkpt lat="46.1237820" lon="10.5021240">
	<ele>2137.40</ele>
	<time>2024-07-25T10:27:10.000Z</time>
</trkpt>
<trkpt lat="46.1237810" lon="10.5021270">
	<ele>2137.40</ele>
	<time>2024-07-25T10:27:11.000Z</time>
</trkpt>
<trkpt lat="46.1237810" lon="10.5021280">
	<ele>2137.40</ele>
	<time>2024-07-25T10:27:12.000Z</time>
</trkpt>
<trkpt lat="46.1237810" lon="10.5021280">
	<ele>2137.40</ele>
	<time>2024-07-25T10:27:13.000Z</time>
</trkpt>
<trkpt lat="46.1237810" lon="10.5021280">
	<ele>2137.40</ele>
	<time>2024-07-25T10:27:14.000Z</time>
</trkpt>
<trkpt lat="46.1237810" lon="10.5021280">
	<ele>2137.40</ele>
	<time>2024-07-25T10:27:15.000Z</time>
</trkpt>
<trkpt lat="46.1237810" lon="10.5021280">
	<ele>2137.40</ele>
	<time>2024-07-25T10:27:16.000Z</time>
</trkpt>
<trkpt lat="46.1237810" lon="10.5021280">
	<ele>2137.40</ele>
	<time>2024-07-25T10:27:17.000Z</time>
</trkpt>
<trkpt lat="46.1237810" lon="10.5021280">
	<ele>2137.40</ele>
	<time>2024-07-25T10:27:18.000Z</time>
</trkpt>
<trkpt lat="46.1237810" lon="10.5021280">
	<ele>2137.40</ele>
	<time>2024-07-25T10:27:19.000Z</time>
</trkpt>
<trkpt lat="46.1237810" lon="10.5021280">
	<ele>2137.40</ele>
	<time>2024-07-25T10:27:20.000Z</time>
</trkpt>
<trkpt lat="46.1237810" lon="10.5021280">
	<ele>2137.40</ele>
	<time>2024-07-25T10:27:21.000Z</time>
</trkpt>
<trkpt lat="46.1237810" lon="10.5021280">
	<ele>2137.40</ele>
	<time>2024-07-25T10:27:22.000Z</time>
</trkpt>
<trkpt lat="46.1237810" lon="10.5021280">
	<ele>2137.40</ele>
	<time>2024-07-25T10:27:23.000Z</time>
</trkpt>
<trkpt lat="46.1237810" lon="10.5021280">
	<ele>2137.40</ele>
	<time>2024-07-25T10:27:24.000Z</time>
</trkpt>
<trkpt lat="46.1237810" lon="10.5021280">
	<ele>2137.40</ele>
	<time>2024-07-25T10:27:25.000Z</time>
</trkpt>
<trkpt lat="46.1237820" lon="10.5021280">
	<ele>2137.40</ele>
	<time>2024-07-25T10:27:26.000Z</time>
</trkpt>
<trkpt lat="46.1237830" lon="10.5021280">
	<ele>2137.40</ele>
	<time>2024-07-25T10:27:27.000Z</time>
</trkpt>
<trkpt lat="46.1237840" lon="10.5021270">
	<ele>2137.40</ele>
	<time>2024-07-25T10:27:28.000Z</time>
</trkpt>
<trkpt lat="46.1237840" lon="10.5021260">
	<ele>2137.40</ele>
	<time>2024-07-25T10:27:29.000Z</time>
</trkpt>
<trkpt lat="46.1237840" lon="10.5021250">
	<ele>2137.40</ele>
	<time>2024-07-25T10:27:30.000Z</time>
</trkpt>
<trkpt lat="46.1237840" lon="10.5021250">
	<ele>2137.40</ele>
	<time>2024-07-25T10:27:31.000Z</time>
</trkpt>
<trkpt lat="46.1237840" lon="10.5021240">
	<ele>2137.40</ele>
	<time>2024-07-25T10:27:32.000Z</time>
</trkpt>
<trkpt lat="46.1237850" lon="10.5021240">
	<ele>2137.40</ele>
	<time>2024-07-25T10:27:33.000Z</time>
</trkpt>
<trkpt lat="46.1237850" lon="10.5021230">
	<ele>2137.40</ele>
	<time>2024-07-25T10:27:34.000Z</time>
</trkpt>
<trkpt lat="46.1237850" lon="10.5021230">
	<ele>2137.40</ele>
	<time>2024-07-25T10:27:35.000Z</time>
</trkpt>
<trkpt lat="46.1237860" lon="10.5021230">
	<ele>2137.40</ele>
	<time>2024-07-25T10:27:36.000Z</time>
</trkpt>
<trkpt lat="46.1237860" lon="10.5021230">
	<ele>2137.40</ele>
	<time>2024-07-25T10:27:37.000Z</time>
</trkpt>
<trkpt lat="46.1237870" lon="10.5021220">
	<ele>2137.40</ele>
	<time>2024-07-25T10:27:38.000Z</time>
</trkpt>
<trkpt lat="46.1237870" lon="10.5021210">
	<ele>2137.40</ele>
	<time>2024-07-25T10:27:39.000Z</time>
</trkpt>
<trkpt lat="46.1237870" lon="10.5021190">
	<ele>2137.40</ele>
	<time>2024-07-25T10:27:40.000Z</time>
</trkpt>
<trkpt lat="46.1237870" lon="10.5021190">
	<ele>2137.40</ele>
	<time>2024-07-25T10:27:41.000Z</time>
</trkpt>
<trkpt lat="46.1237870" lon="10.5021170">
	<ele>2137.40</ele>
	<time>2024-07-25T10:27:42.000Z</time>
</trkpt>
<trkpt lat="46.1237870" lon="10.5021160">
	<ele>2137.40</ele>
	<time>2024-07-25T10:27:43.000Z</time>
</trkpt>
<trkpt lat="46.1237870" lon="10.5021140">
	<ele>2137.40</ele>
	<time>2024-07-25T10:27:44.000Z</time>
</trkpt>
<trkpt lat="46.1237870" lon="10.5021140">
	<ele>2137.40</ele>
	<time>2024-07-25T10:27:45.000Z</time>
</trkpt>
<trkpt lat="46.1237870" lon="10.5021130">
	<ele>2137.40</ele>
	<time>2024-07-25T10:27:46.000Z</time>
</trkpt>
<trkpt lat="46.1237870" lon="10.5021110">
	<ele>2137.40</ele>
	<time>2024-07-25T10:27:47.000Z</time>
</trkpt>
<trkpt lat="46.1237870" lon="10.5021100">
	<ele>2137.40</ele>
	<time>2024-07-25T10:27:48.000Z</time>
</trkpt>
<trkpt lat="46.1237870" lon="10.5021100">
	<ele>2137.40</ele>
	<time>2024-07-25T10:27:49.000Z</time>
</trkpt>
<trkpt lat="46.1237870" lon="10.5021100">
	<ele>2137.40</ele>
	<time>2024-07-25T10:27:50.000Z</time>
</trkpt>
<trkpt lat="46.1237870" lon="10.5021100">
	<ele>2137.40</ele>
	<time>2024-07-25T10:27:51.000Z</time>
</trkpt>
<trkpt lat="46.1237870" lon="10.5021100">
	<ele>2137.40</ele>
	<time>2024-07-25T10:27:52.000Z</time>
</trkpt>
<trkpt lat="46.1237870" lon="10.5021100">
	<ele>2137.40</ele>
	<time>2024-07-25T10:27:53.000Z</time>
</trkpt>
<trkpt lat="46.1237860" lon="10.5021090">
	<ele>2137.40</ele>
	<time>2024-07-25T10:27:54.000Z</time>
</trkpt>
<trkpt lat="46.1237850" lon="10.5021090">
	<ele>2137.40</ele>
	<time>2024-07-25T10:27:55.000Z</time>
</trkpt>
<trkpt lat="46.1237850" lon="10.5021090">
	<ele>2137.40</ele>
	<time>2024-07-25T10:27:56.000Z</time>
</trkpt>
<trkpt lat="46.1237840" lon="10.5021090">
	<ele>2137.40</ele>
	<time>2024-07-25T10:27:57.000Z</time>
</trkpt>
<trkpt lat="46.1237840" lon="10.5021090">
	<ele>2137.40</ele>
	<time>2024-07-25T10:27:58.000Z</time>
</trkpt>
<trkpt lat="46.1237840" lon="10.5021080">
	<ele>2137.40</ele>
	<time>2024-07-25T10:27:59.000Z</time>
</trkpt>
<trkpt lat="46.1237840" lon="10.5021080">
	<ele>2137.40</ele>
	<time>2024-07-25T10:28:00.000Z</time>
</trkpt>
<trkpt lat="46.1237840" lon="10.5021080">
	<ele>2137.40</ele>
	<time>2024-07-25T10:28:01.000Z</time>
</trkpt>
<trkpt lat="46.1237840" lon="10.5021070">
	<ele>2137.40</ele>
	<time>2024-07-25T10:28:02.000Z</time>
</trkpt>
<trkpt lat="46.1237840" lon="10.5021060">
	<ele>2137.40</ele>
	<time>2024-07-25T10:28:03.000Z</time>
</trkpt>
<trkpt lat="46.1237840" lon="10.5021060">
	<ele>2137.40</ele>
	<time>2024-07-25T10:28:04.000Z</time>
</trkpt>
<trkpt lat="46.1237840" lon="10.5021070">
	<ele>2137.40</ele>
	<time>2024-07-25T10:28:05.000Z</time>
</trkpt>
<trkpt lat="46.1237830" lon="10.5021090">
	<ele>2137.40</ele>
	<time>2024-07-25T10:28:06.000Z</time>
</trkpt>
<trkpt lat="46.1237810" lon="10.5021130">
	<ele>2137.40</ele>
	<time>2024-07-25T10:28:07.000Z</time>
</trkpt>
<trkpt lat="46.1237800" lon="10.5021140">
	<ele>2137.40</ele>
	<time>2024-07-25T10:28:08.000Z</time>
</trkpt>
<trkpt lat="46.1237800" lon="10.5021150">
	<ele>2137.40</ele>
	<time>2024-07-25T10:28:09.000Z</time>
</trkpt>
<trkpt lat="46.1237800" lon="10.5021150">
	<ele>2137.40</ele>
	<time>2024-07-25T10:28:10.000Z</time>
</trkpt>
<trkpt lat="46.1237800" lon="10.5021150">
	<ele>2137.40</ele>
	<time>2024-07-25T10:28:11.000Z</time>
</trkpt>
<trkpt lat="46.1237800" lon="10.5021150">
	<ele>2137.40</ele>
	<time>2024-07-25T10:28:12.000Z</time>
</trkpt>
<trkpt lat="46.1237800" lon="10.5021150">
	<ele>2137.40</ele>
	<time>2024-07-25T10:28:13.000Z</time>
</trkpt>
<trkpt lat="46.1237800" lon="10.5021150">
	<ele>2137.40</ele>
	<time>2024-07-25T10:28:14.000Z</time>
</trkpt>
<trkpt lat="46.1237800" lon="10.5021150">
	<ele>2137.40</ele>
	<time>2024-07-25T10:28:15.000Z</time>
</trkpt>
<trkpt lat="46.1237800" lon="10.5021150">
	<ele>2137.40</ele>
	<time>2024-07-25T10:28:16.000Z</time>
</trkpt>
<trkpt lat="46.1237800" lon="10.5021150">
	<ele>2137.40</ele>
	<time>2024-07-25T10:28:17.000Z</time>
</trkpt>
<trkpt lat="46.1237800" lon="10.5021150">
	<ele>2137.40</ele>
	<time>2024-07-25T10:28:18.000Z</time>
</trkpt>
<trkpt lat="46.1237800" lon="10.5021150">
	<ele>2137.40</ele>
	<time>2024-07-25T10:28:19.000Z</time>
</trkpt>
<trkpt lat="46.1237800" lon="10.5021150">
	<ele>2137.40</ele>
	<time>2024-07-25T10:28:20.000Z</time>
</trkpt>
<trkpt lat="46.1237800" lon="10.5021150">
	<ele>2137.40</ele>
	<time>2024-07-25T10:28:21.000Z</time>
</trkpt>
<trkpt lat="46.1237790" lon="10.5021150">
	<ele>2137.40</ele>
	<time>2024-07-25T10:28:22.000Z</time>
</trkpt>
<trkpt lat="46.1237790" lon="10.5021140">
	<ele>2137.40</ele>
	<time>2024-07-25T10:28:23.000Z</time>
</trkpt>
<trkpt lat="46.1237790" lon="10.5021140">
	<ele>2137.40</ele>
	<time>2024-07-25T10:28:24.000Z</time>
</trkpt>
<trkpt lat="46.1237790" lon="10.5021130">
	<ele>2137.40</ele>
	<time>2024-07-25T10:28:25.000Z</time>
</trkpt>
<trkpt lat="46.1237790" lon="10.5021130">
	<ele>2137.40</ele>
	<time>2024-07-25T10:28:26.000Z</time>
</trkpt>
<trkpt lat="46.1237790" lon="10.5021110">
	<ele>2137.40</ele>
	<time>2024-07-25T10:28:27.000Z</time>
</trkpt>
<trkpt lat="46.1237790" lon="10.5021090">
	<ele>2137.40</ele>
	<time>2024-07-25T10:28:28.000Z</time>
</trkpt>
<trkpt lat="46.1237790" lon="10.5021070">
	<ele>2137.40</ele>
	<time>2024-07-25T10:28:29.000Z</time>
</trkpt>
<trkpt lat="46.1237790" lon="10.5021060">
	<ele>2137.40</ele>
	<time>2024-07-25T10:28:30.000Z</time>
</trkpt>
<trkpt lat="46.1237790" lon="10.5021060">
	<ele>2137.40</ele>
	<time>2024-07-25T10:28:31.000Z</time>
</trkpt>
<trkpt lat="46.1237790" lon="10.5021050">
	<ele>2137.40</ele>
	<time>2024-07-25T10:28:32.000Z</time>
</trkpt>
<trkpt lat="46.1237780" lon="10.5021030">
	<ele>2137.40</ele>
	<time>2024-07-25T10:28:33.000Z</time>
</trkpt>
<trkpt lat="46.1237770" lon="10.5021030">
	<ele>2137.40</ele>
	<time>2024-07-25T10:28:34.000Z</time>
</trkpt>
<trkpt lat="46.1237740" lon="10.5021120">
	<ele>2137.40</ele>
	<time>2024-07-25T10:28:35.000Z</time>
</trkpt>
<trkpt lat="46.1237740" lon="10.5021140">
	<ele>2137.40</ele>
	<time>2024-07-25T10:28:36.000Z</time>
</trkpt>
<trkpt lat="46.1237730" lon="10.5021140">
	<ele>2137.40</ele>
	<time>2024-07-25T10:28:37.000Z</time>
</trkpt>
<trkpt lat="46.1237730" lon="10.5021140">
	<ele>2137.40</ele>
	<time>2024-07-25T10:28:38.000Z</time>
</trkpt>
<trkpt lat="46.1237730" lon="10.5021140">
	<ele>2137.40</ele>
	<time>2024-07-25T10:28:39.000Z</time>
</trkpt>
<trkpt lat="46.1237730" lon="10.5021140">
	<ele>2137.40</ele>
	<time>2024-07-25T10:28:40.000Z</time>
</trkpt>
<trkpt lat="46.1237730" lon="10.5021140">
	<ele>2137.40</ele>
	<time>2024-07-25T10:28:41.000Z</time>
</trkpt>
<trkpt lat="46.1237730" lon="10.5021140">
	<ele>2137.40</ele>
	<time>2024-07-25T10:28:42.000Z</time>
</trkpt>
<trkpt lat="46.1237730" lon="10.5021140">
	<ele>2137.40</ele>
	<time>2024-07-25T10:28:43.000Z</time>
</trkpt>
<trkpt lat="46.1237740" lon="10.5021110">
	<ele>2137.40</ele>
	<time>2024-07-25T10:28:44.000Z</time>
</trkpt>
<trkpt lat="46.1237740" lon="10.5021100">
	<ele>2137.40</ele>
	<time>2024-07-25T10:28:45.000Z</time>
</trkpt>
<trkpt lat="46.1237740" lon="10.5021100">
	<ele>2137.40</ele>
	<time>2024-07-25T10:28:46.000Z</time>
</trkpt>
<trkpt lat="46.1237740" lon="10.5021090">
	<ele>2137.40</ele>
	<time>2024-07-25T10:28:47.000Z</time>
</trkpt>
<trkpt lat="46.1237740" lon="10.5021080">
	<ele>2137.40</ele>
	<time>2024-07-25T10:28:48.000Z</time>
</trkpt>
<trkpt lat="46.1237750" lon="10.5021070">
	<ele>2137.40</ele>
	<time>2024-07-25T10:28:49.000Z</time>
</trkpt>
<trkpt lat="46.1237750" lon="10.5021070">
	<ele>2137.40</ele>
	<time>2024-07-25T10:28:50.000Z</time>
</trkpt>
<trkpt lat="46.1237750" lon="10.5021040">
	<ele>2137.40</ele>
	<time>2024-07-25T10:28:51.000Z</time>
</trkpt>
<trkpt lat="46.1237750" lon="10.5021030">
	<ele>2137.40</ele>
	<time>2024-07-25T10:28:52.000Z</time>
</trkpt>
<trkpt lat="46.1237750" lon="10.5021000">
	<ele>2137.40</ele>
	<time>2024-07-25T10:28:53.000Z</time>
</trkpt>
<trkpt lat="46.1237750" lon="10.5020990">
	<ele>2137.40</ele>
	<time>2024-07-25T10:28:54.000Z</time>
</trkpt>
<trkpt lat="46.1237750" lon="10.5020980">
	<ele>2137.40</ele>
	<time>2024-07-25T10:28:55.000Z</time>
</trkpt>
<trkpt lat="46.1237750" lon="10.5020980">
	<ele>2137.40</ele>
	<time>2024-07-25T10:28:56.000Z</time>
</trkpt>
<trkpt lat="46.1237750" lon="10.5020980">
	<ele>2137.40</ele>
	<time>2024-07-25T10:28:57.000Z</time>
</trkpt>
<trkpt lat="46.1237750" lon="10.5020970">
	<ele>2137.40</ele>
	<time>2024-07-25T10:28:58.000Z</time>
</trkpt>
<trkpt lat="46.1237750" lon="10.5020960">
	<ele>2137.40</ele>
	<time>2024-07-25T10:28:59.000Z</time>
</trkpt>
<trkpt lat="46.1237740" lon="10.5020940">
	<ele>2137.40</ele>
	<time>2024-07-25T10:29:00.000Z</time>
</trkpt>
<trkpt lat="46.1237720" lon="10.5020860">
	<ele>2137.40</ele>
	<time>2024-07-25T10:29:01.000Z</time>
</trkpt>
<trkpt lat="46.1237630" lon="10.5020720">
	<ele>2137.40</ele>
	<time>2024-07-25T10:29:02.000Z</time>
</trkpt>
<trkpt lat="46.1237540" lon="10.5020520">
	<ele>2137.40</ele>
	<time>2024-07-25T10:29:03.000Z</time>
</trkpt>
<trkpt lat="46.1237400" lon="10.5020420">
	<ele>2137.40</ele>
	<time>2024-07-25T10:29:04.000Z</time>
</trkpt>
<trkpt lat="46.1237350" lon="10.5020320">
	<ele>2137.40</ele>
	<time>2024-07-25T10:29:05.000Z</time>
</trkpt>
<trkpt lat="46.1237230" lon="10.5020200">
	<ele>2137.40</ele>
	<time>2024-07-25T10:29:06.000Z</time>
</trkpt>
<trkpt lat="46.1237150" lon="10.5020090">
	<ele>2137.40</ele>
	<time>2024-07-25T10:29:07.000Z</time>
</trkpt>
<trkpt lat="46.1237040" lon="10.5020040">
	<ele>2137.40</ele>
	<time>2024-07-25T10:29:08.000Z</time>
</trkpt>
<trkpt lat="46.1236920" lon="10.5019960">
	<ele>2137.40</ele>
	<time>2024-07-25T10:29:09.000Z</time>
</trkpt>
<trkpt lat="46.1236780" lon="10.5019960">
	<ele>2137.40</ele>
	<time>2024-07-25T10:29:10.000Z</time>
</trkpt>
<trkpt lat="46.1236680" lon="10.5019980">
	<ele>2137.40</ele>
	<time>2024-07-25T10:29:11.000Z</time>
</trkpt>
<trkpt lat="46.1236610" lon="10.5019910">
	<ele>2137.40</ele>
	<time>2024-07-25T10:29:12.000Z</time>
</trkpt>
<trkpt lat="46.1236500" lon="10.5019860">
	<ele>2137.40</ele>
	<time>2024-07-25T10:29:13.000Z</time>
</trkpt>
<trkpt lat="46.1236370" lon="10.5019770">
	<ele>2138.60</ele>
	<time>2024-07-25T10:29:14.000Z</time>
</trkpt>
<trkpt lat="46.1236240" lon="10.5019700">
	<ele>2139.20</ele>
	<time>2024-07-25T10:29:15.000Z</time>
</trkpt>
<trkpt lat="46.1236150" lon="10.5019610">
	<ele>2139.60</ele>
	<time>2024-07-25T10:29:16.000Z</time>
</trkpt>
<trkpt lat="46.1236070" lon="10.5019430">
	<ele>2140.00</ele>
	<time>2024-07-25T10:29:17.000Z</time>
</trkpt>
<trkpt lat="46.1236010" lon="10.5019230">
	<ele>2140.00</ele>
	<time>2024-07-25T10:29:18.000Z</time>
</trkpt>
<trkpt lat="46.1235920" lon="10.5019090">
	<ele>2140.40</ele>
	<time>2024-07-25T10:29:19.000Z</time>
</trkpt>
<trkpt lat="46.1235850" lon="10.5018960">
	<ele>2140.40</ele>
	<time>2024-07-25T10:29:20.000Z</time>
</trkpt>
<trkpt lat="46.1235820" lon="10.5018820">
	<ele>2140.60</ele>
	<time>2024-07-25T10:29:21.000Z</time>
</trkpt>
<trkpt lat="46.1235800" lon="10.5018700">
	<ele>2140.60</ele>
	<time>2024-07-25T10:29:22.000Z</time>
</trkpt>
<trkpt lat="46.1235830" lon="10.5018530">
	<ele>2140.60</ele>
	<time>2024-07-25T10:29:23.000Z</time>
</trkpt>
<trkpt lat="46.1235890" lon="10.5018330">
	<ele>2140.60</ele>
	<time>2024-07-25T10:29:24.000Z</time>
</trkpt>
<trkpt lat="46.1235960" lon="10.5018130">
	<ele>2140.40</ele>
	<time>2024-07-25T10:29:25.000Z</time>
</trkpt>
<trkpt lat="46.1235990" lon="10.5017900">
	<ele>2140.20</ele>
	<time>2024-07-25T10:29:26.000Z</time>
</trkpt>
<trkpt lat="46.1236000" lon="10.5017690">
	<ele>2140.20</ele>
	<time>2024-07-25T10:29:27.000Z</time>
</trkpt>
<trkpt lat="46.1236050" lon="10.5017470">
	<ele>2140.20</ele>
	<time>2024-07-25T10:29:28.000Z</time>
</trkpt>
<trkpt lat="46.1236160" lon="10.5017250">
	<ele>2140.00</ele>
	<time>2024-07-25T10:29:29.000Z</time>
</trkpt>
<trkpt lat="46.1236140" lon="10.5017130">
	<ele>2140.00</ele>
	<time>2024-07-25T10:29:30.000Z</time>
</trkpt>
<trkpt lat="46.1236130" lon="10.5017070">
	<ele>2140.00</ele>
	<time>2024-07-25T10:29:31.000Z</time>
</trkpt>
<trkpt lat="46.1236130" lon="10.5017060">
	<ele>2140.00</ele>
	<time>2024-07-25T10:29:32.000Z</time>
</trkpt>
<trkpt lat="46.1236140" lon="10.5017090">
	<ele>2139.80</ele>
	<time>2024-07-25T10:29:33.000Z</time>
</trkpt>
<trkpt lat="46.1235870" lon="10.5018090">
	<ele>2140.00</ele>
	<time>2024-07-25T10:33:22.000Z</time>
</trkpt>
<trkpt lat="46.1233400" lon="10.5014760">
	<ele>2140.00</ele>
	<time>2024-07-25T10:33:30.000Z</time>
</trkpt>
<trkpt lat="46.1232470" lon="10.5014420">
	<ele>2140.00</ele>
	<time>2024-07-25T10:33:31.000Z</time>
</trkpt>
<trkpt lat="46.1231770" lon="10.5015140">
	<ele>2140.00</ele>
	<time>2024-07-25T10:33:32.000Z</time>
</trkpt>
<trkpt lat="46.1231650" lon="10.5014940">
	<ele>2140.00</ele>
	<time>2024-07-25T10:33:33.000Z</time>
</trkpt>
<trkpt lat="46.1231760" lon="10.5015010">
	<ele>2140.20</ele>
	<time>2024-07-25T10:33:34.000Z</time>
</trkpt>
<trkpt lat="46.1232090" lon="10.5015310">
	<ele>2140.20</ele>
	<time>2024-07-25T10:33:35.000Z</time>
</trkpt>
<trkpt lat="46.1232620" lon="10.5015630">
	<ele>2140.00</ele>
	<time>2024-07-25T10:33:36.000Z</time>
</trkpt>
<trkpt lat="46.1232860" lon="10.5015620">
	<ele>2140.00</ele>
	<time>2024-07-25T10:33:37.000Z</time>
</trkpt>
<trkpt lat="46.1233160" lon="10.5015830">
	<ele>2140.00</ele>
	<time>2024-07-25T10:33:38.000Z</time>
</trkpt>
<trkpt lat="46.1233530" lon="10.5015830">
	<ele>2140.00</ele>
	<time>2024-07-25T10:33:39.000Z</time>
</trkpt>
<trkpt lat="46.1234000" lon="10.5015760">
	<ele>2140.00</ele>
	<time>2024-07-25T10:33:40.000Z</time>
</trkpt>
<trkpt lat="46.1234370" lon="10.5015590">
	<ele>2140.00</ele>
	<time>2024-07-25T10:33:41.000Z</time>
</trkpt>
<trkpt lat="46.1234610" lon="10.5015260">
	<ele>2140.20</ele>
	<time>2024-07-25T10:33:42.000Z</time>
</trkpt>
<trkpt lat="46.1234720" lon="10.5015010">
	<ele>2140.20</ele>
	<time>2024-07-25T10:33:43.000Z</time>
</trkpt>
<trkpt lat="46.1234650" lon="10.5015030">
	<ele>2140.20</ele>
	<time>2024-07-25T10:33:44.000Z</time>
</trkpt>
<trkpt lat="46.1235580" lon="10.5015060">
	<ele>2140.80</ele>
	<time>2024-07-25T10:33:47.000Z</time>
</trkpt>
<trkpt lat="46.1236130" lon="10.5015460">
	<ele>2140.80</ele>
	<time>2024-07-25T10:33:48.000Z</time>
</trkpt>
<trkpt lat="46.1236660" lon="10.5015640">
	<ele>2140.80</ele>
	<time>2024-07-25T10:33:49.000Z</time>
</trkpt>
<trkpt lat="46.1236660" lon="10.5015600">
	<ele>2140.80</ele>
	<time>2024-07-25T10:33:50.000Z</time>
</trkpt>
<trkpt lat="46.1236830" lon="10.5015430">
	<ele>2140.80</ele>
	<time>2024-07-25T10:33:51.000Z</time>
</trkpt>
<trkpt lat="46.1236930" lon="10.5015500">
	<ele>2140.80</ele>
	<time>2024-07-25T10:33:52.000Z</time>
</trkpt>
<trkpt lat="46.1237090" lon="10.5015400">
	<ele>2140.80</ele>
	<time>2024-07-25T10:33:53.000Z</time>
</trkpt>
<trkpt lat="46.1237180" lon="10.5015220">
	<ele>2140.60</ele>
	<time>2024-07-25T10:33:54.000Z</time>
</trkpt>
<trkpt lat="46.1237250" lon="10.5014960">
	<ele>2140.60</ele>
	<time>2024-07-25T10:33:55.000Z</time>
</trkpt>
<trkpt lat="46.1237260" lon="10.5014940">
	<ele>2140.40</ele>
	<time>2024-07-25T10:33:56.000Z</time>
</trkpt>
<trkpt lat="46.1237240" lon="10.5014830">
	<ele>2140.20</ele>
	<time>2024-07-25T10:33:57.000Z</time>
</trkpt>
<trkpt lat="46.1237260" lon="10.5014590">
	<ele>2139.80</ele>
	<time>2024-07-25T10:33:58.000Z</time>
</trkpt>
<trkpt lat="46.1237300" lon="10.5014330">
	<ele>2139.60</ele>
	<time>2024-07-25T10:33:59.000Z</time>
</trkpt>
<trkpt lat="46.1237310" lon="10.5014160">
	<ele>2139.60</ele>
	<time>2024-07-25T10:34:00.000Z</time>
</trkpt>
<trkpt lat="46.1237360" lon="10.5014000">
	<ele>2139.20</ele>
	<time>2024-07-25T10:34:01.000Z</time>
</trkpt>
<trkpt lat="46.1237420" lon="10.5013810">
	<ele>2139.20</ele>
	<time>2024-07-25T10:34:02.000Z</time>
</trkpt>
<trkpt lat="46.1237470" lon="10.5013640">
	<ele>2139.00</ele>
	<time>2024-07-25T10:34:03.000Z</time>
</trkpt>
<trkpt lat="46.1237530" lon="10.5013440">
	<ele>2139.00</ele>
	<time>2024-07-25T10:34:04.000Z</time>
</trkpt>
<trkpt lat="46.1237590" lon="10.5013280">
	<ele>2139.00</ele>
	<time>2024-07-25T10:34:05.000Z</time>
</trkpt>
<trkpt lat="46.1237640" lon="10.5013170">
	<ele>2139.00</ele>
	<time>2024-07-25T10:34:06.000Z</time>
</trkpt>
<trkpt lat="46.1237690" lon="10.5012990">
	<ele>2139.20</ele>
	<time>2024-07-25T10:34:07.000Z</time>
</trkpt>
<trkpt lat="46.1237730" lon="10.5012780">
	<ele>2139.20</ele>
	<time>2024-07-25T10:34:08.000Z</time>
</trkpt>
<trkpt lat="46.1237770" lon="10.5012560">
	<ele>2139.40</ele>
	<time>2024-07-25T10:34:09.000Z</time>
</trkpt>
<trkpt lat="46.1237810" lon="10.5012400">
	<ele>2139.60</ele>
	<time>2024-07-25T10:34:10.000Z</time>
</trkpt>
<trkpt lat="46.1237850" lon="10.5012210">
	<ele>2139.60</ele>
	<time>2024-07-25T10:34:11.000Z</time>
</trkpt>
<trkpt lat="46.1237870" lon="10.5012060">
	<ele>2139.80</ele>
	<time>2024-07-25T10:34:12.000Z</time>
</trkpt>
<trkpt lat="46.1237880" lon="10.5011930">
	<ele>2139.80</ele>
	<time>2024-07-25T10:34:13.000Z</time>
</trkpt>
<trkpt lat="46.1237900" lon="10.5011750">
	<ele>2140.00</ele>
	<time>2024-07-25T10:34:14.000Z</time>
</trkpt>
<trkpt lat="46.1237920" lon="10.5011580">
	<ele>2140.00</ele>
	<time>2024-07-25T10:34:15.000Z</time>
</trkpt>
<trkpt lat="46.1237960" lon="10.5011400">
	<ele>2140.20</ele>
	<time>2024-07-25T10:34:16.000Z</time>
</trkpt>
<trkpt lat="46.1238030" lon="10.5011250">
	<ele>2140.20</ele>
	<time>2024-07-25T10:34:17.000Z</time>
</trkpt>
<trkpt lat="46.1238070" lon="10.5011130">
	<ele>2140.20</ele>
	<time>2024-07-25T10:34:18.000Z</time>
</trkpt>
<trkpt lat="46.1238140" lon="10.5011000">
	<ele>2140.20</ele>
	<time>2024-07-25T10:34:19.000Z</time>
</trkpt>
<trkpt lat="46.1238210" lon="10.5010830">
	<ele>2140.20</ele>
	<time>2024-07-25T10:34:20.000Z</time>
</trkpt>
<trkpt lat="46.1238280" lon="10.5010670">
	<ele>2140.20</ele>
	<time>2024-07-25T10:34:21.000Z</time>
</trkpt>
<trkpt lat="46.1238340" lon="10.5010500">
	<ele>2140.20</ele>
	<time>2024-07-25T10:34:22.000Z</time>
</trkpt>
<trkpt lat="46.1238330" lon="10.5010320">
	<ele>2140.00</ele>
	<time>2024-07-25T10:34:23.000Z</time>
</trkpt>
<trkpt lat="46.1238340" lon="10.5010160">
	<ele>2139.80</ele>
	<time>2024-07-25T10:34:24.000Z</time>
</trkpt>
<trkpt lat="46.1238360" lon="10.5010010">
	<ele>2139.40</ele>
	<time>2024-07-25T10:34:25.000Z</time>
</trkpt>
<trkpt lat="46.1238400" lon="10.5009910">
	<ele>2139.20</ele>
	<time>2024-07-25T10:34:26.000Z</time>
</trkpt>
<trkpt lat="46.1238400" lon="10.5009840">
	<ele>2139.00</ele>
	<time>2024-07-25T10:34:27.000Z</time>
</trkpt>
<trkpt lat="46.1238420" lon="10.5009730">
	<ele>2138.80</ele>
	<time>2024-07-25T10:34:28.000Z</time>
</trkpt>
<trkpt lat="46.1238450" lon="10.5009660">
	<ele>2138.40</ele>
	<time>2024-07-25T10:34:29.000Z</time>
</trkpt>
<trkpt lat="46.1238520" lon="10.5009540">
	<ele>2138.20</ele>
	<time>2024-07-25T10:34:30.000Z</time>
</trkpt>
<trkpt lat="46.1238590" lon="10.5009360">
	<ele>2138.00</ele>
	<time>2024-07-25T10:34:31.000Z</time>
</trkpt>
<trkpt lat="46.1238650" lon="10.5009190">
	<ele>2137.80</ele>
	<time>2024-07-25T10:34:32.000Z</time>
</trkpt>
<trkpt lat="46.1238710" lon="10.5009040">
	<ele>2137.60</ele>
	<time>2024-07-25T10:34:33.000Z</time>
</trkpt>
<trkpt lat="46.1238750" lon="10.5008830">
	<ele>2137.40</ele>
	<time>2024-07-25T10:34:34.000Z</time>
</trkpt>
<trkpt lat="46.1238800" lon="10.5008680">
	<ele>2137.00</ele>
	<time>2024-07-25T10:34:35.000Z</time>
</trkpt>
<trkpt lat="46.1238850" lon="10.5008520">
	<ele>2136.80</ele>
	<time>2024-07-25T10:34:36.000Z</time>
</trkpt>
<trkpt lat="46.1238900" lon="10.5008390">
	<ele>2136.60</ele>
	<time>2024-07-25T10:34:37.000Z</time>
</trkpt>
<trkpt lat="46.1238940" lon="10.5008290">
	<ele>2136.40</ele>
	<time>2024-07-25T10:34:38.000Z</time>
</trkpt>
<trkpt lat="46.1238980" lon="10.5008170">
	<ele>2136.20</ele>
	<time>2024-07-25T10:34:39.000Z</time>
</trkpt>
<trkpt lat="46.1239010" lon="10.5008030">
	<ele>2136.20</ele>
	<time>2024-07-25T10:34:40.000Z</time>
</trkpt>
<trkpt lat="46.1239070" lon="10.5007850">
	<ele>2136.00</ele>
	<time>2024-07-25T10:34:41.000Z</time>
</trkpt>
<trkpt lat="46.1239090" lon="10.5007740">
	<ele>2135.60</ele>
	<time>2024-07-25T10:34:42.000Z</time>
</trkpt>
<trkpt lat="46.1239100" lon="10.5007600">
	<ele>2135.40</ele>
	<time>2024-07-25T10:34:43.000Z</time>
</trkpt>
<trkpt lat="46.1239090" lon="10.5007480">
	<ele>2135.00</ele>
	<time>2024-07-25T10:34:44.000Z</time>
</trkpt>
<trkpt lat="46.1239070" lon="10.5007380">
	<ele>2134.80</ele>
	<time>2024-07-25T10:34:45.000Z</time>
</trkpt>
<trkpt lat="46.1239060" lon="10.5007260">
	<ele>2134.60</ele>
	<time>2024-07-25T10:34:46.000Z</time>
</trkpt>
<trkpt lat="46.1239050" lon="10.5007150">
	<ele>2134.40</ele>
	<time>2024-07-25T10:34:47.000Z</time>
</trkpt>
<trkpt lat="46.1239020" lon="10.5007060">
	<ele>2134.40</ele>
	<time>2024-07-25T10:34:48.000Z</time>
</trkpt>
<trkpt lat="46.1238990" lon="10.5006920">
	<ele>2134.20</ele>
	<time>2024-07-25T10:34:49.000Z</time>
</trkpt>
<trkpt lat="46.1238960" lon="10.5006800">
	<ele>2133.80</ele>
	<time>2024-07-25T10:34:50.000Z</time>
</trkpt>
<trkpt lat="46.1238950" lon="10.5006660">
	<ele>2133.60</ele>
	<time>2024-07-25T10:34:51.000Z</time>
</trkpt>
<trkpt lat="46.1238950" lon="10.5006500">
	<ele>2133.20</ele>
	<time>2024-07-25T10:34:52.000Z</time>
</trkpt>
<trkpt lat="46.1238970" lon="10.5006320">
	<ele>2132.80</ele>
	<time>2024-07-25T10:34:53.000Z</time>
</trkpt>
<trkpt lat="46.1238950" lon="10.5006160">
	<ele>2132.80</ele>
	<time>2024-07-25T10:34:54.000Z</time>
</trkpt>
<trkpt lat="46.1238910" lon="10.5006040">
	<ele>2132.60</ele>
	<time>2024-07-25T10:34:55.000Z</time>
</trkpt>
<trkpt lat="46.1238880" lon="10.5005840">
	<ele>2132.60</ele>
	<time>2024-07-25T10:34:56.000Z</time>
</trkpt>
<trkpt lat="46.1238860" lon="10.5005660">
	<ele>2132.40</ele>
	<time>2024-07-25T10:34:57.000Z</time>
</trkpt>
<trkpt lat="46.1238790" lon="10.5005560">
	<ele>2132.20</ele>
	<time>2024-07-25T10:34:58.000Z</time>
</trkpt>
<trkpt lat="46.1238690" lon="10.5005450">
	<ele>2132.00</ele>
	<time>2024-07-25T10:34:59.000Z</time>
</trkpt>
<trkpt lat="46.1238570" lon="10.5005370">
	<ele>2131.80</ele>
	<time>2024-07-25T10:35:00.000Z</time>
</trkpt>
<trkpt lat="46.1238430" lon="10.5005350">
	<ele>2131.80</ele>
	<time>2024-07-25T10:35:01.000Z</time>
</trkpt>
<trkpt lat="46.1238290" lon="10.5005330">
	<ele>2131.40</ele>
	<time>2024-07-25T10:35:02.000Z</time>
</trkpt>
<trkpt lat="46.1238160" lon="10.5005340">
	<ele>2131.00</ele>
	<time>2024-07-25T10:35:03.000Z</time>
</trkpt>
<trkpt lat="46.1238040" lon="10.5005330">
	<ele>2130.80</ele>
	<time>2024-07-25T10:35:04.000Z</time>
</trkpt>
<trkpt lat="46.1237910" lon="10.5005350">
	<ele>2130.60</ele>
	<time>2024-07-25T10:35:05.000Z</time>
</trkpt>
<trkpt lat="46.1237810" lon="10.5005420">
	<ele>2130.60</ele>
	<time>2024-07-25T10:35:06.000Z</time>
</trkpt>
<trkpt lat="46.1237750" lon="10.5005540">
	<ele>2130.40</ele>
	<time>2024-07-25T10:35:07.000Z</time>
</trkpt>
<trkpt lat="46.1237670" lon="10.5005670">
	<ele>2130.20</ele>
	<time>2024-07-25T10:35:08.000Z</time>
</trkpt>
<trkpt lat="46.1237610" lon="10.5005810">
	<ele>2130.00</ele>
	<time>2024-07-25T10:35:09.000Z</time>
</trkpt>
<trkpt lat="46.1237550" lon="10.5005960">
	<ele>2129.60</ele>
	<time>2024-07-25T10:35:10.000Z</time>
</trkpt>
<trkpt lat="46.1237450" lon="10.5006080">
	<ele>2129.00</ele>
	<time>2024-07-25T10:35:11.000Z</time>
</trkpt>
<trkpt lat="46.1237380" lon="10.5006150">
	<ele>2128.60</ele>
	<time>2024-07-25T10:35:12.000Z</time>
</trkpt>
<trkpt lat="46.1237290" lon="10.5006210">
	<ele>2128.40</ele>
	<time>2024-07-25T10:35:13.000Z</time>
</trkpt>
<trkpt lat="46.1237190" lon="10.5006210">
	<ele>2128.00</ele>
	<time>2024-07-25T10:35:14.000Z</time>
</trkpt>
<trkpt lat="46.1237060" lon="10.5006220">
	<ele>2127.80</ele>
	<time>2024-07-25T10:35:15.000Z</time>
</trkpt>
<trkpt lat="46.1236960" lon="10.5006170">
	<ele>2127.60</ele>
	<time>2024-07-25T10:35:16.000Z</time>
</trkpt>
<trkpt lat="46.1236890" lon="10.5006120">
	<ele>2127.20</ele>
	<time>2024-07-25T10:35:17.000Z</time>
</trkpt>
<trkpt lat="46.1236790" lon="10.5006040">
	<ele>2127.00</ele>
	<time>2024-07-25T10:35:18.000Z</time>
</trkpt>
<trkpt lat="46.1236680" lon="10.5005950">
	<ele>2126.80</ele>
	<time>2024-07-25T10:35:19.000Z</time>
</trkpt>
<trkpt lat="46.1236550" lon="10.5005870">
	<ele>2126.60</ele>
	<time>2024-07-25T10:35:20.000Z</time>
</trkpt>
<trkpt lat="46.1236430" lon="10.5005770">
	<ele>2126.60</ele>
	<time>2024-07-25T10:35:21.000Z</time>
</trkpt>
<trkpt lat="46.1236310" lon="10.5005680">
	<ele>2126.40</ele>
	<time>2024-07-25T10:35:22.000Z</time>
</trkpt>
<trkpt lat="46.1236180" lon="10.5005640">
	<ele>2126.40</ele>
	<time>2024-07-25T10:35:23.000Z</time>
</trkpt>
<trkpt lat="46.1236120" lon="10.5005590">
	<ele>2126.20</ele>
	<time>2024-07-25T10:35:24.000Z</time>
</trkpt>
<trkpt lat="46.1236110" lon="10.5005490">
	<ele>2125.80</ele>
	<time>2024-07-25T10:35:25.000Z</time>
</trkpt>
<trkpt lat="46.1236130" lon="10.5005360">
	<ele>2125.80</ele>
	<time>2024-07-25T10:35:26.000Z</time>
</trkpt>
<trkpt lat="46.1236070" lon="10.5005250">
	<ele>2125.60</ele>
	<time>2024-07-25T10:35:27.000Z</time>
</trkpt>
<trkpt lat="46.1235950" lon="10.5005190">
	<ele>2125.60</ele>
	<time>2024-07-25T10:35:28.000Z</time>
</trkpt>
<trkpt lat="46.1235860" lon="10.5005160">
	<ele>2125.40</ele>
	<time>2024-07-25T10:35:29.000Z</time>
</trkpt>
<trkpt lat="46.1235720" lon="10.5005160">
	<ele>2125.40</ele>
	<time>2024-07-25T10:35:30.000Z</time>
</trkpt>
<trkpt lat="46.1235570" lon="10.5005170">
	<ele>2125.40</ele>
	<time>2024-07-25T10:35:31.000Z</time>
</trkpt>
<trkpt lat="46.1235460" lon="10.5005190">
	<ele>2125.20</ele>
	<time>2024-07-25T10:35:32.000Z</time>
</trkpt>
<trkpt lat="46.1235380" lon="10.5005190">
	<ele>2125.20</ele>
	<time>2024-07-25T10:35:33.000Z</time>
</trkpt>
<trkpt lat="46.1235280" lon="10.5005200">
	<ele>2125.00</ele>
	<time>2024-07-25T10:35:34.000Z</time>
</trkpt>
<trkpt lat="46.1235170" lon="10.5005160">
	<ele>2125.00</ele>
	<time>2024-07-25T10:35:35.000Z</time>
</trkpt>
<trkpt lat="46.1235040" lon="10.5005080">
	<ele>2125.00</ele>
	<time>2024-07-25T10:35:36.000Z</time>
</trkpt>
<trkpt lat="46.1234950" lon="10.5004980">
	<ele>2124.60</ele>
	<time>2024-07-25T10:35:37.000Z</time>
</trkpt>
<trkpt lat="46.1234860" lon="10.5004800">
	<ele>2124.20</ele>
	<time>2024-07-25T10:35:38.000Z</time>
</trkpt>
<trkpt lat="46.1234790" lon="10.5004630">
	<ele>2124.00</ele>
	<time>2024-07-25T10:35:39.000Z</time>
</trkpt>
<trkpt lat="46.1234690" lon="10.5004480">
	<ele>2123.80</ele>
	<time>2024-07-25T10:35:40.000Z</time>
</trkpt>
<trkpt lat="46.1234570" lon="10.5004370">
	<ele>2123.60</ele>
	<time>2024-07-25T10:35:41.000Z</time>
</trkpt>
<trkpt lat="46.1234460" lon="10.5004250">
	<ele>2123.40</ele>
	<time>2024-07-25T10:35:42.000Z</time>
</trkpt>
<trkpt lat="46.1234340" lon="10.5004100">
	<ele>2123.40</ele>
	<time>2024-07-25T10:35:43.000Z</time>
</trkpt>
<trkpt lat="46.1234220" lon="10.5003990">
	<ele>2123.20</ele>
	<time>2024-07-25T10:35:44.000Z</time>
</trkpt>
<trkpt lat="46.1234120" lon="10.5003910">
	<ele>2123.00</ele>
	<time>2024-07-25T10:35:45.000Z</time>
</trkpt>
<trkpt lat="46.1233990" lon="10.5003830">
	<ele>2122.80</ele>
	<time>2024-07-25T10:35:46.000Z</time>
</trkpt>
<trkpt lat="46.1233860" lon="10.5003760">
	<ele>2122.60</ele>
	<time>2024-07-25T10:35:47.000Z</time>
</trkpt>
<trkpt lat="46.1233710" lon="10.5003700">
	<ele>2122.40</ele>
	<time>2024-07-25T10:35:48.000Z</time>
</trkpt>
<trkpt lat="46.1233580" lon="10.5003620">
	<ele>2122.00</ele>
	<time>2024-07-25T10:35:49.000Z</time>
</trkpt>
<trkpt lat="46.1233450" lon="10.5003550">
	<ele>2122.00</ele>
	<time>2024-07-25T10:35:50.000Z</time>
</trkpt>
<trkpt lat="46.1233330" lon="10.5003510">
	<ele>2122.00</ele>
	<time>2024-07-25T10:35:51.000Z</time>
</trkpt>
<trkpt lat="46.1233190" lon="10.5003460">
	<ele>2121.80</ele>
	<time>2024-07-25T10:35:52.000Z</time>
</trkpt>
<trkpt lat="46.1233090" lon="10.5003380">
	<ele>2121.60</ele>
	<time>2024-07-25T10:35:53.000Z</time>
</trkpt>
<trkpt lat="46.1233010" lon="10.5003280">
	<ele>2121.40</ele>
	<time>2024-07-25T10:35:54.000Z</time>
</trkpt>
<trkpt lat="46.1232920" lon="10.5003160">
	<ele>2121.20</ele>
	<time>2024-07-25T10:35:55.000Z</time>
</trkpt>
<trkpt lat="46.1232810" lon="10.5003030">
	<ele>2121.20</ele>
	<time>2024-07-25T10:35:56.000Z</time>
</trkpt>
<trkpt lat="46.1232700" lon="10.5002950">
	<ele>2121.00</ele>
	<time>2024-07-25T10:35:57.000Z</time>
</trkpt>
<trkpt lat="46.1232580" lon="10.5002890">
	<ele>2120.80</ele>
	<time>2024-07-25T10:35:58.000Z</time>
</trkpt>
<trkpt lat="46.1232460" lon="10.5002850">
	<ele>2120.80</ele>
	<time>2024-07-25T10:35:59.000Z</time>
</trkpt>
<trkpt lat="46.1232350" lon="10.5002860">
	<ele>2120.60</ele>
	<time>2024-07-25T10:36:00.000Z</time>
</trkpt>
<trkpt lat="46.1232220" lon="10.5002860">
	<ele>2120.20</ele>
	<time>2024-07-25T10:36:01.000Z</time>
</trkpt>
<trkpt lat="46.1232100" lon="10.5002950">
	<ele>2120.00</ele>
	<time>2024-07-25T10:36:02.000Z</time>
</trkpt>
<trkpt lat="46.1232020" lon="10.5002990">
	<ele>2119.60</ele>
	<time>2024-07-25T10:36:03.000Z</time>
</trkpt>
<trkpt lat="46.1231960" lon="10.5003010">
	<ele>2119.20</ele>
	<time>2024-07-25T10:36:04.000Z</time>
</trkpt>
<trkpt lat="46.1231860" lon="10.5003040">
	<ele>2118.80</ele>
	<time>2024-07-25T10:36:05.000Z</time>
</trkpt>
<trkpt lat="46.1231760" lon="10.5003050">
	<ele>2118.40</ele>
	<time>2024-07-25T10:36:06.000Z</time>
</trkpt>
<trkpt lat="46.1231650" lon="10.5003060">
	<ele>2118.20</ele>
	<time>2024-07-25T10:36:07.000Z</time>
</trkpt>
<trkpt lat="46.1231550" lon="10.5003100">
	<ele>2118.00</ele>
	<time>2024-07-25T10:36:08.000Z</time>
</trkpt>
<trkpt lat="46.1231460" lon="10.5003150">
	<ele>2117.60</ele>
	<time>2024-07-25T10:36:09.000Z</time>
</trkpt>
<trkpt lat="46.1231370" lon="10.5003200">
	<ele>2117.40</ele>
	<time>2024-07-25T10:36:10.000Z</time>
</trkpt>
<trkpt lat="46.1231270" lon="10.5003250">
	<ele>2117.40</ele>
	<time>2024-07-25T10:36:11.000Z</time>
</trkpt>
<trkpt lat="46.1231150" lon="10.5003290">
	<ele>2117.20</ele>
	<time>2024-07-25T10:36:12.000Z</time>
</trkpt>
<trkpt lat="46.1231050" lon="10.5003300">
	<ele>2117.00</ele>
	<time>2024-07-25T10:36:13.000Z</time>
</trkpt>
<trkpt lat="46.1230940" lon="10.5003370">
	<ele>2116.80</ele>
	<time>2024-07-25T10:36:14.000Z</time>
</trkpt>
<trkpt lat="46.1230830" lon="10.5003420">
	<ele>2116.60</ele>
	<time>2024-07-25T10:36:15.000Z</time>
</trkpt>
<trkpt lat="46.1230680" lon="10.5003430">
	<ele>2116.40</ele>
	<time>2024-07-25T10:36:16.000Z</time>
</trkpt>
<trkpt lat="46.1230550" lon="10.5003460">
	<ele>2116.20</ele>
	<time>2024-07-25T10:36:17.000Z</time>
</trkpt>
<trkpt lat="46.1230420" lon="10.5003440">
	<ele>2116.00</ele>
	<time>2024-07-25T10:36:18.000Z</time>
</trkpt>
<trkpt lat="46.1230300" lon="10.5003420">
	<ele>2115.80</ele>
	<time>2024-07-25T10:36:19.000Z</time>
</trkpt>
<trkpt lat="46.1230170" lon="10.5003440">
	<ele>2115.40</ele>
	<time>2024-07-25T10:36:20.000Z</time>
</trkpt>
<trkpt lat="46.1230060" lon="10.5003490">
	<ele>2115.20</ele>
	<time>2024-07-25T10:36:21.000Z</time>
</trkpt>
<trkpt lat="46.1229930" lon="10.5003560">
	<ele>2115.00</ele>
	<time>2024-07-25T10:36:22.000Z</time>
</trkpt>
<trkpt lat="46.1229820" lon="10.5003610">
	<ele>2114.80</ele>
	<time>2024-07-25T10:36:23.000Z</time>
</trkpt>
<trkpt lat="46.1229730" lon="10.5003640">
	<ele>2114.60</ele>
	<time>2024-07-25T10:36:24.000Z</time>
</trkpt>
<trkpt lat="46.1229620" lon="10.5003650">
	<ele>2114.40</ele>
	<time>2024-07-25T10:36:25.000Z</time>
</trkpt>
<trkpt lat="46.1229530" lon="10.5003630">
	<ele>2114.40</ele>
	<time>2024-07-25T10:36:26.000Z</time>
</trkpt>
<trkpt lat="46.1229420" lon="10.5003640">
	<ele>2114.20</ele>
	<time>2024-07-25T10:36:27.000Z</time>
</trkpt>
<trkpt lat="46.1229310" lon="10.5003700">
	<ele>2114.00</ele>
	<time>2024-07-25T10:36:28.000Z</time>
</trkpt>
<trkpt lat="46.1229240" lon="10.5003760">
	<ele>2113.80</ele>
	<time>2024-07-25T10:36:29.000Z</time>
</trkpt>
<trkpt lat="46.1229120" lon="10.5003810">
	<ele>2113.60</ele>
	<time>2024-07-25T10:36:30.000Z</time>
</trkpt>
<trkpt lat="46.1229000" lon="10.5003890">
	<ele>2113.40</ele>
	<time>2024-07-25T10:36:31.000Z</time>
</trkpt>
<trkpt lat="46.1228900" lon="10.5003950">
	<ele>2113.20</ele>
	<time>2024-07-25T10:36:32.000Z</time>
</trkpt>
<trkpt lat="46.1228800" lon="10.5003970">
	<ele>2113.20</ele>
	<time>2024-07-25T10:36:33.000Z</time>
</trkpt>
<trkpt lat="46.1228700" lon="10.5003990">
	<ele>2113.00</ele>
	<time>2024-07-25T10:36:34.000Z</time>
</trkpt>
<trkpt lat="46.1228590" lon="10.5003990">
	<ele>2112.80</ele>
	<time>2024-07-25T10:36:35.000Z</time>
</trkpt>
<trkpt lat="46.1228490" lon="10.5003980">
	<ele>2112.60</ele>
	<time>2024-07-25T10:36:36.000Z</time>
</trkpt>
<trkpt lat="46.1228390" lon="10.5003920">
	<ele>2112.60</ele>
	<time>2024-07-25T10:36:37.000Z</time>
</trkpt>
<trkpt lat="46.1228260" lon="10.5003840">
	<ele>2112.40</ele>
	<time>2024-07-25T10:36:38.000Z</time>
</trkpt>
<trkpt lat="46.1228180" lon="10.5003770">
	<ele>2112.20</ele>
	<time>2024-07-25T10:36:39.000Z</time>
</trkpt>
<trkpt lat="46.1228090" lon="10.5003700">
	<ele>2112.20</ele>
	<time>2024-07-25T10:36:40.000Z</time>
</trkpt>
<trkpt lat="46.1227990" lon="10.5003640">
	<ele>2112.00</ele>
	<time>2024-07-25T10:36:41.000Z</time>
</trkpt>
<trkpt lat="46.1227840" lon="10.5003540">
	<ele>2112.00</ele>
	<time>2024-07-25T10:36:42.000Z</time>
</trkpt>
<trkpt lat="46.1227720" lon="10.5003460">
	<ele>2111.80</ele>
	<time>2024-07-25T10:36:43.000Z</time>
</trkpt>
<trkpt lat="46.1227610" lon="10.5003420">
	<ele>2111.80</ele>
	<time>2024-07-25T10:36:44.000Z</time>
</trkpt>
<trkpt lat="46.1227490" lon="10.5003380">
	<ele>2111.60</ele>
	<time>2024-07-25T10:36:45.000Z</time>
</trkpt>
<trkpt lat="46.1227320" lon="10.5003350">
	<ele>2111.60</ele>
	<time>2024-07-25T10:36:46.000Z</time>
</trkpt>
<trkpt lat="46.1227160" lon="10.5003350">
	<ele>2111.40</ele>
	<time>2024-07-25T10:36:47.000Z</time>
</trkpt>
<trkpt lat="46.1227070" lon="10.5003390">
	<ele>2111.20</ele>
	<time>2024-07-25T10:36:48.000Z</time>
</trkpt>
<trkpt lat="46.1226990" lon="10.5003440">
	<ele>2111.00</ele>
	<time>2024-07-25T10:36:49.000Z</time>
</trkpt>
<trkpt lat="46.1226910" lon="10.5003530">
	<ele>2111.00</ele>
	<time>2024-07-25T10:36:50.000Z</time>
</trkpt>
<trkpt lat="46.1226810" lon="10.5003680">
	<ele>2110.80</ele>
	<time>2024-07-25T10:36:51.000Z</time>
</trkpt>
<trkpt lat="46.1226660" lon="10.5003900">
	<ele>2110.60</ele>
	<time>2024-07-25T10:36:52.000Z</time>
</trkpt>
<trkpt lat="46.1226580" lon="10.5004040">
	<ele>2110.60</ele>
	<time>2024-07-25T10:36:53.000Z</time>
</trkpt>
<trkpt lat="46.1226460" lon="10.5004200">
	<ele>2110.40</ele>
	<time>2024-07-25T10:36:54.000Z</time>
</trkpt>
<trkpt lat="46.1226380" lon="10.5004360">
	<ele>2110.20</ele>
	<time>2024-07-25T10:36:55.000Z</time>
</trkpt>
<trkpt lat="46.1226260" lon="10.5004530">
	<ele>2110.00</ele>
	<time>2024-07-25T10:36:56.000Z</time>
</trkpt>
<trkpt lat="46.1226190" lon="10.5004610">
	<ele>2109.80</ele>
	<time>2024-07-25T10:36:57.000Z</time>
</trkpt>
<trkpt lat="46.1226110" lon="10.5004730">
	<ele>2109.60</ele>
	<time>2024-07-25T10:36:58.000Z</time>
</trkpt>
<trkpt lat="46.1226040" lon="10.5004880">
	<ele>2109.60</ele>
	<time>2024-07-25T10:36:59.000Z</time>
</trkpt>
<trkpt lat="46.1225980" lon="10.5005050">
	<ele>2109.40</ele>
	<time>2024-07-25T10:37:00.000Z</time>
</trkpt>
<trkpt lat="46.1225910" lon="10.5005130">
	<ele>2109.40</ele>
	<time>2024-07-25T10:37:01.000Z</time>
</trkpt>
<trkpt lat="46.1225800" lon="10.5005190">
	<ele>2109.20</ele>
	<time>2024-07-25T10:37:02.000Z</time>
</trkpt>
<trkpt lat="46.1225700" lon="10.5005250">
	<ele>2109.20</ele>
	<time>2024-07-25T10:37:03.000Z</time>
</trkpt>
<trkpt lat="46.1225590" lon="10.5005350">
	<ele>2109.20</ele>
	<time>2024-07-25T10:37:04.000Z</time>
</trkpt>
<trkpt lat="46.1225490" lon="10.5005460">
	<ele>2109.00</ele>
	<time>2024-07-25T10:37:05.000Z</time>
</trkpt>
<trkpt lat="46.1225400" lon="10.5005550">
	<ele>2109.00</ele>
	<time>2024-07-25T10:37:06.000Z</time>
</trkpt>
<trkpt lat="46.1225340" lon="10.5005610">
	<ele>2108.80</ele>
	<time>2024-07-25T10:37:07.000Z</time>
</trkpt>
<trkpt lat="46.1225240" lon="10.5005720">
	<ele>2108.60</ele>
	<time>2024-07-25T10:37:08.000Z</time>
</trkpt>
<trkpt lat="46.1225140" lon="10.5005850">
	<ele>2108.40</ele>
	<time>2024-07-25T10:37:09.000Z</time>
</trkpt>
<trkpt lat="46.1225070" lon="10.5005990">
	<ele>2108.40</ele>
	<time>2024-07-25T10:37:10.000Z</time>
</trkpt>
<trkpt lat="46.1225020" lon="10.5006100">
	<ele>2108.20</ele>
	<time>2024-07-25T10:37:11.000Z</time>
</trkpt>
<trkpt lat="46.1224960" lon="10.5006210">
	<ele>2108.00</ele>
	<time>2024-07-25T10:37:12.000Z</time>
</trkpt>
<trkpt lat="46.1224890" lon="10.5006360">
	<ele>2107.80</ele>
	<time>2024-07-25T10:37:13.000Z</time>
</trkpt>
<trkpt lat="46.1224820" lon="10.5006470">
	<ele>2107.80</ele>
	<time>2024-07-25T10:37:14.000Z</time>
</trkpt>
<trkpt lat="46.1224730" lon="10.5006570">
	<ele>2107.60</ele>
	<time>2024-07-25T10:37:15.000Z</time>
</trkpt>
<trkpt lat="46.1224660" lon="10.5006640">
	<ele>2107.60</ele>
	<time>2024-07-25T10:37:16.000Z</time>
</trkpt>
<trkpt lat="46.1224580" lon="10.5006710">
	<ele>2107.20</ele>
	<time>2024-07-25T10:37:17.000Z</time>
</trkpt>
<trkpt lat="46.1224470" lon="10.5006820">
	<ele>2107.20</ele>
	<time>2024-07-25T10:37:18.000Z</time>
</trkpt>
<trkpt lat="46.1224320" lon="10.5007000">
	<ele>2107.00</ele>
	<time>2024-07-25T10:37:19.000Z</time>
</trkpt>
<trkpt lat="46.1224220" lon="10.5007140">
	<ele>2106.80</ele>
	<time>2024-07-25T10:37:20.000Z</time>
</trkpt>
<trkpt lat="46.1224060" lon="10.5007330">
	<ele>2106.60</ele>
	<time>2024-07-25T10:37:21.000Z</time>
</trkpt>
<trkpt lat="46.1223940" lon="10.5007450">
	<ele>2106.40</ele>
	<time>2024-07-25T10:37:22.000Z</time>
</trkpt>
<trkpt lat="46.1223840" lon="10.5007560">
	<ele>2106.40</ele>
	<time>2024-07-25T10:37:23.000Z</time>
</trkpt>
<trkpt lat="46.1223750" lon="10.5007610">
	<ele>2106.20</ele>
	<time>2024-07-25T10:37:24.000Z</time>
</trkpt>
<trkpt lat="46.1223600" lon="10.5007690">
	<ele>2106.20</ele>
	<time>2024-07-25T10:37:25.000Z</time>
</trkpt>
<trkpt lat="46.1223480" lon="10.5007740">
	<ele>2106.00</ele>
	<time>2024-07-25T10:37:26.000Z</time>
</trkpt>
<trkpt lat="46.1223380" lon="10.5007710">
	<ele>2106.00</ele>
	<time>2024-07-25T10:37:27.000Z</time>
</trkpt>
<trkpt lat="46.1223270" lon="10.5007710">
	<ele>2105.80</ele>
	<time>2024-07-25T10:37:28.000Z</time>
</trkpt>
<trkpt lat="46.1223160" lon="10.5007670">
	<ele>2105.80</ele>
	<time>2024-07-25T10:37:29.000Z</time>
</trkpt>
<trkpt lat="46.1223030" lon="10.5007620">
	<ele>2105.60</ele>
	<time>2024-07-25T10:37:30.000Z</time>
</trkpt>
<trkpt lat="46.1222940" lon="10.5007560">
	<ele>2105.40</ele>
	<time>2024-07-25T10:37:31.000Z</time>
</trkpt>
<trkpt lat="46.1222850" lon="10.5007470">
	<ele>2105.20</ele>
	<time>2024-07-25T10:37:32.000Z</time>
</trkpt>
<trkpt lat="46.1222740" lon="10.5007390">
	<ele>2104.80</ele>
	<time>2024-07-25T10:37:33.000Z</time>
</trkpt>
<trkpt lat="46.1222620" lon="10.5007310">
	<ele>2104.60</ele>
	<time>2024-07-25T10:37:34.000Z</time>
</trkpt>
<trkpt lat="46.1222510" lon="10.5007260">
	<ele>2104.40</ele>
	<time>2024-07-25T10:37:35.000Z</time>
</trkpt>
<trkpt lat="46.1222410" lon="10.5007200">
	<ele>2104.20</ele>
	<time>2024-07-25T10:37:36.000Z</time>
</trkpt>
<trkpt lat="46.1222320" lon="10.5007120">
	<ele>2103.80</ele>
	<time>2024-07-25T10:37:37.000Z</time>
</trkpt>
<trkpt lat="46.1222230" lon="10.5007000">
	<ele>2103.60</ele>
	<time>2024-07-25T10:37:38.000Z</time>
</trkpt>
<trkpt lat="46.1222140" lon="10.5006910">
	<ele>2103.20</ele>
	<time>2024-07-25T10:37:39.000Z</time>
</trkpt>
<trkpt lat="46.1222050" lon="10.5006860">
	<ele>2103.00</ele>
	<time>2024-07-25T10:37:40.000Z</time>
</trkpt>
<trkpt lat="46.1221990" lon="10.5006770">
	<ele>2102.60</ele>
	<time>2024-07-25T10:37:41.000Z</time>
</trkpt>
<trkpt lat="46.1221910" lon="10.5006690">
	<ele>2102.40</ele>
	<time>2024-07-25T10:37:42.000Z</time>
</trkpt>
<trkpt lat="46.1221850" lon="10.5006570">
	<ele>2102.00</ele>
	<time>2024-07-25T10:37:43.000Z</time>
</trkpt>
<trkpt lat="46.1221760" lon="10.5006490">
	<ele>2101.80</ele>
	<time>2024-07-25T10:37:44.000Z</time>
</trkpt>
<trkpt lat="46.1221670" lon="10.5006390">
	<ele>2101.40</ele>
	<time>2024-07-25T10:37:45.000Z</time>
</trkpt>
<trkpt lat="46.1221620" lon="10.5006300">
	<ele>2101.20</ele>
	<time>2024-07-25T10:37:46.000Z</time>
</trkpt>
<trkpt lat="46.1221610" lon="10.5006170">
	<ele>2101.20</ele>
	<time>2024-07-25T10:37:47.000Z</time>
</trkpt>
<trkpt lat="46.1221590" lon="10.5006060">
	<ele>2100.80</ele>
	<time>2024-07-25T10:37:48.000Z</time>
</trkpt>
<trkpt lat="46.1221530" lon="10.5005960">
	<ele>2100.60</ele>
	<time>2024-07-25T10:37:49.000Z</time>
</trkpt>
<trkpt lat="46.1221470" lon="10.5005850">
	<ele>2100.20</ele>
	<time>2024-07-25T10:37:50.000Z</time>
</trkpt>
<trkpt lat="46.1221390" lon="10.5005780">
	<ele>2100.20</ele>
	<time>2024-07-25T10:37:51.000Z</time>
</trkpt>
<trkpt lat="46.1221290" lon="10.5005670">
	<ele>2100.00</ele>
	<time>2024-07-25T10:37:52.000Z</time>
</trkpt>
<trkpt lat="46.1221220" lon="10.5005530">
	<ele>2100.00</ele>
	<time>2024-07-25T10:37:53.000Z</time>
</trkpt>
<trkpt lat="46.1221140" lon="10.5005430">
	<ele>2099.40</ele>
	<time>2024-07-25T10:37:54.000Z</time>
</trkpt>
<trkpt lat="46.1221110" lon="10.5005280">
	<ele>2099.20</ele>
	<time>2024-07-25T10:37:55.000Z</time>
</trkpt>
<trkpt lat="46.1221140" lon="10.5005110">
	<ele>2099.00</ele>
	<time>2024-07-25T10:37:56.000Z</time>
</trkpt>
<trkpt lat="46.1221140" lon="10.5004960">
	<ele>2098.80</ele>
	<time>2024-07-25T10:37:57.000Z</time>
</trkpt>
<trkpt lat="46.1221120" lon="10.5004790">
	<ele>2098.60</ele>
	<time>2024-07-25T10:37:58.000Z</time>
</trkpt>
<trkpt lat="46.1221110" lon="10.5004620">
	<ele>2098.40</ele>
	<time>2024-07-25T10:37:59.000Z</time>
</trkpt>
<trkpt lat="46.1221120" lon="10.5004420">
	<ele>2098.20</ele>
	<time>2024-07-25T10:38:00.000Z</time>
</trkpt>
<trkpt lat="46.1221040" lon="10.5004260">
	<ele>2098.20</ele>
	<time>2024-07-25T10:38:01.000Z</time>
</trkpt>
<trkpt lat="46.1220970" lon="10.5004140">
	<ele>2097.80</ele>
	<time>2024-07-25T10:38:02.000Z</time>
</trkpt>
<trkpt lat="46.1220920" lon="10.5003950">
	<ele>2097.60</ele>
	<time>2024-07-25T10:38:03.000Z</time>
</trkpt>
<trkpt lat="46.1220870" lon="10.5003770">
	<ele>2097.40</ele>
	<time>2024-07-25T10:38:04.000Z</time>
</trkpt>
<trkpt lat="46.1220810" lon="10.5003580">
	<ele>2097.40</ele>
	<time>2024-07-25T10:38:05.000Z</time>
</trkpt>
<trkpt lat="46.1220740" lon="10.5003430">
	<ele>2097.20</ele>
	<time>2024-07-25T10:38:06.000Z</time>
</trkpt>
<trkpt lat="46.1220660" lon="10.5003300">
	<ele>2097.20</ele>
	<time>2024-07-25T10:38:07.000Z</time>
</trkpt>
<trkpt lat="46.1220570" lon="10.5003150">
	<ele>2097.00</ele>
	<time>2024-07-25T10:38:08.000Z</time>
</trkpt>
<trkpt lat="46.1220440" lon="10.5003020">
	<ele>2097.00</ele>
	<time>2024-07-25T10:38:09.000Z</time>
</trkpt>
<trkpt lat="46.1220340" lon="10.5002840">
	<ele>2096.80</ele>
	<time>2024-07-25T10:38:10.000Z</time>
</trkpt>
<trkpt lat="46.1220220" lon="10.5002660">
	<ele>2096.60</ele>
	<time>2024-07-25T10:38:11.000Z</time>
</trkpt>
<trkpt lat="46.1220160" lon="10.5002480">
	<ele>2096.60</ele>
	<time>2024-07-25T10:38:12.000Z</time>
</trkpt>
<trkpt lat="46.1220060" lon="10.5002310">
	<ele>2096.60</ele>
	<time>2024-07-25T10:38:13.000Z</time>
</trkpt>
<trkpt lat="46.1219970" lon="10.5002210">
	<ele>2096.40</ele>
	<time>2024-07-25T10:38:14.000Z</time>
</trkpt>
<trkpt lat="46.1219890" lon="10.5002080">
	<ele>2096.40</ele>
	<time>2024-07-25T10:38:15.000Z</time>
</trkpt>
<trkpt lat="46.1219830" lon="10.5001970">
	<ele>2096.20</ele>
	<time>2024-07-25T10:38:16.000Z</time>
</trkpt>
<trkpt lat="46.1219730" lon="10.5001850">
	<ele>2096.20</ele>
	<time>2024-07-25T10:38:17.000Z</time>
</trkpt>
<trkpt lat="46.1219620" lon="10.5001690">
	<ele>2096.20</ele>
	<time>2024-07-25T10:38:18.000Z</time>
</trkpt>
<trkpt lat="46.1219500" lon="10.5001500">
	<ele>2096.00</ele>
	<time>2024-07-25T10:38:19.000Z</time>
</trkpt>
<trkpt lat="46.1219420" lon="10.5001340">
	<ele>2096.00</ele>
	<time>2024-07-25T10:38:20.000Z</time>
</trkpt>
<trkpt lat="46.1219340" lon="10.5001200">
	<ele>2096.00</ele>
	<time>2024-07-25T10:38:21.000Z</time>
</trkpt>
<trkpt lat="46.1219260" lon="10.5001090">
	<ele>2096.00</ele>
	<time>2024-07-25T10:38:22.000Z</time>
</trkpt>
<trkpt lat="46.1219180" lon="10.5000980">
	<ele>2095.80</ele>
	<time>2024-07-25T10:38:23.000Z</time>
</trkpt>
<trkpt lat="46.1219080" lon="10.5000870">
	<ele>2095.80</ele>
	<time>2024-07-25T10:38:24.000Z</time>
</trkpt>
<trkpt lat="46.1218950" lon="10.5000750">
	<ele>2095.80</ele>
	<time>2024-07-25T10:38:25.000Z</time>
</trkpt>
<trkpt lat="46.1218810" lon="10.5000630">
	<ele>2095.80</ele>
	<time>2024-07-25T10:38:26.000Z</time>
</trkpt>
<trkpt lat="46.1218700" lon="10.5000520">
	<ele>2095.60</ele>
	<time>2024-07-25T10:38:27.000Z</time>
</trkpt>
<trkpt lat="46.1218560" lon="10.5000380">
	<ele>2095.40</ele>
	<time>2024-07-25T10:38:28.000Z</time>
</trkpt>
<trkpt lat="46.1218430" lon="10.5000210">
	<ele>2095.40</ele>
	<time>2024-07-25T10:38:29.000Z</time>
</trkpt>
<trkpt lat="46.1218290" lon="10.5000050">
	<ele>2095.20</ele>
	<time>2024-07-25T10:38:30.000Z</time>
</trkpt>
<trkpt lat="46.1218190" lon="10.4999950">
	<ele>2095.20</ele>
	<time>2024-07-25T10:38:31.000Z</time>
</trkpt>
<trkpt lat="46.1218070" lon="10.4999860">
	<ele>2095.20</ele>
	<time>2024-07-25T10:38:32.000Z</time>
</trkpt>
<trkpt lat="46.1217920" lon="10.4999720">
	<ele>2095.20</ele>
	<time>2024-07-25T10:38:33.000Z</time>
</trkpt>
<trkpt lat="46.1217800" lon="10.4999580">
	<ele>2095.20</ele>
	<time>2024-07-25T10:38:34.000Z</time>
</trkpt>
<trkpt lat="46.1217720" lon="10.4999390">
	<ele>2095.20</ele>
	<time>2024-07-25T10:38:35.000Z</time>
</trkpt>
<trkpt lat="46.1217670" lon="10.4999220">
	<ele>2095.00</ele>
	<time>2024-07-25T10:38:36.000Z</time>
</trkpt>
<trkpt lat="46.1217560" lon="10.4999020">
	<ele>2095.00</ele>
	<time>2024-07-25T10:38:37.000Z</time>
</trkpt>
<trkpt lat="46.1217480" lon="10.4998830">
	<ele>2095.00</ele>
	<time>2024-07-25T10:38:38.000Z</time>
</trkpt>
<trkpt lat="46.1217370" lon="10.4998660">
	<ele>2095.00</ele>
	<time>2024-07-25T10:38:39.000Z</time>
</trkpt>
<trkpt lat="46.1217260" lon="10.4998500">
	<ele>2095.00</ele>
	<time>2024-07-25T10:38:40.000Z</time>
</trkpt>
<trkpt lat="46.1217140" lon="10.4998330">
	<ele>2094.80</ele>
	<time>2024-07-25T10:38:41.000Z</time>
</trkpt>
<trkpt lat="46.1217040" lon="10.4998160">
	<ele>2094.80</ele>
	<time>2024-07-25T10:38:42.000Z</time>
</trkpt>
<trkpt lat="46.1216960" lon="10.4997980">
	<ele>2094.80</ele>
	<time>2024-07-25T10:38:43.000Z</time>
</trkpt>
<trkpt lat="46.1216840" lon="10.4997820">
	<ele>2094.80</ele>
	<time>2024-07-25T10:38:44.000Z</time>
</trkpt>
<trkpt lat="46.1216690" lon="10.4997700">
	<ele>2094.80</ele>
	<time>2024-07-25T10:38:45.000Z</time>
</trkpt>
<trkpt lat="46.1216560" lon="10.4997650">
	<ele>2094.80</ele>
	<time>2024-07-25T10:38:46.000Z</time>
</trkpt>
<trkpt lat="46.1216480" lon="10.4997560">
	<ele>2094.80</ele>
	<time>2024-07-25T10:38:47.000Z</time>
</trkpt>
<trkpt lat="46.1216380" lon="10.4997430">
	<ele>2094.80</ele>
	<time>2024-07-25T10:38:48.000Z</time>
</trkpt>
<trkpt lat="46.1216250" lon="10.4997270">
	<ele>2094.80</ele>
	<time>2024-07-25T10:38:49.000Z</time>
</trkpt>
<trkpt lat="46.1216130" lon="10.4997120">
	<ele>2094.80</ele>
	<time>2024-07-25T10:38:50.000Z</time>
</trkpt>
<trkpt lat="46.1216000" lon="10.4996980">
	<ele>2094.80</ele>
	<time>2024-07-25T10:38:51.000Z</time>
</trkpt>
<trkpt lat="46.1215870" lon="10.4996840">
	<ele>2094.80</ele>
	<time>2024-07-25T10:38:52.000Z</time>
</trkpt>
<trkpt lat="46.1215720" lon="10.4996770">
	<ele>2094.80</ele>
	<time>2024-07-25T10:38:53.000Z</time>
</trkpt>
<trkpt lat="46.1215590" lon="10.4996670">
	<ele>2094.60</ele>
	<time>2024-07-25T10:38:54.000Z</time>
</trkpt>
<trkpt lat="46.1215490" lon="10.4996600">
	<ele>2094.60</ele>
	<time>2024-07-25T10:38:55.000Z</time>
</trkpt>
<trkpt lat="46.1215340" lon="10.4996470">
	<ele>2094.60</ele>
	<time>2024-07-25T10:38:56.000Z</time>
</trkpt>
<trkpt lat="46.1215180" lon="10.4996370">
	<ele>2094.60</ele>
	<time>2024-07-25T10:38:57.000Z</time>
</trkpt>
<trkpt lat="46.1215030" lon="10.4996310">
	<ele>2094.60</ele>
	<time>2024-07-25T10:38:58.000Z</time>
</trkpt>
<trkpt lat="46.1214920" lon="10.4996220">
	<ele>2094.60</ele>
	<time>2024-07-25T10:38:59.000Z</time>
</trkpt>
<trkpt lat="46.1214780" lon="10.4996090">
	<ele>2094.60</ele>
	<time>2024-07-25T10:39:00.000Z</time>
</trkpt>
<trkpt lat="46.1214690" lon="10.4996010">
	<ele>2094.60</ele>
	<time>2024-07-25T10:39:01.000Z</time>
</trkpt>
<trkpt lat="46.1214580" lon="10.4995900">
	<ele>2094.60</ele>
	<time>2024-07-25T10:39:02.000Z</time>
</trkpt>
<trkpt lat="46.1214480" lon="10.4995810">
	<ele>2094.60</ele>
	<time>2024-07-25T10:39:03.000Z</time>
</trkpt>
<trkpt lat="46.1214380" lon="10.4995690">
	<ele>2094.60</ele>
	<time>2024-07-25T10:39:04.000Z</time>
</trkpt>
<trkpt lat="46.1214270" lon="10.4995540">
	<ele>2094.40</ele>
	<time>2024-07-25T10:39:05.000Z</time>
</trkpt>
<trkpt lat="46.1214190" lon="10.4995360">
	<ele>2094.40</ele>
	<time>2024-07-25T10:39:06.000Z</time>
</trkpt>
<trkpt lat="46.1214170" lon="10.4995170">
	<ele>2094.40</ele>
	<time>2024-07-25T10:39:07.000Z</time>
</trkpt>
<trkpt lat="46.1214070" lon="10.4995000">
	<ele>2094.40</ele>
	<time>2024-07-25T10:39:08.000Z</time>
</trkpt>
<trkpt lat="46.1214010" lon="10.4994870">
	<ele>2094.20</ele>
	<time>2024-07-25T10:39:09.000Z</time>
</trkpt>
<trkpt lat="46.1213940" lon="10.4994700">
	<ele>2094.20</ele>
	<time>2024-07-25T10:39:10.000Z</time>
</trkpt>
<trkpt lat="46.1213830" lon="10.4994570">
	<ele>2094.20</ele>
	<time>2024-07-25T10:39:11.000Z</time>
</trkpt>
<trkpt lat="46.1213730" lon="10.4994450">
	<ele>2094.20</ele>
	<time>2024-07-25T10:39:12.000Z</time>
</trkpt>
<trkpt lat="46.1213640" lon="10.4994330">
	<ele>2094.20</ele>
	<time>2024-07-25T10:39:13.000Z</time>
</trkpt>
<trkpt lat="46.1213510" lon="10.4994210">
	<ele>2094.20</ele>
	<time>2024-07-25T10:39:14.000Z</time>
</trkpt>
<trkpt lat="46.1213390" lon="10.4994080">
	<ele>2094.20</ele>
	<time>2024-07-25T10:39:15.000Z</time>
</trkpt>
<trkpt lat="46.1213280" lon="10.4993950">
	<ele>2094.20</ele>
	<time>2024-07-25T10:39:16.000Z</time>
</trkpt>
<trkpt lat="46.1213200" lon="10.4993830">
	<ele>2094.20</ele>
	<time>2024-07-25T10:39:17.000Z</time>
</trkpt>
<trkpt lat="46.1213100" lon="10.4993720">
	<ele>2094.20</ele>
	<time>2024-07-25T10:39:18.000Z</time>
</trkpt>
<trkpt lat="46.1212980" lon="10.4993690">
	<ele>2094.20</ele>
	<time>2024-07-25T10:39:19.000Z</time>
</trkpt>
<trkpt lat="46.1212890" lon="10.4993590">
	<ele>2094.20</ele>
	<time>2024-07-25T10:39:20.000Z</time>
</trkpt>
<trkpt lat="46.1212790" lon="10.4993470">
	<ele>2094.20</ele>
	<time>2024-07-25T10:39:21.000Z</time>
</trkpt>
<trkpt lat="46.1212680" lon="10.4993340">
	<ele>2094.20</ele>
	<time>2024-07-25T10:39:22.000Z</time>
</trkpt>
<trkpt lat="46.1212590" lon="10.4993220">
	<ele>2094.20</ele>
	<time>2024-07-25T10:39:23.000Z</time>
</trkpt>
<trkpt lat="46.1212480" lon="10.4993040">
	<ele>2094.20</ele>
	<time>2024-07-25T10:39:24.000Z</time>
</trkpt>
<trkpt lat="46.1212370" lon="10.4992910">
	<ele>2094.20</ele>
	<time>2024-07-25T10:39:25.000Z</time>
</trkpt>
<trkpt lat="46.1212240" lon="10.4992830">
	<ele>2094.20</ele>
	<time>2024-07-25T10:39:26.000Z</time>
</trkpt>
<trkpt lat="46.1212120" lon="10.4992750">
	<ele>2094.40</ele>
	<time>2024-07-25T10:39:27.000Z</time>
</trkpt>
<trkpt lat="46.1212000" lon="10.4992660">
	<ele>2094.40</ele>
	<time>2024-07-25T10:39:28.000Z</time>
</trkpt>
<trkpt lat="46.1211880" lon="10.4992570">
	<ele>2094.40</ele>
	<time>2024-07-25T10:39:29.000Z</time>
</trkpt>
<trkpt lat="46.1211750" lon="10.4992450">
	<ele>2094.40</ele>
	<time>2024-07-25T10:39:30.000Z</time>
</trkpt>
<trkpt lat="46.1211620" lon="10.4992350">
	<ele>2094.40</ele>
	<time>2024-07-25T10:39:31.000Z</time>
</trkpt>
<trkpt lat="46.1211480" lon="10.4992290">
	<ele>2094.40</ele>
	<time>2024-07-25T10:39:32.000Z</time>
</trkpt>
<trkpt lat="46.1211350" lon="10.4992200">
	<ele>2094.40</ele>
	<time>2024-07-25T10:39:33.000Z</time>
</trkpt>
<trkpt lat="46.1211240" lon="10.4992120">
	<ele>2094.40</ele>
	<time>2024-07-25T10:39:34.000Z</time>
</trkpt>
<trkpt lat="46.1211120" lon="10.4992050">
	<ele>2094.20</ele>
	<time>2024-07-25T10:39:35.000Z</time>
</trkpt>
<trkpt lat="46.1211020" lon="10.4991920">
	<ele>2094.20</ele>
	<time>2024-07-25T10:39:36.000Z</time>
</trkpt>
<trkpt lat="46.1210910" lon="10.4991840">
	<ele>2094.20</ele>
	<time>2024-07-25T10:39:37.000Z</time>
</trkpt>
<trkpt lat="46.1210780" lon="10.4991740">
	<ele>2094.20</ele>
	<time>2024-07-25T10:39:38.000Z</time>
</trkpt>
<trkpt lat="46.1210600" lon="10.4991650">
	<ele>2094.00</ele>
	<time>2024-07-25T10:39:39.000Z</time>
</trkpt>
<trkpt lat="46.1210470" lon="10.4991610">
	<ele>2094.00</ele>
	<time>2024-07-25T10:39:40.000Z</time>
</trkpt>
<trkpt lat="46.1210320" lon="10.4991550">
	<ele>2094.00</ele>
	<time>2024-07-25T10:39:41.000Z</time>
</trkpt>
<trkpt lat="46.1210180" lon="10.4991510">
	<ele>2093.80</ele>
	<time>2024-07-25T10:39:42.000Z</time>
</trkpt>
<trkpt lat="46.1210050" lon="10.4991440">
	<ele>2094.00</ele>
	<time>2024-07-25T10:39:43.000Z</time>
</trkpt>
<trkpt lat="46.1209930" lon="10.4991400">
	<ele>2094.00</ele>
	<time>2024-07-25T10:39:44.000Z</time>
</trkpt>
<trkpt lat="46.1209790" lon="10.4991330">
	<ele>2094.00</ele>
	<time>2024-07-25T10:39:45.000Z</time>
</trkpt>
<trkpt lat="46.1209630" lon="10.4991260">
	<ele>2094.00</ele>
	<time>2024-07-25T10:39:46.000Z</time>
</trkpt>
<trkpt lat="46.1209440" lon="10.4991210">
	<ele>2094.00</ele>
	<time>2024-07-25T10:39:47.000Z</time>
</trkpt>
<trkpt lat="46.1209290" lon="10.4991200">
	<ele>2094.00</ele>
	<time>2024-07-25T10:39:48.000Z</time>
</trkpt>
<trkpt lat="46.1209170" lon="10.4991180">
	<ele>2094.00</ele>
	<time>2024-07-25T10:39:49.000Z</time>
</trkpt>
<trkpt lat="46.1209050" lon="10.4991110">
	<ele>2094.00</ele>
	<time>2024-07-25T10:39:50.000Z</time>
</trkpt>
<trkpt lat="46.1208940" lon="10.4991050">
	<ele>2094.00</ele>
	<time>2024-07-25T10:39:51.000Z</time>
</trkpt>
<trkpt lat="46.1208810" lon="10.4990980">
	<ele>2094.00</ele>
	<time>2024-07-25T10:39:52.000Z</time>
</trkpt>
<trkpt lat="46.1208650" lon="10.4990910">
	<ele>2094.00</ele>
	<time>2024-07-25T10:39:53.000Z</time>
</trkpt>
<trkpt lat="46.1208520" lon="10.4990830">
	<ele>2094.20</ele>
	<time>2024-07-25T10:39:54.000Z</time>
</trkpt>
<trkpt lat="46.1208380" lon="10.4990770">
	<ele>2094.20</ele>
	<time>2024-07-25T10:39:55.000Z</time>
</trkpt>
<trkpt lat="46.1208260" lon="10.4990730">
	<ele>2094.20</ele>
	<time>2024-07-25T10:39:56.000Z</time>
</trkpt>
<trkpt lat="46.1208120" lon="10.4990640">
	<ele>2094.20</ele>
	<time>2024-07-25T10:39:57.000Z</time>
</trkpt>
<trkpt lat="46.1208020" lon="10.4990530">
	<ele>2094.20</ele>
	<time>2024-07-25T10:39:58.000Z</time>
</trkpt>
<trkpt lat="46.1207930" lon="10.4990440">
	<ele>2094.20</ele>
	<time>2024-07-25T10:39:59.000Z</time>
</trkpt>
<trkpt lat="46.1207840" lon="10.4990290">
	<ele>2094.20</ele>
	<time>2024-07-25T10:40:00.000Z</time>
</trkpt>
<trkpt lat="46.1207770" lon="10.4990150">
	<ele>2094.00</ele>
	<time>2024-07-25T10:40:01.000Z</time>
</trkpt>
<trkpt lat="46.1207700" lon="10.4990020">
	<ele>2093.80</ele>
	<time>2024-07-25T10:40:02.000Z</time>
</trkpt>
<trkpt lat="46.1207610" lon="10.4989830">
	<ele>2093.60</ele>
	<time>2024-07-25T10:40:03.000Z</time>
</trkpt>
<trkpt lat="46.1207560" lon="10.4989630">
	<ele>2093.40</ele>
	<time>2024-07-25T10:40:04.000Z</time>
</trkpt>
<trkpt lat="46.1207490" lon="10.4989470">
	<ele>2093.00</ele>
	<time>2024-07-25T10:40:05.000Z</time>
</trkpt>
<trkpt lat="46.1207400" lon="10.4989280">
	<ele>2092.80</ele>
	<time>2024-07-25T10:40:06.000Z</time>
</trkpt>
<trkpt lat="46.1207310" lon="10.4989130">
	<ele>2092.60</ele>
	<time>2024-07-25T10:40:07.000Z</time>
</trkpt>
<trkpt lat="46.1207210" lon="10.4989000">
	<ele>2092.60</ele>
	<time>2024-07-25T10:40:08.000Z</time>
</trkpt>
<trkpt lat="46.1207150" lon="10.4988870">
	<ele>2092.40</ele>
	<time>2024-07-25T10:40:09.000Z</time>
</trkpt>
<trkpt lat="46.1207030" lon="10.4988760">
	<ele>2092.20</ele>
	<time>2024-07-25T10:40:10.000Z</time>
</trkpt>
<trkpt lat="46.1206880" lon="10.4988620">
	<ele>2092.00</ele>
	<time>2024-07-25T10:40:11.000Z</time>
</trkpt>
<trkpt lat="46.1206780" lon="10.4988480">
	<ele>2091.80</ele>
	<time>2024-07-25T10:40:12.000Z</time>
</trkpt>
<trkpt lat="46.1206740" lon="10.4988310">
	<ele>2091.80</ele>
	<time>2024-07-25T10:40:13.000Z</time>
</trkpt>
<trkpt lat="46.1206730" lon="10.4988130">
	<ele>2091.60</ele>
	<time>2024-07-25T10:40:14.000Z</time>
</trkpt>
<trkpt lat="46.1206700" lon="10.4987960">
	<ele>2091.20</ele>
	<time>2024-07-25T10:40:15.000Z</time>
</trkpt>
<trkpt lat="46.1206670" lon="10.4987810">
	<ele>2091.00</ele>
	<time>2024-07-25T10:40:16.000Z</time>
</trkpt>
<trkpt lat="46.1206590" lon="10.4987640">
	<ele>2091.00</ele>
	<time>2024-07-25T10:40:17.000Z</time>
</trkpt>
<trkpt lat="46.1206470" lon="10.4987510">
	<ele>2090.80</ele>
	<time>2024-07-25T10:40:18.000Z</time>
</trkpt>
<trkpt lat="46.1206360" lon="10.4987450">
	<ele>2090.80</ele>
	<time>2024-07-25T10:40:19.000Z</time>
</trkpt>
<trkpt lat="46.1206250" lon="10.4987330">
	<ele>2090.60</ele>
	<time>2024-07-25T10:40:20.000Z</time>
</trkpt>
<trkpt lat="46.1206130" lon="10.4987190">
	<ele>2090.40</ele>
	<time>2024-07-25T10:40:21.000Z</time>
</trkpt>
<trkpt lat="46.1206050" lon="10.4987070">
	<ele>2090.40</ele>
	<time>2024-07-25T10:40:22.000Z</time>
</trkpt>
<trkpt lat="46.1205960" lon="10.4986890">
	<ele>2090.20</ele>
	<time>2024-07-25T10:40:23.000Z</time>
</trkpt>
<trkpt lat="46.1205840" lon="10.4986740">
	<ele>2089.80</ele>
	<time>2024-07-25T10:40:24.000Z</time>
</trkpt>
<trkpt lat="46.1205770" lon="10.4986710">
	<ele>2089.20</ele>
	<time>2024-07-25T10:40:25.000Z</time>
</trkpt>
<trkpt lat="46.1205650" lon="10.4986650">
	<ele>2088.80</ele>
	<time>2024-07-25T10:40:26.000Z</time>
</trkpt>
<trkpt lat="46.1205530" lon="10.4986570">
	<ele>2088.40</ele>
	<time>2024-07-25T10:40:27.000Z</time>
</trkpt>
<trkpt lat="46.1205450" lon="10.4986500">
	<ele>2088.20</ele>
	<time>2024-07-25T10:40:28.000Z</time>
</trkpt>
<trkpt lat="46.1205350" lon="10.4986320">
	<ele>2088.00</ele>
	<time>2024-07-25T10:40:29.000Z</time>
</trkpt>
<trkpt lat="46.1205300" lon="10.4986130">
	<ele>2087.80</ele>
	<time>2024-07-25T10:40:30.000Z</time>
</trkpt>
<trkpt lat="46.1205240" lon="10.4985940">
	<ele>2087.80</ele>
	<time>2024-07-25T10:40:31.000Z</time>
</trkpt>
<trkpt lat="46.1205190" lon="10.4985780">
	<ele>2087.60</ele>
	<time>2024-07-25T10:40:32.000Z</time>
</trkpt>
<trkpt lat="46.1205130" lon="10.4985620">
	<ele>2087.40</ele>
	<time>2024-07-25T10:40:33.000Z</time>
</trkpt>
<trkpt lat="46.1205090" lon="10.4985520">
	<ele>2087.00</ele>
	<time>2024-07-25T10:40:34.000Z</time>
</trkpt>
<trkpt lat="46.1205040" lon="10.4985400">
	<ele>2086.80</ele>
	<time>2024-07-25T10:40:35.000Z</time>
</trkpt>
<trkpt lat="46.1204890" lon="10.4985310">
	<ele>2086.40</ele>
	<time>2024-07-25T10:40:36.000Z</time>
</trkpt>
<trkpt lat="46.1204740" lon="10.4985220">
	<ele>2086.40</ele>
	<time>2024-07-25T10:40:37.000Z</time>
</trkpt>
<trkpt lat="46.1204570" lon="10.4985120">
	<ele>2086.20</ele>
	<time>2024-07-25T10:40:38.000Z</time>
</trkpt>
<trkpt lat="46.1204440" lon="10.4985090">
	<ele>2086.00</ele>
	<time>2024-07-25T10:40:39.000Z</time>
</trkpt>
<trkpt lat="46.1204330" lon="10.4985130">
	<ele>2086.00</ele>
	<time>2024-07-25T10:40:40.000Z</time>
</trkpt>
<trkpt lat="46.1204150" lon="10.4985320">
	<ele>2086.00</ele>
	<time>2024-07-25T10:40:41.000Z</time>
</trkpt>
<trkpt lat="46.1204060" lon="10.4985410">
	<ele>2085.60</ele>
	<time>2024-07-25T10:40:42.000Z</time>
</trkpt>
<trkpt lat="46.1203890" lon="10.4985550">
	<ele>2085.40</ele>
	<time>2024-07-25T10:40:43.000Z</time>
</trkpt>
<trkpt lat="46.1203770" lon="10.4985690">
	<ele>2085.20</ele>
	<time>2024-07-25T10:40:44.000Z</time>
</trkpt>
<trkpt lat="46.1203690" lon="10.4985830">
	<ele>2084.80</ele>
	<time>2024-07-25T10:40:45.000Z</time>
</trkpt>
<trkpt lat="46.1203620" lon="10.4985970">
	<ele>2084.60</ele>
	<time>2024-07-25T10:40:46.000Z</time>
</trkpt>
<trkpt lat="46.1203590" lon="10.4986100">
	<ele>2084.20</ele>
	<time>2024-07-25T10:40:47.000Z</time>
</trkpt>
<trkpt lat="46.1203540" lon="10.4986230">
	<ele>2084.00</ele>
	<time>2024-07-25T10:40:48.000Z</time>
</trkpt>
<trkpt lat="46.1203450" lon="10.4986300">
	<ele>2084.00</ele>
	<time>2024-07-25T10:40:49.000Z</time>
</trkpt>
<trkpt lat="46.1203370" lon="10.4986310">
	<ele>2083.80</ele>
	<time>2024-07-25T10:40:50.000Z</time>
</trkpt>
<trkpt lat="46.1203260" lon="10.4986300">
	<ele>2083.80</ele>
	<time>2024-07-25T10:40:51.000Z</time>
</trkpt>
<trkpt lat="46.1203160" lon="10.4986220">
	<ele>2083.60</ele>
	<time>2024-07-25T10:40:52.000Z</time>
</trkpt>
<trkpt lat="46.1203120" lon="10.4986130">
	<ele>2083.60</ele>
	<time>2024-07-25T10:40:53.000Z</time>
</trkpt>
<trkpt lat="46.1203070" lon="10.4986010">
	<ele>2083.40</ele>
	<time>2024-07-25T10:40:54.000Z</time>
</trkpt>
<trkpt lat="46.1203030" lon="10.4985860">
	<ele>2083.00</ele>
	<time>2024-07-25T10:40:55.000Z</time>
</trkpt>
<trkpt lat="46.1202980" lon="10.4985660">
	<ele>2082.80</ele>
	<time>2024-07-25T10:40:56.000Z</time>
</trkpt>
<trkpt lat="46.1202970" lon="10.4985440">
	<ele>2082.60</ele>
	<time>2024-07-25T10:40:57.000Z</time>
</trkpt>
<trkpt lat="46.1202950" lon="10.4985250">
	<ele>2082.60</ele>
	<time>2024-07-25T10:40:58.000Z</time>
</trkpt>
<trkpt lat="46.1202930" lon="10.4985100">
	<ele>2082.40</ele>
	<time>2024-07-25T10:40:59.000Z</time>
</trkpt>
<trkpt lat="46.1202900" lon="10.4984920">
	<ele>2082.20</ele>
	<time>2024-07-25T10:41:00.000Z</time>
</trkpt>
<trkpt lat="46.1202850" lon="10.4984750">
	<ele>2082.00</ele>
	<time>2024-07-25T10:41:01.000Z</time>
</trkpt>
<trkpt lat="46.1202760" lon="10.4984610">
	<ele>2082.00</ele>
	<time>2024-07-25T10:41:02.000Z</time>
</trkpt>
<trkpt lat="46.1202670" lon="10.4984430">
	<ele>2081.80</ele>
	<time>2024-07-25T10:41:03.000Z</time>
</trkpt>
<trkpt lat="46.1202600" lon="10.4984270">
	<ele>2081.60</ele>
	<time>2024-07-25T10:41:04.000Z</time>
</trkpt>
<trkpt lat="46.1202510" lon="10.4984110">
	<ele>2081.60</ele>
	<time>2024-07-25T10:41:05.000Z</time>
</trkpt>
<trkpt lat="46.1202440" lon="10.4983950">
	<ele>2081.40</ele>
	<time>2024-07-25T10:41:06.000Z</time>
</trkpt>
<trkpt lat="46.1202380" lon="10.4983800">
	<ele>2081.20</ele>
	<time>2024-07-25T10:41:07.000Z</time>
</trkpt>
<trkpt lat="46.1202320" lon="10.4983570">
	<ele>2081.20</ele>
	<time>2024-07-25T10:41:08.000Z</time>
</trkpt>
<trkpt lat="46.1202300" lon="10.4983370">
	<ele>2081.00</ele>
	<time>2024-07-25T10:41:09.000Z</time>
</trkpt>
<trkpt lat="46.1202260" lon="10.4983150">
	<ele>2081.00</ele>
	<time>2024-07-25T10:41:10.000Z</time>
</trkpt>
<trkpt lat="46.1202220" lon="10.4983020">
	<ele>2080.80</ele>
	<time>2024-07-25T10:41:11.000Z</time>
</trkpt>
<trkpt lat="46.1202150" lon="10.4982850">
	<ele>2080.80</ele>
	<time>2024-07-25T10:41:12.000Z</time>
</trkpt>
<trkpt lat="46.1202040" lon="10.4982690">
	<ele>2080.80</ele>
	<time>2024-07-25T10:41:13.000Z</time>
</trkpt>
<trkpt lat="46.1201950" lon="10.4982560">
	<ele>2080.60</ele>
	<time>2024-07-25T10:41:14.000Z</time>
</trkpt>
<trkpt lat="46.1201850" lon="10.4982520">
	<ele>2080.40</ele>
	<time>2024-07-25T10:41:15.000Z</time>
</trkpt>
<trkpt lat="46.1201760" lon="10.4982450">
	<ele>2080.20</ele>
	<time>2024-07-25T10:41:16.000Z</time>
</trkpt>
<trkpt lat="46.1201680" lon="10.4982410">
	<ele>2080.00</ele>
	<time>2024-07-25T10:41:17.000Z</time>
</trkpt>
<trkpt lat="46.1201550" lon="10.4982360">
	<ele>2079.80</ele>
	<time>2024-07-25T10:41:18.000Z</time>
</trkpt>
<trkpt lat="46.1201440" lon="10.4982360">
	<ele>2079.60</ele>
	<time>2024-07-25T10:41:19.000Z</time>
</trkpt>
<trkpt lat="46.1201340" lon="10.4982360">
	<ele>2079.40</ele>
	<time>2024-07-25T10:41:20.000Z</time>
</trkpt>
<trkpt lat="46.1201230" lon="10.4982400">
	<ele>2079.40</ele>
	<time>2024-07-25T10:41:21.000Z</time>
</trkpt>
<trkpt lat="46.1201130" lon="10.4982540">
	<ele>2079.20</ele>
	<time>2024-07-25T10:41:22.000Z</time>
</trkpt>
<trkpt lat="46.1201050" lon="10.4982690">
	<ele>2078.80</ele>
	<time>2024-07-25T10:41:23.000Z</time>
</trkpt>
<trkpt lat="46.1200950" lon="10.4982870">
	<ele>2078.60</ele>
	<time>2024-07-25T10:41:24.000Z</time>
</trkpt>
<trkpt lat="46.1200840" lon="10.4983050">
	<ele>2078.40</ele>
	<time>2024-07-25T10:41:25.000Z</time>
</trkpt>
<trkpt lat="46.1200750" lon="10.4983210">
	<ele>2078.20</ele>
	<time>2024-07-25T10:41:26.000Z</time>
</trkpt>
<trkpt lat="46.1200630" lon="10.4983320">
	<ele>2078.00</ele>
	<time>2024-07-25T10:41:27.000Z</time>
</trkpt>
<trkpt lat="46.1200490" lon="10.4983400">
	<ele>2078.00</ele>
	<time>2024-07-25T10:41:28.000Z</time>
</trkpt>
<trkpt lat="46.1200380" lon="10.4983470">
	<ele>2077.80</ele>
	<time>2024-07-25T10:41:29.000Z</time>
</trkpt>
<trkpt lat="46.1200270" lon="10.4983550">
	<ele>2077.80</ele>
	<time>2024-07-25T10:41:30.000Z</time>
</trkpt>
<trkpt lat="46.1200170" lon="10.4983610">
	<ele>2077.60</ele>
	<time>2024-07-25T10:41:31.000Z</time>
</trkpt>
<trkpt lat="46.1200040" lon="10.4983640">
	<ele>2077.20</ele>
	<time>2024-07-25T10:41:32.000Z</time>
</trkpt>
<trkpt lat="46.1199870" lon="10.4983680">
	<ele>2077.00</ele>
	<time>2024-07-25T10:41:33.000Z</time>
</trkpt>
<trkpt lat="46.1199750" lon="10.4983730">
	<ele>2076.80</ele>
	<time>2024-07-25T10:41:34.000Z</time>
</trkpt>
<trkpt lat="46.1199650" lon="10.4983740">
	<ele>2076.80</ele>
	<time>2024-07-25T10:41:35.000Z</time>
</trkpt>
<trkpt lat="46.1199550" lon="10.4983710">
	<ele>2076.40</ele>
	<time>2024-07-25T10:41:36.000Z</time>
</trkpt>
<trkpt lat="46.1199410" lon="10.4983660">
	<ele>2076.20</ele>
	<time>2024-07-25T10:41:37.000Z</time>
</trkpt>
<trkpt lat="46.1199310" lon="10.4983650">
	<ele>2076.00</ele>
	<time>2024-07-25T10:41:38.000Z</time>
</trkpt>
<trkpt lat="46.1199190" lon="10.4983630">
	<ele>2075.60</ele>
	<time>2024-07-25T10:41:39.000Z</time>
</trkpt>
<trkpt lat="46.1199080" lon="10.4983580">
	<ele>2075.40</ele>
	<time>2024-07-25T10:41:40.000Z</time>
</trkpt>
<trkpt lat="46.1198980" lon="10.4983520">
	<ele>2075.00</ele>
	<time>2024-07-25T10:41:41.000Z</time>
</trkpt>
<trkpt lat="46.1198920" lon="10.4983400">
	<ele>2074.80</ele>
	<time>2024-07-25T10:41:42.000Z</time>
</trkpt>
<trkpt lat="46.1198890" lon="10.4983280">
	<ele>2074.60</ele>
	<time>2024-07-25T10:41:43.000Z</time>
</trkpt>
<trkpt lat="46.1198860" lon="10.4983110">
	<ele>2074.60</ele>
	<time>2024-07-25T10:41:44.000Z</time>
</trkpt>
<trkpt lat="46.1198840" lon="10.4982980">
	<ele>2074.40</ele>
	<time>2024-07-25T10:41:45.000Z</time>
</trkpt>
<trkpt lat="46.1198820" lon="10.4982880">
	<ele>2074.20</ele>
	<time>2024-07-25T10:41:46.000Z</time>
</trkpt>
<trkpt lat="46.1198810" lon="10.4982750">
	<ele>2074.00</ele>
	<time>2024-07-25T10:41:47.000Z</time>
</trkpt>
<trkpt lat="46.1198820" lon="10.4982620">
	<ele>2073.80</ele>
	<time>2024-07-25T10:41:48.000Z</time>
</trkpt>
<trkpt lat="46.1198860" lon="10.4982450">
	<ele>2073.60</ele>
	<time>2024-07-25T10:41:49.000Z</time>
</trkpt>
<trkpt lat="46.1198870" lon="10.4982320">
	<ele>2073.40</ele>
	<time>2024-07-25T10:41:50.000Z</time>
</trkpt>
<trkpt lat="46.1198850" lon="10.4982240">
	<ele>2073.00</ele>
	<time>2024-07-25T10:41:51.000Z</time>
</trkpt>
<trkpt lat="46.1198840" lon="10.4982200">
	<ele>2073.00</ele>
	<time>2024-07-25T10:41:52.000Z</time>
</trkpt>
<trkpt lat="46.1198840" lon="10.4982130">
	<ele>2072.80</ele>
	<time>2024-07-25T10:41:53.000Z</time>
</trkpt>
<trkpt lat="46.1198850" lon="10.4982100">
	<ele>2072.60</ele>
	<time>2024-07-25T10:41:54.000Z</time>
</trkpt>
<trkpt lat="46.1198870" lon="10.4982060">
	<ele>2072.40</ele>
	<time>2024-07-25T10:41:55.000Z</time>
</trkpt>
<trkpt lat="46.1198860" lon="10.4982010">
	<ele>2072.20</ele>
	<time>2024-07-25T10:41:56.000Z</time>
</trkpt>
<trkpt lat="46.1198820" lon="10.4981900">
	<ele>2072.00</ele>
	<time>2024-07-25T10:41:57.000Z</time>
</trkpt>
<trkpt lat="46.1198730" lon="10.4981770">
	<ele>2072.00</ele>
	<time>2024-07-25T10:41:58.000Z</time>
</trkpt>
<trkpt lat="46.1198680" lon="10.4981610">
	<ele>2071.80</ele>
	<time>2024-07-25T10:41:59.000Z</time>
</trkpt>
<trkpt lat="46.1198680" lon="10.4981420">
	<ele>2071.40</ele>
	<time>2024-07-25T10:42:00.000Z</time>
</trkpt>
<trkpt lat="46.1198700" lon="10.4981220">
	<ele>2071.20</ele>
	<time>2024-07-25T10:42:01.000Z</time>
</trkpt>
<trkpt lat="46.1198740" lon="10.4981020">
	<ele>2071.00</ele>
	<time>2024-07-25T10:42:02.000Z</time>
</trkpt>
<trkpt lat="46.1198760" lon="10.4980830">
	<ele>2070.80</ele>
	<time>2024-07-25T10:42:03.000Z</time>
</trkpt>
<trkpt lat="46.1198790" lon="10.4980700">
	<ele>2070.40</ele>
	<time>2024-07-25T10:42:04.000Z</time>
</trkpt>
<trkpt lat="46.1198810" lon="10.4980560">
	<ele>2070.00</ele>
	<time>2024-07-25T10:42:05.000Z</time>
</trkpt>
<trkpt lat="46.1198820" lon="10.4980390">
	<ele>2069.80</ele>
	<time>2024-07-25T10:42:06.000Z</time>
</trkpt>
<trkpt lat="46.1198830" lon="10.4980220">
	<ele>2069.60</ele>
	<time>2024-07-25T10:42:07.000Z</time>
</trkpt>
<trkpt lat="46.1198850" lon="10.4980070">
	<ele>2069.40</ele>
	<time>2024-07-25T10:42:08.000Z</time>
</trkpt>
<trkpt lat="46.1198880" lon="10.4979930">
	<ele>2069.00</ele>
	<time>2024-07-25T10:42:09.000Z</time>
</trkpt>
<trkpt lat="46.1198910" lon="10.4979770">
	<ele>2068.80</ele>
	<time>2024-07-25T10:42:10.000Z</time>
</trkpt>
<trkpt lat="46.1198940" lon="10.4979600">
	<ele>2068.40</ele>
	<time>2024-07-25T10:42:11.000Z</time>
</trkpt>
<trkpt lat="46.1198960" lon="10.4979430">
	<ele>2068.40</ele>
	<time>2024-07-25T10:42:12.000Z</time>
</trkpt>
<trkpt lat="46.1199000" lon="10.4979250">
	<ele>2068.00</ele>
	<time>2024-07-25T10:42:13.000Z</time>
</trkpt>
<trkpt lat="46.1199070" lon="10.4979070">
	<ele>2068.00</ele>
	<time>2024-07-25T10:42:14.000Z</time>
</trkpt>
<trkpt lat="46.1199090" lon="10.4978930">
	<ele>2067.60</ele>
	<time>2024-07-25T10:42:15.000Z</time>
</trkpt>
<trkpt lat="46.1199140" lon="10.4978800">
	<ele>2067.00</ele>
	<time>2024-07-25T10:42:16.000Z</time>
</trkpt>
<trkpt lat="46.1199160" lon="10.4978620">
	<ele>2066.60</ele>
	<time>2024-07-25T10:42:17.000Z</time>
</trkpt>
<trkpt lat="46.1199200" lon="10.4978460">
	<ele>2066.40</ele>
	<time>2024-07-25T10:42:18.000Z</time>
</trkpt>
<trkpt lat="46.1199250" lon="10.4978340">
	<ele>2066.20</ele>
	<time>2024-07-25T10:42:19.000Z</time>
</trkpt>
<trkpt lat="46.1199340" lon="10.4978190">
	<ele>2066.00</ele>
	<time>2024-07-25T10:42:20.000Z</time>
</trkpt>
<trkpt lat="46.1199460" lon="10.4978050">
	<ele>2065.80</ele>
	<time>2024-07-25T10:42:21.000Z</time>
</trkpt>
<trkpt lat="46.1199540" lon="10.4977970">
	<ele>2065.40</ele>
	<time>2024-07-25T10:42:22.000Z</time>
</trkpt>
<trkpt lat="46.1199630" lon="10.4977900">
	<ele>2065.20</ele>
	<time>2024-07-25T10:42:23.000Z</time>
</trkpt>
<trkpt lat="46.1199740" lon="10.4977800">
	<ele>2065.00</ele>
	<time>2024-07-25T10:42:24.000Z</time>
</trkpt>
<trkpt lat="46.1199850" lon="10.4977720">
	<ele>2065.00</ele>
	<time>2024-07-25T10:42:25.000Z</time>
</trkpt>
<trkpt lat="46.1199930" lon="10.4977640">
	<ele>2064.60</ele>
	<time>2024-07-25T10:42:26.000Z</time>
</trkpt>
<trkpt lat="46.1200010" lon="10.4977560">
	<ele>2064.40</ele>
	<time>2024-07-25T10:42:27.000Z</time>
</trkpt>
<trkpt lat="46.1200140" lon="10.4977510">
	<ele>2064.20</ele>
	<time>2024-07-25T10:42:28.000Z</time>
</trkpt>
<trkpt lat="46.1200280" lon="10.4977410">
	<ele>2063.80</ele>
	<time>2024-07-25T10:42:29.000Z</time>
</trkpt>
<trkpt lat="46.1200380" lon="10.4977280">
	<ele>2063.60</ele>
	<time>2024-07-25T10:42:30.000Z</time>
</trkpt>
<trkpt lat="46.1200500" lon="10.4977080">
	<ele>2063.40</ele>
	<time>2024-07-25T10:42:31.000Z</time>
</trkpt>
<trkpt lat="46.1200570" lon="10.4976930">
	<ele>2063.00</ele>
	<time>2024-07-25T10:42:32.000Z</time>
</trkpt>
<trkpt lat="46.1200630" lon="10.4976720">
	<ele>2062.80</ele>
	<time>2024-07-25T10:42:33.000Z</time>
</trkpt>
<trkpt lat="46.1200620" lon="10.4976550">
	<ele>2062.60</ele>
	<time>2024-07-25T10:42:34.000Z</time>
</trkpt>
<trkpt lat="46.1200610" lon="10.4976350">
	<ele>2062.40</ele>
	<time>2024-07-25T10:42:35.000Z</time>
</trkpt>
<trkpt lat="46.1200570" lon="10.4976190">
	<ele>2062.20</ele>
	<time>2024-07-25T10:42:36.000Z</time>
</trkpt>
<trkpt lat="46.1200510" lon="10.4976070">
	<ele>2062.00</ele>
	<time>2024-07-25T10:42:37.000Z</time>
</trkpt>
<trkpt lat="46.1200390" lon="10.4975980">
	<ele>2061.80</ele>
	<time>2024-07-25T10:42:38.000Z</time>
</trkpt>
<trkpt lat="46.1200280" lon="10.4975930">
	<ele>2061.60</ele>
	<time>2024-07-25T10:42:39.000Z</time>
</trkpt>
<trkpt lat="46.1200170" lon="10.4975920">
	<ele>2061.40</ele>
	<time>2024-07-25T10:42:40.000Z</time>
</trkpt>
<trkpt lat="46.1200060" lon="10.4975930">
	<ele>2061.20</ele>
	<time>2024-07-25T10:42:41.000Z</time>
</trkpt>
<trkpt lat="46.1199960" lon="10.4975910">
	<ele>2061.00</ele>
	<time>2024-07-25T10:42:42.000Z</time>
</trkpt>
<trkpt lat="46.1199880" lon="10.4975840">
	<ele>2060.80</ele>
	<time>2024-07-25T10:42:43.000Z</time>
</trkpt>
<trkpt lat="46.1199760" lon="10.4975700">
	<ele>2060.60</ele>
	<time>2024-07-25T10:42:44.000Z</time>
</trkpt>
<trkpt lat="46.1199720" lon="10.4975530">
	<ele>2060.60</ele>
	<time>2024-07-25T10:42:45.000Z</time>
</trkpt>
<trkpt lat="46.1199700" lon="10.4975360">
	<ele>2060.40</ele>
	<time>2024-07-25T10:42:46.000Z</time>
</trkpt>
<trkpt lat="46.1199660" lon="10.4975190">
	<ele>2060.20</ele>
	<time>2024-07-25T10:42:47.000Z</time>
</trkpt>
<trkpt lat="46.1199610" lon="10.4975010">
	<ele>2060.00</ele>
	<time>2024-07-25T10:42:48.000Z</time>
</trkpt>
<trkpt lat="46.1199570" lon="10.4974790">
	<ele>2060.00</ele>
	<time>2024-07-25T10:42:49.000Z</time>
</trkpt>
<trkpt lat="46.1199520" lon="10.4974580">
	<ele>2059.80</ele>
	<time>2024-07-25T10:42:50.000Z</time>
</trkpt>
<trkpt lat="46.1199460" lon="10.4974470">
	<ele>2059.60</ele>
	<time>2024-07-25T10:42:51.000Z</time>
</trkpt>
<trkpt lat="46.1199380" lon="10.4974260">
	<ele>2059.40</ele>
	<time>2024-07-25T10:42:52.000Z</time>
</trkpt>
<trkpt lat="46.1199340" lon="10.4974080">
	<ele>2059.00</ele>
	<time>2024-07-25T10:42:53.000Z</time>
</trkpt>
<trkpt lat="46.1199350" lon="10.4973900">
	<ele>2058.80</ele>
	<time>2024-07-25T10:42:54.000Z</time>
</trkpt>
<trkpt lat="46.1199310" lon="10.4973680">
	<ele>2058.60</ele>
	<time>2024-07-25T10:42:55.000Z</time>
</trkpt>
<trkpt lat="46.1199260" lon="10.4973520">
	<ele>2058.40</ele>
	<time>2024-07-25T10:42:56.000Z</time>
</trkpt>
<trkpt lat="46.1199230" lon="10.4973390">
	<ele>2058.20</ele>
	<time>2024-07-25T10:42:57.000Z</time>
</trkpt>
<trkpt lat="46.1199200" lon="10.4973210">
	<ele>2058.00</ele>
	<time>2024-07-25T10:42:58.000Z</time>
</trkpt>
<trkpt lat="46.1199160" lon="10.4973100">
	<ele>2057.80</ele>
	<time>2024-07-25T10:42:59.000Z</time>
</trkpt>
<trkpt lat="46.1199090" lon="10.4972930">
	<ele>2057.60</ele>
	<time>2024-07-25T10:43:00.000Z</time>
</trkpt>
<trkpt lat="46.1199040" lon="10.4972730">
	<ele>2057.40</ele>
	<time>2024-07-25T10:43:01.000Z</time>
</trkpt>
<trkpt lat="46.1198980" lon="10.4972540">
	<ele>2057.20</ele>
	<time>2024-07-25T10:43:02.000Z</time>
</trkpt>
<trkpt lat="46.1198910" lon="10.4972380">
	<ele>2056.80</ele>
	<time>2024-07-25T10:43:03.000Z</time>
</trkpt>
<trkpt lat="46.1198840" lon="10.4972280">
	<ele>2056.80</ele>
	<time>2024-07-25T10:43:04.000Z</time>
</trkpt>
<trkpt lat="46.1198770" lon="10.4972150">
	<ele>2056.60</ele>
	<time>2024-07-25T10:43:05.000Z</time>
</trkpt>
<trkpt lat="46.1198710" lon="10.4972000">
	<ele>2056.60</ele>
	<time>2024-07-25T10:43:06.000Z</time>
</trkpt>
<trkpt lat="46.1198660" lon="10.4971880">
	<ele>2056.60</ele>
	<time>2024-07-25T10:43:07.000Z</time>
</trkpt>
<trkpt lat="46.1198600" lon="10.4971740">
	<ele>2056.60</ele>
	<time>2024-07-25T10:43:08.000Z</time>
</trkpt>
<trkpt lat="46.1198520" lon="10.4971600">
	<ele>2056.40</ele>
	<time>2024-07-25T10:43:09.000Z</time>
</trkpt>
<trkpt lat="46.1198480" lon="10.4971400">
	<ele>2056.20</ele>
	<time>2024-07-25T10:43:10.000Z</time>
</trkpt>
<trkpt lat="46.1198460" lon="10.4971230">
	<ele>2056.00</ele>
	<time>2024-07-25T10:43:11.000Z</time>
</trkpt>
<trkpt lat="46.1198460" lon="10.4971050">
	<ele>2055.80</ele>
	<time>2024-07-25T10:43:12.000Z</time>
</trkpt>
<trkpt lat="46.1198470" lon="10.4970880">
	<ele>2055.80</ele>
	<time>2024-07-25T10:43:13.000Z</time>
</trkpt>
<trkpt lat="46.1198450" lon="10.4970720">
	<ele>2055.60</ele>
	<time>2024-07-25T10:43:14.000Z</time>
</trkpt>
<trkpt lat="46.1198440" lon="10.4970520">
	<ele>2055.40</ele>
	<time>2024-07-25T10:43:15.000Z</time>
</trkpt>
<trkpt lat="46.1198470" lon="10.4970310">
	<ele>2055.40</ele>
	<time>2024-07-25T10:43:16.000Z</time>
</trkpt>
<trkpt lat="46.1198500" lon="10.4970130">
	<ele>2055.20</ele>
	<time>2024-07-25T10:43:17.000Z</time>
</trkpt>
<trkpt lat="46.1198530" lon="10.4969930">
	<ele>2055.00</ele>
	<time>2024-07-25T10:43:18.000Z</time>
</trkpt>
<trkpt lat="46.1198560" lon="10.4969710">
	<ele>2054.80</ele>
	<time>2024-07-25T10:43:19.000Z</time>
</trkpt>
<trkpt lat="46.1198570" lon="10.4969460">
	<ele>2054.80</ele>
	<time>2024-07-25T10:43:20.000Z</time>
</trkpt>
<trkpt lat="46.1198510" lon="10.4969260">
	<ele>2054.60</ele>
	<time>2024-07-25T10:43:21.000Z</time>
</trkpt>
<trkpt lat="46.1198460" lon="10.4969140">
	<ele>2054.40</ele>
	<time>2024-07-25T10:43:22.000Z</time>
</trkpt>
<trkpt lat="46.1198400" lon="10.4968960">
	<ele>2054.40</ele>
	<time>2024-07-25T10:43:23.000Z</time>
</trkpt>
<trkpt lat="46.1198300" lon="10.4968820">
	<ele>2054.40</ele>
	<time>2024-07-25T10:43:24.000Z</time>
</trkpt>
<trkpt lat="46.1198210" lon="10.4968680">
	<ele>2054.40</ele>
	<time>2024-07-25T10:43:25.000Z</time>
</trkpt>
<trkpt lat="46.1198090" lon="10.4968530">
	<ele>2054.40</ele>
	<time>2024-07-25T10:43:26.000Z</time>
</trkpt>
<trkpt lat="46.1197980" lon="10.4968440">
	<ele>2054.20</ele>
	<time>2024-07-25T10:43:27.000Z</time>
</trkpt>
<trkpt lat="46.1197810" lon="10.4968340">
	<ele>2054.20</ele>
	<time>2024-07-25T10:43:28.000Z</time>
</trkpt>
<trkpt lat="46.1197670" lon="10.4968270">
	<ele>2054.20</ele>
	<time>2024-07-25T10:43:29.000Z</time>
</trkpt>
<trkpt lat="46.1197570" lon="10.4968250">
	<ele>2054.00</ele>
	<time>2024-07-25T10:43:30.000Z</time>
</trkpt>
<trkpt lat="46.1197460" lon="10.4968220">
	<ele>2054.00</ele>
	<time>2024-07-25T10:43:31.000Z</time>
</trkpt>
<trkpt lat="46.1197350" lon="10.4968180">
	<ele>2054.00</ele>
	<time>2024-07-25T10:43:32.000Z</time>
</trkpt>
<trkpt lat="46.1197190" lon="10.4968170">
	<ele>2053.80</ele>
	<time>2024-07-25T10:43:33.000Z</time>
</trkpt>
<trkpt lat="46.1197080" lon="10.4968150">
	<ele>2053.80</ele>
	<time>2024-07-25T10:43:34.000Z</time>
</trkpt>
<trkpt lat="46.1196970" lon="10.4968070">
	<ele>2053.60</ele>
	<time>2024-07-25T10:43:35.000Z</time>
</trkpt>
<trkpt lat="46.1196850" lon="10.4967960">
	<ele>2053.40</ele>
	<time>2024-07-25T10:43:36.000Z</time>
</trkpt>
<trkpt lat="46.1196720" lon="10.4967870">
	<ele>2053.20</ele>
	<time>2024-07-25T10:43:37.000Z</time>
</trkpt>
<trkpt lat="46.1196590" lon="10.4967840">
	<ele>2053.00</ele>
	<time>2024-07-25T10:43:38.000Z</time>
</trkpt>
<trkpt lat="46.1196450" lon="10.4967800">
	<ele>2052.80</ele>
	<time>2024-07-25T10:43:39.000Z</time>
</trkpt>
<trkpt lat="46.1196310" lon="10.4967750">
	<ele>2052.80</ele>
	<time>2024-07-25T10:43:40.000Z</time>
</trkpt>
<trkpt lat="46.1196210" lon="10.4967670">
	<ele>2052.80</ele>
	<time>2024-07-25T10:43:41.000Z</time>
</trkpt>
<trkpt lat="46.1196110" lon="10.4967570">
	<ele>2052.80</ele>
	<time>2024-07-25T10:43:42.000Z</time>
</trkpt>
<trkpt lat="46.1196000" lon="10.4967440">
	<ele>2052.60</ele>
	<time>2024-07-25T10:43:43.000Z</time>
</trkpt>
<trkpt lat="46.1195880" lon="10.4967330">
	<ele>2052.60</ele>
	<time>2024-07-25T10:43:44.000Z</time>
</trkpt>
<trkpt lat="46.1195770" lon="10.4967260">
	<ele>2052.60</ele>
	<time>2024-07-25T10:43:45.000Z</time>
</trkpt>
<trkpt lat="46.1195670" lon="10.4967200">
	<ele>2052.60</ele>
	<time>2024-07-25T10:43:46.000Z</time>
</trkpt>
<trkpt lat="46.1195560" lon="10.4967160">
	<ele>2052.20</ele>
	<time>2024-07-25T10:43:47.000Z</time>
</trkpt>
<trkpt lat="46.1195470" lon="10.4967060">
	<ele>2052.00</ele>
	<time>2024-07-25T10:43:48.000Z</time>
</trkpt>
<trkpt lat="46.1195350" lon="10.4967010">
	<ele>2052.00</ele>
	<time>2024-07-25T10:43:49.000Z</time>
</trkpt>
<trkpt lat="46.1195220" lon="10.4966980">
	<ele>2051.80</ele>
	<time>2024-07-25T10:43:50.000Z</time>
</trkpt>
<trkpt lat="46.1195090" lon="10.4966950">
	<ele>2051.60</ele>
	<time>2024-07-25T10:43:51.000Z</time>
</trkpt>
<trkpt lat="46.1194930" lon="10.4966930">
	<ele>2051.40</ele>
	<time>2024-07-25T10:43:52.000Z</time>
</trkpt>
<trkpt lat="46.1194790" lon="10.4966950">
	<ele>2051.40</ele>
	<time>2024-07-25T10:43:53.000Z</time>
</trkpt>
<trkpt lat="46.1194680" lon="10.4966920">
	<ele>2051.20</ele>
	<time>2024-07-25T10:43:54.000Z</time>
</trkpt>
<trkpt lat="46.1194560" lon="10.4966900">
	<ele>2051.20</ele>
	<time>2024-07-25T10:43:55.000Z</time>
</trkpt>
<trkpt lat="46.1194450" lon="10.4966820">
	<ele>2050.80</ele>
	<time>2024-07-25T10:43:56.000Z</time>
</trkpt>
<trkpt lat="46.1194310" lon="10.4966750">
	<ele>2050.80</ele>
	<time>2024-07-25T10:43:57.000Z</time>
</trkpt>
<trkpt lat="46.1194180" lon="10.4966680">
	<ele>2050.60</ele>
	<time>2024-07-25T10:43:58.000Z</time>
</trkpt>
<trkpt lat="46.1194060" lon="10.4966590">
	<ele>2050.40</ele>
	<time>2024-07-25T10:43:59.000Z</time>
</trkpt>
<trkpt lat="46.1193940" lon="10.4966480">
	<ele>2050.40</ele>
	<time>2024-07-25T10:44:00.000Z</time>
</trkpt>
<trkpt lat="46.1193800" lon="10.4966390">
	<ele>2050.20</ele>
	<time>2024-07-25T10:44:01.000Z</time>
</trkpt>
<trkpt lat="46.1193650" lon="10.4966320">
	<ele>2050.00</ele>
	<time>2024-07-25T10:44:02.000Z</time>
</trkpt>
<trkpt lat="46.1193480" lon="10.4966290">
	<ele>2049.80</ele>
	<time>2024-07-25T10:44:03.000Z</time>
</trkpt>
<trkpt lat="46.1193330" lon="10.4966290">
	<ele>2049.60</ele>
	<time>2024-07-25T10:44:04.000Z</time>
</trkpt>
<trkpt lat="46.1193170" lon="10.4966320">
	<ele>2049.40</ele>
	<time>2024-07-25T10:44:05.000Z</time>
</trkpt>
<trkpt lat="46.1193050" lon="10.4966350">
	<ele>2049.20</ele>
	<time>2024-07-25T10:44:06.000Z</time>
</trkpt>
<trkpt lat="46.1192880" lon="10.4966370">
	<ele>2049.20</ele>
	<time>2024-07-25T10:44:07.000Z</time>
</trkpt>
<trkpt lat="46.1192720" lon="10.4966350">
	<ele>2049.20</ele>
	<time>2024-07-25T10:44:08.000Z</time>
</trkpt>
<trkpt lat="46.1192590" lon="10.4966310">
	<ele>2049.20</ele>
	<time>2024-07-25T10:44:09.000Z</time>
</trkpt>
<trkpt lat="46.1192460" lon="10.4966210">
	<ele>2049.00</ele>
	<time>2024-07-25T10:44:10.000Z</time>
</trkpt>
<trkpt lat="46.1192370" lon="10.4966100">
	<ele>2048.80</ele>
	<time>2024-07-25T10:44:11.000Z</time>
</trkpt>
<trkpt lat="46.1192270" lon="10.4965940">
	<ele>2048.80</ele>
	<time>2024-07-25T10:44:12.000Z</time>
</trkpt>
<trkpt lat="46.1192170" lon="10.4965810">
	<ele>2048.80</ele>
	<time>2024-07-25T10:44:13.000Z</time>
</trkpt>
<trkpt lat="46.1192050" lon="10.4965680">
	<ele>2048.80</ele>
	<time>2024-07-25T10:44:14.000Z</time>
</trkpt>
<trkpt lat="46.1191950" lon="10.4965550">
	<ele>2048.60</ele>
	<time>2024-07-25T10:44:15.000Z</time>
</trkpt>
<trkpt lat="46.1191850" lon="10.4965400">
	<ele>2048.40</ele>
	<time>2024-07-25T10:44:16.000Z</time>
</trkpt>
<trkpt lat="46.1191780" lon="10.4965250">
	<ele>2048.40</ele>
	<time>2024-07-25T10:44:17.000Z</time>
</trkpt>
<trkpt lat="46.1191730" lon="10.4965100">
	<ele>2048.40</ele>
	<time>2024-07-25T10:44:18.000Z</time>
</trkpt>
<trkpt lat="46.1191670" lon="10.4964950">
	<ele>2048.20</ele>
	<time>2024-07-25T10:44:19.000Z</time>
</trkpt>
<trkpt lat="46.1191590" lon="10.4964850">
	<ele>2048.00</ele>
	<time>2024-07-25T10:44:20.000Z</time>
</trkpt>
<trkpt lat="46.1191480" lon="10.4964710">
	<ele>2048.00</ele>
	<time>2024-07-25T10:44:21.000Z</time>
</trkpt>
<trkpt lat="46.1191360" lon="10.4964560">
	<ele>2048.00</ele>
	<time>2024-07-25T10:44:22.000Z</time>
</trkpt>
<trkpt lat="46.1191250" lon="10.4964420">
	<ele>2048.00</ele>
	<time>2024-07-25T10:44:23.000Z</time>
</trkpt>
<trkpt lat="46.1191140" lon="10.4964260">
	<ele>2048.00</ele>
	<time>2024-07-25T10:44:24.000Z</time>
</trkpt>
<trkpt lat="46.1191010" lon="10.4964090">
	<ele>2048.00</ele>
	<time>2024-07-25T10:44:25.000Z</time>
</trkpt>
<trkpt lat="46.1190920" lon="10.4963950">
	<ele>2048.00</ele>
	<time>2024-07-25T10:44:26.000Z</time>
</trkpt>
<trkpt lat="46.1190820" lon="10.4963800">
	<ele>2048.00</ele>
	<time>2024-07-25T10:44:27.000Z</time>
</trkpt>
<trkpt lat="46.1190730" lon="10.4963650">
	<ele>2048.00</ele>
	<time>2024-07-25T10:44:28.000Z</time>
</trkpt>
<trkpt lat="46.1190650" lon="10.4963510">
	<ele>2048.00</ele>
	<time>2024-07-25T10:44:29.000Z</time>
</trkpt>
<trkpt lat="46.1190540" lon="10.4963370">
	<ele>2048.20</ele>
	<time>2024-07-25T10:44:30.000Z</time>
</trkpt>
<trkpt lat="46.1190460" lon="10.4963240">
	<ele>2048.20</ele>
	<time>2024-07-25T10:44:31.000Z</time>
</trkpt>
<trkpt lat="46.1190380" lon="10.4963110">
	<ele>2048.20</ele>
	<time>2024-07-25T10:44:32.000Z</time>
</trkpt>
<trkpt lat="46.1190310" lon="10.4962900">
	<ele>2048.20</ele>
	<time>2024-07-25T10:44:33.000Z</time>
</trkpt>
<trkpt lat="46.1190260" lon="10.4962740">
	<ele>2048.20</ele>
	<time>2024-07-25T10:44:34.000Z</time>
</trkpt>
<trkpt lat="46.1190200" lon="10.4962540">
	<ele>2048.20</ele>
	<time>2024-07-25T10:44:35.000Z</time>
</trkpt>
<trkpt lat="46.1190150" lon="10.4962360">
	<ele>2048.20</ele>
	<time>2024-07-25T10:44:36.000Z</time>
</trkpt>
<trkpt lat="46.1190090" lon="10.4962200">
	<ele>2048.40</ele>
	<time>2024-07-25T10:44:37.000Z</time>
</trkpt>
<trkpt lat="46.1190030" lon="10.4962060">
	<ele>2048.40</ele>
	<time>2024-07-25T10:44:38.000Z</time>
</trkpt>
<trkpt lat="46.1189950" lon="10.4961900">
	<ele>2048.40</ele>
	<time>2024-07-25T10:44:39.000Z</time>
</trkpt>
<trkpt lat="46.1189900" lon="10.4961760">
	<ele>2048.60</ele>
	<time>2024-07-25T10:44:40.000Z</time>
</trkpt>
<trkpt lat="46.1189810" lon="10.4961550">
	<ele>2048.60</ele>
	<time>2024-07-25T10:44:41.000Z</time>
</trkpt>
<trkpt lat="46.1189730" lon="10.4961390">
	<ele>2048.60</ele>
	<time>2024-07-25T10:44:42.000Z</time>
</trkpt>
<trkpt lat="46.1189690" lon="10.4961210">
	<ele>2048.80</ele>
	<time>2024-07-25T10:44:43.000Z</time>
</trkpt>
<trkpt lat="46.1189660" lon="10.4961040">
	<ele>2048.80</ele>
	<time>2024-07-25T10:44:44.000Z</time>
</trkpt>
<trkpt lat="46.1189640" lon="10.4960910">
	<ele>2049.00</ele>
	<time>2024-07-25T10:44:45.000Z</time>
</trkpt>
<trkpt lat="46.1189650" lon="10.4960830">
	<ele>2049.20</ele>
	<time>2024-07-25T10:44:46.000Z</time>
</trkpt>
<trkpt lat="46.1189660" lon="10.4960780">
	<ele>2049.20</ele>
	<time>2024-07-25T10:44:47.000Z</time>
</trkpt>
<trkpt lat="46.1189640" lon="10.4960730">
	<ele>2049.40</ele>
	<time>2024-07-25T10:44:48.000Z</time>
</trkpt>
<trkpt lat="46.1189610" lon="10.4960630">
	<ele>2049.40</ele>
	<time>2024-07-25T10:44:49.000Z</time>
</trkpt>
<trkpt lat="46.1189580" lon="10.4960490">
	<ele>2049.40</ele>
	<time>2024-07-25T10:44:50.000Z</time>
</trkpt>
<trkpt lat="46.1189540" lon="10.4960330">
	<ele>2049.40</ele>
	<time>2024-07-25T10:44:51.000Z</time>
</trkpt>
<trkpt lat="46.1189500" lon="10.4960210">
	<ele>2049.40</ele>
	<time>2024-07-25T10:44:52.000Z</time>
</trkpt>
<trkpt lat="46.1189450" lon="10.4960070">
	<ele>2049.60</ele>
	<time>2024-07-25T10:44:53.000Z</time>
</trkpt>
<trkpt lat="46.1189390" lon="10.4959890">
	<ele>2049.60</ele>
	<time>2024-07-25T10:44:54.000Z</time>
</trkpt>
<trkpt lat="46.1189340" lon="10.4959700">
	<ele>2049.80</ele>
	<time>2024-07-25T10:44:55.000Z</time>
</trkpt>
<trkpt lat="46.1189290" lon="10.4959500">
	<ele>2050.00</ele>
	<time>2024-07-25T10:44:56.000Z</time>
</trkpt>
<trkpt lat="46.1189210" lon="10.4959310">
	<ele>2050.00</ele>
	<time>2024-07-25T10:44:57.000Z</time>
</trkpt>
<trkpt lat="46.1189160" lon="10.4959110">
	<ele>2050.20</ele>
	<time>2024-07-25T10:44:58.000Z</time>
</trkpt>
<trkpt lat="46.1189130" lon="10.4958920">
	<ele>2050.40</ele>
	<time>2024-07-25T10:44:59.000Z</time>
</trkpt>
<trkpt lat="46.1189080" lon="10.4958740">
	<ele>2050.40</ele>
	<time>2024-07-25T10:45:00.000Z</time>
</trkpt>
<trkpt lat="46.1189040" lon="10.4958560">
	<ele>2050.60</ele>
	<time>2024-07-25T10:45:01.000Z</time>
</trkpt>
<trkpt lat="46.1188990" lon="10.4958410">
	<ele>2050.60</ele>
	<time>2024-07-25T10:45:02.000Z</time>
</trkpt>
<trkpt lat="46.1188930" lon="10.4958250">
	<ele>2050.80</ele>
	<time>2024-07-25T10:45:03.000Z</time>
</trkpt>
<trkpt lat="46.1188880" lon="10.4958110">
	<ele>2051.00</ele>
	<time>2024-07-25T10:45:04.000Z</time>
</trkpt>
<trkpt lat="46.1188800" lon="10.4957900">
	<ele>2051.20</ele>
	<time>2024-07-25T10:45:05.000Z</time>
</trkpt>
<trkpt lat="46.1188740" lon="10.4957720">
	<ele>2051.20</ele>
	<time>2024-07-25T10:45:06.000Z</time>
</trkpt>
<trkpt lat="46.1188700" lon="10.4957550">
	<ele>2051.40</ele>
	<time>2024-07-25T10:45:07.000Z</time>
</trkpt>
<trkpt lat="46.1188630" lon="10.4957400">
	<ele>2051.40</ele>
	<time>2024-07-25T10:45:08.000Z</time>
</trkpt>
<trkpt lat="46.1188530" lon="10.4957240">
	<ele>2051.40</ele>
	<time>2024-07-25T10:45:09.000Z</time>
</trkpt>
<trkpt lat="46.1188430" lon="10.4957070">
	<ele>2051.60</ele>
	<time>2024-07-25T10:45:10.000Z</time>
</trkpt>
<trkpt lat="46.1188360" lon="10.4956910">
	<ele>2051.60</ele>
	<time>2024-07-25T10:45:11.000Z</time>
</trkpt>
<trkpt lat="46.1188280" lon="10.4956750">
	<ele>2051.60</ele>
	<time>2024-07-25T10:45:12.000Z</time>
</trkpt>
<trkpt lat="46.1188220" lon="10.4956580">
	<ele>2051.80</ele>
	<time>2024-07-25T10:45:13.000Z</time>
</trkpt>
<trkpt lat="46.1188150" lon="10.4956450">
	<ele>2051.80</ele>
	<time>2024-07-25T10:45:14.000Z</time>
</trkpt>
<trkpt lat="46.1188060" lon="10.4956330">
	<ele>2051.80</ele>
	<time>2024-07-25T10:45:15.000Z</time>
</trkpt>
<trkpt lat="46.1187980" lon="10.4956180">
	<ele>2051.80</ele>
	<time>2024-07-25T10:45:16.000Z</time>
</trkpt>
<trkpt lat="46.1187910" lon="10.4956000">
	<ele>2051.80</ele>
	<time>2024-07-25T10:45:17.000Z</time>
</trkpt>
<trkpt lat="46.1187840" lon="10.4955830">
	<ele>2051.80</ele>
	<time>2024-07-25T10:45:18.000Z</time>
</trkpt>
<trkpt lat="46.1187760" lon="10.4955670">
	<ele>2051.80</ele>
	<time>2024-07-25T10:45:19.000Z</time>
</trkpt>
<trkpt lat="46.1187670" lon="10.4955550">
	<ele>2051.80</ele>
	<time>2024-07-25T10:45:20.000Z</time>
</trkpt>
<trkpt lat="46.1187570" lon="10.4955440">
	<ele>2052.00</ele>
	<time>2024-07-25T10:45:21.000Z</time>
</trkpt>
<trkpt lat="46.1187490" lon="10.4955340">
	<ele>2052.20</ele>
	<time>2024-07-25T10:45:22.000Z</time>
</trkpt>
<trkpt lat="46.1187370" lon="10.4955220">
	<ele>2052.20</ele>
	<time>2024-07-25T10:45:23.000Z</time>
</trkpt>
<trkpt lat="46.1187270" lon="10.4955090">
	<ele>2052.40</ele>
	<time>2024-07-25T10:45:24.000Z</time>
</trkpt>
<trkpt lat="46.1187170" lon="10.4954930">
	<ele>2052.40</ele>
	<time>2024-07-25T10:45:25.000Z</time>
</trkpt>
<trkpt lat="46.1187070" lon="10.4954750">
	<ele>2052.40</ele>
	<time>2024-07-25T10:45:26.000Z</time>
</trkpt>
<trkpt lat="46.1186950" lon="10.4954560">
	<ele>2052.60</ele>
	<time>2024-07-25T10:45:27.000Z</time>
</trkpt>
<trkpt lat="46.1186880" lon="10.4954450">
	<ele>2052.60</ele>
	<time>2024-07-25T10:45:28.000Z</time>
</trkpt>
<trkpt lat="46.1186790" lon="10.4954240">
	<ele>2052.60</ele>
	<time>2024-07-25T10:45:29.000Z</time>
</trkpt>
<trkpt lat="46.1186750" lon="10.4954080">
	<ele>2052.80</ele>
	<time>2024-07-25T10:45:30.000Z</time>
</trkpt>
<trkpt lat="46.1186710" lon="10.4953850">
	<ele>2052.80</ele>
	<time>2024-07-25T10:45:31.000Z</time>
</trkpt>
<trkpt lat="46.1186670" lon="10.4953640">
	<ele>2053.20</ele>
	<time>2024-07-25T10:45:32.000Z</time>
</trkpt>
<trkpt lat="46.1186620" lon="10.4953430">
	<ele>2053.40</ele>
	<time>2024-07-25T10:45:33.000Z</time>
</trkpt>
<trkpt lat="46.1186570" lon="10.4953230">
	<ele>2053.60</ele>
	<time>2024-07-25T10:45:34.000Z</time>
</trkpt>
<trkpt lat="46.1186510" lon="10.4953020">
	<ele>2053.60</ele>
	<time>2024-07-25T10:45:35.000Z</time>
</trkpt>
<trkpt lat="46.1186430" lon="10.4952780">
	<ele>2053.80</ele>
	<time>2024-07-25T10:45:36.000Z</time>
</trkpt>
<trkpt lat="46.1186380" lon="10.4952600">
	<ele>2053.80</ele>
	<time>2024-07-25T10:45:37.000Z</time>
</trkpt>
<trkpt lat="46.1186350" lon="10.4952370">
	<ele>2053.80</ele>
	<time>2024-07-25T10:45:38.000Z</time>
</trkpt>
<trkpt lat="46.1186320" lon="10.4952170">
	<ele>2053.80</ele>
	<time>2024-07-25T10:45:39.000Z</time>
</trkpt>
<trkpt lat="46.1186250" lon="10.4951980">
	<ele>2053.80</ele>
	<time>2024-07-25T10:45:40.000Z</time>
</trkpt>
<trkpt lat="46.1186170" lon="10.4951800">
	<ele>2053.80</ele>
	<time>2024-07-25T10:45:41.000Z</time>
</trkpt>
<trkpt lat="46.1186100" lon="10.4951590">
	<ele>2053.80</ele>
	<time>2024-07-25T10:45:42.000Z</time>
</trkpt>
<trkpt lat="46.1186020" lon="10.4951350">
	<ele>2053.80</ele>
	<time>2024-07-25T10:45:43.000Z</time>
</trkpt>
<trkpt lat="46.1185960" lon="10.4951160">
	<ele>2053.80</ele>
	<time>2024-07-25T10:45:44.000Z</time>
</trkpt>
<trkpt lat="46.1185910" lon="10.4950980">
	<ele>2053.80</ele>
	<time>2024-07-25T10:45:45.000Z</time>
</trkpt>
<trkpt lat="46.1185850" lon="10.4950780">
	<ele>2053.80</ele>
	<time>2024-07-25T10:45:46.000Z</time>
</trkpt>
<trkpt lat="46.1185770" lon="10.4950600">
	<ele>2053.80</ele>
	<time>2024-07-25T10:45:47.000Z</time>
</trkpt>
<trkpt lat="46.1185710" lon="10.4950410">
	<ele>2053.60</ele>
	<time>2024-07-25T10:45:48.000Z</time>
</trkpt>
<trkpt lat="46.1185650" lon="10.4950230">
	<ele>2053.60</ele>
	<time>2024-07-25T10:45:49.000Z</time>
</trkpt>
<trkpt lat="46.1185590" lon="10.4950050">
	<ele>2053.60</ele>
	<time>2024-07-25T10:45:50.000Z</time>
</trkpt>
<trkpt lat="46.1185530" lon="10.4949880">
	<ele>2053.60</ele>
	<time>2024-07-25T10:45:51.000Z</time>
</trkpt>
<trkpt lat="46.1185460" lon="10.4949700">
	<ele>2053.60</ele>
	<time>2024-07-25T10:45:52.000Z</time>
</trkpt>
<trkpt lat="46.1185380" lon="10.4949570">
	<ele>2053.60</ele>
	<time>2024-07-25T10:45:53.000Z</time>
</trkpt>
<trkpt lat="46.1185280" lon="10.4949440">
	<ele>2053.60</ele>
	<time>2024-07-25T10:45:54.000Z</time>
</trkpt>
<trkpt lat="46.1185170" lon="10.4949270">
	<ele>2053.60</ele>
	<time>2024-07-25T10:45:55.000Z</time>
</trkpt>
<trkpt lat="46.1185050" lon="10.4949130">
	<ele>2053.40</ele>
	<time>2024-07-25T10:45:56.000Z</time>
</trkpt>
<trkpt lat="46.1184950" lon="10.4949010">
	<ele>2053.20</ele>
	<time>2024-07-25T10:45:57.000Z</time>
</trkpt>
<trkpt lat="46.1184890" lon="10.4948800">
	<ele>2053.00</ele>
	<time>2024-07-25T10:45:58.000Z</time>
</trkpt>
<trkpt lat="46.1184850" lon="10.4948650">
	<ele>2052.80</ele>
	<time>2024-07-25T10:45:59.000Z</time>
</trkpt>
<trkpt lat="46.1184790" lon="10.4948430">
	<ele>2052.80</ele>
	<time>2024-07-25T10:46:00.000Z</time>
</trkpt>
<trkpt lat="46.1184740" lon="10.4948230">
	<ele>2052.40</ele>
	<time>2024-07-25T10:46:01.000Z</time>
</trkpt>
<trkpt lat="46.1184700" lon="10.4948040">
	<ele>2052.00</ele>
	<time>2024-07-25T10:46:02.000Z</time>
</trkpt>
<trkpt lat="46.1184650" lon="10.4947840">
	<ele>2051.80</ele>
	<time>2024-07-25T10:46:03.000Z</time>
</trkpt>
<trkpt lat="46.1184590" lon="10.4947670">
	<ele>2051.60</ele>
	<time>2024-07-25T10:46:04.000Z</time>
</trkpt>
<trkpt lat="46.1184530" lon="10.4947500">
	<ele>2051.60</ele>
	<time>2024-07-25T10:46:05.000Z</time>
</trkpt>
<trkpt lat="46.1184450" lon="10.4947320">
	<ele>2051.60</ele>
	<time>2024-07-25T10:46:06.000Z</time>
</trkpt>
<trkpt lat="46.1184390" lon="10.4947190">
	<ele>2051.60</ele>
	<time>2024-07-25T10:46:07.000Z</time>
</trkpt>
<trkpt lat="46.1184320" lon="10.4947040">
	<ele>2051.80</ele>
	<time>2024-07-25T10:46:08.000Z</time>
</trkpt>
<trkpt lat="46.1184250" lon="10.4946930">
	<ele>2051.80</ele>
	<time>2024-07-25T10:46:09.000Z</time>
</trkpt>
<trkpt lat="46.1184180" lon="10.4946790">
	<ele>2051.60</ele>
	<time>2024-07-25T10:46:10.000Z</time>
</trkpt>
<trkpt lat="46.1184090" lon="10.4946660">
	<ele>2051.40</ele>
	<time>2024-07-25T10:46:11.000Z</time>
</trkpt>
<trkpt lat="46.1184010" lon="10.4946510">
	<ele>2051.20</ele>
	<time>2024-07-25T10:46:12.000Z</time>
</trkpt>
<trkpt lat="46.1183940" lon="10.4946330">
	<ele>2051.20</ele>
	<time>2024-07-25T10:46:13.000Z</time>
</trkpt>
<trkpt lat="46.1183860" lon="10.4946170">
	<ele>2051.00</ele>
	<time>2024-07-25T10:46:14.000Z</time>
</trkpt>
<trkpt lat="46.1183750" lon="10.4946050">
	<ele>2050.80</ele>
	<time>2024-07-25T10:46:15.000Z</time>
</trkpt>
<trkpt lat="46.1183660" lon="10.4945970">
	<ele>2050.60</ele>
	<time>2024-07-25T10:46:16.000Z</time>
</trkpt>
<trkpt lat="46.1183590" lon="10.4945820">
	<ele>2050.60</ele>
	<time>2024-07-25T10:46:17.000Z</time>
</trkpt>
<trkpt lat="46.1183560" lon="10.4945660">
	<ele>2050.20</ele>
	<time>2024-07-25T10:46:18.000Z</time>
</trkpt>
<trkpt lat="46.1183510" lon="10.4945470">
	<ele>2050.00</ele>
	<time>2024-07-25T10:46:19.000Z</time>
</trkpt>
<trkpt lat="46.1183440" lon="10.4945300">
	<ele>2049.80</ele>
	<time>2024-07-25T10:46:20.000Z</time>
</trkpt>
<trkpt lat="46.1183370" lon="10.4945130">
	<ele>2049.80</ele>
	<time>2024-07-25T10:46:21.000Z</time>
</trkpt>
<trkpt lat="46.1183290" lon="10.4944990">
	<ele>2049.80</ele>
	<time>2024-07-25T10:46:22.000Z</time>
</trkpt>
<trkpt lat="46.1183230" lon="10.4944820">
	<ele>2049.60</ele>
	<time>2024-07-25T10:46:23.000Z</time>
</trkpt>
<trkpt lat="46.1183180" lon="10.4944630">
	<ele>2049.40</ele>
	<time>2024-07-25T10:46:24.000Z</time>
</trkpt>
<trkpt lat="46.1183150" lon="10.4944430">
	<ele>2049.40</ele>
	<time>2024-07-25T10:46:25.000Z</time>
</trkpt>
<trkpt lat="46.1183110" lon="10.4944300">
	<ele>2049.20</ele>
	<time>2024-07-25T10:46:26.000Z</time>
</trkpt>
<trkpt lat="46.1183050" lon="10.4944060">
	<ele>2049.00</ele>
	<time>2024-07-25T10:46:27.000Z</time>
</trkpt>
<trkpt lat="46.1182990" lon="10.4943840">
	<ele>2048.80</ele>
	<time>2024-07-25T10:46:28.000Z</time>
</trkpt>
<trkpt lat="46.1182930" lon="10.4943630">
	<ele>2048.80</ele>
	<time>2024-07-25T10:46:29.000Z</time>
</trkpt>
<trkpt lat="46.1182890" lon="10.4943480">
	<ele>2048.40</ele>
	<time>2024-07-25T10:46:30.000Z</time>
</trkpt>
<trkpt lat="46.1182850" lon="10.4943330">
	<ele>2048.20</ele>
	<time>2024-07-25T10:46:31.000Z</time>
</trkpt>
<trkpt lat="46.1182780" lon="10.4943210">
	<ele>2048.00</ele>
	<time>2024-07-25T10:46:32.000Z</time>
</trkpt>
<trkpt lat="46.1182680" lon="10.4943080">
	<ele>2047.80</ele>
	<time>2024-07-25T10:46:33.000Z</time>
</trkpt>
<trkpt lat="46.1182580" lon="10.4942980">
	<ele>2047.60</ele>
	<time>2024-07-25T10:46:34.000Z</time>
</trkpt>
<trkpt lat="46.1182530" lon="10.4942870">
	<ele>2047.40</ele>
	<time>2024-07-25T10:46:35.000Z</time>
</trkpt>
<trkpt lat="46.1182490" lon="10.4942720">
	<ele>2047.20</ele>
	<time>2024-07-25T10:46:36.000Z</time>
</trkpt>
<trkpt lat="46.1182460" lon="10.4942520">
	<ele>2046.80</ele>
	<time>2024-07-25T10:46:37.000Z</time>
</trkpt>
<trkpt lat="46.1182420" lon="10.4942320">
	<ele>2046.60</ele>
	<time>2024-07-25T10:46:38.000Z</time>
</trkpt>
<trkpt lat="46.1182380" lon="10.4942120">
	<ele>2046.20</ele>
	<time>2024-07-25T10:46:39.000Z</time>
</trkpt>
<trkpt lat="46.1182350" lon="10.4941990">
	<ele>2046.00</ele>
	<time>2024-07-25T10:46:40.000Z</time>
</trkpt>
<trkpt lat="46.1182330" lon="10.4941870">
	<ele>2045.40</ele>
	<time>2024-07-25T10:46:41.000Z</time>
</trkpt>
<trkpt lat="46.1182290" lon="10.4941740">
	<ele>2045.00</ele>
	<time>2024-07-25T10:46:42.000Z</time>
</trkpt>
<trkpt lat="46.1182250" lon="10.4941570">
	<ele>2044.80</ele>
	<time>2024-07-25T10:46:43.000Z</time>
</trkpt>
<trkpt lat="46.1182170" lon="10.4941450">
	<ele>2044.60</ele>
	<time>2024-07-25T10:46:44.000Z</time>
</trkpt>
<trkpt lat="46.1182070" lon="10.4941320">
	<ele>2044.40</ele>
	<time>2024-07-25T10:46:45.000Z</time>
</trkpt>
<trkpt lat="46.1181970" lon="10.4941190">
	<ele>2044.20</ele>
	<time>2024-07-25T10:46:46.000Z</time>
</trkpt>
<trkpt lat="46.1181890" lon="10.4941070">
	<ele>2044.00</ele>
	<time>2024-07-25T10:46:47.000Z</time>
</trkpt>
<trkpt lat="46.1181820" lon="10.4940940">
	<ele>2043.80</ele>
	<time>2024-07-25T10:46:48.000Z</time>
</trkpt>
<trkpt lat="46.1181780" lon="10.4940800">
	<ele>2043.60</ele>
	<time>2024-07-25T10:46:49.000Z</time>
</trkpt>
<trkpt lat="46.1181760" lon="10.4940630">
	<ele>2043.40</ele>
	<time>2024-07-25T10:46:50.000Z</time>
</trkpt>
<trkpt lat="46.1181740" lon="10.4940470">
	<ele>2043.20</ele>
	<time>2024-07-25T10:46:51.000Z</time>
</trkpt>
<trkpt lat="46.1181710" lon="10.4940320">
	<ele>2043.00</ele>
	<time>2024-07-25T10:46:52.000Z</time>
</trkpt>
<trkpt lat="46.1181680" lon="10.4940190">
	<ele>2042.60</ele>
	<time>2024-07-25T10:46:53.000Z</time>
</trkpt>
<trkpt lat="46.1181660" lon="10.4940030">
	<ele>2042.40</ele>
	<time>2024-07-25T10:46:54.000Z</time>
</trkpt>
<trkpt lat="46.1181630" lon="10.4939850">
	<ele>2042.20</ele>
	<time>2024-07-25T10:46:55.000Z</time>
</trkpt>
<trkpt lat="46.1181580" lon="10.4939650">
	<ele>2042.00</ele>
	<time>2024-07-25T10:46:56.000Z</time>
</trkpt>
<trkpt lat="46.1181510" lon="10.4939460">
	<ele>2042.00</ele>
	<time>2024-07-25T10:46:57.000Z</time>
</trkpt>
<trkpt lat="46.1181430" lon="10.4939320">
	<ele>2041.80</ele>
	<time>2024-07-25T10:46:58.000Z</time>
</trkpt>
<trkpt lat="46.1181330" lon="10.4939160">
	<ele>2041.60</ele>
	<time>2024-07-25T10:46:59.000Z</time>
</trkpt>
<trkpt lat="46.1181250" lon="10.4938980">
	<ele>2041.40</ele>
	<time>2024-07-25T10:47:00.000Z</time>
</trkpt>
<trkpt lat="46.1181150" lon="10.4938770">
	<ele>2041.20</ele>
	<time>2024-07-25T10:47:01.000Z</time>
</trkpt>
<trkpt lat="46.1181090" lon="10.4938620">
	<ele>2041.00</ele>
	<time>2024-07-25T10:47:02.000Z</time>
</trkpt>
<trkpt lat="46.1181000" lon="10.4938440">
	<ele>2040.60</ele>
	<time>2024-07-25T10:47:03.000Z</time>
</trkpt>
<trkpt lat="46.1180910" lon="10.4938280">
	<ele>2040.60</ele>
	<time>2024-07-25T10:47:04.000Z</time>
</trkpt>
<trkpt lat="46.1180820" lon="10.4938130">
	<ele>2040.40</ele>
	<time>2024-07-25T10:47:05.000Z</time>
</trkpt>
<trkpt lat="46.1180740" lon="10.4937960">
	<ele>2040.40</ele>
	<time>2024-07-25T10:47:06.000Z</time>
</trkpt>
<trkpt lat="46.1180650" lon="10.4937750">
	<ele>2040.20</ele>
	<time>2024-07-25T10:47:07.000Z</time>
</trkpt>
<trkpt lat="46.1180560" lon="10.4937550">
	<ele>2040.20</ele>
	<time>2024-07-25T10:47:08.000Z</time>
</trkpt>
<trkpt lat="46.1180480" lon="10.4937340">
	<ele>2040.00</ele>
	<time>2024-07-25T10:47:09.000Z</time>
</trkpt>
<trkpt lat="46.1180410" lon="10.4937120">
	<ele>2039.80</ele>
	<time>2024-07-25T10:47:10.000Z</time>
</trkpt>
<trkpt lat="46.1180350" lon="10.4936920">
	<ele>2039.80</ele>
	<time>2024-07-25T10:47:11.000Z</time>
</trkpt>
<trkpt lat="46.1180320" lon="10.4936740">
	<ele>2039.60</ele>
	<time>2024-07-25T10:47:12.000Z</time>
</trkpt>
<trkpt lat="46.1180260" lon="10.4936470">
	<ele>2039.40</ele>
	<time>2024-07-25T10:47:13.000Z</time>
</trkpt>
<trkpt lat="46.1180140" lon="10.4936310">
	<ele>2039.20</ele>
	<time>2024-07-25T10:47:14.000Z</time>
</trkpt>
<trkpt lat="46.1180060" lon="10.4936160">
	<ele>2039.00</ele>
	<time>2024-07-25T10:47:15.000Z</time>
</trkpt>
<trkpt lat="46.1180000" lon="10.4935960">
	<ele>2038.80</ele>
	<time>2024-07-25T10:47:16.000Z</time>
</trkpt>
<trkpt lat="46.1179910" lon="10.4935730">
	<ele>2038.80</ele>
	<time>2024-07-25T10:47:17.000Z</time>
</trkpt>
<trkpt lat="46.1179820" lon="10.4935620">
	<ele>2038.80</ele>
	<time>2024-07-25T10:47:18.000Z</time>
</trkpt>
<trkpt lat="46.1179700" lon="10.4935500">
	<ele>2038.60</ele>
	<time>2024-07-25T10:47:19.000Z</time>
</trkpt>
<trkpt lat="46.1179580" lon="10.4935330">
	<ele>2038.60</ele>
	<time>2024-07-25T10:47:20.000Z</time>
</trkpt>
<trkpt lat="46.1179480" lon="10.4935220">
	<ele>2038.60</ele>
	<time>2024-07-25T10:47:21.000Z</time>
</trkpt>
<trkpt lat="46.1179360" lon="10.4935110">
	<ele>2038.60</ele>
	<time>2024-07-25T10:47:22.000Z</time>
</trkpt>
<trkpt lat="46.1179230" lon="10.4935000">
	<ele>2038.60</ele>
	<time>2024-07-25T10:47:23.000Z</time>
</trkpt>
<trkpt lat="46.1179090" lon="10.4934870">
	<ele>2038.60</ele>
	<time>2024-07-25T10:47:24.000Z</time>
</trkpt>
<trkpt lat="46.1178960" lon="10.4934750">
	<ele>2038.60</ele>
	<time>2024-07-25T10:47:25.000Z</time>
</trkpt>
<trkpt lat="46.1178840" lon="10.4934620">
	<ele>2038.40</ele>
	<time>2024-07-25T10:47:26.000Z</time>
</trkpt>
<trkpt lat="46.1178720" lon="10.4934490">
	<ele>2038.40</ele>
	<time>2024-07-25T10:47:27.000Z</time>
</trkpt>
<trkpt lat="46.1178630" lon="10.4934300">
	<ele>2038.40</ele>
	<time>2024-07-25T10:47:28.000Z</time>
</trkpt>
<trkpt lat="46.1178570" lon="10.4934090">
	<ele>2038.60</ele>
	<time>2024-07-25T10:47:29.000Z</time>
</trkpt>
<trkpt lat="46.1178480" lon="10.4933920">
	<ele>2038.40</ele>
	<time>2024-07-25T10:47:30.000Z</time>
</trkpt>
<trkpt lat="46.1178390" lon="10.4933740">
	<ele>2038.40</ele>
	<time>2024-07-25T10:47:31.000Z</time>
</trkpt>
<trkpt lat="46.1178310" lon="10.4933590">
	<ele>2038.40</ele>
	<time>2024-07-25T10:47:32.000Z</time>
</trkpt>
<trkpt lat="46.1178230" lon="10.4933480">
	<ele>2038.40</ele>
	<time>2024-07-25T10:47:33.000Z</time>
</trkpt>
<trkpt lat="46.1178120" lon="10.4933320">
	<ele>2038.40</ele>
	<time>2024-07-25T10:47:34.000Z</time>
</trkpt>
<trkpt lat="46.1178030" lon="10.4933180">
	<ele>2038.60</ele>
	<time>2024-07-25T10:47:35.000Z</time>
</trkpt>
<trkpt lat="46.1177930" lon="10.4933020">
	<ele>2038.60</ele>
	<time>2024-07-25T10:47:36.000Z</time>
</trkpt>
<trkpt lat="46.1177840" lon="10.4932850">
	<ele>2038.60</ele>
	<time>2024-07-25T10:47:37.000Z</time>
</trkpt>
<trkpt lat="46.1177740" lon="10.4932710">
	<ele>2038.60</ele>
	<time>2024-07-25T10:47:38.000Z</time>
</trkpt>
<trkpt lat="46.1177630" lon="10.4932580">
	<ele>2038.40</ele>
	<time>2024-07-25T10:47:39.000Z</time>
</trkpt>
<trkpt lat="46.1177560" lon="10.4932500">
	<ele>2038.20</ele>
	<time>2024-07-25T10:47:40.000Z</time>
</trkpt>
<trkpt lat="46.1177450" lon="10.4932360">
	<ele>2038.20</ele>
	<time>2024-07-25T10:47:41.000Z</time>
</trkpt>
<trkpt lat="46.1177360" lon="10.4932280">
	<ele>2038.20</ele>
	<time>2024-07-25T10:47:42.000Z</time>
</trkpt>
<trkpt lat="46.1177260" lon="10.4932150">
	<ele>2038.00</ele>
	<time>2024-07-25T10:47:43.000Z</time>
</trkpt>
<trkpt lat="46.1177130" lon="10.4932000">
	<ele>2038.00</ele>
	<time>2024-07-25T10:47:44.000Z</time>
</trkpt>
<trkpt lat="46.1177050" lon="10.4931850">
	<ele>2038.00</ele>
	<time>2024-07-25T10:47:45.000Z</time>
</trkpt>
<trkpt lat="46.1176970" lon="10.4931680">
	<ele>2037.80</ele>
	<time>2024-07-25T10:47:46.000Z</time>
</trkpt>
<trkpt lat="46.1176880" lon="10.4931530">
	<ele>2037.80</ele>
	<time>2024-07-25T10:47:47.000Z</time>
</trkpt>
<trkpt lat="46.1176800" lon="10.4931360">
	<ele>2037.60</ele>
	<time>2024-07-25T10:47:48.000Z</time>
</trkpt>
<trkpt lat="46.1176720" lon="10.4931230">
	<ele>2037.60</ele>
	<time>2024-07-25T10:47:49.000Z</time>
</trkpt>
<trkpt lat="46.1176650" lon="10.4931070">
	<ele>2037.60</ele>
	<time>2024-07-25T10:47:50.000Z</time>
</trkpt>
<trkpt lat="46.1176580" lon="10.4930990">
	<ele>2037.60</ele>
	<time>2024-07-25T10:47:51.000Z</time>
</trkpt>
<trkpt lat="46.1176470" lon="10.4930830">
	<ele>2037.60</ele>
	<time>2024-07-25T10:47:52.000Z</time>
</trkpt>
<trkpt lat="46.1176410" lon="10.4930680">
	<ele>2037.60</ele>
	<time>2024-07-25T10:47:53.000Z</time>
</trkpt>
<trkpt lat="46.1176330" lon="10.4930510">
	<ele>2037.60</ele>
	<time>2024-07-25T10:47:54.000Z</time>
</trkpt>
<trkpt lat="46.1176260" lon="10.4930410">
	<ele>2037.60</ele>
	<time>2024-07-25T10:47:55.000Z</time>
</trkpt>
<trkpt lat="46.1176150" lon="10.4930240">
	<ele>2037.60</ele>
	<time>2024-07-25T10:47:56.000Z</time>
</trkpt>
<trkpt lat="46.1176070" lon="10.4930080">
	<ele>2037.60</ele>
	<time>2024-07-25T10:47:57.000Z</time>
</trkpt>
<trkpt lat="46.1175980" lon="10.4929920">
	<ele>2037.60</ele>
	<time>2024-07-25T10:47:58.000Z</time>
</trkpt>
<trkpt lat="46.1175890" lon="10.4929780">
	<ele>2037.60</ele>
	<time>2024-07-25T10:47:59.000Z</time>
</trkpt>
<trkpt lat="46.1175800" lon="10.4929620">
	<ele>2037.40</ele>
	<time>2024-07-25T10:48:00.000Z</time>
</trkpt>
<trkpt lat="46.1175720" lon="10.4929480">
	<ele>2037.40</ele>
	<time>2024-07-25T10:48:01.000Z</time>
</trkpt>
<trkpt lat="46.1175650" lon="10.4929330">
	<ele>2037.20</ele>
	<time>2024-07-25T10:48:02.000Z</time>
</trkpt>
<trkpt lat="46.1175560" lon="10.4929160">
	<ele>2037.20</ele>
	<time>2024-07-25T10:48:03.000Z</time>
</trkpt>
<trkpt lat="46.1175450" lon="10.4929000">
	<ele>2037.00</ele>
	<time>2024-07-25T10:48:04.000Z</time>
</trkpt>
<trkpt lat="46.1175350" lon="10.4928860">
	<ele>2036.80</ele>
	<time>2024-07-25T10:48:05.000Z</time>
</trkpt>
<trkpt lat="46.1175260" lon="10.4928760">
	<ele>2036.80</ele>
	<time>2024-07-25T10:48:06.000Z</time>
</trkpt>
<trkpt lat="46.1175140" lon="10.4928580">
	<ele>2036.60</ele>
	<time>2024-07-25T10:48:07.000Z</time>
</trkpt>
<trkpt lat="46.1175050" lon="10.4928410">
	<ele>2036.60</ele>
	<time>2024-07-25T10:48:08.000Z</time>
</trkpt>
<trkpt lat="46.1174980" lon="10.4928260">
	<ele>2036.40</ele>
	<time>2024-07-25T10:48:09.000Z</time>
</trkpt>
<trkpt lat="46.1174940" lon="10.4928190">
	<ele>2036.40</ele>
	<time>2024-07-25T10:48:10.000Z</time>
</trkpt>
<trkpt lat="46.1174840" lon="10.4928080">
	<ele>2036.20</ele>
	<time>2024-07-25T10:48:11.000Z</time>
</trkpt>
<trkpt lat="46.1174750" lon="10.4928000">
	<ele>2036.20</ele>
	<time>2024-07-25T10:48:12.000Z</time>
</trkpt>
<trkpt lat="46.1174650" lon="10.4927900">
	<ele>2036.20</ele>
	<time>2024-07-25T10:48:13.000Z</time>
</trkpt>
<trkpt lat="46.1174530" lon="10.4927720">
	<ele>2036.00</ele>
	<time>2024-07-25T10:48:14.000Z</time>
</trkpt>
<trkpt lat="46.1174450" lon="10.4927620">
	<ele>2036.00</ele>
	<time>2024-07-25T10:48:15.000Z</time>
</trkpt>
<trkpt lat="46.1174350" lon="10.4927530">
	<ele>2035.60</ele>
	<time>2024-07-25T10:48:16.000Z</time>
</trkpt>
<trkpt lat="46.1174250" lon="10.4927440">
	<ele>2035.40</ele>
	<time>2024-07-25T10:48:17.000Z</time>
</trkpt>
<trkpt lat="46.1174120" lon="10.4927340">
	<ele>2035.20</ele>
	<time>2024-07-25T10:48:18.000Z</time>
</trkpt>
<trkpt lat="46.1174030" lon="10.4927190">
	<ele>2035.00</ele>
	<time>2024-07-25T10:48:19.000Z</time>
</trkpt>
<trkpt lat="46.1173980" lon="10.4927070">
	<ele>2035.00</ele>
	<time>2024-07-25T10:48:20.000Z</time>
</trkpt>
<trkpt lat="46.1173900" lon="10.4926940">
	<ele>2034.80</ele>
	<time>2024-07-25T10:48:21.000Z</time>
</trkpt>
<trkpt lat="46.1173780" lon="10.4926770">
	<ele>2034.60</ele>
	<time>2024-07-25T10:48:22.000Z</time>
</trkpt>
<trkpt lat="46.1173720" lon="10.4926610">
	<ele>2034.40</ele>
	<time>2024-07-25T10:48:23.000Z</time>
</trkpt>
<trkpt lat="46.1173600" lon="10.4926490">
	<ele>2034.40</ele>
	<time>2024-07-25T10:48:24.000Z</time>
</trkpt>
<trkpt lat="46.1173480" lon="10.4926360">
	<ele>2034.40</ele>
	<time>2024-07-25T10:48:25.000Z</time>
</trkpt>
<trkpt lat="46.1173380" lon="10.4926240">
	<ele>2034.20</ele>
	<time>2024-07-25T10:48:26.000Z</time>
</trkpt>
<trkpt lat="46.1173280" lon="10.4926120">
	<ele>2034.00</ele>
	<time>2024-07-25T10:48:27.000Z</time>
</trkpt>
<trkpt lat="46.1173210" lon="10.4926030">
	<ele>2033.80</ele>
	<time>2024-07-25T10:48:28.000Z</time>
</trkpt>
<trkpt lat="46.1173120" lon="10.4925910">
	<ele>2033.60</ele>
	<time>2024-07-25T10:48:29.000Z</time>
</trkpt>
<trkpt lat="46.1173030" lon="10.4925800">
	<ele>2033.40</ele>
	<time>2024-07-25T10:48:30.000Z</time>
</trkpt>
<trkpt lat="46.1172930" lon="10.4925700">
	<ele>2033.20</ele>
	<time>2024-07-25T10:48:31.000Z</time>
</trkpt>
<trkpt lat="46.1172830" lon="10.4925600">
	<ele>2033.00</ele>
	<time>2024-07-25T10:48:32.000Z</time>
</trkpt>
<trkpt lat="46.1172740" lon="10.4925490">
	<ele>2033.00</ele>
	<time>2024-07-25T10:48:33.000Z</time>
</trkpt>
<trkpt lat="46.1172640" lon="10.4925300">
	<ele>2032.80</ele>
	<time>2024-07-25T10:48:34.000Z</time>
</trkpt>
<trkpt lat="46.1172550" lon="10.4925150">
	<ele>2032.60</ele>
	<time>2024-07-25T10:48:35.000Z</time>
</trkpt>
<trkpt lat="46.1172410" lon="10.4924960">
	<ele>2032.60</ele>
	<time>2024-07-25T10:48:36.000Z</time>
</trkpt>
<trkpt lat="46.1172290" lon="10.4924850">
	<ele>2032.40</ele>
	<time>2024-07-25T10:48:37.000Z</time>
</trkpt>
<trkpt lat="46.1172200" lon="10.4924750">
	<ele>2032.40</ele>
	<time>2024-07-25T10:48:38.000Z</time>
</trkpt>
<trkpt lat="46.1172110" lon="10.4924660">
	<ele>2032.40</ele>
	<time>2024-07-25T10:48:39.000Z</time>
</trkpt>
<trkpt lat="46.1172050" lon="10.4924570">
	<ele>2032.20</ele>
	<time>2024-07-25T10:48:40.000Z</time>
</trkpt>
<trkpt lat="46.1171950" lon="10.4924440">
	<ele>2032.00</ele>
	<time>2024-07-25T10:48:41.000Z</time>
</trkpt>
<trkpt lat="46.1171860" lon="10.4924310">
	<ele>2031.80</ele>
	<time>2024-07-25T10:48:42.000Z</time>
</trkpt>
<trkpt lat="46.1171770" lon="10.4924180">
	<ele>2031.60</ele>
	<time>2024-07-25T10:48:43.000Z</time>
</trkpt>
<trkpt lat="46.1171680" lon="10.4924060">
	<ele>2031.60</ele>
	<time>2024-07-25T10:48:44.000Z</time>
</trkpt>
<trkpt lat="46.1171590" lon="10.4923950">
	<ele>2031.60</ele>
	<time>2024-07-25T10:48:45.000Z</time>
</trkpt>
<trkpt lat="46.1171510" lon="10.4923810">
	<ele>2031.40</ele>
	<time>2024-07-25T10:48:46.000Z</time>
</trkpt>
<trkpt lat="46.1171440" lon="10.4923640">
	<ele>2031.40</ele>
	<time>2024-07-25T10:48:47.000Z</time>
</trkpt>
<trkpt lat="46.1171360" lon="10.4923450">
	<ele>2031.40</ele>
	<time>2024-07-25T10:48:48.000Z</time>
</trkpt>
<trkpt lat="46.1171290" lon="10.4923270">
	<ele>2031.20</ele>
	<time>2024-07-25T10:48:49.000Z</time>
</trkpt>
<trkpt lat="46.1171230" lon="10.4923070">
	<ele>2031.20</ele>
	<time>2024-07-25T10:48:50.000Z</time>
</trkpt>
<trkpt lat="46.1171130" lon="10.4922830">
	<ele>2031.00</ele>
	<time>2024-07-25T10:48:51.000Z</time>
</trkpt>
<trkpt lat="46.1171050" lon="10.4922670">
	<ele>2031.00</ele>
	<time>2024-07-25T10:48:52.000Z</time>
</trkpt>
<trkpt lat="46.1170970" lon="10.4922510">
	<ele>2031.00</ele>
	<time>2024-07-25T10:48:53.000Z</time>
</trkpt>
<trkpt lat="46.1170890" lon="10.4922330">
	<ele>2031.00</ele>
	<time>2024-07-25T10:48:54.000Z</time>
</trkpt>
<trkpt lat="46.1170820" lon="10.4922140">
	<ele>2031.00</ele>
	<time>2024-07-25T10:48:55.000Z</time>
</trkpt>
<trkpt lat="46.1170760" lon="10.4921940">
	<ele>2031.00</ele>
	<time>2024-07-25T10:48:56.000Z</time>
</trkpt>
<trkpt lat="46.1170690" lon="10.4921770">
	<ele>2030.80</ele>
	<time>2024-07-25T10:48:57.000Z</time>
</trkpt>
<trkpt lat="46.1170600" lon="10.4921580">
	<ele>2030.80</ele>
	<time>2024-07-25T10:48:58.000Z</time>
</trkpt>
<trkpt lat="46.1170540" lon="10.4921400">
	<ele>2030.60</ele>
	<time>2024-07-25T10:48:59.000Z</time>
</trkpt>
<trkpt lat="46.1170490" lon="10.4921220">
	<ele>2030.60</ele>
	<time>2024-07-25T10:49:00.000Z</time>
</trkpt>
<trkpt lat="46.1170440" lon="10.4921030">
	<ele>2030.60</ele>
	<time>2024-07-25T10:49:01.000Z</time>
</trkpt>
<trkpt lat="46.1170390" lon="10.4920860">
	<ele>2030.40</ele>
	<time>2024-07-25T10:49:02.000Z</time>
</trkpt>
<trkpt lat="46.1170340" lon="10.4920700">
	<ele>2030.20</ele>
	<time>2024-07-25T10:49:03.000Z</time>
</trkpt>
<trkpt lat="46.1170300" lon="10.4920580">
	<ele>2030.00</ele>
	<time>2024-07-25T10:49:04.000Z</time>
</trkpt>
<trkpt lat="46.1170220" lon="10.4920380">
	<ele>2030.00</ele>
	<time>2024-07-25T10:49:05.000Z</time>
</trkpt>
<trkpt lat="46.1170140" lon="10.4920190">
	<ele>2029.80</ele>
	<time>2024-07-25T10:49:06.000Z</time>
</trkpt>
<trkpt lat="46.1170070" lon="10.4920080">
	<ele>2029.80</ele>
	<time>2024-07-25T10:49:07.000Z</time>
</trkpt>
<trkpt lat="46.1169960" lon="10.4919870">
	<ele>2029.80</ele>
	<time>2024-07-25T10:49:08.000Z</time>
</trkpt>
<trkpt lat="46.1169850" lon="10.4919710">
	<ele>2029.60</ele>
	<time>2024-07-25T10:49:09.000Z</time>
</trkpt>
<trkpt lat="46.1169760" lon="10.4919540">
	<ele>2029.60</ele>
	<time>2024-07-25T10:49:10.000Z</time>
</trkpt>
<trkpt lat="46.1169660" lon="10.4919420">
	<ele>2029.40</ele>
	<time>2024-07-25T10:49:11.000Z</time>
</trkpt>
<trkpt lat="46.1169590" lon="10.4919380">
	<ele>2029.20</ele>
	<time>2024-07-25T10:49:12.000Z</time>
</trkpt>
<trkpt lat="46.1169560" lon="10.4919370">
	<ele>2029.00</ele>
	<time>2024-07-25T10:49:13.000Z</time>
</trkpt>
<trkpt lat="46.1169550" lon="10.4919370">
	<ele>2028.80</ele>
	<time>2024-07-25T10:49:14.000Z</time>
</trkpt>
<trkpt lat="46.1169560" lon="10.4919370">
	<ele>2028.60</ele>
	<time>2024-07-25T10:49:15.000Z</time>
</trkpt>
<trkpt lat="46.1169560" lon="10.4919360">
	<ele>2028.40</ele>
	<time>2024-07-25T10:49:16.000Z</time>
</trkpt>
<trkpt lat="46.1169570" lon="10.4919360">
	<ele>2028.40</ele>
	<time>2024-07-25T10:49:17.000Z</time>
</trkpt>
<trkpt lat="46.1169580" lon="10.4919350">
	<ele>2028.20</ele>
	<time>2024-07-25T10:49:18.000Z</time>
</trkpt>
<trkpt lat="46.1169590" lon="10.4919360">
	<ele>2028.20</ele>
	<time>2024-07-25T10:49:19.000Z</time>
</trkpt>
<trkpt lat="46.1169590" lon="10.4919360">
	<ele>2028.20</ele>
	<time>2024-07-25T10:49:20.000Z</time>
</trkpt>
<trkpt lat="46.1169570" lon="10.4919360">
	<ele>2028.40</ele>
	<time>2024-07-25T10:49:21.000Z</time>
</trkpt>
<trkpt lat="46.1169560" lon="10.4919380">
	<ele>2028.40</ele>
	<time>2024-07-25T10:49:22.000Z</time>
</trkpt>
<trkpt lat="46.1169540" lon="10.4919390">
	<ele>2028.40</ele>
	<time>2024-07-25T10:49:23.000Z</time>
</trkpt>
<trkpt lat="46.1169530" lon="10.4919400">
	<ele>2028.40</ele>
	<time>2024-07-25T10:49:24.000Z</time>
</trkpt>
<trkpt lat="46.1169530" lon="10.4919400">
	<ele>2028.40</ele>
	<time>2024-07-25T10:49:25.000Z</time>
</trkpt>
<trkpt lat="46.1169530" lon="10.4919400">
	<ele>2028.40</ele>
	<time>2024-07-25T10:49:26.000Z</time>
</trkpt>
<trkpt lat="46.1169530" lon="10.4919400">
	<ele>2028.40</ele>
	<time>2024-07-25T10:49:27.000Z</time>
</trkpt>
<trkpt lat="46.1169530" lon="10.4919400">
	<ele>2028.40</ele>
	<time>2024-07-25T10:49:28.000Z</time>
</trkpt>
<trkpt lat="46.1169530" lon="10.4919400">
	<ele>2028.40</ele>
	<time>2024-07-25T10:49:29.000Z</time>
</trkpt>
<trkpt lat="46.1169530" lon="10.4919400">
	<ele>2028.60</ele>
	<time>2024-07-25T10:49:30.000Z</time>
</trkpt>
<trkpt lat="46.1169530" lon="10.4919400">
	<ele>2028.60</ele>
	<time>2024-07-25T10:49:31.000Z</time>
</trkpt>
<trkpt lat="46.1169530" lon="10.4919400">
	<ele>2028.60</ele>
	<time>2024-07-25T10:49:32.000Z</time>
</trkpt>
<trkpt lat="46.1169530" lon="10.4919400">
	<ele>2028.60</ele>
	<time>2024-07-25T10:49:33.000Z</time>
</trkpt>
<trkpt lat="46.1169540" lon="10.4919400">
	<ele>2028.60</ele>
	<time>2024-07-25T10:49:34.000Z</time>
</trkpt>
<trkpt lat="46.1169540" lon="10.4919400">
	<ele>2028.60</ele>
	<time>2024-07-25T10:49:35.000Z</time>
</trkpt>
<trkpt lat="46.1169550" lon="10.4919400">
	<ele>2028.60</ele>
	<time>2024-07-25T10:49:36.000Z</time>
</trkpt>
<trkpt lat="46.1169550" lon="10.4919400">
	<ele>2028.80</ele>
	<time>2024-07-25T10:49:37.000Z</time>
</trkpt>
<trkpt lat="46.1169550" lon="10.4919400">
	<ele>2029.20</ele>
	<time>2024-07-25T10:49:38.000Z</time>
</trkpt>
<trkpt lat="46.1169550" lon="10.4919400">
	<ele>2029.40</ele>
	<time>2024-07-25T10:49:39.000Z</time>
</trkpt>
<trkpt lat="46.1169530" lon="10.4919370">
	<ele>2029.40</ele>
	<time>2024-07-25T10:49:40.000Z</time>
</trkpt>
<trkpt lat="46.1169470" lon="10.4919170">
	<ele>2029.20</ele>
	<time>2024-07-25T10:49:41.000Z</time>
</trkpt>
<trkpt lat="46.1169390" lon="10.4918970">
	<ele>2029.00</ele>
	<time>2024-07-25T10:49:42.000Z</time>
</trkpt>
<trkpt lat="46.1169290" lon="10.4918790">
	<ele>2029.00</ele>
	<time>2024-07-25T10:49:43.000Z</time>
</trkpt>
<trkpt lat="46.1169180" lon="10.4918590">
	<ele>2028.60</ele>
	<time>2024-07-25T10:49:44.000Z</time>
</trkpt>
<trkpt lat="46.1169060" lon="10.4918380">
	<ele>2028.40</ele>
	<time>2024-07-25T10:49:45.000Z</time>
</trkpt>
<trkpt lat="46.1168920" lon="10.4918150">
	<ele>2028.00</ele>
	<time>2024-07-25T10:49:46.000Z</time>
</trkpt>
<trkpt lat="46.1168780" lon="10.4917980">
	<ele>2027.80</ele>
	<time>2024-07-25T10:49:47.000Z</time>
</trkpt>
<trkpt lat="46.1168660" lon="10.4917830">
	<ele>2027.80</ele>
	<time>2024-07-25T10:49:48.000Z</time>
</trkpt>
<trkpt lat="46.1168560" lon="10.4917660">
	<ele>2027.80</ele>
	<time>2024-07-25T10:49:49.000Z</time>
</trkpt>
<trkpt lat="46.1168480" lon="10.4917500">
	<ele>2027.80</ele>
	<time>2024-07-25T10:49:50.000Z</time>
</trkpt>
<trkpt lat="46.1168420" lon="10.4917380">
	<ele>2027.80</ele>
	<time>2024-07-25T10:49:51.000Z</time>
</trkpt>
<trkpt lat="46.1168390" lon="10.4917220">
	<ele>2027.80</ele>
	<time>2024-07-25T10:49:52.000Z</time>
</trkpt>
<trkpt lat="46.1168330" lon="10.4917020">
	<ele>2027.80</ele>
	<time>2024-07-25T10:49:53.000Z</time>
</trkpt>
<trkpt lat="46.1168240" lon="10.4916870">
	<ele>2027.80</ele>
	<time>2024-07-25T10:49:54.000Z</time>
</trkpt>
<trkpt lat="46.1168170" lon="10.4916730">
	<ele>2027.80</ele>
	<time>2024-07-25T10:49:55.000Z</time>
</trkpt>
<trkpt lat="46.1168120" lon="10.4916600">
	<ele>2027.80</ele>
	<time>2024-07-25T10:49:56.000Z</time>
</trkpt>
<trkpt lat="46.1168040" lon="10.4916470">
	<ele>2027.80</ele>
	<time>2024-07-25T10:49:57.000Z</time>
</trkpt>
<trkpt lat="46.1167960" lon="10.4916350">
	<ele>2028.00</ele>
	<time>2024-07-25T10:49:58.000Z</time>
</trkpt>
<trkpt lat="46.1167880" lon="10.4916230">
	<ele>2028.20</ele>
	<time>2024-07-25T10:49:59.000Z</time>
</trkpt>
<trkpt lat="46.1167810" lon="10.4916070">
	<ele>2028.20</ele>
	<time>2024-07-25T10:50:00.000Z</time>
</trkpt>
<trkpt lat="46.1167720" lon="10.4915900">
	<ele>2028.20</ele>
	<time>2024-07-25T10:50:01.000Z</time>
</trkpt>
<trkpt lat="46.1167620" lon="10.4915730">
	<ele>2027.80</ele>
	<time>2024-07-25T10:50:02.000Z</time>
</trkpt>
<trkpt lat="46.1167530" lon="10.4915540">
	<ele>2027.80</ele>
	<time>2024-07-25T10:50:03.000Z</time>
</trkpt>
<trkpt lat="46.1167450" lon="10.4915310">
	<ele>2027.60</ele>
	<time>2024-07-25T10:50:04.000Z</time>
</trkpt>
<trkpt lat="46.1167390" lon="10.4915110">
	<ele>2027.40</ele>
	<time>2024-07-25T10:50:05.000Z</time>
</trkpt>
<trkpt lat="46.1167300" lon="10.4914950">
	<ele>2027.00</ele>
	<time>2024-07-25T10:50:06.000Z</time>
</trkpt>
<trkpt lat="46.1167200" lon="10.4914810">
	<ele>2026.80</ele>
	<time>2024-07-25T10:50:07.000Z</time>
</trkpt>
<trkpt lat="46.1167160" lon="10.4914660">
	<ele>2026.60</ele>
	<time>2024-07-25T10:50:08.000Z</time>
</trkpt>
<trkpt lat="46.1167100" lon="10.4914480">
	<ele>2026.60</ele>
	<time>2024-07-25T10:50:09.000Z</time>
</trkpt>
<trkpt lat="46.1167020" lon="10.4914300">
	<ele>2026.40</ele>
	<time>2024-07-25T10:50:10.000Z</time>
</trkpt>
<trkpt lat="46.1166940" lon="10.4914140">
	<ele>2026.40</ele>
	<time>2024-07-25T10:50:11.000Z</time>
</trkpt>
<trkpt lat="46.1166890" lon="10.4913950">
	<ele>2026.40</ele>
	<time>2024-07-25T10:50:12.000Z</time>
</trkpt>
<trkpt lat="46.1166830" lon="10.4913700">
	<ele>2026.40</ele>
	<time>2024-07-25T10:50:13.000Z</time>
</trkpt>
<trkpt lat="46.1166760" lon="10.4913470">
	<ele>2026.40</ele>
	<time>2024-07-25T10:50:14.000Z</time>
</trkpt>
<trkpt lat="46.1166680" lon="10.4913270">
	<ele>2026.40</ele>
	<time>2024-07-25T10:50:15.000Z</time>
</trkpt>
<trkpt lat="46.1166570" lon="10.4913130">
	<ele>2026.40</ele>
	<time>2024-07-25T10:50:16.000Z</time>
</trkpt>
<trkpt lat="46.1166490" lon="10.4912950">
	<ele>2026.20</ele>
	<time>2024-07-25T10:50:17.000Z</time>
</trkpt>
<trkpt lat="46.1166390" lon="10.4912780">
	<ele>2026.20</ele>
	<time>2024-07-25T10:50:18.000Z</time>
</trkpt>
<trkpt lat="46.1166280" lon="10.4912580">
	<ele>2026.20</ele>
	<time>2024-07-25T10:50:19.000Z</time>
</trkpt>
<trkpt lat="46.1166190" lon="10.4912420">
	<ele>2026.20</ele>
	<time>2024-07-25T10:50:20.000Z</time>
</trkpt>
<trkpt lat="46.1166090" lon="10.4912250">
	<ele>2026.20</ele>
	<time>2024-07-25T10:50:21.000Z</time>
</trkpt>
<trkpt lat="46.1166000" lon="10.4912100">
	<ele>2026.20</ele>
	<time>2024-07-25T10:50:22.000Z</time>
</trkpt>
<trkpt lat="46.1165880" lon="10.4912000">
	<ele>2026.20</ele>
	<time>2024-07-25T10:50:23.000Z</time>
</trkpt>
<trkpt lat="46.1165780" lon="10.4911890">
	<ele>2026.20</ele>
	<time>2024-07-25T10:50:24.000Z</time>
</trkpt>
<trkpt lat="46.1165670" lon="10.4911770">
	<ele>2026.00</ele>
	<time>2024-07-25T10:50:25.000Z</time>
</trkpt>
<trkpt lat="46.1165550" lon="10.4911650">
	<ele>2025.80</ele>
	<time>2024-07-25T10:50:26.000Z</time>
</trkpt>
<trkpt lat="46.1165440" lon="10.4911510">
	<ele>2025.60</ele>
	<time>2024-07-25T10:50:27.000Z</time>
</trkpt>
<trkpt lat="46.1165360" lon="10.4911400">
	<ele>2025.20</ele>
	<time>2024-07-25T10:50:28.000Z</time>
</trkpt>
<trkpt lat="46.1165270" lon="10.4911280">
	<ele>2025.20</ele>
	<time>2024-07-25T10:50:29.000Z</time>
</trkpt>
<trkpt lat="46.1165140" lon="10.4911110">
	<ele>2025.00</ele>
	<time>2024-07-25T10:50:30.000Z</time>
</trkpt>
<trkpt lat="46.1165050" lon="10.4910930">
	<ele>2025.00</ele>
	<time>2024-07-25T10:50:31.000Z</time>
</trkpt>
<trkpt lat="46.1164960" lon="10.4910800">
	<ele>2024.80</ele>
	<time>2024-07-25T10:50:32.000Z</time>
</trkpt>
<trkpt lat="46.1164860" lon="10.4910730">
	<ele>2024.80</ele>
	<time>2024-07-25T10:50:33.000Z</time>
</trkpt>
<trkpt lat="46.1164760" lon="10.4910650">
	<ele>2024.60</ele>
	<time>2024-07-25T10:50:34.000Z</time>
</trkpt>
<trkpt lat="46.1164650" lon="10.4910570">
	<ele>2024.40</ele>
	<time>2024-07-25T10:50:35.000Z</time>
</trkpt>
<trkpt lat="46.1164560" lon="10.4910510">
	<ele>2024.20</ele>
	<time>2024-07-25T10:50:36.000Z</time>
</trkpt>
<trkpt lat="46.1164430" lon="10.4910410">
	<ele>2023.80</ele>
	<time>2024-07-25T10:50:37.000Z</time>
</trkpt>
<trkpt lat="46.1164330" lon="10.4910330">
	<ele>2023.60</ele>
	<time>2024-07-25T10:50:38.000Z</time>
</trkpt>
<trkpt lat="46.1164220" lon="10.4910250">
	<ele>2023.40</ele>
	<time>2024-07-25T10:50:39.000Z</time>
</trkpt>
<trkpt lat="46.1164150" lon="10.4910220">
	<ele>2023.20</ele>
	<time>2024-07-25T10:50:40.000Z</time>
</trkpt>
<trkpt lat="46.1164110" lon="10.4910210">
	<ele>2023.20</ele>
	<time>2024-07-25T10:50:41.000Z</time>
</trkpt>
<trkpt lat="46.1164040" lon="10.4910220">
	<ele>2023.20</ele>
	<time>2024-07-25T10:50:42.000Z</time>
</trkpt>
<trkpt lat="46.1164010" lon="10.4910240">
	<ele>2023.40</ele>
	<time>2024-07-25T10:50:43.000Z</time>
</trkpt>
<trkpt lat="46.1164010" lon="10.4910250">
	<ele>2023.40</ele>
	<time>2024-07-25T10:50:44.000Z</time>
</trkpt>
<trkpt lat="46.1164010" lon="10.4910240">
	<ele>2023.40</ele>
	<time>2024-07-25T10:50:45.000Z</time>
</trkpt>
<trkpt lat="46.1164010" lon="10.4910250">
	<ele>2023.60</ele>
	<time>2024-07-25T10:50:46.000Z</time>
</trkpt>
<trkpt lat="46.1164000" lon="10.4910250">
	<ele>2023.60</ele>
	<time>2024-07-25T10:50:47.000Z</time>
</trkpt>
<trkpt lat="46.1163980" lon="10.4910210">
	<ele>2023.80</ele>
	<time>2024-07-25T10:50:48.000Z</time>
</trkpt>
<trkpt lat="46.1163910" lon="10.4910120">
	<ele>2023.80</ele>
	<time>2024-07-25T10:50:49.000Z</time>
</trkpt>
<trkpt lat="46.1163790" lon="10.4910040">
	<ele>2023.60</ele>
	<time>2024-07-25T10:50:50.000Z</time>
</trkpt>
<trkpt lat="46.1163680" lon="10.4909950">
	<ele>2023.20</ele>
	<time>2024-07-25T10:50:51.000Z</time>
</trkpt>
<trkpt lat="46.1163600" lon="10.4909810">
	<ele>2023.00</ele>
	<time>2024-07-25T10:50:52.000Z</time>
</trkpt>
<trkpt lat="46.1163510" lon="10.4909650">
	<ele>2022.80</ele>
	<time>2024-07-25T10:50:53.000Z</time>
</trkpt>
<trkpt lat="46.1163400" lon="10.4909500">
	<ele>2022.40</ele>
	<time>2024-07-25T10:50:54.000Z</time>
</trkpt>
<trkpt lat="46.1163280" lon="10.4909370">
	<ele>2022.20</ele>
	<time>2024-07-25T10:50:55.000Z</time>
</trkpt>
<trkpt lat="46.1163140" lon="10.4909310">
	<ele>2022.00</ele>
	<time>2024-07-25T10:50:56.000Z</time>
</trkpt>
<trkpt lat="46.1163030" lon="10.4909260">
	<ele>2022.00</ele>
	<time>2024-07-25T10:50:57.000Z</time>
</trkpt>
<trkpt lat="46.1162910" lon="10.4909220">
	<ele>2022.00</ele>
	<time>2024-07-25T10:50:58.000Z</time>
</trkpt>
<trkpt lat="46.1162770" lon="10.4909230">
	<ele>2022.20</ele>
	<time>2024-07-25T10:50:59.000Z</time>
</trkpt>
<trkpt lat="46.1162700" lon="10.4909220">
	<ele>2022.20</ele>
	<time>2024-07-25T10:51:00.000Z</time>
</trkpt>
<trkpt lat="46.1162680" lon="10.4909220">
	<ele>2022.40</ele>
	<time>2024-07-25T10:51:01.000Z</time>
</trkpt>
<trkpt lat="46.1162660" lon="10.4909230">
	<ele>2022.80</ele>
	<time>2024-07-25T10:51:02.000Z</time>
</trkpt>
<trkpt lat="46.1162650" lon="10.4909240">
	<ele>2023.00</ele>
	<time>2024-07-25T10:51:03.000Z</time>
</trkpt>
<trkpt lat="46.1162650" lon="10.4909240">
	<ele>2023.20</ele>
	<time>2024-07-25T10:51:04.000Z</time>
</trkpt>
<trkpt lat="46.1162660" lon="10.4909240">
	<ele>2023.40</ele>
	<time>2024-07-25T10:51:05.000Z</time>
</trkpt>
<trkpt lat="46.1162660" lon="10.4909240">
	<ele>2023.40</ele>
	<time>2024-07-25T10:51:06.000Z</time>
</trkpt>
<trkpt lat="46.1162630" lon="10.4909230">
	<ele>2023.40</ele>
	<time>2024-07-25T10:51:07.000Z</time>
</trkpt>
<trkpt lat="46.1162540" lon="10.4909180">
	<ele>2023.20</ele>
	<time>2024-07-25T10:51:08.000Z</time>
</trkpt>
<trkpt lat="46.1162410" lon="10.4909090">
	<ele>2022.80</ele>
	<time>2024-07-25T10:51:09.000Z</time>
</trkpt>
<trkpt lat="46.1162340" lon="10.4909020">
	<ele>2022.60</ele>
	<time>2024-07-25T10:51:10.000Z</time>
</trkpt>
<trkpt lat="46.1162210" lon="10.4908870">
	<ele>2022.20</ele>
	<time>2024-07-25T10:51:11.000Z</time>
</trkpt>
<trkpt lat="46.1162120" lon="10.4908750">
	<ele>2022.00</ele>
	<time>2024-07-25T10:51:12.000Z</time>
</trkpt>
<trkpt lat="46.1162010" lon="10.4908620">
	<ele>2022.00</ele>
	<time>2024-07-25T10:51:13.000Z</time>
</trkpt>
<trkpt lat="46.1161900" lon="10.4908460">
	<ele>2021.80</ele>
	<time>2024-07-25T10:51:14.000Z</time>
</trkpt>
<trkpt lat="46.1161810" lon="10.4908320">
	<ele>2021.80</ele>
	<time>2024-07-25T10:51:15.000Z</time>
</trkpt>
<trkpt lat="46.1161740" lon="10.4908180">
	<ele>2021.80</ele>
	<time>2024-07-25T10:51:16.000Z</time>
</trkpt>
<trkpt lat="46.1161690" lon="10.4908070">
	<ele>2022.00</ele>
	<time>2024-07-25T10:51:17.000Z</time>
</trkpt>
<trkpt lat="46.1161660" lon="10.4907980">
	<ele>2022.00</ele>
	<time>2024-07-25T10:51:18.000Z</time>
</trkpt>
<trkpt lat="46.1161640" lon="10.4907910">
	<ele>2022.20</ele>
	<time>2024-07-25T10:51:19.000Z</time>
</trkpt>
<trkpt lat="46.1161630" lon="10.4907860">
	<ele>2022.20</ele>
	<time>2024-07-25T10:51:20.000Z</time>
</trkpt>
<trkpt lat="46.1161630" lon="10.4907850">
	<ele>2022.20</ele>
	<time>2024-07-25T10:51:21.000Z</time>
</trkpt>
<trkpt lat="46.1161630" lon="10.4907840">
	<ele>2022.40</ele>
	<time>2024-07-25T10:51:22.000Z</time>
</trkpt>
<trkpt lat="46.1161630" lon="10.4907820">
	<ele>2022.40</ele>
	<time>2024-07-25T10:51:23.000Z</time>
</trkpt>
<trkpt lat="46.1161630" lon="10.4907710">
	<ele>2022.40</ele>
	<time>2024-07-25T10:51:24.000Z</time>
</trkpt>
<trkpt lat="46.1161620" lon="10.4907590">
	<ele>2022.40</ele>
	<time>2024-07-25T10:51:25.000Z</time>
</trkpt>
<trkpt lat="46.1161580" lon="10.4907470">
	<ele>2022.40</ele>
	<time>2024-07-25T10:51:26.000Z</time>
</trkpt>
<trkpt lat="46.1161530" lon="10.4907410">
	<ele>2022.60</ele>
	<time>2024-07-25T10:51:27.000Z</time>
</trkpt>
<trkpt lat="46.1161480" lon="10.4907230">
	<ele>2022.60</ele>
	<time>2024-07-25T10:51:28.000Z</time>
</trkpt>
<trkpt lat="46.1161460" lon="10.4907080">
	<ele>2022.80</ele>
	<time>2024-07-25T10:51:29.000Z</time>
</trkpt>
<trkpt lat="46.1161460" lon="10.4906940">
	<ele>2023.00</ele>
	<time>2024-07-25T10:51:30.000Z</time>
</trkpt>
<trkpt lat="46.1161460" lon="10.4906780">
	<ele>2023.20</ele>
	<time>2024-07-25T10:51:31.000Z</time>
</trkpt>
<trkpt lat="46.1161390" lon="10.4906620">
	<ele>2023.20</ele>
	<time>2024-07-25T10:51:32.000Z</time>
</trkpt>
<trkpt lat="46.1161330" lon="10.4906470">
	<ele>2023.20</ele>
	<time>2024-07-25T10:51:33.000Z</time>
</trkpt>
<trkpt lat="46.1161330" lon="10.4906290">
	<ele>2023.40</ele>
	<time>2024-07-25T10:51:34.000Z</time>
</trkpt>
<trkpt lat="46.1161350" lon="10.4906090">
	<ele>2023.40</ele>
	<time>2024-07-25T10:51:35.000Z</time>
</trkpt>
<trkpt lat="46.1161380" lon="10.4905920">
	<ele>2023.40</ele>
	<time>2024-07-25T10:51:36.000Z</time>
</trkpt>
<trkpt lat="46.1161380" lon="10.4905760">
	<ele>2023.40</ele>
	<time>2024-07-25T10:51:37.000Z</time>
</trkpt>
<trkpt lat="46.1161350" lon="10.4905620">
	<ele>2023.40</ele>
	<time>2024-07-25T10:51:38.000Z</time>
</trkpt>
<trkpt lat="46.1161320" lon="10.4905480">
	<ele>2023.40</ele>
	<time>2024-07-25T10:51:39.000Z</time>
</trkpt>
<trkpt lat="46.1161310" lon="10.4905300">
	<ele>2023.40</ele>
	<time>2024-07-25T10:51:40.000Z</time>
</trkpt>
<trkpt lat="46.1161320" lon="10.4905100">
	<ele>2023.40</ele>
	<time>2024-07-25T10:51:41.000Z</time>
</trkpt>
<trkpt lat="46.1161330" lon="10.4904980">
	<ele>2023.40</ele>
	<time>2024-07-25T10:51:42.000Z</time>
</trkpt>
<trkpt lat="46.1161280" lon="10.4904800">
	<ele>2023.40</ele>
	<time>2024-07-25T10:51:43.000Z</time>
</trkpt>
<trkpt lat="46.1161240" lon="10.4904650">
	<ele>2023.40</ele>
	<time>2024-07-25T10:51:44.000Z</time>
</trkpt>
<trkpt lat="46.1161240" lon="10.4904480">
	<ele>2023.40</ele>
	<time>2024-07-25T10:51:45.000Z</time>
</trkpt>
<trkpt lat="46.1161290" lon="10.4904290">
	<ele>2023.40</ele>
	<time>2024-07-25T10:51:46.000Z</time>
</trkpt>
<trkpt lat="46.1161320" lon="10.4904070">
	<ele>2023.40</ele>
	<time>2024-07-25T10:51:47.000Z</time>
</trkpt>
<trkpt lat="46.1161340" lon="10.4903790">
	<ele>2023.40</ele>
	<time>2024-07-25T10:51:48.000Z</time>
</trkpt>
<trkpt lat="46.1161420" lon="10.4903580">
	<ele>2023.40</ele>
	<time>2024-07-25T10:51:49.000Z</time>
</trkpt>
<trkpt lat="46.1161500" lon="10.4903370">
	<ele>2023.40</ele>
	<time>2024-07-25T10:51:50.000Z</time>
</trkpt>
<trkpt lat="46.1161520" lon="10.4903220">
	<ele>2023.40</ele>
	<time>2024-07-25T10:51:51.000Z</time>
</trkpt>
<trkpt lat="46.1161570" lon="10.4902960">
	<ele>2023.40</ele>
	<time>2024-07-25T10:51:52.000Z</time>
</trkpt>
<trkpt lat="46.1161580" lon="10.4902700">
	<ele>2023.40</ele>
	<time>2024-07-25T10:51:53.000Z</time>
</trkpt>
<trkpt lat="46.1161670" lon="10.4902500">
	<ele>2023.20</ele>
	<time>2024-07-25T10:51:54.000Z</time>
</trkpt>
<trkpt lat="46.1161730" lon="10.4902300">
	<ele>2023.20</ele>
	<time>2024-07-25T10:51:55.000Z</time>
</trkpt>
<trkpt lat="46.1161780" lon="10.4902110">
	<ele>2023.20</ele>
	<time>2024-07-25T10:51:56.000Z</time>
</trkpt>
<trkpt lat="46.1161840" lon="10.4901920">
	<ele>2023.20</ele>
	<time>2024-07-25T10:51:57.000Z</time>
</trkpt>
<trkpt lat="46.1161910" lon="10.4901720">
	<ele>2023.20</ele>
	<time>2024-07-25T10:51:58.000Z</time>
</trkpt>
<trkpt lat="46.1161980" lon="10.4901530">
	<ele>2023.20</ele>
	<time>2024-07-25T10:51:59.000Z</time>
</trkpt>
<trkpt lat="46.1162020" lon="10.4901340">
	<ele>2023.20</ele>
	<time>2024-07-25T10:52:00.000Z</time>
</trkpt>
<trkpt lat="46.1162060" lon="10.4901160">
	<ele>2023.20</ele>
	<time>2024-07-25T10:52:01.000Z</time>
</trkpt>
<trkpt lat="46.1162100" lon="10.4900970">
	<ele>2023.20</ele>
	<time>2024-07-25T10:52:02.000Z</time>
</trkpt>
<trkpt lat="46.1162150" lon="10.4900800">
	<ele>2023.00</ele>
	<time>2024-07-25T10:52:03.000Z</time>
</trkpt>
<trkpt lat="46.1162160" lon="10.4900630">
	<ele>2023.20</ele>
	<time>2024-07-25T10:52:04.000Z</time>
</trkpt>
<trkpt lat="46.1162150" lon="10.4900390">
	<ele>2023.40</ele>
	<time>2024-07-25T10:52:05.000Z</time>
</trkpt>
<trkpt lat="46.1162130" lon="10.4900230">
	<ele>2023.20</ele>
	<time>2024-07-25T10:52:06.000Z</time>
</trkpt>
<trkpt lat="46.1162120" lon="10.4900020">
	<ele>2023.20</ele>
	<time>2024-07-25T10:52:07.000Z</time>
</trkpt>
<trkpt lat="46.1162110" lon="10.4899790">
	<ele>2023.40</ele>
	<time>2024-07-25T10:52:08.000Z</time>
</trkpt>
<trkpt lat="46.1162050" lon="10.4899630">
	<ele>2023.40</ele>
	<time>2024-07-25T10:52:09.000Z</time>
</trkpt>
<trkpt lat="46.1162000" lon="10.4899460">
	<ele>2023.40</ele>
	<time>2024-07-25T10:52:10.000Z</time>
</trkpt>
<trkpt lat="46.1162000" lon="10.4899300">
	<ele>2023.40</ele>
	<time>2024-07-25T10:52:11.000Z</time>
</trkpt>
<trkpt lat="46.1162010" lon="10.4899040">
	<ele>2023.40</ele>
	<time>2024-07-25T10:52:12.000Z</time>
</trkpt>
<trkpt lat="46.1162030" lon="10.4898850">
	<ele>2023.40</ele>
	<time>2024-07-25T10:52:13.000Z</time>
</trkpt>
<trkpt lat="46.1162060" lon="10.4898640">
	<ele>2023.40</ele>
	<time>2024-07-25T10:52:14.000Z</time>
</trkpt>
<trkpt lat="46.1162090" lon="10.4898430">
	<ele>2023.60</ele>
	<time>2024-07-25T10:52:15.000Z</time>
</trkpt>
<trkpt lat="46.1162090" lon="10.4898230">
	<ele>2023.60</ele>
	<time>2024-07-25T10:52:16.000Z</time>
</trkpt>
<trkpt lat="46.1162120" lon="10.4898030">
	<ele>2023.60</ele>
	<time>2024-07-25T10:52:17.000Z</time>
</trkpt>
<trkpt lat="46.1162140" lon="10.4897790">
	<ele>2023.60</ele>
	<time>2024-07-25T10:52:18.000Z</time>
</trkpt>
<trkpt lat="46.1162140" lon="10.4897560">
	<ele>2023.60</ele>
	<time>2024-07-25T10:52:19.000Z</time>
</trkpt>
<trkpt lat="46.1162130" lon="10.4897350">
	<ele>2023.20</ele>
	<time>2024-07-25T10:52:20.000Z</time>
</trkpt>
<trkpt lat="46.1162120" lon="10.4897130">
	<ele>2023.20</ele>
	<time>2024-07-25T10:52:21.000Z</time>
</trkpt>
<trkpt lat="46.1162170" lon="10.4896930">
	<ele>2023.20</ele>
	<time>2024-07-25T10:52:22.000Z</time>
</trkpt>
<trkpt lat="46.1162230" lon="10.4896700">
	<ele>2023.00</ele>
	<time>2024-07-25T10:52:23.000Z</time>
</trkpt>
<trkpt lat="46.1162310" lon="10.4896480">
	<ele>2023.00</ele>
	<time>2024-07-25T10:52:24.000Z</time>
</trkpt>
<trkpt lat="46.1162370" lon="10.4896280">
	<ele>2023.00</ele>
	<time>2024-07-25T10:52:25.000Z</time>
</trkpt>
<trkpt lat="46.1162370" lon="10.4896090">
	<ele>2023.00</ele>
	<time>2024-07-25T10:52:26.000Z</time>
</trkpt>
<trkpt lat="46.1162360" lon="10.4895920">
	<ele>2023.00</ele>
	<time>2024-07-25T10:52:27.000Z</time>
</trkpt>
<trkpt lat="46.1162370" lon="10.4895750">
	<ele>2022.80</ele>
	<time>2024-07-25T10:52:28.000Z</time>
</trkpt>
<trkpt lat="46.1162350" lon="10.4895570">
	<ele>2022.80</ele>
	<time>2024-07-25T10:52:29.000Z</time>
</trkpt>
<trkpt lat="46.1162310" lon="10.4895400">
	<ele>2022.80</ele>
	<time>2024-07-25T10:52:30.000Z</time>
</trkpt>
<trkpt lat="46.1162270" lon="10.4895240">
	<ele>2022.80</ele>
	<time>2024-07-25T10:52:31.000Z</time>
</trkpt>
<trkpt lat="46.1162240" lon="10.4895030">
	<ele>2022.80</ele>
	<time>2024-07-25T10:52:32.000Z</time>
</trkpt>
<trkpt lat="46.1162230" lon="10.4894860">
	<ele>2022.80</ele>
	<time>2024-07-25T10:52:33.000Z</time>
</trkpt>
<trkpt lat="46.1162210" lon="10.4894720">
	<ele>2023.00</ele>
	<time>2024-07-25T10:52:34.000Z</time>
</trkpt>
<trkpt lat="46.1162190" lon="10.4894560">
	<ele>2023.00</ele>
	<time>2024-07-25T10:52:35.000Z</time>
</trkpt>
<trkpt lat="46.1162190" lon="10.4894430">
	<ele>2023.00</ele>
	<time>2024-07-25T10:52:36.000Z</time>
</trkpt>
<trkpt lat="46.1162160" lon="10.4894270">
	<ele>2023.20</ele>
	<time>2024-07-25T10:52:37.000Z</time>
</trkpt>
<trkpt lat="46.1162150" lon="10.4894090">
	<ele>2023.40</ele>
	<time>2024-07-25T10:52:38.000Z</time>
</trkpt>
<trkpt lat="46.1162170" lon="10.4893910">
	<ele>2023.40</ele>
	<time>2024-07-25T10:52:39.000Z</time>
</trkpt>
<trkpt lat="46.1162210" lon="10.4893700">
	<ele>2023.60</ele>
	<time>2024-07-25T10:52:40.000Z</time>
</trkpt>
<trkpt lat="46.1162250" lon="10.4893520">
	<ele>2023.60</ele>
	<time>2024-07-25T10:52:41.000Z</time>
</trkpt>
<trkpt lat="46.1162270" lon="10.4893330">
	<ele>2023.60</ele>
	<time>2024-07-25T10:52:42.000Z</time>
</trkpt>
<trkpt lat="46.1162310" lon="10.4893140">
	<ele>2023.60</ele>
	<time>2024-07-25T10:52:43.000Z</time>
</trkpt>
<trkpt lat="46.1162360" lon="10.4892970">
	<ele>2023.60</ele>
	<time>2024-07-25T10:52:44.000Z</time>
</trkpt>
<trkpt lat="46.1162440" lon="10.4892810">
	<ele>2023.40</ele>
	<time>2024-07-25T10:52:45.000Z</time>
</trkpt>
<trkpt lat="46.1162540" lon="10.4892670">
	<ele>2023.20</ele>
	<time>2024-07-25T10:52:46.000Z</time>
</trkpt>
<trkpt lat="46.1162650" lon="10.4892470">
	<ele>2023.20</ele>
	<time>2024-07-25T10:52:47.000Z</time>
</trkpt>
<trkpt lat="46.1162710" lon="10.4892250">
	<ele>2023.00</ele>
	<time>2024-07-25T10:52:48.000Z</time>
</trkpt>
<trkpt lat="46.1162750" lon="10.4892040">
	<ele>2023.00</ele>
	<time>2024-07-25T10:52:49.000Z</time>
</trkpt>
<trkpt lat="46.1162790" lon="10.4891860">
	<ele>2022.80</ele>
	<time>2024-07-25T10:52:50.000Z</time>
</trkpt>
<trkpt lat="46.1162830" lon="10.4891710">
	<ele>2022.80</ele>
	<time>2024-07-25T10:52:51.000Z</time>
</trkpt>
<trkpt lat="46.1162900" lon="10.4891560">
	<ele>2022.80</ele>
	<time>2024-07-25T10:52:52.000Z</time>
</trkpt>
<trkpt lat="46.1162970" lon="10.4891390">
	<ele>2022.80</ele>
	<time>2024-07-25T10:52:53.000Z</time>
</trkpt>
<trkpt lat="46.1163030" lon="10.4891210">
	<ele>2023.00</ele>
	<time>2024-07-25T10:52:54.000Z</time>
</trkpt>
<trkpt lat="46.1163090" lon="10.4891060">
	<ele>2022.80</ele>
	<time>2024-07-25T10:52:55.000Z</time>
</trkpt>
<trkpt lat="46.1163140" lon="10.4890890">
	<ele>2022.80</ele>
	<time>2024-07-25T10:52:56.000Z</time>
</trkpt>
<trkpt lat="46.1163220" lon="10.4890730">
	<ele>2022.80</ele>
	<time>2024-07-25T10:52:57.000Z</time>
</trkpt>
<trkpt lat="46.1163290" lon="10.4890570">
	<ele>2022.60</ele>
	<time>2024-07-25T10:52:58.000Z</time>
</trkpt>
<trkpt lat="46.1163330" lon="10.4890380">
	<ele>2022.60</ele>
	<time>2024-07-25T10:52:59.000Z</time>
</trkpt>
<trkpt lat="46.1163380" lon="10.4890220">
	<ele>2022.40</ele>
	<time>2024-07-25T10:53:00.000Z</time>
</trkpt>
<trkpt lat="46.1163390" lon="10.4890080">
	<ele>2022.40</ele>
	<time>2024-07-25T10:53:01.000Z</time>
</trkpt>
<trkpt lat="46.1163410" lon="10.4889910">
	<ele>2022.40</ele>
	<time>2024-07-25T10:53:02.000Z</time>
</trkpt>
<trkpt lat="46.1163430" lon="10.4889740">
	<ele>2022.40</ele>
	<time>2024-07-25T10:53:03.000Z</time>
</trkpt>
<trkpt lat="46.1163480" lon="10.4889580">
	<ele>2022.40</ele>
	<time>2024-07-25T10:53:04.000Z</time>
</trkpt>
<trkpt lat="46.1163540" lon="10.4889370">
	<ele>2022.40</ele>
	<time>2024-07-25T10:53:05.000Z</time>
</trkpt>
<trkpt lat="46.1163640" lon="10.4889160">
	<ele>2022.40</ele>
	<time>2024-07-25T10:53:06.000Z</time>
</trkpt>
<trkpt lat="46.1163770" lon="10.4888960">
	<ele>2022.40</ele>
	<time>2024-07-25T10:53:07.000Z</time>
</trkpt>
<trkpt lat="46.1163900" lon="10.4888770">
	<ele>2022.40</ele>
	<time>2024-07-25T10:53:08.000Z</time>
</trkpt>
<trkpt lat="46.1164000" lon="10.4888580">
	<ele>2022.40</ele>
	<time>2024-07-25T10:53:09.000Z</time>
</trkpt>
<trkpt lat="46.1164080" lon="10.4888380">
	<ele>2022.20</ele>
	<time>2024-07-25T10:53:10.000Z</time>
</trkpt>
<trkpt lat="46.1164170" lon="10.4888210">
	<ele>2022.20</ele>
	<time>2024-07-25T10:53:11.000Z</time>
</trkpt>
<trkpt lat="46.1164250" lon="10.4888090">
	<ele>2022.20</ele>
	<time>2024-07-25T10:53:12.000Z</time>
</trkpt>
<trkpt lat="46.1164300" lon="10.4887960">
	<ele>2022.20</ele>
	<time>2024-07-25T10:53:13.000Z</time>
</trkpt>
<trkpt lat="46.1164400" lon="10.4887830">
	<ele>2022.20</ele>
	<time>2024-07-25T10:53:14.000Z</time>
</trkpt>
<trkpt lat="46.1164480" lon="10.4887680">
	<ele>2022.20</ele>
	<time>2024-07-25T10:53:15.000Z</time>
</trkpt>
<trkpt lat="46.1164600" lon="10.4887510">
	<ele>2022.20</ele>
	<time>2024-07-25T10:53:16.000Z</time>
</trkpt>
<trkpt lat="46.1164730" lon="10.4887360">
	<ele>2022.20</ele>
	<time>2024-07-25T10:53:17.000Z</time>
</trkpt>
<trkpt lat="46.1164810" lon="10.4887230">
	<ele>2022.20</ele>
	<time>2024-07-25T10:53:18.000Z</time>
</trkpt>
<trkpt lat="46.1164870" lon="10.4887080">
	<ele>2022.20</ele>
	<time>2024-07-25T10:53:19.000Z</time>
</trkpt>
<trkpt lat="46.1164940" lon="10.4886870">
	<ele>2022.20</ele>
	<time>2024-07-25T10:53:20.000Z</time>
</trkpt>
<trkpt lat="46.1165020" lon="10.4886710">
	<ele>2022.20</ele>
	<time>2024-07-25T10:53:21.000Z</time>
</trkpt>
<trkpt lat="46.1165100" lon="10.4886580">
	<ele>2022.20</ele>
	<time>2024-07-25T10:53:22.000Z</time>
</trkpt>
<trkpt lat="46.1165170" lon="10.4886400">
	<ele>2022.00</ele>
	<time>2024-07-25T10:53:23.000Z</time>
</trkpt>
<trkpt lat="46.1165230" lon="10.4886240">
	<ele>2022.00</ele>
	<time>2024-07-25T10:53:24.000Z</time>
</trkpt>
<trkpt lat="46.1165260" lon="10.4886110">
	<ele>2022.00</ele>
	<time>2024-07-25T10:53:25.000Z</time>
</trkpt>
<trkpt lat="46.1165310" lon="10.4885970">
	<ele>2022.00</ele>
	<time>2024-07-25T10:53:26.000Z</time>
</trkpt>
<trkpt lat="46.1165370" lon="10.4885820">
	<ele>2022.00</ele>
	<time>2024-07-25T10:53:27.000Z</time>
</trkpt>
<trkpt lat="46.1165450" lon="10.4885670">
	<ele>2022.00</ele>
	<time>2024-07-25T10:53:28.000Z</time>
</trkpt>
<trkpt lat="46.1165510" lon="10.4885480">
	<ele>2022.00</ele>
	<time>2024-07-25T10:53:29.000Z</time>
</trkpt>
<trkpt lat="46.1165550" lon="10.4885320">
	<ele>2022.20</ele>
	<time>2024-07-25T10:53:30.000Z</time>
</trkpt>
<trkpt lat="46.1165570" lon="10.4885170">
	<ele>2022.20</ele>
	<time>2024-07-25T10:53:31.000Z</time>
</trkpt>
<trkpt lat="46.1165610" lon="10.4884980">
	<ele>2022.20</ele>
	<time>2024-07-25T10:53:32.000Z</time>
</trkpt>
<trkpt lat="46.1165670" lon="10.4884820">
	<ele>2022.20</ele>
	<time>2024-07-25T10:53:33.000Z</time>
</trkpt>
<trkpt lat="46.1165720" lon="10.4884660">
	<ele>2022.20</ele>
	<time>2024-07-25T10:53:34.000Z</time>
</trkpt>
<trkpt lat="46.1165770" lon="10.4884450">
	<ele>2022.00</ele>
	<time>2024-07-25T10:53:35.000Z</time>
</trkpt>
<trkpt lat="46.1165840" lon="10.4884260">
	<ele>2021.80</ele>
	<time>2024-07-25T10:53:36.000Z</time>
</trkpt>
<trkpt lat="46.1165890" lon="10.4884120">
	<ele>2021.80</ele>
	<time>2024-07-25T10:53:37.000Z</time>
</trkpt>
<trkpt lat="46.1165940" lon="10.4883960">
	<ele>2021.80</ele>
	<time>2024-07-25T10:53:38.000Z</time>
</trkpt>
<trkpt lat="46.1165990" lon="10.4883810">
	<ele>2021.80</ele>
	<time>2024-07-25T10:53:39.000Z</time>
</trkpt>
<trkpt lat="46.1166050" lon="10.4883590">
	<ele>2021.80</ele>
	<time>2024-07-25T10:53:40.000Z</time>
</trkpt>
<trkpt lat="46.1166070" lon="10.4883380">
	<ele>2021.80</ele>
	<time>2024-07-25T10:53:41.000Z</time>
</trkpt>
<trkpt lat="46.1166110" lon="10.4883180">
	<ele>2021.80</ele>
	<time>2024-07-25T10:53:42.000Z</time>
</trkpt>
<trkpt lat="46.1166170" lon="10.4882980">
	<ele>2021.80</ele>
	<time>2024-07-25T10:53:43.000Z</time>
</trkpt>
<trkpt lat="46.1166230" lon="10.4882780">
	<ele>2022.00</ele>
	<time>2024-07-25T10:53:44.000Z</time>
</trkpt>
<trkpt lat="46.1166250" lon="10.4882570">
	<ele>2022.00</ele>
	<time>2024-07-25T10:53:45.000Z</time>
</trkpt>
<trkpt lat="46.1166250" lon="10.4882380">
	<ele>2022.00</ele>
	<time>2024-07-25T10:53:46.000Z</time>
</trkpt>
<trkpt lat="46.1166280" lon="10.4882170">
	<ele>2022.00</ele>
	<time>2024-07-25T10:53:47.000Z</time>
</trkpt>
<trkpt lat="46.1166310" lon="10.4881960">
	<ele>2022.00</ele>
	<time>2024-07-25T10:53:48.000Z</time>
</trkpt>
<trkpt lat="46.1166330" lon="10.4881770">
	<ele>2022.00</ele>
	<time>2024-07-25T10:53:49.000Z</time>
</trkpt>
<trkpt lat="46.1166350" lon="10.4881610">
	<ele>2021.80</ele>
	<time>2024-07-25T10:53:50.000Z</time>
</trkpt>
<trkpt lat="46.1166360" lon="10.4881400">
	<ele>2021.80</ele>
	<time>2024-07-25T10:53:51.000Z</time>
</trkpt>
<trkpt lat="46.1166380" lon="10.4881200">
	<ele>2021.80</ele>
	<time>2024-07-25T10:53:52.000Z</time>
</trkpt>
<trkpt lat="46.1166390" lon="10.4880980">
	<ele>2021.60</ele>
	<time>2024-07-25T10:53:53.000Z</time>
</trkpt>
<trkpt lat="46.1166390" lon="10.4880740">
	<ele>2021.60</ele>
	<time>2024-07-25T10:53:54.000Z</time>
</trkpt>
<trkpt lat="46.1166380" lon="10.4880500">
	<ele>2021.60</ele>
	<time>2024-07-25T10:53:55.000Z</time>
</trkpt>
<trkpt lat="46.1166390" lon="10.4880300">
	<ele>2021.40</ele>
	<time>2024-07-25T10:53:56.000Z</time>
</trkpt>
<trkpt lat="46.1166400" lon="10.4880040">
	<ele>2021.40</ele>
	<time>2024-07-25T10:53:57.000Z</time>
</trkpt>
<trkpt lat="46.1166390" lon="10.4879730">
	<ele>2021.40</ele>
	<time>2024-07-25T10:53:58.000Z</time>
</trkpt>
<trkpt lat="46.1166360" lon="10.4879500">
	<ele>2021.40</ele>
	<time>2024-07-25T10:53:59.000Z</time>
</trkpt>
<trkpt lat="46.1166310" lon="10.4879310">
	<ele>2021.20</ele>
	<time>2024-07-25T10:54:00.000Z</time>
</trkpt>
<trkpt lat="46.1166290" lon="10.4879070">
	<ele>2021.20</ele>
	<time>2024-07-25T10:54:01.000Z</time>
</trkpt>
<trkpt lat="46.1166300" lon="10.4878860">
	<ele>2021.40</ele>
	<time>2024-07-25T10:54:02.000Z</time>
</trkpt>
<trkpt lat="46.1166370" lon="10.4878600">
	<ele>2021.40</ele>
	<time>2024-07-25T10:54:03.000Z</time>
</trkpt>
<trkpt lat="46.1166420" lon="10.4878410">
	<ele>2021.40</ele>
	<time>2024-07-25T10:54:04.000Z</time>
</trkpt>
<trkpt lat="46.1166460" lon="10.4878140">
	<ele>2021.40</ele>
	<time>2024-07-25T10:54:05.000Z</time>
</trkpt>
<trkpt lat="46.1166470" lon="10.4877830">
	<ele>2021.40</ele>
	<time>2024-07-25T10:54:06.000Z</time>
</trkpt>
<trkpt lat="46.1166430" lon="10.4877630">
	<ele>2021.40</ele>
	<time>2024-07-25T10:54:07.000Z</time>
</trkpt>
<trkpt lat="46.1166340" lon="10.4877400">
	<ele>2021.40</ele>
	<time>2024-07-25T10:54:08.000Z</time>
</trkpt>
<trkpt lat="46.1166290" lon="10.4877240">
	<ele>2021.20</ele>
	<time>2024-07-25T10:54:09.000Z</time>
</trkpt>
<trkpt lat="46.1166230" lon="10.4877020">
	<ele>2021.20</ele>
	<time>2024-07-25T10:54:10.000Z</time>
</trkpt>
<trkpt lat="46.1166210" lon="10.4876780">
	<ele>2021.20</ele>
	<time>2024-07-25T10:54:11.000Z</time>
</trkpt>
<trkpt lat="46.1166170" lon="10.4876630">
	<ele>2021.00</ele>
	<time>2024-07-25T10:54:12.000Z</time>
</trkpt>
<trkpt lat="46.1166130" lon="10.4876450">
	<ele>2021.00</ele>
	<time>2024-07-25T10:54:13.000Z</time>
</trkpt>
<trkpt lat="46.1166080" lon="10.4876280">
	<ele>2021.00</ele>
	<time>2024-07-25T10:54:14.000Z</time>
</trkpt>
<trkpt lat="46.1166020" lon="10.4876100">
	<ele>2021.20</ele>
	<time>2024-07-25T10:54:15.000Z</time>
</trkpt>
<trkpt lat="46.1165930" lon="10.4875940">
	<ele>2021.20</ele>
	<time>2024-07-25T10:54:16.000Z</time>
</trkpt>
<trkpt lat="46.1165830" lon="10.4875760">
	<ele>2021.20</ele>
	<time>2024-07-25T10:54:17.000Z</time>
</trkpt>
<trkpt lat="46.1165770" lon="10.4875590">
	<ele>2021.40</ele>
	<time>2024-07-25T10:54:18.000Z</time>
</trkpt>
<trkpt lat="46.1165700" lon="10.4875410">
	<ele>2021.60</ele>
	<time>2024-07-25T10:54:19.000Z</time>
</trkpt>
<trkpt lat="46.1165620" lon="10.4875210">
	<ele>2021.60</ele>
	<time>2024-07-25T10:54:20.000Z</time>
</trkpt>
<trkpt lat="46.1165550" lon="10.4875040">
	<ele>2021.80</ele>
	<time>2024-07-25T10:54:21.000Z</time>
</trkpt>
<trkpt lat="46.1165470" lon="10.4874870">
	<ele>2021.80</ele>
	<time>2024-07-25T10:54:22.000Z</time>
</trkpt>
<trkpt lat="46.1165380" lon="10.4874720">
	<ele>2021.80</ele>
	<time>2024-07-25T10:54:23.000Z</time>
</trkpt>
<trkpt lat="46.1165290" lon="10.4874560">
	<ele>2021.80</ele>
	<time>2024-07-25T10:54:24.000Z</time>
</trkpt>
<trkpt lat="46.1165210" lon="10.4874370">
	<ele>2021.60</ele>
	<time>2024-07-25T10:54:25.000Z</time>
</trkpt>
<trkpt lat="46.1165120" lon="10.4874200">
	<ele>2021.60</ele>
	<time>2024-07-25T10:54:26.000Z</time>
</trkpt>
<trkpt lat="46.1165030" lon="10.4874050">
	<ele>2021.60</ele>
	<time>2024-07-25T10:54:27.000Z</time>
</trkpt>
<trkpt lat="46.1164920" lon="10.4873910">
	<ele>2021.60</ele>
	<time>2024-07-25T10:54:28.000Z</time>
</trkpt>
<trkpt lat="46.1164820" lon="10.4873770">
	<ele>2021.60</ele>
	<time>2024-07-25T10:54:29.000Z</time>
</trkpt>
<trkpt lat="46.1164720" lon="10.4873600">
	<ele>2021.60</ele>
	<time>2024-07-25T10:54:30.000Z</time>
</trkpt>
<trkpt lat="46.1164620" lon="10.4873340">
	<ele>2021.60</ele>
	<time>2024-07-25T10:54:31.000Z</time>
</trkpt>
<trkpt lat="46.1164570" lon="10.4873150">
	<ele>2021.60</ele>
	<time>2024-07-25T10:54:32.000Z</time>
</trkpt>
<trkpt lat="46.1164530" lon="10.4872990">
	<ele>2021.60</ele>
	<time>2024-07-25T10:54:33.000Z</time>
</trkpt>
<trkpt lat="46.1164480" lon="10.4872770">
	<ele>2021.80</ele>
	<time>2024-07-25T10:54:34.000Z</time>
</trkpt>
<trkpt lat="46.1164430" lon="10.4872550">
	<ele>2021.80</ele>
	<time>2024-07-25T10:54:35.000Z</time>
</trkpt>
<trkpt lat="46.1164380" lon="10.4872340">
	<ele>2021.80</ele>
	<time>2024-07-25T10:54:36.000Z</time>
</trkpt>
<trkpt lat="46.1164330" lon="10.4872110">
	<ele>2021.80</ele>
	<time>2024-07-25T10:54:37.000Z</time>
</trkpt>
<trkpt lat="46.1164280" lon="10.4871910">
	<ele>2021.60</ele>
	<time>2024-07-25T10:54:38.000Z</time>
</trkpt>
<trkpt lat="46.1164250" lon="10.4871720">
	<ele>2021.80</ele>
	<time>2024-07-25T10:54:39.000Z</time>
</trkpt>
<trkpt lat="46.1164210" lon="10.4871580">
	<ele>2021.60</ele>
	<time>2024-07-25T10:54:40.000Z</time>
</trkpt>
<trkpt lat="46.1164180" lon="10.4871370">
	<ele>2021.60</ele>
	<time>2024-07-25T10:54:41.000Z</time>
</trkpt>
<trkpt lat="46.1164170" lon="10.4871160">
	<ele>2021.60</ele>
	<time>2024-07-25T10:54:42.000Z</time>
</trkpt>
<trkpt lat="46.1164160" lon="10.4870960">
	<ele>2021.60</ele>
	<time>2024-07-25T10:54:43.000Z</time>
</trkpt>
<trkpt lat="46.1164200" lon="10.4870740">
	<ele>2021.60</ele>
	<time>2024-07-25T10:54:44.000Z</time>
</trkpt>
<trkpt lat="46.1164200" lon="10.4870500">
	<ele>2021.60</ele>
	<time>2024-07-25T10:54:45.000Z</time>
</trkpt>
<trkpt lat="46.1164180" lon="10.4870290">
	<ele>2021.40</ele>
	<time>2024-07-25T10:54:46.000Z</time>
</trkpt>
<trkpt lat="46.1164150" lon="10.4870040">
	<ele>2021.40</ele>
	<time>2024-07-25T10:54:47.000Z</time>
</trkpt>
<trkpt lat="46.1164140" lon="10.4869820">
	<ele>2021.20</ele>
	<time>2024-07-25T10:54:48.000Z</time>
</trkpt>
<trkpt lat="46.1164130" lon="10.4869600">
	<ele>2021.20</ele>
	<time>2024-07-25T10:54:49.000Z</time>
</trkpt>
<trkpt lat="46.1164100" lon="10.4869360">
	<ele>2021.00</ele>
	<time>2024-07-25T10:54:50.000Z</time>
</trkpt>
<trkpt lat="46.1164110" lon="10.4869150">
	<ele>2021.00</ele>
	<time>2024-07-25T10:54:51.000Z</time>
</trkpt>
<trkpt lat="46.1164130" lon="10.4868970">
	<ele>2021.00</ele>
	<time>2024-07-25T10:54:52.000Z</time>
</trkpt>
<trkpt lat="46.1164180" lon="10.4868810">
	<ele>2020.80</ele>
	<time>2024-07-25T10:54:53.000Z</time>
</trkpt>
<trkpt lat="46.1164190" lon="10.4868640">
	<ele>2020.80</ele>
	<time>2024-07-25T10:54:54.000Z</time>
</trkpt>
<trkpt lat="46.1164200" lon="10.4868420">
	<ele>2020.80</ele>
	<time>2024-07-25T10:54:55.000Z</time>
</trkpt>
<trkpt lat="46.1164230" lon="10.4868210">
	<ele>2020.60</ele>
	<time>2024-07-25T10:54:56.000Z</time>
</trkpt>
<trkpt lat="46.1164220" lon="10.4867990">
	<ele>2020.60</ele>
	<time>2024-07-25T10:54:57.000Z</time>
</trkpt>
<trkpt lat="46.1164210" lon="10.4867760">
	<ele>2020.60</ele>
	<time>2024-07-25T10:54:58.000Z</time>
</trkpt>
<trkpt lat="46.1164200" lon="10.4867560">
	<ele>2020.60</ele>
	<time>2024-07-25T10:54:59.000Z</time>
</trkpt>
<trkpt lat="46.1164250" lon="10.4867390">
	<ele>2020.60</ele>
	<time>2024-07-25T10:55:00.000Z</time>
</trkpt>
<trkpt lat="46.1164280" lon="10.4867190">
	<ele>2020.40</ele>
	<time>2024-07-25T10:55:01.000Z</time>
</trkpt>
<trkpt lat="46.1164270" lon="10.4867020">
	<ele>2020.40</ele>
	<time>2024-07-25T10:55:02.000Z</time>
</trkpt>
<trkpt lat="46.1164260" lon="10.4866780">
	<ele>2020.40</ele>
	<time>2024-07-25T10:55:03.000Z</time>
</trkpt>
<trkpt lat="46.1164250" lon="10.4866590">
	<ele>2020.40</ele>
	<time>2024-07-25T10:55:04.000Z</time>
</trkpt>
<trkpt lat="46.1164250" lon="10.4866400">
	<ele>2020.20</ele>
	<time>2024-07-25T10:55:05.000Z</time>
</trkpt>
<trkpt lat="46.1164250" lon="10.4866250">
	<ele>2020.20</ele>
	<time>2024-07-25T10:55:06.000Z</time>
</trkpt>
<trkpt lat="46.1164230" lon="10.4866030">
	<ele>2020.20</ele>
	<time>2024-07-25T10:55:07.000Z</time>
</trkpt>
<trkpt lat="46.1164190" lon="10.4865810">
	<ele>2020.20</ele>
	<time>2024-07-25T10:55:08.000Z</time>
</trkpt>
<trkpt lat="46.1164130" lon="10.4865560">
	<ele>2020.20</ele>
	<time>2024-07-25T10:55:09.000Z</time>
</trkpt>
<trkpt lat="46.1164070" lon="10.4865360">
	<ele>2020.00</ele>
	<time>2024-07-25T10:55:10.000Z</time>
</trkpt>
<trkpt lat="46.1164000" lon="10.4865240">
	<ele>2020.00</ele>
	<time>2024-07-25T10:55:11.000Z</time>
</trkpt>
<trkpt lat="46.1163920" lon="10.4865110">
	<ele>2020.00</ele>
	<time>2024-07-25T10:55:12.000Z</time>
</trkpt>
<trkpt lat="46.1163830" lon="10.4864950">
	<ele>2020.20</ele>
	<time>2024-07-25T10:55:13.000Z</time>
</trkpt>
<trkpt lat="46.1163750" lon="10.4864770">
	<ele>2020.20</ele>
	<time>2024-07-25T10:55:14.000Z</time>
</trkpt>
<trkpt lat="46.1163660" lon="10.4864620">
	<ele>2020.20</ele>
	<time>2024-07-25T10:55:15.000Z</time>
</trkpt>
<trkpt lat="46.1163620" lon="10.4864440">
	<ele>2020.20</ele>
	<time>2024-07-25T10:55:16.000Z</time>
</trkpt>
<trkpt lat="46.1163580" lon="10.4864240">
	<ele>2020.20</ele>
	<time>2024-07-25T10:55:17.000Z</time>
</trkpt>
<trkpt lat="46.1163590" lon="10.4864030">
	<ele>2020.20</ele>
	<time>2024-07-25T10:55:18.000Z</time>
</trkpt>
<trkpt lat="46.1163600" lon="10.4863880">
	<ele>2020.20</ele>
	<time>2024-07-25T10:55:19.000Z</time>
</trkpt>
<trkpt lat="46.1163630" lon="10.4863690">
	<ele>2020.20</ele>
	<time>2024-07-25T10:55:20.000Z</time>
</trkpt>
<trkpt lat="46.1163680" lon="10.4863500">
	<ele>2020.20</ele>
	<time>2024-07-25T10:55:21.000Z</time>
</trkpt>
<trkpt lat="46.1163740" lon="10.4863350">
	<ele>2020.20</ele>
	<time>2024-07-25T10:55:22.000Z</time>
</trkpt>
<trkpt lat="46.1163780" lon="10.4863190">
	<ele>2020.00</ele>
	<time>2024-07-25T10:55:23.000Z</time>
</trkpt>
<trkpt lat="46.1163830" lon="10.4863060">
	<ele>2020.00</ele>
	<time>2024-07-25T10:55:24.000Z</time>
</trkpt>
<trkpt lat="46.1163890" lon="10.4862920">
	<ele>2019.80</ele>
	<time>2024-07-25T10:55:25.000Z</time>
</trkpt>
<trkpt lat="46.1164010" lon="10.4862770">
	<ele>2019.80</ele>
	<time>2024-07-25T10:55:26.000Z</time>
</trkpt>
<trkpt lat="46.1164100" lon="10.4862580">
	<ele>2019.60</ele>
	<time>2024-07-25T10:55:27.000Z</time>
</trkpt>
<trkpt lat="46.1164190" lon="10.4862420">
	<ele>2019.60</ele>
	<time>2024-07-25T10:55:28.000Z</time>
</trkpt>
<trkpt lat="46.1164290" lon="10.4862240">
	<ele>2019.40</ele>
	<time>2024-07-25T10:55:29.000Z</time>
</trkpt>
<trkpt lat="46.1164360" lon="10.4862070">
	<ele>2019.20</ele>
	<time>2024-07-25T10:55:30.000Z</time>
</trkpt>
<trkpt lat="46.1164400" lon="10.4861770">
	<ele>2019.20</ele>
	<time>2024-07-25T10:55:31.000Z</time>
</trkpt>
<trkpt lat="46.1164440" lon="10.4861590">
	<ele>2019.20</ele>
	<time>2024-07-25T10:55:32.000Z</time>
</trkpt>
<trkpt lat="46.1164490" lon="10.4861450">
	<ele>2019.20</ele>
	<time>2024-07-25T10:55:33.000Z</time>
</trkpt>
<trkpt lat="46.1164560" lon="10.4861240">
	<ele>2019.20</ele>
	<time>2024-07-25T10:55:34.000Z</time>
</trkpt>
<trkpt lat="46.1164600" lon="10.4861050">
	<ele>2019.20</ele>
	<time>2024-07-25T10:55:35.000Z</time>
</trkpt>
<trkpt lat="46.1164650" lon="10.4860880">
	<ele>2019.20</ele>
	<time>2024-07-25T10:55:36.000Z</time>
</trkpt>
<trkpt lat="46.1164690" lon="10.4860700">
	<ele>2019.20</ele>
	<time>2024-07-25T10:55:37.000Z</time>
</trkpt>
<trkpt lat="46.1164670" lon="10.4860470">
	<ele>2019.20</ele>
	<time>2024-07-25T10:55:38.000Z</time>
</trkpt>
<trkpt lat="46.1164750" lon="10.4860360">
	<ele>2019.20</ele>
	<time>2024-07-25T10:55:39.000Z</time>
</trkpt>
<trkpt lat="46.1164780" lon="10.4860140">
	<ele>2019.20</ele>
	<time>2024-07-25T10:55:40.000Z</time>
</trkpt>
<trkpt lat="46.1164830" lon="10.4859970">
	<ele>2019.20</ele>
	<time>2024-07-25T10:55:41.000Z</time>
</trkpt>
<trkpt lat="46.1164840" lon="10.4859790">
	<ele>2019.20</ele>
	<time>2024-07-25T10:55:42.000Z</time>
</trkpt>
<trkpt lat="46.1164940" lon="10.4859660">
	<ele>2019.20</ele>
	<time>2024-07-25T10:55:43.000Z</time>
</trkpt>
<trkpt lat="46.1165000" lon="10.4859410">
	<ele>2019.20</ele>
	<time>2024-07-25T10:55:44.000Z</time>
</trkpt>
<trkpt lat="46.1164920" lon="10.4859180">
	<ele>2019.20</ele>
	<time>2024-07-25T10:55:45.000Z</time>
</trkpt>
<trkpt lat="46.1164870" lon="10.4858970">
	<ele>2019.20</ele>
	<time>2024-07-25T10:55:46.000Z</time>
</trkpt>
<trkpt lat="46.1164830" lon="10.4858790">
	<ele>2019.20</ele>
	<time>2024-07-25T10:55:47.000Z</time>
</trkpt>
<trkpt lat="46.1164800" lon="10.4858630">
	<ele>2019.20</ele>
	<time>2024-07-25T10:55:48.000Z</time>
</trkpt>
<trkpt lat="46.1164780" lon="10.4858420">
	<ele>2019.00</ele>
	<time>2024-07-25T10:55:49.000Z</time>
</trkpt>
<trkpt lat="46.1164780" lon="10.4858160">
	<ele>2019.00</ele>
	<time>2024-07-25T10:55:50.000Z</time>
</trkpt>
<trkpt lat="46.1164720" lon="10.4857970">
	<ele>2019.20</ele>
	<time>2024-07-25T10:55:51.000Z</time>
</trkpt>
<trkpt lat="46.1164690" lon="10.4857800">
	<ele>2019.20</ele>
	<time>2024-07-25T10:55:52.000Z</time>
</trkpt>
<trkpt lat="46.1164680" lon="10.4857620">
	<ele>2019.20</ele>
	<time>2024-07-25T10:55:53.000Z</time>
</trkpt>
<trkpt lat="46.1164660" lon="10.4857440">
	<ele>2019.20</ele>
	<time>2024-07-25T10:55:54.000Z</time>
</trkpt>
<trkpt lat="46.1164650" lon="10.4857270">
	<ele>2019.40</ele>
	<time>2024-07-25T10:55:55.000Z</time>
</trkpt>
<trkpt lat="46.1164640" lon="10.4857070">
	<ele>2019.40</ele>
	<time>2024-07-25T10:55:56.000Z</time>
</trkpt>
<trkpt lat="46.1164650" lon="10.4856920">
	<ele>2019.60</ele>
	<time>2024-07-25T10:55:57.000Z</time>
</trkpt>
<trkpt lat="46.1164630" lon="10.4856700">
	<ele>2019.60</ele>
	<time>2024-07-25T10:55:58.000Z</time>
</trkpt>
<trkpt lat="46.1164630" lon="10.4856510">
	<ele>2019.60</ele>
	<time>2024-07-25T10:55:59.000Z</time>
</trkpt>
<trkpt lat="46.1164650" lon="10.4856320">
	<ele>2019.60</ele>
	<time>2024-07-25T10:56:00.000Z</time>
</trkpt>
<trkpt lat="46.1164660" lon="10.4856160">
	<ele>2019.60</ele>
	<time>2024-07-25T10:56:01.000Z</time>
</trkpt>
<trkpt lat="46.1164680" lon="10.4855910">
	<ele>2019.40</ele>
	<time>2024-07-25T10:56:02.000Z</time>
</trkpt>
<trkpt lat="46.1164720" lon="10.4855670">
	<ele>2019.40</ele>
	<time>2024-07-25T10:56:03.000Z</time>
</trkpt>
<trkpt lat="46.1164740" lon="10.4855520">
	<ele>2019.40</ele>
	<time>2024-07-25T10:56:04.000Z</time>
</trkpt>
<trkpt lat="46.1164730" lon="10.4855290">
	<ele>2019.40</ele>
	<time>2024-07-25T10:56:05.000Z</time>
</trkpt>
<trkpt lat="46.1164710" lon="10.4855090">
	<ele>2019.40</ele>
	<time>2024-07-25T10:56:06.000Z</time>
</trkpt>
<trkpt lat="46.1164700" lon="10.4854970">
	<ele>2019.40</ele>
	<time>2024-07-25T10:56:07.000Z</time>
</trkpt>
<trkpt lat="46.1164650" lon="10.4854820">
	<ele>2019.20</ele>
	<time>2024-07-25T10:56:08.000Z</time>
</trkpt>
<trkpt lat="46.1164630" lon="10.4854660">
	<ele>2019.20</ele>
	<time>2024-07-25T10:56:09.000Z</time>
</trkpt>
<trkpt lat="46.1164650" lon="10.4854440">
	<ele>2019.00</ele>
	<time>2024-07-25T10:56:10.000Z</time>
</trkpt>
<trkpt lat="46.1164670" lon="10.4854240">
	<ele>2019.00</ele>
	<time>2024-07-25T10:56:11.000Z</time>
</trkpt>
<trkpt lat="46.1164640" lon="10.4854090">
	<ele>2019.00</ele>
	<time>2024-07-25T10:56:12.000Z</time>
</trkpt>
<trkpt lat="46.1164610" lon="10.4853890">
	<ele>2019.00</ele>
	<time>2024-07-25T10:56:13.000Z</time>
</trkpt>
<trkpt lat="46.1164610" lon="10.4853720">
	<ele>2019.00</ele>
	<time>2024-07-25T10:56:14.000Z</time>
</trkpt>
<trkpt lat="46.1164630" lon="10.4853530">
	<ele>2019.00</ele>
	<time>2024-07-25T10:56:15.000Z</time>
</trkpt>
<trkpt lat="46.1164670" lon="10.4853350">
	<ele>2019.20</ele>
	<time>2024-07-25T10:56:16.000Z</time>
</trkpt>
<trkpt lat="46.1164720" lon="10.4853150">
	<ele>2019.20</ele>
	<time>2024-07-25T10:56:17.000Z</time>
</trkpt>
<trkpt lat="46.1164750" lon="10.4853040">
	<ele>2019.20</ele>
	<time>2024-07-25T10:56:18.000Z</time>
</trkpt>
<trkpt lat="46.1164780" lon="10.4852890">
	<ele>2019.20</ele>
	<time>2024-07-25T10:56:19.000Z</time>
</trkpt>
<trkpt lat="46.1164830" lon="10.4852670">
	<ele>2019.00</ele>
	<time>2024-07-25T10:56:20.000Z</time>
</trkpt>
<trkpt lat="46.1164880" lon="10.4852460">
	<ele>2019.20</ele>
	<time>2024-07-25T10:56:21.000Z</time>
</trkpt>
<trkpt lat="46.1164930" lon="10.4852250">
	<ele>2019.20</ele>
	<time>2024-07-25T10:56:22.000Z</time>
</trkpt>
<trkpt lat="46.1164980" lon="10.4852050">
	<ele>2019.00</ele>
	<time>2024-07-25T10:56:23.000Z</time>
</trkpt>
<trkpt lat="46.1165040" lon="10.4851840">
	<ele>2019.00</ele>
	<time>2024-07-25T10:56:24.000Z</time>
</trkpt>
<trkpt lat="46.1165090" lon="10.4851650">
	<ele>2019.20</ele>
	<time>2024-07-25T10:56:25.000Z</time>
</trkpt>
<trkpt lat="46.1165150" lon="10.4851420">
	<ele>2019.20</ele>
	<time>2024-07-25T10:56:26.000Z</time>
</trkpt>
<trkpt lat="46.1165180" lon="10.4851250">
	<ele>2019.20</ele>
	<time>2024-07-25T10:56:27.000Z</time>
</trkpt>
<trkpt lat="46.1165210" lon="10.4851070">
	<ele>2019.20</ele>
	<time>2024-07-25T10:56:28.000Z</time>
</trkpt>
<trkpt lat="46.1165250" lon="10.4850920">
	<ele>2019.20</ele>
	<time>2024-07-25T10:56:29.000Z</time>
</trkpt>
<trkpt lat="46.1165330" lon="10.4850710">
	<ele>2019.20</ele>
	<time>2024-07-25T10:56:30.000Z</time>
</trkpt>
<trkpt lat="46.1165380" lon="10.4850550">
	<ele>2019.00</ele>
	<time>2024-07-25T10:56:31.000Z</time>
</trkpt>
<trkpt lat="46.1165400" lon="10.4850420">
	<ele>2019.00</ele>
	<time>2024-07-25T10:56:32.000Z</time>
</trkpt>
<trkpt lat="46.1165410" lon="10.4850250">
	<ele>2019.00</ele>
	<time>2024-07-25T10:56:33.000Z</time>
</trkpt>
<trkpt lat="46.1165420" lon="10.4850050">
	<ele>2019.00</ele>
	<time>2024-07-25T10:56:34.000Z</time>
</trkpt>
<trkpt lat="46.1165490" lon="10.4849870">
	<ele>2019.00</ele>
	<time>2024-07-25T10:56:35.000Z</time>
</trkpt>
<trkpt lat="46.1165590" lon="10.4849640">
	<ele>2019.00</ele>
	<time>2024-07-25T10:56:36.000Z</time>
</trkpt>
<trkpt lat="46.1165630" lon="10.4849400">
	<ele>2019.00</ele>
	<time>2024-07-25T10:56:37.000Z</time>
</trkpt>
<trkpt lat="46.1165660" lon="10.4849190">
	<ele>2019.00</ele>
	<time>2024-07-25T10:56:38.000Z</time>
</trkpt>
<trkpt lat="46.1165700" lon="10.4849010">
	<ele>2019.00</ele>
	<time>2024-07-25T10:56:39.000Z</time>
</trkpt>
<trkpt lat="46.1165730" lon="10.4848890">
	<ele>2019.00</ele>
	<time>2024-07-25T10:56:40.000Z</time>
</trkpt>
<trkpt lat="46.1165770" lon="10.4848740">
	<ele>2019.20</ele>
	<time>2024-07-25T10:56:41.000Z</time>
</trkpt>
<trkpt lat="46.1165830" lon="10.4848590">
	<ele>2019.20</ele>
	<time>2024-07-25T10:56:42.000Z</time>
</trkpt>
<trkpt lat="46.1165900" lon="10.4848420">
	<ele>2019.20</ele>
	<time>2024-07-25T10:56:43.000Z</time>
</trkpt>
<trkpt lat="46.1165950" lon="10.4848230">
	<ele>2019.20</ele>
	<time>2024-07-25T10:56:44.000Z</time>
</trkpt>
<trkpt lat="46.1166020" lon="10.4847980">
	<ele>2019.20</ele>
	<time>2024-07-25T10:56:45.000Z</time>
</trkpt>
<trkpt lat="46.1166090" lon="10.4847770">
	<ele>2019.20</ele>
	<time>2024-07-25T10:56:46.000Z</time>
</trkpt>
<trkpt lat="46.1166160" lon="10.4847550">
	<ele>2019.00</ele>
	<time>2024-07-25T10:56:47.000Z</time>
</trkpt>
<trkpt lat="46.1166200" lon="10.4847400">
	<ele>2018.80</ele>
	<time>2024-07-25T10:56:48.000Z</time>
</trkpt>
<trkpt lat="46.1166250" lon="10.4847230">
	<ele>2018.80</ele>
	<time>2024-07-25T10:56:49.000Z</time>
</trkpt>
<trkpt lat="46.1166320" lon="10.4847030">
	<ele>2018.60</ele>
	<time>2024-07-25T10:56:50.000Z</time>
</trkpt>
<trkpt lat="46.1166380" lon="10.4846830">
	<ele>2018.60</ele>
	<time>2024-07-25T10:56:51.000Z</time>
</trkpt>
<trkpt lat="46.1166440" lon="10.4846650">
	<ele>2018.60</ele>
	<time>2024-07-25T10:56:52.000Z</time>
</trkpt>
<trkpt lat="46.1166490" lon="10.4846470">
	<ele>2018.60</ele>
	<time>2024-07-25T10:56:53.000Z</time>
</trkpt>
<trkpt lat="46.1166540" lon="10.4846260">
	<ele>2018.40</ele>
	<time>2024-07-25T10:56:54.000Z</time>
</trkpt>
<trkpt lat="46.1166580" lon="10.4846040">
	<ele>2018.40</ele>
	<time>2024-07-25T10:56:55.000Z</time>
</trkpt>
<trkpt lat="46.1166620" lon="10.4845870">
	<ele>2018.40</ele>
	<time>2024-07-25T10:56:56.000Z</time>
</trkpt>
<trkpt lat="46.1166670" lon="10.4845590">
	<ele>2018.20</ele>
	<time>2024-07-25T10:56:57.000Z</time>
</trkpt>
<trkpt lat="46.1166680" lon="10.4845410">
	<ele>2018.20</ele>
	<time>2024-07-25T10:56:58.000Z</time>
</trkpt>
<trkpt lat="46.1166690" lon="10.4845210">
	<ele>2018.00</ele>
	<time>2024-07-25T10:56:59.000Z</time>
</trkpt>
<trkpt lat="46.1166680" lon="10.4845020">
	<ele>2018.00</ele>
	<time>2024-07-25T10:57:00.000Z</time>
</trkpt>
<trkpt lat="46.1166700" lon="10.4844810">
	<ele>2018.00</ele>
	<time>2024-07-25T10:57:01.000Z</time>
</trkpt>
<trkpt lat="46.1166750" lon="10.4844590">
	<ele>2018.00</ele>
	<time>2024-07-25T10:57:02.000Z</time>
</trkpt>
<trkpt lat="46.1166780" lon="10.4844380">
	<ele>2018.00</ele>
	<time>2024-07-25T10:57:03.000Z</time>
</trkpt>
<trkpt lat="46.1166750" lon="10.4844140">
	<ele>2018.00</ele>
	<time>2024-07-25T10:57:04.000Z</time>
</trkpt>
<trkpt lat="46.1166710" lon="10.4843950">
	<ele>2018.00</ele>
	<time>2024-07-25T10:57:05.000Z</time>
</trkpt>
<trkpt lat="46.1166690" lon="10.4843730">
	<ele>2018.00</ele>
	<time>2024-07-25T10:57:06.000Z</time>
</trkpt>
<trkpt lat="46.1166720" lon="10.4843530">
	<ele>2018.00</ele>
	<time>2024-07-25T10:57:07.000Z</time>
</trkpt>
<trkpt lat="46.1166730" lon="10.4843360">
	<ele>2018.00</ele>
	<time>2024-07-25T10:57:08.000Z</time>
</trkpt>
<trkpt lat="46.1166720" lon="10.4843190">
	<ele>2017.80</ele>
	<time>2024-07-25T10:57:09.000Z</time>
</trkpt>
<trkpt lat="46.1166720" lon="10.4842920">
	<ele>2017.80</ele>
	<time>2024-07-25T10:57:10.000Z</time>
</trkpt>
<trkpt lat="46.1166720" lon="10.4842690">
	<ele>2017.80</ele>
	<time>2024-07-25T10:57:11.000Z</time>
</trkpt>
<trkpt lat="46.1166700" lon="10.4842490">
	<ele>2017.80</ele>
	<time>2024-07-25T10:57:12.000Z</time>
</trkpt>
<trkpt lat="46.1166670" lon="10.4842290">
	<ele>2017.80</ele>
	<time>2024-07-25T10:57:13.000Z</time>
</trkpt>
<trkpt lat="46.1166650" lon="10.4842070">
	<ele>2017.80</ele>
	<time>2024-07-25T10:57:14.000Z</time>
</trkpt>
<trkpt lat="46.1166590" lon="10.4841830">
	<ele>2018.00</ele>
	<time>2024-07-25T10:57:15.000Z</time>
</trkpt>
<trkpt lat="46.1166550" lon="10.4841630">
	<ele>2018.00</ele>
	<time>2024-07-25T10:57:16.000Z</time>
</trkpt>
<trkpt lat="46.1166550" lon="10.4841460">
	<ele>2017.80</ele>
	<time>2024-07-25T10:57:17.000Z</time>
</trkpt>
<trkpt lat="46.1166530" lon="10.4841260">
	<ele>2017.80</ele>
	<time>2024-07-25T10:57:18.000Z</time>
</trkpt>
<trkpt lat="46.1166480" lon="10.4841110">
	<ele>2018.00</ele>
	<time>2024-07-25T10:57:19.000Z</time>
</trkpt>
<trkpt lat="46.1166410" lon="10.4840960">
	<ele>2017.80</ele>
	<time>2024-07-25T10:57:20.000Z</time>
</trkpt>
<trkpt lat="46.1166320" lon="10.4840810">
	<ele>2017.80</ele>
	<time>2024-07-25T10:57:21.000Z</time>
</trkpt>
<trkpt lat="46.1166240" lon="10.4840650">
	<ele>2017.80</ele>
	<time>2024-07-25T10:57:22.000Z</time>
</trkpt>
<trkpt lat="46.1166160" lon="10.4840470">
	<ele>2017.60</ele>
	<time>2024-07-25T10:57:23.000Z</time>
</trkpt>
<trkpt lat="46.1166120" lon="10.4840310">
	<ele>2017.60</ele>
	<time>2024-07-25T10:57:24.000Z</time>
</trkpt>
<trkpt lat="46.1166050" lon="10.4840140">
	<ele>2017.60</ele>
	<time>2024-07-25T10:57:25.000Z</time>
</trkpt>
<trkpt lat="46.1165980" lon="10.4839980">
	<ele>2017.60</ele>
	<time>2024-07-25T10:57:26.000Z</time>
</trkpt>
<trkpt lat="46.1165920" lon="10.4839830">
	<ele>2017.60</ele>
	<time>2024-07-25T10:57:27.000Z</time>
</trkpt>
<trkpt lat="46.1165860" lon="10.4839650">
	<ele>2017.60</ele>
	<time>2024-07-25T10:57:28.000Z</time>
</trkpt>
<trkpt lat="46.1165790" lon="10.4839460">
	<ele>2017.60</ele>
	<time>2024-07-25T10:57:29.000Z</time>
</trkpt>
<trkpt lat="46.1165690" lon="10.4839300">
	<ele>2017.60</ele>
	<time>2024-07-25T10:57:30.000Z</time>
</trkpt>
<trkpt lat="46.1165630" lon="10.4839140">
	<ele>2017.80</ele>
	<time>2024-07-25T10:57:31.000Z</time>
</trkpt>
<trkpt lat="46.1165540" lon="10.4839020">
	<ele>2017.80</ele>
	<time>2024-07-25T10:57:32.000Z</time>
</trkpt>
<trkpt lat="46.1165450" lon="10.4838880">
	<ele>2017.80</ele>
	<time>2024-07-25T10:57:33.000Z</time>
</trkpt>
<trkpt lat="46.1165360" lon="10.4838750">
	<ele>2017.60</ele>
	<time>2024-07-25T10:57:34.000Z</time>
</trkpt>
<trkpt lat="46.1165230" lon="10.4838580">
	<ele>2017.80</ele>
	<time>2024-07-25T10:57:35.000Z</time>
</trkpt>
<trkpt lat="46.1165130" lon="10.4838480">
	<ele>2017.80</ele>
	<time>2024-07-25T10:57:36.000Z</time>
</trkpt>
<trkpt lat="46.1165000" lon="10.4838400">
	<ele>2017.60</ele>
	<time>2024-07-25T10:57:37.000Z</time>
</trkpt>
<trkpt lat="46.1164860" lon="10.4838290">
	<ele>2017.60</ele>
	<time>2024-07-25T10:57:38.000Z</time>
</trkpt>
<trkpt lat="46.1164790" lon="10.4838100">
	<ele>2017.60</ele>
	<time>2024-07-25T10:57:39.000Z</time>
</trkpt>
<trkpt lat="46.1164670" lon="10.4837900">
	<ele>2017.60</ele>
	<time>2024-07-25T10:57:40.000Z</time>
</trkpt>
<trkpt lat="46.1164570" lon="10.4837780">
	<ele>2017.60</ele>
	<time>2024-07-25T10:57:41.000Z</time>
</trkpt>
<trkpt lat="46.1164470" lon="10.4837700">
	<ele>2017.60</ele>
	<time>2024-07-25T10:57:42.000Z</time>
</trkpt>
<trkpt lat="46.1164350" lon="10.4837660">
	<ele>2017.60</ele>
	<time>2024-07-25T10:57:43.000Z</time>
</trkpt>
<trkpt lat="46.1164230" lon="10.4837600">
	<ele>2017.60</ele>
	<time>2024-07-25T10:57:44.000Z</time>
</trkpt>
<trkpt lat="46.1164090" lon="10.4837510">
	<ele>2017.60</ele>
	<time>2024-07-25T10:57:45.000Z</time>
</trkpt>
<trkpt lat="46.1163950" lon="10.4837400">
	<ele>2017.60</ele>
	<time>2024-07-25T10:57:46.000Z</time>
</trkpt>
<trkpt lat="46.1163810" lon="10.4837270">
	<ele>2017.60</ele>
	<time>2024-07-25T10:57:47.000Z</time>
</trkpt>
<trkpt lat="46.1163690" lon="10.4837170">
	<ele>2017.60</ele>
	<time>2024-07-25T10:57:48.000Z</time>
</trkpt>
<trkpt lat="46.1163600" lon="10.4837030">
	<ele>2017.60</ele>
	<time>2024-07-25T10:57:49.000Z</time>
</trkpt>
<trkpt lat="46.1163530" lon="10.4836930">
	<ele>2017.60</ele>
	<time>2024-07-25T10:57:50.000Z</time>
</trkpt>
<trkpt lat="46.1163430" lon="10.4836790">
	<ele>2017.60</ele>
	<time>2024-07-25T10:57:51.000Z</time>
</trkpt>
<trkpt lat="46.1163290" lon="10.4836670">
	<ele>2017.40</ele>
	<time>2024-07-25T10:57:52.000Z</time>
</trkpt>
<trkpt lat="46.1163190" lon="10.4836530">
	<ele>2017.40</ele>
	<time>2024-07-25T10:57:53.000Z</time>
</trkpt>
<trkpt lat="46.1163100" lon="10.4836390">
	<ele>2017.40</ele>
	<time>2024-07-25T10:57:54.000Z</time>
</trkpt>
<trkpt lat="46.1163020" lon="10.4836250">
	<ele>2017.40</ele>
	<time>2024-07-25T10:57:55.000Z</time>
</trkpt>
<trkpt lat="46.1162910" lon="10.4836070">
	<ele>2017.80</ele>
	<time>2024-07-25T10:57:56.000Z</time>
</trkpt>
<trkpt lat="46.1162830" lon="10.4835920">
	<ele>2018.00</ele>
	<time>2024-07-25T10:57:57.000Z</time>
</trkpt>
<trkpt lat="46.1162750" lon="10.4835740">
	<ele>2018.20</ele>
	<time>2024-07-25T10:57:58.000Z</time>
</trkpt>
<trkpt lat="46.1162650" lon="10.4835570">
	<ele>2018.20</ele>
	<time>2024-07-25T10:57:59.000Z</time>
</trkpt>
<trkpt lat="46.1162570" lon="10.4835410">
	<ele>2018.20</ele>
	<time>2024-07-25T10:58:00.000Z</time>
</trkpt>
<trkpt lat="46.1162490" lon="10.4835120">
	<ele>2018.20</ele>
	<time>2024-07-25T10:58:01.000Z</time>
</trkpt>
<trkpt lat="46.1162430" lon="10.4834890">
	<ele>2018.20</ele>
	<time>2024-07-25T10:58:02.000Z</time>
</trkpt>
<trkpt lat="46.1162370" lon="10.4834730">
	<ele>2018.20</ele>
	<time>2024-07-25T10:58:03.000Z</time>
</trkpt>
<trkpt lat="46.1162310" lon="10.4834530">
	<ele>2018.20</ele>
	<time>2024-07-25T10:58:04.000Z</time>
</trkpt>
<trkpt lat="46.1162280" lon="10.4834340">
	<ele>2018.20</ele>
	<time>2024-07-25T10:58:05.000Z</time>
</trkpt>
<trkpt lat="46.1162250" lon="10.4834130">
	<ele>2018.20</ele>
	<time>2024-07-25T10:58:06.000Z</time>
</trkpt>
<trkpt lat="46.1162250" lon="10.4833920">
	<ele>2018.20</ele>
	<time>2024-07-25T10:58:07.000Z</time>
</trkpt>
<trkpt lat="46.1162220" lon="10.4833660">
	<ele>2018.00</ele>
	<time>2024-07-25T10:58:08.000Z</time>
</trkpt>
<trkpt lat="46.1162190" lon="10.4833420">
	<ele>2018.00</ele>
	<time>2024-07-25T10:58:09.000Z</time>
</trkpt>
<trkpt lat="46.1162180" lon="10.4833180">
	<ele>2017.80</ele>
	<time>2024-07-25T10:58:10.000Z</time>
</trkpt>
<trkpt lat="46.1162160" lon="10.4832950">
	<ele>2017.80</ele>
	<time>2024-07-25T10:58:11.000Z</time>
</trkpt>
<trkpt lat="46.1162160" lon="10.4832730">
	<ele>2017.60</ele>
	<time>2024-07-25T10:58:12.000Z</time>
</trkpt>
<trkpt lat="46.1162190" lon="10.4832540">
	<ele>2017.40</ele>
	<time>2024-07-25T10:58:13.000Z</time>
</trkpt>
<trkpt lat="46.1162210" lon="10.4832310">
	<ele>2017.40</ele>
	<time>2024-07-25T10:58:14.000Z</time>
</trkpt>
<trkpt lat="46.1162230" lon="10.4832100">
	<ele>2017.40</ele>
	<time>2024-07-25T10:58:15.000Z</time>
</trkpt>
<trkpt lat="46.1162280" lon="10.4831880">
	<ele>2017.40</ele>
	<time>2024-07-25T10:58:16.000Z</time>
</trkpt>
<trkpt lat="46.1162310" lon="10.4831650">
	<ele>2017.40</ele>
	<time>2024-07-25T10:58:17.000Z</time>
</trkpt>
<trkpt lat="46.1162300" lon="10.4831470">
	<ele>2017.40</ele>
	<time>2024-07-25T10:58:18.000Z</time>
</trkpt>
<trkpt lat="46.1162290" lon="10.4831260">
	<ele>2017.60</ele>
	<time>2024-07-25T10:58:19.000Z</time>
</trkpt>
<trkpt lat="46.1162270" lon="10.4831070">
	<ele>2017.60</ele>
	<time>2024-07-25T10:58:20.000Z</time>
</trkpt>
<trkpt lat="46.1162280" lon="10.4830900">
	<ele>2017.40</ele>
	<time>2024-07-25T10:58:21.000Z</time>
</trkpt>
<trkpt lat="46.1162280" lon="10.4830710">
	<ele>2017.40</ele>
	<time>2024-07-25T10:58:22.000Z</time>
</trkpt>
<trkpt lat="46.1162290" lon="10.4830410">
	<ele>2017.40</ele>
	<time>2024-07-25T10:58:23.000Z</time>
</trkpt>
<trkpt lat="46.1162270" lon="10.4830210">
	<ele>2017.40</ele>
	<time>2024-07-25T10:58:24.000Z</time>
</trkpt>
<trkpt lat="46.1162230" lon="10.4829980">
	<ele>2017.40</ele>
	<time>2024-07-25T10:58:25.000Z</time>
</trkpt>
<trkpt lat="46.1162220" lon="10.4829820">
	<ele>2017.40</ele>
	<time>2024-07-25T10:58:26.000Z</time>
</trkpt>
<trkpt lat="46.1162210" lon="10.4829650">
	<ele>2017.20</ele>
	<time>2024-07-25T10:58:27.000Z</time>
</trkpt>
<trkpt lat="46.1162210" lon="10.4829500">
	<ele>2017.20</ele>
	<time>2024-07-25T10:58:28.000Z</time>
</trkpt>
<trkpt lat="46.1162170" lon="10.4829300">
	<ele>2017.20</ele>
	<time>2024-07-25T10:58:29.000Z</time>
</trkpt>
<trkpt lat="46.1162160" lon="10.4829110">
	<ele>2017.00</ele>
	<time>2024-07-25T10:58:30.000Z</time>
</trkpt>
<trkpt lat="46.1162130" lon="10.4828900">
	<ele>2017.00</ele>
	<time>2024-07-25T10:58:31.000Z</time>
</trkpt>
<trkpt lat="46.1162100" lon="10.4828670">
	<ele>2017.00</ele>
	<time>2024-07-25T10:58:32.000Z</time>
</trkpt>
<trkpt lat="46.1162110" lon="10.4828400">
	<ele>2017.00</ele>
	<time>2024-07-25T10:58:33.000Z</time>
</trkpt>
<trkpt lat="46.1162090" lon="10.4828220">
	<ele>2017.00</ele>
	<time>2024-07-25T10:58:34.000Z</time>
</trkpt>
<trkpt lat="46.1162090" lon="10.4828050">
	<ele>2017.00</ele>
	<time>2024-07-25T10:58:35.000Z</time>
</trkpt>
<trkpt lat="46.1162130" lon="10.4827790">
	<ele>2016.80</ele>
	<time>2024-07-25T10:58:36.000Z</time>
</trkpt>
<trkpt lat="46.1162160" lon="10.4827550">
	<ele>2016.80</ele>
	<time>2024-07-25T10:58:37.000Z</time>
</trkpt>
<trkpt lat="46.1162180" lon="10.4827340">
	<ele>2016.80</ele>
	<time>2024-07-25T10:58:38.000Z</time>
</trkpt>
<trkpt lat="46.1162200" lon="10.4827130">
	<ele>2017.00</ele>
	<time>2024-07-25T10:58:39.000Z</time>
</trkpt>
<trkpt lat="46.1162200" lon="10.4826930">
	<ele>2016.80</ele>
	<time>2024-07-25T10:58:40.000Z</time>
</trkpt>
<trkpt lat="46.1162200" lon="10.4826730">
	<ele>2016.80</ele>
	<time>2024-07-25T10:58:41.000Z</time>
</trkpt>
<trkpt lat="46.1162190" lon="10.4826530">
	<ele>2016.80</ele>
	<time>2024-07-25T10:58:42.000Z</time>
</trkpt>
<trkpt lat="46.1162170" lon="10.4826330">
	<ele>2017.00</ele>
	<time>2024-07-25T10:58:43.000Z</time>
</trkpt>
<trkpt lat="46.1162150" lon="10.4826150">
	<ele>2017.00</ele>
	<time>2024-07-25T10:58:44.000Z</time>
</trkpt>
<trkpt lat="46.1162130" lon="10.4825960">
	<ele>2017.00</ele>
	<time>2024-07-25T10:58:45.000Z</time>
</trkpt>
<trkpt lat="46.1162090" lon="10.4825750">
	<ele>2017.00</ele>
	<time>2024-07-25T10:58:46.000Z</time>
</trkpt>
<trkpt lat="46.1162070" lon="10.4825560">
	<ele>2016.80</ele>
	<time>2024-07-25T10:58:47.000Z</time>
</trkpt>
<trkpt lat="46.1162060" lon="10.4825340">
	<ele>2016.80</ele>
	<time>2024-07-25T10:58:48.000Z</time>
</trkpt>
<trkpt lat="46.1162040" lon="10.4825130">
	<ele>2016.80</ele>
	<time>2024-07-25T10:58:49.000Z</time>
</trkpt>
<trkpt lat="46.1162010" lon="10.4824950">
	<ele>2016.80</ele>
	<time>2024-07-25T10:58:50.000Z</time>
</trkpt>
<trkpt lat="46.1161990" lon="10.4824760">
	<ele>2016.60</ele>
	<time>2024-07-25T10:58:51.000Z</time>
</trkpt>
<trkpt lat="46.1161960" lon="10.4824610">
	<ele>2016.60</ele>
	<time>2024-07-25T10:58:52.000Z</time>
</trkpt>
<trkpt lat="46.1161950" lon="10.4824430">
	<ele>2016.60</ele>
	<time>2024-07-25T10:58:53.000Z</time>
</trkpt>
<trkpt lat="46.1161940" lon="10.4824280">
	<ele>2016.40</ele>
	<time>2024-07-25T10:58:54.000Z</time>
</trkpt>
<trkpt lat="46.1161950" lon="10.4824050">
	<ele>2016.40</ele>
	<time>2024-07-25T10:58:55.000Z</time>
</trkpt>
<trkpt lat="46.1161950" lon="10.4823910">
	<ele>2016.40</ele>
	<time>2024-07-25T10:58:56.000Z</time>
</trkpt>
<trkpt lat="46.1161950" lon="10.4823760">
	<ele>2016.40</ele>
	<time>2024-07-25T10:58:57.000Z</time>
</trkpt>
<trkpt lat="46.1161940" lon="10.4823590">
	<ele>2016.40</ele>
	<time>2024-07-25T10:58:58.000Z</time>
</trkpt>
<trkpt lat="46.1161900" lon="10.4823390">
	<ele>2016.40</ele>
	<time>2024-07-25T10:58:59.000Z</time>
</trkpt>
<trkpt lat="46.1161900" lon="10.4823200">
	<ele>2016.40</ele>
	<time>2024-07-25T10:59:00.000Z</time>
</trkpt>
<trkpt lat="46.1161920" lon="10.4823060">
	<ele>2016.40</ele>
	<time>2024-07-25T10:59:01.000Z</time>
</trkpt>
<trkpt lat="46.1161900" lon="10.4822920">
	<ele>2016.40</ele>
	<time>2024-07-25T10:59:02.000Z</time>
</trkpt>
<trkpt lat="46.1161870" lon="10.4822800">
	<ele>2016.40</ele>
	<time>2024-07-25T10:59:03.000Z</time>
</trkpt>
<trkpt lat="46.1161880" lon="10.4822630">
	<ele>2016.40</ele>
	<time>2024-07-25T10:59:04.000Z</time>
</trkpt>
<trkpt lat="46.1161890" lon="10.4822380">
	<ele>2016.40</ele>
	<time>2024-07-25T10:59:05.000Z</time>
</trkpt>
<trkpt lat="46.1161870" lon="10.4822240">
	<ele>2016.40</ele>
	<time>2024-07-25T10:59:06.000Z</time>
</trkpt>
<trkpt lat="46.1161830" lon="10.4822030">
	<ele>2016.40</ele>
	<time>2024-07-25T10:59:07.000Z</time>
</trkpt>
<trkpt lat="46.1161770" lon="10.4821860">
	<ele>2016.40</ele>
	<time>2024-07-25T10:59:08.000Z</time>
</trkpt>
<trkpt lat="46.1161770" lon="10.4821700">
	<ele>2016.20</ele>
	<time>2024-07-25T10:59:09.000Z</time>
</trkpt>
<trkpt lat="46.1161790" lon="10.4821470">
	<ele>2016.20</ele>
	<time>2024-07-25T10:59:10.000Z</time>
</trkpt>
<trkpt lat="46.1161800" lon="10.4821270">
	<ele>2016.20</ele>
	<time>2024-07-25T10:59:11.000Z</time>
</trkpt>
<trkpt lat="46.1161790" lon="10.4821090">
	<ele>2016.20</ele>
	<time>2024-07-25T10:59:12.000Z</time>
</trkpt>
<trkpt lat="46.1161770" lon="10.4820960">
	<ele>2016.20</ele>
	<time>2024-07-25T10:59:13.000Z</time>
</trkpt>
<trkpt lat="46.1161720" lon="10.4820810">
	<ele>2016.20</ele>
	<time>2024-07-25T10:59:14.000Z</time>
</trkpt>
<trkpt lat="46.1161690" lon="10.4820630">
	<ele>2016.20</ele>
	<time>2024-07-25T10:59:15.000Z</time>
</trkpt>
<trkpt lat="46.1161680" lon="10.4820440">
	<ele>2016.20</ele>
	<time>2024-07-25T10:59:16.000Z</time>
</trkpt>
<trkpt lat="46.1161690" lon="10.4820220">
	<ele>2016.20</ele>
	<time>2024-07-25T10:59:17.000Z</time>
</trkpt>
<trkpt lat="46.1161690" lon="10.4820000">
	<ele>2016.20</ele>
	<time>2024-07-25T10:59:18.000Z</time>
</trkpt>
<trkpt lat="46.1161690" lon="10.4819780">
	<ele>2016.20</ele>
	<time>2024-07-25T10:59:19.000Z</time>
</trkpt>
<trkpt lat="46.1161690" lon="10.4819520">
	<ele>2016.20</ele>
	<time>2024-07-25T10:59:20.000Z</time>
</trkpt>
<trkpt lat="46.1161690" lon="10.4819330">
	<ele>2016.20</ele>
	<time>2024-07-25T10:59:21.000Z</time>
</trkpt>
<trkpt lat="46.1161700" lon="10.4819120">
	<ele>2016.20</ele>
	<time>2024-07-25T10:59:22.000Z</time>
</trkpt>
<trkpt lat="46.1161720" lon="10.4818930">
	<ele>2016.20</ele>
	<time>2024-07-25T10:59:23.000Z</time>
</trkpt>
<trkpt lat="46.1161680" lon="10.4818710">
	<ele>2016.20</ele>
	<time>2024-07-25T10:59:24.000Z</time>
</trkpt>
<trkpt lat="46.1161650" lon="10.4818530">
	<ele>2016.20</ele>
	<time>2024-07-25T10:59:25.000Z</time>
</trkpt>
<trkpt lat="46.1161610" lon="10.4818350">
	<ele>2016.20</ele>
	<time>2024-07-25T10:59:26.000Z</time>
</trkpt>
<trkpt lat="46.1161600" lon="10.4818150">
	<ele>2016.20</ele>
	<time>2024-07-25T10:59:27.000Z</time>
</trkpt>
<trkpt lat="46.1161590" lon="10.4817960">
	<ele>2016.00</ele>
	<time>2024-07-25T10:59:28.000Z</time>
</trkpt>
<trkpt lat="46.1161600" lon="10.4817780">
	<ele>2016.00</ele>
	<time>2024-07-25T10:59:29.000Z</time>
</trkpt>
<trkpt lat="46.1161580" lon="10.4817640">
	<ele>2016.00</ele>
	<time>2024-07-25T10:59:30.000Z</time>
</trkpt>
<trkpt lat="46.1161560" lon="10.4817460">
	<ele>2016.00</ele>
	<time>2024-07-25T10:59:31.000Z</time>
</trkpt>
<trkpt lat="46.1161510" lon="10.4817230">
	<ele>2016.00</ele>
	<time>2024-07-25T10:59:32.000Z</time>
</trkpt>
<trkpt lat="46.1161430" lon="10.4817020">
	<ele>2016.00</ele>
	<time>2024-07-25T10:59:33.000Z</time>
</trkpt>
<trkpt lat="46.1161360" lon="10.4816850">
	<ele>2016.00</ele>
	<time>2024-07-25T10:59:34.000Z</time>
</trkpt>
<trkpt lat="46.1161300" lon="10.4816640">
	<ele>2016.00</ele>
	<time>2024-07-25T10:59:35.000Z</time>
</trkpt>
<trkpt lat="46.1161230" lon="10.4816440">
	<ele>2016.00</ele>
	<time>2024-07-25T10:59:36.000Z</time>
</trkpt>
<trkpt lat="46.1161160" lon="10.4816230">
	<ele>2016.00</ele>
	<time>2024-07-25T10:59:37.000Z</time>
</trkpt>
<trkpt lat="46.1161090" lon="10.4816050">
	<ele>2016.00</ele>
	<time>2024-07-25T10:59:38.000Z</time>
</trkpt>
<trkpt lat="46.1161030" lon="10.4815890">
	<ele>2016.00</ele>
	<time>2024-07-25T10:59:39.000Z</time>
</trkpt>
<trkpt lat="46.1160980" lon="10.4815740">
	<ele>2016.00</ele>
	<time>2024-07-25T10:59:40.000Z</time>
</trkpt>
<trkpt lat="46.1160900" lon="10.4815600">
	<ele>2016.00</ele>
	<time>2024-07-25T10:59:41.000Z</time>
</trkpt>
<trkpt lat="46.1160780" lon="10.4815410">
	<ele>2016.00</ele>
	<time>2024-07-25T10:59:42.000Z</time>
</trkpt>
<trkpt lat="46.1160690" lon="10.4815270">
	<ele>2016.00</ele>
	<time>2024-07-25T10:59:43.000Z</time>
</trkpt>
<trkpt lat="46.1160600" lon="10.4815160">
	<ele>2016.00</ele>
	<time>2024-07-25T10:59:44.000Z</time>
</trkpt>
<trkpt lat="46.1160510" lon="10.4815030">
	<ele>2016.00</ele>
	<time>2024-07-25T10:59:45.000Z</time>
</trkpt>
<trkpt lat="46.1160420" lon="10.4814880">
	<ele>2015.80</ele>
	<time>2024-07-25T10:59:46.000Z</time>
</trkpt>
<trkpt lat="46.1160360" lon="10.4814780">
	<ele>2015.80</ele>
	<time>2024-07-25T10:59:47.000Z</time>
</trkpt>
<trkpt lat="46.1160260" lon="10.4814620">
	<ele>2015.80</ele>
	<time>2024-07-25T10:59:48.000Z</time>
</trkpt>
<trkpt lat="46.1160160" lon="10.4814520">
	<ele>2015.80</ele>
	<time>2024-07-25T10:59:49.000Z</time>
</trkpt>
<trkpt lat="46.1160030" lon="10.4814420">
	<ele>2015.80</ele>
	<time>2024-07-25T10:59:50.000Z</time>
</trkpt>
<trkpt lat="46.1159910" lon="10.4814280">
	<ele>2015.60</ele>
	<time>2024-07-25T10:59:51.000Z</time>
</trkpt>
<trkpt lat="46.1159780" lon="10.4814090">
	<ele>2015.60</ele>
	<time>2024-07-25T10:59:52.000Z</time>
</trkpt>
<trkpt lat="46.1159680" lon="10.4813960">
	<ele>2015.60</ele>
	<time>2024-07-25T10:59:53.000Z</time>
</trkpt>
<trkpt lat="46.1159580" lon="10.4813820">
	<ele>2015.60</ele>
	<time>2024-07-25T10:59:54.000Z</time>
</trkpt>
<trkpt lat="46.1159490" lon="10.4813730">
	<ele>2015.60</ele>
	<time>2024-07-25T10:59:55.000Z</time>
</trkpt>
<trkpt lat="46.1159390" lon="10.4813520">
	<ele>2015.60</ele>
	<time>2024-07-25T10:59:56.000Z</time>
</trkpt>
<trkpt lat="46.1159270" lon="10.4813320">
	<ele>2015.60</ele>
	<time>2024-07-25T10:59:57.000Z</time>
</trkpt>
<trkpt lat="46.1159160" lon="10.4813190">
	<ele>2015.60</ele>
	<time>2024-07-25T10:59:58.000Z</time>
</trkpt>
<trkpt lat="46.1159030" lon="10.4813070">
	<ele>2015.60</ele>
	<time>2024-07-25T10:59:59.000Z</time>
</trkpt>
<trkpt lat="46.1158900" lon="10.4812950">
	<ele>2015.60</ele>
	<time>2024-07-25T11:00:00.000Z</time>
</trkpt>
<trkpt lat="46.1158850" lon="10.4812870">
	<ele>2015.80</ele>
	<time>2024-07-25T11:00:01.000Z</time>
</trkpt>
<trkpt lat="46.1158720" lon="10.4812780">
	<ele>2015.80</ele>
	<time>2024-07-25T11:00:02.000Z</time>
</trkpt>
<trkpt lat="46.1158630" lon="10.4812770">
	<ele>2015.80</ele>
	<time>2024-07-25T11:00:03.000Z</time>
</trkpt>
<trkpt lat="46.1158520" lon="10.4812630">
	<ele>2015.80</ele>
	<time>2024-07-25T11:00:04.000Z</time>
</trkpt>
<trkpt lat="46.1158450" lon="10.4812410">
	<ele>2015.60</ele>
	<time>2024-07-25T11:00:05.000Z</time>
</trkpt>
<trkpt lat="46.1158390" lon="10.4812200">
	<ele>2015.60</ele>
	<time>2024-07-25T11:00:06.000Z</time>
</trkpt>
<trkpt lat="46.1158350" lon="10.4811990">
	<ele>2015.40</ele>
	<time>2024-07-25T11:00:07.000Z</time>
</trkpt>
<trkpt lat="46.1158310" lon="10.4811800">
	<ele>2015.20</ele>
	<time>2024-07-25T11:00:08.000Z</time>
</trkpt>
<trkpt lat="46.1158270" lon="10.4811620">
	<ele>2015.00</ele>
	<time>2024-07-25T11:00:09.000Z</time>
</trkpt>
<trkpt lat="46.1158230" lon="10.4811390">
	<ele>2014.80</ele>
	<time>2024-07-25T11:00:10.000Z</time>
</trkpt>
<trkpt lat="46.1158160" lon="10.4811140">
	<ele>2014.60</ele>
	<time>2024-07-25T11:00:11.000Z</time>
</trkpt>
<trkpt lat="46.1158120" lon="10.4810880">
	<ele>2014.40</ele>
	<time>2024-07-25T11:00:12.000Z</time>
</trkpt>
<trkpt lat="46.1158090" lon="10.4810650">
	<ele>2014.20</ele>
	<time>2024-07-25T11:00:13.000Z</time>
</trkpt>
<trkpt lat="46.1158030" lon="10.4810360">
	<ele>2014.20</ele>
	<time>2024-07-25T11:00:14.000Z</time>
</trkpt>
<trkpt lat="46.1158000" lon="10.4810120">
	<ele>2014.20</ele>
	<time>2024-07-25T11:00:15.000Z</time>
</trkpt>
<trkpt lat="46.1157950" lon="10.4809890">
	<ele>2014.20</ele>
	<time>2024-07-25T11:00:16.000Z</time>
</trkpt>
<trkpt lat="46.1157880" lon="10.4809660">
	<ele>2014.20</ele>
	<time>2024-07-25T11:00:17.000Z</time>
</trkpt>
<trkpt lat="46.1157830" lon="10.4809480">
	<ele>2014.20</ele>
	<time>2024-07-25T11:00:18.000Z</time>
</trkpt>
<trkpt lat="46.1157740" lon="10.4809330">
	<ele>2014.20</ele>
	<time>2024-07-25T11:00:19.000Z</time>
</trkpt>
<trkpt lat="46.1157610" lon="10.4809220">
	<ele>2014.20</ele>
	<time>2024-07-25T11:00:20.000Z</time>
</trkpt>
<trkpt lat="46.1157460" lon="10.4809060">
	<ele>2014.20</ele>
	<time>2024-07-25T11:00:21.000Z</time>
</trkpt>
<trkpt lat="46.1157350" lon="10.4808880">
	<ele>2014.20</ele>
	<time>2024-07-25T11:00:22.000Z</time>
</trkpt>
<trkpt lat="46.1157290" lon="10.4808680">
	<ele>2014.20</ele>
	<time>2024-07-25T11:00:23.000Z</time>
</trkpt>
<trkpt lat="46.1157250" lon="10.4808490">
	<ele>2014.20</ele>
	<time>2024-07-25T11:00:24.000Z</time>
</trkpt>
<trkpt lat="46.1157190" lon="10.4808320">
	<ele>2014.20</ele>
	<time>2024-07-25T11:00:25.000Z</time>
</trkpt>
<trkpt lat="46.1157110" lon="10.4808200">
	<ele>2014.20</ele>
	<time>2024-07-25T11:00:26.000Z</time>
</trkpt>
<trkpt lat="46.1157030" lon="10.4808070">
	<ele>2014.40</ele>
	<time>2024-07-25T11:00:27.000Z</time>
</trkpt>
<trkpt lat="46.1156960" lon="10.4807950">
	<ele>2014.40</ele>
	<time>2024-07-25T11:00:28.000Z</time>
</trkpt>
<trkpt lat="46.1156920" lon="10.4807830">
	<ele>2014.60</ele>
	<time>2024-07-25T11:00:29.000Z</time>
</trkpt>
<trkpt lat="46.1156860" lon="10.4807640">
	<ele>2014.60</ele>
	<time>2024-07-25T11:00:30.000Z</time>
</trkpt>
<trkpt lat="46.1156780" lon="10.4807420">
	<ele>2014.60</ele>
	<time>2024-07-25T11:00:31.000Z</time>
</trkpt>
<trkpt lat="46.1156700" lon="10.4807240">
	<ele>2014.60</ele>
	<time>2024-07-25T11:00:32.000Z</time>
</trkpt>
<trkpt lat="46.1156640" lon="10.4807090">
	<ele>2014.60</ele>
	<time>2024-07-25T11:00:33.000Z</time>
</trkpt>
<trkpt lat="46.1156580" lon="10.4806910">
	<ele>2014.80</ele>
	<time>2024-07-25T11:00:34.000Z</time>
</trkpt>
<trkpt lat="46.1156490" lon="10.4806720">
	<ele>2014.80</ele>
	<time>2024-07-25T11:00:35.000Z</time>
</trkpt>
<trkpt lat="46.1156420" lon="10.4806560">
	<ele>2014.80</ele>
	<time>2024-07-25T11:00:36.000Z</time>
</trkpt>
<trkpt lat="46.1156350" lon="10.4806410">
	<ele>2014.80</ele>
	<time>2024-07-25T11:00:37.000Z</time>
</trkpt>
<trkpt lat="46.1156270" lon="10.4806210">
	<ele>2014.80</ele>
	<time>2024-07-25T11:00:38.000Z</time>
</trkpt>
<trkpt lat="46.1156200" lon="10.4806070">
	<ele>2014.80</ele>
	<time>2024-07-25T11:00:39.000Z</time>
</trkpt>
<trkpt lat="46.1156160" lon="10.4805910">
	<ele>2014.80</ele>
	<time>2024-07-25T11:00:40.000Z</time>
</trkpt>
<trkpt lat="46.1156150" lon="10.4805740">
	<ele>2015.00</ele>
	<time>2024-07-25T11:00:41.000Z</time>
</trkpt>
<trkpt lat="46.1156130" lon="10.4805570">
	<ele>2015.20</ele>
	<time>2024-07-25T11:00:42.000Z</time>
</trkpt>
<trkpt lat="46.1156110" lon="10.4805390">
	<ele>2015.40</ele>
	<time>2024-07-25T11:00:43.000Z</time>
</trkpt>
<trkpt lat="46.1156120" lon="10.4805220">
	<ele>2015.40</ele>
	<time>2024-07-25T11:00:44.000Z</time>
</trkpt>
<trkpt lat="46.1156150" lon="10.4805040">
	<ele>2015.60</ele>
	<time>2024-07-25T11:00:45.000Z</time>
</trkpt>
<trkpt lat="46.1156150" lon="10.4804910">
	<ele>2015.60</ele>
	<time>2024-07-25T11:00:46.000Z</time>
</trkpt>
<trkpt lat="46.1156170" lon="10.4804780">
	<ele>2015.80</ele>
	<time>2024-07-25T11:00:47.000Z</time>
</trkpt>
<trkpt lat="46.1156200" lon="10.4804610">
	<ele>2015.60</ele>
	<time>2024-07-25T11:00:48.000Z</time>
</trkpt>
<trkpt lat="46.1156230" lon="10.4804450">
	<ele>2015.80</ele>
	<time>2024-07-25T11:00:49.000Z</time>
</trkpt>
<trkpt lat="46.1156240" lon="10.4804320">
	<ele>2015.80</ele>
	<time>2024-07-25T11:00:50.000Z</time>
</trkpt>
<trkpt lat="46.1156250" lon="10.4804150">
	<ele>2015.60</ele>
	<time>2024-07-25T11:00:51.000Z</time>
</trkpt>
<trkpt lat="46.1156270" lon="10.4804020">
	<ele>2015.60</ele>
	<time>2024-07-25T11:00:52.000Z</time>
</trkpt>
<trkpt lat="46.1156310" lon="10.4803880">
	<ele>2015.60</ele>
	<time>2024-07-25T11:00:53.000Z</time>
</trkpt>
<trkpt lat="46.1156330" lon="10.4803670">
	<ele>2015.80</ele>
	<time>2024-07-25T11:00:54.000Z</time>
</trkpt>
<trkpt lat="46.1156330" lon="10.4803480">
	<ele>2015.80</ele>
	<time>2024-07-25T11:00:55.000Z</time>
</trkpt>
<trkpt lat="46.1156330" lon="10.4803310">
	<ele>2015.80</ele>
	<time>2024-07-25T11:00:56.000Z</time>
</trkpt>
<trkpt lat="46.1156330" lon="10.4803170">
	<ele>2015.80</ele>
	<time>2024-07-25T11:00:57.000Z</time>
</trkpt>
<trkpt lat="46.1156320" lon="10.4803000">
	<ele>2016.00</ele>
	<time>2024-07-25T11:00:58.000Z</time>
</trkpt>
<trkpt lat="46.1156340" lon="10.4802820">
	<ele>2016.00</ele>
	<time>2024-07-25T11:00:59.000Z</time>
</trkpt>
<trkpt lat="46.1156380" lon="10.4802590">
	<ele>2016.00</ele>
	<time>2024-07-25T11:01:00.000Z</time>
</trkpt>
<trkpt lat="46.1156390" lon="10.4802370">
	<ele>2016.00</ele>
	<time>2024-07-25T11:01:01.000Z</time>
</trkpt>
<trkpt lat="46.1156360" lon="10.4802160">
	<ele>2016.20</ele>
	<time>2024-07-25T11:01:02.000Z</time>
</trkpt>
<trkpt lat="46.1156350" lon="10.4802010">
	<ele>2016.20</ele>
	<time>2024-07-25T11:01:03.000Z</time>
</trkpt>
<trkpt lat="46.1156320" lon="10.4801820">
	<ele>2016.20</ele>
	<time>2024-07-25T11:01:04.000Z</time>
</trkpt>
<trkpt lat="46.1156290" lon="10.4801650">
	<ele>2016.20</ele>
	<time>2024-07-25T11:01:05.000Z</time>
</trkpt>
<trkpt lat="46.1156270" lon="10.4801480">
	<ele>2016.40</ele>
	<time>2024-07-25T11:01:06.000Z</time>
</trkpt>
<trkpt lat="46.1156280" lon="10.4801300">
	<ele>2016.40</ele>
	<time>2024-07-25T11:01:07.000Z</time>
</trkpt>
<trkpt lat="46.1156320" lon="10.4801080">
	<ele>2016.60</ele>
	<time>2024-07-25T11:01:08.000Z</time>
</trkpt>
<trkpt lat="46.1156340" lon="10.4800870">
	<ele>2016.60</ele>
	<time>2024-07-25T11:01:09.000Z</time>
</trkpt>
<trkpt lat="46.1156360" lon="10.4800660">
	<ele>2016.40</ele>
	<time>2024-07-25T11:01:10.000Z</time>
</trkpt>
<trkpt lat="46.1156390" lon="10.4800470">
	<ele>2016.40</ele>
	<time>2024-07-25T11:01:11.000Z</time>
</trkpt>
<trkpt lat="46.1156400" lon="10.4800260">
	<ele>2016.40</ele>
	<time>2024-07-25T11:01:12.000Z</time>
</trkpt>
<trkpt lat="46.1156380" lon="10.4800080">
	<ele>2016.40</ele>
	<time>2024-07-25T11:01:13.000Z</time>
</trkpt>
<trkpt lat="46.1156330" lon="10.4799910">
	<ele>2016.40</ele>
	<time>2024-07-25T11:01:14.000Z</time>
</trkpt>
<trkpt lat="46.1156260" lon="10.4799760">
	<ele>2016.40</ele>
	<time>2024-07-25T11:01:15.000Z</time>
</trkpt>
<trkpt lat="46.1156200" lon="10.4799610">
	<ele>2016.40</ele>
	<time>2024-07-25T11:01:16.000Z</time>
</trkpt>
<trkpt lat="46.1156170" lon="10.4799420">
	<ele>2016.60</ele>
	<time>2024-07-25T11:01:17.000Z</time>
</trkpt>
<trkpt lat="46.1156150" lon="10.4799180">
	<ele>2016.60</ele>
	<time>2024-07-25T11:01:18.000Z</time>
</trkpt>
<trkpt lat="46.1156110" lon="10.4798950">
	<ele>2016.60</ele>
	<time>2024-07-25T11:01:19.000Z</time>
</trkpt>
<trkpt lat="46.1156050" lon="10.4798750">
	<ele>2016.60</ele>
	<time>2024-07-25T11:01:20.000Z</time>
</trkpt>
<trkpt lat="46.1155990" lon="10.4798540">
	<ele>2016.80</ele>
	<time>2024-07-25T11:01:21.000Z</time>
</trkpt>
<trkpt lat="46.1155910" lon="10.4798340">
	<ele>2016.80</ele>
	<time>2024-07-25T11:01:22.000Z</time>
</trkpt>
<trkpt lat="46.1155840" lon="10.4798150">
	<ele>2016.80</ele>
	<time>2024-07-25T11:01:23.000Z</time>
</trkpt>
<trkpt lat="46.1155780" lon="10.4797960">
	<ele>2016.80</ele>
	<time>2024-07-25T11:01:24.000Z</time>
</trkpt>
<trkpt lat="46.1155730" lon="10.4797760">
	<ele>2016.80</ele>
	<time>2024-07-25T11:01:25.000Z</time>
</trkpt>
<trkpt lat="46.1155680" lon="10.4797590">
	<ele>2016.60</ele>
	<time>2024-07-25T11:01:26.000Z</time>
</trkpt>
<trkpt lat="46.1155620" lon="10.4797410">
	<ele>2016.60</ele>
	<time>2024-07-25T11:01:27.000Z</time>
</trkpt>
<trkpt lat="46.1155540" lon="10.4797200">
	<ele>2016.40</ele>
	<time>2024-07-25T11:01:28.000Z</time>
</trkpt>
<trkpt lat="46.1155470" lon="10.4797010">
	<ele>2016.20</ele>
	<time>2024-07-25T11:01:29.000Z</time>
</trkpt>
<trkpt lat="46.1155430" lon="10.4796850">
	<ele>2016.00</ele>
	<time>2024-07-25T11:01:30.000Z</time>
</trkpt>
<trkpt lat="46.1155430" lon="10.4796680">
	<ele>2015.60</ele>
	<time>2024-07-25T11:01:31.000Z</time>
</trkpt>
<trkpt lat="46.1155440" lon="10.4796520">
	<ele>2015.40</ele>
	<time>2024-07-25T11:01:32.000Z</time>
</trkpt>
<trkpt lat="46.1155440" lon="10.4796310">
	<ele>2015.00</ele>
	<time>2024-07-25T11:01:33.000Z</time>
</trkpt>
<trkpt lat="46.1155440" lon="10.4796080">
	<ele>2014.80</ele>
	<time>2024-07-25T11:01:34.000Z</time>
</trkpt>
<trkpt lat="46.1155440" lon="10.4795920">
	<ele>2014.80</ele>
	<time>2024-07-25T11:01:35.000Z</time>
</trkpt>
<trkpt lat="46.1155390" lon="10.4795760">
	<ele>2014.60</ele>
	<time>2024-07-25T11:01:36.000Z</time>
</trkpt>
<trkpt lat="46.1155360" lon="10.4795620">
	<ele>2014.40</ele>
	<time>2024-07-25T11:01:37.000Z</time>
</trkpt>
<trkpt lat="46.1155350" lon="10.4795470">
	<ele>2014.40</ele>
	<time>2024-07-25T11:01:38.000Z</time>
</trkpt>
<trkpt lat="46.1155330" lon="10.4795330">
	<ele>2014.20</ele>
	<time>2024-07-25T11:01:39.000Z</time>
</trkpt>
<trkpt lat="46.1155290" lon="10.4795160">
	<ele>2014.00</ele>
	<time>2024-07-25T11:01:40.000Z</time>
</trkpt>
<trkpt lat="46.1155240" lon="10.4795030">
	<ele>2014.00</ele>
	<time>2024-07-25T11:01:41.000Z</time>
</trkpt>
<trkpt lat="46.1155160" lon="10.4794840">
	<ele>2013.80</ele>
	<time>2024-07-25T11:01:42.000Z</time>
</trkpt>
<trkpt lat="46.1155100" lon="10.4794710">
	<ele>2013.60</ele>
	<time>2024-07-25T11:01:43.000Z</time>
</trkpt>
<trkpt lat="46.1155060" lon="10.4794560">
	<ele>2013.60</ele>
	<time>2024-07-25T11:01:44.000Z</time>
</trkpt>
<trkpt lat="46.1155020" lon="10.4794390">
	<ele>2013.60</ele>
	<time>2024-07-25T11:01:45.000Z</time>
</trkpt>
<trkpt lat="46.1154960" lon="10.4794240">
	<ele>2013.40</ele>
	<time>2024-07-25T11:01:46.000Z</time>
</trkpt>
<trkpt lat="46.1154870" lon="10.4794080">
	<ele>2013.40</ele>
	<time>2024-07-25T11:01:47.000Z</time>
</trkpt>
<trkpt lat="46.1154760" lon="10.4793950">
	<ele>2013.40</ele>
	<time>2024-07-25T11:01:48.000Z</time>
</trkpt>
<trkpt lat="46.1154650" lon="10.4793810">
	<ele>2013.20</ele>
	<time>2024-07-25T11:01:49.000Z</time>
</trkpt>
<trkpt lat="46.1154590" lon="10.4793680">
	<ele>2013.20</ele>
	<time>2024-07-25T11:01:50.000Z</time>
</trkpt>
<trkpt lat="46.1154530" lon="10.4793530">
	<ele>2013.00</ele>
	<time>2024-07-25T11:01:51.000Z</time>
</trkpt>
<trkpt lat="46.1154450" lon="10.4793400">
	<ele>2013.00</ele>
	<time>2024-07-25T11:01:52.000Z</time>
</trkpt>
<trkpt lat="46.1154380" lon="10.4793290">
	<ele>2013.00</ele>
	<time>2024-07-25T11:01:53.000Z</time>
</trkpt>
<trkpt lat="46.1154300" lon="10.4793180">
	<ele>2013.00</ele>
	<time>2024-07-25T11:01:54.000Z</time>
</trkpt>
<trkpt lat="46.1154240" lon="10.4793000">
	<ele>2013.00</ele>
	<time>2024-07-25T11:01:55.000Z</time>
</trkpt>
<trkpt lat="46.1154210" lon="10.4792840">
	<ele>2013.20</ele>
	<time>2024-07-25T11:01:56.000Z</time>
</trkpt>
<trkpt lat="46.1154170" lon="10.4792700">
	<ele>2013.20</ele>
	<time>2024-07-25T11:01:57.000Z</time>
</trkpt>
<trkpt lat="46.1154130" lon="10.4792520">
	<ele>2013.40</ele>
	<time>2024-07-25T11:01:58.000Z</time>
</trkpt>
<trkpt lat="46.1154100" lon="10.4792360">
	<ele>2013.40</ele>
	<time>2024-07-25T11:01:59.000Z</time>
</trkpt>
<trkpt lat="46.1154060" lon="10.4792230">
	<ele>2013.60</ele>
	<time>2024-07-25T11:02:00.000Z</time>
</trkpt>
<trkpt lat="46.1154000" lon="10.4792090">
	<ele>2013.80</ele>
	<time>2024-07-25T11:02:01.000Z</time>
</trkpt>
<trkpt lat="46.1153970" lon="10.4791940">
	<ele>2014.00</ele>
	<time>2024-07-25T11:02:02.000Z</time>
</trkpt>
<trkpt lat="46.1153940" lon="10.4791780">
	<ele>2014.00</ele>
	<time>2024-07-25T11:02:03.000Z</time>
</trkpt>
<trkpt lat="46.1153910" lon="10.4791630">
	<ele>2014.20</ele>
	<time>2024-07-25T11:02:04.000Z</time>
</trkpt>
<trkpt lat="46.1153880" lon="10.4791450">
	<ele>2014.20</ele>
	<time>2024-07-25T11:02:05.000Z</time>
</trkpt>
<trkpt lat="46.1153840" lon="10.4791290">
	<ele>2014.40</ele>
	<time>2024-07-25T11:02:06.000Z</time>
</trkpt>
<trkpt lat="46.1153790" lon="10.4791150">
	<ele>2014.40</ele>
	<time>2024-07-25T11:02:07.000Z</time>
</trkpt>
<trkpt lat="46.1153740" lon="10.4791000">
	<ele>2014.40</ele>
	<time>2024-07-25T11:02:08.000Z</time>
</trkpt>
<trkpt lat="46.1153710" lon="10.4790870">
	<ele>2014.60</ele>
	<time>2024-07-25T11:02:09.000Z</time>
</trkpt>
<trkpt lat="46.1153670" lon="10.4790640">
	<ele>2014.60</ele>
	<time>2024-07-25T11:02:10.000Z</time>
</trkpt>
<trkpt lat="46.1153610" lon="10.4790470">
	<ele>2014.80</ele>
	<time>2024-07-25T11:02:11.000Z</time>
</trkpt>
<trkpt lat="46.1153570" lon="10.4790290">
	<ele>2014.80</ele>
	<time>2024-07-25T11:02:12.000Z</time>
</trkpt>
<trkpt lat="46.1153500" lon="10.4790060">
	<ele>2014.80</ele>
	<time>2024-07-25T11:02:13.000Z</time>
</trkpt>
<trkpt lat="46.1153430" lon="10.4789860">
	<ele>2014.80</ele>
	<time>2024-07-25T11:02:14.000Z</time>
</trkpt>
<trkpt lat="46.1153370" lon="10.4789700">
	<ele>2014.80</ele>
	<time>2024-07-25T11:02:15.000Z</time>
</trkpt>
<trkpt lat="46.1153300" lon="10.4789560">
	<ele>2014.80</ele>
	<time>2024-07-25T11:02:16.000Z</time>
</trkpt>
<trkpt lat="46.1153230" lon="10.4789460">
	<ele>2014.80</ele>
	<time>2024-07-25T11:02:17.000Z</time>
</trkpt>
<trkpt lat="46.1153100" lon="10.4789310">
	<ele>2014.80</ele>
	<time>2024-07-25T11:02:18.000Z</time>
</trkpt>
<trkpt lat="46.1153010" lon="10.4789210">
	<ele>2014.80</ele>
	<time>2024-07-25T11:02:19.000Z</time>
</trkpt>
<trkpt lat="46.1152910" lon="10.4789070">
	<ele>2014.80</ele>
	<time>2024-07-25T11:02:20.000Z</time>
</trkpt>
<trkpt lat="46.1152770" lon="10.4788900">
	<ele>2014.80</ele>
	<time>2024-07-25T11:02:21.000Z</time>
</trkpt>
<trkpt lat="46.1152680" lon="10.4788720">
	<ele>2014.80</ele>
	<time>2024-07-25T11:02:22.000Z</time>
</trkpt>
<trkpt lat="46.1152600" lon="10.4788530">
	<ele>2014.80</ele>
	<time>2024-07-25T11:02:23.000Z</time>
</trkpt>
<trkpt lat="46.1152540" lon="10.4788340">
	<ele>2014.80</ele>
	<time>2024-07-25T11:02:24.000Z</time>
</trkpt>
<trkpt lat="46.1152470" lon="10.4788160">
	<ele>2014.80</ele>
	<time>2024-07-25T11:02:25.000Z</time>
</trkpt>
<trkpt lat="46.1152420" lon="10.4787960">
	<ele>2014.80</ele>
	<time>2024-07-25T11:02:26.000Z</time>
</trkpt>
<trkpt lat="46.1152380" lon="10.4787780">
	<ele>2014.80</ele>
	<time>2024-07-25T11:02:27.000Z</time>
</trkpt>
<trkpt lat="46.1152320" lon="10.4787630">
	<ele>2014.80</ele>
	<time>2024-07-25T11:02:28.000Z</time>
</trkpt>
<trkpt lat="46.1152240" lon="10.4787450">
	<ele>2014.80</ele>
	<time>2024-07-25T11:02:29.000Z</time>
</trkpt>
<trkpt lat="46.1152170" lon="10.4787280">
	<ele>2014.60</ele>
	<time>2024-07-25T11:02:30.000Z</time>
</trkpt>
<trkpt lat="46.1152090" lon="10.4787100">
	<ele>2014.60</ele>
	<time>2024-07-25T11:02:31.000Z</time>
</trkpt>
<trkpt lat="46.1152010" lon="10.4786920">
	<ele>2014.60</ele>
	<time>2024-07-25T11:02:32.000Z</time>
</trkpt>
<trkpt lat="46.1151950" lon="10.4786750">
	<ele>2014.60</ele>
	<time>2024-07-25T11:02:33.000Z</time>
</trkpt>
<trkpt lat="46.1151920" lon="10.4786590">
	<ele>2014.60</ele>
	<time>2024-07-25T11:02:34.000Z</time>
</trkpt>
<trkpt lat="46.1151860" lon="10.4786390">
	<ele>2014.60</ele>
	<time>2024-07-25T11:02:35.000Z</time>
</trkpt>
<trkpt lat="46.1151810" lon="10.4786160">
	<ele>2014.60</ele>
	<time>2024-07-25T11:02:36.000Z</time>
</trkpt>
<trkpt lat="46.1151750" lon="10.4785960">
	<ele>2014.40</ele>
	<time>2024-07-25T11:02:37.000Z</time>
</trkpt>
<trkpt lat="46.1151720" lon="10.4785750">
	<ele>2014.40</ele>
	<time>2024-07-25T11:02:38.000Z</time>
</trkpt>
<trkpt lat="46.1151680" lon="10.4785590">
	<ele>2014.40</ele>
	<time>2024-07-25T11:02:39.000Z</time>
</trkpt>
<trkpt lat="46.1151630" lon="10.4785420">
	<ele>2014.40</ele>
	<time>2024-07-25T11:02:40.000Z</time>
</trkpt>
<trkpt lat="46.1151570" lon="10.4785250">
	<ele>2014.40</ele>
	<time>2024-07-25T11:02:41.000Z</time>
</trkpt>
<trkpt lat="46.1151500" lon="10.4785080">
	<ele>2014.20</ele>
	<time>2024-07-25T11:02:42.000Z</time>
</trkpt>
<trkpt lat="46.1151430" lon="10.4784890">
	<ele>2014.20</ele>
	<time>2024-07-25T11:02:43.000Z</time>
</trkpt>
<trkpt lat="46.1151380" lon="10.4784710">
	<ele>2014.20</ele>
	<time>2024-07-25T11:02:44.000Z</time>
</trkpt>
<trkpt lat="46.1151330" lon="10.4784550">
	<ele>2014.00</ele>
	<time>2024-07-25T11:02:45.000Z</time>
</trkpt>
<trkpt lat="46.1151250" lon="10.4784380">
	<ele>2014.00</ele>
	<time>2024-07-25T11:02:46.000Z</time>
</trkpt>
<trkpt lat="46.1151160" lon="10.4784190">
	<ele>2014.00</ele>
	<time>2024-07-25T11:02:47.000Z</time>
</trkpt>
<trkpt lat="46.1151060" lon="10.4784030">
	<ele>2013.80</ele>
	<time>2024-07-25T11:02:48.000Z</time>
</trkpt>
<trkpt lat="46.1150970" lon="10.4783860">
	<ele>2013.80</ele>
	<time>2024-07-25T11:02:49.000Z</time>
</trkpt>
<trkpt lat="46.1150890" lon="10.4783670">
	<ele>2013.80</ele>
	<time>2024-07-25T11:02:50.000Z</time>
</trkpt>
<trkpt lat="46.1150810" lon="10.4783480">
	<ele>2013.80</ele>
	<time>2024-07-25T11:02:51.000Z</time>
</trkpt>
<trkpt lat="46.1150730" lon="10.4783300">
	<ele>2013.80</ele>
	<time>2024-07-25T11:02:52.000Z</time>
</trkpt>
<trkpt lat="46.1150660" lon="10.4783110">
	<ele>2014.00</ele>
	<time>2024-07-25T11:02:53.000Z</time>
</trkpt>
<trkpt lat="46.1150600" lon="10.4782900">
	<ele>2014.00</ele>
	<time>2024-07-25T11:02:54.000Z</time>
</trkpt>
<trkpt lat="46.1150550" lon="10.4782700">
	<ele>2014.20</ele>
	<time>2024-07-25T11:02:55.000Z</time>
</trkpt>
<trkpt lat="46.1150540" lon="10.4782560">
	<ele>2014.20</ele>
	<time>2024-07-25T11:02:56.000Z</time>
</trkpt>
<trkpt lat="46.1150480" lon="10.4782360">
	<ele>2014.40</ele>
	<time>2024-07-25T11:02:57.000Z</time>
</trkpt>
<trkpt lat="46.1150430" lon="10.4782100">
	<ele>2014.20</ele>
	<time>2024-07-25T11:02:58.000Z</time>
</trkpt>
<trkpt lat="46.1150410" lon="10.4781900">
	<ele>2014.20</ele>
	<time>2024-07-25T11:02:59.000Z</time>
</trkpt>
<trkpt lat="46.1150350" lon="10.4781630">
	<ele>2014.20</ele>
	<time>2024-07-25T11:03:00.000Z</time>
</trkpt>
<trkpt lat="46.1150280" lon="10.4781460">
	<ele>2014.20</ele>
	<time>2024-07-25T11:03:01.000Z</time>
</trkpt>
<trkpt lat="46.1150180" lon="10.4781300">
	<ele>2014.00</ele>
	<time>2024-07-25T11:03:02.000Z</time>
</trkpt>
<trkpt lat="46.1150100" lon="10.4781150">
	<ele>2014.00</ele>
	<time>2024-07-25T11:03:03.000Z</time>
</trkpt>
<trkpt lat="46.1150020" lon="10.4780970">
	<ele>2014.00</ele>
	<time>2024-07-25T11:03:04.000Z</time>
</trkpt>
<trkpt lat="46.1149970" lon="10.4780750">
	<ele>2014.00</ele>
	<time>2024-07-25T11:03:05.000Z</time>
</trkpt>
<trkpt lat="46.1149940" lon="10.4780580">
	<ele>2014.00</ele>
	<time>2024-07-25T11:03:06.000Z</time>
</trkpt>
<trkpt lat="46.1149900" lon="10.4780380">
	<ele>2013.80</ele>
	<time>2024-07-25T11:03:07.000Z</time>
</trkpt>
<trkpt lat="46.1149850" lon="10.4780150">
	<ele>2013.80</ele>
	<time>2024-07-25T11:03:08.000Z</time>
</trkpt>
<trkpt lat="46.1149770" lon="10.4780030">
	<ele>2013.80</ele>
	<time>2024-07-25T11:03:09.000Z</time>
</trkpt>
<trkpt lat="46.1149730" lon="10.4779840">
	<ele>2013.60</ele>
	<time>2024-07-25T11:03:10.000Z</time>
</trkpt>
<trkpt lat="46.1149670" lon="10.4779650">
	<ele>2013.60</ele>
	<time>2024-07-25T11:03:11.000Z</time>
</trkpt>
<trkpt lat="46.1149570" lon="10.4779450">
	<ele>2013.40</ele>
	<time>2024-07-25T11:03:12.000Z</time>
</trkpt>
<trkpt lat="46.1149500" lon="10.4779250">
	<ele>2013.40</ele>
	<time>2024-07-25T11:03:13.000Z</time>
</trkpt>
<trkpt lat="46.1149390" lon="10.4779070">
	<ele>2013.00</ele>
	<time>2024-07-25T11:03:14.000Z</time>
</trkpt>
<trkpt lat="46.1149300" lon="10.4778890">
	<ele>2013.00</ele>
	<time>2024-07-25T11:03:15.000Z</time>
</trkpt>
<trkpt lat="46.1149170" lon="10.4778750">
	<ele>2012.80</ele>
	<time>2024-07-25T11:03:16.000Z</time>
</trkpt>
<trkpt lat="46.1148990" lon="10.4778580">
	<ele>2012.60</ele>
	<time>2024-07-25T11:03:17.000Z</time>
</trkpt>
<trkpt lat="46.1148820" lon="10.4778380">
	<ele>2012.60</ele>
	<time>2024-07-25T11:03:18.000Z</time>
</trkpt>
<trkpt lat="46.1148690" lon="10.4778240">
	<ele>2012.40</ele>
	<time>2024-07-25T11:03:19.000Z</time>
</trkpt>
<trkpt lat="46.1148580" lon="10.4778090">
	<ele>2012.40</ele>
	<time>2024-07-25T11:03:20.000Z</time>
</trkpt>
<trkpt lat="46.1148470" lon="10.4777920">
	<ele>2012.40</ele>
	<time>2024-07-25T11:03:21.000Z</time>
</trkpt>
<trkpt lat="46.1148370" lon="10.4777710">
	<ele>2012.20</ele>
	<time>2024-07-25T11:03:22.000Z</time>
</trkpt>
<trkpt lat="46.1148260" lon="10.4777530">
	<ele>2012.20</ele>
	<time>2024-07-25T11:03:23.000Z</time>
</trkpt>
<trkpt lat="46.1148150" lon="10.4777390">
	<ele>2012.00</ele>
	<time>2024-07-25T11:03:24.000Z</time>
</trkpt>
<trkpt lat="46.1148090" lon="10.4777280">
	<ele>2012.00</ele>
	<time>2024-07-25T11:03:25.000Z</time>
</trkpt>
<trkpt lat="46.1147980" lon="10.4777160">
	<ele>2012.00</ele>
	<time>2024-07-25T11:03:26.000Z</time>
</trkpt>
<trkpt lat="46.1147880" lon="10.4777000">
	<ele>2012.00</ele>
	<time>2024-07-25T11:03:27.000Z</time>
</trkpt>
<trkpt lat="46.1147800" lon="10.4776820">
	<ele>2011.80</ele>
	<time>2024-07-25T11:03:28.000Z</time>
</trkpt>
<trkpt lat="46.1147710" lon="10.4776700">
	<ele>2011.80</ele>
	<time>2024-07-25T11:03:29.000Z</time>
</trkpt>
<trkpt lat="46.1147640" lon="10.4776590">
	<ele>2011.80</ele>
	<time>2024-07-25T11:03:30.000Z</time>
</trkpt>
<trkpt lat="46.1147580" lon="10.4776430">
	<ele>2011.40</ele>
	<time>2024-07-25T11:03:31.000Z</time>
</trkpt>
<trkpt lat="46.1147560" lon="10.4776250">
	<ele>2011.40</ele>
	<time>2024-07-25T11:03:32.000Z</time>
</trkpt>
<trkpt lat="46.1147490" lon="10.4776040">
	<ele>2011.40</ele>
	<time>2024-07-25T11:03:33.000Z</time>
</trkpt>
<trkpt lat="46.1147410" lon="10.4775880">
	<ele>2011.40</ele>
	<time>2024-07-25T11:03:34.000Z</time>
</trkpt>
<trkpt lat="46.1147340" lon="10.4775710">
	<ele>2011.40</ele>
	<time>2024-07-25T11:03:35.000Z</time>
</trkpt>
<trkpt lat="46.1147230" lon="10.4775490">
	<ele>2011.40</ele>
	<time>2024-07-25T11:03:36.000Z</time>
</trkpt>
<trkpt lat="46.1147140" lon="10.4775320">
	<ele>2011.40</ele>
	<time>2024-07-25T11:03:37.000Z</time>
</trkpt>
<trkpt lat="46.1147010" lon="10.4775070">
	<ele>2011.40</ele>
	<time>2024-07-25T11:03:38.000Z</time>
</trkpt>
<trkpt lat="46.1146950" lon="10.4774910">
	<ele>2011.40</ele>
	<time>2024-07-25T11:03:39.000Z</time>
</trkpt>
<trkpt lat="46.1146830" lon="10.4774730">
	<ele>2011.20</ele>
	<time>2024-07-25T11:03:40.000Z</time>
</trkpt>
<trkpt lat="46.1146690" lon="10.4774620">
	<ele>2011.00</ele>
	<time>2024-07-25T11:03:41.000Z</time>
</trkpt>
<trkpt lat="46.1146510" lon="10.4774490">
	<ele>2011.00</ele>
	<time>2024-07-25T11:03:42.000Z</time>
</trkpt>
<trkpt lat="46.1146410" lon="10.4774410">
	<ele>2011.00</ele>
	<time>2024-07-25T11:03:43.000Z</time>
</trkpt>
<trkpt lat="46.1146190" lon="10.4774320">
	<ele>2010.80</ele>
	<time>2024-07-25T11:03:44.000Z</time>
</trkpt>
<trkpt lat="46.1146090" lon="10.4774270">
	<ele>2010.80</ele>
	<time>2024-07-25T11:03:45.000Z</time>
</trkpt>
<trkpt lat="46.1145930" lon="10.4774180">
	<ele>2010.80</ele>
	<time>2024-07-25T11:03:46.000Z</time>
</trkpt>
<trkpt lat="46.1145930" lon="10.4774040">
	<ele>2010.80</ele>
	<time>2024-07-25T11:03:47.000Z</time>
</trkpt>
<trkpt lat="46.1145840" lon="10.4773880">
	<ele>2010.80</ele>
	<time>2024-07-25T11:03:48.000Z</time>
</trkpt>
<trkpt lat="46.1145740" lon="10.4773730">
	<ele>2010.80</ele>
	<time>2024-07-25T11:03:49.000Z</time>
</trkpt>
<trkpt lat="46.1145630" lon="10.4773580">
	<ele>2010.80</ele>
	<time>2024-07-25T11:03:50.000Z</time>
</trkpt>
<trkpt lat="46.1145520" lon="10.4773420">
	<ele>2010.80</ele>
	<time>2024-07-25T11:03:51.000Z</time>
</trkpt>
<trkpt lat="46.1145420" lon="10.4773280">
	<ele>2010.80</ele>
	<time>2024-07-25T11:03:52.000Z</time>
</trkpt>
<trkpt lat="46.1145350" lon="10.4773120">
	<ele>2010.60</ele>
	<time>2024-07-25T11:03:53.000Z</time>
</trkpt>
<trkpt lat="46.1145280" lon="10.4772940">
	<ele>2010.60</ele>
	<time>2024-07-25T11:03:54.000Z</time>
</trkpt>
<trkpt lat="46.1145160" lon="10.4772770">
	<ele>2010.60</ele>
	<time>2024-07-25T11:03:55.000Z</time>
</trkpt>
<trkpt lat="46.1145080" lon="10.4772610">
	<ele>2010.60</ele>
	<time>2024-07-25T11:03:56.000Z</time>
</trkpt>
<trkpt lat="46.1145040" lon="10.4772410">
	<ele>2010.60</ele>
	<time>2024-07-25T11:03:57.000Z</time>
</trkpt>
<trkpt lat="46.1144930" lon="10.4772230">
	<ele>2010.60</ele>
	<time>2024-07-25T11:03:58.000Z</time>
</trkpt>
<trkpt lat="46.1144820" lon="10.4772090">
	<ele>2010.60</ele>
	<time>2024-07-25T11:03:59.000Z</time>
</trkpt>
<trkpt lat="46.1144720" lon="10.4771940">
	<ele>2010.60</ele>
	<time>2024-07-25T11:04:00.000Z</time>
</trkpt>
<trkpt lat="46.1144680" lon="10.4771750">
	<ele>2010.60</ele>
	<time>2024-07-25T11:04:01.000Z</time>
</trkpt>
<trkpt lat="46.1144680" lon="10.4771630">
	<ele>2010.80</ele>
	<time>2024-07-25T11:04:02.000Z</time>
</trkpt>
<trkpt lat="46.1144630" lon="10.4771440">
	<ele>2010.80</ele>
	<time>2024-07-25T11:04:03.000Z</time>
</trkpt>
<trkpt lat="46.1144600" lon="10.4771270">
	<ele>2011.00</ele>
	<time>2024-07-25T11:04:04.000Z</time>
</trkpt>
<trkpt lat="46.1144510" lon="10.4771120">
	<ele>2011.00</ele>
	<time>2024-07-25T11:04:05.000Z</time>
</trkpt>
<trkpt lat="46.1144460" lon="10.4770950">
	<ele>2011.00</ele>
	<time>2024-07-25T11:04:06.000Z</time>
</trkpt>
<trkpt lat="46.1144370" lon="10.4770790">
	<ele>2011.20</ele>
	<time>2024-07-25T11:04:07.000Z</time>
</trkpt>
<trkpt lat="46.1144250" lon="10.4770620">
	<ele>2011.20</ele>
	<time>2024-07-25T11:04:08.000Z</time>
</trkpt>
<trkpt lat="46.1144190" lon="10.4770460">
	<ele>2011.00</ele>
	<time>2024-07-25T11:04:09.000Z</time>
</trkpt>
<trkpt lat="46.1144100" lon="10.4770340">
	<ele>2011.00</ele>
	<time>2024-07-25T11:04:10.000Z</time>
</trkpt>
<trkpt lat="46.1144030" lon="10.4770250">
	<ele>2010.80</ele>
	<time>2024-07-25T11:04:11.000Z</time>
</trkpt>
<trkpt lat="46.1143950" lon="10.4770040">
	<ele>2010.60</ele>
	<time>2024-07-25T11:04:12.000Z</time>
</trkpt>
<trkpt lat="46.1143840" lon="10.4769880">
	<ele>2010.40</ele>
	<time>2024-07-25T11:04:13.000Z</time>
</trkpt>
<trkpt lat="46.1143740" lon="10.4769680">
	<ele>2010.40</ele>
	<time>2024-07-25T11:04:14.000Z</time>
</trkpt>
<trkpt lat="46.1143660" lon="10.4769510">
	<ele>2010.20</ele>
	<time>2024-07-25T11:04:15.000Z</time>
</trkpt>
<trkpt lat="46.1143550" lon="10.4769350">
	<ele>2010.00</ele>
	<time>2024-07-25T11:04:16.000Z</time>
</trkpt>
<trkpt lat="46.1143420" lon="10.4769250">
	<ele>2010.00</ele>
	<time>2024-07-25T11:04:17.000Z</time>
</trkpt>
<trkpt lat="46.1143280" lon="10.4769120">
	<ele>2009.80</ele>
	<time>2024-07-25T11:04:18.000Z</time>
</trkpt>
<trkpt lat="46.1143160" lon="10.4768950">
	<ele>2009.80</ele>
	<time>2024-07-25T11:04:19.000Z</time>
</trkpt>
<trkpt lat="46.1143070" lon="10.4768770">
	<ele>2009.40</ele>
	<time>2024-07-25T11:04:20.000Z</time>
</trkpt>
<trkpt lat="46.1142980" lon="10.4768630">
	<ele>2009.20</ele>
	<time>2024-07-25T11:04:21.000Z</time>
</trkpt>
<trkpt lat="46.1142880" lon="10.4768480">
	<ele>2009.20</ele>
	<time>2024-07-25T11:04:22.000Z</time>
</trkpt>
<trkpt lat="46.1142780" lon="10.4768330">
	<ele>2009.00</ele>
	<time>2024-07-25T11:04:23.000Z</time>
</trkpt>
<trkpt lat="46.1142800" lon="10.4768200">
	<ele>2009.00</ele>
	<time>2024-07-25T11:04:24.000Z</time>
</trkpt>
<trkpt lat="46.1142720" lon="10.4768020">
	<ele>2008.80</ele>
	<time>2024-07-25T11:04:25.000Z</time>
</trkpt>
<trkpt lat="46.1142670" lon="10.4767870">
	<ele>2008.80</ele>
	<time>2024-07-25T11:04:26.000Z</time>
</trkpt>
<trkpt lat="46.1142550" lon="10.4767720">
	<ele>2008.80</ele>
	<time>2024-07-25T11:04:27.000Z</time>
</trkpt>
<trkpt lat="46.1142450" lon="10.4767680">
	<ele>2008.80</ele>
	<time>2024-07-25T11:04:28.000Z</time>
</trkpt>
<trkpt lat="46.1142330" lon="10.4767550">
	<ele>2008.80</ele>
	<time>2024-07-25T11:04:29.000Z</time>
</trkpt>
<trkpt lat="46.1142220" lon="10.4767420">
	<ele>2008.80</ele>
	<time>2024-07-25T11:04:30.000Z</time>
</trkpt>
<trkpt lat="46.1142140" lon="10.4767290">
	<ele>2008.80</ele>
	<time>2024-07-25T11:04:31.000Z</time>
</trkpt>
<trkpt lat="46.1142100" lon="10.4767220">
	<ele>2008.80</ele>
	<time>2024-07-25T11:04:32.000Z</time>
</trkpt>
<trkpt lat="46.1141950" lon="10.4767090">
	<ele>2008.80</ele>
	<time>2024-07-25T11:04:33.000Z</time>
</trkpt>
<trkpt lat="46.1141840" lon="10.4767000">
	<ele>2008.60</ele>
	<time>2024-07-25T11:04:34.000Z</time>
</trkpt>
<trkpt lat="46.1141780" lon="10.4766920">
	<ele>2008.60</ele>
	<time>2024-07-25T11:04:35.000Z</time>
</trkpt>
<trkpt lat="46.1141690" lon="10.4766870">
	<ele>2008.60</ele>
	<time>2024-07-25T11:04:36.000Z</time>
</trkpt>
<trkpt lat="46.1141560" lon="10.4766800">
	<ele>2008.60</ele>
	<time>2024-07-25T11:04:37.000Z</time>
</trkpt>
<trkpt lat="46.1141430" lon="10.4766690">
	<ele>2008.60</ele>
	<time>2024-07-25T11:04:38.000Z</time>
</trkpt>
<trkpt lat="46.1141320" lon="10.4766570">
	<ele>2008.60</ele>
	<time>2024-07-25T11:04:39.000Z</time>
</trkpt>
<trkpt lat="46.1141210" lon="10.4766500">
	<ele>2008.60</ele>
	<time>2024-07-25T11:04:40.000Z</time>
</trkpt>
<trkpt lat="46.1141080" lon="10.4766400">
	<ele>2008.60</ele>
	<time>2024-07-25T11:04:41.000Z</time>
</trkpt>
<trkpt lat="46.1140970" lon="10.4766330">
	<ele>2008.60</ele>
	<time>2024-07-25T11:04:42.000Z</time>
</trkpt>
<trkpt lat="46.1140840" lon="10.4766260">
	<ele>2008.60</ele>
	<time>2024-07-25T11:04:43.000Z</time>
</trkpt>
<trkpt lat="46.1140690" lon="10.4766180">
	<ele>2009.00</ele>
	<time>2024-07-25T11:04:44.000Z</time>
</trkpt>
<trkpt lat="46.1140640" lon="10.4766100">
	<ele>2009.00</ele>
	<time>2024-07-25T11:04:45.000Z</time>
</trkpt>
<trkpt lat="46.1140560" lon="10.4766030">
	<ele>2009.20</ele>
	<time>2024-07-25T11:04:46.000Z</time>
</trkpt>
<trkpt lat="46.1140480" lon="10.4765950">
	<ele>2009.20</ele>
	<time>2024-07-25T11:04:47.000Z</time>
</trkpt>
<trkpt lat="46.1140380" lon="10.4765860">
	<ele>2009.00</ele>
	<time>2024-07-25T11:04:48.000Z</time>
</trkpt>
<trkpt lat="46.1140290" lon="10.4765750">
	<ele>2008.80</ele>
	<time>2024-07-25T11:04:49.000Z</time>
</trkpt>
<trkpt lat="46.1140220" lon="10.4765620">
	<ele>2008.60</ele>
	<time>2024-07-25T11:04:50.000Z</time>
</trkpt>
<trkpt lat="46.1140110" lon="10.4765440">
	<ele>2008.40</ele>
	<time>2024-07-25T11:04:51.000Z</time>
</trkpt>
<trkpt lat="46.1139990" lon="10.4765250">
	<ele>2008.20</ele>
	<time>2024-07-25T11:04:52.000Z</time>
</trkpt>
<trkpt lat="46.1139910" lon="10.4765110">
	<ele>2008.20</ele>
	<time>2024-07-25T11:04:53.000Z</time>
</trkpt>
<trkpt lat="46.1139810" lon="10.4764910">
	<ele>2008.20</ele>
	<time>2024-07-25T11:04:54.000Z</time>
</trkpt>
<trkpt lat="46.1139740" lon="10.4764710">
	<ele>2008.20</ele>
	<time>2024-07-25T11:04:55.000Z</time>
</trkpt>
<trkpt lat="46.1139670" lon="10.4764610">
	<ele>2008.00</ele>
	<time>2024-07-25T11:04:56.000Z</time>
</trkpt>
<trkpt lat="46.1139580" lon="10.4764490">
	<ele>2008.00</ele>
	<time>2024-07-25T11:04:57.000Z</time>
</trkpt>
<trkpt lat="46.1139480" lon="10.4764350">
	<ele>2008.00</ele>
	<time>2024-07-25T11:04:58.000Z</time>
</trkpt>
<trkpt lat="46.1139400" lon="10.4764250">
	<ele>2007.80</ele>
	<time>2024-07-25T11:04:59.000Z</time>
</trkpt>
<trkpt lat="46.1139300" lon="10.4764130">
	<ele>2007.80</ele>
	<time>2024-07-25T11:05:00.000Z</time>
</trkpt>
<trkpt lat="46.1139210" lon="10.4764020">
	<ele>2007.80</ele>
	<time>2024-07-25T11:05:01.000Z</time>
</trkpt>
<trkpt lat="46.1139060" lon="10.4763860">
	<ele>2007.80</ele>
	<time>2024-07-25T11:05:02.000Z</time>
</trkpt>
<trkpt lat="46.1138950" lon="10.4763790">
	<ele>2007.80</ele>
	<time>2024-07-25T11:05:03.000Z</time>
</trkpt>
<trkpt lat="46.1138840" lon="10.4763720">
	<ele>2007.80</ele>
	<time>2024-07-25T11:05:04.000Z</time>
</trkpt>
<trkpt lat="46.1138750" lon="10.4763660">
	<ele>2007.80</ele>
	<time>2024-07-25T11:05:05.000Z</time>
</trkpt>
<trkpt lat="46.1138670" lon="10.4763640">
	<ele>2007.80</ele>
	<time>2024-07-25T11:05:06.000Z</time>
</trkpt>
<trkpt lat="46.1138620" lon="10.4763630">
	<ele>2007.80</ele>
	<time>2024-07-25T11:05:07.000Z</time>
</trkpt>
<trkpt lat="46.1138580" lon="10.4763640">
	<ele>2007.80</ele>
	<time>2024-07-25T11:05:08.000Z</time>
</trkpt>
<trkpt lat="46.1138530" lon="10.4763710">
	<ele>2007.80</ele>
	<time>2024-07-25T11:05:09.000Z</time>
</trkpt>
<trkpt lat="46.1138390" lon="10.4763790">
	<ele>2007.80</ele>
	<time>2024-07-25T11:05:10.000Z</time>
</trkpt>
<trkpt lat="46.1138300" lon="10.4763790">
	<ele>2008.00</ele>
	<time>2024-07-25T11:05:11.000Z</time>
</trkpt>
<trkpt lat="46.1138190" lon="10.4763770">
	<ele>2008.00</ele>
	<time>2024-07-25T11:05:12.000Z</time>
</trkpt>
<trkpt lat="46.1138060" lon="10.4763730">
	<ele>2008.00</ele>
	<time>2024-07-25T11:05:13.000Z</time>
</trkpt>
<trkpt lat="46.1137910" lon="10.4763710">
	<ele>2008.00</ele>
	<time>2024-07-25T11:05:14.000Z</time>
</trkpt>
<trkpt lat="46.1137760" lon="10.4763670">
	<ele>2008.20</ele>
	<time>2024-07-25T11:05:15.000Z</time>
</trkpt>
<trkpt lat="46.1137620" lon="10.4763660">
	<ele>2008.20</ele>
	<time>2024-07-25T11:05:16.000Z</time>
</trkpt>
<trkpt lat="46.1137510" lon="10.4763620">
	<ele>2008.20</ele>
	<time>2024-07-25T11:05:17.000Z</time>
</trkpt>
<trkpt lat="46.1137360" lon="10.4763580">
	<ele>2008.00</ele>
	<time>2024-07-25T11:05:18.000Z</time>
</trkpt>
<trkpt lat="46.1137230" lon="10.4763570">
	<ele>2008.00</ele>
	<time>2024-07-25T11:05:19.000Z</time>
</trkpt>
<trkpt lat="46.1137130" lon="10.4763560">
	<ele>2008.00</ele>
	<time>2024-07-25T11:05:20.000Z</time>
</trkpt>
<trkpt lat="46.1137020" lon="10.4763560">
	<ele>2007.60</ele>
	<time>2024-07-25T11:05:21.000Z</time>
</trkpt>
<trkpt lat="46.1136900" lon="10.4763580">
	<ele>2007.60</ele>
	<time>2024-07-25T11:05:22.000Z</time>
</trkpt>
<trkpt lat="46.1136750" lon="10.4763650">
	<ele>2007.40</ele>
	<time>2024-07-25T11:05:23.000Z</time>
</trkpt>
<trkpt lat="46.1136660" lon="10.4763750">
	<ele>2007.40</ele>
	<time>2024-07-25T11:05:24.000Z</time>
</trkpt>
<trkpt lat="46.1136550" lon="10.4763810">
	<ele>2007.40</ele>
	<time>2024-07-25T11:05:25.000Z</time>
</trkpt>
<trkpt lat="46.1136450" lon="10.4763840">
	<ele>2007.40</ele>
	<time>2024-07-25T11:05:26.000Z</time>
</trkpt>
<trkpt lat="46.1136320" lon="10.4763900">
	<ele>2007.40</ele>
	<time>2024-07-25T11:05:27.000Z</time>
</trkpt>
<trkpt lat="46.1136190" lon="10.4763960">
	<ele>2007.60</ele>
	<time>2024-07-25T11:05:28.000Z</time>
</trkpt>
<trkpt lat="46.1136080" lon="10.4763980">
	<ele>2007.80</ele>
	<time>2024-07-25T11:05:29.000Z</time>
</trkpt>
<trkpt lat="46.1135980" lon="10.4763880">
	<ele>2007.80</ele>
	<time>2024-07-25T11:05:30.000Z</time>
</trkpt>
<trkpt lat="46.1135850" lon="10.4763740">
	<ele>2007.80</ele>
	<time>2024-07-25T11:05:31.000Z</time>
</trkpt>
<trkpt lat="46.1135710" lon="10.4763610">
	<ele>2007.80</ele>
	<time>2024-07-25T11:05:32.000Z</time>
</trkpt>
<trkpt lat="46.1135620" lon="10.4763490">
	<ele>2007.80</ele>
	<time>2024-07-25T11:05:33.000Z</time>
</trkpt>
<trkpt lat="46.1135540" lon="10.4763310">
	<ele>2007.80</ele>
	<time>2024-07-25T11:05:34.000Z</time>
</trkpt>
<trkpt lat="46.1135510" lon="10.4763140">
	<ele>2007.80</ele>
	<time>2024-07-25T11:05:35.000Z</time>
</trkpt>
<trkpt lat="46.1135490" lon="10.4762990">
	<ele>2007.80</ele>
	<time>2024-07-25T11:05:36.000Z</time>
</trkpt>
<trkpt lat="46.1135480" lon="10.4762830">
	<ele>2007.80</ele>
	<time>2024-07-25T11:05:37.000Z</time>
</trkpt>
<trkpt lat="46.1135480" lon="10.4762670">
	<ele>2007.80</ele>
	<time>2024-07-25T11:05:38.000Z</time>
</trkpt>
<trkpt lat="46.1135480" lon="10.4762460">
	<ele>2007.80</ele>
	<time>2024-07-25T11:05:39.000Z</time>
</trkpt>
<trkpt lat="46.1135460" lon="10.4762270">
	<ele>2007.80</ele>
	<time>2024-07-25T11:05:40.000Z</time>
</trkpt>
<trkpt lat="46.1135440" lon="10.4762150">
	<ele>2007.80</ele>
	<time>2024-07-25T11:05:41.000Z</time>
</trkpt>
<trkpt lat="46.1135400" lon="10.4761990">
	<ele>2007.80</ele>
	<time>2024-07-25T11:05:42.000Z</time>
</trkpt>
<trkpt lat="46.1135360" lon="10.4761800">
	<ele>2007.80</ele>
	<time>2024-07-25T11:05:43.000Z</time>
</trkpt>
<trkpt lat="46.1135330" lon="10.4761590">
	<ele>2007.80</ele>
	<time>2024-07-25T11:05:44.000Z</time>
</trkpt>
<trkpt lat="46.1135320" lon="10.4761380">
	<ele>2007.80</ele>
	<time>2024-07-25T11:05:45.000Z</time>
</trkpt>
<trkpt lat="46.1135310" lon="10.4761200">
	<ele>2007.80</ele>
	<time>2024-07-25T11:05:46.000Z</time>
</trkpt>
<trkpt lat="46.1135270" lon="10.4760990">
	<ele>2007.80</ele>
	<time>2024-07-25T11:05:47.000Z</time>
</trkpt>
<trkpt lat="46.1135260" lon="10.4760810">
	<ele>2007.80</ele>
	<time>2024-07-25T11:05:48.000Z</time>
</trkpt>
<trkpt lat="46.1135260" lon="10.4760500">
	<ele>2007.60</ele>
	<time>2024-07-25T11:05:49.000Z</time>
</trkpt>
<trkpt lat="46.1135260" lon="10.4760250">
	<ele>2007.60</ele>
	<time>2024-07-25T11:05:50.000Z</time>
</trkpt>
<trkpt lat="46.1135270" lon="10.4760010">
	<ele>2007.60</ele>
	<time>2024-07-25T11:05:51.000Z</time>
</trkpt>
<trkpt lat="46.1135250" lon="10.4759760">
	<ele>2007.60</ele>
	<time>2024-07-25T11:05:52.000Z</time>
</trkpt>
<trkpt lat="46.1135220" lon="10.4759520">
	<ele>2007.40</ele>
	<time>2024-07-25T11:05:53.000Z</time>
</trkpt>
<trkpt lat="46.1135220" lon="10.4759310">
	<ele>2007.40</ele>
	<time>2024-07-25T11:05:54.000Z</time>
</trkpt>
<trkpt lat="46.1135230" lon="10.4759080">
	<ele>2007.40</ele>
	<time>2024-07-25T11:05:55.000Z</time>
</trkpt>
<trkpt lat="46.1135210" lon="10.4758880">
	<ele>2007.20</ele>
	<time>2024-07-25T11:05:56.000Z</time>
</trkpt>
<trkpt lat="46.1135150" lon="10.4758600">
	<ele>2007.20</ele>
	<time>2024-07-25T11:05:57.000Z</time>
</trkpt>
<trkpt lat="46.1135120" lon="10.4758410">
	<ele>2006.80</ele>
	<time>2024-07-25T11:05:58.000Z</time>
</trkpt>
<trkpt lat="46.1135090" lon="10.4758220">
	<ele>2006.80</ele>
	<time>2024-07-25T11:05:59.000Z</time>
</trkpt>
<trkpt lat="46.1135050" lon="10.4758060">
	<ele>2006.80</ele>
	<time>2024-07-25T11:06:00.000Z</time>
</trkpt>
<trkpt lat="46.1135000" lon="10.4757880">
	<ele>2006.60</ele>
	<time>2024-07-25T11:06:01.000Z</time>
</trkpt>
<trkpt lat="46.1134920" lon="10.4757640">
	<ele>2006.60</ele>
	<time>2024-07-25T11:06:02.000Z</time>
</trkpt>
<trkpt lat="46.1134840" lon="10.4757440">
	<ele>2006.60</ele>
	<time>2024-07-25T11:06:03.000Z</time>
</trkpt>
<trkpt lat="46.1134770" lon="10.4757260">
	<ele>2006.60</ele>
	<time>2024-07-25T11:06:04.000Z</time>
</trkpt>
<trkpt lat="46.1134670" lon="10.4757100">
	<ele>2006.60</ele>
	<time>2024-07-25T11:06:05.000Z</time>
</trkpt>
<trkpt lat="46.1134610" lon="10.4756970">
	<ele>2006.60</ele>
	<time>2024-07-25T11:06:06.000Z</time>
</trkpt>
<trkpt lat="46.1134480" lon="10.4756760">
	<ele>2006.60</ele>
	<time>2024-07-25T11:06:07.000Z</time>
</trkpt>
<trkpt lat="46.1134410" lon="10.4756620">
	<ele>2006.60</ele>
	<time>2024-07-25T11:06:08.000Z</time>
</trkpt>
<trkpt lat="46.1134320" lon="10.4756390">
	<ele>2006.60</ele>
	<time>2024-07-25T11:06:09.000Z</time>
</trkpt>
<trkpt lat="46.1134270" lon="10.4756210">
	<ele>2006.60</ele>
	<time>2024-07-25T11:06:10.000Z</time>
</trkpt>
<trkpt lat="46.1134210" lon="10.4756030">
	<ele>2006.60</ele>
	<time>2024-07-25T11:06:11.000Z</time>
</trkpt>
<trkpt lat="46.1134140" lon="10.4755870">
	<ele>2006.60</ele>
	<time>2024-07-25T11:06:12.000Z</time>
</trkpt>
<trkpt lat="46.1134100" lon="10.4755690">
	<ele>2006.60</ele>
	<time>2024-07-25T11:06:13.000Z</time>
</trkpt>
<trkpt lat="46.1134070" lon="10.4755540">
	<ele>2006.80</ele>
	<time>2024-07-25T11:06:14.000Z</time>
</trkpt>
<trkpt lat="46.1134030" lon="10.4755370">
	<ele>2006.80</ele>
	<time>2024-07-25T11:06:15.000Z</time>
</trkpt>
<trkpt lat="46.1133990" lon="10.4755240">
	<ele>2006.60</ele>
	<time>2024-07-25T11:06:16.000Z</time>
</trkpt>
<trkpt lat="46.1133940" lon="10.4755100">
	<ele>2006.60</ele>
	<time>2024-07-25T11:06:17.000Z</time>
</trkpt>
<trkpt lat="46.1133890" lon="10.4754970">
	<ele>2006.60</ele>
	<time>2024-07-25T11:06:18.000Z</time>
</trkpt>
<trkpt lat="46.1133810" lon="10.4754850">
	<ele>2006.40</ele>
	<time>2024-07-25T11:06:19.000Z</time>
</trkpt>
<trkpt lat="46.1133740" lon="10.4754700">
	<ele>2006.40</ele>
	<time>2024-07-25T11:06:20.000Z</time>
</trkpt>
<trkpt lat="46.1133690" lon="10.4754540">
	<ele>2006.40</ele>
	<time>2024-07-25T11:06:21.000Z</time>
</trkpt>
<trkpt lat="46.1133620" lon="10.4754380">
	<ele>2006.40</ele>
	<time>2024-07-25T11:06:22.000Z</time>
</trkpt>
<trkpt lat="46.1133570" lon="10.4754260">
	<ele>2006.40</ele>
	<time>2024-07-25T11:06:23.000Z</time>
</trkpt>
<trkpt lat="46.1133510" lon="10.4754160">
	<ele>2006.20</ele>
	<time>2024-07-25T11:06:24.000Z</time>
</trkpt>
<trkpt lat="46.1133440" lon="10.4754060">
	<ele>2006.20</ele>
	<time>2024-07-25T11:06:25.000Z</time>
</trkpt>
<trkpt lat="46.1133370" lon="10.4753950">
	<ele>2006.00</ele>
	<time>2024-07-25T11:06:26.000Z</time>
</trkpt>
<trkpt lat="46.1133260" lon="10.4753830">
	<ele>2006.00</ele>
	<time>2024-07-25T11:06:27.000Z</time>
</trkpt>
<trkpt lat="46.1133150" lon="10.4753690">
	<ele>2006.00</ele>
	<time>2024-07-25T11:06:28.000Z</time>
</trkpt>
<trkpt lat="46.1133020" lon="10.4753550">
	<ele>2006.00</ele>
	<time>2024-07-25T11:06:29.000Z</time>
</trkpt>
<trkpt lat="46.1132920" lon="10.4753360">
	<ele>2006.00</ele>
	<time>2024-07-25T11:06:30.000Z</time>
</trkpt>
<trkpt lat="46.1132840" lon="10.4753190">
	<ele>2006.00</ele>
	<time>2024-07-25T11:06:31.000Z</time>
</trkpt>
<trkpt lat="46.1132780" lon="10.4753050">
	<ele>2006.00</ele>
	<time>2024-07-25T11:06:32.000Z</time>
</trkpt>
<trkpt lat="46.1132730" lon="10.4752900">
	<ele>2006.00</ele>
	<time>2024-07-25T11:06:33.000Z</time>
</trkpt>
<trkpt lat="46.1132670" lon="10.4752750">
	<ele>2006.00</ele>
	<time>2024-07-25T11:06:34.000Z</time>
</trkpt>
<trkpt lat="46.1132570" lon="10.4752550">
	<ele>2006.00</ele>
	<time>2024-07-25T11:06:35.000Z</time>
</trkpt>
<trkpt lat="46.1132500" lon="10.4752400">
	<ele>2006.00</ele>
	<time>2024-07-25T11:06:36.000Z</time>
</trkpt>
<trkpt lat="46.1132460" lon="10.4752220">
	<ele>2006.00</ele>
	<time>2024-07-25T11:06:37.000Z</time>
</trkpt>
<trkpt lat="46.1132400" lon="10.4752070">
	<ele>2006.00</ele>
	<time>2024-07-25T11:06:38.000Z</time>
</trkpt>
<trkpt lat="46.1132290" lon="10.4751920">
	<ele>2006.00</ele>
	<time>2024-07-25T11:06:39.000Z</time>
</trkpt>
<trkpt lat="46.1132180" lon="10.4751760">
	<ele>2006.00</ele>
	<time>2024-07-25T11:06:40.000Z</time>
</trkpt>
<trkpt lat="46.1132040" lon="10.4751540">
	<ele>2006.00</ele>
	<time>2024-07-25T11:06:41.000Z</time>
</trkpt>
<trkpt lat="46.1132000" lon="10.4751310">
	<ele>2006.00</ele>
	<time>2024-07-25T11:06:42.000Z</time>
</trkpt>
<trkpt lat="46.1131950" lon="10.4751100">
	<ele>2006.00</ele>
	<time>2024-07-25T11:06:43.000Z</time>
</trkpt>
<trkpt lat="46.1131870" lon="10.4750960">
	<ele>2006.00</ele>
	<time>2024-07-25T11:06:44.000Z</time>
</trkpt>
<trkpt lat="46.1131790" lon="10.4750810">
	<ele>2006.00</ele>
	<time>2024-07-25T11:06:45.000Z</time>
</trkpt>
<trkpt lat="46.1131710" lon="10.4750610">
	<ele>2006.00</ele>
	<time>2024-07-25T11:06:46.000Z</time>
</trkpt>
<trkpt lat="46.1131650" lon="10.4750420">
	<ele>2005.80</ele>
	<time>2024-07-25T11:06:47.000Z</time>
</trkpt>
<trkpt lat="46.1131610" lon="10.4750230">
	<ele>2005.60</ele>
	<time>2024-07-25T11:06:48.000Z</time>
</trkpt>
<trkpt lat="46.1131590" lon="10.4749990">
	<ele>2005.60</ele>
	<time>2024-07-25T11:06:49.000Z</time>
</trkpt>
<trkpt lat="46.1131570" lon="10.4749780">
	<ele>2005.60</ele>
	<time>2024-07-25T11:06:50.000Z</time>
</trkpt>
<trkpt lat="46.1131550" lon="10.4749580">
	<ele>2005.60</ele>
	<time>2024-07-25T11:06:51.000Z</time>
</trkpt>
<trkpt lat="46.1131540" lon="10.4749380">
	<ele>2005.60</ele>
	<time>2024-07-25T11:06:52.000Z</time>
</trkpt>
<trkpt lat="46.1131560" lon="10.4749180">
	<ele>2005.60</ele>
	<time>2024-07-25T11:06:53.000Z</time>
</trkpt>
<trkpt lat="46.1131600" lon="10.4748970">
	<ele>2005.60</ele>
	<time>2024-07-25T11:06:54.000Z</time>
</trkpt>
<trkpt lat="46.1131650" lon="10.4748780">
	<ele>2005.60</ele>
	<time>2024-07-25T11:06:55.000Z</time>
</trkpt>
<trkpt lat="46.1131690" lon="10.4748600">
	<ele>2005.60</ele>
	<time>2024-07-25T11:06:56.000Z</time>
</trkpt>
<trkpt lat="46.1131740" lon="10.4748410">
	<ele>2005.40</ele>
	<time>2024-07-25T11:06:57.000Z</time>
</trkpt>
<trkpt lat="46.1131760" lon="10.4748180">
	<ele>2005.40</ele>
	<time>2024-07-25T11:06:58.000Z</time>
</trkpt>
<trkpt lat="46.1131790" lon="10.4747990">
	<ele>2005.40</ele>
	<time>2024-07-25T11:06:59.000Z</time>
</trkpt>
<trkpt lat="46.1131840" lon="10.4747770">
	<ele>2005.40</ele>
	<time>2024-07-25T11:07:00.000Z</time>
</trkpt>
<trkpt lat="46.1131880" lon="10.4747590">
	<ele>2005.20</ele>
	<time>2024-07-25T11:07:01.000Z</time>
</trkpt>
<trkpt lat="46.1131940" lon="10.4747390">
	<ele>2005.20</ele>
	<time>2024-07-25T11:07:02.000Z</time>
</trkpt>
<trkpt lat="46.1131990" lon="10.4747120">
	<ele>2005.20</ele>
	<time>2024-07-25T11:07:03.000Z</time>
</trkpt>
<trkpt lat="46.1132000" lon="10.4746950">
	<ele>2005.20</ele>
	<time>2024-07-25T11:07:04.000Z</time>
</trkpt>
<trkpt lat="46.1132010" lon="10.4746850">
	<ele>2005.20</ele>
	<time>2024-07-25T11:07:05.000Z</time>
</trkpt>
<trkpt lat="46.1132020" lon="10.4746700">
	<ele>2005.20</ele>
	<time>2024-07-25T11:07:06.000Z</time>
</trkpt>
<trkpt lat="46.1132020" lon="10.4746550">
	<ele>2005.20</ele>
	<time>2024-07-25T11:07:07.000Z</time>
</trkpt>
<trkpt lat="46.1132020" lon="10.4746350">
	<ele>2005.20</ele>
	<time>2024-07-25T11:07:08.000Z</time>
</trkpt>
<trkpt lat="46.1132030" lon="10.4746140">
	<ele>2005.20</ele>
	<time>2024-07-25T11:07:09.000Z</time>
</trkpt>
<trkpt lat="46.1132020" lon="10.4745950">
	<ele>2005.20</ele>
	<time>2024-07-25T11:07:10.000Z</time>
</trkpt>
<trkpt lat="46.1131980" lon="10.4745790">
	<ele>2005.20</ele>
	<time>2024-07-25T11:07:11.000Z</time>
</trkpt>
<trkpt lat="46.1131930" lon="10.4745600">
	<ele>2005.00</ele>
	<time>2024-07-25T11:07:12.000Z</time>
</trkpt>
<trkpt lat="46.1131850" lon="10.4745410">
	<ele>2004.80</ele>
	<time>2024-07-25T11:07:13.000Z</time>
</trkpt>
<trkpt lat="46.1131750" lon="10.4745200">
	<ele>2004.80</ele>
	<time>2024-07-25T11:07:14.000Z</time>
</trkpt>
<trkpt lat="46.1131680" lon="10.4745010">
	<ele>2004.80</ele>
	<time>2024-07-25T11:07:15.000Z</time>
</trkpt>
<trkpt lat="46.1131590" lon="10.4744800">
	<ele>2004.80</ele>
	<time>2024-07-25T11:07:16.000Z</time>
</trkpt>
<trkpt lat="46.1131500" lon="10.4744620">
	<ele>2004.80</ele>
	<time>2024-07-25T11:07:17.000Z</time>
</trkpt>
<trkpt lat="46.1131440" lon="10.4744440">
	<ele>2004.80</ele>
	<time>2024-07-25T11:07:18.000Z</time>
</trkpt>
<trkpt lat="46.1131390" lon="10.4744260">
	<ele>2004.80</ele>
	<time>2024-07-25T11:07:19.000Z</time>
</trkpt>
<trkpt lat="46.1131350" lon="10.4744100">
	<ele>2004.60</ele>
	<time>2024-07-25T11:07:20.000Z</time>
</trkpt>
<trkpt lat="46.1131330" lon="10.4743970">
	<ele>2004.80</ele>
	<time>2024-07-25T11:07:21.000Z</time>
</trkpt>
<trkpt lat="46.1131280" lon="10.4743840">
	<ele>2004.80</ele>
	<time>2024-07-25T11:07:22.000Z</time>
</trkpt>
<trkpt lat="46.1131220" lon="10.4743690">
	<ele>2004.80</ele>
	<time>2024-07-25T11:07:23.000Z</time>
</trkpt>
<trkpt lat="46.1131140" lon="10.4743480">
	<ele>2004.80</ele>
	<time>2024-07-25T11:07:24.000Z</time>
</trkpt>
<trkpt lat="46.1131070" lon="10.4743260">
	<ele>2004.60</ele>
	<time>2024-07-25T11:07:25.000Z</time>
</trkpt>
<trkpt lat="46.1131010" lon="10.4743040">
	<ele>2004.60</ele>
	<time>2024-07-25T11:07:26.000Z</time>
</trkpt>
<trkpt lat="46.1130940" lon="10.4742820">
	<ele>2004.40</ele>
	<time>2024-07-25T11:07:27.000Z</time>
</trkpt>
<trkpt lat="46.1130850" lon="10.4742620">
	<ele>2004.40</ele>
	<time>2024-07-25T11:07:28.000Z</time>
</trkpt>
<trkpt lat="46.1130780" lon="10.4742490">
	<ele>2004.20</ele>
	<time>2024-07-25T11:07:29.000Z</time>
</trkpt>
<trkpt lat="46.1130710" lon="10.4742340">
	<ele>2004.20</ele>
	<time>2024-07-25T11:07:30.000Z</time>
</trkpt>
<trkpt lat="46.1130610" lon="10.4742200">
	<ele>2004.20</ele>
	<time>2024-07-25T11:07:31.000Z</time>
</trkpt>
<trkpt lat="46.1130500" lon="10.4742040">
	<ele>2004.20</ele>
	<time>2024-07-25T11:07:32.000Z</time>
</trkpt>
<trkpt lat="46.1130420" lon="10.4741880">
	<ele>2004.20</ele>
	<time>2024-07-25T11:07:33.000Z</time>
</trkpt>
<trkpt lat="46.1130320" lon="10.4741650">
	<ele>2004.20</ele>
	<time>2024-07-25T11:07:34.000Z</time>
</trkpt>
<trkpt lat="46.1130230" lon="10.4741500">
	<ele>2004.20</ele>
	<time>2024-07-25T11:07:35.000Z</time>
</trkpt>
<trkpt lat="46.1130100" lon="10.4741310">
	<ele>2004.20</ele>
	<time>2024-07-25T11:07:36.000Z</time>
</trkpt>
<trkpt lat="46.1129980" lon="10.4741120">
	<ele>2004.20</ele>
	<time>2024-07-25T11:07:37.000Z</time>
</trkpt>
<trkpt lat="46.1129900" lon="10.4741020">
	<ele>2004.20</ele>
	<time>2024-07-25T11:07:38.000Z</time>
</trkpt>
<trkpt lat="46.1129820" lon="10.4740910">
	<ele>2004.20</ele>
	<time>2024-07-25T11:07:39.000Z</time>
</trkpt>
<trkpt lat="46.1129730" lon="10.4740840">
	<ele>2004.20</ele>
	<time>2024-07-25T11:07:40.000Z</time>
</trkpt>
<trkpt lat="46.1129580" lon="10.4740720">
	<ele>2004.00</ele>
	<time>2024-07-25T11:07:41.000Z</time>
</trkpt>
<trkpt lat="46.1129450" lon="10.4740650">
	<ele>2004.00</ele>
	<time>2024-07-25T11:07:42.000Z</time>
</trkpt>
<trkpt lat="46.1129290" lon="10.4740550">
	<ele>2004.00</ele>
	<time>2024-07-25T11:07:43.000Z</time>
</trkpt>
<trkpt lat="46.1129160" lon="10.4740460">
	<ele>2004.00</ele>
	<time>2024-07-25T11:07:44.000Z</time>
</trkpt>
<trkpt lat="46.1129040" lon="10.4740370">
	<ele>2004.00</ele>
	<time>2024-07-25T11:07:45.000Z</time>
</trkpt>
<trkpt lat="46.1128930" lon="10.4740240">
	<ele>2004.00</ele>
	<time>2024-07-25T11:07:46.000Z</time>
</trkpt>
<trkpt lat="46.1128810" lon="10.4740120">
	<ele>2004.00</ele>
	<time>2024-07-25T11:07:47.000Z</time>
</trkpt>
<trkpt lat="46.1128670" lon="10.4740040">
	<ele>2004.00</ele>
	<time>2024-07-25T11:07:48.000Z</time>
</trkpt>
<trkpt lat="46.1128530" lon="10.4739960">
	<ele>2004.00</ele>
	<time>2024-07-25T11:07:49.000Z</time>
</trkpt>
<trkpt lat="46.1128370" lon="10.4739840">
	<ele>2003.80</ele>
	<time>2024-07-25T11:07:50.000Z</time>
</trkpt>
<trkpt lat="46.1128180" lon="10.4739700">
	<ele>2003.80</ele>
	<time>2024-07-25T11:07:51.000Z</time>
</trkpt>
<trkpt lat="46.1128070" lon="10.4739650">
	<ele>2003.80</ele>
	<time>2024-07-25T11:07:52.000Z</time>
</trkpt>
<trkpt lat="46.1127930" lon="10.4739530">
	<ele>2003.80</ele>
	<time>2024-07-25T11:07:53.000Z</time>
</trkpt>
<trkpt lat="46.1127800" lon="10.4739390">
	<ele>2003.80</ele>
	<time>2024-07-25T11:07:54.000Z</time>
</trkpt>
<trkpt lat="46.1127690" lon="10.4739250">
	<ele>2003.60</ele>
	<time>2024-07-25T11:07:55.000Z</time>
</trkpt>
<trkpt lat="46.1127600" lon="10.4739110">
	<ele>2003.60</ele>
	<time>2024-07-25T11:07:56.000Z</time>
</trkpt>
<trkpt lat="46.1127520" lon="10.4738970">
	<ele>2003.60</ele>
	<time>2024-07-25T11:07:57.000Z</time>
</trkpt>
<trkpt lat="46.1127470" lon="10.4738900">
	<ele>2003.60</ele>
	<time>2024-07-25T11:07:58.000Z</time>
</trkpt>
<trkpt lat="46.1127430" lon="10.4738840">
	<ele>2003.60</ele>
	<time>2024-07-25T11:07:59.000Z</time>
</trkpt>
<trkpt lat="46.1127410" lon="10.4738770">
	<ele>2003.40</ele>
	<time>2024-07-25T11:08:00.000Z</time>
</trkpt>
<trkpt lat="46.1127410" lon="10.4738670">
	<ele>2003.40</ele>
	<time>2024-07-25T11:08:01.000Z</time>
</trkpt>
<trkpt lat="46.1127330" lon="10.4738570">
	<ele>2003.40</ele>
	<time>2024-07-25T11:08:02.000Z</time>
</trkpt>
<trkpt lat="46.1127270" lon="10.4738540">
	<ele>2003.40</ele>
	<time>2024-07-25T11:08:03.000Z</time>
</trkpt>
<trkpt lat="46.1127150" lon="10.4738480">
	<ele>2003.40</ele>
	<time>2024-07-25T11:08:04.000Z</time>
</trkpt>
<trkpt lat="46.1127040" lon="10.4738400">
	<ele>2003.40</ele>
	<time>2024-07-25T11:08:05.000Z</time>
</trkpt>
<trkpt lat="46.1126930" lon="10.4738330">
	<ele>2003.40</ele>
	<time>2024-07-25T11:08:06.000Z</time>
</trkpt>
<trkpt lat="46.1126810" lon="10.4738230">
	<ele>2003.60</ele>
	<time>2024-07-25T11:08:07.000Z</time>
</trkpt>
<trkpt lat="46.1126670" lon="10.4738120">
	<ele>2003.60</ele>
	<time>2024-07-25T11:08:08.000Z</time>
</trkpt>
<trkpt lat="46.1126550" lon="10.4737970">
	<ele>2003.60</ele>
	<time>2024-07-25T11:08:09.000Z</time>
</trkpt>
<trkpt lat="46.1126430" lon="10.4737830">
	<ele>2003.60</ele>
	<time>2024-07-25T11:08:10.000Z</time>
</trkpt>
<trkpt lat="46.1126310" lon="10.4737700">
	<ele>2003.60</ele>
	<time>2024-07-25T11:08:11.000Z</time>
</trkpt>
<trkpt lat="46.1126210" lon="10.4737540">
	<ele>2003.80</ele>
	<time>2024-07-25T11:08:12.000Z</time>
</trkpt>
<trkpt lat="46.1126100" lon="10.4737370">
	<ele>2003.60</ele>
	<time>2024-07-25T11:08:13.000Z</time>
</trkpt>
<trkpt lat="46.1125950" lon="10.4737220">
	<ele>2003.60</ele>
	<time>2024-07-25T11:08:14.000Z</time>
</trkpt>
<trkpt lat="46.1125810" lon="10.4737060">
	<ele>2003.60</ele>
	<time>2024-07-25T11:08:15.000Z</time>
</trkpt>
<trkpt lat="46.1125720" lon="10.4736920">
	<ele>2003.40</ele>
	<time>2024-07-25T11:08:16.000Z</time>
</trkpt>
<trkpt lat="46.1125590" lon="10.4736740">
	<ele>2003.40</ele>
	<time>2024-07-25T11:08:17.000Z</time>
</trkpt>
<trkpt lat="46.1125450" lon="10.4736580">
	<ele>2003.40</ele>
	<time>2024-07-25T11:08:18.000Z</time>
</trkpt>
<trkpt lat="46.1125350" lon="10.4736420">
	<ele>2003.20</ele>
	<time>2024-07-25T11:08:19.000Z</time>
</trkpt>
<trkpt lat="46.1125240" lon="10.4736240">
	<ele>2003.20</ele>
	<time>2024-07-25T11:08:20.000Z</time>
</trkpt>
<trkpt lat="46.1125150" lon="10.4736080">
	<ele>2003.40</ele>
	<time>2024-07-25T11:08:21.000Z</time>
</trkpt>
<trkpt lat="46.1125030" lon="10.4735930">
	<ele>2003.40</ele>
	<time>2024-07-25T11:08:22.000Z</time>
</trkpt>
<trkpt lat="46.1124900" lon="10.4735790">
	<ele>2003.40</ele>
	<time>2024-07-25T11:08:23.000Z</time>
</trkpt>
<trkpt lat="46.1124780" lon="10.4735660">
	<ele>2003.40</ele>
	<time>2024-07-25T11:08:24.000Z</time>
</trkpt>
<trkpt lat="46.1124670" lon="10.4735520">
	<ele>2003.40</ele>
	<time>2024-07-25T11:08:25.000Z</time>
</trkpt>
<trkpt lat="46.1124570" lon="10.4735360">
	<ele>2003.20</ele>
	<time>2024-07-25T11:08:26.000Z</time>
</trkpt>
<trkpt lat="46.1124430" lon="10.4735180">
	<ele>2003.20</ele>
	<time>2024-07-25T11:08:27.000Z</time>
</trkpt>
<trkpt lat="46.1124320" lon="10.4735010">
	<ele>2003.00</ele>
	<time>2024-07-25T11:08:28.000Z</time>
</trkpt>
<trkpt lat="46.1124230" lon="10.4734880">
	<ele>2002.80</ele>
	<time>2024-07-25T11:08:29.000Z</time>
</trkpt>
<trkpt lat="46.1124140" lon="10.4734700">
	<ele>2002.80</ele>
	<time>2024-07-25T11:08:30.000Z</time>
</trkpt>
<trkpt lat="46.1124060" lon="10.4734530">
	<ele>2002.60</ele>
	<time>2024-07-25T11:08:31.000Z</time>
</trkpt>
<trkpt lat="46.1124010" lon="10.4734380">
	<ele>2002.60</ele>
	<time>2024-07-25T11:08:32.000Z</time>
</trkpt>
<trkpt lat="46.1123940" lon="10.4734200">
	<ele>2002.60</ele>
	<time>2024-07-25T11:08:33.000Z</time>
</trkpt>
<trkpt lat="46.1123870" lon="10.4734050">
	<ele>2002.40</ele>
	<time>2024-07-25T11:08:34.000Z</time>
</trkpt>
<trkpt lat="46.1123800" lon="10.4733920">
	<ele>2002.40</ele>
	<time>2024-07-25T11:08:35.000Z</time>
</trkpt>
<trkpt lat="46.1123710" lon="10.4733740">
	<ele>2002.40</ele>
	<time>2024-07-25T11:08:36.000Z</time>
</trkpt>
<trkpt lat="46.1123650" lon="10.4733550">
	<ele>2002.40</ele>
	<time>2024-07-25T11:08:37.000Z</time>
</trkpt>
<trkpt lat="46.1123600" lon="10.4733400">
	<ele>2002.40</ele>
	<time>2024-07-25T11:08:38.000Z</time>
</trkpt>
<trkpt lat="46.1123550" lon="10.4733220">
	<ele>2002.40</ele>
	<time>2024-07-25T11:08:39.000Z</time>
</trkpt>
<trkpt lat="46.1123480" lon="10.4733090">
	<ele>2002.40</ele>
	<time>2024-07-25T11:08:40.000Z</time>
</trkpt>
<trkpt lat="46.1123400" lon="10.4732950">
	<ele>2002.40</ele>
	<time>2024-07-25T11:08:41.000Z</time>
</trkpt>
<trkpt lat="46.1123330" lon="10.4732800">
	<ele>2002.40</ele>
	<time>2024-07-25T11:08:42.000Z</time>
</trkpt>
<trkpt lat="46.1123280" lon="10.4732630">
	<ele>2002.40</ele>
	<time>2024-07-25T11:08:43.000Z</time>
</trkpt>
<trkpt lat="46.1123220" lon="10.4732460">
	<ele>2002.40</ele>
	<time>2024-07-25T11:08:44.000Z</time>
</trkpt>
<trkpt lat="46.1123160" lon="10.4732350">
	<ele>2002.40</ele>
	<time>2024-07-25T11:08:45.000Z</time>
</trkpt>
<trkpt lat="46.1123040" lon="10.4732160">
	<ele>2002.20</ele>
	<time>2024-07-25T11:08:46.000Z</time>
</trkpt>
<trkpt lat="46.1122910" lon="10.4732000">
	<ele>2002.20</ele>
	<time>2024-07-25T11:08:47.000Z</time>
</trkpt>
<trkpt lat="46.1122800" lon="10.4731850">
	<ele>2002.20</ele>
	<time>2024-07-25T11:08:48.000Z</time>
</trkpt>
<trkpt lat="46.1122720" lon="10.4731680">
	<ele>2002.20</ele>
	<time>2024-07-25T11:08:49.000Z</time>
</trkpt>
<trkpt lat="46.1122660" lon="10.4731480">
	<ele>2002.20</ele>
	<time>2024-07-25T11:08:50.000Z</time>
</trkpt>
<trkpt lat="46.1122570" lon="10.4731310">
	<ele>2002.00</ele>
	<time>2024-07-25T11:08:51.000Z</time>
</trkpt>
<trkpt lat="46.1122470" lon="10.4731140">
	<ele>2002.20</ele>
	<time>2024-07-25T11:08:52.000Z</time>
</trkpt>
<trkpt lat="46.1122340" lon="10.4730980">
	<ele>2002.20</ele>
	<time>2024-07-25T11:08:53.000Z</time>
</trkpt>
<trkpt lat="46.1122220" lon="10.4730850">
	<ele>2002.20</ele>
	<time>2024-07-25T11:08:54.000Z</time>
</trkpt>
<trkpt lat="46.1122090" lon="10.4730690">
	<ele>2002.00</ele>
	<time>2024-07-25T11:08:55.000Z</time>
</trkpt>
<trkpt lat="46.1121990" lon="10.4730550">
	<ele>2002.00</ele>
	<time>2024-07-25T11:08:56.000Z</time>
</trkpt>
<trkpt lat="46.1121900" lon="10.4730380">
	<ele>2002.20</ele>
	<time>2024-07-25T11:08:57.000Z</time>
</trkpt>
<trkpt lat="46.1121820" lon="10.4730250">
	<ele>2002.20</ele>
	<time>2024-07-25T11:08:58.000Z</time>
</trkpt>
<trkpt lat="46.1121730" lon="10.4730110">
	<ele>2002.20</ele>
	<time>2024-07-25T11:08:59.000Z</time>
</trkpt>
<trkpt lat="46.1121640" lon="10.4729960">
	<ele>2002.20</ele>
	<time>2024-07-25T11:09:00.000Z</time>
</trkpt>
<trkpt lat="46.1121550" lon="10.4729820">
	<ele>2002.20</ele>
	<time>2024-07-25T11:09:01.000Z</time>
</trkpt>
<trkpt lat="46.1121450" lon="10.4729670">
	<ele>2002.20</ele>
	<time>2024-07-25T11:09:02.000Z</time>
</trkpt>
<trkpt lat="46.1121340" lon="10.4729490">
	<ele>2002.20</ele>
	<time>2024-07-25T11:09:03.000Z</time>
</trkpt>
<trkpt lat="46.1121260" lon="10.4729360">
	<ele>2002.20</ele>
	<time>2024-07-25T11:09:04.000Z</time>
</trkpt>
<trkpt lat="46.1121160" lon="10.4729240">
	<ele>2002.20</ele>
	<time>2024-07-25T11:09:05.000Z</time>
</trkpt>
<trkpt lat="46.1121070" lon="10.4729100">
	<ele>2002.20</ele>
	<time>2024-07-25T11:09:06.000Z</time>
</trkpt>
<trkpt lat="46.1120950" lon="10.4728920">
	<ele>2002.20</ele>
	<time>2024-07-25T11:09:07.000Z</time>
</trkpt>
<trkpt lat="46.1120890" lon="10.4728850">
	<ele>2002.00</ele>
	<time>2024-07-25T11:09:08.000Z</time>
</trkpt>
<trkpt lat="46.1120770" lon="10.4728690">
	<ele>2002.00</ele>
	<time>2024-07-25T11:09:09.000Z</time>
</trkpt>
<trkpt lat="46.1120710" lon="10.4728580">
	<ele>2002.00</ele>
	<time>2024-07-25T11:09:10.000Z</time>
</trkpt>
<trkpt lat="46.1120610" lon="10.4728430">
	<ele>2002.00</ele>
	<time>2024-07-25T11:09:11.000Z</time>
</trkpt>
<trkpt lat="46.1120520" lon="10.4728320">
	<ele>2002.00</ele>
	<time>2024-07-25T11:09:12.000Z</time>
</trkpt>
<trkpt lat="46.1120440" lon="10.4728200">
	<ele>2002.00</ele>
	<time>2024-07-25T11:09:13.000Z</time>
</trkpt>
<trkpt lat="46.1120380" lon="10.4728090">
	<ele>2002.00</ele>
	<time>2024-07-25T11:09:14.000Z</time>
</trkpt>
<trkpt lat="46.1120320" lon="10.4727980">
	<ele>2002.00</ele>
	<time>2024-07-25T11:09:15.000Z</time>
</trkpt>
<trkpt lat="46.1120200" lon="10.4727830">
	<ele>2002.00</ele>
	<time>2024-07-25T11:09:16.000Z</time>
</trkpt>
<trkpt lat="46.1120100" lon="10.4727700">
	<ele>2002.00</ele>
	<time>2024-07-25T11:09:17.000Z</time>
</trkpt>
<trkpt lat="46.1120020" lon="10.4727590">
	<ele>2002.00</ele>
	<time>2024-07-25T11:09:18.000Z</time>
</trkpt>
<trkpt lat="46.1119890" lon="10.4727450">
	<ele>2002.00</ele>
	<time>2024-07-25T11:09:19.000Z</time>
</trkpt>
<trkpt lat="46.1119750" lon="10.4727340">
	<ele>2001.80</ele>
	<time>2024-07-25T11:09:20.000Z</time>
</trkpt>
<trkpt lat="46.1119600" lon="10.4727220">
	<ele>2001.80</ele>
	<time>2024-07-25T11:09:21.000Z</time>
</trkpt>
<trkpt lat="46.1119490" lon="10.4727120">
	<ele>2001.80</ele>
	<time>2024-07-25T11:09:22.000Z</time>
</trkpt>
<trkpt lat="46.1119350" lon="10.4726990">
	<ele>2001.80</ele>
	<time>2024-07-25T11:09:23.000Z</time>
</trkpt>
<trkpt lat="46.1119280" lon="10.4726930">
	<ele>2001.80</ele>
	<time>2024-07-25T11:09:24.000Z</time>
</trkpt>
<trkpt lat="46.1119160" lon="10.4726790">
	<ele>2001.80</ele>
	<time>2024-07-25T11:09:25.000Z</time>
</trkpt>
<trkpt lat="46.1119070" lon="10.4726680">
	<ele>2001.60</ele>
	<time>2024-07-25T11:09:26.000Z</time>
</trkpt>
<trkpt lat="46.1118980" lon="10.4726540">
	<ele>2001.60</ele>
	<time>2024-07-25T11:09:27.000Z</time>
</trkpt>
<trkpt lat="46.1118880" lon="10.4726400">
	<ele>2001.60</ele>
	<time>2024-07-25T11:09:28.000Z</time>
</trkpt>
<trkpt lat="46.1118770" lon="10.4726270">
	<ele>2001.40</ele>
	<time>2024-07-25T11:09:29.000Z</time>
</trkpt>
<trkpt lat="46.1118660" lon="10.4726140">
	<ele>2001.40</ele>
	<time>2024-07-25T11:09:30.000Z</time>
</trkpt>
<trkpt lat="46.1118580" lon="10.4726000">
	<ele>2001.20</ele>
	<time>2024-07-25T11:09:31.000Z</time>
</trkpt>
<trkpt lat="46.1118480" lon="10.4725850">
	<ele>2001.20</ele>
	<time>2024-07-25T11:09:32.000Z</time>
</trkpt>
<trkpt lat="46.1118370" lon="10.4725730">
	<ele>2001.00</ele>
	<time>2024-07-25T11:09:33.000Z</time>
</trkpt>
<trkpt lat="46.1118260" lon="10.4725620">
	<ele>2001.00</ele>
	<time>2024-07-25T11:09:34.000Z</time>
</trkpt>
<trkpt lat="46.1118160" lon="10.4725480">
	<ele>2001.00</ele>
	<time>2024-07-25T11:09:35.000Z</time>
</trkpt>
<trkpt lat="46.1118060" lon="10.4725370">
	<ele>2001.00</ele>
	<time>2024-07-25T11:09:36.000Z</time>
</trkpt>
<trkpt lat="46.1117970" lon="10.4725300">
	<ele>2001.00</ele>
	<time>2024-07-25T11:09:37.000Z</time>
</trkpt>
<trkpt lat="46.1117850" lon="10.4725200">
	<ele>2001.00</ele>
	<time>2024-07-25T11:09:38.000Z</time>
</trkpt>
<trkpt lat="46.1117720" lon="10.4725120">
	<ele>2001.00</ele>
	<time>2024-07-25T11:09:39.000Z</time>
</trkpt>
<trkpt lat="46.1117580" lon="10.4725010">
	<ele>2001.00</ele>
	<time>2024-07-25T11:09:40.000Z</time>
</trkpt>
<trkpt lat="46.1117460" lon="10.4724910">
	<ele>2001.00</ele>
	<time>2024-07-25T11:09:41.000Z</time>
</trkpt>
<trkpt lat="46.1117360" lon="10.4724850">
	<ele>2001.00</ele>
	<time>2024-07-25T11:09:42.000Z</time>
</trkpt>
<trkpt lat="46.1117270" lon="10.4724770">
	<ele>2000.80</ele>
	<time>2024-07-25T11:09:43.000Z</time>
</trkpt>
<trkpt lat="46.1117160" lon="10.4724670">
	<ele>2000.60</ele>
	<time>2024-07-25T11:09:44.000Z</time>
</trkpt>
<trkpt lat="46.1117050" lon="10.4724570">
	<ele>2000.60</ele>
	<time>2024-07-25T11:09:45.000Z</time>
</trkpt>
<trkpt lat="46.1116960" lon="10.4724420">
	<ele>2000.40</ele>
	<time>2024-07-25T11:09:46.000Z</time>
</trkpt>
<trkpt lat="46.1116870" lon="10.4724260">
	<ele>2000.40</ele>
	<time>2024-07-25T11:09:47.000Z</time>
</trkpt>
<trkpt lat="46.1116800" lon="10.4724070">
	<ele>2000.40</ele>
	<time>2024-07-25T11:09:48.000Z</time>
</trkpt>
<trkpt lat="46.1116750" lon="10.4723870">
	<ele>2000.40</ele>
	<time>2024-07-25T11:09:49.000Z</time>
</trkpt>
<trkpt lat="46.1116710" lon="10.4723660">
	<ele>2000.20</ele>
	<time>2024-07-25T11:09:50.000Z</time>
</trkpt>
<trkpt lat="46.1116700" lon="10.4723470">
	<ele>2000.20</ele>
	<time>2024-07-25T11:09:51.000Z</time>
</trkpt>
<trkpt lat="46.1116670" lon="10.4723290">
	<ele>2000.20</ele>
	<time>2024-07-25T11:09:52.000Z</time>
</trkpt>
<trkpt lat="46.1116640" lon="10.4723110">
	<ele>2000.60</ele>
	<time>2024-07-25T11:09:53.000Z</time>
</trkpt>
<trkpt lat="46.1116620" lon="10.4722980">
	<ele>2000.60</ele>
	<time>2024-07-25T11:09:54.000Z</time>
</trkpt>
<trkpt lat="46.1116610" lon="10.4722900">
	<ele>2000.60</ele>
	<time>2024-07-25T11:09:55.000Z</time>
</trkpt>
<trkpt lat="46.1116590" lon="10.4722860">
	<ele>2000.60</ele>
	<time>2024-07-25T11:09:56.000Z</time>
</trkpt>
<trkpt lat="46.1116560" lon="10.4722830">
	<ele>2000.60</ele>
	<time>2024-07-25T11:09:57.000Z</time>
</trkpt>
<trkpt lat="46.1116570" lon="10.4722830">
	<ele>2000.80</ele>
	<time>2024-07-25T11:09:58.000Z</time>
</trkpt>
<trkpt lat="46.1116580" lon="10.4722830">
	<ele>2000.80</ele>
	<time>2024-07-25T11:09:59.000Z</time>
</trkpt>
<trkpt lat="46.1116590" lon="10.4722840">
	<ele>2000.60</ele>
	<time>2024-07-25T11:10:00.000Z</time>
</trkpt>
<trkpt lat="46.1116610" lon="10.4722830">
	<ele>2000.60</ele>
	<time>2024-07-25T11:10:01.000Z</time>
</trkpt>
<trkpt lat="46.1116630" lon="10.4722830">
	<ele>2000.60</ele>
	<time>2024-07-25T11:10:02.000Z</time>
</trkpt>
<trkpt lat="46.1116600" lon="10.4722810">
	<ele>2000.60</ele>
	<time>2024-07-25T11:10:03.000Z</time>
</trkpt>
<trkpt lat="46.1116580" lon="10.4722810">
	<ele>2000.80</ele>
	<time>2024-07-25T11:10:04.000Z</time>
</trkpt>
<trkpt lat="46.1116580" lon="10.4722810">
	<ele>2000.80</ele>
	<time>2024-07-25T11:10:05.000Z</time>
</trkpt>
<trkpt lat="46.1116560" lon="10.4722820">
	<ele>2000.80</ele>
	<time>2024-07-25T11:10:06.000Z</time>
</trkpt>
<trkpt lat="46.1116540" lon="10.4722810">
	<ele>2000.80</ele>
	<time>2024-07-25T11:10:07.000Z</time>
</trkpt>
<trkpt lat="46.1116540" lon="10.4722800">
	<ele>2000.80</ele>
	<time>2024-07-25T11:10:08.000Z</time>
</trkpt>
<trkpt lat="46.1116520" lon="10.4722790">
	<ele>2000.80</ele>
	<time>2024-07-25T11:10:09.000Z</time>
</trkpt>
<trkpt lat="46.1116520" lon="10.4722790">
	<ele>2000.80</ele>
	<time>2024-07-25T11:10:10.000Z</time>
</trkpt>
<trkpt lat="46.1116520" lon="10.4722790">
	<ele>2000.80</ele>
	<time>2024-07-25T11:10:11.000Z</time>
</trkpt>
<trkpt lat="46.1116520" lon="10.4722790">
	<ele>2000.60</ele>
	<time>2024-07-25T11:10:12.000Z</time>
</trkpt>
<trkpt lat="46.1116520" lon="10.4722790">
	<ele>2000.60</ele>
	<time>2024-07-25T11:10:13.000Z</time>
</trkpt>
<trkpt lat="46.1116520" lon="10.4722790">
	<ele>2000.40</ele>
	<time>2024-07-25T11:10:14.000Z</time>
</trkpt>
<trkpt lat="46.1116520" lon="10.4722790">
	<ele>2000.20</ele>
	<time>2024-07-25T11:10:15.000Z</time>
</trkpt>
<trkpt lat="46.1116520" lon="10.4722790">
	<ele>2000.00</ele>
	<time>2024-07-25T11:10:16.000Z</time>
</trkpt>
<trkpt lat="46.1116520" lon="10.4722790">
	<ele>1999.60</ele>
	<time>2024-07-25T11:10:17.000Z</time>
</trkpt>
<trkpt lat="46.1116540" lon="10.4722720">
	<ele>1999.40</ele>
	<time>2024-07-25T11:10:18.000Z</time>
</trkpt>
<trkpt lat="46.1116580" lon="10.4722480">
	<ele>1999.40</ele>
	<time>2024-07-25T11:10:19.000Z</time>
</trkpt>
<trkpt lat="46.1116600" lon="10.4722280">
	<ele>1999.40</ele>
	<time>2024-07-25T11:10:20.000Z</time>
</trkpt>
<trkpt lat="46.1116620" lon="10.4722060">
	<ele>1999.40</ele>
	<time>2024-07-25T11:10:21.000Z</time>
</trkpt>
<trkpt lat="46.1116670" lon="10.4721840">
	<ele>1999.60</ele>
	<time>2024-07-25T11:10:22.000Z</time>
</trkpt>
<trkpt lat="46.1116690" lon="10.4721660">
	<ele>1999.20</ele>
	<time>2024-07-25T11:10:23.000Z</time>
</trkpt>
<trkpt lat="46.1116700" lon="10.4721520">
	<ele>1999.20</ele>
	<time>2024-07-25T11:10:24.000Z</time>
</trkpt>
<trkpt lat="46.1116720" lon="10.4721430">
	<ele>1999.20</ele>
	<time>2024-07-25T11:10:25.000Z</time>
</trkpt>
<trkpt lat="46.1116750" lon="10.4721350">
	<ele>1999.00</ele>
	<time>2024-07-25T11:10:26.000Z</time>
</trkpt>
<trkpt lat="46.1116770" lon="10.4721280">
	<ele>1999.00</ele>
	<time>2024-07-25T11:10:27.000Z</time>
</trkpt>
<trkpt lat="46.1116840" lon="10.4721300">
	<ele>1998.80</ele>
	<time>2024-07-25T11:10:28.000Z</time>
</trkpt>
<trkpt lat="46.1116980" lon="10.4721290">
	<ele>1998.80</ele>
	<time>2024-07-25T11:10:29.000Z</time>
</trkpt>
<trkpt lat="46.1117060" lon="10.4721250">
	<ele>1998.80</ele>
	<time>2024-07-25T11:10:30.000Z</time>
</trkpt>
<trkpt lat="46.1117190" lon="10.4721200">
	<ele>1998.80</ele>
	<time>2024-07-25T11:10:31.000Z</time>
</trkpt>
<trkpt lat="46.1117300" lon="10.4721120">
	<ele>1998.80</ele>
	<time>2024-07-25T11:10:32.000Z</time>
</trkpt>
<trkpt lat="46.1117420" lon="10.4721040">
	<ele>1998.80</ele>
	<time>2024-07-25T11:10:33.000Z</time>
</trkpt>
<trkpt lat="46.1117510" lon="10.4720910">
	<ele>1998.80</ele>
	<time>2024-07-25T11:10:34.000Z</time>
</trkpt>
<trkpt lat="46.1117550" lon="10.4720820">
	<ele>1998.80</ele>
	<time>2024-07-25T11:10:35.000Z</time>
</trkpt>
<trkpt lat="46.1117610" lon="10.4720720">
	<ele>1998.80</ele>
	<time>2024-07-25T11:10:36.000Z</time>
</trkpt>
<trkpt lat="46.1117800" lon="10.4720640">
	<ele>1998.60</ele>
	<time>2024-07-25T11:10:37.000Z</time>
</trkpt>
<trkpt lat="46.1117910" lon="10.4720590">
	<ele>1998.20</ele>
	<time>2024-07-25T11:10:38.000Z</time>
</trkpt>
<trkpt lat="46.1118040" lon="10.4720480">
	<ele>1998.00</ele>
	<time>2024-07-25T11:10:39.000Z</time>
</trkpt>
<trkpt lat="46.1118110" lon="10.4720410">
	<ele>1998.00</ele>
	<time>2024-07-25T11:10:40.000Z</time>
</trkpt>
<trkpt lat="46.1118190" lon="10.4720340">
	<ele>1997.80</ele>
	<time>2024-07-25T11:10:41.000Z</time>
</trkpt>
<trkpt lat="46.1118190" lon="10.4720170">
	<ele>1997.60</ele>
	<time>2024-07-25T11:10:42.000Z</time>
</trkpt>
<trkpt lat="46.1118280" lon="10.4720100">
	<ele>1997.20</ele>
	<time>2024-07-25T11:10:43.000Z</time>
</trkpt>
<trkpt lat="46.1118280" lon="10.4719900">
	<ele>1996.80</ele>
	<time>2024-07-25T11:10:44.000Z</time>
</trkpt>
<trkpt lat="46.1118360" lon="10.4719790">
	<ele>1996.40</ele>
	<time>2024-07-25T11:10:45.000Z</time>
</trkpt>
<trkpt lat="46.1118470" lon="10.4719740">
	<ele>1996.20</ele>
	<time>2024-07-25T11:10:46.000Z</time>
</trkpt>
<trkpt lat="46.1118510" lon="10.4719690">
	<ele>1996.00</ele>
	<time>2024-07-25T11:10:47.000Z</time>
</trkpt>
<trkpt lat="46.1118590" lon="10.4719600">
	<ele>1995.80</ele>
	<time>2024-07-25T11:10:48.000Z</time>
</trkpt>
<trkpt lat="46.1118700" lon="10.4719560">
	<ele>1995.60</ele>
	<time>2024-07-25T11:10:49.000Z</time>
</trkpt>
<trkpt lat="46.1118810" lon="10.4719530">
	<ele>1995.60</ele>
	<time>2024-07-25T11:10:50.000Z</time>
</trkpt>
<trkpt lat="46.1118750" lon="10.4719370">
	<ele>1995.00</ele>
	<time>2024-07-25T11:10:51.000Z</time>
</trkpt>
<trkpt lat="46.1118750" lon="10.4719230">
	<ele>1994.80</ele>
	<time>2024-07-25T11:10:52.000Z</time>
</trkpt>
<trkpt lat="46.1118810" lon="10.4719170">
	<ele>1994.40</ele>
	<time>2024-07-25T11:10:53.000Z</time>
</trkpt>
<trkpt lat="46.1118950" lon="10.4719140">
	<ele>1994.20</ele>
	<time>2024-07-25T11:10:54.000Z</time>
</trkpt>
<trkpt lat="46.1119080" lon="10.4719080">
	<ele>1994.20</ele>
	<time>2024-07-25T11:10:55.000Z</time>
</trkpt>
<trkpt lat="46.1119190" lon="10.4719050">
	<ele>1993.80</ele>
	<time>2024-07-25T11:10:56.000Z</time>
</trkpt>
<trkpt lat="46.1119250" lon="10.4719050">
	<ele>1993.60</ele>
	<time>2024-07-25T11:10:57.000Z</time>
</trkpt>
<trkpt lat="46.1119360" lon="10.4719080">
	<ele>1993.40</ele>
	<time>2024-07-25T11:10:58.000Z</time>
</trkpt>
<trkpt lat="46.1119440" lon="10.4719110">
	<ele>1993.20</ele>
	<time>2024-07-25T11:10:59.000Z</time>
</trkpt>
<trkpt lat="46.1119570" lon="10.4719130">
	<ele>1993.20</ele>
	<time>2024-07-25T11:11:00.000Z</time>
</trkpt>
<trkpt lat="46.1119690" lon="10.4719220">
	<ele>1993.00</ele>
	<time>2024-07-25T11:11:01.000Z</time>
</trkpt>
<trkpt lat="46.1119750" lon="10.4719310">
	<ele>1993.00</ele>
	<time>2024-07-25T11:11:02.000Z</time>
</trkpt>
<trkpt lat="46.1119850" lon="10.4719470">
	<ele>1993.00</ele>
	<time>2024-07-25T11:11:03.000Z</time>
</trkpt>
<trkpt lat="46.1119900" lon="10.4719620">
	<ele>1992.80</ele>
	<time>2024-07-25T11:11:04.000Z</time>
</trkpt>
<trkpt lat="46.1119940" lon="10.4719760">
	<ele>1992.80</ele>
	<time>2024-07-25T11:11:05.000Z</time>
</trkpt>
<trkpt lat="46.1120010" lon="10.4720040">
	<ele>1992.80</ele>
	<time>2024-07-25T11:11:06.000Z</time>
</trkpt>
<trkpt lat="46.1120010" lon="10.4720230">
	<ele>1992.80</ele>
	<time>2024-07-25T11:11:07.000Z</time>
</trkpt>
<trkpt lat="46.1120110" lon="10.4720540">
	<ele>1992.80</ele>
	<time>2024-07-25T11:11:08.000Z</time>
</trkpt>
<trkpt lat="46.1120290" lon="10.4720980">
	<ele>1992.80</ele>
	<time>2024-07-25T11:11:09.000Z</time>
</trkpt>
<trkpt lat="46.1120500" lon="10.4721280">
	<ele>1992.80</ele>
	<time>2024-07-25T11:11:10.000Z</time>
</trkpt>
<trkpt lat="46.1120660" lon="10.4721240">
	<ele>1992.40</ele>
	<time>2024-07-25T11:11:11.000Z</time>
</trkpt>
<trkpt lat="46.1120800" lon="10.4721260">
	<ele>1992.40</ele>
	<time>2024-07-25T11:11:12.000Z</time>
</trkpt>
<trkpt lat="46.1120890" lon="10.4721280">
	<ele>1992.20</ele>
	<time>2024-07-25T11:11:13.000Z</time>
</trkpt>
<trkpt lat="46.1120980" lon="10.4721330">
	<ele>1992.00</ele>
	<time>2024-07-25T11:11:14.000Z</time>
</trkpt>
<trkpt lat="46.1120970" lon="10.4721300">
	<ele>1991.80</ele>
	<time>2024-07-25T11:11:15.000Z</time>
</trkpt>
<trkpt lat="46.1121020" lon="10.4721300">
	<ele>1991.60</ele>
	<time>2024-07-25T11:11:16.000Z</time>
</trkpt>
<trkpt lat="46.1121040" lon="10.4721280">
	<ele>1991.40</ele>
	<time>2024-07-25T11:11:17.000Z</time>
</trkpt>
<trkpt lat="46.1121120" lon="10.4721240">
	<ele>1991.40</ele>
	<time>2024-07-25T11:11:18.000Z</time>
</trkpt>
<trkpt lat="46.1121250" lon="10.4721230">
	<ele>1991.40</ele>
	<time>2024-07-25T11:11:19.000Z</time>
</trkpt>
<trkpt lat="46.1121330" lon="10.4721180">
	<ele>1991.20</ele>
	<time>2024-07-25T11:11:20.000Z</time>
</trkpt>
<trkpt lat="46.1121470" lon="10.4721150">
	<ele>1991.00</ele>
	<time>2024-07-25T11:11:21.000Z</time>
</trkpt>
<trkpt lat="46.1121480" lon="10.4721240">
	<ele>1990.80</ele>
	<time>2024-07-25T11:11:22.000Z</time>
</trkpt>
<trkpt lat="46.1121650" lon="10.4721210">
	<ele>1990.60</ele>
	<time>2024-07-25T11:11:23.000Z</time>
</trkpt>
<trkpt lat="46.1121730" lon="10.4721100">
	<ele>1990.40</ele>
	<time>2024-07-25T11:11:24.000Z</time>
</trkpt>
<trkpt lat="46.1121850" lon="10.4721000">
	<ele>1990.40</ele>
	<time>2024-07-25T11:11:25.000Z</time>
</trkpt>
<trkpt lat="46.1122000" lon="10.4720870">
	<ele>1990.20</ele>
	<time>2024-07-25T11:11:26.000Z</time>
</trkpt>
<trkpt lat="46.1122130" lon="10.4720750">
	<ele>1990.00</ele>
	<time>2024-07-25T11:11:27.000Z</time>
</trkpt>
<trkpt lat="46.1122230" lon="10.4720580">
	<ele>1989.60</ele>
	<time>2024-07-25T11:11:28.000Z</time>
</trkpt>
<trkpt lat="46.1122340" lon="10.4720480">
	<ele>1989.40</ele>
	<time>2024-07-25T11:11:29.000Z</time>
</trkpt>
<trkpt lat="46.1122500" lon="10.4720370">
	<ele>1989.20</ele>
	<time>2024-07-25T11:11:30.000Z</time>
</trkpt>
<trkpt lat="46.1122600" lon="10.4720240">
	<ele>1988.80</ele>
	<time>2024-07-25T11:11:31.000Z</time>
</trkpt>
<trkpt lat="46.1122640" lon="10.4720000">
	<ele>1988.40</ele>
	<time>2024-07-25T11:11:32.000Z</time>
</trkpt>
<trkpt lat="46.1122730" lon="10.4719870">
	<ele>1988.00</ele>
	<time>2024-07-25T11:11:33.000Z</time>
</trkpt>
<trkpt lat="46.1122790" lon="10.4719770">
	<ele>1987.80</ele>
	<time>2024-07-25T11:11:34.000Z</time>
</trkpt>
<trkpt lat="46.1122910" lon="10.4719700">
	<ele>1987.80</ele>
	<time>2024-07-25T11:11:35.000Z</time>
</trkpt>
<trkpt lat="46.1122970" lon="10.4719520">
	<ele>1987.60</ele>
	<time>2024-07-25T11:11:36.000Z</time>
</trkpt>
<trkpt lat="46.1123000" lon="10.4719230">
	<ele>1987.60</ele>
	<time>2024-07-25T11:11:37.000Z</time>
</trkpt>
<trkpt lat="46.1123030" lon="10.4719050">
	<ele>1987.20</ele>
	<time>2024-07-25T11:11:38.000Z</time>
</trkpt>
<trkpt lat="46.1123080" lon="10.4718870">
	<ele>1987.00</ele>
	<time>2024-07-25T11:11:39.000Z</time>
</trkpt>
<trkpt lat="46.1123070" lon="10.4718660">
	<ele>1986.80</ele>
	<time>2024-07-25T11:11:40.000Z</time>
</trkpt>
<trkpt lat="46.1123180" lon="10.4718440">
	<ele>1986.60</ele>
	<time>2024-07-25T11:11:41.000Z</time>
</trkpt>
<trkpt lat="46.1123300" lon="10.4718300">
	<ele>1986.20</ele>
	<time>2024-07-25T11:11:42.000Z</time>
</trkpt>
<trkpt lat="46.1123430" lon="10.4718170">
	<ele>1986.20</ele>
	<time>2024-07-25T11:11:43.000Z</time>
</trkpt>
<trkpt lat="46.1123490" lon="10.4717970">
	<ele>1986.00</ele>
	<time>2024-07-25T11:11:44.000Z</time>
</trkpt>
<trkpt lat="46.1123530" lon="10.4717770">
	<ele>1985.80</ele>
	<time>2024-07-25T11:11:45.000Z</time>
</trkpt>
<trkpt lat="46.1123520" lon="10.4717490">
	<ele>1985.60</ele>
	<time>2024-07-25T11:11:46.000Z</time>
</trkpt>
<trkpt lat="46.1123550" lon="10.4717310">
	<ele>1985.40</ele>
	<time>2024-07-25T11:11:47.000Z</time>
</trkpt>
<trkpt lat="46.1123550" lon="10.4717000">
	<ele>1985.40</ele>
	<time>2024-07-25T11:11:48.000Z</time>
</trkpt>
<trkpt lat="46.1123640" lon="10.4716830">
	<ele>1985.20</ele>
	<time>2024-07-25T11:11:49.000Z</time>
</trkpt>
<trkpt lat="46.1123710" lon="10.4716760">
	<ele>1985.20</ele>
	<time>2024-07-25T11:11:50.000Z</time>
</trkpt>
<trkpt lat="46.1123760" lon="10.4716610">
	<ele>1984.80</ele>
	<time>2024-07-25T11:11:51.000Z</time>
</trkpt>
<trkpt lat="46.1123800" lon="10.4716430">
	<ele>1984.60</ele>
	<time>2024-07-25T11:11:52.000Z</time>
</trkpt>
<trkpt lat="46.1123800" lon="10.4716260">
	<ele>1984.60</ele>
	<time>2024-07-25T11:11:53.000Z</time>
</trkpt>
<trkpt lat="46.1123750" lon="10.4716110">
	<ele>1984.40</ele>
	<time>2024-07-25T11:11:54.000Z</time>
</trkpt>
<trkpt lat="46.1123720" lon="10.4715960">
	<ele>1984.20</ele>
	<time>2024-07-25T11:11:55.000Z</time>
</trkpt>
<trkpt lat="46.1123770" lon="10.4715800">
	<ele>1984.20</ele>
	<time>2024-07-25T11:11:56.000Z</time>
</trkpt>
<trkpt lat="46.1123810" lon="10.4715640">
	<ele>1984.00</ele>
	<time>2024-07-25T11:11:57.000Z</time>
</trkpt>
<trkpt lat="46.1123850" lon="10.4715420">
	<ele>1983.60</ele>
	<time>2024-07-25T11:11:58.000Z</time>
</trkpt>
<trkpt lat="46.1123920" lon="10.4715180">
	<ele>1983.20</ele>
	<time>2024-07-25T11:11:59.000Z</time>
</trkpt>
<trkpt lat="46.1124010" lon="10.4715030">
	<ele>1982.80</ele>
	<time>2024-07-25T11:12:00.000Z</time>
</trkpt>
<trkpt lat="46.1124100" lon="10.4714890">
	<ele>1982.60</ele>
	<time>2024-07-25T11:12:01.000Z</time>
</trkpt>
<trkpt lat="46.1124100" lon="10.4714730">
	<ele>1982.40</ele>
	<time>2024-07-25T11:12:02.000Z</time>
</trkpt>
<trkpt lat="46.1124150" lon="10.4714570">
	<ele>1982.40</ele>
	<time>2024-07-25T11:12:03.000Z</time>
</trkpt>
<trkpt lat="46.1124210" lon="10.4714430">
	<ele>1982.20</ele>
	<time>2024-07-25T11:12:04.000Z</time>
</trkpt>
<trkpt lat="46.1124230" lon="10.4714300">
	<ele>1982.00</ele>
	<time>2024-07-25T11:12:05.000Z</time>
</trkpt>
<trkpt lat="46.1124280" lon="10.4714240">
	<ele>1981.60</ele>
	<time>2024-07-25T11:12:06.000Z</time>
</trkpt>
<trkpt lat="46.1124400" lon="10.4714120">
	<ele>1981.60</ele>
	<time>2024-07-25T11:12:07.000Z</time>
</trkpt>
<trkpt lat="46.1124490" lon="10.4714030">
	<ele>1981.20</ele>
	<time>2024-07-25T11:12:08.000Z</time>
</trkpt>
<trkpt lat="46.1124560" lon="10.4713920">
	<ele>1981.00</ele>
	<time>2024-07-25T11:12:09.000Z</time>
</trkpt>
<trkpt lat="46.1124610" lon="10.4713810">
	<ele>1980.80</ele>
	<time>2024-07-25T11:12:10.000Z</time>
</trkpt>
<trkpt lat="46.1124660" lon="10.4713690">
	<ele>1980.60</ele>
	<time>2024-07-25T11:12:11.000Z</time>
</trkpt>
<trkpt lat="46.1124760" lon="10.4713650">
	<ele>1980.40</ele>
	<time>2024-07-25T11:12:12.000Z</time>
</trkpt>
<trkpt lat="46.1124850" lon="10.4713590">
	<ele>1980.20</ele>
	<time>2024-07-25T11:12:13.000Z</time>
</trkpt>
<trkpt lat="46.1124940" lon="10.4713490">
	<ele>1980.00</ele>
	<time>2024-07-25T11:12:14.000Z</time>
</trkpt>
<trkpt lat="46.1125090" lon="10.4713370">
	<ele>1979.80</ele>
	<time>2024-07-25T11:12:15.000Z</time>
</trkpt>
<trkpt lat="46.1125260" lon="10.4713250">
	<ele>1979.60</ele>
	<time>2024-07-25T11:12:16.000Z</time>
</trkpt>
<trkpt lat="46.1125370" lon="10.4713090">
	<ele>1979.40</ele>
	<time>2024-07-25T11:12:17.000Z</time>
</trkpt>
<trkpt lat="46.1125430" lon="10.4712940">
	<ele>1979.20</ele>
	<time>2024-07-25T11:12:18.000Z</time>
</trkpt>
<trkpt lat="46.1125520" lon="10.4712800">
	<ele>1979.20</ele>
	<time>2024-07-25T11:12:19.000Z</time>
</trkpt>
<trkpt lat="46.1125660" lon="10.4712660">
	<ele>1979.00</ele>
	<time>2024-07-25T11:12:20.000Z</time>
</trkpt>
<trkpt lat="46.1125770" lon="10.4712480">
	<ele>1978.80</ele>
	<time>2024-07-25T11:12:21.000Z</time>
</trkpt>
<trkpt lat="46.1125850" lon="10.4712310">
	<ele>1978.60</ele>
	<time>2024-07-25T11:12:22.000Z</time>
</trkpt>
<trkpt lat="46.1125900" lon="10.4712100">
	<ele>1978.20</ele>
	<time>2024-07-25T11:12:23.000Z</time>
</trkpt>
<trkpt lat="46.1125830" lon="10.4711830">
	<ele>1978.00</ele>
	<time>2024-07-25T11:12:24.000Z</time>
</trkpt>
<trkpt lat="46.1125830" lon="10.4711620">
	<ele>1977.60</ele>
	<time>2024-07-25T11:12:25.000Z</time>
</trkpt>
<trkpt lat="46.1125870" lon="10.4711450">
	<ele>1977.40</ele>
	<time>2024-07-25T11:12:26.000Z</time>
</trkpt>
<trkpt lat="46.1125900" lon="10.4711300">
	<ele>1977.40</ele>
	<time>2024-07-25T11:12:27.000Z</time>
</trkpt>
<trkpt lat="46.1125950" lon="10.4711180">
	<ele>1977.20</ele>
	<time>2024-07-25T11:12:28.000Z</time>
</trkpt>
<trkpt lat="46.1126000" lon="10.4711080">
	<ele>1976.80</ele>
	<time>2024-07-25T11:12:29.000Z</time>
</trkpt>
<trkpt lat="46.1126070" lon="10.4710900">
	<ele>1976.60</ele>
	<time>2024-07-25T11:12:30.000Z</time>
</trkpt>
<trkpt lat="46.1126140" lon="10.4710690">
	<ele>1976.40</ele>
	<time>2024-07-25T11:12:31.000Z</time>
</trkpt>
<trkpt lat="46.1126160" lon="10.4710470">
	<ele>1976.20</ele>
	<time>2024-07-25T11:12:32.000Z</time>
</trkpt>
<trkpt lat="46.1126110" lon="10.4710170">
	<ele>1975.80</ele>
	<time>2024-07-25T11:12:33.000Z</time>
</trkpt>
<trkpt lat="46.1126120" lon="10.4709960">
	<ele>1975.60</ele>
	<time>2024-07-25T11:12:34.000Z</time>
</trkpt>
<trkpt lat="46.1126210" lon="10.4709830">
	<ele>1975.40</ele>
	<time>2024-07-25T11:12:35.000Z</time>
</trkpt>
<trkpt lat="46.1126200" lon="10.4709620">
	<ele>1975.20</ele>
	<time>2024-07-25T11:12:36.000Z</time>
</trkpt>
<trkpt lat="46.1126220" lon="10.4709450">
	<ele>1975.20</ele>
	<time>2024-07-25T11:12:37.000Z</time>
</trkpt>
<trkpt lat="46.1126350" lon="10.4709330">
	<ele>1974.80</ele>
	<time>2024-07-25T11:12:38.000Z</time>
</trkpt>
<trkpt lat="46.1126370" lon="10.4709130">
	<ele>1974.60</ele>
	<time>2024-07-25T11:12:39.000Z</time>
</trkpt>
<trkpt lat="46.1126380" lon="10.4709010">
	<ele>1974.40</ele>
	<time>2024-07-25T11:12:40.000Z</time>
</trkpt>
<trkpt lat="46.1126450" lon="10.4708860">
	<ele>1974.00</ele>
	<time>2024-07-25T11:12:41.000Z</time>
</trkpt>
<trkpt lat="46.1126470" lon="10.4708750">
	<ele>1973.60</ele>
	<time>2024-07-25T11:12:42.000Z</time>
</trkpt>
<trkpt lat="46.1126450" lon="10.4708470">
	<ele>1973.40</ele>
	<time>2024-07-25T11:12:43.000Z</time>
</trkpt>
<trkpt lat="46.1126510" lon="10.4708290">
	<ele>1973.20</ele>
	<time>2024-07-25T11:12:44.000Z</time>
</trkpt>
<trkpt lat="46.1126580" lon="10.4708170">
	<ele>1973.20</ele>
	<time>2024-07-25T11:12:45.000Z</time>
</trkpt>
<trkpt lat="46.1126650" lon="10.4708030">
	<ele>1973.00</ele>
	<time>2024-07-25T11:12:46.000Z</time>
</trkpt>
<trkpt lat="46.1126700" lon="10.4707870">
	<ele>1972.80</ele>
	<time>2024-07-25T11:12:47.000Z</time>
</trkpt>
<trkpt lat="46.1126810" lon="10.4707760">
	<ele>1972.60</ele>
	<time>2024-07-25T11:12:48.000Z</time>
</trkpt>
<trkpt lat="46.1126850" lon="10.4707620">
	<ele>1972.60</ele>
	<time>2024-07-25T11:12:49.000Z</time>
</trkpt>
<trkpt lat="46.1126910" lon="10.4707500">
	<ele>1972.40</ele>
	<time>2024-07-25T11:12:50.000Z</time>
</trkpt>
<trkpt lat="46.1126980" lon="10.4707370">
	<ele>1972.20</ele>
	<time>2024-07-25T11:12:51.000Z</time>
</trkpt>
<trkpt lat="46.1126990" lon="10.4707200">
	<ele>1972.00</ele>
	<time>2024-07-25T11:12:52.000Z</time>
</trkpt>
<trkpt lat="46.1127030" lon="10.4707080">
	<ele>1972.00</ele>
	<time>2024-07-25T11:12:53.000Z</time>
</trkpt>
<trkpt lat="46.1127110" lon="10.4706980">
	<ele>1971.80</ele>
	<time>2024-07-25T11:12:54.000Z</time>
</trkpt>
<trkpt lat="46.1127140" lon="10.4706820">
	<ele>1971.40</ele>
	<time>2024-07-25T11:12:55.000Z</time>
</trkpt>
<trkpt lat="46.1127180" lon="10.4706660">
	<ele>1971.20</ele>
	<time>2024-07-25T11:12:56.000Z</time>
</trkpt>
<trkpt lat="46.1127170" lon="10.4706440">
	<ele>1971.00</ele>
	<time>2024-07-25T11:12:57.000Z</time>
</trkpt>
<trkpt lat="46.1127200" lon="10.4706230">
	<ele>1970.80</ele>
	<time>2024-07-25T11:12:58.000Z</time>
</trkpt>
<trkpt lat="46.1127190" lon="10.4706050">
	<ele>1970.60</ele>
	<time>2024-07-25T11:12:59.000Z</time>
</trkpt>
<trkpt lat="46.1127180" lon="10.4705960">
	<ele>1970.40</ele>
	<time>2024-07-25T11:13:00.000Z</time>
</trkpt>
<trkpt lat="46.1127080" lon="10.4705910">
	<ele>1970.20</ele>
	<time>2024-07-25T11:13:01.000Z</time>
</trkpt>
<trkpt lat="46.1126950" lon="10.4705920">
	<ele>1970.20</ele>
	<time>2024-07-25T11:13:02.000Z</time>
</trkpt>
<trkpt lat="46.1126810" lon="10.4705960">
	<ele>1970.00</ele>
	<time>2024-07-25T11:13:03.000Z</time>
</trkpt>
<trkpt lat="46.1126650" lon="10.4706010">
	<ele>1970.00</ele>
	<time>2024-07-25T11:13:04.000Z</time>
</trkpt>
<trkpt lat="46.1126550" lon="10.4706120">
	<ele>1970.00</ele>
	<time>2024-07-25T11:13:05.000Z</time>
</trkpt>
<trkpt lat="46.1126530" lon="10.4706300">
	<ele>1969.80</ele>
	<time>2024-07-25T11:13:06.000Z</time>
</trkpt>
<trkpt lat="46.1126490" lon="10.4706460">
	<ele>1969.80</ele>
	<time>2024-07-25T11:13:07.000Z</time>
</trkpt>
<trkpt lat="46.1126420" lon="10.4706600">
	<ele>1969.60</ele>
	<time>2024-07-25T11:13:08.000Z</time>
</trkpt>
<trkpt lat="46.1126300" lon="10.4706700">
	<ele>1969.40</ele>
	<time>2024-07-25T11:13:09.000Z</time>
</trkpt>
<trkpt lat="46.1126230" lon="10.4706840">
	<ele>1969.20</ele>
	<time>2024-07-25T11:13:10.000Z</time>
</trkpt>
<trkpt lat="46.1126130" lon="10.4706940">
	<ele>1969.00</ele>
	<time>2024-07-25T11:13:11.000Z</time>
</trkpt>
<trkpt lat="46.1126020" lon="10.4706990">
	<ele>1968.80</ele>
	<time>2024-07-25T11:13:12.000Z</time>
</trkpt>
<trkpt lat="46.1125980" lon="10.4707070">
	<ele>1968.40</ele>
	<time>2024-07-25T11:13:13.000Z</time>
</trkpt>
<trkpt lat="46.1125900" lon="10.4707160">
	<ele>1968.00</ele>
	<time>2024-07-25T11:13:14.000Z</time>
</trkpt>
<trkpt lat="46.1125790" lon="10.4707240">
	<ele>1967.80</ele>
	<time>2024-07-25T11:13:15.000Z</time>
</trkpt>
<trkpt lat="46.1125680" lon="10.4707340">
	<ele>1967.60</ele>
	<time>2024-07-25T11:13:16.000Z</time>
</trkpt>
<trkpt lat="46.1125650" lon="10.4707480">
	<ele>1967.20</ele>
	<time>2024-07-25T11:13:17.000Z</time>
</trkpt>
<trkpt lat="46.1125630" lon="10.4707630">
	<ele>1966.80</ele>
	<time>2024-07-25T11:13:18.000Z</time>
</trkpt>
<trkpt lat="46.1125610" lon="10.4707780">
	<ele>1966.60</ele>
	<time>2024-07-25T11:13:19.000Z</time>
</trkpt>
<trkpt lat="46.1125550" lon="10.4707900">
	<ele>1966.40</ele>
	<time>2024-07-25T11:13:20.000Z</time>
</trkpt>
<trkpt lat="46.1125480" lon="10.4708010">
	<ele>1965.80</ele>
	<time>2024-07-25T11:13:21.000Z</time>
</trkpt>
<trkpt lat="46.1125370" lon="10.4708080">
	<ele>1965.60</ele>
	<time>2024-07-25T11:13:22.000Z</time>
</trkpt>
<trkpt lat="46.1125300" lon="10.4708190">
	<ele>1965.40</ele>
	<time>2024-07-25T11:13:23.000Z</time>
</trkpt>
<trkpt lat="46.1125290" lon="10.4708340">
	<ele>1965.20</ele>
	<time>2024-07-25T11:13:24.000Z</time>
</trkpt>
<trkpt lat="46.1125210" lon="10.4708430">
	<ele>1965.00</ele>
	<time>2024-07-25T11:13:25.000Z</time>
</trkpt>
<trkpt lat="46.1125160" lon="10.4708510">
	<ele>1964.80</ele>
	<time>2024-07-25T11:13:26.000Z</time>
</trkpt>
<trkpt lat="46.1125040" lon="10.4708570">
	<ele>1964.60</ele>
	<time>2024-07-25T11:13:27.000Z</time>
</trkpt>
<trkpt lat="46.1124940" lon="10.4708650">
	<ele>1964.40</ele>
	<time>2024-07-25T11:13:28.000Z</time>
</trkpt>
<trkpt lat="46.1124830" lon="10.4708730">
	<ele>1964.20</ele>
	<time>2024-07-25T11:13:29.000Z</time>
</trkpt>
<trkpt lat="46.1124760" lon="10.4708820">
	<ele>1964.00</ele>
	<time>2024-07-25T11:13:30.000Z</time>
</trkpt>
<trkpt lat="46.1124740" lon="10.4708940">
	<ele>1963.80</ele>
	<time>2024-07-25T11:13:31.000Z</time>
</trkpt>
<trkpt lat="46.1124720" lon="10.4709060">
	<ele>1963.40</ele>
	<time>2024-07-25T11:13:32.000Z</time>
</trkpt>
<trkpt lat="46.1124630" lon="10.4709120">
	<ele>1963.20</ele>
	<time>2024-07-25T11:13:33.000Z</time>
</trkpt>
<trkpt lat="46.1124470" lon="10.4709170">
	<ele>1963.00</ele>
	<time>2024-07-25T11:13:34.000Z</time>
</trkpt>
<trkpt lat="46.1124340" lon="10.4709220">
	<ele>1962.80</ele>
	<time>2024-07-25T11:13:35.000Z</time>
</trkpt>
<trkpt lat="46.1124250" lon="10.4709300">
	<ele>1962.60</ele>
	<time>2024-07-25T11:13:36.000Z</time>
</trkpt>
<trkpt lat="46.1124190" lon="10.4709450">
	<ele>1962.40</ele>
	<time>2024-07-25T11:13:37.000Z</time>
</trkpt>
<trkpt lat="46.1124070" lon="10.4709600">
	<ele>1962.20</ele>
	<time>2024-07-25T11:13:38.000Z</time>
</trkpt>
<trkpt lat="46.1124010" lon="10.4709750">
	<ele>1962.00</ele>
	<time>2024-07-25T11:13:39.000Z</time>
</trkpt>
<trkpt lat="46.1123910" lon="10.4709860">
	<ele>1962.00</ele>
	<time>2024-07-25T11:13:40.000Z</time>
</trkpt>
<trkpt lat="46.1123780" lon="10.4709980">
	<ele>1961.60</ele>
	<time>2024-07-25T11:13:41.000Z</time>
</trkpt>
<trkpt lat="46.1123630" lon="10.4710130">
	<ele>1961.40</ele>
	<time>2024-07-25T11:13:42.000Z</time>
</trkpt>
<trkpt lat="46.1123460" lon="10.4710190">
	<ele>1961.00</ele>
	<time>2024-07-25T11:13:43.000Z</time>
</trkpt>
<trkpt lat="46.1123290" lon="10.4710270">
	<ele>1960.80</ele>
	<time>2024-07-25T11:13:44.000Z</time>
</trkpt>
<trkpt lat="46.1123140" lon="10.4710340">
	<ele>1960.60</ele>
	<time>2024-07-25T11:13:45.000Z</time>
</trkpt>
<trkpt lat="46.1122990" lon="10.4710440">
	<ele>1960.60</ele>
	<time>2024-07-25T11:13:46.000Z</time>
</trkpt>
<trkpt lat="46.1122850" lon="10.4710510">
	<ele>1960.20</ele>
	<time>2024-07-25T11:13:47.000Z</time>
</trkpt>
<trkpt lat="46.1122750" lon="10.4710640">
	<ele>1960.00</ele>
	<time>2024-07-25T11:13:48.000Z</time>
</trkpt>
<trkpt lat="46.1122610" lon="10.4710710">
	<ele>1959.80</ele>
	<time>2024-07-25T11:13:49.000Z</time>
</trkpt>
<trkpt lat="46.1122450" lon="10.4710800">
	<ele>1959.80</ele>
	<time>2024-07-25T11:13:50.000Z</time>
</trkpt>
<trkpt lat="46.1122310" lon="10.4710870">
	<ele>1959.80</ele>
	<time>2024-07-25T11:13:51.000Z</time>
</trkpt>
<trkpt lat="46.1122170" lon="10.4710950">
	<ele>1959.60</ele>
	<time>2024-07-25T11:13:52.000Z</time>
</trkpt>
<trkpt lat="46.1122010" lon="10.4711000">
	<ele>1959.60</ele>
	<time>2024-07-25T11:13:53.000Z</time>
</trkpt>
<trkpt lat="46.1121860" lon="10.4711010">
	<ele>1959.40</ele>
	<time>2024-07-25T11:13:54.000Z</time>
</trkpt>
<trkpt lat="46.1121750" lon="10.4711040">
	<ele>1959.40</ele>
	<time>2024-07-25T11:13:55.000Z</time>
</trkpt>
<trkpt lat="46.1121640" lon="10.4711090">
	<ele>1959.20</ele>
	<time>2024-07-25T11:13:56.000Z</time>
</trkpt>
<trkpt lat="46.1121520" lon="10.4711160">
	<ele>1959.00</ele>
	<time>2024-07-25T11:13:57.000Z</time>
</trkpt>
<trkpt lat="46.1121410" lon="10.4711220">
	<ele>1958.80</ele>
	<time>2024-07-25T11:13:58.000Z</time>
</trkpt>
<trkpt lat="46.1121310" lon="10.4711230">
	<ele>1958.80</ele>
	<time>2024-07-25T11:13:59.000Z</time>
</trkpt>
<trkpt lat="46.1121200" lon="10.4711220">
	<ele>1958.60</ele>
	<time>2024-07-25T11:14:00.000Z</time>
</trkpt>
<trkpt lat="46.1121070" lon="10.4711200">
	<ele>1958.40</ele>
	<time>2024-07-25T11:14:01.000Z</time>
</trkpt>
<trkpt lat="46.1120940" lon="10.4711130">
	<ele>1958.20</ele>
	<time>2024-07-25T11:14:02.000Z</time>
</trkpt>
<trkpt lat="46.1120800" lon="10.4710990">
	<ele>1958.00</ele>
	<time>2024-07-25T11:14:03.000Z</time>
</trkpt>
<trkpt lat="46.1120760" lon="10.4710860">
	<ele>1958.00</ele>
	<time>2024-07-25T11:14:04.000Z</time>
</trkpt>
<trkpt lat="46.1120790" lon="10.4710770">
	<ele>1958.00</ele>
	<time>2024-07-25T11:14:05.000Z</time>
</trkpt>
<trkpt lat="46.1120790" lon="10.4710600">
	<ele>1957.80</ele>
	<time>2024-07-25T11:14:06.000Z</time>
</trkpt>
<trkpt lat="46.1120830" lon="10.4710470">
	<ele>1957.80</ele>
	<time>2024-07-25T11:14:07.000Z</time>
</trkpt>
<trkpt lat="46.1120950" lon="10.4710410">
	<ele>1957.80</ele>
	<time>2024-07-25T11:14:08.000Z</time>
</trkpt>
<trkpt lat="46.1121120" lon="10.4710380">
	<ele>1957.40</ele>
	<time>2024-07-25T11:14:09.000Z</time>
</trkpt>
<trkpt lat="46.1121250" lon="10.4710410">
	<ele>1957.00</ele>
	<time>2024-07-25T11:14:10.000Z</time>
</trkpt>
<trkpt lat="46.1121360" lon="10.4710390">
	<ele>1956.80</ele>
	<time>2024-07-25T11:14:11.000Z</time>
</trkpt>
<trkpt lat="46.1121510" lon="10.4710330">
	<ele>1956.60</ele>
	<time>2024-07-25T11:14:12.000Z</time>
</trkpt>
<trkpt lat="46.1121680" lon="10.4710270">
	<ele>1956.40</ele>
	<time>2024-07-25T11:14:13.000Z</time>
</trkpt>
<trkpt lat="46.1121850" lon="10.4710220">
	<ele>1956.20</ele>
	<time>2024-07-25T11:14:14.000Z</time>
</trkpt>
<trkpt lat="46.1121910" lon="10.4710090">
	<ele>1956.00</ele>
	<time>2024-07-25T11:14:15.000Z</time>
</trkpt>
<trkpt lat="46.1121990" lon="10.4709940">
	<ele>1956.00</ele>
	<time>2024-07-25T11:14:16.000Z</time>
</trkpt>
<trkpt lat="46.1122050" lon="10.4709780">
	<ele>1955.80</ele>
	<time>2024-07-25T11:14:17.000Z</time>
</trkpt>
<trkpt lat="46.1122150" lon="10.4709680">
	<ele>1955.60</ele>
	<time>2024-07-25T11:14:18.000Z</time>
</trkpt>
<trkpt lat="46.1122140" lon="10.4709500">
	<ele>1955.60</ele>
	<time>2024-07-25T11:14:19.000Z</time>
</trkpt>
<trkpt lat="46.1122140" lon="10.4709320">
	<ele>1955.40</ele>
	<time>2024-07-25T11:14:20.000Z</time>
</trkpt>
<trkpt lat="46.1122130" lon="10.4709180">
	<ele>1955.00</ele>
	<time>2024-07-25T11:14:21.000Z</time>
</trkpt>
<trkpt lat="46.1122150" lon="10.4708950">
	<ele>1954.60</ele>
	<time>2024-07-25T11:14:22.000Z</time>
</trkpt>
<trkpt lat="46.1122240" lon="10.4708800">
	<ele>1954.40</ele>
	<time>2024-07-25T11:14:23.000Z</time>
</trkpt>
<trkpt lat="46.1122320" lon="10.4708650">
	<ele>1954.40</ele>
	<time>2024-07-25T11:14:24.000Z</time>
</trkpt>
<trkpt lat="46.1122390" lon="10.4708530">
	<ele>1954.00</ele>
	<time>2024-07-25T11:14:25.000Z</time>
</trkpt>
<trkpt lat="46.1122440" lon="10.4708390">
	<ele>1954.00</ele>
	<time>2024-07-25T11:14:26.000Z</time>
</trkpt>
<trkpt lat="46.1122460" lon="10.4708250">
	<ele>1953.80</ele>
	<time>2024-07-25T11:14:27.000Z</time>
</trkpt>
<trkpt lat="46.1122560" lon="10.4708140">
	<ele>1953.20</ele>
	<time>2024-07-25T11:14:28.000Z</time>
</trkpt>
<trkpt lat="46.1122630" lon="10.4708010">
	<ele>1953.00</ele>
	<time>2024-07-25T11:14:29.000Z</time>
</trkpt>
<trkpt lat="46.1122770" lon="10.4707880">
	<ele>1952.80</ele>
	<time>2024-07-25T11:14:30.000Z</time>
</trkpt>
<trkpt lat="46.1122880" lon="10.4707780">
	<ele>1952.40</ele>
	<time>2024-07-25T11:14:31.000Z</time>
</trkpt>
<trkpt lat="46.1122890" lon="10.4707610">
	<ele>1952.20</ele>
	<time>2024-07-25T11:14:32.000Z</time>
</trkpt>
<trkpt lat="46.1122870" lon="10.4707410">
	<ele>1952.00</ele>
	<time>2024-07-25T11:14:33.000Z</time>
</trkpt>
<trkpt lat="46.1122840" lon="10.4707270">
	<ele>1951.80</ele>
	<time>2024-07-25T11:14:34.000Z</time>
</trkpt>
<trkpt lat="46.1122830" lon="10.4707220">
	<ele>1951.40</ele>
	<time>2024-07-25T11:14:35.000Z</time>
</trkpt>
<trkpt lat="46.1122820" lon="10.4707140">
	<ele>1951.20</ele>
	<time>2024-07-25T11:14:36.000Z</time>
</trkpt>
<trkpt lat="46.1122780" lon="10.4707150">
	<ele>1951.00</ele>
	<time>2024-07-25T11:14:37.000Z</time>
</trkpt>
<trkpt lat="46.1122710" lon="10.4707120">
	<ele>1950.80</ele>
	<time>2024-07-25T11:14:38.000Z</time>
</trkpt>
<trkpt lat="46.1122630" lon="10.4707090">
	<ele>1950.60</ele>
	<time>2024-07-25T11:14:39.000Z</time>
</trkpt>
<trkpt lat="46.1122600" lon="10.4707100">
	<ele>1950.40</ele>
	<time>2024-07-25T11:14:40.000Z</time>
</trkpt>
<trkpt lat="46.1122530" lon="10.4707120">
	<ele>1950.00</ele>
	<time>2024-07-25T11:14:41.000Z</time>
</trkpt>
<trkpt lat="46.1122380" lon="10.4707130">
	<ele>1949.80</ele>
	<time>2024-07-25T11:14:42.000Z</time>
</trkpt>
<trkpt lat="46.1122270" lon="10.4707160">
	<ele>1949.40</ele>
	<time>2024-07-25T11:14:43.000Z</time>
</trkpt>
<trkpt lat="46.1122140" lon="10.4707200">
	<ele>1949.20</ele>
	<time>2024-07-25T11:14:44.000Z</time>
</trkpt>
<trkpt lat="46.1122010" lon="10.4707320">
	<ele>1948.80</ele>
	<time>2024-07-25T11:14:45.000Z</time>
</trkpt>
<trkpt lat="46.1121880" lon="10.4707400">
	<ele>1948.60</ele>
	<time>2024-07-25T11:14:46.000Z</time>
</trkpt>
<trkpt lat="46.1121820" lon="10.4707470">
	<ele>1948.60</ele>
	<time>2024-07-25T11:14:47.000Z</time>
</trkpt>
<trkpt lat="46.1121720" lon="10.4707510">
	<ele>1948.40</ele>
	<time>2024-07-25T11:14:48.000Z</time>
</trkpt>
<trkpt lat="46.1121620" lon="10.4707530">
	<ele>1948.40</ele>
	<time>2024-07-25T11:14:49.000Z</time>
</trkpt>
<trkpt lat="46.1121530" lon="10.4707520">
	<ele>1948.40</ele>
	<time>2024-07-25T11:14:50.000Z</time>
</trkpt>
<trkpt lat="46.1121420" lon="10.4707510">
	<ele>1948.00</ele>
	<time>2024-07-25T11:14:51.000Z</time>
</trkpt>
<trkpt lat="46.1121270" lon="10.4707500">
	<ele>1947.40</ele>
	<time>2024-07-25T11:14:52.000Z</time>
</trkpt>
<trkpt lat="46.1121150" lon="10.4707450">
	<ele>1947.20</ele>
	<time>2024-07-25T11:14:53.000Z</time>
</trkpt>
<trkpt lat="46.1121080" lon="10.4707500">
	<ele>1947.00</ele>
	<time>2024-07-25T11:14:54.000Z</time>
</trkpt>
<trkpt lat="46.1120980" lon="10.4707510">
	<ele>1946.80</ele>
	<time>2024-07-25T11:14:55.000Z</time>
</trkpt>
<trkpt lat="46.1120850" lon="10.4707470">
	<ele>1946.20</ele>
	<time>2024-07-25T11:14:56.000Z</time>
</trkpt>
<trkpt lat="46.1120670" lon="10.4707360">
	<ele>1946.00</ele>
	<time>2024-07-25T11:14:57.000Z</time>
</trkpt>
<trkpt lat="46.1120520" lon="10.4707260">
	<ele>1945.60</ele>
	<time>2024-07-25T11:14:58.000Z</time>
</trkpt>
<trkpt lat="46.1120480" lon="10.4707250">
	<ele>1945.40</ele>
	<time>2024-07-25T11:14:59.000Z</time>
</trkpt>
<trkpt lat="46.1120300" lon="10.4707150">
	<ele>1945.20</ele>
	<time>2024-07-25T11:15:00.000Z</time>
</trkpt>
<trkpt lat="46.1120170" lon="10.4707010">
	<ele>1944.80</ele>
	<time>2024-07-25T11:15:01.000Z</time>
</trkpt>
<trkpt lat="46.1120060" lon="10.4706890">
	<ele>1944.60</ele>
	<time>2024-07-25T11:15:02.000Z</time>
</trkpt>
<trkpt lat="46.1119960" lon="10.4706840">
	<ele>1944.20</ele>
	<time>2024-07-25T11:15:03.000Z</time>
</trkpt>
<trkpt lat="46.1119840" lon="10.4706790">
	<ele>1943.80</ele>
	<time>2024-07-25T11:15:04.000Z</time>
</trkpt>
<trkpt lat="46.1119680" lon="10.4706690">
	<ele>1943.40</ele>
	<time>2024-07-25T11:15:05.000Z</time>
</trkpt>
<trkpt lat="46.1119520" lon="10.4706660">
	<ele>1943.00</ele>
	<time>2024-07-25T11:15:06.000Z</time>
</trkpt>
<trkpt lat="46.1119360" lon="10.4706590">
	<ele>1942.80</ele>
	<time>2024-07-25T11:15:07.000Z</time>
</trkpt>
<trkpt lat="46.1119230" lon="10.4706560">
	<ele>1942.60</ele>
	<time>2024-07-25T11:15:08.000Z</time>
</trkpt>
<trkpt lat="46.1119090" lon="10.4706560">
	<ele>1942.20</ele>
	<time>2024-07-25T11:15:09.000Z</time>
</trkpt>
<trkpt lat="46.1118950" lon="10.4706550">
	<ele>1942.00</ele>
	<time>2024-07-25T11:15:10.000Z</time>
</trkpt>
<trkpt lat="46.1118840" lon="10.4706540">
	<ele>1941.60</ele>
	<time>2024-07-25T11:15:11.000Z</time>
</trkpt>
<trkpt lat="46.1118700" lon="10.4706530">
	<ele>1941.40</ele>
	<time>2024-07-25T11:15:12.000Z</time>
</trkpt>
<trkpt lat="46.1118560" lon="10.4706490">
	<ele>1941.20</ele>
	<time>2024-07-25T11:15:13.000Z</time>
</trkpt>
<trkpt lat="46.1118410" lon="10.4706390">
	<ele>1941.00</ele>
	<time>2024-07-25T11:15:14.000Z</time>
</trkpt>
<trkpt lat="46.1118230" lon="10.4706270">
	<ele>1940.80</ele>
	<time>2024-07-25T11:15:15.000Z</time>
</trkpt>
<trkpt lat="46.1118130" lon="10.4706210">
	<ele>1940.60</ele>
	<time>2024-07-25T11:15:16.000Z</time>
</trkpt>
<trkpt lat="46.1118020" lon="10.4706110">
	<ele>1940.20</ele>
	<time>2024-07-25T11:15:17.000Z</time>
</trkpt>
<trkpt lat="46.1117930" lon="10.4706040">
	<ele>1940.00</ele>
	<time>2024-07-25T11:15:18.000Z</time>
</trkpt>
<trkpt lat="46.1117850" lon="10.4705960">
	<ele>1940.00</ele>
	<time>2024-07-25T11:15:19.000Z</time>
</trkpt>
<trkpt lat="46.1117770" lon="10.4705880">
	<ele>1939.60</ele>
	<time>2024-07-25T11:15:20.000Z</time>
</trkpt>
<trkpt lat="46.1117710" lon="10.4705850">
	<ele>1939.40</ele>
	<time>2024-07-25T11:15:21.000Z</time>
</trkpt>
<trkpt lat="46.1117650" lon="10.4705810">
	<ele>1939.00</ele>
	<time>2024-07-25T11:15:22.000Z</time>
</trkpt>
<trkpt lat="46.1117570" lon="10.4705720">
	<ele>1938.80</ele>
	<time>2024-07-25T11:15:23.000Z</time>
</trkpt>
<trkpt lat="46.1117530" lon="10.4705590">
	<ele>1938.60</ele>
	<time>2024-07-25T11:15:24.000Z</time>
</trkpt>
<trkpt lat="46.1117570" lon="10.4705460">
	<ele>1938.40</ele>
	<time>2024-07-25T11:15:25.000Z</time>
</trkpt>
<trkpt lat="46.1117610" lon="10.4705290">
	<ele>1938.20</ele>
	<time>2024-07-25T11:15:26.000Z</time>
</trkpt>
<trkpt lat="46.1117620" lon="10.4705140">
	<ele>1938.00</ele>
	<time>2024-07-25T11:15:27.000Z</time>
</trkpt>
<trkpt lat="46.1117680" lon="10.4704960">
	<ele>1937.80</ele>
	<time>2024-07-25T11:15:28.000Z</time>
</trkpt>
<trkpt lat="46.1117770" lon="10.4704850">
	<ele>1937.60</ele>
	<time>2024-07-25T11:15:29.000Z</time>
</trkpt>
<trkpt lat="46.1117850" lon="10.4704810">
	<ele>1937.40</ele>
	<time>2024-07-25T11:15:30.000Z</time>
</trkpt>
<trkpt lat="46.1117970" lon="10.4704780">
	<ele>1937.20</ele>
	<time>2024-07-25T11:15:31.000Z</time>
</trkpt>
<trkpt lat="46.1118130" lon="10.4704830">
	<ele>1937.00</ele>
	<time>2024-07-25T11:15:32.000Z</time>
</trkpt>
<trkpt lat="46.1118250" lon="10.4704850">
	<ele>1936.80</ele>
	<time>2024-07-25T11:15:33.000Z</time>
</trkpt>
<trkpt lat="46.1118350" lon="10.4704800">
	<ele>1936.60</ele>
	<time>2024-07-25T11:15:34.000Z</time>
</trkpt>
<trkpt lat="46.1118470" lon="10.4704770">
	<ele>1936.60</ele>
	<time>2024-07-25T11:15:35.000Z</time>
</trkpt>
<trkpt lat="46.1118680" lon="10.4704790">
	<ele>1936.40</ele>
	<time>2024-07-25T11:15:36.000Z</time>
</trkpt>
<trkpt lat="46.1118800" lon="10.4704710">
	<ele>1936.40</ele>
	<time>2024-07-25T11:15:37.000Z</time>
</trkpt>
<trkpt lat="46.1118910" lon="10.4704630">
	<ele>1936.20</ele>
	<time>2024-07-25T11:15:38.000Z</time>
</trkpt>
<trkpt lat="46.1119050" lon="10.4704580">
	<ele>1936.20</ele>
	<time>2024-07-25T11:15:39.000Z</time>
</trkpt>
<trkpt lat="46.1119260" lon="10.4704590">
	<ele>1936.20</ele>
	<time>2024-07-25T11:15:40.000Z</time>
</trkpt>
<trkpt lat="46.1119440" lon="10.4704620">
	<ele>1936.00</ele>
	<time>2024-07-25T11:15:41.000Z</time>
</trkpt>
<trkpt lat="46.1119690" lon="10.4704670">
	<ele>1936.00</ele>
	<time>2024-07-25T11:15:42.000Z</time>
</trkpt>
<trkpt lat="46.1119910" lon="10.4704650">
	<ele>1935.80</ele>
	<time>2024-07-25T11:15:43.000Z</time>
</trkpt>
<trkpt lat="46.1120040" lon="10.4704590">
	<ele>1935.80</ele>
	<time>2024-07-25T11:15:44.000Z</time>
</trkpt>
<trkpt lat="46.1120220" lon="10.4704530">
	<ele>1935.80</ele>
	<time>2024-07-25T11:15:45.000Z</time>
</trkpt>
<trkpt lat="46.1120340" lon="10.4704450">
	<ele>1935.80</ele>
	<time>2024-07-25T11:15:46.000Z</time>
</trkpt>
<trkpt lat="46.1120470" lon="10.4704360">
	<ele>1935.60</ele>
	<time>2024-07-25T11:15:47.000Z</time>
</trkpt>
<trkpt lat="46.1120520" lon="10.4704250">
	<ele>1935.40</ele>
	<time>2024-07-25T11:15:48.000Z</time>
</trkpt>
<trkpt lat="46.1120550" lon="10.4704120">
	<ele>1935.20</ele>
	<time>2024-07-25T11:15:49.000Z</time>
</trkpt>
<trkpt lat="46.1120570" lon="10.4703960">
	<ele>1934.80</ele>
	<time>2024-07-25T11:15:50.000Z</time>
</trkpt>
<trkpt lat="46.1120570" lon="10.4703800">
	<ele>1934.60</ele>
	<time>2024-07-25T11:15:51.000Z</time>
</trkpt>
<trkpt lat="46.1120590" lon="10.4703680">
	<ele>1934.20</ele>
	<time>2024-07-25T11:15:52.000Z</time>
</trkpt>
<trkpt lat="46.1120580" lon="10.4703500">
	<ele>1934.00</ele>
	<time>2024-07-25T11:15:53.000Z</time>
</trkpt>
<trkpt lat="46.1120570" lon="10.4703290">
	<ele>1934.00</ele>
	<time>2024-07-25T11:15:54.000Z</time>
</trkpt>
<trkpt lat="46.1120570" lon="10.4703090">
	<ele>1933.60</ele>
	<time>2024-07-25T11:15:55.000Z</time>
</trkpt>
<trkpt lat="46.1120640" lon="10.4702980">
	<ele>1933.40</ele>
	<time>2024-07-25T11:15:56.000Z</time>
</trkpt>
<trkpt lat="46.1120650" lon="10.4702730">
	<ele>1933.20</ele>
	<time>2024-07-25T11:15:57.000Z</time>
</trkpt>
<trkpt lat="46.1120620" lon="10.4702550">
	<ele>1932.80</ele>
	<time>2024-07-25T11:15:58.000Z</time>
</trkpt>
<trkpt lat="46.1120610" lon="10.4702390">
	<ele>1932.60</ele>
	<time>2024-07-25T11:15:59.000Z</time>
</trkpt>
<trkpt lat="46.1120600" lon="10.4702250">
	<ele>1932.40</ele>
	<time>2024-07-25T11:16:00.000Z</time>
</trkpt>
<trkpt lat="46.1120630" lon="10.4702100">
	<ele>1932.40</ele>
	<time>2024-07-25T11:16:01.000Z</time>
</trkpt>
<trkpt lat="46.1120670" lon="10.4701920">
	<ele>1932.20</ele>
	<time>2024-07-25T11:16:02.000Z</time>
</trkpt>
<trkpt lat="46.1120670" lon="10.4701770">
	<ele>1932.00</ele>
	<time>2024-07-25T11:16:03.000Z</time>
</trkpt>
<trkpt lat="46.1120680" lon="10.4701630">
	<ele>1931.80</ele>
	<time>2024-07-25T11:16:04.000Z</time>
</trkpt>
<trkpt lat="46.1120650" lon="10.4701460">
	<ele>1931.40</ele>
	<time>2024-07-25T11:16:05.000Z</time>
</trkpt>
<trkpt lat="46.1120640" lon="10.4701310">
	<ele>1931.20</ele>
	<time>2024-07-25T11:16:06.000Z</time>
</trkpt>
<trkpt lat="46.1120620" lon="10.4701150">
	<ele>1931.00</ele>
	<time>2024-07-25T11:16:07.000Z</time>
</trkpt>
<trkpt lat="46.1120530" lon="10.4700960">
	<ele>1930.80</ele>
	<time>2024-07-25T11:16:08.000Z</time>
</trkpt>
<trkpt lat="46.1120470" lon="10.4700780">
	<ele>1930.60</ele>
	<time>2024-07-25T11:16:09.000Z</time>
</trkpt>
<trkpt lat="46.1120410" lon="10.4700550">
	<ele>1930.40</ele>
	<time>2024-07-25T11:16:10.000Z</time>
</trkpt>
<trkpt lat="46.1120460" lon="10.4700430">
	<ele>1930.20</ele>
	<time>2024-07-25T11:16:11.000Z</time>
</trkpt>
<trkpt lat="46.1120480" lon="10.4700290">
	<ele>1930.20</ele>
	<time>2024-07-25T11:16:12.000Z</time>
</trkpt>
<trkpt lat="46.1120600" lon="10.4700230">
	<ele>1930.00</ele>
	<time>2024-07-25T11:16:13.000Z</time>
</trkpt>
<trkpt lat="46.1120640" lon="10.4700110">
	<ele>1930.00</ele>
	<time>2024-07-25T11:16:14.000Z</time>
</trkpt>
<trkpt lat="46.1120670" lon="10.4699930">
	<ele>1929.80</ele>
	<time>2024-07-25T11:16:15.000Z</time>
</trkpt>
<trkpt lat="46.1120720" lon="10.4699770">
	<ele>1929.40</ele>
	<time>2024-07-25T11:16:16.000Z</time>
</trkpt>
<trkpt lat="46.1120780" lon="10.4699630">
	<ele>1929.20</ele>
	<time>2024-07-25T11:16:17.000Z</time>
</trkpt>
<trkpt lat="46.1120840" lon="10.4699510">
	<ele>1929.00</ele>
	<time>2024-07-25T11:16:18.000Z</time>
</trkpt>
<trkpt lat="46.1120890" lon="10.4699380">
	<ele>1928.80</ele>
	<time>2024-07-25T11:16:19.000Z</time>
</trkpt>
<trkpt lat="46.1120980" lon="10.4699310">
	<ele>1928.40</ele>
	<time>2024-07-25T11:16:20.000Z</time>
</trkpt>
<trkpt lat="46.1121110" lon="10.4699270">
	<ele>1928.00</ele>
	<time>2024-07-25T11:16:21.000Z</time>
</trkpt>
<trkpt lat="46.1121180" lon="10.4699210">
	<ele>1927.80</ele>
	<time>2024-07-25T11:16:22.000Z</time>
</trkpt>
<trkpt lat="46.1121240" lon="10.4699170">
	<ele>1927.80</ele>
	<time>2024-07-25T11:16:23.000Z</time>
</trkpt>
<trkpt lat="46.1121330" lon="10.4699130">
	<ele>1927.60</ele>
	<time>2024-07-25T11:16:24.000Z</time>
</trkpt>
<trkpt lat="46.1121350" lon="10.4699080">
	<ele>1927.60</ele>
	<time>2024-07-25T11:16:25.000Z</time>
</trkpt>
<trkpt lat="46.1121400" lon="10.4699020">
	<ele>1927.60</ele>
	<time>2024-07-25T11:16:26.000Z</time>
</trkpt>
<trkpt lat="46.1121510" lon="10.4698970">
	<ele>1927.40</ele>
	<time>2024-07-25T11:16:27.000Z</time>
</trkpt>
<trkpt lat="46.1121580" lon="10.4698920">
	<ele>1927.00</ele>
	<time>2024-07-25T11:16:28.000Z</time>
</trkpt>
<trkpt lat="46.1121660" lon="10.4698840">
	<ele>1926.80</ele>
	<time>2024-07-25T11:16:29.000Z</time>
</trkpt>
<trkpt lat="46.1121650" lon="10.4698650">
	<ele>1926.60</ele>
	<time>2024-07-25T11:16:30.000Z</time>
</trkpt>
<trkpt lat="46.1121750" lon="10.4698510">
	<ele>1926.40</ele>
	<time>2024-07-25T11:16:31.000Z</time>
</trkpt>
<trkpt lat="46.1121830" lon="10.4698400">
	<ele>1926.40</ele>
	<time>2024-07-25T11:16:32.000Z</time>
</trkpt>
<trkpt lat="46.1121950" lon="10.4698350">
	<ele>1926.20</ele>
	<time>2024-07-25T11:16:33.000Z</time>
</trkpt>
<trkpt lat="46.1122070" lon="10.4698340">
	<ele>1926.00</ele>
	<time>2024-07-25T11:16:34.000Z</time>
</trkpt>
<trkpt lat="46.1122130" lon="10.4698270">
	<ele>1925.80</ele>
	<time>2024-07-25T11:16:35.000Z</time>
</trkpt>
<trkpt lat="46.1122220" lon="10.4698170">
	<ele>1925.60</ele>
	<time>2024-07-25T11:16:36.000Z</time>
</trkpt>
<trkpt lat="46.1122390" lon="10.4698190">
	<ele>1925.40</ele>
	<time>2024-07-25T11:16:37.000Z</time>
</trkpt>
<trkpt lat="46.1122520" lon="10.4698210">
	<ele>1925.00</ele>
	<time>2024-07-25T11:16:38.000Z</time>
</trkpt>
<trkpt lat="46.1122640" lon="10.4698180">
	<ele>1924.80</ele>
	<time>2024-07-25T11:16:39.000Z</time>
</trkpt>
<trkpt lat="46.1122760" lon="10.4698110">
	<ele>1924.60</ele>
	<time>2024-07-25T11:16:40.000Z</time>
</trkpt>
<trkpt lat="46.1122790" lon="10.4697990">
	<ele>1924.60</ele>
	<time>2024-07-25T11:16:41.000Z</time>
</trkpt>
<trkpt lat="46.1122800" lon="10.4697820">
	<ele>1924.40</ele>
	<time>2024-07-25T11:16:42.000Z</time>
</trkpt>
<trkpt lat="46.1122880" lon="10.4697690">
	<ele>1924.00</ele>
	<time>2024-07-25T11:16:43.000Z</time>
</trkpt>
<trkpt lat="46.1122900" lon="10.4697560">
	<ele>1923.80</ele>
	<time>2024-07-25T11:16:44.000Z</time>
</trkpt>
<trkpt lat="46.1122950" lon="10.4697430">
	<ele>1923.80</ele>
	<time>2024-07-25T11:16:45.000Z</time>
</trkpt>
<trkpt lat="46.1122980" lon="10.4697240">
	<ele>1923.40</ele>
	<time>2024-07-25T11:16:46.000Z</time>
</trkpt>
<trkpt lat="46.1123080" lon="10.4697140">
	<ele>1923.20</ele>
	<time>2024-07-25T11:16:47.000Z</time>
</trkpt>
<trkpt lat="46.1123220" lon="10.4697050">
	<ele>1922.80</ele>
	<time>2024-07-25T11:16:48.000Z</time>
</trkpt>
<trkpt lat="46.1123310" lon="10.4696910">
	<ele>1922.80</ele>
	<time>2024-07-25T11:16:49.000Z</time>
</trkpt>
<trkpt lat="46.1123430" lon="10.4696810">
	<ele>1922.60</ele>
	<time>2024-07-25T11:16:50.000Z</time>
</trkpt>
<trkpt lat="46.1123520" lon="10.4696700">
	<ele>1922.40</ele>
	<time>2024-07-25T11:16:51.000Z</time>
</trkpt>
<trkpt lat="46.1123510" lon="10.4696530">
	<ele>1922.40</ele>
	<time>2024-07-25T11:16:52.000Z</time>
</trkpt>
<trkpt lat="46.1123540" lon="10.4696390">
	<ele>1922.40</ele>
	<time>2024-07-25T11:16:53.000Z</time>
</trkpt>
<trkpt lat="46.1123570" lon="10.4696260">
	<ele>1922.20</ele>
	<time>2024-07-25T11:16:54.000Z</time>
</trkpt>
<trkpt lat="46.1123650" lon="10.4696140">
	<ele>1922.20</ele>
	<time>2024-07-25T11:16:55.000Z</time>
</trkpt>
<trkpt lat="46.1123720" lon="10.4696020">
	<ele>1922.20</ele>
	<time>2024-07-25T11:16:56.000Z</time>
</trkpt>
<trkpt lat="46.1123730" lon="10.4695930">
	<ele>1922.20</ele>
	<time>2024-07-25T11:16:57.000Z</time>
</trkpt>
<trkpt lat="46.1123760" lon="10.4695920">
	<ele>1922.20</ele>
	<time>2024-07-25T11:16:58.000Z</time>
</trkpt>
<trkpt lat="46.1123760" lon="10.4695920">
	<ele>1922.20</ele>
	<time>2024-07-25T11:16:59.000Z</time>
</trkpt>
<trkpt lat="46.1123750" lon="10.4695900">
	<ele>1922.20</ele>
	<time>2024-07-25T11:17:00.000Z</time>
</trkpt>
<trkpt lat="46.1123780" lon="10.4695830">
	<ele>1922.20</ele>
	<time>2024-07-25T11:17:01.000Z</time>
</trkpt>
<trkpt lat="46.1123800" lon="10.4695810">
	<ele>1922.20</ele>
	<time>2024-07-25T11:17:02.000Z</time>
</trkpt>
<trkpt lat="46.1123810" lon="10.4695690">
	<ele>1922.20</ele>
	<time>2024-07-25T11:17:03.000Z</time>
</trkpt>
<trkpt lat="46.1123730" lon="10.4695450">
	<ele>1922.20</ele>
	<time>2024-07-25T11:17:04.000Z</time>
</trkpt>
<trkpt lat="46.1123740" lon="10.4695290">
	<ele>1922.20</ele>
	<time>2024-07-25T11:17:05.000Z</time>
</trkpt>
<trkpt lat="46.1123810" lon="10.4695150">
	<ele>1922.20</ele>
	<time>2024-07-25T11:17:06.000Z</time>
</trkpt>
<trkpt lat="46.1123950" lon="10.4695050">
	<ele>1922.20</ele>
	<time>2024-07-25T11:17:07.000Z</time>
</trkpt>
<trkpt lat="46.1124050" lon="10.4694960">
	<ele>1922.20</ele>
	<time>2024-07-25T11:17:08.000Z</time>
</trkpt>
<trkpt lat="46.1124130" lon="10.4694810">
	<ele>1922.20</ele>
	<time>2024-07-25T11:17:09.000Z</time>
</trkpt>
<trkpt lat="46.1124190" lon="10.4694670">
	<ele>1922.20</ele>
	<time>2024-07-25T11:17:10.000Z</time>
</trkpt>
<trkpt lat="46.1124160" lon="10.4694410">
	<ele>1922.20</ele>
	<time>2024-07-25T11:17:11.000Z</time>
</trkpt>
<trkpt lat="46.1124190" lon="10.4694190">
	<ele>1922.20</ele>
	<time>2024-07-25T11:17:12.000Z</time>
</trkpt>
<trkpt lat="46.1124250" lon="10.4694010">
	<ele>1922.20</ele>
	<time>2024-07-25T11:17:13.000Z</time>
</trkpt>
<trkpt lat="46.1124260" lon="10.4693790">
	<ele>1922.20</ele>
	<time>2024-07-25T11:17:14.000Z</time>
</trkpt>
<trkpt lat="46.1124260" lon="10.4693570">
	<ele>1922.20</ele>
	<time>2024-07-25T11:17:15.000Z</time>
</trkpt>
<trkpt lat="46.1124260" lon="10.4693400">
	<ele>1922.00</ele>
	<time>2024-07-25T11:17:16.000Z</time>
</trkpt>
<trkpt lat="46.1124280" lon="10.4693210">
	<ele>1922.00</ele>
	<time>2024-07-25T11:17:17.000Z</time>
</trkpt>
<trkpt lat="46.1124390" lon="10.4693090">
	<ele>1921.60</ele>
	<time>2024-07-25T11:17:18.000Z</time>
</trkpt>
<trkpt lat="46.1124460" lon="10.4692960">
	<ele>1921.60</ele>
	<time>2024-07-25T11:17:19.000Z</time>
</trkpt>
<trkpt lat="46.1124590" lon="10.4692800">
	<ele>1921.40</ele>
	<time>2024-07-25T11:17:20.000Z</time>
</trkpt>
<trkpt lat="46.1124660" lon="10.4692650">
	<ele>1921.20</ele>
	<time>2024-07-25T11:17:21.000Z</time>
</trkpt>
<trkpt lat="46.1124710" lon="10.4692500">
	<ele>1921.00</ele>
	<time>2024-07-25T11:17:22.000Z</time>
</trkpt>
<trkpt lat="46.1124850" lon="10.4692400">
	<ele>1921.00</ele>
	<time>2024-07-25T11:17:23.000Z</time>
</trkpt>
<trkpt lat="46.1124870" lon="10.4692200">
	<ele>1920.80</ele>
	<time>2024-07-25T11:17:24.000Z</time>
</trkpt>
<trkpt lat="46.1124970" lon="10.4692040">
	<ele>1920.60</ele>
	<time>2024-07-25T11:17:25.000Z</time>
</trkpt>
<trkpt lat="46.1125050" lon="10.4691850">
	<ele>1920.60</ele>
	<time>2024-07-25T11:17:26.000Z</time>
</trkpt>
<trkpt lat="46.1125060" lon="10.4691630">
	<ele>1920.40</ele>
	<time>2024-07-25T11:17:27.000Z</time>
</trkpt>
<trkpt lat="46.1125100" lon="10.4691440">
	<ele>1920.40</ele>
	<time>2024-07-25T11:17:28.000Z</time>
</trkpt>
<trkpt lat="46.1125150" lon="10.4691250">
	<ele>1920.20</ele>
	<time>2024-07-25T11:17:29.000Z</time>
</trkpt>
<trkpt lat="46.1125220" lon="10.4691030">
	<ele>1920.00</ele>
	<time>2024-07-25T11:17:30.000Z</time>
</trkpt>
<trkpt lat="46.1125250" lon="10.4690780">
	<ele>1920.00</ele>
	<time>2024-07-25T11:17:31.000Z</time>
</trkpt>
<trkpt lat="46.1125260" lon="10.4690520">
	<ele>1919.80</ele>
	<time>2024-07-25T11:17:32.000Z</time>
</trkpt>
<trkpt lat="46.1125400" lon="10.4690450">
	<ele>1919.80</ele>
	<time>2024-07-25T11:17:33.000Z</time>
</trkpt>
<trkpt lat="46.1125480" lon="10.4690300">
	<ele>1919.60</ele>
	<time>2024-07-25T11:17:34.000Z</time>
</trkpt>
<trkpt lat="46.1125590" lon="10.4690190">
	<ele>1919.40</ele>
	<time>2024-07-25T11:17:35.000Z</time>
</trkpt>
<trkpt lat="46.1125620" lon="10.4690030">
	<ele>1919.40</ele>
	<time>2024-07-25T11:17:36.000Z</time>
</trkpt>
<trkpt lat="46.1125760" lon="10.4689930">
	<ele>1919.20</ele>
	<time>2024-07-25T11:17:37.000Z</time>
</trkpt>
<trkpt lat="46.1125770" lon="10.4689670">
	<ele>1919.00</ele>
	<time>2024-07-25T11:17:38.000Z</time>
</trkpt>
<trkpt lat="46.1125770" lon="10.4689430">
	<ele>1918.60</ele>
	<time>2024-07-25T11:17:39.000Z</time>
</trkpt>
<trkpt lat="46.1125720" lon="10.4689200">
	<ele>1918.40</ele>
	<time>2024-07-25T11:17:40.000Z</time>
</trkpt>
<trkpt lat="46.1125800" lon="10.4689060">
	<ele>1918.20</ele>
	<time>2024-07-25T11:17:41.000Z</time>
</trkpt>
<trkpt lat="46.1125960" lon="10.4688930">
	<ele>1918.00</ele>
	<time>2024-07-25T11:17:42.000Z</time>
</trkpt>
<trkpt lat="46.1126110" lon="10.4688800">
	<ele>1917.80</ele>
	<time>2024-07-25T11:17:43.000Z</time>
</trkpt>
<trkpt lat="46.1126170" lon="10.4688640">
	<ele>1917.60</ele>
	<time>2024-07-25T11:17:44.000Z</time>
</trkpt>
<trkpt lat="46.1126180" lon="10.4688390">
	<ele>1917.40</ele>
	<time>2024-07-25T11:17:45.000Z</time>
</trkpt>
<trkpt lat="46.1126190" lon="10.4688200">
	<ele>1917.20</ele>
	<time>2024-07-25T11:17:46.000Z</time>
</trkpt>
<trkpt lat="46.1126170" lon="10.4688030">
	<ele>1917.20</ele>
	<time>2024-07-25T11:17:47.000Z</time>
</trkpt>
<trkpt lat="46.1126200" lon="10.4687840">
	<ele>1917.00</ele>
	<time>2024-07-25T11:17:48.000Z</time>
</trkpt>
<trkpt lat="46.1126220" lon="10.4687650">
	<ele>1916.80</ele>
	<time>2024-07-25T11:17:49.000Z</time>
</trkpt>
<trkpt lat="46.1126280" lon="10.4687510">
	<ele>1916.60</ele>
	<time>2024-07-25T11:17:50.000Z</time>
</trkpt>
<trkpt lat="46.1126360" lon="10.4687350">
	<ele>1916.40</ele>
	<time>2024-07-25T11:17:51.000Z</time>
</trkpt>
<trkpt lat="46.1126410" lon="10.4687140">
	<ele>1916.20</ele>
	<time>2024-07-25T11:17:52.000Z</time>
</trkpt>
<trkpt lat="46.1126440" lon="10.4686950">
	<ele>1916.20</ele>
	<time>2024-07-25T11:17:53.000Z</time>
</trkpt>
<trkpt lat="46.1126450" lon="10.4686790">
	<ele>1915.80</ele>
	<time>2024-07-25T11:17:54.000Z</time>
</trkpt>
<trkpt lat="46.1126410" lon="10.4686590">
	<ele>1915.40</ele>
	<time>2024-07-25T11:17:55.000Z</time>
</trkpt>
<trkpt lat="46.1126380" lon="10.4686380">
	<ele>1915.20</ele>
	<time>2024-07-25T11:17:56.000Z</time>
</trkpt>
<trkpt lat="46.1126440" lon="10.4686270">
	<ele>1915.00</ele>
	<time>2024-07-25T11:17:57.000Z</time>
</trkpt>
<trkpt lat="46.1126520" lon="10.4686170">
	<ele>1914.80</ele>
	<time>2024-07-25T11:17:58.000Z</time>
</trkpt>
<trkpt lat="46.1126630" lon="10.4686030">
	<ele>1914.60</ele>
	<time>2024-07-25T11:17:59.000Z</time>
</trkpt>
<trkpt lat="46.1126730" lon="10.4685900">
	<ele>1914.60</ele>
	<time>2024-07-25T11:18:00.000Z</time>
</trkpt>
<trkpt lat="46.1126810" lon="10.4685770">
	<ele>1914.40</ele>
	<time>2024-07-25T11:18:01.000Z</time>
</trkpt>
<trkpt lat="46.1126830" lon="10.4685610">
	<ele>1914.20</ele>
	<time>2024-07-25T11:18:02.000Z</time>
</trkpt>
<trkpt lat="46.1126830" lon="10.4685430">
	<ele>1914.00</ele>
	<time>2024-07-25T11:18:03.000Z</time>
</trkpt>
<trkpt lat="46.1126800" lon="10.4685230">
	<ele>1913.80</ele>
	<time>2024-07-25T11:18:04.000Z</time>
</trkpt>
<trkpt lat="46.1126770" lon="10.4685060">
	<ele>1913.40</ele>
	<time>2024-07-25T11:18:05.000Z</time>
</trkpt>
<trkpt lat="46.1126820" lon="10.4685000">
	<ele>1913.20</ele>
	<time>2024-07-25T11:18:06.000Z</time>
</trkpt>
<trkpt lat="46.1126910" lon="10.4684870">
	<ele>1913.00</ele>
	<time>2024-07-25T11:18:07.000Z</time>
</trkpt>
<trkpt lat="46.1127000" lon="10.4684760">
	<ele>1912.80</ele>
	<time>2024-07-25T11:18:08.000Z</time>
</trkpt>
<trkpt lat="46.1127130" lon="10.4684650">
	<ele>1912.60</ele>
	<time>2024-07-25T11:18:09.000Z</time>
</trkpt>
<trkpt lat="46.1127100" lon="10.4684420">
	<ele>1912.40</ele>
	<time>2024-07-25T11:18:10.000Z</time>
</trkpt>
<trkpt lat="46.1127130" lon="10.4684250">
	<ele>1912.20</ele>
	<time>2024-07-25T11:18:11.000Z</time>
</trkpt>
<trkpt lat="46.1127140" lon="10.4684080">
	<ele>1912.20</ele>
	<time>2024-07-25T11:18:12.000Z</time>
</trkpt>
<trkpt lat="46.1127230" lon="10.4683990">
	<ele>1912.00</ele>
	<time>2024-07-25T11:18:13.000Z</time>
</trkpt>
<trkpt lat="46.1127310" lon="10.4683870">
	<ele>1911.80</ele>
	<time>2024-07-25T11:18:14.000Z</time>
</trkpt>
<trkpt lat="46.1127320" lon="10.4683660">
	<ele>1911.60</ele>
	<time>2024-07-25T11:18:15.000Z</time>
</trkpt>
<trkpt lat="46.1127440" lon="10.4683590">
	<ele>1911.40</ele>
	<time>2024-07-25T11:18:16.000Z</time>
</trkpt>
<trkpt lat="46.1127540" lon="10.4683520">
	<ele>1911.20</ele>
	<time>2024-07-25T11:18:17.000Z</time>
</trkpt>
<trkpt lat="46.1127640" lon="10.4683440">
	<ele>1911.00</ele>
	<time>2024-07-25T11:18:18.000Z</time>
</trkpt>
<trkpt lat="46.1127680" lon="10.4683350">
	<ele>1911.00</ele>
	<time>2024-07-25T11:18:19.000Z</time>
</trkpt>
<trkpt lat="46.1127700" lon="10.4683170">
	<ele>1910.80</ele>
	<time>2024-07-25T11:18:20.000Z</time>
</trkpt>
<trkpt lat="46.1127700" lon="10.4683010">
	<ele>1910.40</ele>
	<time>2024-07-25T11:18:21.000Z</time>
</trkpt>
<trkpt lat="46.1127700" lon="10.4682840">
	<ele>1910.40</ele>
	<time>2024-07-25T11:18:22.000Z</time>
</trkpt>
<trkpt lat="46.1127670" lon="10.4682740">
	<ele>1910.20</ele>
	<time>2024-07-25T11:18:23.000Z</time>
</trkpt>
<trkpt lat="46.1127630" lon="10.4682550">
	<ele>1909.80</ele>
	<time>2024-07-25T11:18:24.000Z</time>
</trkpt>
<trkpt lat="46.1127700" lon="10.4682450">
	<ele>1909.80</ele>
	<time>2024-07-25T11:18:25.000Z</time>
</trkpt>
<trkpt lat="46.1127740" lon="10.4682360">
	<ele>1909.60</ele>
	<time>2024-07-25T11:18:26.000Z</time>
</trkpt>
<trkpt lat="46.1127770" lon="10.4682290">
	<ele>1909.40</ele>
	<time>2024-07-25T11:18:27.000Z</time>
</trkpt>
<trkpt lat="46.1127770" lon="10.4682200">
	<ele>1909.20</ele>
	<time>2024-07-25T11:18:28.000Z</time>
</trkpt>
<trkpt lat="46.1127730" lon="10.4682040">
	<ele>1909.20</ele>
	<time>2024-07-25T11:18:29.000Z</time>
</trkpt>
<trkpt lat="46.1127710" lon="10.4681910">
	<ele>1908.80</ele>
	<time>2024-07-25T11:18:30.000Z</time>
</trkpt>
<trkpt lat="46.1127670" lon="10.4681720">
	<ele>1908.60</ele>
	<time>2024-07-25T11:18:31.000Z</time>
</trkpt>
<trkpt lat="46.1127670" lon="10.4681530">
	<ele>1908.40</ele>
	<time>2024-07-25T11:18:32.000Z</time>
</trkpt>
<trkpt lat="46.1127620" lon="10.4681350">
	<ele>1908.00</ele>
	<time>2024-07-25T11:18:33.000Z</time>
</trkpt>
<trkpt lat="46.1127620" lon="10.4681200">
	<ele>1907.80</ele>
	<time>2024-07-25T11:18:34.000Z</time>
</trkpt>
<trkpt lat="46.1127620" lon="10.4681060">
	<ele>1907.60</ele>
	<time>2024-07-25T11:18:35.000Z</time>
</trkpt>
<trkpt lat="46.1127640" lon="10.4680950">
	<ele>1907.40</ele>
	<time>2024-07-25T11:18:36.000Z</time>
</trkpt>
<trkpt lat="46.1127670" lon="10.4680830">
	<ele>1907.40</ele>
	<time>2024-07-25T11:18:37.000Z</time>
</trkpt>
<trkpt lat="46.1127680" lon="10.4680700">
	<ele>1907.00</ele>
	<time>2024-07-25T11:18:38.000Z</time>
</trkpt>
<trkpt lat="46.1127730" lon="10.4680600">
	<ele>1906.80</ele>
	<time>2024-07-25T11:18:39.000Z</time>
</trkpt>
<trkpt lat="46.1127660" lon="10.4680400">
	<ele>1906.60</ele>
	<time>2024-07-25T11:18:40.000Z</time>
</trkpt>
<trkpt lat="46.1127530" lon="10.4680130">
	<ele>1906.40</ele>
	<time>2024-07-25T11:18:41.000Z</time>
</trkpt>
<trkpt lat="46.1127420" lon="10.4679890">
	<ele>1906.20</ele>
	<time>2024-07-25T11:18:42.000Z</time>
</trkpt>
<trkpt lat="46.1127330" lon="10.4679660">
	<ele>1906.00</ele>
	<time>2024-07-25T11:18:43.000Z</time>
</trkpt>
<trkpt lat="46.1127240" lon="10.4679440">
	<ele>1905.80</ele>
	<time>2024-07-25T11:18:44.000Z</time>
</trkpt>
<trkpt lat="46.1127150" lon="10.4679250">
	<ele>1905.80</ele>
	<time>2024-07-25T11:18:45.000Z</time>
</trkpt>
<trkpt lat="46.1127090" lon="10.4679080">
	<ele>1905.60</ele>
	<time>2024-07-25T11:18:46.000Z</time>
</trkpt>
<trkpt lat="46.1127000" lon="10.4678880">
	<ele>1905.40</ele>
	<time>2024-07-25T11:18:47.000Z</time>
</trkpt>
<trkpt lat="46.1126870" lon="10.4678610">
	<ele>1905.00</ele>
	<time>2024-07-25T11:18:48.000Z</time>
</trkpt>
<trkpt lat="46.1126850" lon="10.4678460">
	<ele>1904.80</ele>
	<time>2024-07-25T11:18:49.000Z</time>
</trkpt>
<trkpt lat="46.1126900" lon="10.4678340">
	<ele>1904.60</ele>
	<time>2024-07-25T11:18:50.000Z</time>
</trkpt>
<trkpt lat="46.1126890" lon="10.4678170">
	<ele>1904.40</ele>
	<time>2024-07-25T11:18:51.000Z</time>
</trkpt>
<trkpt lat="46.1126850" lon="10.4677970">
	<ele>1904.20</ele>
	<time>2024-07-25T11:18:52.000Z</time>
</trkpt>
<trkpt lat="46.1126920" lon="10.4677870">
	<ele>1904.00</ele>
	<time>2024-07-25T11:18:53.000Z</time>
</trkpt>
<trkpt lat="46.1126930" lon="10.4677700">
	<ele>1904.00</ele>
	<time>2024-07-25T11:18:54.000Z</time>
</trkpt>
<trkpt lat="46.1126920" lon="10.4677530">
	<ele>1903.60</ele>
	<time>2024-07-25T11:18:55.000Z</time>
</trkpt>
<trkpt lat="46.1126880" lon="10.4677340">
	<ele>1903.40</ele>
	<time>2024-07-25T11:18:56.000Z</time>
</trkpt>
<trkpt lat="46.1126680" lon="10.4677100">
	<ele>1903.20</ele>
	<time>2024-07-25T11:18:57.000Z</time>
</trkpt>
<trkpt lat="46.1126770" lon="10.4676970">
	<ele>1903.00</ele>
	<time>2024-07-25T11:18:58.000Z</time>
</trkpt>
<trkpt lat="46.1126850" lon="10.4676830">
	<ele>1902.80</ele>
	<time>2024-07-25T11:18:59.000Z</time>
</trkpt>
<trkpt lat="46.1126910" lon="10.4676690">
	<ele>1902.60</ele>
	<time>2024-07-25T11:19:00.000Z</time>
</trkpt>
<trkpt lat="46.1127000" lon="10.4676590">
	<ele>1902.20</ele>
	<time>2024-07-25T11:19:01.000Z</time>
</trkpt>
<trkpt lat="46.1127060" lon="10.4676430">
	<ele>1902.00</ele>
	<time>2024-07-25T11:19:02.000Z</time>
</trkpt>
<trkpt lat="46.1127000" lon="10.4676230">
	<ele>1901.80</ele>
	<time>2024-07-25T11:19:03.000Z</time>
</trkpt>
<trkpt lat="46.1127000" lon="10.4676070">
	<ele>1901.60</ele>
	<time>2024-07-25T11:19:04.000Z</time>
</trkpt>
<trkpt lat="46.1127030" lon="10.4675910">
	<ele>1901.20</ele>
	<time>2024-07-25T11:19:05.000Z</time>
</trkpt>
<trkpt lat="46.1127030" lon="10.4675730">
	<ele>1901.20</ele>
	<time>2024-07-25T11:19:06.000Z</time>
</trkpt>
<trkpt lat="46.1126960" lon="10.4675490">
	<ele>1900.80</ele>
	<time>2024-07-25T11:19:07.000Z</time>
</trkpt>
<trkpt lat="46.1126890" lon="10.4675270">
	<ele>1900.60</ele>
	<time>2024-07-25T11:19:08.000Z</time>
</trkpt>
<trkpt lat="46.1126880" lon="10.4675080">
	<ele>1900.40</ele>
	<time>2024-07-25T11:19:09.000Z</time>
</trkpt>
<trkpt lat="46.1126880" lon="10.4674870">
	<ele>1900.20</ele>
	<time>2024-07-25T11:19:10.000Z</time>
</trkpt>
<trkpt lat="46.1126880" lon="10.4674670">
	<ele>1900.00</ele>
	<time>2024-07-25T11:19:11.000Z</time>
</trkpt>
<trkpt lat="46.1126900" lon="10.4674500">
	<ele>1899.80</ele>
	<time>2024-07-25T11:19:12.000Z</time>
</trkpt>
<trkpt lat="46.1126860" lon="10.4674260">
	<ele>1899.60</ele>
	<time>2024-07-25T11:19:13.000Z</time>
</trkpt>
<trkpt lat="46.1126830" lon="10.4674040">
	<ele>1899.40</ele>
	<time>2024-07-25T11:19:14.000Z</time>
</trkpt>
<trkpt lat="46.1126870" lon="10.4673880">
	<ele>1899.00</ele>
	<time>2024-07-25T11:19:15.000Z</time>
</trkpt>
<trkpt lat="46.1126950" lon="10.4673720">
	<ele>1898.80</ele>
	<time>2024-07-25T11:19:16.000Z</time>
</trkpt>
<trkpt lat="46.1127050" lon="10.4673570">
	<ele>1898.60</ele>
	<time>2024-07-25T11:19:17.000Z</time>
</trkpt>
<trkpt lat="46.1127050" lon="10.4673340">
	<ele>1898.40</ele>
	<time>2024-07-25T11:19:18.000Z</time>
</trkpt>
<trkpt lat="46.1127080" lon="10.4673120">
	<ele>1898.20</ele>
	<time>2024-07-25T11:19:19.000Z</time>
</trkpt>
<trkpt lat="46.1127140" lon="10.4672920">
	<ele>1898.20</ele>
	<time>2024-07-25T11:19:20.000Z</time>
</trkpt>
<trkpt lat="46.1127130" lon="10.4672700">
	<ele>1898.00</ele>
	<time>2024-07-25T11:19:21.000Z</time>
</trkpt>
<trkpt lat="46.1127210" lon="10.4672510">
	<ele>1897.80</ele>
	<time>2024-07-25T11:19:22.000Z</time>
</trkpt>
<trkpt lat="46.1127270" lon="10.4672330">
	<ele>1897.60</ele>
	<time>2024-07-25T11:19:23.000Z</time>
</trkpt>
<trkpt lat="46.1127250" lon="10.4672120">
	<ele>1897.40</ele>
	<time>2024-07-25T11:19:24.000Z</time>
</trkpt>
<trkpt lat="46.1127220" lon="10.4672020">
	<ele>1897.40</ele>
	<time>2024-07-25T11:19:25.000Z</time>
</trkpt>
<trkpt lat="46.1127090" lon="10.4671870">
	<ele>1897.20</ele>
	<time>2024-07-25T11:19:26.000Z</time>
</trkpt>
<trkpt lat="46.1127080" lon="10.4671820">
	<ele>1897.00</ele>
	<time>2024-07-25T11:19:27.000Z</time>
</trkpt>
<trkpt lat="46.1127060" lon="10.4671800">
	<ele>1897.00</ele>
	<time>2024-07-25T11:19:28.000Z</time>
</trkpt>
<trkpt lat="46.1127050" lon="10.4671780">
	<ele>1896.80</ele>
	<time>2024-07-25T11:19:29.000Z</time>
</trkpt>
<trkpt lat="46.1127030" lon="10.4671770">
	<ele>1896.60</ele>
	<time>2024-07-25T11:19:30.000Z</time>
</trkpt>
<trkpt lat="46.1127010" lon="10.4671750">
	<ele>1896.60</ele>
	<time>2024-07-25T11:19:31.000Z</time>
</trkpt>
<trkpt lat="46.1126920" lon="10.4671680">
	<ele>1896.60</ele>
	<time>2024-07-25T11:19:32.000Z</time>
</trkpt>
<trkpt lat="46.1126920" lon="10.4671630">
	<ele>1896.60</ele>
	<time>2024-07-25T11:19:33.000Z</time>
</trkpt>
<trkpt lat="46.1127000" lon="10.4671570">
	<ele>1896.60</ele>
	<time>2024-07-25T11:19:34.000Z</time>
</trkpt>
<trkpt lat="46.1127010" lon="10.4671400">
	<ele>1896.60</ele>
	<time>2024-07-25T11:19:35.000Z</time>
</trkpt>
<trkpt lat="46.1126920" lon="10.4671140">
	<ele>1896.60</ele>
	<time>2024-07-25T11:19:36.000Z</time>
</trkpt>
<trkpt lat="46.1126880" lon="10.4670980">
	<ele>1896.60</ele>
	<time>2024-07-25T11:19:37.000Z</time>
</trkpt>
<trkpt lat="46.1126870" lon="10.4670830">
	<ele>1896.60</ele>
	<time>2024-07-25T11:19:38.000Z</time>
</trkpt>
<trkpt lat="46.1126870" lon="10.4670660">
	<ele>1896.60</ele>
	<time>2024-07-25T11:19:39.000Z</time>
</trkpt>
<trkpt lat="46.1126870" lon="10.4670470">
	<ele>1896.60</ele>
	<time>2024-07-25T11:19:40.000Z</time>
</trkpt>
<trkpt lat="46.1126880" lon="10.4670290">
	<ele>1896.60</ele>
	<time>2024-07-25T11:19:41.000Z</time>
</trkpt>
<trkpt lat="46.1126890" lon="10.4670090">
	<ele>1896.40</ele>
	<time>2024-07-25T11:19:42.000Z</time>
</trkpt>
<trkpt lat="46.1126880" lon="10.4669850">
	<ele>1896.40</ele>
	<time>2024-07-25T11:19:43.000Z</time>
</trkpt>
<trkpt lat="46.1126910" lon="10.4669640">
	<ele>1896.40</ele>
	<time>2024-07-25T11:19:44.000Z</time>
</trkpt>
<trkpt lat="46.1127040" lon="10.4669500">
	<ele>1896.40</ele>
	<time>2024-07-25T11:19:45.000Z</time>
</trkpt>
<trkpt lat="46.1127150" lon="10.4669350">
	<ele>1896.40</ele>
	<time>2024-07-25T11:19:46.000Z</time>
</trkpt>
<trkpt lat="46.1127170" lon="10.4669180">
	<ele>1896.40</ele>
	<time>2024-07-25T11:19:47.000Z</time>
</trkpt>
<trkpt lat="46.1127210" lon="10.4669020">
	<ele>1896.40</ele>
	<time>2024-07-25T11:19:48.000Z</time>
</trkpt>
<trkpt lat="46.1127250" lon="10.4668860">
	<ele>1896.20</ele>
	<time>2024-07-25T11:19:49.000Z</time>
</trkpt>
<trkpt lat="46.1127300" lon="10.4668690">
	<ele>1896.20</ele>
	<time>2024-07-25T11:19:50.000Z</time>
</trkpt>
<trkpt lat="46.1127280" lon="10.4668460">
	<ele>1896.00</ele>
	<time>2024-07-25T11:19:51.000Z</time>
</trkpt>
<trkpt lat="46.1127300" lon="10.4668270">
	<ele>1896.00</ele>
	<time>2024-07-25T11:19:52.000Z</time>
</trkpt>
<trkpt lat="46.1127280" lon="10.4668070">
	<ele>1896.00</ele>
	<time>2024-07-25T11:19:53.000Z</time>
</trkpt>
<trkpt lat="46.1127210" lon="10.4667850">
	<ele>1896.00</ele>
	<time>2024-07-25T11:19:54.000Z</time>
</trkpt>
<trkpt lat="46.1127200" lon="10.4667650">
	<ele>1896.00</ele>
	<time>2024-07-25T11:19:55.000Z</time>
</trkpt>
<trkpt lat="46.1127230" lon="10.4667460">
	<ele>1895.80</ele>
	<time>2024-07-25T11:19:56.000Z</time>
</trkpt>
<trkpt lat="46.1127240" lon="10.4667260">
	<ele>1895.80</ele>
	<time>2024-07-25T11:19:57.000Z</time>
</trkpt>
<trkpt lat="46.1127240" lon="10.4667050">
	<ele>1895.80</ele>
	<time>2024-07-25T11:19:58.000Z</time>
</trkpt>
<trkpt lat="46.1127270" lon="10.4666900">
	<ele>1895.60</ele>
	<time>2024-07-25T11:19:59.000Z</time>
</trkpt>
<trkpt lat="46.1127300" lon="10.4666730">
	<ele>1895.60</ele>
	<time>2024-07-25T11:20:00.000Z</time>
</trkpt>
<trkpt lat="46.1127350" lon="10.4666560">
	<ele>1895.60</ele>
	<time>2024-07-25T11:20:01.000Z</time>
</trkpt>
<trkpt lat="46.1127410" lon="10.4666430">
	<ele>1895.60</ele>
	<time>2024-07-25T11:20:02.000Z</time>
</trkpt>
<trkpt lat="46.1127380" lon="10.4666250">
	<ele>1895.60</ele>
	<time>2024-07-25T11:20:03.000Z</time>
</trkpt>
<trkpt lat="46.1127340" lon="10.4666040">
	<ele>1895.60</ele>
	<time>2024-07-25T11:20:04.000Z</time>
</trkpt>
<trkpt lat="46.1127240" lon="10.4665780">
	<ele>1895.60</ele>
	<time>2024-07-25T11:20:05.000Z</time>
</trkpt>
<trkpt lat="46.1127210" lon="10.4665560">
	<ele>1895.60</ele>
	<time>2024-07-25T11:20:06.000Z</time>
</trkpt>
<trkpt lat="46.1127150" lon="10.4665290">
	<ele>1895.60</ele>
	<time>2024-07-25T11:20:07.000Z</time>
</trkpt>
<trkpt lat="46.1127090" lon="10.4665080">
	<ele>1895.60</ele>
	<time>2024-07-25T11:20:08.000Z</time>
</trkpt>
<trkpt lat="46.1127040" lon="10.4664880">
	<ele>1895.80</ele>
	<time>2024-07-25T11:20:09.000Z</time>
</trkpt>
<trkpt lat="46.1126980" lon="10.4664670">
	<ele>1895.80</ele>
	<time>2024-07-25T11:20:10.000Z</time>
</trkpt>
<trkpt lat="46.1126930" lon="10.4664480">
	<ele>1895.80</ele>
	<time>2024-07-25T11:20:11.000Z</time>
</trkpt>
<trkpt lat="46.1126880" lon="10.4664280">
	<ele>1895.80</ele>
	<time>2024-07-25T11:20:12.000Z</time>
</trkpt>
<trkpt lat="46.1126850" lon="10.4664100">
	<ele>1895.80</ele>
	<time>2024-07-25T11:20:13.000Z</time>
</trkpt>
<trkpt lat="46.1126930" lon="10.4664010">
	<ele>1895.80</ele>
	<time>2024-07-25T11:20:14.000Z</time>
</trkpt>
<trkpt lat="46.1126830" lon="10.4663780">
	<ele>1895.80</ele>
	<time>2024-07-25T11:20:15.000Z</time>
</trkpt>
<trkpt lat="46.1126700" lon="10.4663520">
	<ele>1895.80</ele>
	<time>2024-07-25T11:20:16.000Z</time>
</trkpt>
<trkpt lat="46.1126630" lon="10.4663300">
	<ele>1895.80</ele>
	<time>2024-07-25T11:20:17.000Z</time>
</trkpt>
<trkpt lat="46.1126540" lon="10.4663090">
	<ele>1895.80</ele>
	<time>2024-07-25T11:20:18.000Z</time>
</trkpt>
<trkpt lat="46.1126450" lon="10.4662880">
	<ele>1895.60</ele>
	<time>2024-07-25T11:20:19.000Z</time>
</trkpt>
<trkpt lat="46.1126390" lon="10.4662670">
	<ele>1895.60</ele>
	<time>2024-07-25T11:20:20.000Z</time>
</trkpt>
<trkpt lat="46.1126300" lon="10.4662490">
	<ele>1895.60</ele>
	<time>2024-07-25T11:20:21.000Z</time>
</trkpt>
<trkpt lat="46.1126210" lon="10.4662290">
	<ele>1895.60</ele>
	<time>2024-07-25T11:20:22.000Z</time>
</trkpt>
<trkpt lat="46.1126130" lon="10.4662080">
	<ele>1895.60</ele>
	<time>2024-07-25T11:20:23.000Z</time>
</trkpt>
<trkpt lat="46.1126040" lon="10.4661870">
	<ele>1895.60</ele>
	<time>2024-07-25T11:20:24.000Z</time>
</trkpt>
<trkpt lat="46.1125970" lon="10.4661680">
	<ele>1895.60</ele>
	<time>2024-07-25T11:20:25.000Z</time>
</trkpt>
<trkpt lat="46.1125880" lon="10.4661450">
	<ele>1895.60</ele>
	<time>2024-07-25T11:20:26.000Z</time>
</trkpt>
<trkpt lat="46.1125810" lon="10.4661230">
	<ele>1895.60</ele>
	<time>2024-07-25T11:20:27.000Z</time>
</trkpt>
<trkpt lat="46.1125720" lon="10.4661010">
	<ele>1895.60</ele>
	<time>2024-07-25T11:20:28.000Z</time>
</trkpt>
<trkpt lat="46.1125690" lon="10.4660840">
	<ele>1895.60</ele>
	<time>2024-07-25T11:20:29.000Z</time>
</trkpt>
<trkpt lat="46.1125790" lon="10.4660800">
	<ele>1895.60</ele>
	<time>2024-07-25T11:20:30.000Z</time>
</trkpt>
<trkpt lat="46.1125790" lon="10.4660580">
	<ele>1895.80</ele>
	<time>2024-07-25T11:20:31.000Z</time>
</trkpt>
<trkpt lat="46.1125760" lon="10.4660290">
	<ele>1895.80</ele>
	<time>2024-07-25T11:20:32.000Z</time>
</trkpt>
<trkpt lat="46.1125660" lon="10.4660050">
	<ele>1895.80</ele>
	<time>2024-07-25T11:20:33.000Z</time>
</trkpt>
<trkpt lat="46.1125600" lon="10.4659830">
	<ele>1895.80</ele>
	<time>2024-07-25T11:20:34.000Z</time>
</trkpt>
<trkpt lat="46.1125600" lon="10.4659690">
	<ele>1895.80</ele>
	<time>2024-07-25T11:20:35.000Z</time>
</trkpt>
<trkpt lat="46.1125520" lon="10.4659430">
	<ele>1895.80</ele>
	<time>2024-07-25T11:20:36.000Z</time>
</trkpt>
<trkpt lat="46.1125500" lon="10.4659200">
	<ele>1896.00</ele>
	<time>2024-07-25T11:20:37.000Z</time>
</trkpt>
<trkpt lat="46.1125510" lon="10.4658970">
	<ele>1895.80</ele>
	<time>2024-07-25T11:20:38.000Z</time>
</trkpt>
<trkpt lat="46.1125530" lon="10.4658770">
	<ele>1895.80</ele>
	<time>2024-07-25T11:20:39.000Z</time>
</trkpt>
<trkpt lat="46.1125590" lon="10.4658590">
	<ele>1895.80</ele>
	<time>2024-07-25T11:20:40.000Z</time>
</trkpt>
<trkpt lat="46.1125590" lon="10.4658380">
	<ele>1895.80</ele>
	<time>2024-07-25T11:20:41.000Z</time>
</trkpt>
<trkpt lat="46.1125640" lon="10.4658220">
	<ele>1895.80</ele>
	<time>2024-07-25T11:20:42.000Z</time>
</trkpt>
<trkpt lat="46.1125720" lon="10.4658080">
	<ele>1895.80</ele>
	<time>2024-07-25T11:20:43.000Z</time>
</trkpt>
<trkpt lat="46.1125800" lon="10.4657930">
	<ele>1895.80</ele>
	<time>2024-07-25T11:20:44.000Z</time>
</trkpt>
<trkpt lat="46.1125860" lon="10.4657810">
	<ele>1895.60</ele>
	<time>2024-07-25T11:20:45.000Z</time>
</trkpt>
<trkpt lat="46.1125910" lon="10.4657660">
	<ele>1895.60</ele>
	<time>2024-07-25T11:20:46.000Z</time>
</trkpt>
<trkpt lat="46.1125950" lon="10.4657480">
	<ele>1895.60</ele>
	<time>2024-07-25T11:20:47.000Z</time>
</trkpt>
<trkpt lat="46.1126080" lon="10.4657350">
	<ele>1895.60</ele>
	<time>2024-07-25T11:20:48.000Z</time>
</trkpt>
<trkpt lat="46.1126190" lon="10.4657170">
	<ele>1895.60</ele>
	<time>2024-07-25T11:20:49.000Z</time>
</trkpt>
<trkpt lat="46.1126180" lon="10.4656900">
	<ele>1895.60</ele>
	<time>2024-07-25T11:20:50.000Z</time>
</trkpt>
<trkpt lat="46.1126180" lon="10.4656670">
	<ele>1895.60</ele>
	<time>2024-07-25T11:20:51.000Z</time>
</trkpt>
<trkpt lat="46.1126230" lon="10.4656460">
	<ele>1895.60</ele>
	<time>2024-07-25T11:20:52.000Z</time>
</trkpt>
<trkpt lat="46.1126300" lon="10.4656270">
	<ele>1895.40</ele>
	<time>2024-07-25T11:20:53.000Z</time>
</trkpt>
<trkpt lat="46.1126380" lon="10.4656100">
	<ele>1895.40</ele>
	<time>2024-07-25T11:20:54.000Z</time>
</trkpt>
<trkpt lat="46.1126430" lon="10.4655940">
	<ele>1895.40</ele>
	<time>2024-07-25T11:20:55.000Z</time>
</trkpt>
<trkpt lat="46.1126460" lon="10.4655740">
	<ele>1895.20</ele>
	<time>2024-07-25T11:20:56.000Z</time>
</trkpt>
<trkpt lat="46.1126550" lon="10.4655600">
	<ele>1895.20</ele>
	<time>2024-07-25T11:20:57.000Z</time>
</trkpt>
<trkpt lat="46.1126610" lon="10.4655420">
	<ele>1895.20</ele>
	<time>2024-07-25T11:20:58.000Z</time>
</trkpt>
<trkpt lat="46.1126660" lon="10.4655240">
	<ele>1895.20</ele>
	<time>2024-07-25T11:20:59.000Z</time>
</trkpt>
<trkpt lat="46.1126700" lon="10.4655080">
	<ele>1895.20</ele>
	<time>2024-07-25T11:21:00.000Z</time>
</trkpt>
<trkpt lat="46.1126770" lon="10.4654940">
	<ele>1895.20</ele>
	<time>2024-07-25T11:21:01.000Z</time>
</trkpt>
<trkpt lat="46.1126920" lon="10.4654790">
	<ele>1895.00</ele>
	<time>2024-07-25T11:21:02.000Z</time>
</trkpt>
<trkpt lat="46.1127040" lon="10.4654630">
	<ele>1895.00</ele>
	<time>2024-07-25T11:21:03.000Z</time>
</trkpt>
<trkpt lat="46.1127150" lon="10.4654480">
	<ele>1895.00</ele>
	<time>2024-07-25T11:21:04.000Z</time>
</trkpt>
<trkpt lat="46.1127250" lon="10.4654320">
	<ele>1895.00</ele>
	<time>2024-07-25T11:21:05.000Z</time>
</trkpt>
<trkpt lat="46.1127320" lon="10.4654090">
	<ele>1895.00</ele>
	<time>2024-07-25T11:21:06.000Z</time>
</trkpt>
<trkpt lat="46.1127450" lon="10.4653920">
	<ele>1895.00</ele>
	<time>2024-07-25T11:21:07.000Z</time>
</trkpt>
<trkpt lat="46.1127520" lon="10.4653750">
	<ele>1895.00</ele>
	<time>2024-07-25T11:21:08.000Z</time>
</trkpt>
<trkpt lat="46.1127540" lon="10.4653520">
	<ele>1894.80</ele>
	<time>2024-07-25T11:21:09.000Z</time>
</trkpt>
<trkpt lat="46.1127590" lon="10.4653350">
	<ele>1894.80</ele>
	<time>2024-07-25T11:21:10.000Z</time>
</trkpt>
<trkpt lat="46.1127620" lon="10.4653150">
	<ele>1894.80</ele>
	<time>2024-07-25T11:21:11.000Z</time>
</trkpt>
<trkpt lat="46.1127740" lon="10.4652910">
	<ele>1894.80</ele>
	<time>2024-07-25T11:21:12.000Z</time>
</trkpt>
<trkpt lat="46.1127820" lon="10.4652740">
	<ele>1894.80</ele>
	<time>2024-07-25T11:21:13.000Z</time>
</trkpt>
<trkpt lat="46.1127860" lon="10.4652550">
	<ele>1894.80</ele>
	<time>2024-07-25T11:21:14.000Z</time>
</trkpt>
<trkpt lat="46.1127900" lon="10.4652360">
	<ele>1894.60</ele>
	<time>2024-07-25T11:21:15.000Z</time>
</trkpt>
<trkpt lat="46.1127960" lon="10.4652200">
	<ele>1894.60</ele>
	<time>2024-07-25T11:21:16.000Z</time>
</trkpt>
<trkpt lat="46.1128020" lon="10.4652020">
	<ele>1894.60</ele>
	<time>2024-07-25T11:21:17.000Z</time>
</trkpt>
<trkpt lat="46.1128060" lon="10.4651870">
	<ele>1894.60</ele>
	<time>2024-07-25T11:21:18.000Z</time>
</trkpt>
<trkpt lat="46.1128060" lon="10.4651700">
	<ele>1894.60</ele>
	<time>2024-07-25T11:21:19.000Z</time>
</trkpt>
<trkpt lat="46.1128070" lon="10.4651450">
	<ele>1894.60</ele>
	<time>2024-07-25T11:21:20.000Z</time>
</trkpt>
<trkpt lat="46.1128050" lon="10.4651370">
	<ele>1894.60</ele>
	<time>2024-07-25T11:21:21.000Z</time>
</trkpt>
<trkpt lat="46.1127960" lon="10.4651120">
	<ele>1894.60</ele>
	<time>2024-07-25T11:21:22.000Z</time>
</trkpt>
<trkpt lat="46.1127870" lon="10.4650940">
	<ele>1894.60</ele>
	<time>2024-07-25T11:21:23.000Z</time>
</trkpt>
<trkpt lat="46.1127800" lon="10.4650780">
	<ele>1894.60</ele>
	<time>2024-07-25T11:21:24.000Z</time>
</trkpt>
<trkpt lat="46.1127750" lon="10.4650640">
	<ele>1894.60</ele>
	<time>2024-07-25T11:21:25.000Z</time>
</trkpt>
<trkpt lat="46.1127660" lon="10.4650450">
	<ele>1894.60</ele>
	<time>2024-07-25T11:21:26.000Z</time>
</trkpt>
<trkpt lat="46.1127590" lon="10.4650270">
	<ele>1894.60</ele>
	<time>2024-07-25T11:21:27.000Z</time>
</trkpt>
<trkpt lat="46.1127520" lon="10.4650150">
	<ele>1894.60</ele>
	<time>2024-07-25T11:21:28.000Z</time>
</trkpt>
<trkpt lat="46.1127390" lon="10.4650040">
	<ele>1894.60</ele>
	<time>2024-07-25T11:21:29.000Z</time>
</trkpt>
<trkpt lat="46.1127300" lon="10.4649930">
	<ele>1894.60</ele>
	<time>2024-07-25T11:21:30.000Z</time>
</trkpt>
<trkpt lat="46.1127210" lon="10.4649790">
	<ele>1894.60</ele>
	<time>2024-07-25T11:21:31.000Z</time>
</trkpt>
<trkpt lat="46.1127100" lon="10.4649640">
	<ele>1894.80</ele>
	<time>2024-07-25T11:21:32.000Z</time>
</trkpt>
<trkpt lat="46.1126990" lon="10.4649470">
	<ele>1894.80</ele>
	<time>2024-07-25T11:21:33.000Z</time>
</trkpt>
<trkpt lat="46.1126900" lon="10.4649320">
	<ele>1894.80</ele>
	<time>2024-07-25T11:21:34.000Z</time>
</trkpt>
<trkpt lat="46.1126810" lon="10.4649170">
	<ele>1894.80</ele>
	<time>2024-07-25T11:21:35.000Z</time>
</trkpt>
<trkpt lat="46.1126720" lon="10.4649040">
	<ele>1895.00</ele>
	<time>2024-07-25T11:21:36.000Z</time>
</trkpt>
<trkpt lat="46.1126600" lon="10.4648870">
	<ele>1895.00</ele>
	<time>2024-07-25T11:21:37.000Z</time>
</trkpt>
<trkpt lat="46.1126490" lon="10.4648660">
	<ele>1895.00</ele>
	<time>2024-07-25T11:21:38.000Z</time>
</trkpt>
<trkpt lat="46.1126420" lon="10.4648410">
	<ele>1895.20</ele>
	<time>2024-07-25T11:21:39.000Z</time>
</trkpt>
<trkpt lat="46.1126360" lon="10.4648200">
	<ele>1895.20</ele>
	<time>2024-07-25T11:21:40.000Z</time>
</trkpt>
<trkpt lat="46.1126310" lon="10.4648030">
	<ele>1895.20</ele>
	<time>2024-07-25T11:21:41.000Z</time>
</trkpt>
<trkpt lat="46.1126280" lon="10.4647870">
	<ele>1895.20</ele>
	<time>2024-07-25T11:21:42.000Z</time>
</trkpt>
<trkpt lat="46.1126310" lon="10.4647740">
	<ele>1895.20</ele>
	<time>2024-07-25T11:21:43.000Z</time>
</trkpt>
<trkpt lat="46.1126280" lon="10.4647530">
	<ele>1895.40</ele>
	<time>2024-07-25T11:21:44.000Z</time>
</trkpt>
<trkpt lat="46.1126220" lon="10.4647320">
	<ele>1895.40</ele>
	<time>2024-07-25T11:21:45.000Z</time>
</trkpt>
<trkpt lat="46.1126160" lon="10.4647110">
	<ele>1895.40</ele>
	<time>2024-07-25T11:21:46.000Z</time>
</trkpt>
<trkpt lat="46.1126090" lon="10.4646850">
	<ele>1895.40</ele>
	<time>2024-07-25T11:21:47.000Z</time>
</trkpt>
<trkpt lat="46.1125980" lon="10.4646600">
	<ele>1895.20</ele>
	<time>2024-07-25T11:21:48.000Z</time>
</trkpt>
<trkpt lat="46.1125800" lon="10.4646380">
	<ele>1895.20</ele>
	<time>2024-07-25T11:21:49.000Z</time>
</trkpt>
<trkpt lat="46.1125680" lon="10.4646180">
	<ele>1895.20</ele>
	<time>2024-07-25T11:21:50.000Z</time>
</trkpt>
<trkpt lat="46.1125590" lon="10.4646020">
	<ele>1895.20</ele>
	<time>2024-07-25T11:21:51.000Z</time>
</trkpt>
<trkpt lat="46.1125540" lon="10.4645850">
	<ele>1895.20</ele>
	<time>2024-07-25T11:21:52.000Z</time>
</trkpt>
<trkpt lat="46.1125500" lon="10.4645670">
	<ele>1895.20</ele>
	<time>2024-07-25T11:21:53.000Z</time>
</trkpt>
<trkpt lat="46.1125410" lon="10.4645520">
	<ele>1895.40</ele>
	<time>2024-07-25T11:21:54.000Z</time>
</trkpt>
<trkpt lat="46.1125280" lon="10.4645390">
	<ele>1895.40</ele>
	<time>2024-07-25T11:21:55.000Z</time>
</trkpt>
<trkpt lat="46.1125200" lon="10.4645230">
	<ele>1895.40</ele>
	<time>2024-07-25T11:21:56.000Z</time>
</trkpt>
<trkpt lat="46.1125150" lon="10.4645020">
	<ele>1895.40</ele>
	<time>2024-07-25T11:21:57.000Z</time>
</trkpt>
<trkpt lat="46.1125110" lon="10.4644840">
	<ele>1895.40</ele>
	<time>2024-07-25T11:21:58.000Z</time>
</trkpt>
<trkpt lat="46.1125070" lon="10.4644680">
	<ele>1895.20</ele>
	<time>2024-07-25T11:21:59.000Z</time>
</trkpt>
<trkpt lat="46.1125050" lon="10.4644550">
	<ele>1895.20</ele>
	<time>2024-07-25T11:22:00.000Z</time>
</trkpt>
<trkpt lat="46.1125050" lon="10.4644440">
	<ele>1895.20</ele>
	<time>2024-07-25T11:22:01.000Z</time>
</trkpt>
<trkpt lat="46.1125060" lon="10.4644340">
	<ele>1895.20</ele>
	<time>2024-07-25T11:22:02.000Z</time>
</trkpt>
<trkpt lat="46.1125110" lon="10.4644240">
	<ele>1895.20</ele>
	<time>2024-07-25T11:22:03.000Z</time>
</trkpt>
<trkpt lat="46.1125090" lon="10.4644090">
	<ele>1895.40</ele>
	<time>2024-07-25T11:22:04.000Z</time>
</trkpt>
<trkpt lat="46.1125080" lon="10.4643930">
	<ele>1895.40</ele>
	<time>2024-07-25T11:22:05.000Z</time>
</trkpt>
<trkpt lat="46.1124910" lon="10.4643720">
	<ele>1895.60</ele>
	<time>2024-07-25T11:22:06.000Z</time>
</trkpt>
<trkpt lat="46.1124860" lon="10.4643540">
	<ele>1895.60</ele>
	<time>2024-07-25T11:22:07.000Z</time>
</trkpt>
<trkpt lat="46.1124840" lon="10.4643370">
	<ele>1895.60</ele>
	<time>2024-07-25T11:22:08.000Z</time>
</trkpt>
<trkpt lat="46.1124760" lon="10.4643160">
	<ele>1895.60</ele>
	<time>2024-07-25T11:22:09.000Z</time>
</trkpt>
<trkpt lat="46.1124670" lon="10.4642970">
	<ele>1895.60</ele>
	<time>2024-07-25T11:22:10.000Z</time>
</trkpt>
<trkpt lat="46.1124620" lon="10.4642770">
	<ele>1895.60</ele>
	<time>2024-07-25T11:22:11.000Z</time>
</trkpt>
<trkpt lat="46.1124560" lon="10.4642560">
	<ele>1895.60</ele>
	<time>2024-07-25T11:22:12.000Z</time>
</trkpt>
<trkpt lat="46.1124470" lon="10.4642310">
	<ele>1895.60</ele>
	<time>2024-07-25T11:22:13.000Z</time>
</trkpt>
<trkpt lat="46.1124370" lon="10.4642140">
	<ele>1895.80</ele>
	<time>2024-07-25T11:22:14.000Z</time>
</trkpt>
<trkpt lat="46.1124310" lon="10.4641980">
	<ele>1895.80</ele>
	<time>2024-07-25T11:22:15.000Z</time>
</trkpt>
<trkpt lat="46.1124270" lon="10.4641830">
	<ele>1895.80</ele>
	<time>2024-07-25T11:22:16.000Z</time>
</trkpt>
<trkpt lat="46.1124300" lon="10.4641630">
	<ele>1896.00</ele>
	<time>2024-07-25T11:22:17.000Z</time>
</trkpt>
<trkpt lat="46.1124280" lon="10.4641410">
	<ele>1896.00</ele>
	<time>2024-07-25T11:22:18.000Z</time>
</trkpt>
<trkpt lat="46.1124250" lon="10.4641240">
	<ele>1896.00</ele>
	<time>2024-07-25T11:22:19.000Z</time>
</trkpt>
<trkpt lat="46.1124250" lon="10.4641030">
	<ele>1896.20</ele>
	<time>2024-07-25T11:22:20.000Z</time>
</trkpt>
<trkpt lat="46.1124240" lon="10.4640890">
	<ele>1896.20</ele>
	<time>2024-07-25T11:22:21.000Z</time>
</trkpt>
<trkpt lat="46.1124240" lon="10.4640650">
	<ele>1896.40</ele>
	<time>2024-07-25T11:22:22.000Z</time>
</trkpt>
<trkpt lat="46.1124210" lon="10.4640410">
	<ele>1896.40</ele>
	<time>2024-07-25T11:22:23.000Z</time>
</trkpt>
<trkpt lat="46.1124200" lon="10.4640190">
	<ele>1896.40</ele>
	<time>2024-07-25T11:22:24.000Z</time>
</trkpt>
<trkpt lat="46.1124220" lon="10.4640030">
	<ele>1896.40</ele>
	<time>2024-07-25T11:22:25.000Z</time>
</trkpt>
<trkpt lat="46.1124200" lon="10.4639790">
	<ele>1896.40</ele>
	<time>2024-07-25T11:22:26.000Z</time>
</trkpt>
<trkpt lat="46.1124200" lon="10.4639600">
	<ele>1896.20</ele>
	<time>2024-07-25T11:22:27.000Z</time>
</trkpt>
<trkpt lat="46.1124170" lon="10.4639420">
	<ele>1896.20</ele>
	<time>2024-07-25T11:22:28.000Z</time>
</trkpt>
<trkpt lat="46.1124080" lon="10.4639250">
	<ele>1896.00</ele>
	<time>2024-07-25T11:22:29.000Z</time>
</trkpt>
<trkpt lat="46.1124000" lon="10.4639180">
	<ele>1896.00</ele>
	<time>2024-07-25T11:22:30.000Z</time>
</trkpt>
<trkpt lat="46.1123980" lon="10.4639200">
	<ele>1896.00</ele>
	<time>2024-07-25T11:22:31.000Z</time>
</trkpt>
<trkpt lat="46.1123990" lon="10.4639210">
	<ele>1895.80</ele>
	<time>2024-07-25T11:22:32.000Z</time>
</trkpt>
<trkpt lat="46.1123990" lon="10.4639230">
	<ele>1895.60</ele>
	<time>2024-07-25T11:22:33.000Z</time>
</trkpt>
<trkpt lat="46.1124000" lon="10.4639260">
	<ele>1895.20</ele>
	<time>2024-07-25T11:22:34.000Z</time>
</trkpt>
<trkpt lat="46.1124030" lon="10.4639320">
	<ele>1895.00</ele>
	<time>2024-07-25T11:22:35.000Z</time>
</trkpt>
<trkpt lat="46.1124040" lon="10.4639340">
	<ele>1894.80</ele>
	<time>2024-07-25T11:22:36.000Z</time>
</trkpt>
<trkpt lat="46.1124030" lon="10.4639350">
	<ele>1894.60</ele>
	<time>2024-07-25T11:22:37.000Z</time>
</trkpt>
<trkpt lat="46.1124030" lon="10.4639350">
	<ele>1894.60</ele>
	<time>2024-07-25T11:22:38.000Z</time>
</trkpt>
<trkpt lat="46.1124050" lon="10.4639360">
	<ele>1894.60</ele>
	<time>2024-07-25T11:22:39.000Z</time>
</trkpt>
<trkpt lat="46.1124090" lon="10.4639380">
	<ele>1894.60</ele>
	<time>2024-07-25T11:22:40.000Z</time>
</trkpt>
<trkpt lat="46.1124100" lon="10.4639390">
	<ele>1894.60</ele>
	<time>2024-07-25T11:22:41.000Z</time>
</trkpt>
<trkpt lat="46.1124100" lon="10.4639390">
	<ele>1894.60</ele>
	<time>2024-07-25T11:22:42.000Z</time>
</trkpt>
<trkpt lat="46.1124100" lon="10.4639390">
	<ele>1894.60</ele>
	<time>2024-07-25T11:22:43.000Z</time>
</trkpt>
<trkpt lat="46.1124100" lon="10.4639390">
	<ele>1894.60</ele>
	<time>2024-07-25T11:22:44.000Z</time>
</trkpt>
<trkpt lat="46.1124100" lon="10.4639390">
	<ele>1894.60</ele>
	<time>2024-07-25T11:22:45.000Z</time>
</trkpt>
<trkpt lat="46.1124100" lon="10.4639390">
	<ele>1894.60</ele>
	<time>2024-07-25T11:22:46.000Z</time>
</trkpt>
<trkpt lat="46.1124100" lon="10.4639390">
	<ele>1894.80</ele>
	<time>2024-07-25T11:22:47.000Z</time>
</trkpt>
<trkpt lat="46.1124100" lon="10.4639390">
	<ele>1895.20</ele>
	<time>2024-07-25T11:22:48.000Z</time>
</trkpt>
<trkpt lat="46.1124100" lon="10.4639350">
	<ele>1895.40</ele>
	<time>2024-07-25T11:22:49.000Z</time>
</trkpt>
<trkpt lat="46.1124160" lon="10.4639200">
	<ele>1895.40</ele>
	<time>2024-07-25T11:22:50.000Z</time>
</trkpt>
<trkpt lat="46.1124190" lon="10.4639010">
	<ele>1895.40</ele>
	<time>2024-07-25T11:22:51.000Z</time>
</trkpt>
<trkpt lat="46.1124220" lon="10.4638790">
	<ele>1895.40</ele>
	<time>2024-07-25T11:22:52.000Z</time>
</trkpt>
<trkpt lat="46.1124260" lon="10.4638570">
	<ele>1895.40</ele>
	<time>2024-07-25T11:22:53.000Z</time>
</trkpt>
<trkpt lat="46.1124280" lon="10.4638330">
	<ele>1895.20</ele>
	<time>2024-07-25T11:22:54.000Z</time>
</trkpt>
<trkpt lat="46.1124290" lon="10.4638100">
	<ele>1895.20</ele>
	<time>2024-07-25T11:22:55.000Z</time>
</trkpt>
<trkpt lat="46.1124280" lon="10.4637840">
	<ele>1895.20</ele>
	<time>2024-07-25T11:22:56.000Z</time>
</trkpt>
<trkpt lat="46.1124290" lon="10.4637580">
	<ele>1895.00</ele>
	<time>2024-07-25T11:22:57.000Z</time>
</trkpt>
<trkpt lat="46.1124290" lon="10.4637320">
	<ele>1895.00</ele>
	<time>2024-07-25T11:22:58.000Z</time>
</trkpt>
<trkpt lat="46.1124270" lon="10.4637060">
	<ele>1894.80</ele>
	<time>2024-07-25T11:22:59.000Z</time>
</trkpt>
<trkpt lat="46.1124170" lon="10.4636780">
	<ele>1894.60</ele>
	<time>2024-07-25T11:23:00.000Z</time>
</trkpt>
<trkpt lat="46.1124090" lon="10.4636530">
	<ele>1894.60</ele>
	<time>2024-07-25T11:23:01.000Z</time>
</trkpt>
<trkpt lat="46.1124060" lon="10.4636280">
	<ele>1894.40</ele>
	<time>2024-07-25T11:23:02.000Z</time>
</trkpt>
<trkpt lat="46.1124110" lon="10.4636070">
	<ele>1894.40</ele>
	<time>2024-07-25T11:23:03.000Z</time>
</trkpt>
<trkpt lat="46.1124150" lon="10.4635800">
	<ele>1894.40</ele>
	<time>2024-07-25T11:23:04.000Z</time>
</trkpt>
<trkpt lat="46.1124130" lon="10.4635560">
	<ele>1894.40</ele>
	<time>2024-07-25T11:23:05.000Z</time>
</trkpt>
<trkpt lat="46.1124080" lon="10.4635400">
	<ele>1894.40</ele>
	<time>2024-07-25T11:23:06.000Z</time>
</trkpt>
<trkpt lat="46.1124000" lon="10.4635230">
	<ele>1894.40</ele>
	<time>2024-07-25T11:23:07.000Z</time>
</trkpt>
<trkpt lat="46.1123900" lon="10.4635030">
	<ele>1894.40</ele>
	<time>2024-07-25T11:23:08.000Z</time>
</trkpt>
<trkpt lat="46.1123770" lon="10.4634790">
	<ele>1894.40</ele>
	<time>2024-07-25T11:23:09.000Z</time>
</trkpt>
<trkpt lat="46.1123690" lon="10.4634580">
	<ele>1894.20</ele>
	<time>2024-07-25T11:23:10.000Z</time>
</trkpt>
<trkpt lat="46.1123660" lon="10.4634370">
	<ele>1894.20</ele>
	<time>2024-07-25T11:23:11.000Z</time>
</trkpt>
<trkpt lat="46.1123640" lon="10.4634230">
	<ele>1894.20</ele>
	<time>2024-07-25T11:23:12.000Z</time>
</trkpt>
<trkpt lat="46.1123620" lon="10.4634080">
	<ele>1894.20</ele>
	<time>2024-07-25T11:23:13.000Z</time>
</trkpt>
<trkpt lat="46.1123570" lon="10.4633970">
	<ele>1894.20</ele>
	<time>2024-07-25T11:23:14.000Z</time>
</trkpt>
<trkpt lat="46.1123500" lon="10.4633820">
	<ele>1894.20</ele>
	<time>2024-07-25T11:23:15.000Z</time>
</trkpt>
<trkpt lat="46.1123420" lon="10.4633720">
	<ele>1894.20</ele>
	<time>2024-07-25T11:23:16.000Z</time>
</trkpt>
<trkpt lat="46.1123310" lon="10.4633580">
	<ele>1894.20</ele>
	<time>2024-07-25T11:23:17.000Z</time>
</trkpt>
<trkpt lat="46.1123200" lon="10.4633400">
	<ele>1894.20</ele>
	<time>2024-07-25T11:23:18.000Z</time>
</trkpt>
<trkpt lat="46.1123080" lon="10.4633220">
	<ele>1894.20</ele>
	<time>2024-07-25T11:23:19.000Z</time>
</trkpt>
<trkpt lat="46.1122960" lon="10.4633050">
	<ele>1894.20</ele>
	<time>2024-07-25T11:23:20.000Z</time>
</trkpt>
<trkpt lat="46.1122870" lon="10.4632900">
	<ele>1894.20</ele>
	<time>2024-07-25T11:23:21.000Z</time>
</trkpt>
<trkpt lat="46.1122800" lon="10.4632780">
	<ele>1894.00</ele>
	<time>2024-07-25T11:23:22.000Z</time>
</trkpt>
<trkpt lat="46.1122760" lon="10.4632660">
	<ele>1894.00</ele>
	<time>2024-07-25T11:23:23.000Z</time>
</trkpt>
<trkpt lat="46.1122650" lon="10.4632510">
	<ele>1894.00</ele>
	<time>2024-07-25T11:23:24.000Z</time>
</trkpt>
<trkpt lat="46.1122550" lon="10.4632320">
	<ele>1894.00</ele>
	<time>2024-07-25T11:23:25.000Z</time>
</trkpt>
<trkpt lat="46.1122470" lon="10.4632100">
	<ele>1894.20</ele>
	<time>2024-07-25T11:23:26.000Z</time>
</trkpt>
<trkpt lat="46.1122460" lon="10.4631920">
	<ele>1894.40</ele>
	<time>2024-07-25T11:23:27.000Z</time>
</trkpt>
<trkpt lat="46.1122460" lon="10.4631770">
	<ele>1894.60</ele>
	<time>2024-07-25T11:23:28.000Z</time>
</trkpt>
<trkpt lat="46.1122430" lon="10.4631620">
	<ele>1894.60</ele>
	<time>2024-07-25T11:23:29.000Z</time>
</trkpt>
<trkpt lat="46.1122390" lon="10.4631470">
	<ele>1894.80</ele>
	<time>2024-07-25T11:23:30.000Z</time>
</trkpt>
<trkpt lat="46.1122320" lon="10.4631210">
	<ele>1894.80</ele>
	<time>2024-07-25T11:23:31.000Z</time>
</trkpt>
<trkpt lat="46.1122260" lon="10.4631010">
	<ele>1894.80</ele>
	<time>2024-07-25T11:23:32.000Z</time>
</trkpt>
<trkpt lat="46.1122220" lon="10.4630850">
	<ele>1894.80</ele>
	<time>2024-07-25T11:23:33.000Z</time>
</trkpt>
<trkpt lat="46.1122140" lon="10.4630680">
	<ele>1894.80</ele>
	<time>2024-07-25T11:23:34.000Z</time>
</trkpt>
<trkpt lat="46.1122090" lon="10.4630490">
	<ele>1894.80</ele>
	<time>2024-07-25T11:23:35.000Z</time>
</trkpt>
<trkpt lat="46.1122050" lon="10.4630220">
	<ele>1894.80</ele>
	<time>2024-07-25T11:23:36.000Z</time>
</trkpt>
<trkpt lat="46.1122000" lon="10.4629950">
	<ele>1894.80</ele>
	<time>2024-07-25T11:23:37.000Z</time>
</trkpt>
<trkpt lat="46.1121930" lon="10.4629720">
	<ele>1894.80</ele>
	<time>2024-07-25T11:23:38.000Z</time>
</trkpt>
<trkpt lat="46.1121870" lon="10.4629490">
	<ele>1895.00</ele>
	<time>2024-07-25T11:23:39.000Z</time>
</trkpt>
<trkpt lat="46.1121810" lon="10.4629280">
	<ele>1895.00</ele>
	<time>2024-07-25T11:23:40.000Z</time>
</trkpt>
<trkpt lat="46.1121790" lon="10.4629120">
	<ele>1895.00</ele>
	<time>2024-07-25T11:23:41.000Z</time>
</trkpt>
<trkpt lat="46.1121740" lon="10.4628980">
	<ele>1895.00</ele>
	<time>2024-07-25T11:23:42.000Z</time>
</trkpt>
<trkpt lat="46.1121720" lon="10.4628880">
	<ele>1895.20</ele>
	<time>2024-07-25T11:23:43.000Z</time>
</trkpt>
<trkpt lat="46.1121680" lon="10.4628730">
	<ele>1895.40</ele>
	<time>2024-07-25T11:23:44.000Z</time>
</trkpt>
<trkpt lat="46.1121620" lon="10.4628560">
	<ele>1895.60</ele>
	<time>2024-07-25T11:23:45.000Z</time>
</trkpt>
<trkpt lat="46.1121540" lon="10.4628370">
	<ele>1895.60</ele>
	<time>2024-07-25T11:23:46.000Z</time>
</trkpt>
<trkpt lat="46.1121450" lon="10.4628190">
	<ele>1895.60</ele>
	<time>2024-07-25T11:23:47.000Z</time>
</trkpt>
<trkpt lat="46.1121390" lon="10.4628020">
	<ele>1895.80</ele>
	<time>2024-07-25T11:23:48.000Z</time>
</trkpt>
<trkpt lat="46.1121360" lon="10.4627880">
	<ele>1895.80</ele>
	<time>2024-07-25T11:23:49.000Z</time>
</trkpt>
<trkpt lat="46.1121330" lon="10.4627690">
	<ele>1895.80</ele>
	<time>2024-07-25T11:23:50.000Z</time>
</trkpt>
<trkpt lat="46.1121280" lon="10.4627490">
	<ele>1895.80</ele>
	<time>2024-07-25T11:23:51.000Z</time>
</trkpt>
<trkpt lat="46.1121240" lon="10.4627330">
	<ele>1895.80</ele>
	<time>2024-07-25T11:23:52.000Z</time>
</trkpt>
<trkpt lat="46.1121180" lon="10.4627160">
	<ele>1895.80</ele>
	<time>2024-07-25T11:23:53.000Z</time>
</trkpt>
<trkpt lat="46.1121130" lon="10.4627010">
	<ele>1895.80</ele>
	<time>2024-07-25T11:23:54.000Z</time>
</trkpt>
<trkpt lat="46.1121040" lon="10.4626780">
	<ele>1895.80</ele>
	<time>2024-07-25T11:23:55.000Z</time>
</trkpt>
<trkpt lat="46.1120930" lon="10.4626580">
	<ele>1895.80</ele>
	<time>2024-07-25T11:23:56.000Z</time>
</trkpt>
<trkpt lat="46.1120830" lon="10.4626380">
	<ele>1896.00</ele>
	<time>2024-07-25T11:23:57.000Z</time>
</trkpt>
<trkpt lat="46.1120780" lon="10.4626230">
	<ele>1896.00</ele>
	<time>2024-07-25T11:23:58.000Z</time>
</trkpt>
<trkpt lat="46.1120720" lon="10.4626010">
	<ele>1896.00</ele>
	<time>2024-07-25T11:23:59.000Z</time>
</trkpt>
<trkpt lat="46.1120670" lon="10.4625790">
	<ele>1896.00</ele>
	<time>2024-07-25T11:24:00.000Z</time>
</trkpt>
<trkpt lat="46.1120620" lon="10.4625630">
	<ele>1896.00</ele>
	<time>2024-07-25T11:24:01.000Z</time>
</trkpt>
<trkpt lat="46.1120560" lon="10.4625490">
	<ele>1896.00</ele>
	<time>2024-07-25T11:24:02.000Z</time>
</trkpt>
<trkpt lat="46.1120480" lon="10.4625310">
	<ele>1896.00</ele>
	<time>2024-07-25T11:24:03.000Z</time>
</trkpt>
<trkpt lat="46.1120410" lon="10.4625110">
	<ele>1896.00</ele>
	<time>2024-07-25T11:24:04.000Z</time>
</trkpt>
<trkpt lat="46.1120340" lon="10.4624900">
	<ele>1896.00</ele>
	<time>2024-07-25T11:24:05.000Z</time>
</trkpt>
<trkpt lat="46.1120280" lon="10.4624740">
	<ele>1896.20</ele>
	<time>2024-07-25T11:24:06.000Z</time>
</trkpt>
<trkpt lat="46.1120230" lon="10.4624560">
	<ele>1896.20</ele>
	<time>2024-07-25T11:24:07.000Z</time>
</trkpt>
<trkpt lat="46.1120180" lon="10.4624330">
	<ele>1896.20</ele>
	<time>2024-07-25T11:24:08.000Z</time>
</trkpt>
<trkpt lat="46.1120180" lon="10.4624150">
	<ele>1896.20</ele>
	<time>2024-07-25T11:24:09.000Z</time>
</trkpt>
<trkpt lat="46.1120150" lon="10.4623970">
	<ele>1896.20</ele>
	<time>2024-07-25T11:24:10.000Z</time>
</trkpt>
<trkpt lat="46.1120080" lon="10.4623730">
	<ele>1896.20</ele>
	<time>2024-07-25T11:24:11.000Z</time>
</trkpt>
<trkpt lat="46.1120060" lon="10.4623580">
	<ele>1896.20</ele>
	<time>2024-07-25T11:24:12.000Z</time>
</trkpt>
<trkpt lat="46.1120030" lon="10.4623380">
	<ele>1896.20</ele>
	<time>2024-07-25T11:24:13.000Z</time>
</trkpt>
<trkpt lat="46.1119960" lon="10.4623180">
	<ele>1896.20</ele>
	<time>2024-07-25T11:24:14.000Z</time>
</trkpt>
<trkpt lat="46.1119880" lon="10.4623000">
	<ele>1896.20</ele>
	<time>2024-07-25T11:24:15.000Z</time>
</trkpt>
<trkpt lat="46.1119800" lon="10.4622860">
	<ele>1896.20</ele>
	<time>2024-07-25T11:24:16.000Z</time>
</trkpt>
<trkpt lat="46.1119720" lon="10.4622700">
	<ele>1896.20</ele>
	<time>2024-07-25T11:24:17.000Z</time>
</trkpt>
<trkpt lat="46.1119640" lon="10.4622540">
	<ele>1896.00</ele>
	<time>2024-07-25T11:24:18.000Z</time>
</trkpt>
<trkpt lat="46.1119550" lon="10.4622370">
	<ele>1896.00</ele>
	<time>2024-07-25T11:24:19.000Z</time>
</trkpt>
<trkpt lat="46.1119420" lon="10.4622180">
	<ele>1896.00</ele>
	<time>2024-07-25T11:24:20.000Z</time>
</trkpt>
<trkpt lat="46.1119340" lon="10.4622070">
	<ele>1896.00</ele>
	<time>2024-07-25T11:24:21.000Z</time>
</trkpt>
<trkpt lat="46.1119230" lon="10.4621910">
	<ele>1896.00</ele>
	<time>2024-07-25T11:24:22.000Z</time>
</trkpt>
<trkpt lat="46.1119130" lon="10.4621790">
	<ele>1896.20</ele>
	<time>2024-07-25T11:24:23.000Z</time>
</trkpt>
<trkpt lat="46.1119030" lon="10.4621660">
	<ele>1896.20</ele>
	<time>2024-07-25T11:24:24.000Z</time>
</trkpt>
<trkpt lat="46.1118930" lon="10.4621470">
	<ele>1896.20</ele>
	<time>2024-07-25T11:24:25.000Z</time>
</trkpt>
<trkpt lat="46.1118830" lon="10.4621300">
	<ele>1896.20</ele>
	<time>2024-07-25T11:24:26.000Z</time>
</trkpt>
<trkpt lat="46.1118720" lon="10.4621140">
	<ele>1896.20</ele>
	<time>2024-07-25T11:24:27.000Z</time>
</trkpt>
<trkpt lat="46.1118680" lon="10.4621010">
	<ele>1896.00</ele>
	<time>2024-07-25T11:24:28.000Z</time>
</trkpt>
<trkpt lat="46.1118640" lon="10.4620830">
	<ele>1896.00</ele>
	<time>2024-07-25T11:24:29.000Z</time>
</trkpt>
<trkpt lat="46.1118580" lon="10.4620640">
	<ele>1895.80</ele>
	<time>2024-07-25T11:24:30.000Z</time>
</trkpt>
<trkpt lat="46.1118520" lon="10.4620450">
	<ele>1895.80</ele>
	<time>2024-07-25T11:24:31.000Z</time>
</trkpt>
<trkpt lat="46.1118490" lon="10.4620300">
	<ele>1895.80</ele>
	<time>2024-07-25T11:24:32.000Z</time>
</trkpt>
<trkpt lat="46.1118450" lon="10.4620160">
	<ele>1895.80</ele>
	<time>2024-07-25T11:24:33.000Z</time>
</trkpt>
<trkpt lat="46.1118370" lon="10.4620020">
	<ele>1895.80</ele>
	<time>2024-07-25T11:24:34.000Z</time>
</trkpt>
<trkpt lat="46.1118260" lon="10.4619890">
	<ele>1895.80</ele>
	<time>2024-07-25T11:24:35.000Z</time>
</trkpt>
<trkpt lat="46.1118140" lon="10.4619740">
	<ele>1895.80</ele>
	<time>2024-07-25T11:24:36.000Z</time>
</trkpt>
<trkpt lat="46.1117980" lon="10.4619580">
	<ele>1895.80</ele>
	<time>2024-07-25T11:24:37.000Z</time>
</trkpt>
<trkpt lat="46.1117840" lon="10.4619510">
	<ele>1895.80</ele>
	<time>2024-07-25T11:24:38.000Z</time>
</trkpt>
<trkpt lat="46.1117690" lon="10.4619460">
	<ele>1895.80</ele>
	<time>2024-07-25T11:24:39.000Z</time>
</trkpt>
<trkpt lat="46.1117550" lon="10.4619390">
	<ele>1895.80</ele>
	<time>2024-07-25T11:24:40.000Z</time>
</trkpt>
<trkpt lat="46.1117420" lon="10.4619310">
	<ele>1896.00</ele>
	<time>2024-07-25T11:24:41.000Z</time>
</trkpt>
<trkpt lat="46.1117290" lon="10.4619200">
	<ele>1896.20</ele>
	<time>2024-07-25T11:24:42.000Z</time>
</trkpt>
<trkpt lat="46.1117140" lon="10.4619050">
	<ele>1896.20</ele>
	<time>2024-07-25T11:24:43.000Z</time>
</trkpt>
<trkpt lat="46.1117010" lon="10.4618930">
	<ele>1896.20</ele>
	<time>2024-07-25T11:24:44.000Z</time>
</trkpt>
<trkpt lat="46.1116870" lon="10.4618790">
	<ele>1896.20</ele>
	<time>2024-07-25T11:24:45.000Z</time>
</trkpt>
<trkpt lat="46.1116730" lon="10.4618690">
	<ele>1896.00</ele>
	<time>2024-07-25T11:24:46.000Z</time>
</trkpt>
<trkpt lat="46.1116560" lon="10.4618580">
	<ele>1895.80</ele>
	<time>2024-07-25T11:24:47.000Z</time>
</trkpt>
<trkpt lat="46.1116430" lon="10.4618490">
	<ele>1895.80</ele>
	<time>2024-07-25T11:24:48.000Z</time>
</trkpt>
<trkpt lat="46.1116320" lon="10.4618430">
	<ele>1895.80</ele>
	<time>2024-07-25T11:24:49.000Z</time>
</trkpt>
<trkpt lat="46.1116150" lon="10.4618350">
	<ele>1895.80</ele>
	<time>2024-07-25T11:24:50.000Z</time>
</trkpt>
<trkpt lat="46.1116030" lon="10.4618300">
	<ele>1895.60</ele>
	<time>2024-07-25T11:24:51.000Z</time>
</trkpt>
<trkpt lat="46.1115920" lon="10.4618240">
	<ele>1895.60</ele>
	<time>2024-07-25T11:24:52.000Z</time>
</trkpt>
<trkpt lat="46.1115800" lon="10.4618170">
	<ele>1895.60</ele>
	<time>2024-07-25T11:24:53.000Z</time>
</trkpt>
<trkpt lat="46.1115700" lon="10.4618050">
	<ele>1895.60</ele>
	<time>2024-07-25T11:24:54.000Z</time>
</trkpt>
<trkpt lat="46.1115570" lon="10.4617910">
	<ele>1895.60</ele>
	<time>2024-07-25T11:24:55.000Z</time>
</trkpt>
<trkpt lat="46.1115430" lon="10.4617790">
	<ele>1895.80</ele>
	<time>2024-07-25T11:24:56.000Z</time>
</trkpt>
<trkpt lat="46.1115220" lon="10.4617590">
	<ele>1895.80</ele>
	<time>2024-07-25T11:24:57.000Z</time>
</trkpt>
<trkpt lat="46.1115020" lon="10.4617450">
	<ele>1896.00</ele>
	<time>2024-07-25T11:24:58.000Z</time>
</trkpt>
<trkpt lat="46.1114880" lon="10.4617340">
	<ele>1896.00</ele>
	<time>2024-07-25T11:24:59.000Z</time>
</trkpt>
<trkpt lat="46.1114750" lon="10.4617280">
	<ele>1896.20</ele>
	<time>2024-07-25T11:25:00.000Z</time>
</trkpt>
<trkpt lat="46.1114640" lon="10.4617230">
	<ele>1896.20</ele>
	<time>2024-07-25T11:25:01.000Z</time>
</trkpt>
<trkpt lat="46.1114520" lon="10.4617230">
	<ele>1896.20</ele>
	<time>2024-07-25T11:25:02.000Z</time>
</trkpt>
<trkpt lat="46.1114380" lon="10.4617160">
	<ele>1896.20</ele>
	<time>2024-07-25T11:25:03.000Z</time>
</trkpt>
<trkpt lat="46.1114240" lon="10.4617040">
	<ele>1896.20</ele>
	<time>2024-07-25T11:25:04.000Z</time>
</trkpt>
<trkpt lat="46.1114140" lon="10.4616960">
	<ele>1896.20</ele>
	<time>2024-07-25T11:25:05.000Z</time>
</trkpt>
<trkpt lat="46.1114000" lon="10.4616830">
	<ele>1896.20</ele>
	<time>2024-07-25T11:25:06.000Z</time>
</trkpt>
<trkpt lat="46.1113860" lon="10.4616720">
	<ele>1896.20</ele>
	<time>2024-07-25T11:25:07.000Z</time>
</trkpt>
<trkpt lat="46.1113730" lon="10.4616690">
	<ele>1896.20</ele>
	<time>2024-07-25T11:25:08.000Z</time>
</trkpt>
<trkpt lat="46.1113590" lon="10.4616670">
	<ele>1896.20</ele>
	<time>2024-07-25T11:25:09.000Z</time>
</trkpt>
<trkpt lat="46.1113420" lon="10.4616610">
	<ele>1896.20</ele>
	<time>2024-07-25T11:25:10.000Z</time>
</trkpt>
<trkpt lat="46.1113290" lon="10.4616620">
	<ele>1896.20</ele>
	<time>2024-07-25T11:25:11.000Z</time>
</trkpt>
<trkpt lat="46.1113160" lon="10.4616560">
	<ele>1896.20</ele>
	<time>2024-07-25T11:25:12.000Z</time>
</trkpt>
<trkpt lat="46.1113020" lon="10.4616520">
	<ele>1896.20</ele>
	<time>2024-07-25T11:25:13.000Z</time>
</trkpt>
<trkpt lat="46.1112890" lon="10.4616440">
	<ele>1896.20</ele>
	<time>2024-07-25T11:25:14.000Z</time>
</trkpt>
<trkpt lat="46.1112750" lon="10.4616390">
	<ele>1896.20</ele>
	<time>2024-07-25T11:25:15.000Z</time>
</trkpt>
<trkpt lat="46.1112610" lon="10.4616320">
	<ele>1896.20</ele>
	<time>2024-07-25T11:25:16.000Z</time>
</trkpt>
<trkpt lat="46.1112450" lon="10.4616240">
	<ele>1896.20</ele>
	<time>2024-07-25T11:25:17.000Z</time>
</trkpt>
<trkpt lat="46.1112300" lon="10.4616120">
	<ele>1896.20</ele>
	<time>2024-07-25T11:25:18.000Z</time>
</trkpt>
<trkpt lat="46.1112130" lon="10.4615970">
	<ele>1896.20</ele>
	<time>2024-07-25T11:25:19.000Z</time>
</trkpt>
<trkpt lat="46.1111990" lon="10.4615880">
	<ele>1896.20</ele>
	<time>2024-07-25T11:25:20.000Z</time>
</trkpt>
<trkpt lat="46.1111870" lon="10.4615810">
	<ele>1896.20</ele>
	<time>2024-07-25T11:25:21.000Z</time>
</trkpt>
<trkpt lat="46.1111760" lon="10.4615760">
	<ele>1896.20</ele>
	<time>2024-07-25T11:25:22.000Z</time>
</trkpt>
<trkpt lat="46.1111650" lon="10.4615670">
	<ele>1896.20</ele>
	<time>2024-07-25T11:25:23.000Z</time>
</trkpt>
<trkpt lat="46.1111530" lon="10.4615560">
	<ele>1896.00</ele>
	<time>2024-07-25T11:25:24.000Z</time>
</trkpt>
<trkpt lat="46.1111390" lon="10.4615470">
	<ele>1896.00</ele>
	<time>2024-07-25T11:25:25.000Z</time>
</trkpt>
<trkpt lat="46.1111250" lon="10.4615390">
	<ele>1896.00</ele>
	<time>2024-07-25T11:25:26.000Z</time>
</trkpt>
<trkpt lat="46.1111110" lon="10.4615280">
	<ele>1896.00</ele>
	<time>2024-07-25T11:25:27.000Z</time>
</trkpt>
<trkpt lat="46.1111040" lon="10.4615210">
	<ele>1896.00</ele>
	<time>2024-07-25T11:25:28.000Z</time>
</trkpt>
<trkpt lat="46.1110930" lon="10.4615100">
	<ele>1896.00</ele>
	<time>2024-07-25T11:25:29.000Z</time>
</trkpt>
<trkpt lat="46.1110830" lon="10.4614970">
	<ele>1896.20</ele>
	<time>2024-07-25T11:25:30.000Z</time>
</trkpt>
<trkpt lat="46.1110720" lon="10.4614780">
	<ele>1896.20</ele>
	<time>2024-07-25T11:25:31.000Z</time>
</trkpt>
<trkpt lat="46.1110620" lon="10.4614580">
	<ele>1896.40</ele>
	<time>2024-07-25T11:25:32.000Z</time>
</trkpt>
<trkpt lat="46.1110520" lon="10.4614380">
	<ele>1896.40</ele>
	<time>2024-07-25T11:25:33.000Z</time>
</trkpt>
<trkpt lat="46.1110420" lon="10.4614230">
	<ele>1896.40</ele>
	<time>2024-07-25T11:25:34.000Z</time>
</trkpt>
<trkpt lat="46.1110330" lon="10.4614100">
	<ele>1896.20</ele>
	<time>2024-07-25T11:25:35.000Z</time>
</trkpt>
<trkpt lat="46.1110210" lon="10.4613900">
	<ele>1896.20</ele>
	<time>2024-07-25T11:25:36.000Z</time>
</trkpt>
<trkpt lat="46.1110130" lon="10.4613790">
	<ele>1896.20</ele>
	<time>2024-07-25T11:25:37.000Z</time>
</trkpt>
<trkpt lat="46.1110010" lon="10.4613630">
	<ele>1896.00</ele>
	<time>2024-07-25T11:25:38.000Z</time>
</trkpt>
<trkpt lat="46.1109930" lon="10.4613490">
	<ele>1896.00</ele>
	<time>2024-07-25T11:25:39.000Z</time>
</trkpt>
<trkpt lat="46.1109840" lon="10.4613330">
	<ele>1896.00</ele>
	<time>2024-07-25T11:25:40.000Z</time>
</trkpt>
<trkpt lat="46.1109750" lon="10.4613160">
	<ele>1895.80</ele>
	<time>2024-07-25T11:25:41.000Z</time>
</trkpt>
<trkpt lat="46.1109680" lon="10.4613030">
	<ele>1895.80</ele>
	<time>2024-07-25T11:25:42.000Z</time>
</trkpt>
<trkpt lat="46.1109610" lon="10.4612910">
	<ele>1895.80</ele>
	<time>2024-07-25T11:25:43.000Z</time>
</trkpt>
<trkpt lat="46.1109520" lon="10.4612740">
	<ele>1895.80</ele>
	<time>2024-07-25T11:25:44.000Z</time>
</trkpt>
<trkpt lat="46.1109460" lon="10.4612600">
	<ele>1895.80</ele>
	<time>2024-07-25T11:25:45.000Z</time>
</trkpt>
<trkpt lat="46.1109380" lon="10.4612470">
	<ele>1895.60</ele>
	<time>2024-07-25T11:25:46.000Z</time>
</trkpt>
<trkpt lat="46.1109310" lon="10.4612350">
	<ele>1895.60</ele>
	<time>2024-07-25T11:25:47.000Z</time>
</trkpt>
<trkpt lat="46.1109250" lon="10.4612250">
	<ele>1895.40</ele>
	<time>2024-07-25T11:25:48.000Z</time>
</trkpt>
<trkpt lat="46.1109160" lon="10.4612180">
	<ele>1895.20</ele>
	<time>2024-07-25T11:25:49.000Z</time>
</trkpt>
<trkpt lat="46.1109070" lon="10.4612160">
	<ele>1895.00</ele>
	<time>2024-07-25T11:25:50.000Z</time>
</trkpt>
<trkpt lat="46.1108950" lon="10.4612080">
	<ele>1894.80</ele>
	<time>2024-07-25T11:25:51.000Z</time>
</trkpt>
<trkpt lat="46.1108840" lon="10.4611970">
	<ele>1894.60</ele>
	<time>2024-07-25T11:25:52.000Z</time>
</trkpt>
<trkpt lat="46.1108740" lon="10.4611850">
	<ele>1894.40</ele>
	<time>2024-07-25T11:25:53.000Z</time>
</trkpt>
<trkpt lat="46.1108660" lon="10.4611750">
	<ele>1894.40</ele>
	<time>2024-07-25T11:25:54.000Z</time>
</trkpt>
<trkpt lat="46.1108590" lon="10.4611670">
	<ele>1894.00</ele>
	<time>2024-07-25T11:25:55.000Z</time>
</trkpt>
<trkpt lat="46.1108460" lon="10.4611560">
	<ele>1893.80</ele>
	<time>2024-07-25T11:25:56.000Z</time>
</trkpt>
<trkpt lat="46.1108330" lon="10.4611450">
	<ele>1893.80</ele>
	<time>2024-07-25T11:25:57.000Z</time>
</trkpt>
<trkpt lat="46.1108190" lon="10.4611260">
	<ele>1893.60</ele>
	<time>2024-07-25T11:25:58.000Z</time>
</trkpt>
<trkpt lat="46.1108100" lon="10.4611130">
	<ele>1893.20</ele>
	<time>2024-07-25T11:25:59.000Z</time>
</trkpt>
<trkpt lat="46.1108000" lon="10.4610960">
	<ele>1893.00</ele>
	<time>2024-07-25T11:26:00.000Z</time>
</trkpt>
<trkpt lat="46.1107900" lon="10.4610800">
	<ele>1892.80</ele>
	<time>2024-07-25T11:26:01.000Z</time>
</trkpt>
<trkpt lat="46.1107790" lon="10.4610640">
	<ele>1892.80</ele>
	<time>2024-07-25T11:26:02.000Z</time>
</trkpt>
<trkpt lat="46.1107720" lon="10.4610580">
	<ele>1892.60</ele>
	<time>2024-07-25T11:26:03.000Z</time>
</trkpt>
<trkpt lat="46.1107570" lon="10.4610430">
	<ele>1892.40</ele>
	<time>2024-07-25T11:26:04.000Z</time>
</trkpt>
<trkpt lat="46.1107440" lon="10.4610270">
	<ele>1892.40</ele>
	<time>2024-07-25T11:26:05.000Z</time>
</trkpt>
<trkpt lat="46.1107320" lon="10.4610170">
	<ele>1892.20</ele>
	<time>2024-07-25T11:26:06.000Z</time>
</trkpt>
<trkpt lat="46.1107170" lon="10.4610030">
	<ele>1891.80</ele>
	<time>2024-07-25T11:26:07.000Z</time>
</trkpt>
<trkpt lat="46.1107000" lon="10.4609890">
	<ele>1891.60</ele>
	<time>2024-07-25T11:26:08.000Z</time>
</trkpt>
<trkpt lat="46.1106840" lon="10.4609770">
	<ele>1891.40</ele>
	<time>2024-07-25T11:26:09.000Z</time>
</trkpt>
<trkpt lat="46.1106710" lon="10.4609680">
	<ele>1891.40</ele>
	<time>2024-07-25T11:26:10.000Z</time>
</trkpt>
<trkpt lat="46.1106620" lon="10.4609590">
	<ele>1891.20</ele>
	<time>2024-07-25T11:26:11.000Z</time>
</trkpt>
<trkpt lat="46.1106450" lon="10.4609460">
	<ele>1891.00</ele>
	<time>2024-07-25T11:26:12.000Z</time>
</trkpt>
<trkpt lat="46.1106350" lon="10.4609400">
	<ele>1890.80</ele>
	<time>2024-07-25T11:26:13.000Z</time>
</trkpt>
<trkpt lat="46.1106180" lon="10.4609320">
	<ele>1890.60</ele>
	<time>2024-07-25T11:26:14.000Z</time>
</trkpt>
<trkpt lat="46.1106050" lon="10.4609260">
	<ele>1890.20</ele>
	<time>2024-07-25T11:26:15.000Z</time>
</trkpt>
<trkpt lat="46.1105950" lon="10.4609230">
	<ele>1890.00</ele>
	<time>2024-07-25T11:26:16.000Z</time>
</trkpt>
<trkpt lat="46.1105820" lon="10.4609170">
	<ele>1889.80</ele>
	<time>2024-07-25T11:26:17.000Z</time>
</trkpt>
<trkpt lat="46.1105680" lon="10.4609100">
	<ele>1889.60</ele>
	<time>2024-07-25T11:26:18.000Z</time>
</trkpt>
<trkpt lat="46.1105550" lon="10.4609050">
	<ele>1889.60</ele>
	<time>2024-07-25T11:26:19.000Z</time>
</trkpt>
<trkpt lat="46.1105430" lon="10.4608990">
	<ele>1889.40</ele>
	<time>2024-07-25T11:26:20.000Z</time>
</trkpt>
<trkpt lat="46.1105310" lon="10.4608940">
	<ele>1889.00</ele>
	<time>2024-07-25T11:26:21.000Z</time>
</trkpt>
<trkpt lat="46.1105200" lon="10.4608860">
	<ele>1889.00</ele>
	<time>2024-07-25T11:26:22.000Z</time>
</trkpt>
<trkpt lat="46.1105070" lon="10.4608830">
	<ele>1888.80</ele>
	<time>2024-07-25T11:26:23.000Z</time>
</trkpt>
<trkpt lat="46.1104960" lon="10.4608820">
	<ele>1888.60</ele>
	<time>2024-07-25T11:26:24.000Z</time>
</trkpt>
<trkpt lat="46.1104840" lon="10.4608780">
	<ele>1888.40</ele>
	<time>2024-07-25T11:26:25.000Z</time>
</trkpt>
<trkpt lat="46.1104650" lon="10.4608700">
	<ele>1888.20</ele>
	<time>2024-07-25T11:26:26.000Z</time>
</trkpt>
<trkpt lat="46.1104490" lon="10.4608650">
	<ele>1888.20</ele>
	<time>2024-07-25T11:26:27.000Z</time>
</trkpt>
<trkpt lat="46.1104360" lon="10.4608640">
	<ele>1888.00</ele>
	<time>2024-07-25T11:26:28.000Z</time>
</trkpt>
<trkpt lat="46.1104240" lon="10.4608590">
	<ele>1887.80</ele>
	<time>2024-07-25T11:26:29.000Z</time>
</trkpt>
<trkpt lat="46.1104120" lon="10.4608560">
	<ele>1887.60</ele>
	<time>2024-07-25T11:26:30.000Z</time>
</trkpt>
<trkpt lat="46.1104020" lon="10.4608510">
	<ele>1887.60</ele>
	<time>2024-07-25T11:26:31.000Z</time>
</trkpt>
<trkpt lat="46.1103900" lon="10.4608440">
	<ele>1887.40</ele>
	<time>2024-07-25T11:26:32.000Z</time>
</trkpt>
<trkpt lat="46.1103730" lon="10.4608350">
	<ele>1887.40</ele>
	<time>2024-07-25T11:26:33.000Z</time>
</trkpt>
<trkpt lat="46.1103620" lon="10.4608280">
	<ele>1887.20</ele>
	<time>2024-07-25T11:26:34.000Z</time>
</trkpt>
<trkpt lat="46.1103460" lon="10.4608170">
	<ele>1887.00</ele>
	<time>2024-07-25T11:26:35.000Z</time>
</trkpt>
<trkpt lat="46.1103320" lon="10.4608090">
	<ele>1886.80</ele>
	<time>2024-07-25T11:26:36.000Z</time>
</trkpt>
<trkpt lat="46.1103170" lon="10.4608010">
	<ele>1886.60</ele>
	<time>2024-07-25T11:26:37.000Z</time>
</trkpt>
<trkpt lat="46.1103030" lon="10.4607940">
	<ele>1886.20</ele>
	<time>2024-07-25T11:26:38.000Z</time>
</trkpt>
<trkpt lat="46.1102940" lon="10.4607890">
	<ele>1886.00</ele>
	<time>2024-07-25T11:26:39.000Z</time>
</trkpt>
<trkpt lat="46.1102810" lon="10.4607780">
	<ele>1886.00</ele>
	<time>2024-07-25T11:26:40.000Z</time>
</trkpt>
<trkpt lat="46.1102680" lon="10.4607600">
	<ele>1885.80</ele>
	<time>2024-07-25T11:26:41.000Z</time>
</trkpt>
<trkpt lat="46.1102600" lon="10.4607490">
	<ele>1885.60</ele>
	<time>2024-07-25T11:26:42.000Z</time>
</trkpt>
<trkpt lat="46.1102480" lon="10.4607290">
	<ele>1885.60</ele>
	<time>2024-07-25T11:26:43.000Z</time>
</trkpt>
<trkpt lat="46.1102420" lon="10.4607200">
	<ele>1885.40</ele>
	<time>2024-07-25T11:26:44.000Z</time>
</trkpt>
<trkpt lat="46.1102300" lon="10.4607010">
	<ele>1885.20</ele>
	<time>2024-07-25T11:26:45.000Z</time>
</trkpt>
<trkpt lat="46.1102190" lon="10.4606870">
	<ele>1885.20</ele>
	<time>2024-07-25T11:26:46.000Z</time>
</trkpt>
<trkpt lat="46.1102090" lon="10.4606710">
	<ele>1885.20</ele>
	<time>2024-07-25T11:26:47.000Z</time>
</trkpt>
<trkpt lat="46.1101980" lon="10.4606530">
	<ele>1885.20</ele>
	<time>2024-07-25T11:26:48.000Z</time>
</trkpt>
<trkpt lat="46.1101890" lon="10.4606380">
	<ele>1885.20</ele>
	<time>2024-07-25T11:26:49.000Z</time>
</trkpt>
<trkpt lat="46.1101790" lon="10.4606200">
	<ele>1885.40</ele>
	<time>2024-07-25T11:26:50.000Z</time>
</trkpt>
<trkpt lat="46.1101700" lon="10.4606010">
	<ele>1885.40</ele>
	<time>2024-07-25T11:26:51.000Z</time>
</trkpt>
<trkpt lat="46.1101610" lon="10.4605850">
	<ele>1885.40</ele>
	<time>2024-07-25T11:26:52.000Z</time>
</trkpt>
<trkpt lat="46.1101500" lon="10.4605700">
	<ele>1885.40</ele>
	<time>2024-07-25T11:26:53.000Z</time>
</trkpt>
<trkpt lat="46.1101390" lon="10.4605600">
	<ele>1885.40</ele>
	<time>2024-07-25T11:26:54.000Z</time>
</trkpt>
<trkpt lat="46.1101290" lon="10.4605510">
	<ele>1885.40</ele>
	<time>2024-07-25T11:26:55.000Z</time>
</trkpt>
<trkpt lat="46.1101180" lon="10.4605410">
	<ele>1885.40</ele>
	<time>2024-07-25T11:26:56.000Z</time>
</trkpt>
<trkpt lat="46.1101060" lon="10.4605280">
	<ele>1885.20</ele>
	<time>2024-07-25T11:26:57.000Z</time>
</trkpt>
<trkpt lat="46.1100960" lon="10.4605150">
	<ele>1885.20</ele>
	<time>2024-07-25T11:26:58.000Z</time>
</trkpt>
<trkpt lat="46.1100860" lon="10.4604980">
	<ele>1885.00</ele>
	<time>2024-07-25T11:26:59.000Z</time>
</trkpt>
<trkpt lat="46.1100760" lon="10.4604850">
	<ele>1885.00</ele>
	<time>2024-07-25T11:27:00.000Z</time>
</trkpt>
<trkpt lat="46.1100660" lon="10.4604740">
	<ele>1885.00</ele>
	<time>2024-07-25T11:27:01.000Z</time>
</trkpt>
<trkpt lat="46.1100550" lon="10.4604660">
	<ele>1885.00</ele>
	<time>2024-07-25T11:27:02.000Z</time>
</trkpt>
<trkpt lat="46.1100450" lon="10.4604560">
	<ele>1885.00</ele>
	<time>2024-07-25T11:27:03.000Z</time>
</trkpt>
<trkpt lat="46.1100340" lon="10.4604420">
	<ele>1885.00</ele>
	<time>2024-07-25T11:27:04.000Z</time>
</trkpt>
<trkpt lat="46.1100220" lon="10.4604220">
	<ele>1885.00</ele>
	<time>2024-07-25T11:27:05.000Z</time>
</trkpt>
<trkpt lat="46.1100120" lon="10.4604050">
	<ele>1885.00</ele>
	<time>2024-07-25T11:27:06.000Z</time>
</trkpt>
<trkpt lat="46.1100040" lon="10.4603980">
	<ele>1885.00</ele>
	<time>2024-07-25T11:27:07.000Z</time>
</trkpt>
<trkpt lat="46.1099930" lon="10.4603840">
	<ele>1884.80</ele>
	<time>2024-07-25T11:27:08.000Z</time>
</trkpt>
<trkpt lat="46.1099820" lon="10.4603690">
	<ele>1884.80</ele>
	<time>2024-07-25T11:27:09.000Z</time>
</trkpt>
<trkpt lat="46.1099730" lon="10.4603550">
	<ele>1884.60</ele>
	<time>2024-07-25T11:27:10.000Z</time>
</trkpt>
<trkpt lat="46.1099660" lon="10.4603390">
	<ele>1884.40</ele>
	<time>2024-07-25T11:27:11.000Z</time>
</trkpt>
<trkpt lat="46.1099550" lon="10.4603210">
	<ele>1884.40</ele>
	<time>2024-07-25T11:27:12.000Z</time>
</trkpt>
<trkpt lat="46.1099450" lon="10.4603090">
	<ele>1884.20</ele>
	<time>2024-07-25T11:27:13.000Z</time>
</trkpt>
<trkpt lat="46.1099370" lon="10.4602980">
	<ele>1884.00</ele>
	<time>2024-07-25T11:27:14.000Z</time>
</trkpt>
<trkpt lat="46.1099260" lon="10.4602890">
	<ele>1884.00</ele>
	<time>2024-07-25T11:27:15.000Z</time>
</trkpt>
<trkpt lat="46.1099260" lon="10.4602890">
	<ele>1884.00</ele>
	<time>2024-07-25T11:27:16.000Z</time>
</trkpt>
<trkpt lat="46.1099020" lon="10.4602650">
	<ele>1884.00</ele>
	<time>2024-07-25T11:27:17.000Z</time>
</trkpt>
<trkpt lat="46.1098910" lon="10.4602550">
	<ele>1884.00</ele>
	<time>2024-07-25T11:27:18.000Z</time>
</trkpt>
<trkpt lat="46.1098780" lon="10.4602480">
	<ele>1883.80</ele>
	<time>2024-07-25T11:27:19.000Z</time>
</trkpt>
<trkpt lat="46.1098660" lon="10.4602430">
	<ele>1883.80</ele>
	<time>2024-07-25T11:27:20.000Z</time>
</trkpt>
<trkpt lat="46.1098540" lon="10.4602370">
	<ele>1883.80</ele>
	<time>2024-07-25T11:27:21.000Z</time>
</trkpt>
<trkpt lat="46.1098420" lon="10.4602310">
	<ele>1883.80</ele>
	<time>2024-07-25T11:27:22.000Z</time>
</trkpt>
<trkpt lat="46.1098290" lon="10.4602200">
	<ele>1883.60</ele>
	<time>2024-07-25T11:27:23.000Z</time>
</trkpt>
<trkpt lat="46.1098180" lon="10.4602100">
	<ele>1883.60</ele>
	<time>2024-07-25T11:27:24.000Z</time>
</trkpt>
<trkpt lat="46.1098070" lon="10.4602000">
	<ele>1883.60</ele>
	<time>2024-07-25T11:27:25.000Z</time>
</trkpt>
<trkpt lat="46.1097930" lon="10.4601910">
	<ele>1883.40</ele>
	<time>2024-07-25T11:27:26.000Z</time>
</trkpt>
<trkpt lat="46.1097810" lon="10.4601810">
	<ele>1883.40</ele>
	<time>2024-07-25T11:27:27.000Z</time>
</trkpt>
<trkpt lat="46.1097680" lon="10.4601730">
	<ele>1883.40</ele>
	<time>2024-07-25T11:27:28.000Z</time>
</trkpt>
<trkpt lat="46.1097560" lon="10.4601670">
	<ele>1883.20</ele>
	<time>2024-07-25T11:27:29.000Z</time>
</trkpt>
<trkpt lat="46.1097450" lon="10.4601640">
	<ele>1883.20</ele>
	<time>2024-07-25T11:27:30.000Z</time>
</trkpt>
<trkpt lat="46.1097290" lon="10.4601590">
	<ele>1883.20</ele>
	<time>2024-07-25T11:27:31.000Z</time>
</trkpt>
<trkpt lat="46.1097150" lon="10.4601510">
	<ele>1883.20</ele>
	<time>2024-07-25T11:27:32.000Z</time>
</trkpt>
<trkpt lat="46.1097020" lon="10.4601440">
	<ele>1883.20</ele>
	<time>2024-07-25T11:27:33.000Z</time>
</trkpt>
<trkpt lat="46.1096890" lon="10.4601370">
	<ele>1883.40</ele>
	<time>2024-07-25T11:27:34.000Z</time>
</trkpt>
<trkpt lat="46.1096790" lon="10.4601290">
	<ele>1883.60</ele>
	<time>2024-07-25T11:27:35.000Z</time>
</trkpt>
<trkpt lat="46.1096640" lon="10.4601190">
	<ele>1883.80</ele>
	<time>2024-07-25T11:27:36.000Z</time>
</trkpt>
<trkpt lat="46.1096530" lon="10.4601040">
	<ele>1883.80</ele>
	<time>2024-07-25T11:27:37.000Z</time>
</trkpt>
<trkpt lat="46.1096430" lon="10.4600890">
	<ele>1883.80</ele>
	<time>2024-07-25T11:27:38.000Z</time>
</trkpt>
<trkpt lat="46.1096340" lon="10.4600750">
	<ele>1883.80</ele>
	<time>2024-07-25T11:27:39.000Z</time>
</trkpt>
<trkpt lat="46.1096260" lon="10.4600590">
	<ele>1883.80</ele>
	<time>2024-07-25T11:27:40.000Z</time>
</trkpt>
<trkpt lat="46.1096180" lon="10.4600430">
	<ele>1883.80</ele>
	<time>2024-07-25T11:27:41.000Z</time>
</trkpt>
<trkpt lat="46.1096120" lon="10.4600270">
	<ele>1883.80</ele>
	<time>2024-07-25T11:27:42.000Z</time>
</trkpt>
<trkpt lat="46.1096050" lon="10.4600110">
	<ele>1884.00</ele>
	<time>2024-07-25T11:27:43.000Z</time>
</trkpt>
<trkpt lat="46.1095980" lon="10.4599920">
	<ele>1884.00</ele>
	<time>2024-07-25T11:27:44.000Z</time>
</trkpt>
<trkpt lat="46.1095900" lon="10.4599720">
	<ele>1884.00</ele>
	<time>2024-07-25T11:27:45.000Z</time>
</trkpt>
<trkpt lat="46.1095870" lon="10.4599550">
	<ele>1883.60</ele>
	<time>2024-07-25T11:27:46.000Z</time>
</trkpt>
<trkpt lat="46.1095860" lon="10.4599380">
	<ele>1883.40</ele>
	<time>2024-07-25T11:27:47.000Z</time>
</trkpt>
<trkpt lat="46.1095850" lon="10.4599170">
	<ele>1883.20</ele>
	<time>2024-07-25T11:27:48.000Z</time>
</trkpt>
<trkpt lat="46.1095820" lon="10.4598930">
	<ele>1883.20</ele>
	<time>2024-07-25T11:27:49.000Z</time>
</trkpt>
<trkpt lat="46.1095800" lon="10.4598710">
	<ele>1883.00</ele>
	<time>2024-07-25T11:27:50.000Z</time>
</trkpt>
<trkpt lat="46.1095780" lon="10.4598500">
	<ele>1883.00</ele>
	<time>2024-07-25T11:27:51.000Z</time>
</trkpt>
<trkpt lat="46.1095770" lon="10.4598270">
	<ele>1883.00</ele>
	<time>2024-07-25T11:27:52.000Z</time>
</trkpt>
<trkpt lat="46.1095750" lon="10.4598030">
	<ele>1883.00</ele>
	<time>2024-07-25T11:27:53.000Z</time>
</trkpt>
<trkpt lat="46.1095740" lon="10.4597830">
	<ele>1882.80</ele>
	<time>2024-07-25T11:27:54.000Z</time>
</trkpt>
<trkpt lat="46.1095740" lon="10.4597630">
	<ele>1882.60</ele>
	<time>2024-07-25T11:27:55.000Z</time>
</trkpt>
<trkpt lat="46.1095750" lon="10.4597420">
	<ele>1882.60</ele>
	<time>2024-07-25T11:27:56.000Z</time>
</trkpt>
<trkpt lat="46.1095780" lon="10.4597180">
	<ele>1882.40</ele>
	<time>2024-07-25T11:27:57.000Z</time>
</trkpt>
<trkpt lat="46.1095780" lon="10.4596970">
	<ele>1882.40</ele>
	<time>2024-07-25T11:27:58.000Z</time>
</trkpt>
<trkpt lat="46.1095770" lon="10.4596760">
	<ele>1882.40</ele>
	<time>2024-07-25T11:27:59.000Z</time>
</trkpt>
<trkpt lat="46.1095810" lon="10.4596580">
	<ele>1882.20</ele>
	<time>2024-07-25T11:28:00.000Z</time>
</trkpt>
<trkpt lat="46.1095850" lon="10.4596400">
	<ele>1882.20</ele>
	<time>2024-07-25T11:28:01.000Z</time>
</trkpt>
<trkpt lat="46.1095830" lon="10.4596200">
	<ele>1882.00</ele>
	<time>2024-07-25T11:28:02.000Z</time>
</trkpt>
<trkpt lat="46.1095840" lon="10.4595990">
	<ele>1882.00</ele>
	<time>2024-07-25T11:28:03.000Z</time>
</trkpt>
<trkpt lat="46.1095840" lon="10.4595760">
	<ele>1881.80</ele>
	<time>2024-07-25T11:28:04.000Z</time>
</trkpt>
<trkpt lat="46.1095740" lon="10.4595480">
	<ele>1881.80</ele>
	<time>2024-07-25T11:28:05.000Z</time>
</trkpt>
<trkpt lat="46.1095670" lon="10.4595290">
	<ele>1881.80</ele>
	<time>2024-07-25T11:28:06.000Z</time>
</trkpt>
<trkpt lat="46.1095620" lon="10.4595080">
	<ele>1881.60</ele>
	<time>2024-07-25T11:28:07.000Z</time>
</trkpt>
<trkpt lat="46.1095570" lon="10.4594860">
	<ele>1881.60</ele>
	<time>2024-07-25T11:28:08.000Z</time>
</trkpt>
<trkpt lat="46.1095550" lon="10.4594600">
	<ele>1881.60</ele>
	<time>2024-07-25T11:28:09.000Z</time>
</trkpt>
<trkpt lat="46.1095550" lon="10.4594390">
	<ele>1881.60</ele>
	<time>2024-07-25T11:28:10.000Z</time>
</trkpt>
<trkpt lat="46.1095540" lon="10.4594170">
	<ele>1881.40</ele>
	<time>2024-07-25T11:28:11.000Z</time>
</trkpt>
<trkpt lat="46.1095540" lon="10.4594030">
	<ele>1881.40</ele>
	<time>2024-07-25T11:28:12.000Z</time>
</trkpt>
<trkpt lat="46.1095510" lon="10.4593870">
	<ele>1881.40</ele>
	<time>2024-07-25T11:28:13.000Z</time>
</trkpt>
<trkpt lat="46.1095460" lon="10.4593690">
	<ele>1881.20</ele>
	<time>2024-07-25T11:28:14.000Z</time>
</trkpt>
<trkpt lat="46.1095420" lon="10.4593500">
	<ele>1881.20</ele>
	<time>2024-07-25T11:28:15.000Z</time>
</trkpt>
<trkpt lat="46.1095370" lon="10.4593320">
	<ele>1881.20</ele>
	<time>2024-07-25T11:28:16.000Z</time>
</trkpt>
<trkpt lat="46.1095310" lon="10.4593110">
	<ele>1881.20</ele>
	<time>2024-07-25T11:28:17.000Z</time>
</trkpt>
<trkpt lat="46.1095220" lon="10.4592880">
	<ele>1881.20</ele>
	<time>2024-07-25T11:28:18.000Z</time>
</trkpt>
<trkpt lat="46.1095120" lon="10.4592660">
	<ele>1880.60</ele>
	<time>2024-07-25T11:28:19.000Z</time>
</trkpt>
<trkpt lat="46.1095040" lon="10.4592460">
	<ele>1880.20</ele>
	<time>2024-07-25T11:28:20.000Z</time>
</trkpt>
<trkpt lat="46.1094950" lon="10.4592300">
	<ele>1880.20</ele>
	<time>2024-07-25T11:28:21.000Z</time>
</trkpt>
<trkpt lat="46.1094860" lon="10.4592140">
	<ele>1880.00</ele>
	<time>2024-07-25T11:28:22.000Z</time>
</trkpt>
<trkpt lat="46.1094770" lon="10.4591980">
	<ele>1879.80</ele>
	<time>2024-07-25T11:28:23.000Z</time>
</trkpt>
<trkpt lat="46.1094680" lon="10.4591840">
	<ele>1879.80</ele>
	<time>2024-07-25T11:28:24.000Z</time>
</trkpt>
<trkpt lat="46.1094580" lon="10.4591700">
	<ele>1879.80</ele>
	<time>2024-07-25T11:28:25.000Z</time>
</trkpt>
<trkpt lat="46.1094490" lon="10.4591550">
	<ele>1879.60</ele>
	<time>2024-07-25T11:28:26.000Z</time>
</trkpt>
<trkpt lat="46.1094390" lon="10.4591390">
	<ele>1879.60</ele>
	<time>2024-07-25T11:28:27.000Z</time>
</trkpt>
<trkpt lat="46.1094290" lon="10.4591210">
	<ele>1879.60</ele>
	<time>2024-07-25T11:28:28.000Z</time>
</trkpt>
<trkpt lat="46.1094200" lon="10.4591030">
	<ele>1879.40</ele>
	<time>2024-07-25T11:28:29.000Z</time>
</trkpt>
<trkpt lat="46.1094100" lon="10.4590880">
	<ele>1879.40</ele>
	<time>2024-07-25T11:28:30.000Z</time>
</trkpt>
<trkpt lat="46.1094020" lon="10.4590700">
	<ele>1879.40</ele>
	<time>2024-07-25T11:28:31.000Z</time>
</trkpt>
<trkpt lat="46.1093950" lon="10.4590530">
	<ele>1879.40</ele>
	<time>2024-07-25T11:28:32.000Z</time>
</trkpt>
<trkpt lat="46.1093870" lon="10.4590350">
	<ele>1879.40</ele>
	<time>2024-07-25T11:28:33.000Z</time>
</trkpt>
<trkpt lat="46.1093790" lon="10.4590190">
	<ele>1879.40</ele>
	<time>2024-07-25T11:28:34.000Z</time>
</trkpt>
<trkpt lat="46.1093720" lon="10.4590070">
	<ele>1879.40</ele>
	<time>2024-07-25T11:28:35.000Z</time>
</trkpt>
<trkpt lat="46.1093610" lon="10.4589900">
	<ele>1879.40</ele>
	<time>2024-07-25T11:28:36.000Z</time>
</trkpt>
<trkpt lat="46.1093520" lon="10.4589730">
	<ele>1879.40</ele>
	<time>2024-07-25T11:28:37.000Z</time>
</trkpt>
<trkpt lat="46.1093420" lon="10.4589520">
	<ele>1879.40</ele>
	<time>2024-07-25T11:28:38.000Z</time>
</trkpt>
<trkpt lat="46.1093380" lon="10.4589380">
	<ele>1879.20</ele>
	<time>2024-07-25T11:28:39.000Z</time>
</trkpt>
<trkpt lat="46.1093310" lon="10.4589190">
	<ele>1879.20</ele>
	<time>2024-07-25T11:28:40.000Z</time>
</trkpt>
<trkpt lat="46.1093260" lon="10.4588980">
	<ele>1879.00</ele>
	<time>2024-07-25T11:28:41.000Z</time>
</trkpt>
<trkpt lat="46.1093250" lon="10.4588770">
	<ele>1878.80</ele>
	<time>2024-07-25T11:28:42.000Z</time>
</trkpt>
<trkpt lat="46.1093290" lon="10.4588560">
	<ele>1878.60</ele>
	<time>2024-07-25T11:28:43.000Z</time>
</trkpt>
<trkpt lat="46.1093300" lon="10.4588350">
	<ele>1878.40</ele>
	<time>2024-07-25T11:28:44.000Z</time>
</trkpt>
<trkpt lat="46.1093310" lon="10.4588150">
	<ele>1878.20</ele>
	<time>2024-07-25T11:28:45.000Z</time>
</trkpt>
<trkpt lat="46.1093310" lon="10.4587940">
	<ele>1878.20</ele>
	<time>2024-07-25T11:28:46.000Z</time>
</trkpt>
<trkpt lat="46.1093280" lon="10.4587700">
	<ele>1878.00</ele>
	<time>2024-07-25T11:28:47.000Z</time>
</trkpt>
<trkpt lat="46.1093270" lon="10.4587500">
	<ele>1878.00</ele>
	<time>2024-07-25T11:28:48.000Z</time>
</trkpt>
<trkpt lat="46.1093270" lon="10.4587320">
	<ele>1877.80</ele>
	<time>2024-07-25T11:28:49.000Z</time>
</trkpt>
<trkpt lat="46.1093250" lon="10.4587060">
	<ele>1877.80</ele>
	<time>2024-07-25T11:28:50.000Z</time>
</trkpt>
<trkpt lat="46.1093290" lon="10.4586850">
	<ele>1877.60</ele>
	<time>2024-07-25T11:28:51.000Z</time>
</trkpt>
<trkpt lat="46.1093310" lon="10.4586650">
	<ele>1877.60</ele>
	<time>2024-07-25T11:28:52.000Z</time>
</trkpt>
<trkpt lat="46.1093330" lon="10.4586460">
	<ele>1877.40</ele>
	<time>2024-07-25T11:28:53.000Z</time>
</trkpt>
<trkpt lat="46.1093320" lon="10.4586290">
	<ele>1877.20</ele>
	<time>2024-07-25T11:28:54.000Z</time>
</trkpt>
<trkpt lat="46.1093280" lon="10.4586140">
	<ele>1877.00</ele>
	<time>2024-07-25T11:28:55.000Z</time>
</trkpt>
<trkpt lat="46.1093240" lon="10.4585920">
	<ele>1876.80</ele>
	<time>2024-07-25T11:28:56.000Z</time>
</trkpt>
<trkpt lat="46.1093190" lon="10.4585790">
	<ele>1876.60</ele>
	<time>2024-07-25T11:28:57.000Z</time>
</trkpt>
<trkpt lat="46.1093100" lon="10.4585580">
	<ele>1876.60</ele>
	<time>2024-07-25T11:28:58.000Z</time>
</trkpt>
<trkpt lat="46.1093000" lon="10.4585430">
	<ele>1876.60</ele>
	<time>2024-07-25T11:28:59.000Z</time>
</trkpt>
<trkpt lat="46.1092900" lon="10.4585300">
	<ele>1876.40</ele>
	<time>2024-07-25T11:29:00.000Z</time>
</trkpt>
<trkpt lat="46.1092790" lon="10.4585170">
	<ele>1876.40</ele>
	<time>2024-07-25T11:29:01.000Z</time>
</trkpt>
<trkpt lat="46.1092670" lon="10.4585020">
	<ele>1876.20</ele>
	<time>2024-07-25T11:29:02.000Z</time>
</trkpt>
<trkpt lat="46.1092610" lon="10.4584860">
	<ele>1876.20</ele>
	<time>2024-07-25T11:29:03.000Z</time>
</trkpt>
<trkpt lat="46.1092550" lon="10.4584720">
	<ele>1876.20</ele>
	<time>2024-07-25T11:29:04.000Z</time>
</trkpt>
<trkpt lat="46.1092480" lon="10.4584590">
	<ele>1876.20</ele>
	<time>2024-07-25T11:29:05.000Z</time>
</trkpt>
<trkpt lat="46.1092390" lon="10.4584420">
	<ele>1876.20</ele>
	<time>2024-07-25T11:29:06.000Z</time>
</trkpt>
<trkpt lat="46.1092310" lon="10.4584280">
	<ele>1876.00</ele>
	<time>2024-07-25T11:29:07.000Z</time>
</trkpt>
<trkpt lat="46.1092210" lon="10.4584110">
	<ele>1875.80</ele>
	<time>2024-07-25T11:29:08.000Z</time>
</trkpt>
<trkpt lat="46.1092100" lon="10.4583970">
	<ele>1875.60</ele>
	<time>2024-07-25T11:29:09.000Z</time>
</trkpt>
<trkpt lat="46.1091980" lon="10.4583840">
	<ele>1875.40</ele>
	<time>2024-07-25T11:29:10.000Z</time>
</trkpt>
<trkpt lat="46.1091870" lon="10.4583720">
	<ele>1875.20</ele>
	<time>2024-07-25T11:29:11.000Z</time>
</trkpt>
<trkpt lat="46.1091770" lon="10.4583560">
	<ele>1875.20</ele>
	<time>2024-07-25T11:29:12.000Z</time>
</trkpt>
<trkpt lat="46.1091690" lon="10.4583420">
	<ele>1875.00</ele>
	<time>2024-07-25T11:29:13.000Z</time>
</trkpt>
<trkpt lat="46.1091600" lon="10.4583280">
	<ele>1875.00</ele>
	<time>2024-07-25T11:29:14.000Z</time>
</trkpt>
<trkpt lat="46.1091500" lon="10.4583090">
	<ele>1875.00</ele>
	<time>2024-07-25T11:29:15.000Z</time>
</trkpt>
<trkpt lat="46.1091400" lon="10.4582880">
	<ele>1874.80</ele>
	<time>2024-07-25T11:29:16.000Z</time>
</trkpt>
<trkpt lat="46.1091330" lon="10.4582720">
	<ele>1874.80</ele>
	<time>2024-07-25T11:29:17.000Z</time>
</trkpt>
<trkpt lat="46.1091280" lon="10.4582550">
	<ele>1874.80</ele>
	<time>2024-07-25T11:29:18.000Z</time>
</trkpt>
<trkpt lat="46.1091220" lon="10.4582410">
	<ele>1874.60</ele>
	<time>2024-07-25T11:29:19.000Z</time>
</trkpt>
<trkpt lat="46.1091150" lon="10.4582170">
	<ele>1874.20</ele>
	<time>2024-07-25T11:29:20.000Z</time>
</trkpt>
<trkpt lat="46.1091130" lon="10.4581930">
	<ele>1874.00</ele>
	<time>2024-07-25T11:29:21.000Z</time>
</trkpt>
<trkpt lat="46.1091090" lon="10.4581720">
	<ele>1873.80</ele>
	<time>2024-07-25T11:29:22.000Z</time>
</trkpt>
<trkpt lat="46.1091030" lon="10.4581520">
	<ele>1873.60</ele>
	<time>2024-07-25T11:29:23.000Z</time>
</trkpt>
<trkpt lat="46.1090970" lon="10.4581340">
	<ele>1873.60</ele>
	<time>2024-07-25T11:29:24.000Z</time>
</trkpt>
<trkpt lat="46.1090880" lon="10.4581190">
	<ele>1873.60</ele>
	<time>2024-07-25T11:29:25.000Z</time>
</trkpt>
<trkpt lat="46.1090810" lon="10.4581040">
	<ele>1873.40</ele>
	<time>2024-07-25T11:29:26.000Z</time>
</trkpt>
<trkpt lat="46.1090740" lon="10.4580880">
	<ele>1873.40</ele>
	<time>2024-07-25T11:29:27.000Z</time>
</trkpt>
<trkpt lat="46.1090680" lon="10.4580720">
	<ele>1873.20</ele>
	<time>2024-07-25T11:29:28.000Z</time>
</trkpt>
<trkpt lat="46.1090620" lon="10.4580550">
	<ele>1873.20</ele>
	<time>2024-07-25T11:29:29.000Z</time>
</trkpt>
<trkpt lat="46.1090590" lon="10.4580400">
	<ele>1873.00</ele>
	<time>2024-07-25T11:29:30.000Z</time>
</trkpt>
<trkpt lat="46.1090540" lon="10.4580250">
	<ele>1872.80</ele>
	<time>2024-07-25T11:29:31.000Z</time>
</trkpt>
<trkpt lat="46.1090460" lon="10.4580090">
	<ele>1872.60</ele>
	<time>2024-07-25T11:29:32.000Z</time>
</trkpt>
<trkpt lat="46.1090370" lon="10.4579930">
	<ele>1872.40</ele>
	<time>2024-07-25T11:29:33.000Z</time>
</trkpt>
<trkpt lat="46.1090310" lon="10.4579800">
	<ele>1872.40</ele>
	<time>2024-07-25T11:29:34.000Z</time>
</trkpt>
<trkpt lat="46.1090260" lon="10.4579670">
	<ele>1872.20</ele>
	<time>2024-07-25T11:29:35.000Z</time>
</trkpt>
<trkpt lat="46.1090190" lon="10.4579540">
	<ele>1872.00</ele>
	<time>2024-07-25T11:29:36.000Z</time>
</trkpt>
<trkpt lat="46.1090100" lon="10.4579390">
	<ele>1871.80</ele>
	<time>2024-07-25T11:29:37.000Z</time>
</trkpt>
<trkpt lat="46.1090060" lon="10.4579220">
	<ele>1871.80</ele>
	<time>2024-07-25T11:29:38.000Z</time>
</trkpt>
<trkpt lat="46.1090020" lon="10.4579060">
	<ele>1871.60</ele>
	<time>2024-07-25T11:29:39.000Z</time>
</trkpt>
<trkpt lat="46.1089960" lon="10.4578910">
	<ele>1871.60</ele>
	<time>2024-07-25T11:29:40.000Z</time>
</trkpt>
<trkpt lat="46.1089920" lon="10.4578780">
	<ele>1871.40</ele>
	<time>2024-07-25T11:29:41.000Z</time>
</trkpt>
<trkpt lat="46.1089890" lon="10.4578650">
	<ele>1871.20</ele>
	<time>2024-07-25T11:29:42.000Z</time>
</trkpt>
<trkpt lat="46.1089840" lon="10.4578520">
	<ele>1871.20</ele>
	<time>2024-07-25T11:29:43.000Z</time>
</trkpt>
<trkpt lat="46.1089770" lon="10.4578430">
	<ele>1871.20</ele>
	<time>2024-07-25T11:29:44.000Z</time>
</trkpt>
<trkpt lat="46.1089680" lon="10.4578350">
	<ele>1871.20</ele>
	<time>2024-07-25T11:29:45.000Z</time>
</trkpt>
<trkpt lat="46.1089600" lon="10.4578210">
	<ele>1871.20</ele>
	<time>2024-07-25T11:29:46.000Z</time>
</trkpt>
<trkpt lat="46.1089520" lon="10.4578060">
	<ele>1871.00</ele>
	<time>2024-07-25T11:29:47.000Z</time>
</trkpt>
<trkpt lat="46.1089440" lon="10.4577920">
	<ele>1871.00</ele>
	<time>2024-07-25T11:29:48.000Z</time>
</trkpt>
<trkpt lat="46.1089380" lon="10.4577820">
	<ele>1870.80</ele>
	<time>2024-07-25T11:29:49.000Z</time>
</trkpt>
<trkpt lat="46.1089290" lon="10.4577700">
	<ele>1870.80</ele>
	<time>2024-07-25T11:29:50.000Z</time>
</trkpt>
<trkpt lat="46.1089170" lon="10.4577540">
	<ele>1870.80</ele>
	<time>2024-07-25T11:29:51.000Z</time>
</trkpt>
<trkpt lat="46.1089070" lon="10.4577410">
	<ele>1870.60</ele>
	<time>2024-07-25T11:29:52.000Z</time>
</trkpt>
<trkpt lat="46.1088960" lon="10.4577270">
	<ele>1870.40</ele>
	<time>2024-07-25T11:29:53.000Z</time>
</trkpt>
<trkpt lat="46.1088850" lon="10.4577150">
	<ele>1870.40</ele>
	<time>2024-07-25T11:29:54.000Z</time>
</trkpt>
<trkpt lat="46.1088720" lon="10.4576990">
	<ele>1870.40</ele>
	<time>2024-07-25T11:29:55.000Z</time>
</trkpt>
<trkpt lat="46.1088620" lon="10.4576830">
	<ele>1870.20</ele>
	<time>2024-07-25T11:29:56.000Z</time>
</trkpt>
<trkpt lat="46.1088530" lon="10.4576670">
	<ele>1870.20</ele>
	<time>2024-07-25T11:29:57.000Z</time>
</trkpt>
<trkpt lat="46.1088430" lon="10.4576560">
	<ele>1870.00</ele>
	<time>2024-07-25T11:29:58.000Z</time>
</trkpt>
<trkpt lat="46.1088340" lon="10.4576400">
	<ele>1869.80</ele>
	<time>2024-07-25T11:29:59.000Z</time>
</trkpt>
<trkpt lat="46.1088240" lon="10.4576230">
	<ele>1869.80</ele>
	<time>2024-07-25T11:30:00.000Z</time>
</trkpt>
<trkpt lat="46.1088150" lon="10.4576130">
	<ele>1869.60</ele>
	<time>2024-07-25T11:30:01.000Z</time>
</trkpt>
<trkpt lat="46.1088050" lon="10.4576000">
	<ele>1869.60</ele>
	<time>2024-07-25T11:30:02.000Z</time>
</trkpt>
<trkpt lat="46.1087970" lon="10.4575860">
	<ele>1869.20</ele>
	<time>2024-07-25T11:30:03.000Z</time>
</trkpt>
<trkpt lat="46.1087880" lon="10.4575710">
	<ele>1869.00</ele>
	<time>2024-07-25T11:30:04.000Z</time>
</trkpt>
<trkpt lat="46.1087810" lon="10.4575600">
	<ele>1868.80</ele>
	<time>2024-07-25T11:30:05.000Z</time>
</trkpt>
<trkpt lat="46.1087730" lon="10.4575470">
	<ele>1868.80</ele>
	<time>2024-07-25T11:30:06.000Z</time>
</trkpt>
<trkpt lat="46.1087680" lon="10.4575320">
	<ele>1868.40</ele>
	<time>2024-07-25T11:30:07.000Z</time>
</trkpt>
<trkpt lat="46.1087610" lon="10.4575160">
	<ele>1868.20</ele>
	<time>2024-07-25T11:30:08.000Z</time>
</trkpt>
<trkpt lat="46.1087560" lon="10.4574980">
	<ele>1868.00</ele>
	<time>2024-07-25T11:30:09.000Z</time>
</trkpt>
<trkpt lat="46.1087510" lon="10.4574730">
	<ele>1868.00</ele>
	<time>2024-07-25T11:30:10.000Z</time>
</trkpt>
<trkpt lat="46.1087460" lon="10.4574540">
	<ele>1867.80</ele>
	<time>2024-07-25T11:30:11.000Z</time>
</trkpt>
<trkpt lat="46.1087400" lon="10.4574380">
	<ele>1867.60</ele>
	<time>2024-07-25T11:30:12.000Z</time>
</trkpt>
<trkpt lat="46.1087340" lon="10.4574210">
	<ele>1867.60</ele>
	<time>2024-07-25T11:30:13.000Z</time>
</trkpt>
<trkpt lat="46.1087300" lon="10.4574040">
	<ele>1867.60</ele>
	<time>2024-07-25T11:30:14.000Z</time>
</trkpt>
<trkpt lat="46.1087270" lon="10.4573870">
	<ele>1867.60</ele>
	<time>2024-07-25T11:30:15.000Z</time>
</trkpt>
<trkpt lat="46.1087220" lon="10.4573660">
	<ele>1867.40</ele>
	<time>2024-07-25T11:30:16.000Z</time>
</trkpt>
<trkpt lat="46.1087130" lon="10.4573460">
	<ele>1867.20</ele>
	<time>2024-07-25T11:30:17.000Z</time>
</trkpt>
<trkpt lat="46.1087060" lon="10.4573280">
	<ele>1867.00</ele>
	<time>2024-07-25T11:30:18.000Z</time>
</trkpt>
<trkpt lat="46.1087010" lon="10.4573090">
	<ele>1866.80</ele>
	<time>2024-07-25T11:30:19.000Z</time>
</trkpt>
<trkpt lat="46.1086990" lon="10.4572970">
	<ele>1866.40</ele>
	<time>2024-07-25T11:30:20.000Z</time>
</trkpt>
<trkpt lat="46.1086970" lon="10.4572880">
	<ele>1866.20</ele>
	<time>2024-07-25T11:30:21.000Z</time>
</trkpt>
<trkpt lat="46.1086970" lon="10.4572840">
	<ele>1866.20</ele>
	<time>2024-07-25T11:30:22.000Z</time>
</trkpt>
<trkpt lat="46.1087000" lon="10.4572810">
	<ele>1866.00</ele>
	<time>2024-07-25T11:30:23.000Z</time>
</trkpt>
<trkpt lat="46.1087020" lon="10.4572770">
	<ele>1866.00</ele>
	<time>2024-07-25T11:30:24.000Z</time>
</trkpt>
<trkpt lat="46.1086960" lon="10.4572730">
	<ele>1865.80</ele>
	<time>2024-07-25T11:30:25.000Z</time>
</trkpt>
<trkpt lat="46.1086930" lon="10.4572710">
	<ele>1865.80</ele>
	<time>2024-07-25T11:30:26.000Z</time>
</trkpt>
<trkpt lat="46.1087010" lon="10.4572710">
	<ele>1865.80</ele>
	<time>2024-07-25T11:30:27.000Z</time>
</trkpt>
<trkpt lat="46.1087110" lon="10.4572640">
	<ele>1865.80</ele>
	<time>2024-07-25T11:30:28.000Z</time>
</trkpt>
<trkpt lat="46.1087070" lon="10.4572460">
	<ele>1865.60</ele>
	<time>2024-07-25T11:30:29.000Z</time>
</trkpt>
<trkpt lat="46.1087010" lon="10.4572290">
	<ele>1865.60</ele>
	<time>2024-07-25T11:30:30.000Z</time>
</trkpt>
<trkpt lat="46.1086970" lon="10.4572190">
	<ele>1865.60</ele>
	<time>2024-07-25T11:30:31.000Z</time>
</trkpt>
<trkpt lat="46.1086930" lon="10.4572030">
	<ele>1865.40</ele>
	<time>2024-07-25T11:30:32.000Z</time>
</trkpt>
<trkpt lat="46.1086850" lon="10.4571870">
	<ele>1865.40</ele>
	<time>2024-07-25T11:30:33.000Z</time>
</trkpt>
<trkpt lat="46.1086780" lon="10.4571650">
	<ele>1865.20</ele>
	<time>2024-07-25T11:30:34.000Z</time>
</trkpt>
<trkpt lat="46.1086750" lon="10.4571450">
	<ele>1865.00</ele>
	<time>2024-07-25T11:30:35.000Z</time>
</trkpt>
<trkpt lat="46.1086710" lon="10.4571250">
	<ele>1864.80</ele>
	<time>2024-07-25T11:30:36.000Z</time>
</trkpt>
<trkpt lat="46.1086650" lon="10.4571050">
	<ele>1864.60</ele>
	<time>2024-07-25T11:30:37.000Z</time>
</trkpt>
<trkpt lat="46.1086550" lon="10.4570890">
	<ele>1864.40</ele>
	<time>2024-07-25T11:30:38.000Z</time>
</trkpt>
<trkpt lat="46.1086450" lon="10.4570690">
	<ele>1864.20</ele>
	<time>2024-07-25T11:30:39.000Z</time>
</trkpt>
<trkpt lat="46.1086370" lon="10.4570480">
	<ele>1864.20</ele>
	<time>2024-07-25T11:30:40.000Z</time>
</trkpt>
<trkpt lat="46.1086330" lon="10.4570260">
	<ele>1864.20</ele>
	<time>2024-07-25T11:30:41.000Z</time>
</trkpt>
<trkpt lat="46.1086330" lon="10.4570070">
	<ele>1864.00</ele>
	<time>2024-07-25T11:30:42.000Z</time>
</trkpt>
<trkpt lat="46.1086320" lon="10.4569850">
	<ele>1864.00</ele>
	<time>2024-07-25T11:30:43.000Z</time>
</trkpt>
<trkpt lat="46.1086330" lon="10.4569650">
	<ele>1863.80</ele>
	<time>2024-07-25T11:30:44.000Z</time>
</trkpt>
<trkpt lat="46.1086310" lon="10.4569460">
	<ele>1863.20</ele>
	<time>2024-07-25T11:30:45.000Z</time>
</trkpt>
<trkpt lat="46.1086280" lon="10.4569320">
	<ele>1863.00</ele>
	<time>2024-07-25T11:30:46.000Z</time>
</trkpt>
<trkpt lat="46.1086280" lon="10.4569090">
	<ele>1862.80</ele>
	<time>2024-07-25T11:30:47.000Z</time>
</trkpt>
<trkpt lat="46.1086270" lon="10.4568890">
	<ele>1862.60</ele>
	<time>2024-07-25T11:30:48.000Z</time>
</trkpt>
<trkpt lat="46.1086240" lon="10.4568680">
	<ele>1862.40</ele>
	<time>2024-07-25T11:30:49.000Z</time>
</trkpt>
<trkpt lat="46.1086250" lon="10.4568500">
	<ele>1862.20</ele>
	<time>2024-07-25T11:30:50.000Z</time>
</trkpt>
<trkpt lat="46.1086220" lon="10.4568280">
	<ele>1862.00</ele>
	<time>2024-07-25T11:30:51.000Z</time>
</trkpt>
<trkpt lat="46.1086190" lon="10.4568070">
	<ele>1861.80</ele>
	<time>2024-07-25T11:30:52.000Z</time>
</trkpt>
<trkpt lat="46.1086180" lon="10.4567860">
	<ele>1861.60</ele>
	<time>2024-07-25T11:30:53.000Z</time>
</trkpt>
<trkpt lat="46.1086170" lon="10.4567690">
	<ele>1861.60</ele>
	<time>2024-07-25T11:30:54.000Z</time>
</trkpt>
<trkpt lat="46.1086130" lon="10.4567530">
	<ele>1861.40</ele>
	<time>2024-07-25T11:30:55.000Z</time>
</trkpt>
<trkpt lat="46.1086100" lon="10.4567370">
	<ele>1861.20</ele>
	<time>2024-07-25T11:30:56.000Z</time>
</trkpt>
<trkpt lat="46.1086090" lon="10.4567200">
	<ele>1860.80</ele>
	<time>2024-07-25T11:30:57.000Z</time>
</trkpt>
<trkpt lat="46.1086070" lon="10.4567020">
	<ele>1860.60</ele>
	<time>2024-07-25T11:30:58.000Z</time>
</trkpt>
<trkpt lat="46.1086080" lon="10.4566820">
	<ele>1860.40</ele>
	<time>2024-07-25T11:30:59.000Z</time>
</trkpt>
<trkpt lat="46.1086070" lon="10.4566610">
	<ele>1860.00</ele>
	<time>2024-07-25T11:31:00.000Z</time>
</trkpt>
<trkpt lat="46.1086070" lon="10.4566430">
	<ele>1859.80</ele>
	<time>2024-07-25T11:31:01.000Z</time>
</trkpt>
<trkpt lat="46.1086070" lon="10.4566220">
	<ele>1859.60</ele>
	<time>2024-07-25T11:31:02.000Z</time>
</trkpt>
<trkpt lat="46.1086030" lon="10.4566040">
	<ele>1859.40</ele>
	<time>2024-07-25T11:31:03.000Z</time>
</trkpt>
<trkpt lat="46.1085980" lon="10.4565870">
	<ele>1859.20</ele>
	<time>2024-07-25T11:31:04.000Z</time>
</trkpt>
<trkpt lat="46.1085930" lon="10.4565660">
	<ele>1859.00</ele>
	<time>2024-07-25T11:31:05.000Z</time>
</trkpt>
<trkpt lat="46.1085900" lon="10.4565460">
	<ele>1858.80</ele>
	<time>2024-07-25T11:31:06.000Z</time>
</trkpt>
<trkpt lat="46.1085840" lon="10.4565300">
	<ele>1858.40</ele>
	<time>2024-07-25T11:31:07.000Z</time>
</trkpt>
<trkpt lat="46.1085790" lon="10.4565130">
	<ele>1858.20</ele>
	<time>2024-07-25T11:31:08.000Z</time>
</trkpt>
<trkpt lat="46.1085750" lon="10.4564990">
	<ele>1858.00</ele>
	<time>2024-07-25T11:31:09.000Z</time>
</trkpt>
<trkpt lat="46.1085720" lon="10.4564770">
	<ele>1857.80</ele>
	<time>2024-07-25T11:31:10.000Z</time>
</trkpt>
<trkpt lat="46.1085690" lon="10.4564560">
	<ele>1857.60</ele>
	<time>2024-07-25T11:31:11.000Z</time>
</trkpt>
<trkpt lat="46.1085630" lon="10.4564350">
	<ele>1857.40</ele>
	<time>2024-07-25T11:31:12.000Z</time>
</trkpt>
<trkpt lat="46.1085580" lon="10.4564140">
	<ele>1857.00</ele>
	<time>2024-07-25T11:31:13.000Z</time>
</trkpt>
<trkpt lat="46.1085540" lon="10.4563930">
	<ele>1856.80</ele>
	<time>2024-07-25T11:31:14.000Z</time>
</trkpt>
<trkpt lat="46.1085480" lon="10.4563710">
	<ele>1856.60</ele>
	<time>2024-07-25T11:31:15.000Z</time>
</trkpt>
<trkpt lat="46.1085410" lon="10.4563500">
	<ele>1856.40</ele>
	<time>2024-07-25T11:31:16.000Z</time>
</trkpt>
<trkpt lat="46.1085350" lon="10.4563300">
	<ele>1856.20</ele>
	<time>2024-07-25T11:31:17.000Z</time>
</trkpt>
<trkpt lat="46.1085280" lon="10.4563110">
	<ele>1856.20</ele>
	<time>2024-07-25T11:31:18.000Z</time>
</trkpt>
<trkpt lat="46.1085160" lon="10.4562900">
	<ele>1856.00</ele>
	<time>2024-07-25T11:31:19.000Z</time>
</trkpt>
<trkpt lat="46.1085040" lon="10.4562740">
	<ele>1856.00</ele>
	<time>2024-07-25T11:31:20.000Z</time>
</trkpt>
<trkpt lat="46.1084940" lon="10.4562600">
	<ele>1856.00</ele>
	<time>2024-07-25T11:31:21.000Z</time>
</trkpt>
<trkpt lat="46.1084850" lon="10.4562470">
	<ele>1855.80</ele>
	<time>2024-07-25T11:31:22.000Z</time>
</trkpt>
<trkpt lat="46.1084690" lon="10.4562300">
	<ele>1855.40</ele>
	<time>2024-07-25T11:31:23.000Z</time>
</trkpt>
<trkpt lat="46.1084550" lon="10.4562140">
	<ele>1855.20</ele>
	<time>2024-07-25T11:31:24.000Z</time>
</trkpt>
<trkpt lat="46.1084450" lon="10.4562030">
	<ele>1855.00</ele>
	<time>2024-07-25T11:31:25.000Z</time>
</trkpt>
<trkpt lat="46.1084310" lon="10.4561890">
	<ele>1854.80</ele>
	<time>2024-07-25T11:31:26.000Z</time>
</trkpt>
<trkpt lat="46.1084160" lon="10.4561770">
	<ele>1854.60</ele>
	<time>2024-07-25T11:31:27.000Z</time>
</trkpt>
<trkpt lat="46.1084050" lon="10.4561680">
	<ele>1854.20</ele>
	<time>2024-07-25T11:31:28.000Z</time>
</trkpt>
<trkpt lat="46.1083920" lon="10.4561530">
	<ele>1854.00</ele>
	<time>2024-07-25T11:31:29.000Z</time>
</trkpt>
<trkpt lat="46.1083820" lon="10.4561410">
	<ele>1853.80</ele>
	<time>2024-07-25T11:31:30.000Z</time>
</trkpt>
<trkpt lat="46.1083780" lon="10.4561280">
	<ele>1853.80</ele>
	<time>2024-07-25T11:31:31.000Z</time>
</trkpt>
<trkpt lat="46.1083770" lon="10.4561120">
	<ele>1853.40</ele>
	<time>2024-07-25T11:31:32.000Z</time>
</trkpt>
<trkpt lat="46.1083710" lon="10.4560960">
	<ele>1853.40</ele>
	<time>2024-07-25T11:31:33.000Z</time>
</trkpt>
<trkpt lat="46.1083680" lon="10.4560800">
	<ele>1853.20</ele>
	<time>2024-07-25T11:31:34.000Z</time>
</trkpt>
<trkpt lat="46.1083650" lon="10.4560650">
	<ele>1853.00</ele>
	<time>2024-07-25T11:31:35.000Z</time>
</trkpt>
<trkpt lat="46.1083670" lon="10.4560550">
	<ele>1852.80</ele>
	<time>2024-07-25T11:31:36.000Z</time>
</trkpt>
<trkpt lat="46.1083680" lon="10.4560390">
	<ele>1852.80</ele>
	<time>2024-07-25T11:31:37.000Z</time>
</trkpt>
<trkpt lat="46.1083720" lon="10.4560200">
	<ele>1852.40</ele>
	<time>2024-07-25T11:31:38.000Z</time>
</trkpt>
<trkpt lat="46.1083700" lon="10.4559980">
	<ele>1851.80</ele>
	<time>2024-07-25T11:31:39.000Z</time>
</trkpt>
<trkpt lat="46.1083690" lon="10.4559790">
	<ele>1851.20</ele>
	<time>2024-07-25T11:31:40.000Z</time>
</trkpt>
<trkpt lat="46.1083710" lon="10.4559610">
	<ele>1851.00</ele>
	<time>2024-07-25T11:31:41.000Z</time>
</trkpt>
<trkpt lat="46.1083730" lon="10.4559460">
	<ele>1850.60</ele>
	<time>2024-07-25T11:31:42.000Z</time>
</trkpt>
<trkpt lat="46.1083750" lon="10.4559320">
	<ele>1850.40</ele>
	<time>2024-07-25T11:31:43.000Z</time>
</trkpt>
<trkpt lat="46.1083790" lon="10.4559200">
	<ele>1850.40</ele>
	<time>2024-07-25T11:31:44.000Z</time>
</trkpt>
<trkpt lat="46.1083840" lon="10.4559050">
	<ele>1850.00</ele>
	<time>2024-07-25T11:31:45.000Z</time>
</trkpt>
<trkpt lat="46.1083870" lon="10.4558910">
	<ele>1850.00</ele>
	<time>2024-07-25T11:31:46.000Z</time>
</trkpt>
<trkpt lat="46.1083930" lon="10.4558780">
	<ele>1849.80</ele>
	<time>2024-07-25T11:31:47.000Z</time>
</trkpt>
<trkpt lat="46.1083970" lon="10.4558700">
	<ele>1849.80</ele>
	<time>2024-07-25T11:31:48.000Z</time>
</trkpt>
<trkpt lat="46.1084040" lon="10.4558580">
	<ele>1849.20</ele>
	<time>2024-07-25T11:31:49.000Z</time>
</trkpt>
<trkpt lat="46.1084110" lon="10.4558440">
	<ele>1849.00</ele>
	<time>2024-07-25T11:31:50.000Z</time>
</trkpt>
<trkpt lat="46.1084150" lon="10.4558250">
	<ele>1848.80</ele>
	<time>2024-07-25T11:31:51.000Z</time>
</trkpt>
<trkpt lat="46.1084170" lon="10.4558080">
	<ele>1848.60</ele>
	<time>2024-07-25T11:31:52.000Z</time>
</trkpt>
<trkpt lat="46.1084210" lon="10.4557890">
	<ele>1848.40</ele>
	<time>2024-07-25T11:31:53.000Z</time>
</trkpt>
<trkpt lat="46.1084220" lon="10.4557650">
	<ele>1848.20</ele>
	<time>2024-07-25T11:31:54.000Z</time>
</trkpt>
<trkpt lat="46.1084240" lon="10.4557470">
	<ele>1848.00</ele>
	<time>2024-07-25T11:31:55.000Z</time>
</trkpt>
<trkpt lat="46.1084270" lon="10.4557280">
	<ele>1847.80</ele>
	<time>2024-07-25T11:31:56.000Z</time>
</trkpt>
<trkpt lat="46.1084270" lon="10.4557110">
	<ele>1847.80</ele>
	<time>2024-07-25T11:31:57.000Z</time>
</trkpt>
<trkpt lat="46.1084220" lon="10.4556960">
	<ele>1847.60</ele>
	<time>2024-07-25T11:31:58.000Z</time>
</trkpt>
<trkpt lat="46.1084130" lon="10.4556830">
	<ele>1847.20</ele>
	<time>2024-07-25T11:31:59.000Z</time>
</trkpt>
<trkpt lat="46.1084040" lon="10.4556670">
	<ele>1847.00</ele>
	<time>2024-07-25T11:32:00.000Z</time>
</trkpt>
<trkpt lat="46.1083930" lon="10.4556520">
	<ele>1846.80</ele>
	<time>2024-07-25T11:32:01.000Z</time>
</trkpt>
<trkpt lat="46.1083770" lon="10.4556350">
	<ele>1846.60</ele>
	<time>2024-07-25T11:32:02.000Z</time>
</trkpt>
<trkpt lat="46.1083640" lon="10.4556230">
	<ele>1846.60</ele>
	<time>2024-07-25T11:32:03.000Z</time>
</trkpt>
<trkpt lat="46.1083520" lon="10.4556090">
	<ele>1846.40</ele>
	<time>2024-07-25T11:32:04.000Z</time>
</trkpt>
<trkpt lat="46.1083430" lon="10.4556000">
	<ele>1846.40</ele>
	<time>2024-07-25T11:32:05.000Z</time>
</trkpt>
<trkpt lat="46.1083370" lon="10.4555850">
	<ele>1846.20</ele>
	<time>2024-07-25T11:32:06.000Z</time>
</trkpt>
<trkpt lat="46.1083300" lon="10.4555700">
	<ele>1846.20</ele>
	<time>2024-07-25T11:32:07.000Z</time>
</trkpt>
<trkpt lat="46.1083210" lon="10.4555540">
	<ele>1846.00</ele>
	<time>2024-07-25T11:32:08.000Z</time>
</trkpt>
<trkpt lat="46.1083160" lon="10.4555480">
	<ele>1845.60</ele>
	<time>2024-07-25T11:32:09.000Z</time>
</trkpt>
<trkpt lat="46.1083090" lon="10.4555380">
	<ele>1845.40</ele>
	<time>2024-07-25T11:32:10.000Z</time>
</trkpt>
<trkpt lat="46.1083040" lon="10.4555240">
	<ele>1845.20</ele>
	<time>2024-07-25T11:32:11.000Z</time>
</trkpt>
<trkpt lat="46.1083010" lon="10.4555110">
	<ele>1845.00</ele>
	<time>2024-07-25T11:32:12.000Z</time>
</trkpt>
<trkpt lat="46.1082990" lon="10.4554970">
	<ele>1844.60</ele>
	<time>2024-07-25T11:32:13.000Z</time>
</trkpt>
<trkpt lat="46.1082960" lon="10.4554820">
	<ele>1844.20</ele>
	<time>2024-07-25T11:32:14.000Z</time>
</trkpt>
<trkpt lat="46.1082860" lon="10.4554630">
	<ele>1844.00</ele>
	<time>2024-07-25T11:32:15.000Z</time>
</trkpt>
<trkpt lat="46.1082780" lon="10.4554460">
	<ele>1843.80</ele>
	<time>2024-07-25T11:32:16.000Z</time>
</trkpt>
<trkpt lat="46.1082710" lon="10.4554330">
	<ele>1843.60</ele>
	<time>2024-07-25T11:32:17.000Z</time>
</trkpt>
<trkpt lat="46.1082640" lon="10.4554150">
	<ele>1843.40</ele>
	<time>2024-07-25T11:32:18.000Z</time>
</trkpt>
<trkpt lat="46.1082620" lon="10.4554000">
	<ele>1843.20</ele>
	<time>2024-07-25T11:32:19.000Z</time>
</trkpt>
<trkpt lat="46.1082610" lon="10.4553840">
	<ele>1842.80</ele>
	<time>2024-07-25T11:32:20.000Z</time>
</trkpt>
<trkpt lat="46.1082590" lon="10.4553680">
	<ele>1842.60</ele>
	<time>2024-07-25T11:32:21.000Z</time>
</trkpt>
<trkpt lat="46.1082550" lon="10.4553510">
	<ele>1842.40</ele>
	<time>2024-07-25T11:32:22.000Z</time>
</trkpt>
<trkpt lat="46.1082510" lon="10.4553360">
	<ele>1842.20</ele>
	<time>2024-07-25T11:32:23.000Z</time>
</trkpt>
<trkpt lat="46.1082480" lon="10.4553210">
	<ele>1842.20</ele>
	<time>2024-07-25T11:32:24.000Z</time>
</trkpt>
<trkpt lat="46.1082470" lon="10.4553060">
	<ele>1842.00</ele>
	<time>2024-07-25T11:32:25.000Z</time>
</trkpt>
<trkpt lat="46.1082400" lon="10.4552910">
	<ele>1841.80</ele>
	<time>2024-07-25T11:32:26.000Z</time>
</trkpt>
<trkpt lat="46.1082340" lon="10.4552780">
	<ele>1841.80</ele>
	<time>2024-07-25T11:32:27.000Z</time>
</trkpt>
<trkpt lat="46.1082270" lon="10.4552630">
	<ele>1841.60</ele>
	<time>2024-07-25T11:32:28.000Z</time>
</trkpt>
<trkpt lat="46.1082210" lon="10.4552480">
	<ele>1841.40</ele>
	<time>2024-07-25T11:32:29.000Z</time>
</trkpt>
<trkpt lat="46.1082150" lon="10.4552310">
	<ele>1841.00</ele>
	<time>2024-07-25T11:32:30.000Z</time>
</trkpt>
<trkpt lat="46.1082100" lon="10.4552160">
	<ele>1840.80</ele>
	<time>2024-07-25T11:32:31.000Z</time>
</trkpt>
<trkpt lat="46.1082040" lon="10.4551990">
	<ele>1840.60</ele>
	<time>2024-07-25T11:32:32.000Z</time>
</trkpt>
<trkpt lat="46.1081970" lon="10.4551830">
	<ele>1840.20</ele>
	<time>2024-07-25T11:32:33.000Z</time>
</trkpt>
<trkpt lat="46.1081890" lon="10.4551660">
	<ele>1840.00</ele>
	<time>2024-07-25T11:32:34.000Z</time>
</trkpt>
<trkpt lat="46.1081820" lon="10.4551490">
	<ele>1839.80</ele>
	<time>2024-07-25T11:32:35.000Z</time>
</trkpt>
<trkpt lat="46.1081780" lon="10.4551320">
	<ele>1839.40</ele>
	<time>2024-07-25T11:32:36.000Z</time>
</trkpt>
<trkpt lat="46.1081740" lon="10.4551150">
	<ele>1839.20</ele>
	<time>2024-07-25T11:32:37.000Z</time>
</trkpt>
<trkpt lat="46.1081710" lon="10.4551000">
	<ele>1839.20</ele>
	<time>2024-07-25T11:32:38.000Z</time>
</trkpt>
<trkpt lat="46.1081690" lon="10.4550900">
	<ele>1839.00</ele>
	<time>2024-07-25T11:32:39.000Z</time>
</trkpt>
<trkpt lat="46.1081650" lon="10.4550790">
	<ele>1839.00</ele>
	<time>2024-07-25T11:32:40.000Z</time>
</trkpt>
<trkpt lat="46.1081600" lon="10.4550660">
	<ele>1838.80</ele>
	<time>2024-07-25T11:32:41.000Z</time>
</trkpt>
<trkpt lat="46.1081560" lon="10.4550560">
	<ele>1838.80</ele>
	<time>2024-07-25T11:32:42.000Z</time>
</trkpt>
<trkpt lat="46.1081530" lon="10.4550390">
	<ele>1838.60</ele>
	<time>2024-07-25T11:32:43.000Z</time>
</trkpt>
<trkpt lat="46.1081510" lon="10.4550210">
	<ele>1838.40</ele>
	<time>2024-07-25T11:32:44.000Z</time>
</trkpt>
<trkpt lat="46.1081470" lon="10.4550070">
	<ele>1838.00</ele>
	<time>2024-07-25T11:32:45.000Z</time>
</trkpt>
<trkpt lat="46.1081410" lon="10.4549960">
	<ele>1837.60</ele>
	<time>2024-07-25T11:32:46.000Z</time>
</trkpt>
<trkpt lat="46.1081380" lon="10.4549840">
	<ele>1837.20</ele>
	<time>2024-07-25T11:32:47.000Z</time>
</trkpt>
<trkpt lat="46.1081330" lon="10.4549710">
	<ele>1837.00</ele>
	<time>2024-07-25T11:32:48.000Z</time>
</trkpt>
<trkpt lat="46.1081270" lon="10.4549570">
	<ele>1836.80</ele>
	<time>2024-07-25T11:32:49.000Z</time>
</trkpt>
<trkpt lat="46.1081220" lon="10.4549420">
	<ele>1836.60</ele>
	<time>2024-07-25T11:32:50.000Z</time>
</trkpt>
<trkpt lat="46.1081170" lon="10.4549250">
	<ele>1836.40</ele>
	<time>2024-07-25T11:32:51.000Z</time>
</trkpt>
<trkpt lat="46.1081080" lon="10.4549070">
	<ele>1836.40</ele>
	<time>2024-07-25T11:32:52.000Z</time>
</trkpt>
<trkpt lat="46.1081010" lon="10.4548960">
	<ele>1836.20</ele>
	<time>2024-07-25T11:32:53.000Z</time>
</trkpt>
<trkpt lat="46.1080940" lon="10.4548820">
	<ele>1836.00</ele>
	<time>2024-07-25T11:32:54.000Z</time>
</trkpt>
<trkpt lat="46.1080880" lon="10.4548740">
	<ele>1835.80</ele>
	<time>2024-07-25T11:32:55.000Z</time>
</trkpt>
<trkpt lat="46.1080820" lon="10.4548660">
	<ele>1835.60</ele>
	<time>2024-07-25T11:32:56.000Z</time>
</trkpt>
<trkpt lat="46.1080720" lon="10.4548540">
	<ele>1835.40</ele>
	<time>2024-07-25T11:32:57.000Z</time>
</trkpt>
<trkpt lat="46.1080630" lon="10.4548450">
	<ele>1835.20</ele>
	<time>2024-07-25T11:32:58.000Z</time>
</trkpt>
<trkpt lat="46.1080550" lon="10.4548400">
	<ele>1835.20</ele>
	<time>2024-07-25T11:32:59.000Z</time>
</trkpt>
<trkpt lat="46.1080500" lon="10.4548310">
	<ele>1835.00</ele>
	<time>2024-07-25T11:33:00.000Z</time>
</trkpt>
<trkpt lat="46.1080440" lon="10.4548200">
	<ele>1834.80</ele>
	<time>2024-07-25T11:33:01.000Z</time>
</trkpt>
<trkpt lat="46.1080320" lon="10.4548130">
	<ele>1834.60</ele>
	<time>2024-07-25T11:33:02.000Z</time>
</trkpt>
<trkpt lat="46.1080200" lon="10.4548090">
	<ele>1834.40</ele>
	<time>2024-07-25T11:33:03.000Z</time>
</trkpt>
<trkpt lat="46.1080070" lon="10.4548050">
	<ele>1834.20</ele>
	<time>2024-07-25T11:33:04.000Z</time>
</trkpt>
<trkpt lat="46.1079960" lon="10.4547990">
	<ele>1834.00</ele>
	<time>2024-07-25T11:33:05.000Z</time>
</trkpt>
<trkpt lat="46.1079830" lon="10.4547900">
	<ele>1833.80</ele>
	<time>2024-07-25T11:33:06.000Z</time>
</trkpt>
<trkpt lat="46.1079690" lon="10.4547830">
	<ele>1833.40</ele>
	<time>2024-07-25T11:33:07.000Z</time>
</trkpt>
<trkpt lat="46.1079550" lon="10.4547700">
	<ele>1833.20</ele>
	<time>2024-07-25T11:33:08.000Z</time>
</trkpt>
<trkpt lat="46.1079430" lon="10.4547590">
	<ele>1833.20</ele>
	<time>2024-07-25T11:33:09.000Z</time>
</trkpt>
<trkpt lat="46.1079380" lon="10.4547560">
	<ele>1832.80</ele>
	<time>2024-07-25T11:33:10.000Z</time>
</trkpt>
<trkpt lat="46.1079300" lon="10.4547470">
	<ele>1832.60</ele>
	<time>2024-07-25T11:33:11.000Z</time>
</trkpt>
<trkpt lat="46.1079200" lon="10.4547400">
	<ele>1832.40</ele>
	<time>2024-07-25T11:33:12.000Z</time>
</trkpt>
<trkpt lat="46.1079100" lon="10.4547320">
	<ele>1832.20</ele>
	<time>2024-07-25T11:33:13.000Z</time>
</trkpt>
<trkpt lat="46.1078990" lon="10.4547240">
	<ele>1832.00</ele>
	<time>2024-07-25T11:33:14.000Z</time>
</trkpt>
<trkpt lat="46.1078880" lon="10.4547140">
	<ele>1832.00</ele>
	<time>2024-07-25T11:33:15.000Z</time>
</trkpt>
<trkpt lat="46.1078790" lon="10.4547010">
	<ele>1831.80</ele>
	<time>2024-07-25T11:33:16.000Z</time>
</trkpt>
<trkpt lat="46.1078720" lon="10.4546840">
	<ele>1831.80</ele>
	<time>2024-07-25T11:33:17.000Z</time>
</trkpt>
<trkpt lat="46.1078650" lon="10.4546650">
	<ele>1831.40</ele>
	<time>2024-07-25T11:33:18.000Z</time>
</trkpt>
<trkpt lat="46.1078600" lon="10.4546450">
	<ele>1831.20</ele>
	<time>2024-07-25T11:33:19.000Z</time>
</trkpt>
<trkpt lat="46.1078560" lon="10.4546260">
	<ele>1831.20</ele>
	<time>2024-07-25T11:33:20.000Z</time>
</trkpt>
<trkpt lat="46.1078540" lon="10.4546060">
	<ele>1830.80</ele>
	<time>2024-07-25T11:33:21.000Z</time>
</trkpt>
<trkpt lat="46.1078510" lon="10.4545850">
	<ele>1830.20</ele>
	<time>2024-07-25T11:33:22.000Z</time>
</trkpt>
<trkpt lat="46.1078470" lon="10.4545640">
	<ele>1830.00</ele>
	<time>2024-07-25T11:33:23.000Z</time>
</trkpt>
<trkpt lat="46.1078410" lon="10.4545450">
	<ele>1829.60</ele>
	<time>2024-07-25T11:33:24.000Z</time>
</trkpt>
<trkpt lat="46.1078320" lon="10.4545230">
	<ele>1829.40</ele>
	<time>2024-07-25T11:33:25.000Z</time>
</trkpt>
<trkpt lat="46.1078230" lon="10.4545080">
	<ele>1829.20</ele>
	<time>2024-07-25T11:33:26.000Z</time>
</trkpt>
<trkpt lat="46.1078110" lon="10.4544930">
	<ele>1828.80</ele>
	<time>2024-07-25T11:33:27.000Z</time>
</trkpt>
<trkpt lat="46.1078000" lon="10.4544820">
	<ele>1828.60</ele>
	<time>2024-07-25T11:33:28.000Z</time>
</trkpt>
<trkpt lat="46.1077880" lon="10.4544700">
	<ele>1828.40</ele>
	<time>2024-07-25T11:33:29.000Z</time>
</trkpt>
<trkpt lat="46.1077750" lon="10.4544570">
	<ele>1828.20</ele>
	<time>2024-07-25T11:33:30.000Z</time>
</trkpt>
<trkpt lat="46.1077640" lon="10.4544460">
	<ele>1828.00</ele>
	<time>2024-07-25T11:33:31.000Z</time>
</trkpt>
<trkpt lat="46.1077510" lon="10.4544290">
	<ele>1827.80</ele>
	<time>2024-07-25T11:33:32.000Z</time>
</trkpt>
<trkpt lat="46.1077350" lon="10.4544150">
	<ele>1827.60</ele>
	<time>2024-07-25T11:33:33.000Z</time>
</trkpt>
<trkpt lat="46.1077230" lon="10.4544050">
	<ele>1827.20</ele>
	<time>2024-07-25T11:33:34.000Z</time>
</trkpt>
<trkpt lat="46.1077120" lon="10.4543930">
	<ele>1826.80</ele>
	<time>2024-07-25T11:33:35.000Z</time>
</trkpt>
<trkpt lat="46.1077030" lon="10.4543820">
	<ele>1826.40</ele>
	<time>2024-07-25T11:33:36.000Z</time>
</trkpt>
<trkpt lat="46.1076940" lon="10.4543690">
	<ele>1826.00</ele>
	<time>2024-07-25T11:33:37.000Z</time>
</trkpt>
<trkpt lat="46.1076850" lon="10.4543540">
	<ele>1825.60</ele>
	<time>2024-07-25T11:33:38.000Z</time>
</trkpt>
<trkpt lat="46.1076730" lon="10.4543370">
	<ele>1825.40</ele>
	<time>2024-07-25T11:33:39.000Z</time>
</trkpt>
<trkpt lat="46.1076610" lon="10.4543230">
	<ele>1825.20</ele>
	<time>2024-07-25T11:33:40.000Z</time>
</trkpt>
<trkpt lat="46.1076480" lon="10.4543090">
	<ele>1824.80</ele>
	<time>2024-07-25T11:33:41.000Z</time>
</trkpt>
<trkpt lat="46.1076350" lon="10.4542970">
	<ele>1824.60</ele>
	<time>2024-07-25T11:33:42.000Z</time>
</trkpt>
<trkpt lat="46.1076200" lon="10.4542870">
	<ele>1824.60</ele>
	<time>2024-07-25T11:33:43.000Z</time>
</trkpt>
<trkpt lat="46.1076050" lon="10.4542800">
	<ele>1824.40</ele>
	<time>2024-07-25T11:33:44.000Z</time>
</trkpt>
<trkpt lat="46.1075890" lon="10.4542760">
	<ele>1824.40</ele>
	<time>2024-07-25T11:33:45.000Z</time>
</trkpt>
<trkpt lat="46.1075740" lon="10.4542740">
	<ele>1824.20</ele>
	<time>2024-07-25T11:33:46.000Z</time>
</trkpt>
<trkpt lat="46.1075570" lon="10.4542700">
	<ele>1824.20</ele>
	<time>2024-07-25T11:33:47.000Z</time>
</trkpt>
<trkpt lat="46.1075430" lon="10.4542670">
	<ele>1824.00</ele>
	<time>2024-07-25T11:33:48.000Z</time>
</trkpt>
<trkpt lat="46.1075270" lon="10.4542630">
	<ele>1823.80</ele>
	<time>2024-07-25T11:33:49.000Z</time>
</trkpt>
<trkpt lat="46.1075120" lon="10.4542590">
	<ele>1823.60</ele>
	<time>2024-07-25T11:33:50.000Z</time>
</trkpt>
<trkpt lat="46.1074970" lon="10.4542520">
	<ele>1823.40</ele>
	<time>2024-07-25T11:33:51.000Z</time>
</trkpt>
<trkpt lat="46.1074820" lon="10.4542440">
	<ele>1823.20</ele>
	<time>2024-07-25T11:33:52.000Z</time>
</trkpt>
<trkpt lat="46.1074720" lon="10.4542320">
	<ele>1822.80</ele>
	<time>2024-07-25T11:33:53.000Z</time>
</trkpt>
<trkpt lat="46.1074630" lon="10.4542190">
	<ele>1822.40</ele>
	<time>2024-07-25T11:33:54.000Z</time>
</trkpt>
<trkpt lat="46.1074550" lon="10.4542070">
	<ele>1822.20</ele>
	<time>2024-07-25T11:33:55.000Z</time>
</trkpt>
<trkpt lat="46.1074500" lon="10.4541930">
	<ele>1822.00</ele>
	<time>2024-07-25T11:33:56.000Z</time>
</trkpt>
<trkpt lat="46.1074490" lon="10.4541780">
	<ele>1821.80</ele>
	<time>2024-07-25T11:33:57.000Z</time>
</trkpt>
<trkpt lat="46.1074450" lon="10.4541610">
	<ele>1821.60</ele>
	<time>2024-07-25T11:33:58.000Z</time>
</trkpt>
<trkpt lat="46.1074430" lon="10.4541490">
	<ele>1821.40</ele>
	<time>2024-07-25T11:33:59.000Z</time>
</trkpt>
<trkpt lat="46.1074410" lon="10.4541280">
	<ele>1821.20</ele>
	<time>2024-07-25T11:34:00.000Z</time>
</trkpt>
<trkpt lat="46.1074320" lon="10.4541200">
	<ele>1821.00</ele>
	<time>2024-07-25T11:34:01.000Z</time>
</trkpt>
<trkpt lat="46.1074270" lon="10.4541030">
	<ele>1820.80</ele>
	<time>2024-07-25T11:34:02.000Z</time>
</trkpt>
<trkpt lat="46.1074220" lon="10.4540870">
	<ele>1820.60</ele>
	<time>2024-07-25T11:34:03.000Z</time>
</trkpt>
<trkpt lat="46.1074140" lon="10.4540710">
	<ele>1820.20</ele>
	<time>2024-07-25T11:34:04.000Z</time>
</trkpt>
<trkpt lat="46.1074070" lon="10.4540520">
	<ele>1820.00</ele>
	<time>2024-07-25T11:34:05.000Z</time>
</trkpt>
<trkpt lat="46.1074000" lon="10.4540350">
	<ele>1819.80</ele>
	<time>2024-07-25T11:34:06.000Z</time>
</trkpt>
<trkpt lat="46.1073910" lon="10.4540200">
	<ele>1819.60</ele>
	<time>2024-07-25T11:34:07.000Z</time>
</trkpt>
<trkpt lat="46.1073840" lon="10.4540060">
	<ele>1819.40</ele>
	<time>2024-07-25T11:34:08.000Z</time>
</trkpt>
<trkpt lat="46.1073780" lon="10.4539860">
	<ele>1819.40</ele>
	<time>2024-07-25T11:34:09.000Z</time>
</trkpt>
<trkpt lat="46.1073710" lon="10.4539680">
	<ele>1818.80</ele>
	<time>2024-07-25T11:34:10.000Z</time>
</trkpt>
<trkpt lat="46.1073610" lon="10.4539520">
	<ele>1818.60</ele>
	<time>2024-07-25T11:34:11.000Z</time>
</trkpt>
<trkpt lat="46.1073530" lon="10.4539350">
	<ele>1818.40</ele>
	<time>2024-07-25T11:34:12.000Z</time>
</trkpt>
<trkpt lat="46.1073480" lon="10.4539210">
	<ele>1818.20</ele>
	<time>2024-07-25T11:34:13.000Z</time>
</trkpt>
<trkpt lat="46.1073430" lon="10.4539070">
	<ele>1818.00</ele>
	<time>2024-07-25T11:34:14.000Z</time>
</trkpt>
<trkpt lat="46.1073400" lon="10.4538920">
	<ele>1817.80</ele>
	<time>2024-07-25T11:34:15.000Z</time>
</trkpt>
<trkpt lat="46.1073430" lon="10.4538720">
	<ele>1817.60</ele>
	<time>2024-07-25T11:34:16.000Z</time>
</trkpt>
<trkpt lat="46.1073440" lon="10.4538530">
	<ele>1817.40</ele>
	<time>2024-07-25T11:34:17.000Z</time>
</trkpt>
<trkpt lat="46.1073430" lon="10.4538300">
	<ele>1817.20</ele>
	<time>2024-07-25T11:34:18.000Z</time>
</trkpt>
<trkpt lat="46.1073390" lon="10.4538110">
	<ele>1817.00</ele>
	<time>2024-07-25T11:34:19.000Z</time>
</trkpt>
<trkpt lat="46.1073320" lon="10.4537920">
	<ele>1817.00</ele>
	<time>2024-07-25T11:34:20.000Z</time>
</trkpt>
<trkpt lat="46.1073230" lon="10.4537780">
	<ele>1816.80</ele>
	<time>2024-07-25T11:34:21.000Z</time>
</trkpt>
<trkpt lat="46.1073130" lon="10.4537650">
	<ele>1816.60</ele>
	<time>2024-07-25T11:34:22.000Z</time>
</trkpt>
<trkpt lat="46.1073010" lon="10.4537580">
	<ele>1816.40</ele>
	<time>2024-07-25T11:34:23.000Z</time>
</trkpt>
<trkpt lat="46.1072910" lon="10.4537580">
	<ele>1816.40</ele>
	<time>2024-07-25T11:34:24.000Z</time>
</trkpt>
<trkpt lat="46.1072820" lon="10.4537590">
	<ele>1816.20</ele>
	<time>2024-07-25T11:34:25.000Z</time>
</trkpt>
<trkpt lat="46.1072770" lon="10.4537680">
	<ele>1816.20</ele>
	<time>2024-07-25T11:34:26.000Z</time>
</trkpt>
<trkpt lat="46.1072730" lon="10.4537810">
	<ele>1816.20</ele>
	<time>2024-07-25T11:34:27.000Z</time>
</trkpt>
<trkpt lat="46.1072700" lon="10.4537940">
	<ele>1816.20</ele>
	<time>2024-07-25T11:34:28.000Z</time>
</trkpt>
<trkpt lat="46.1072670" lon="10.4538160">
	<ele>1816.00</ele>
	<time>2024-07-25T11:34:29.000Z</time>
</trkpt>
<trkpt lat="46.1072650" lon="10.4538400">
	<ele>1815.80</ele>
	<time>2024-07-25T11:34:30.000Z</time>
</trkpt>
<trkpt lat="46.1072630" lon="10.4538650">
	<ele>1815.60</ele>
	<time>2024-07-25T11:34:31.000Z</time>
</trkpt>
<trkpt lat="46.1072590" lon="10.4538980">
	<ele>1815.40</ele>
	<time>2024-07-25T11:34:32.000Z</time>
</trkpt>
<trkpt lat="46.1072590" lon="10.4539160">
	<ele>1815.40</ele>
	<time>2024-07-25T11:34:33.000Z</time>
</trkpt>
<trkpt lat="46.1072590" lon="10.4539350">
	<ele>1815.20</ele>
	<time>2024-07-25T11:34:34.000Z</time>
</trkpt>
<trkpt lat="46.1072630" lon="10.4539510">
	<ele>1815.00</ele>
	<time>2024-07-25T11:34:35.000Z</time>
</trkpt>
<trkpt lat="46.1072680" lon="10.4539640">
	<ele>1814.80</ele>
	<time>2024-07-25T11:34:36.000Z</time>
</trkpt>
<trkpt lat="46.1072730" lon="10.4539790">
	<ele>1814.60</ele>
	<time>2024-07-25T11:34:37.000Z</time>
</trkpt>
<trkpt lat="46.1072750" lon="10.4539940">
	<ele>1814.40</ele>
	<time>2024-07-25T11:34:38.000Z</time>
</trkpt>
<trkpt lat="46.1072720" lon="10.4540060">
	<ele>1814.20</ele>
	<time>2024-07-25T11:34:39.000Z</time>
</trkpt>
<trkpt lat="46.1072660" lon="10.4540240">
	<ele>1814.00</ele>
	<time>2024-07-25T11:34:40.000Z</time>
</trkpt>
<trkpt lat="46.1072620" lon="10.4540400">
	<ele>1813.80</ele>
	<time>2024-07-25T11:34:41.000Z</time>
</trkpt>
<trkpt lat="46.1072560" lon="10.4540600">
	<ele>1813.80</ele>
	<time>2024-07-25T11:34:42.000Z</time>
</trkpt>
<trkpt lat="46.1072490" lon="10.4540760">
	<ele>1813.60</ele>
	<time>2024-07-25T11:34:43.000Z</time>
</trkpt>
<trkpt lat="46.1072370" lon="10.4540940">
	<ele>1813.40</ele>
	<time>2024-07-25T11:34:44.000Z</time>
</trkpt>
<trkpt lat="46.1072250" lon="10.4541040">
	<ele>1813.40</ele>
	<time>2024-07-25T11:34:45.000Z</time>
</trkpt>
<trkpt lat="46.1072170" lon="10.4541130">
	<ele>1813.40</ele>
	<time>2024-07-25T11:34:46.000Z</time>
</trkpt>
<trkpt lat="46.1072070" lon="10.4541240">
	<ele>1813.20</ele>
	<time>2024-07-25T11:34:47.000Z</time>
</trkpt>
<trkpt lat="46.1071990" lon="10.4541340">
	<ele>1813.20</ele>
	<time>2024-07-25T11:34:48.000Z</time>
</trkpt>
<trkpt lat="46.1071890" lon="10.4541470">
	<ele>1813.00</ele>
	<time>2024-07-25T11:34:49.000Z</time>
</trkpt>
<trkpt lat="46.1071740" lon="10.4541550">
	<ele>1812.80</ele>
	<time>2024-07-25T11:34:50.000Z</time>
</trkpt>
<trkpt lat="46.1071630" lon="10.4541670">
	<ele>1812.60</ele>
	<time>2024-07-25T11:34:51.000Z</time>
</trkpt>
<trkpt lat="46.1071510" lon="10.4541790">
	<ele>1812.40</ele>
	<time>2024-07-25T11:34:52.000Z</time>
</trkpt>
<trkpt lat="46.1071380" lon="10.4541860">
	<ele>1812.20</ele>
	<time>2024-07-25T11:34:53.000Z</time>
</trkpt>
<trkpt lat="46.1071250" lon="10.4541920">
	<ele>1812.20</ele>
	<time>2024-07-25T11:34:54.000Z</time>
</trkpt>
<trkpt lat="46.1071120" lon="10.4541900">
	<ele>1812.00</ele>
	<time>2024-07-25T11:34:55.000Z</time>
</trkpt>
<trkpt lat="46.1071010" lon="10.4541830">
	<ele>1812.00</ele>
	<time>2024-07-25T11:34:56.000Z</time>
</trkpt>
<trkpt lat="46.1070900" lon="10.4541750">
	<ele>1811.80</ele>
	<time>2024-07-25T11:34:57.000Z</time>
</trkpt>
<trkpt lat="46.1070820" lon="10.4541640">
	<ele>1811.60</ele>
	<time>2024-07-25T11:34:58.000Z</time>
</trkpt>
<trkpt lat="46.1070740" lon="10.4541460">
	<ele>1811.40</ele>
	<time>2024-07-25T11:34:59.000Z</time>
</trkpt>
<trkpt lat="46.1070660" lon="10.4541270">
	<ele>1811.20</ele>
	<time>2024-07-25T11:35:00.000Z</time>
</trkpt>
<trkpt lat="46.1070590" lon="10.4541090">
	<ele>1810.80</ele>
	<time>2024-07-25T11:35:01.000Z</time>
</trkpt>
<trkpt lat="46.1070530" lon="10.4540910">
	<ele>1810.60</ele>
	<time>2024-07-25T11:35:02.000Z</time>
</trkpt>
<trkpt lat="46.1070490" lon="10.4540720">
	<ele>1810.40</ele>
	<time>2024-07-25T11:35:03.000Z</time>
</trkpt>
<trkpt lat="46.1070470" lon="10.4540560">
	<ele>1810.00</ele>
	<time>2024-07-25T11:35:04.000Z</time>
</trkpt>
<trkpt lat="46.1070430" lon="10.4540380">
	<ele>1810.00</ele>
	<time>2024-07-25T11:35:05.000Z</time>
</trkpt>
<trkpt lat="46.1070390" lon="10.4540260">
	<ele>1809.80</ele>
	<time>2024-07-25T11:35:06.000Z</time>
</trkpt>
<trkpt lat="46.1070330" lon="10.4540060">
	<ele>1809.60</ele>
	<time>2024-07-25T11:35:07.000Z</time>
</trkpt>
<trkpt lat="46.1070280" lon="10.4539890">
	<ele>1809.60</ele>
	<time>2024-07-25T11:35:08.000Z</time>
</trkpt>
<trkpt lat="46.1070230" lon="10.4539710">
	<ele>1809.40</ele>
	<time>2024-07-25T11:35:09.000Z</time>
</trkpt>
<trkpt lat="46.1070160" lon="10.4539520">
	<ele>1809.40</ele>
	<time>2024-07-25T11:35:10.000Z</time>
</trkpt>
<trkpt lat="46.1070110" lon="10.4539410">
	<ele>1809.20</ele>
	<time>2024-07-25T11:35:11.000Z</time>
</trkpt>
<trkpt lat="46.1070050" lon="10.4539270">
	<ele>1809.20</ele>
	<time>2024-07-25T11:35:12.000Z</time>
</trkpt>
<trkpt lat="46.1069950" lon="10.4539100">
	<ele>1809.00</ele>
	<time>2024-07-25T11:35:13.000Z</time>
</trkpt>
<trkpt lat="46.1069890" lon="10.4538990">
	<ele>1808.60</ele>
	<time>2024-07-25T11:35:14.000Z</time>
</trkpt>
<trkpt lat="46.1069800" lon="10.4538830">
	<ele>1808.20</ele>
	<time>2024-07-25T11:35:15.000Z</time>
</trkpt>
<trkpt lat="46.1069740" lon="10.4538680">
	<ele>1808.20</ele>
	<time>2024-07-25T11:35:16.000Z</time>
</trkpt>
<trkpt lat="46.1069710" lon="10.4538470">
	<ele>1808.00</ele>
	<time>2024-07-25T11:35:17.000Z</time>
</trkpt>
<trkpt lat="46.1069670" lon="10.4538280">
	<ele>1807.60</ele>
	<time>2024-07-25T11:35:18.000Z</time>
</trkpt>
<trkpt lat="46.1069600" lon="10.4538120">
	<ele>1807.60</ele>
	<time>2024-07-25T11:35:19.000Z</time>
</trkpt>
<trkpt lat="46.1069570" lon="10.4537970">
	<ele>1807.40</ele>
	<time>2024-07-25T11:35:20.000Z</time>
</trkpt>
<trkpt lat="46.1069550" lon="10.4537830">
	<ele>1807.20</ele>
	<time>2024-07-25T11:35:21.000Z</time>
</trkpt>
<trkpt lat="46.1069520" lon="10.4537660">
	<ele>1807.00</ele>
	<time>2024-07-25T11:35:22.000Z</time>
</trkpt>
<trkpt lat="46.1069450" lon="10.4537550">
	<ele>1807.00</ele>
	<time>2024-07-25T11:35:23.000Z</time>
</trkpt>
<trkpt lat="46.1069380" lon="10.4537410">
	<ele>1806.80</ele>
	<time>2024-07-25T11:35:24.000Z</time>
</trkpt>
<trkpt lat="46.1069310" lon="10.4537230">
	<ele>1806.80</ele>
	<time>2024-07-25T11:35:25.000Z</time>
</trkpt>
<trkpt lat="46.1069240" lon="10.4537030">
	<ele>1806.60</ele>
	<time>2024-07-25T11:35:26.000Z</time>
</trkpt>
<trkpt lat="46.1069170" lon="10.4536870">
	<ele>1806.40</ele>
	<time>2024-07-25T11:35:27.000Z</time>
</trkpt>
<trkpt lat="46.1069110" lon="10.4536730">
	<ele>1806.20</ele>
	<time>2024-07-25T11:35:28.000Z</time>
</trkpt>
<trkpt lat="46.1069080" lon="10.4536600">
	<ele>1806.00</ele>
	<time>2024-07-25T11:35:29.000Z</time>
</trkpt>
<trkpt lat="46.1069030" lon="10.4536450">
	<ele>1806.00</ele>
	<time>2024-07-25T11:35:30.000Z</time>
</trkpt>
<trkpt lat="46.1068980" lon="10.4536320">
	<ele>1805.80</ele>
	<time>2024-07-25T11:35:31.000Z</time>
</trkpt>
<trkpt lat="46.1068920" lon="10.4536170">
	<ele>1805.60</ele>
	<time>2024-07-25T11:35:32.000Z</time>
</trkpt>
<trkpt lat="46.1068860" lon="10.4536010">
	<ele>1805.60</ele>
	<time>2024-07-25T11:35:33.000Z</time>
</trkpt>
<trkpt lat="46.1068810" lon="10.4535830">
	<ele>1805.40</ele>
	<time>2024-07-25T11:35:34.000Z</time>
</trkpt>
<trkpt lat="46.1068730" lon="10.4535660">
	<ele>1805.40</ele>
	<time>2024-07-25T11:35:35.000Z</time>
</trkpt>
<trkpt lat="46.1068660" lon="10.4535490">
	<ele>1805.20</ele>
	<time>2024-07-25T11:35:36.000Z</time>
</trkpt>
<trkpt lat="46.1068600" lon="10.4535330">
	<ele>1805.00</ele>
	<time>2024-07-25T11:35:37.000Z</time>
</trkpt>
<trkpt lat="46.1068560" lon="10.4535200">
	<ele>1805.00</ele>
	<time>2024-07-25T11:35:38.000Z</time>
</trkpt>
<trkpt lat="46.1068490" lon="10.4535040">
	<ele>1804.80</ele>
	<time>2024-07-25T11:35:39.000Z</time>
</trkpt>
<trkpt lat="46.1068400" lon="10.4534920">
	<ele>1804.60</ele>
	<time>2024-07-25T11:35:40.000Z</time>
</trkpt>
<trkpt lat="46.1068320" lon="10.4534810">
	<ele>1804.40</ele>
	<time>2024-07-25T11:35:41.000Z</time>
</trkpt>
<trkpt lat="46.1068260" lon="10.4534750">
	<ele>1804.20</ele>
	<time>2024-07-25T11:35:42.000Z</time>
</trkpt>
<trkpt lat="46.1068170" lon="10.4534680">
	<ele>1804.00</ele>
	<time>2024-07-25T11:35:43.000Z</time>
</trkpt>
<trkpt lat="46.1068040" lon="10.4534600">
	<ele>1804.00</ele>
	<time>2024-07-25T11:35:44.000Z</time>
</trkpt>
<trkpt lat="46.1067900" lon="10.4534530">
	<ele>1803.60</ele>
	<time>2024-07-25T11:35:45.000Z</time>
</trkpt>
<trkpt lat="46.1067780" lon="10.4534440">
	<ele>1803.60</ele>
	<time>2024-07-25T11:35:46.000Z</time>
</trkpt>
<trkpt lat="46.1067700" lon="10.4534330">
	<ele>1803.40</ele>
	<time>2024-07-25T11:35:47.000Z</time>
</trkpt>
<trkpt lat="46.1067600" lon="10.4534190">
	<ele>1803.20</ele>
	<time>2024-07-25T11:35:48.000Z</time>
</trkpt>
<trkpt lat="46.1067500" lon="10.4534050">
	<ele>1803.00</ele>
	<time>2024-07-25T11:35:49.000Z</time>
</trkpt>
<trkpt lat="46.1067400" lon="10.4533960">
	<ele>1802.80</ele>
	<time>2024-07-25T11:35:50.000Z</time>
</trkpt>
<trkpt lat="46.1067290" lon="10.4533860">
	<ele>1802.60</ele>
	<time>2024-07-25T11:35:51.000Z</time>
</trkpt>
<trkpt lat="46.1067220" lon="10.4533730">
	<ele>1802.20</ele>
	<time>2024-07-25T11:35:52.000Z</time>
</trkpt>
<trkpt lat="46.1067190" lon="10.4533590">
	<ele>1802.20</ele>
	<time>2024-07-25T11:35:53.000Z</time>
</trkpt>
<trkpt lat="46.1067120" lon="10.4533450">
	<ele>1801.80</ele>
	<time>2024-07-25T11:35:54.000Z</time>
</trkpt>
<trkpt lat="46.1067050" lon="10.4533340">
	<ele>1801.60</ele>
	<time>2024-07-25T11:35:55.000Z</time>
</trkpt>
<trkpt lat="46.1066970" lon="10.4533280">
	<ele>1801.40</ele>
	<time>2024-07-25T11:35:56.000Z</time>
</trkpt>
<trkpt lat="46.1066890" lon="10.4533210">
	<ele>1801.20</ele>
	<time>2024-07-25T11:35:57.000Z</time>
</trkpt>
<trkpt lat="46.1066810" lon="10.4533090">
	<ele>1801.20</ele>
	<time>2024-07-25T11:35:58.000Z</time>
</trkpt>
<trkpt lat="46.1066730" lon="10.4533040">
	<ele>1801.00</ele>
	<time>2024-07-25T11:35:59.000Z</time>
</trkpt>
<trkpt lat="46.1066650" lon="10.4532980">
	<ele>1800.80</ele>
	<time>2024-07-25T11:36:00.000Z</time>
</trkpt>
<trkpt lat="46.1066600" lon="10.4532900">
	<ele>1800.40</ele>
	<time>2024-07-25T11:36:01.000Z</time>
</trkpt>
<trkpt lat="46.1066580" lon="10.4532840">
	<ele>1800.20</ele>
	<time>2024-07-25T11:36:02.000Z</time>
</trkpt>
<trkpt lat="46.1066530" lon="10.4532770">
	<ele>1800.00</ele>
	<time>2024-07-25T11:36:03.000Z</time>
</trkpt>
<trkpt lat="46.1066420" lon="10.4532690">
	<ele>1799.80</ele>
	<time>2024-07-25T11:36:04.000Z</time>
</trkpt>
<trkpt lat="46.1066330" lon="10.4532610">
	<ele>1799.60</ele>
	<time>2024-07-25T11:36:05.000Z</time>
</trkpt>
<trkpt lat="46.1066220" lon="10.4532530">
	<ele>1799.40</ele>
	<time>2024-07-25T11:36:06.000Z</time>
</trkpt>
<trkpt lat="46.1066130" lon="10.4532370">
	<ele>1799.20</ele>
	<time>2024-07-25T11:36:07.000Z</time>
</trkpt>
<trkpt lat="46.1066120" lon="10.4532240">
	<ele>1799.00</ele>
	<time>2024-07-25T11:36:08.000Z</time>
</trkpt>
<trkpt lat="46.1066050" lon="10.4532110">
	<ele>1798.80</ele>
	<time>2024-07-25T11:36:09.000Z</time>
</trkpt>
<trkpt lat="46.1065980" lon="10.4532020">
	<ele>1798.60</ele>
	<time>2024-07-25T11:36:10.000Z</time>
</trkpt>
<trkpt lat="46.1065910" lon="10.4531920">
	<ele>1798.40</ele>
	<time>2024-07-25T11:36:11.000Z</time>
</trkpt>
<trkpt lat="46.1065830" lon="10.4531790">
	<ele>1798.20</ele>
	<time>2024-07-25T11:36:12.000Z</time>
</trkpt>
<trkpt lat="46.1065790" lon="10.4531650">
	<ele>1798.00</ele>
	<time>2024-07-25T11:36:13.000Z</time>
</trkpt>
<trkpt lat="46.1065770" lon="10.4531490">
	<ele>1797.80</ele>
	<time>2024-07-25T11:36:14.000Z</time>
</trkpt>
<trkpt lat="46.1065740" lon="10.4531330">
	<ele>1797.60</ele>
	<time>2024-07-25T11:36:15.000Z</time>
</trkpt>
<trkpt lat="46.1065670" lon="10.4531240">
	<ele>1797.60</ele>
	<time>2024-07-25T11:36:16.000Z</time>
</trkpt>
<trkpt lat="46.1065520" lon="10.4531220">
	<ele>1797.40</ele>
	<time>2024-07-25T11:36:17.000Z</time>
</trkpt>
<trkpt lat="46.1065360" lon="10.4531280">
	<ele>1797.40</ele>
	<time>2024-07-25T11:36:18.000Z</time>
</trkpt>
<trkpt lat="46.1065200" lon="10.4531410">
	<ele>1797.40</ele>
	<time>2024-07-25T11:36:19.000Z</time>
</trkpt>
<trkpt lat="46.1065100" lon="10.4531580">
	<ele>1797.20</ele>
	<time>2024-07-25T11:36:20.000Z</time>
</trkpt>
<trkpt lat="46.1065060" lon="10.4531720">
	<ele>1797.20</ele>
	<time>2024-07-25T11:36:21.000Z</time>
</trkpt>
<trkpt lat="46.1065030" lon="10.4531850">
	<ele>1797.20</ele>
	<time>2024-07-25T11:36:22.000Z</time>
</trkpt>
<trkpt lat="46.1065020" lon="10.4531970">
	<ele>1797.00</ele>
	<time>2024-07-25T11:36:23.000Z</time>
</trkpt>
<trkpt lat="46.1065020" lon="10.4532090">
	<ele>1796.80</ele>
	<time>2024-07-25T11:36:24.000Z</time>
</trkpt>
<trkpt lat="46.1065040" lon="10.4532230">
	<ele>1796.60</ele>
	<time>2024-07-25T11:36:25.000Z</time>
</trkpt>
<trkpt lat="46.1065070" lon="10.4532360">
	<ele>1796.40</ele>
	<time>2024-07-25T11:36:26.000Z</time>
</trkpt>
<trkpt lat="46.1065070" lon="10.4532500">
	<ele>1796.20</ele>
	<time>2024-07-25T11:36:27.000Z</time>
</trkpt>
<trkpt lat="46.1065080" lon="10.4532690">
	<ele>1796.00</ele>
	<time>2024-07-25T11:36:28.000Z</time>
</trkpt>
<trkpt lat="46.1065120" lon="10.4532830">
	<ele>1796.00</ele>
	<time>2024-07-25T11:36:29.000Z</time>
</trkpt>
<trkpt lat="46.1065140" lon="10.4533020">
	<ele>1795.80</ele>
	<time>2024-07-25T11:36:30.000Z</time>
</trkpt>
<trkpt lat="46.1065160" lon="10.4533140">
	<ele>1795.80</ele>
	<time>2024-07-25T11:36:31.000Z</time>
</trkpt>
<trkpt lat="46.1065200" lon="10.4533240">
	<ele>1795.60</ele>
	<time>2024-07-25T11:36:32.000Z</time>
</trkpt>
<trkpt lat="46.1065210" lon="10.4533360">
	<ele>1795.40</ele>
	<time>2024-07-25T11:36:33.000Z</time>
</trkpt>
<trkpt lat="46.1065250" lon="10.4533530">
	<ele>1795.20</ele>
	<time>2024-07-25T11:36:34.000Z</time>
</trkpt>
<trkpt lat="46.1065270" lon="10.4533690">
	<ele>1794.80</ele>
	<time>2024-07-25T11:36:35.000Z</time>
</trkpt>
<trkpt lat="46.1065270" lon="10.4533850">
	<ele>1794.40</ele>
	<time>2024-07-25T11:36:36.000Z</time>
</trkpt>
<trkpt lat="46.1065260" lon="10.4534040">
	<ele>1794.20</ele>
	<time>2024-07-25T11:36:37.000Z</time>
</trkpt>
<trkpt lat="46.1065210" lon="10.4534210">
	<ele>1794.20</ele>
	<time>2024-07-25T11:36:38.000Z</time>
</trkpt>
<trkpt lat="46.1065170" lon="10.4534330">
	<ele>1794.20</ele>
	<time>2024-07-25T11:36:39.000Z</time>
</trkpt>
<trkpt lat="46.1065110" lon="10.4534380">
	<ele>1794.00</ele>
	<time>2024-07-25T11:36:40.000Z</time>
</trkpt>
<trkpt lat="46.1065010" lon="10.4534370">
	<ele>1794.00</ele>
	<time>2024-07-25T11:36:41.000Z</time>
</trkpt>
<trkpt lat="46.1064910" lon="10.4534390">
	<ele>1793.80</ele>
	<time>2024-07-25T11:36:42.000Z</time>
</trkpt>
<trkpt lat="46.1064810" lon="10.4534350">
	<ele>1793.80</ele>
	<time>2024-07-25T11:36:43.000Z</time>
</trkpt>
<trkpt lat="46.1064670" lon="10.4534360">
	<ele>1793.60</ele>
	<time>2024-07-25T11:36:44.000Z</time>
</trkpt>
<trkpt lat="46.1064520" lon="10.4534330">
	<ele>1793.20</ele>
	<time>2024-07-25T11:36:45.000Z</time>
</trkpt>
<trkpt lat="46.1064350" lon="10.4534290">
	<ele>1793.20</ele>
	<time>2024-07-25T11:36:46.000Z</time>
</trkpt>
<trkpt lat="46.1064230" lon="10.4534240">
	<ele>1792.80</ele>
	<time>2024-07-25T11:36:47.000Z</time>
</trkpt>
<trkpt lat="46.1064090" lon="10.4534160">
	<ele>1792.60</ele>
	<time>2024-07-25T11:36:48.000Z</time>
</trkpt>
<trkpt lat="46.1063970" lon="10.4534060">
	<ele>1792.40</ele>
	<time>2024-07-25T11:36:49.000Z</time>
</trkpt>
<trkpt lat="46.1063850" lon="10.4533970">
	<ele>1792.20</ele>
	<time>2024-07-25T11:36:50.000Z</time>
</trkpt>
<trkpt lat="46.1063730" lon="10.4534000">
	<ele>1792.00</ele>
	<time>2024-07-25T11:36:51.000Z</time>
</trkpt>
<trkpt lat="46.1063610" lon="10.4534020">
	<ele>1791.80</ele>
	<time>2024-07-25T11:36:52.000Z</time>
</trkpt>
<trkpt lat="46.1063460" lon="10.4534020">
	<ele>1791.40</ele>
	<time>2024-07-25T11:36:53.000Z</time>
</trkpt>
<trkpt lat="46.1063300" lon="10.4533960">
	<ele>1791.20</ele>
	<time>2024-07-25T11:36:54.000Z</time>
</trkpt>
<trkpt lat="46.1063190" lon="10.4533930">
	<ele>1791.00</ele>
	<time>2024-07-25T11:36:55.000Z</time>
</trkpt>
<trkpt lat="46.1063090" lon="10.4533930">
	<ele>1790.80</ele>
	<time>2024-07-25T11:36:56.000Z</time>
</trkpt>
<trkpt lat="46.1063000" lon="10.4533910">
	<ele>1790.40</ele>
	<time>2024-07-25T11:36:57.000Z</time>
</trkpt>
<trkpt lat="46.1062900" lon="10.4533830">
	<ele>1790.20</ele>
	<time>2024-07-25T11:36:58.000Z</time>
</trkpt>
<trkpt lat="46.1062810" lon="10.4533780">
	<ele>1790.00</ele>
	<time>2024-07-25T11:36:59.000Z</time>
</trkpt>
<trkpt lat="46.1062690" lon="10.4533740">
	<ele>1789.80</ele>
	<time>2024-07-25T11:37:00.000Z</time>
</trkpt>
<trkpt lat="46.1062590" lon="10.4533760">
	<ele>1789.60</ele>
	<time>2024-07-25T11:37:01.000Z</time>
</trkpt>
<trkpt lat="46.1062550" lon="10.4533770">
	<ele>1789.40</ele>
	<time>2024-07-25T11:37:02.000Z</time>
</trkpt>
<trkpt lat="46.1062500" lon="10.4533750">
	<ele>1789.20</ele>
	<time>2024-07-25T11:37:03.000Z</time>
</trkpt>
<trkpt lat="46.1062470" lon="10.4533720">
	<ele>1789.00</ele>
	<time>2024-07-25T11:37:04.000Z</time>
</trkpt>
<trkpt lat="46.1062470" lon="10.4533700">
	<ele>1788.80</ele>
	<time>2024-07-25T11:37:05.000Z</time>
</trkpt>
<trkpt lat="46.1062510" lon="10.4533830">
	<ele>1788.80</ele>
	<time>2024-07-25T11:37:06.000Z</time>
</trkpt>
<trkpt lat="46.1062520" lon="10.4533820">
	<ele>1788.80</ele>
	<time>2024-07-25T11:37:07.000Z</time>
</trkpt>
<trkpt lat="46.1062530" lon="10.4533820">
	<ele>1788.60</ele>
	<time>2024-07-25T11:37:08.000Z</time>
</trkpt>
<trkpt lat="46.1062680" lon="10.4533970">
	<ele>1788.60</ele>
	<time>2024-07-25T11:37:09.000Z</time>
</trkpt>
<trkpt lat="46.1062650" lon="10.4533980">
	<ele>1788.60</ele>
	<time>2024-07-25T11:37:10.000Z</time>
</trkpt>
<trkpt lat="46.1062600" lon="10.4533990">
	<ele>1788.80</ele>
	<time>2024-07-25T11:37:11.000Z</time>
</trkpt>
<trkpt lat="46.1062500" lon="10.4534000">
	<ele>1788.60</ele>
	<time>2024-07-25T11:37:12.000Z</time>
</trkpt>
<trkpt lat="46.1062400" lon="10.4534030">
	<ele>1788.40</ele>
	<time>2024-07-25T11:37:13.000Z</time>
</trkpt>
<trkpt lat="46.1062250" lon="10.4534040">
	<ele>1788.40</ele>
	<time>2024-07-25T11:37:14.000Z</time>
</trkpt>
<trkpt lat="46.1062030" lon="10.4533980">
	<ele>1788.20</ele>
	<time>2024-07-25T11:37:15.000Z</time>
</trkpt>
<trkpt lat="46.1061860" lon="10.4533920">
	<ele>1788.20</ele>
	<time>2024-07-25T11:37:16.000Z</time>
</trkpt>
<trkpt lat="46.1061710" lon="10.4533950">
	<ele>1788.00</ele>
	<time>2024-07-25T11:37:17.000Z</time>
</trkpt>
<trkpt lat="46.1061570" lon="10.4533980">
	<ele>1788.00</ele>
	<time>2024-07-25T11:37:18.000Z</time>
</trkpt>
<trkpt lat="46.1061410" lon="10.4534090">
	<ele>1788.00</ele>
	<time>2024-07-25T11:37:19.000Z</time>
</trkpt>
<trkpt lat="46.1061310" lon="10.4534200">
	<ele>1787.60</ele>
	<time>2024-07-25T11:37:20.000Z</time>
</trkpt>
<trkpt lat="46.1061230" lon="10.4534300">
	<ele>1787.20</ele>
	<time>2024-07-25T11:37:21.000Z</time>
</trkpt>
<trkpt lat="46.1061160" lon="10.4534400">
	<ele>1787.20</ele>
	<time>2024-07-25T11:37:22.000Z</time>
</trkpt>
<trkpt lat="46.1061090" lon="10.4534560">
	<ele>1787.00</ele>
	<time>2024-07-25T11:37:23.000Z</time>
</trkpt>
<trkpt lat="46.1060980" lon="10.4534660">
	<ele>1786.80</ele>
	<time>2024-07-25T11:37:24.000Z</time>
</trkpt>
<trkpt lat="46.1060900" lon="10.4534760">
	<ele>1786.40</ele>
	<time>2024-07-25T11:37:25.000Z</time>
</trkpt>
<trkpt lat="46.1060820" lon="10.4534840">
	<ele>1786.20</ele>
	<time>2024-07-25T11:37:26.000Z</time>
</trkpt>
<trkpt lat="46.1060700" lon="10.4534860">
	<ele>1786.00</ele>
	<time>2024-07-25T11:37:27.000Z</time>
</trkpt>
<trkpt lat="46.1060560" lon="10.4534840">
	<ele>1785.80</ele>
	<time>2024-07-25T11:37:28.000Z</time>
</trkpt>
<trkpt lat="46.1060440" lon="10.4534900">
	<ele>1785.60</ele>
	<time>2024-07-25T11:37:29.000Z</time>
</trkpt>
<trkpt lat="46.1060330" lon="10.4534920">
	<ele>1785.40</ele>
	<time>2024-07-25T11:37:30.000Z</time>
</trkpt>
<trkpt lat="46.1060200" lon="10.4534900">
	<ele>1785.20</ele>
	<time>2024-07-25T11:37:31.000Z</time>
</trkpt>
<trkpt lat="46.1060060" lon="10.4534890">
	<ele>1784.60</ele>
	<time>2024-07-25T11:37:32.000Z</time>
</trkpt>
<trkpt lat="46.1059920" lon="10.4534960">
	<ele>1784.20</ele>
	<time>2024-07-25T11:37:33.000Z</time>
</trkpt>
<trkpt lat="46.1059810" lon="10.4535030">
	<ele>1783.80</ele>
	<time>2024-07-25T11:37:34.000Z</time>
</trkpt>
<trkpt lat="46.1059710" lon="10.4535130">
	<ele>1783.40</ele>
	<time>2024-07-25T11:37:35.000Z</time>
</trkpt>
<trkpt lat="46.1059610" lon="10.4535220">
	<ele>1783.00</ele>
	<time>2024-07-25T11:37:36.000Z</time>
</trkpt>
<trkpt lat="46.1059510" lon="10.4535290">
	<ele>1782.80</ele>
	<time>2024-07-25T11:37:37.000Z</time>
</trkpt>
<trkpt lat="46.1059420" lon="10.4535350">
	<ele>1782.60</ele>
	<time>2024-07-25T11:37:38.000Z</time>
</trkpt>
<trkpt lat="46.1059320" lon="10.4535370">
	<ele>1782.20</ele>
	<time>2024-07-25T11:37:39.000Z</time>
</trkpt>
<trkpt lat="46.1059220" lon="10.4535400">
	<ele>1782.00</ele>
	<time>2024-07-25T11:37:40.000Z</time>
</trkpt>
<trkpt lat="46.1059120" lon="10.4535470">
	<ele>1781.60</ele>
	<time>2024-07-25T11:37:41.000Z</time>
</trkpt>
<trkpt lat="46.1059020" lon="10.4535530">
	<ele>1781.40</ele>
	<time>2024-07-25T11:37:42.000Z</time>
</trkpt>
<trkpt lat="46.1058920" lon="10.4535530">
	<ele>1781.00</ele>
	<time>2024-07-25T11:37:43.000Z</time>
</trkpt>
<trkpt lat="46.1058810" lon="10.4535470">
	<ele>1780.80</ele>
	<time>2024-07-25T11:37:44.000Z</time>
</trkpt>
<trkpt lat="46.1058740" lon="10.4535420">
	<ele>1780.60</ele>
	<time>2024-07-25T11:37:45.000Z</time>
</trkpt>
<trkpt lat="46.1058680" lon="10.4535350">
	<ele>1780.40</ele>
	<time>2024-07-25T11:37:46.000Z</time>
</trkpt>
<trkpt lat="46.1058580" lon="10.4535220">
	<ele>1780.40</ele>
	<time>2024-07-25T11:37:47.000Z</time>
</trkpt>
<trkpt lat="46.1058440" lon="10.4535090">
	<ele>1780.00</ele>
	<time>2024-07-25T11:37:48.000Z</time>
</trkpt>
<trkpt lat="46.1058330" lon="10.4534970">
	<ele>1780.00</ele>
	<time>2024-07-25T11:37:49.000Z</time>
</trkpt>
<trkpt lat="46.1058250" lon="10.4534820">
	<ele>1779.80</ele>
	<time>2024-07-25T11:37:50.000Z</time>
</trkpt>
<trkpt lat="46.1058180" lon="10.4534690">
	<ele>1779.80</ele>
	<time>2024-07-25T11:37:51.000Z</time>
</trkpt>
<trkpt lat="46.1058110" lon="10.4534560">
	<ele>1779.60</ele>
	<time>2024-07-25T11:37:52.000Z</time>
</trkpt>
<trkpt lat="46.1058070" lon="10.4534390">
	<ele>1779.20</ele>
	<time>2024-07-25T11:37:53.000Z</time>
</trkpt>
<trkpt lat="46.1058030" lon="10.4534200">
	<ele>1778.80</ele>
	<time>2024-07-25T11:37:54.000Z</time>
</trkpt>
<trkpt lat="46.1058010" lon="10.4534050">
	<ele>1778.60</ele>
	<time>2024-07-25T11:37:55.000Z</time>
</trkpt>
<trkpt lat="46.1057950" lon="10.4533850">
	<ele>1778.20</ele>
	<time>2024-07-25T11:37:56.000Z</time>
</trkpt>
<trkpt lat="46.1057890" lon="10.4533680">
	<ele>1778.00</ele>
	<time>2024-07-25T11:37:57.000Z</time>
</trkpt>
<trkpt lat="46.1057810" lon="10.4533530">
	<ele>1777.80</ele>
	<time>2024-07-25T11:37:58.000Z</time>
</trkpt>
<trkpt lat="46.1057720" lon="10.4533370">
	<ele>1777.60</ele>
	<time>2024-07-25T11:37:59.000Z</time>
</trkpt>
<trkpt lat="46.1057620" lon="10.4533190">
	<ele>1777.40</ele>
	<time>2024-07-25T11:38:00.000Z</time>
</trkpt>
<trkpt lat="46.1057580" lon="10.4533000">
	<ele>1777.40</ele>
	<time>2024-07-25T11:38:01.000Z</time>
</trkpt>
<trkpt lat="46.1057560" lon="10.4532800">
	<ele>1777.00</ele>
	<time>2024-07-25T11:38:02.000Z</time>
</trkpt>
<trkpt lat="46.1057580" lon="10.4532630">
	<ele>1776.80</ele>
	<time>2024-07-25T11:38:03.000Z</time>
</trkpt>
<trkpt lat="46.1057560" lon="10.4532490">
	<ele>1776.40</ele>
	<time>2024-07-25T11:38:04.000Z</time>
</trkpt>
<trkpt lat="46.1057520" lon="10.4532370">
	<ele>1776.00</ele>
	<time>2024-07-25T11:38:05.000Z</time>
</trkpt>
<trkpt lat="46.1057440" lon="10.4532250">
	<ele>1775.60</ele>
	<time>2024-07-25T11:38:06.000Z</time>
</trkpt>
<trkpt lat="46.1057360" lon="10.4532150">
	<ele>1775.20</ele>
	<time>2024-07-25T11:38:07.000Z</time>
</trkpt>
<trkpt lat="46.1057310" lon="10.4532070">
	<ele>1775.00</ele>
	<time>2024-07-25T11:38:08.000Z</time>
</trkpt>
<trkpt lat="46.1057240" lon="10.4531980">
	<ele>1775.00</ele>
	<time>2024-07-25T11:38:09.000Z</time>
</trkpt>
<trkpt lat="46.1057180" lon="10.4531810">
	<ele>1774.40</ele>
	<time>2024-07-25T11:38:10.000Z</time>
</trkpt>
<trkpt lat="46.1057110" lon="10.4531620">
	<ele>1774.20</ele>
	<time>2024-07-25T11:38:11.000Z</time>
</trkpt>
<trkpt lat="46.1057040" lon="10.4531480">
	<ele>1774.20</ele>
	<time>2024-07-25T11:38:12.000Z</time>
</trkpt>
<trkpt lat="46.1056940" lon="10.4531390">
	<ele>1773.80</ele>
	<time>2024-07-25T11:38:13.000Z</time>
</trkpt>
<trkpt lat="46.1056900" lon="10.4531240">
	<ele>1773.60</ele>
	<time>2024-07-25T11:38:14.000Z</time>
</trkpt>
<trkpt lat="46.1056850" lon="10.4531150">
	<ele>1773.40</ele>
	<time>2024-07-25T11:38:15.000Z</time>
</trkpt>
<trkpt lat="46.1056830" lon="10.4531020">
	<ele>1773.00</ele>
	<time>2024-07-25T11:38:16.000Z</time>
</trkpt>
<trkpt lat="46.1056830" lon="10.4530860">
	<ele>1772.80</ele>
	<time>2024-07-25T11:38:17.000Z</time>
</trkpt>
<trkpt lat="46.1056780" lon="10.4530720">
	<ele>1772.60</ele>
	<time>2024-07-25T11:38:18.000Z</time>
</trkpt>
<trkpt lat="46.1056750" lon="10.4530580">
	<ele>1772.60</ele>
	<time>2024-07-25T11:38:19.000Z</time>
</trkpt>
<trkpt lat="46.1056700" lon="10.4530440">
	<ele>1772.20</ele>
	<time>2024-07-25T11:38:20.000Z</time>
</trkpt>
<trkpt lat="46.1056720" lon="10.4530350">
	<ele>1772.00</ele>
	<time>2024-07-25T11:38:21.000Z</time>
</trkpt>
<trkpt lat="46.1056730" lon="10.4530260">
	<ele>1771.80</ele>
	<time>2024-07-25T11:38:22.000Z</time>
</trkpt>
<trkpt lat="46.1056720" lon="10.4530110">
	<ele>1771.80</ele>
	<time>2024-07-25T11:38:23.000Z</time>
</trkpt>
<trkpt lat="46.1056690" lon="10.4529950">
	<ele>1771.60</ele>
	<time>2024-07-25T11:38:24.000Z</time>
</trkpt>
<trkpt lat="46.1056660" lon="10.4529790">
	<ele>1771.40</ele>
	<time>2024-07-25T11:38:25.000Z</time>
</trkpt>
<trkpt lat="46.1056600" lon="10.4529630">
	<ele>1771.00</ele>
	<time>2024-07-25T11:38:26.000Z</time>
</trkpt>
<trkpt lat="46.1056560" lon="10.4529490">
	<ele>1770.60</ele>
	<time>2024-07-25T11:38:27.000Z</time>
</trkpt>
<trkpt lat="46.1056520" lon="10.4529360">
	<ele>1770.40</ele>
	<time>2024-07-25T11:38:28.000Z</time>
</trkpt>
<trkpt lat="46.1056540" lon="10.4529230">
	<ele>1770.20</ele>
	<time>2024-07-25T11:38:29.000Z</time>
</trkpt>
<trkpt lat="46.1056560" lon="10.4529140">
	<ele>1770.00</ele>
	<time>2024-07-25T11:38:30.000Z</time>
</trkpt>
<trkpt lat="46.1056570" lon="10.4529070">
	<ele>1769.60</ele>
	<time>2024-07-25T11:38:31.000Z</time>
</trkpt>
<trkpt lat="46.1056570" lon="10.4529030">
	<ele>1769.40</ele>
	<time>2024-07-25T11:38:32.000Z</time>
</trkpt>
<trkpt lat="46.1056540" lon="10.4528920">
	<ele>1769.20</ele>
	<time>2024-07-25T11:38:33.000Z</time>
</trkpt>
<trkpt lat="46.1056450" lon="10.4528690">
	<ele>1769.00</ele>
	<time>2024-07-25T11:38:34.000Z</time>
</trkpt>
<trkpt lat="46.1056410" lon="10.4528520">
	<ele>1768.80</ele>
	<time>2024-07-25T11:38:35.000Z</time>
</trkpt>
<trkpt lat="46.1056360" lon="10.4528380">
	<ele>1768.60</ele>
	<time>2024-07-25T11:38:36.000Z</time>
</trkpt>
<trkpt lat="46.1056330" lon="10.4528240">
	<ele>1768.20</ele>
	<time>2024-07-25T11:38:37.000Z</time>
</trkpt>
<trkpt lat="46.1056250" lon="10.4528090">
	<ele>1768.00</ele>
	<time>2024-07-25T11:38:38.000Z</time>
</trkpt>
<trkpt lat="46.1056170" lon="10.4527900">
	<ele>1767.60</ele>
	<time>2024-07-25T11:38:39.000Z</time>
</trkpt>
<trkpt lat="46.1056070" lon="10.4527740">
	<ele>1767.40</ele>
	<time>2024-07-25T11:38:40.000Z</time>
</trkpt>
<trkpt lat="46.1056020" lon="10.4527600">
	<ele>1767.20</ele>
	<time>2024-07-25T11:38:41.000Z</time>
</trkpt>
<trkpt lat="46.1055980" lon="10.4527440">
	<ele>1767.00</ele>
	<time>2024-07-25T11:38:42.000Z</time>
</trkpt>
<trkpt lat="46.1055940" lon="10.4527320">
	<ele>1766.80</ele>
	<time>2024-07-25T11:38:43.000Z</time>
</trkpt>
<trkpt lat="46.1055920" lon="10.4527140">
	<ele>1766.60</ele>
	<time>2024-07-25T11:38:44.000Z</time>
</trkpt>
<trkpt lat="46.1055870" lon="10.4526940">
	<ele>1766.40</ele>
	<time>2024-07-25T11:38:45.000Z</time>
</trkpt>
<trkpt lat="46.1055780" lon="10.4526760">
	<ele>1766.00</ele>
	<time>2024-07-25T11:38:46.000Z</time>
</trkpt>
<trkpt lat="46.1055720" lon="10.4526670">
	<ele>1765.80</ele>
	<time>2024-07-25T11:38:47.000Z</time>
</trkpt>
<trkpt lat="46.1055660" lon="10.4526580">
	<ele>1765.40</ele>
	<time>2024-07-25T11:38:48.000Z</time>
</trkpt>
<trkpt lat="46.1055560" lon="10.4526450">
	<ele>1765.00</ele>
	<time>2024-07-25T11:38:49.000Z</time>
</trkpt>
<trkpt lat="46.1055480" lon="10.4526310">
	<ele>1764.60</ele>
	<time>2024-07-25T11:38:50.000Z</time>
</trkpt>
<trkpt lat="46.1055410" lon="10.4526200">
	<ele>1764.40</ele>
	<time>2024-07-25T11:38:51.000Z</time>
</trkpt>
<trkpt lat="46.1055310" lon="10.4526050">
	<ele>1764.00</ele>
	<time>2024-07-25T11:38:52.000Z</time>
</trkpt>
<trkpt lat="46.1055200" lon="10.4525880">
	<ele>1763.80</ele>
	<time>2024-07-25T11:38:53.000Z</time>
</trkpt>
<trkpt lat="46.1055100" lon="10.4525720">
	<ele>1763.60</ele>
	<time>2024-07-25T11:38:54.000Z</time>
</trkpt>
<trkpt lat="46.1054970" lon="10.4525520">
	<ele>1763.40</ele>
	<time>2024-07-25T11:38:55.000Z</time>
</trkpt>
<trkpt lat="46.1054870" lon="10.4525310">
	<ele>1763.20</ele>
	<time>2024-07-25T11:38:56.000Z</time>
</trkpt>
<trkpt lat="46.1054770" lon="10.4525110">
	<ele>1763.00</ele>
	<time>2024-07-25T11:38:57.000Z</time>
</trkpt>
<trkpt lat="46.1054610" lon="10.4524810">
	<ele>1762.80</ele>
	<time>2024-07-25T11:38:58.000Z</time>
</trkpt>
<trkpt lat="46.1054490" lon="10.4524530">
	<ele>1762.80</ele>
	<time>2024-07-25T11:38:59.000Z</time>
</trkpt>
<trkpt lat="46.1054350" lon="10.4524300">
	<ele>1762.60</ele>
	<time>2024-07-25T11:39:00.000Z</time>
</trkpt>
<trkpt lat="46.1054270" lon="10.4524200">
	<ele>1762.20</ele>
	<time>2024-07-25T11:39:01.000Z</time>
</trkpt>
<trkpt lat="46.1054210" lon="10.4524060">
	<ele>1761.80</ele>
	<time>2024-07-25T11:39:02.000Z</time>
</trkpt>
<trkpt lat="46.1054120" lon="10.4523810">
	<ele>1761.40</ele>
	<time>2024-07-25T11:39:03.000Z</time>
</trkpt>
<trkpt lat="46.1054090" lon="10.4523660">
	<ele>1761.20</ele>
	<time>2024-07-25T11:39:04.000Z</time>
</trkpt>
<trkpt lat="46.1054080" lon="10.4523470">
	<ele>1760.80</ele>
	<time>2024-07-25T11:39:05.000Z</time>
</trkpt>
<trkpt lat="46.1054100" lon="10.4523300">
	<ele>1760.60</ele>
	<time>2024-07-25T11:39:06.000Z</time>
</trkpt>
<trkpt lat="46.1054170" lon="10.4523160">
	<ele>1760.40</ele>
	<time>2024-07-25T11:39:07.000Z</time>
</trkpt>
<trkpt lat="46.1054300" lon="10.4523090">
	<ele>1760.00</ele>
	<time>2024-07-25T11:39:08.000Z</time>
</trkpt>
<trkpt lat="46.1054460" lon="10.4523060">
	<ele>1759.60</ele>
	<time>2024-07-25T11:39:09.000Z</time>
</trkpt>
<trkpt lat="46.1054630" lon="10.4523010">
	<ele>1759.20</ele>
	<time>2024-07-25T11:39:10.000Z</time>
</trkpt>
<trkpt lat="46.1054760" lon="10.4522930">
	<ele>1758.80</ele>
	<time>2024-07-25T11:39:11.000Z</time>
</trkpt>
<trkpt lat="46.1054840" lon="10.4522810">
	<ele>1758.60</ele>
	<time>2024-07-25T11:39:12.000Z</time>
</trkpt>
<trkpt lat="46.1054920" lon="10.4522690">
	<ele>1758.20</ele>
	<time>2024-07-25T11:39:13.000Z</time>
</trkpt>
<trkpt lat="46.1054990" lon="10.4522560">
	<ele>1758.00</ele>
	<time>2024-07-25T11:39:14.000Z</time>
</trkpt>
<trkpt lat="46.1055130" lon="10.4522530">
	<ele>1757.60</ele>
	<time>2024-07-25T11:39:15.000Z</time>
</trkpt>
<trkpt lat="46.1055250" lon="10.4522400">
	<ele>1757.20</ele>
	<time>2024-07-25T11:39:16.000Z</time>
</trkpt>
<trkpt lat="46.1055260" lon="10.4522240">
	<ele>1757.00</ele>
	<time>2024-07-25T11:39:17.000Z</time>
</trkpt>
<trkpt lat="46.1055250" lon="10.4522030">
	<ele>1756.80</ele>
	<time>2024-07-25T11:39:18.000Z</time>
</trkpt>
<trkpt lat="46.1055230" lon="10.4521820">
	<ele>1756.60</ele>
	<time>2024-07-25T11:39:19.000Z</time>
</trkpt>
<trkpt lat="46.1055180" lon="10.4521510">
	<ele>1756.20</ele>
	<time>2024-07-25T11:39:20.000Z</time>
</trkpt>
<trkpt lat="46.1055030" lon="10.4521180">
	<ele>1756.00</ele>
	<time>2024-07-25T11:39:21.000Z</time>
</trkpt>
<trkpt lat="46.1054890" lon="10.4520890">
	<ele>1756.00</ele>
	<time>2024-07-25T11:39:22.000Z</time>
</trkpt>
<trkpt lat="46.1054850" lon="10.4520660">
	<ele>1755.60</ele>
	<time>2024-07-25T11:39:23.000Z</time>
</trkpt>
<trkpt lat="46.1054810" lon="10.4520430">
	<ele>1755.60</ele>
	<time>2024-07-25T11:39:24.000Z</time>
</trkpt>
<trkpt lat="46.1054790" lon="10.4520350">
	<ele>1755.40</ele>
	<time>2024-07-25T11:39:25.000Z</time>
</trkpt>
<trkpt lat="46.1054750" lon="10.4520190">
	<ele>1755.00</ele>
	<time>2024-07-25T11:39:26.000Z</time>
</trkpt>
<trkpt lat="46.1054710" lon="10.4519940">
	<ele>1754.60</ele>
	<time>2024-07-25T11:39:27.000Z</time>
</trkpt>
<trkpt lat="46.1054630" lon="10.4519710">
	<ele>1754.40</ele>
	<time>2024-07-25T11:39:28.000Z</time>
</trkpt>
<trkpt lat="46.1054550" lon="10.4519470">
	<ele>1754.20</ele>
	<time>2024-07-25T11:39:29.000Z</time>
</trkpt>
<trkpt lat="46.1054460" lon="10.4519240">
	<ele>1754.20</ele>
	<time>2024-07-25T11:39:30.000Z</time>
</trkpt>
<trkpt lat="46.1054420" lon="10.4519100">
	<ele>1753.80</ele>
	<time>2024-07-25T11:39:31.000Z</time>
</trkpt>
<trkpt lat="46.1054360" lon="10.4519040">
	<ele>1753.60</ele>
	<time>2024-07-25T11:39:32.000Z</time>
</trkpt>
<trkpt lat="46.1054260" lon="10.4518990">
	<ele>1753.40</ele>
	<time>2024-07-25T11:39:33.000Z</time>
</trkpt>
<trkpt lat="46.1054200" lon="10.4518820">
	<ele>1753.20</ele>
	<time>2024-07-25T11:39:34.000Z</time>
</trkpt>
<trkpt lat="46.1054200" lon="10.4518630">
	<ele>1753.00</ele>
	<time>2024-07-25T11:39:35.000Z</time>
</trkpt>
<trkpt lat="46.1054170" lon="10.4518480">
	<ele>1752.60</ele>
	<time>2024-07-25T11:39:36.000Z</time>
</trkpt>
<trkpt lat="46.1054120" lon="10.4518330">
	<ele>1752.40</ele>
	<time>2024-07-25T11:39:37.000Z</time>
</trkpt>
<trkpt lat="46.1054110" lon="10.4518180">
	<ele>1752.00</ele>
	<time>2024-07-25T11:39:38.000Z</time>
</trkpt>
<trkpt lat="46.1054160" lon="10.4518090">
	<ele>1751.80</ele>
	<time>2024-07-25T11:39:39.000Z</time>
</trkpt>
<trkpt lat="46.1054190" lon="10.4518040">
	<ele>1751.60</ele>
	<time>2024-07-25T11:39:40.000Z</time>
</trkpt>
<trkpt lat="46.1054180" lon="10.4517890">
	<ele>1751.40</ele>
	<time>2024-07-25T11:39:41.000Z</time>
</trkpt>
<trkpt lat="46.1054160" lon="10.4517710">
	<ele>1751.00</ele>
	<time>2024-07-25T11:39:42.000Z</time>
</trkpt>
<trkpt lat="46.1054130" lon="10.4517660">
	<ele>1750.80</ele>
	<time>2024-07-25T11:39:43.000Z</time>
</trkpt>
<trkpt lat="46.1054190" lon="10.4517460">
	<ele>1750.60</ele>
	<time>2024-07-25T11:39:44.000Z</time>
</trkpt>
<trkpt lat="46.1054170" lon="10.4517260">
	<ele>1750.40</ele>
	<time>2024-07-25T11:39:45.000Z</time>
</trkpt>
<trkpt lat="46.1054170" lon="10.4517100">
	<ele>1750.00</ele>
	<time>2024-07-25T11:39:46.000Z</time>
</trkpt>
<trkpt lat="46.1054140" lon="10.4516890">
	<ele>1749.80</ele>
	<time>2024-07-25T11:39:47.000Z</time>
</trkpt>
<trkpt lat="46.1054070" lon="10.4516730">
	<ele>1749.60</ele>
	<time>2024-07-25T11:39:48.000Z</time>
</trkpt>
<trkpt lat="46.1054000" lon="10.4516600">
	<ele>1749.20</ele>
	<time>2024-07-25T11:39:49.000Z</time>
</trkpt>
<trkpt lat="46.1053960" lon="10.4516450">
	<ele>1749.00</ele>
	<time>2024-07-25T11:39:50.000Z</time>
</trkpt>
<trkpt lat="46.1053900" lon="10.4516270">
	<ele>1748.60</ele>
	<time>2024-07-25T11:39:51.000Z</time>
</trkpt>
<trkpt lat="46.1053810" lon="10.4516030">
	<ele>1748.60</ele>
	<time>2024-07-25T11:39:52.000Z</time>
</trkpt>
<trkpt lat="46.1053760" lon="10.4515840">
	<ele>1748.20</ele>
	<time>2024-07-25T11:39:53.000Z</time>
</trkpt>
<trkpt lat="46.1053690" lon="10.4515590">
	<ele>1747.80</ele>
	<time>2024-07-25T11:39:54.000Z</time>
</trkpt>
<trkpt lat="46.1053620" lon="10.4515440">
	<ele>1747.60</ele>
	<time>2024-07-25T11:39:55.000Z</time>
</trkpt>
<trkpt lat="46.1053560" lon="10.4515350">
	<ele>1747.40</ele>
	<time>2024-07-25T11:39:56.000Z</time>
</trkpt>
<trkpt lat="46.1053480" lon="10.4515190">
	<ele>1747.00</ele>
	<time>2024-07-25T11:39:57.000Z</time>
</trkpt>
<trkpt lat="46.1053370" lon="10.4515040">
	<ele>1746.80</ele>
	<time>2024-07-25T11:39:58.000Z</time>
</trkpt>
<trkpt lat="46.1053260" lon="10.4514900">
	<ele>1746.60</ele>
	<time>2024-07-25T11:39:59.000Z</time>
</trkpt>
<trkpt lat="46.1053180" lon="10.4514770">
	<ele>1746.20</ele>
	<time>2024-07-25T11:40:00.000Z</time>
</trkpt>
<trkpt lat="46.1053120" lon="10.4514640">
	<ele>1746.00</ele>
	<time>2024-07-25T11:40:01.000Z</time>
</trkpt>
<trkpt lat="46.1053040" lon="10.4514460">
	<ele>1745.80</ele>
	<time>2024-07-25T11:40:02.000Z</time>
</trkpt>
<trkpt lat="46.1053000" lon="10.4514230">
	<ele>1745.60</ele>
	<time>2024-07-25T11:40:03.000Z</time>
</trkpt>
<trkpt lat="46.1052920" lon="10.4514020">
	<ele>1745.20</ele>
	<time>2024-07-25T11:40:04.000Z</time>
</trkpt>
<trkpt lat="46.1052810" lon="10.4513850">
	<ele>1744.80</ele>
	<time>2024-07-25T11:40:05.000Z</time>
</trkpt>
<trkpt lat="46.1052680" lon="10.4513680">
	<ele>1744.60</ele>
	<time>2024-07-25T11:40:06.000Z</time>
</trkpt>
<trkpt lat="46.1052560" lon="10.4513620">
	<ele>1744.40</ele>
	<time>2024-07-25T11:40:07.000Z</time>
</trkpt>
<trkpt lat="46.1052460" lon="10.4513580">
	<ele>1744.20</ele>
	<time>2024-07-25T11:40:08.000Z</time>
</trkpt>
<trkpt lat="46.1052360" lon="10.4513530">
	<ele>1744.00</ele>
	<time>2024-07-25T11:40:09.000Z</time>
</trkpt>
<trkpt lat="46.1052240" lon="10.4513460">
	<ele>1743.60</ele>
	<time>2024-07-25T11:40:10.000Z</time>
</trkpt>
<trkpt lat="46.1052130" lon="10.4513390">
	<ele>1743.20</ele>
	<time>2024-07-25T11:40:11.000Z</time>
</trkpt>
<trkpt lat="46.1052000" lon="10.4513250">
	<ele>1743.00</ele>
	<time>2024-07-25T11:40:12.000Z</time>
</trkpt>
<trkpt lat="46.1051860" lon="10.4513090">
	<ele>1742.80</ele>
	<time>2024-07-25T11:40:13.000Z</time>
</trkpt>
<trkpt lat="46.1051770" lon="10.4512950">
	<ele>1742.60</ele>
	<time>2024-07-25T11:40:14.000Z</time>
</trkpt>
<trkpt lat="46.1051650" lon="10.4512810">
	<ele>1742.20</ele>
	<time>2024-07-25T11:40:15.000Z</time>
</trkpt>
<trkpt lat="46.1051530" lon="10.4512700">
	<ele>1742.00</ele>
	<time>2024-07-25T11:40:16.000Z</time>
</trkpt>
<trkpt lat="46.1051410" lon="10.4512580">
	<ele>1741.80</ele>
	<time>2024-07-25T11:40:17.000Z</time>
</trkpt>
<trkpt lat="46.1051290" lon="10.4512470">
	<ele>1741.60</ele>
	<time>2024-07-25T11:40:18.000Z</time>
</trkpt>
<trkpt lat="46.1051140" lon="10.4512390">
	<ele>1741.40</ele>
	<time>2024-07-25T11:40:19.000Z</time>
</trkpt>
<trkpt lat="46.1051010" lon="10.4512330">
	<ele>1741.20</ele>
	<time>2024-07-25T11:40:20.000Z</time>
</trkpt>
<trkpt lat="46.1050890" lon="10.4512320">
	<ele>1741.00</ele>
	<time>2024-07-25T11:40:21.000Z</time>
</trkpt>
<trkpt lat="46.1050820" lon="10.4512340">
	<ele>1740.80</ele>
	<time>2024-07-25T11:40:22.000Z</time>
</trkpt>
<trkpt lat="46.1050740" lon="10.4512300">
	<ele>1740.60</ele>
	<time>2024-07-25T11:40:23.000Z</time>
</trkpt>
<trkpt lat="46.1050660" lon="10.4512260">
	<ele>1740.20</ele>
	<time>2024-07-25T11:40:24.000Z</time>
</trkpt>
<trkpt lat="46.1050560" lon="10.4512200">
	<ele>1740.00</ele>
	<time>2024-07-25T11:40:25.000Z</time>
</trkpt>
<trkpt lat="46.1050480" lon="10.4512120">
	<ele>1739.80</ele>
	<time>2024-07-25T11:40:26.000Z</time>
</trkpt>
<trkpt lat="46.1050380" lon="10.4512020">
	<ele>1739.40</ele>
	<time>2024-07-25T11:40:27.000Z</time>
</trkpt>
<trkpt lat="46.1050280" lon="10.4511930">
	<ele>1739.20</ele>
	<time>2024-07-25T11:40:28.000Z</time>
</trkpt>
<trkpt lat="46.1050170" lon="10.4511850">
	<ele>1739.00</ele>
	<time>2024-07-25T11:40:29.000Z</time>
</trkpt>
<trkpt lat="46.1050060" lon="10.4511760">
	<ele>1738.60</ele>
	<time>2024-07-25T11:40:30.000Z</time>
</trkpt>
<trkpt lat="46.1049960" lon="10.4511690">
	<ele>1738.40</ele>
	<time>2024-07-25T11:40:31.000Z</time>
</trkpt>
<trkpt lat="46.1049880" lon="10.4511600">
	<ele>1738.00</ele>
	<time>2024-07-25T11:40:32.000Z</time>
</trkpt>
<trkpt lat="46.1049780" lon="10.4511490">
	<ele>1737.80</ele>
	<time>2024-07-25T11:40:33.000Z</time>
</trkpt>
<trkpt lat="46.1049660" lon="10.4511380">
	<ele>1737.40</ele>
	<time>2024-07-25T11:40:34.000Z</time>
</trkpt>
<trkpt lat="46.1049550" lon="10.4511320">
	<ele>1737.20</ele>
	<time>2024-07-25T11:40:35.000Z</time>
</trkpt>
<trkpt lat="46.1049470" lon="10.4511310">
	<ele>1737.20</ele>
	<time>2024-07-25T11:40:36.000Z</time>
</trkpt>
<trkpt lat="46.1049370" lon="10.4511220">
	<ele>1736.80</ele>
	<time>2024-07-25T11:40:37.000Z</time>
</trkpt>
<trkpt lat="46.1049260" lon="10.4511150">
	<ele>1736.60</ele>
	<time>2024-07-25T11:40:38.000Z</time>
</trkpt>
<trkpt lat="46.1049160" lon="10.4511090">
	<ele>1736.40</ele>
	<time>2024-07-25T11:40:39.000Z</time>
</trkpt>
<trkpt lat="46.1049070" lon="10.4511040">
	<ele>1736.20</ele>
	<time>2024-07-25T11:40:40.000Z</time>
</trkpt>
<trkpt lat="46.1048930" lon="10.4510960">
	<ele>1736.00</ele>
	<time>2024-07-25T11:40:41.000Z</time>
</trkpt>
<trkpt lat="46.1048850" lon="10.4510920">
	<ele>1736.00</ele>
	<time>2024-07-25T11:40:42.000Z</time>
</trkpt>
<trkpt lat="46.1048790" lon="10.4510910">
	<ele>1735.80</ele>
	<time>2024-07-25T11:40:43.000Z</time>
</trkpt>
<trkpt lat="46.1048740" lon="10.4510860">
	<ele>1735.60</ele>
	<time>2024-07-25T11:40:44.000Z</time>
</trkpt>
<trkpt lat="46.1048670" lon="10.4510810">
	<ele>1735.20</ele>
	<time>2024-07-25T11:40:45.000Z</time>
</trkpt>
<trkpt lat="46.1048600" lon="10.4510780">
	<ele>1734.80</ele>
	<time>2024-07-25T11:40:46.000Z</time>
</trkpt>
<trkpt lat="46.1048550" lon="10.4510830">
	<ele>1734.40</ele>
	<time>2024-07-25T11:40:47.000Z</time>
</trkpt>
<trkpt lat="46.1048450" lon="10.4510830">
	<ele>1734.20</ele>
	<time>2024-07-25T11:40:48.000Z</time>
</trkpt>
<trkpt lat="46.1048350" lon="10.4510770">
	<ele>1734.00</ele>
	<time>2024-07-25T11:40:49.000Z</time>
</trkpt>
<trkpt lat="46.1048250" lon="10.4510740">
	<ele>1733.60</ele>
	<time>2024-07-25T11:40:50.000Z</time>
</trkpt>
<trkpt lat="46.1048160" lon="10.4510700">
	<ele>1733.40</ele>
	<time>2024-07-25T11:40:51.000Z</time>
</trkpt>
<trkpt lat="46.1048090" lon="10.4510680">
	<ele>1733.20</ele>
	<time>2024-07-25T11:40:52.000Z</time>
</trkpt>
<trkpt lat="46.1048040" lon="10.4510570">
	<ele>1733.00</ele>
	<time>2024-07-25T11:40:53.000Z</time>
</trkpt>
<trkpt lat="46.1047940" lon="10.4510500">
	<ele>1732.80</ele>
	<time>2024-07-25T11:40:54.000Z</time>
</trkpt>
<trkpt lat="46.1047790" lon="10.4510370">
	<ele>1732.40</ele>
	<time>2024-07-25T11:40:55.000Z</time>
</trkpt>
<trkpt lat="46.1047700" lon="10.4510260">
	<ele>1732.20</ele>
	<time>2024-07-25T11:40:56.000Z</time>
</trkpt>
<trkpt lat="46.1047550" lon="10.4510120">
	<ele>1732.00</ele>
	<time>2024-07-25T11:40:57.000Z</time>
</trkpt>
<trkpt lat="46.1047430" lon="10.4510070">
	<ele>1731.80</ele>
	<time>2024-07-25T11:40:58.000Z</time>
</trkpt>
<trkpt lat="46.1047320" lon="10.4510040">
	<ele>1731.40</ele>
	<time>2024-07-25T11:40:59.000Z</time>
</trkpt>
<trkpt lat="46.1047220" lon="10.4509960">
	<ele>1731.20</ele>
	<time>2024-07-25T11:41:00.000Z</time>
</trkpt>
<trkpt lat="46.1047130" lon="10.4509820">
	<ele>1731.00</ele>
	<time>2024-07-25T11:41:01.000Z</time>
</trkpt>
<trkpt lat="46.1047030" lon="10.4509660">
	<ele>1730.80</ele>
	<time>2024-07-25T11:41:02.000Z</time>
</trkpt>
<trkpt lat="46.1046910" lon="10.4509540">
	<ele>1730.40</ele>
	<time>2024-07-25T11:41:03.000Z</time>
</trkpt>
<trkpt lat="46.1046820" lon="10.4509460">
	<ele>1730.20</ele>
	<time>2024-07-25T11:41:04.000Z</time>
</trkpt>
<trkpt lat="46.1046740" lon="10.4509380">
	<ele>1730.00</ele>
	<time>2024-07-25T11:41:05.000Z</time>
</trkpt>
<trkpt lat="46.1046640" lon="10.4509270">
	<ele>1729.80</ele>
	<time>2024-07-25T11:41:06.000Z</time>
</trkpt>
<trkpt lat="46.1046510" lon="10.4509140">
	<ele>1729.40</ele>
	<time>2024-07-25T11:41:07.000Z</time>
</trkpt>
<trkpt lat="46.1046370" lon="10.4509050">
	<ele>1729.20</ele>
	<time>2024-07-25T11:41:08.000Z</time>
</trkpt>
<trkpt lat="46.1046230" lon="10.4508980">
	<ele>1729.00</ele>
	<time>2024-07-25T11:41:09.000Z</time>
</trkpt>
<trkpt lat="46.1046110" lon="10.4508950">
	<ele>1728.80</ele>
	<time>2024-07-25T11:41:10.000Z</time>
</trkpt>
<trkpt lat="46.1045990" lon="10.4508910">
	<ele>1728.60</ele>
	<time>2024-07-25T11:41:11.000Z</time>
</trkpt>
<trkpt lat="46.1045910" lon="10.4508800">
	<ele>1728.40</ele>
	<time>2024-07-25T11:41:12.000Z</time>
</trkpt>
<trkpt lat="46.1045830" lon="10.4508650">
	<ele>1728.20</ele>
	<time>2024-07-25T11:41:13.000Z</time>
</trkpt>
<trkpt lat="46.1045730" lon="10.4508510">
	<ele>1728.00</ele>
	<time>2024-07-25T11:41:14.000Z</time>
</trkpt>
<trkpt lat="46.1045640" lon="10.4508410">
	<ele>1727.60</ele>
	<time>2024-07-25T11:41:15.000Z</time>
</trkpt>
<trkpt lat="46.1045560" lon="10.4508310">
	<ele>1727.40</ele>
	<time>2024-07-25T11:41:16.000Z</time>
</trkpt>
<trkpt lat="46.1045440" lon="10.4508160">
	<ele>1727.20</ele>
	<time>2024-07-25T11:41:17.000Z</time>
</trkpt>
<trkpt lat="46.1045330" lon="10.4508020">
	<ele>1727.00</ele>
	<time>2024-07-25T11:41:18.000Z</time>
</trkpt>
<trkpt lat="46.1045210" lon="10.4507860">
	<ele>1726.80</ele>
	<time>2024-07-25T11:41:19.000Z</time>
</trkpt>
<trkpt lat="46.1045110" lon="10.4507700">
	<ele>1726.40</ele>
	<time>2024-07-25T11:41:20.000Z</time>
</trkpt>
<trkpt lat="46.1045030" lon="10.4507610">
	<ele>1726.20</ele>
	<time>2024-07-25T11:41:21.000Z</time>
</trkpt>
<trkpt lat="46.1044970" lon="10.4507550">
	<ele>1726.00</ele>
	<time>2024-07-25T11:41:22.000Z</time>
</trkpt>
<trkpt lat="46.1044890" lon="10.4507390">
	<ele>1725.80</ele>
	<time>2024-07-25T11:41:23.000Z</time>
</trkpt>
<trkpt lat="46.1044790" lon="10.4507220">
	<ele>1725.40</ele>
	<time>2024-07-25T11:41:24.000Z</time>
</trkpt>
<trkpt lat="46.1044700" lon="10.4507060">
	<ele>1725.20</ele>
	<time>2024-07-25T11:41:25.000Z</time>
</trkpt>
<trkpt lat="46.1044620" lon="10.4506950">
	<ele>1724.80</ele>
	<time>2024-07-25T11:41:26.000Z</time>
</trkpt>
<trkpt lat="46.1044510" lon="10.4506850">
	<ele>1724.60</ele>
	<time>2024-07-25T11:41:27.000Z</time>
</trkpt>
<trkpt lat="46.1044400" lon="10.4506750">
	<ele>1724.20</ele>
	<time>2024-07-25T11:41:28.000Z</time>
</trkpt>
<trkpt lat="46.1044260" lon="10.4506670">
	<ele>1723.80</ele>
	<time>2024-07-25T11:41:29.000Z</time>
</trkpt>
<trkpt lat="46.1044160" lon="10.4506600">
	<ele>1723.40</ele>
	<time>2024-07-25T11:41:30.000Z</time>
</trkpt>
<trkpt lat="46.1044000" lon="10.4506490">
	<ele>1723.20</ele>
	<time>2024-07-25T11:41:31.000Z</time>
</trkpt>
<trkpt lat="46.1043870" lon="10.4506380">
	<ele>1723.00</ele>
	<time>2024-07-25T11:41:32.000Z</time>
</trkpt>
<trkpt lat="46.1043770" lon="10.4506290">
	<ele>1722.80</ele>
	<time>2024-07-25T11:41:33.000Z</time>
</trkpt>
<trkpt lat="46.1043610" lon="10.4506160">
	<ele>1722.40</ele>
	<time>2024-07-25T11:41:34.000Z</time>
</trkpt>
<trkpt lat="46.1043480" lon="10.4506050">
	<ele>1722.20</ele>
	<time>2024-07-25T11:41:35.000Z</time>
</trkpt>
<trkpt lat="46.1043350" lon="10.4505950">
	<ele>1722.00</ele>
	<time>2024-07-25T11:41:36.000Z</time>
</trkpt>
<trkpt lat="46.1043250" lon="10.4505810">
	<ele>1721.80</ele>
	<time>2024-07-25T11:41:37.000Z</time>
</trkpt>
<trkpt lat="46.1043180" lon="10.4505650">
	<ele>1721.40</ele>
	<time>2024-07-25T11:41:38.000Z</time>
</trkpt>
<trkpt lat="46.1043110" lon="10.4505490">
	<ele>1721.00</ele>
	<time>2024-07-25T11:41:39.000Z</time>
</trkpt>
<trkpt lat="46.1043050" lon="10.4505330">
	<ele>1720.80</ele>
	<time>2024-07-25T11:41:40.000Z</time>
</trkpt>
<trkpt lat="46.1042970" lon="10.4505170">
	<ele>1720.40</ele>
	<time>2024-07-25T11:41:41.000Z</time>
</trkpt>
<trkpt lat="46.1042910" lon="10.4505070">
	<ele>1720.20</ele>
	<time>2024-07-25T11:41:42.000Z</time>
</trkpt>
<trkpt lat="46.1042870" lon="10.4505050">
	<ele>1720.20</ele>
	<time>2024-07-25T11:41:43.000Z</time>
</trkpt>
<trkpt lat="46.1042760" lon="10.4505020">
	<ele>1720.00</ele>
	<time>2024-07-25T11:41:44.000Z</time>
</trkpt>
<trkpt lat="46.1042700" lon="10.4504910">
	<ele>1719.80</ele>
	<time>2024-07-25T11:41:45.000Z</time>
</trkpt>
<trkpt lat="46.1042610" lon="10.4504820">
	<ele>1719.40</ele>
	<time>2024-07-25T11:41:46.000Z</time>
</trkpt>
<trkpt lat="46.1042540" lon="10.4504700">
	<ele>1719.20</ele>
	<time>2024-07-25T11:41:47.000Z</time>
</trkpt>
<trkpt lat="46.1042490" lon="10.4504510">
	<ele>1718.80</ele>
	<time>2024-07-25T11:41:48.000Z</time>
</trkpt>
<trkpt lat="46.1042420" lon="10.4504300">
	<ele>1718.40</ele>
	<time>2024-07-25T11:41:49.000Z</time>
</trkpt>
<trkpt lat="46.1042350" lon="10.4504160">
	<ele>1718.20</ele>
	<time>2024-07-25T11:41:50.000Z</time>
</trkpt>
<trkpt lat="46.1042300" lon="10.4504030">
	<ele>1718.00</ele>
	<time>2024-07-25T11:41:51.000Z</time>
</trkpt>
<trkpt lat="46.1042190" lon="10.4503870">
	<ele>1717.80</ele>
	<time>2024-07-25T11:41:52.000Z</time>
</trkpt>
<trkpt lat="46.1042070" lon="10.4503730">
	<ele>1717.60</ele>
	<time>2024-07-25T11:41:53.000Z</time>
</trkpt>
<trkpt lat="46.1041990" lon="10.4503570">
	<ele>1717.40</ele>
	<time>2024-07-25T11:41:54.000Z</time>
</trkpt>
<trkpt lat="46.1041990" lon="10.4503350">
	<ele>1717.00</ele>
	<time>2024-07-25T11:41:55.000Z</time>
</trkpt>
<trkpt lat="46.1041960" lon="10.4503170">
	<ele>1716.80</ele>
	<time>2024-07-25T11:41:56.000Z</time>
</trkpt>
<trkpt lat="46.1041930" lon="10.4503080">
	<ele>1716.60</ele>
	<time>2024-07-25T11:41:57.000Z</time>
</trkpt>
<trkpt lat="46.1041910" lon="10.4502960">
	<ele>1716.40</ele>
	<time>2024-07-25T11:41:58.000Z</time>
</trkpt>
<trkpt lat="46.1041870" lon="10.4502860">
	<ele>1716.20</ele>
	<time>2024-07-25T11:41:59.000Z</time>
</trkpt>
<trkpt lat="46.1041810" lon="10.4502730">
	<ele>1716.00</ele>
	<time>2024-07-25T11:42:00.000Z</time>
</trkpt>
<trkpt lat="46.1041780" lon="10.4502600">
	<ele>1716.00</ele>
	<time>2024-07-25T11:42:01.000Z</time>
</trkpt>
<trkpt lat="46.1041780" lon="10.4502400">
	<ele>1715.80</ele>
	<time>2024-07-25T11:42:02.000Z</time>
</trkpt>
<trkpt lat="46.1041780" lon="10.4502200">
	<ele>1715.40</ele>
	<time>2024-07-25T11:42:03.000Z</time>
</trkpt>
<trkpt lat="46.1041750" lon="10.4502010">
	<ele>1715.40</ele>
	<time>2024-07-25T11:42:04.000Z</time>
</trkpt>
<trkpt lat="46.1041720" lon="10.4501800">
	<ele>1715.00</ele>
	<time>2024-07-25T11:42:05.000Z</time>
</trkpt>
<trkpt lat="46.1041710" lon="10.4501470">
	<ele>1714.60</ele>
	<time>2024-07-25T11:42:06.000Z</time>
</trkpt>
<trkpt lat="46.1041690" lon="10.4501260">
	<ele>1714.40</ele>
	<time>2024-07-25T11:42:07.000Z</time>
</trkpt>
<trkpt lat="46.1041640" lon="10.4501140">
	<ele>1714.20</ele>
	<time>2024-07-25T11:42:08.000Z</time>
</trkpt>
<trkpt lat="46.1041590" lon="10.4501000">
	<ele>1714.00</ele>
	<time>2024-07-25T11:42:09.000Z</time>
</trkpt>
<trkpt lat="46.1041500" lon="10.4500790">
	<ele>1713.60</ele>
	<time>2024-07-25T11:42:10.000Z</time>
</trkpt>
<trkpt lat="46.1041390" lon="10.4500590">
	<ele>1713.20</ele>
	<time>2024-07-25T11:42:11.000Z</time>
</trkpt>
<trkpt lat="46.1041290" lon="10.4500440">
	<ele>1713.20</ele>
	<time>2024-07-25T11:42:12.000Z</time>
</trkpt>
<trkpt lat="46.1041170" lon="10.4500270">
	<ele>1713.00</ele>
	<time>2024-07-25T11:42:13.000Z</time>
</trkpt>
<trkpt lat="46.1041090" lon="10.4500060">
	<ele>1712.60</ele>
	<time>2024-07-25T11:42:14.000Z</time>
</trkpt>
<trkpt lat="46.1041020" lon="10.4499860">
	<ele>1712.40</ele>
	<time>2024-07-25T11:42:15.000Z</time>
</trkpt>
<trkpt lat="46.1040930" lon="10.4499740">
	<ele>1712.00</ele>
	<time>2024-07-25T11:42:16.000Z</time>
</trkpt>
<trkpt lat="46.1040830" lon="10.4499600">
	<ele>1711.80</ele>
	<time>2024-07-25T11:42:17.000Z</time>
</trkpt>
<trkpt lat="46.1040740" lon="10.4499490">
	<ele>1711.60</ele>
	<time>2024-07-25T11:42:18.000Z</time>
</trkpt>
<trkpt lat="46.1040660" lon="10.4499400">
	<ele>1711.40</ele>
	<time>2024-07-25T11:42:19.000Z</time>
</trkpt>
<trkpt lat="46.1040560" lon="10.4499310">
	<ele>1711.20</ele>
	<time>2024-07-25T11:42:20.000Z</time>
</trkpt>
<trkpt lat="46.1040450" lon="10.4499210">
	<ele>1711.00</ele>
	<time>2024-07-25T11:42:21.000Z</time>
</trkpt>
<trkpt lat="46.1040370" lon="10.4499090">
	<ele>1710.80</ele>
	<time>2024-07-25T11:42:22.000Z</time>
</trkpt>
<trkpt lat="46.1040270" lon="10.4498920">
	<ele>1710.60</ele>
	<time>2024-07-25T11:42:23.000Z</time>
</trkpt>
<trkpt lat="46.1040180" lon="10.4498740">
	<ele>1710.40</ele>
	<time>2024-07-25T11:42:24.000Z</time>
</trkpt>
<trkpt lat="46.1040110" lon="10.4498580">
	<ele>1710.20</ele>
	<time>2024-07-25T11:42:25.000Z</time>
</trkpt>
<trkpt lat="46.1040030" lon="10.4498390">
	<ele>1709.80</ele>
	<time>2024-07-25T11:42:26.000Z</time>
</trkpt>
<trkpt lat="46.1039920" lon="10.4498280">
	<ele>1709.80</ele>
	<time>2024-07-25T11:42:27.000Z</time>
</trkpt>
<trkpt lat="46.1039810" lon="10.4498200">
	<ele>1709.60</ele>
	<time>2024-07-25T11:42:28.000Z</time>
</trkpt>
<trkpt lat="46.1039700" lon="10.4498130">
	<ele>1709.40</ele>
	<time>2024-07-25T11:42:29.000Z</time>
</trkpt>
<trkpt lat="46.1039630" lon="10.4498040">
	<ele>1709.20</ele>
	<time>2024-07-25T11:42:30.000Z</time>
</trkpt>
<trkpt lat="46.1039550" lon="10.4498000">
	<ele>1709.20</ele>
	<time>2024-07-25T11:42:31.000Z</time>
</trkpt>
<trkpt lat="46.1039470" lon="10.4497970">
	<ele>1708.80</ele>
	<time>2024-07-25T11:42:32.000Z</time>
</trkpt>
<trkpt lat="46.1039410" lon="10.4497930">
	<ele>1708.60</ele>
	<time>2024-07-25T11:42:33.000Z</time>
</trkpt>
<trkpt lat="46.1039340" lon="10.4497900">
	<ele>1708.40</ele>
	<time>2024-07-25T11:42:34.000Z</time>
</trkpt>
<trkpt lat="46.1039240" lon="10.4497850">
	<ele>1708.00</ele>
	<time>2024-07-25T11:42:35.000Z</time>
</trkpt>
<trkpt lat="46.1039140" lon="10.4497800">
	<ele>1707.80</ele>
	<time>2024-07-25T11:42:36.000Z</time>
</trkpt>
<trkpt lat="46.1039020" lon="10.4497780">
	<ele>1707.40</ele>
	<time>2024-07-25T11:42:37.000Z</time>
</trkpt>
<trkpt lat="46.1038930" lon="10.4497730">
	<ele>1707.00</ele>
	<time>2024-07-25T11:42:38.000Z</time>
</trkpt>
<trkpt lat="46.1038820" lon="10.4497690">
	<ele>1707.00</ele>
	<time>2024-07-25T11:42:39.000Z</time>
</trkpt>
<trkpt lat="46.1038690" lon="10.4497690">
	<ele>1706.80</ele>
	<time>2024-07-25T11:42:40.000Z</time>
</trkpt>
<trkpt lat="46.1038570" lon="10.4497610">
	<ele>1706.60</ele>
	<time>2024-07-25T11:42:41.000Z</time>
</trkpt>
<trkpt lat="46.1038470" lon="10.4497570">
	<ele>1706.40</ele>
	<time>2024-07-25T11:42:42.000Z</time>
</trkpt>
<trkpt lat="46.1038330" lon="10.4497610">
	<ele>1706.00</ele>
	<time>2024-07-25T11:42:43.000Z</time>
</trkpt>
<trkpt lat="46.1038220" lon="10.4497630">
	<ele>1706.00</ele>
	<time>2024-07-25T11:42:44.000Z</time>
</trkpt>
<trkpt lat="46.1038140" lon="10.4497590">
	<ele>1705.80</ele>
	<time>2024-07-25T11:42:45.000Z</time>
</trkpt>
<trkpt lat="46.1038050" lon="10.4497520">
	<ele>1705.60</ele>
	<time>2024-07-25T11:42:46.000Z</time>
</trkpt>
<trkpt lat="46.1037930" lon="10.4497500">
	<ele>1705.40</ele>
	<time>2024-07-25T11:42:47.000Z</time>
</trkpt>
<trkpt lat="46.1037840" lon="10.4497470">
	<ele>1705.40</ele>
	<time>2024-07-25T11:42:48.000Z</time>
</trkpt>
<trkpt lat="46.1037740" lon="10.4497470">
	<ele>1705.20</ele>
	<time>2024-07-25T11:42:49.000Z</time>
</trkpt>
<trkpt lat="46.1037620" lon="10.4497400">
	<ele>1705.20</ele>
	<time>2024-07-25T11:42:50.000Z</time>
</trkpt>
<trkpt lat="46.1037450" lon="10.4497360">
	<ele>1705.00</ele>
	<time>2024-07-25T11:42:51.000Z</time>
</trkpt>
<trkpt lat="46.1037240" lon="10.4497290">
	<ele>1704.80</ele>
	<time>2024-07-25T11:42:52.000Z</time>
</trkpt>
<trkpt lat="46.1037040" lon="10.4497220">
	<ele>1704.60</ele>
	<time>2024-07-25T11:42:53.000Z</time>
</trkpt>
<trkpt lat="46.1036880" lon="10.4497210">
	<ele>1704.20</ele>
	<time>2024-07-25T11:42:54.000Z</time>
</trkpt>
<trkpt lat="46.1036760" lon="10.4497200">
	<ele>1703.60</ele>
	<time>2024-07-25T11:42:55.000Z</time>
</trkpt>
<trkpt lat="46.1036650" lon="10.4497090">
	<ele>1703.40</ele>
	<time>2024-07-25T11:42:56.000Z</time>
</trkpt>
<trkpt lat="46.1036520" lon="10.4497000">
	<ele>1703.20</ele>
	<time>2024-07-25T11:42:57.000Z</time>
</trkpt>
<trkpt lat="46.1036390" lon="10.4496940">
	<ele>1703.00</ele>
	<time>2024-07-25T11:42:58.000Z</time>
</trkpt>
<trkpt lat="46.1036280" lon="10.4496870">
	<ele>1702.80</ele>
	<time>2024-07-25T11:42:59.000Z</time>
</trkpt>
<trkpt lat="46.1036150" lon="10.4496830">
	<ele>1702.40</ele>
	<time>2024-07-25T11:43:00.000Z</time>
</trkpt>
<trkpt lat="46.1036050" lon="10.4496810">
	<ele>1702.20</ele>
	<time>2024-07-25T11:43:01.000Z</time>
</trkpt>
<trkpt lat="46.1035890" lon="10.4496740">
	<ele>1701.80</ele>
	<time>2024-07-25T11:43:02.000Z</time>
</trkpt>
<trkpt lat="46.1035770" lon="10.4496690">
	<ele>1701.60</ele>
	<time>2024-07-25T11:43:03.000Z</time>
</trkpt>
<trkpt lat="46.1035610" lon="10.4496580">
	<ele>1701.40</ele>
	<time>2024-07-25T11:43:04.000Z</time>
</trkpt>
<trkpt lat="46.1035500" lon="10.4496510">
	<ele>1701.00</ele>
	<time>2024-07-25T11:43:05.000Z</time>
</trkpt>
<trkpt lat="46.1035390" lon="10.4496450">
	<ele>1700.80</ele>
	<time>2024-07-25T11:43:06.000Z</time>
</trkpt>
<trkpt lat="46.1035240" lon="10.4496390">
	<ele>1700.40</ele>
	<time>2024-07-25T11:43:07.000Z</time>
</trkpt>
<trkpt lat="46.1035100" lon="10.4496330">
	<ele>1700.20</ele>
	<time>2024-07-25T11:43:08.000Z</time>
</trkpt>
<trkpt lat="46.1035010" lon="10.4496270">
	<ele>1699.80</ele>
	<time>2024-07-25T11:43:09.000Z</time>
</trkpt>
<trkpt lat="46.1034900" lon="10.4496210">
	<ele>1699.60</ele>
	<time>2024-07-25T11:43:10.000Z</time>
</trkpt>
<trkpt lat="46.1034800" lon="10.4496150">
	<ele>1699.40</ele>
	<time>2024-07-25T11:43:11.000Z</time>
</trkpt>
<trkpt lat="46.1034690" lon="10.4496140">
	<ele>1699.20</ele>
	<time>2024-07-25T11:43:12.000Z</time>
</trkpt>
<trkpt lat="46.1034590" lon="10.4496100">
	<ele>1699.00</ele>
	<time>2024-07-25T11:43:13.000Z</time>
</trkpt>
<trkpt lat="46.1034490" lon="10.4496060">
	<ele>1698.80</ele>
	<time>2024-07-25T11:43:14.000Z</time>
</trkpt>
<trkpt lat="46.1034390" lon="10.4495980">
	<ele>1698.60</ele>
	<time>2024-07-25T11:43:15.000Z</time>
</trkpt>
<trkpt lat="46.1034290" lon="10.4495930">
	<ele>1698.40</ele>
	<time>2024-07-25T11:43:16.000Z</time>
</trkpt>
<trkpt lat="46.1034180" lon="10.4495860">
	<ele>1698.00</ele>
	<time>2024-07-25T11:43:17.000Z</time>
</trkpt>
<trkpt lat="46.1034090" lon="10.4495820">
	<ele>1697.80</ele>
	<time>2024-07-25T11:43:18.000Z</time>
</trkpt>
<trkpt lat="46.1034000" lon="10.4495740">
	<ele>1697.40</ele>
	<time>2024-07-25T11:43:19.000Z</time>
</trkpt>
<trkpt lat="46.1033900" lon="10.4495650">
	<ele>1697.40</ele>
	<time>2024-07-25T11:43:20.000Z</time>
</trkpt>
<trkpt lat="46.1033790" lon="10.4495590">
	<ele>1697.20</ele>
	<time>2024-07-25T11:43:21.000Z</time>
</trkpt>
<trkpt lat="46.1033680" lon="10.4495480">
	<ele>1697.00</ele>
	<time>2024-07-25T11:43:22.000Z</time>
</trkpt>
<trkpt lat="46.1033550" lon="10.4495450">
	<ele>1696.60</ele>
	<time>2024-07-25T11:43:23.000Z</time>
</trkpt>
<trkpt lat="46.1033410" lon="10.4495410">
	<ele>1696.60</ele>
	<time>2024-07-25T11:43:24.000Z</time>
</trkpt>
<trkpt lat="46.1033300" lon="10.4495380">
	<ele>1696.40</ele>
	<time>2024-07-25T11:43:25.000Z</time>
</trkpt>
<trkpt lat="46.1033150" lon="10.4495290">
	<ele>1696.20</ele>
	<time>2024-07-25T11:43:26.000Z</time>
</trkpt>
<trkpt lat="46.1032980" lon="10.4495230">
	<ele>1696.00</ele>
	<time>2024-07-25T11:43:27.000Z</time>
</trkpt>
<trkpt lat="46.1032850" lon="10.4495210">
	<ele>1695.60</ele>
	<time>2024-07-25T11:43:28.000Z</time>
</trkpt>
<trkpt lat="46.1032730" lon="10.4495160">
	<ele>1695.40</ele>
	<time>2024-07-25T11:43:29.000Z</time>
</trkpt>
<trkpt lat="46.1032600" lon="10.4495100">
	<ele>1695.00</ele>
	<time>2024-07-25T11:43:30.000Z</time>
</trkpt>
<trkpt lat="46.1032450" lon="10.4495110">
	<ele>1694.80</ele>
	<time>2024-07-25T11:43:31.000Z</time>
</trkpt>
<trkpt lat="46.1032320" lon="10.4495110">
	<ele>1694.60</ele>
	<time>2024-07-25T11:43:32.000Z</time>
</trkpt>
<trkpt lat="46.1032190" lon="10.4495030">
	<ele>1694.40</ele>
	<time>2024-07-25T11:43:33.000Z</time>
</trkpt>
<trkpt lat="46.1032030" lon="10.4494940">
	<ele>1694.20</ele>
	<time>2024-07-25T11:43:34.000Z</time>
</trkpt>
<trkpt lat="46.1031880" lon="10.4494880">
	<ele>1694.00</ele>
	<time>2024-07-25T11:43:35.000Z</time>
</trkpt>
<trkpt lat="46.1031740" lon="10.4494910">
	<ele>1693.80</ele>
	<time>2024-07-25T11:43:36.000Z</time>
</trkpt>
<trkpt lat="46.1031590" lon="10.4494910">
	<ele>1693.60</ele>
	<time>2024-07-25T11:43:37.000Z</time>
</trkpt>
<trkpt lat="46.1031470" lon="10.4494920">
	<ele>1693.40</ele>
	<time>2024-07-25T11:43:38.000Z</time>
</trkpt>
<trkpt lat="46.1031340" lon="10.4494990">
	<ele>1693.20</ele>
	<time>2024-07-25T11:43:39.000Z</time>
</trkpt>
<trkpt lat="46.1031210" lon="10.4495030">
	<ele>1692.80</ele>
	<time>2024-07-25T11:43:40.000Z</time>
</trkpt>
<trkpt lat="46.1031090" lon="10.4495080">
	<ele>1692.60</ele>
	<time>2024-07-25T11:43:41.000Z</time>
</trkpt>
<trkpt lat="46.1030960" lon="10.4495140">
	<ele>1692.60</ele>
	<time>2024-07-25T11:43:42.000Z</time>
</trkpt>
<trkpt lat="46.1030890" lon="10.4495210">
	<ele>1692.40</ele>
	<time>2024-07-25T11:43:43.000Z</time>
</trkpt>
<trkpt lat="46.1030800" lon="10.4495230">
	<ele>1692.00</ele>
	<time>2024-07-25T11:43:44.000Z</time>
</trkpt>
<trkpt lat="46.1030690" lon="10.4495230">
	<ele>1691.80</ele>
	<time>2024-07-25T11:43:45.000Z</time>
</trkpt>
<trkpt lat="46.1030610" lon="10.4495190">
	<ele>1691.40</ele>
	<time>2024-07-25T11:43:46.000Z</time>
</trkpt>
<trkpt lat="46.1030490" lon="10.4495120">
	<ele>1691.20</ele>
	<time>2024-07-25T11:43:47.000Z</time>
</trkpt>
<trkpt lat="46.1030420" lon="10.4495040">
	<ele>1691.00</ele>
	<time>2024-07-25T11:43:48.000Z</time>
</trkpt>
<trkpt lat="46.1030270" lon="10.4495000">
	<ele>1690.80</ele>
	<time>2024-07-25T11:43:49.000Z</time>
</trkpt>
<trkpt lat="46.1030170" lon="10.4495030">
	<ele>1690.60</ele>
	<time>2024-07-25T11:43:50.000Z</time>
</trkpt>
<trkpt lat="46.1030010" lon="10.4495000">
	<ele>1690.20</ele>
	<time>2024-07-25T11:43:51.000Z</time>
</trkpt>
<trkpt lat="46.1029890" lon="10.4494970">
	<ele>1689.80</ele>
	<time>2024-07-25T11:43:52.000Z</time>
</trkpt>
<trkpt lat="46.1029770" lon="10.4494910">
	<ele>1689.60</ele>
	<time>2024-07-25T11:43:53.000Z</time>
</trkpt>
<trkpt lat="46.1029650" lon="10.4494820">
	<ele>1689.40</ele>
	<time>2024-07-25T11:43:54.000Z</time>
</trkpt>
<trkpt lat="46.1029540" lon="10.4494780">
	<ele>1689.20</ele>
	<time>2024-07-25T11:43:55.000Z</time>
</trkpt>
<trkpt lat="46.1029450" lon="10.4494780">
	<ele>1688.80</ele>
	<time>2024-07-25T11:43:56.000Z</time>
</trkpt>
<trkpt lat="46.1029350" lon="10.4494780">
	<ele>1688.80</ele>
	<time>2024-07-25T11:43:57.000Z</time>
</trkpt>
<trkpt lat="46.1029250" lon="10.4494860">
	<ele>1688.40</ele>
	<time>2024-07-25T11:43:58.000Z</time>
</trkpt>
<trkpt lat="46.1029180" lon="10.4494860">
	<ele>1688.20</ele>
	<time>2024-07-25T11:43:59.000Z</time>
</trkpt>
<trkpt lat="46.1029100" lon="10.4494920">
	<ele>1688.20</ele>
	<time>2024-07-25T11:44:00.000Z</time>
</trkpt>
<trkpt lat="46.1029050" lon="10.4494840">
	<ele>1688.00</ele>
	<time>2024-07-25T11:44:01.000Z</time>
</trkpt>
<trkpt lat="46.1028860" lon="10.4494980">
	<ele>1687.80</ele>
	<time>2024-07-25T11:44:02.000Z</time>
</trkpt>
<trkpt lat="46.1028720" lon="10.4495010">
	<ele>1687.80</ele>
	<time>2024-07-25T11:44:03.000Z</time>
</trkpt>
<trkpt lat="46.1028450" lon="10.4495210">
	<ele>1687.60</ele>
	<time>2024-07-25T11:44:04.000Z</time>
</trkpt>
<trkpt lat="46.1028300" lon="10.4495200">
	<ele>1687.40</ele>
	<time>2024-07-25T11:44:05.000Z</time>
</trkpt>
<trkpt lat="46.1028190" lon="10.4495230">
	<ele>1687.20</ele>
	<time>2024-07-25T11:44:06.000Z</time>
</trkpt>
<trkpt lat="46.1028120" lon="10.4495200">
	<ele>1687.00</ele>
	<time>2024-07-25T11:44:07.000Z</time>
</trkpt>
<trkpt lat="46.1028040" lon="10.4495200">
	<ele>1687.00</ele>
	<time>2024-07-25T11:44:08.000Z</time>
</trkpt>
<trkpt lat="46.1027930" lon="10.4495110">
	<ele>1687.00</ele>
	<time>2024-07-25T11:44:09.000Z</time>
</trkpt>
<trkpt lat="46.1027840" lon="10.4495070">
	<ele>1686.80</ele>
	<time>2024-07-25T11:44:10.000Z</time>
</trkpt>
<trkpt lat="46.1027700" lon="10.4495030">
	<ele>1686.40</ele>
	<time>2024-07-25T11:44:11.000Z</time>
</trkpt>
<trkpt lat="46.1027570" lon="10.4494880">
	<ele>1686.40</ele>
	<time>2024-07-25T11:44:12.000Z</time>
</trkpt>
<trkpt lat="46.1027490" lon="10.4494780">
	<ele>1686.20</ele>
	<time>2024-07-25T11:44:13.000Z</time>
</trkpt>
<trkpt lat="46.1027330" lon="10.4494690">
	<ele>1686.00</ele>
	<time>2024-07-25T11:44:14.000Z</time>
</trkpt>
<trkpt lat="46.1027210" lon="10.4494550">
	<ele>1685.80</ele>
	<time>2024-07-25T11:44:15.000Z</time>
</trkpt>
<trkpt lat="46.1027120" lon="10.4494380">
	<ele>1685.60</ele>
	<time>2024-07-25T11:44:16.000Z</time>
</trkpt>
<trkpt lat="46.1027020" lon="10.4494290">
	<ele>1685.40</ele>
	<time>2024-07-25T11:44:17.000Z</time>
</trkpt>
<trkpt lat="46.1026910" lon="10.4494200">
	<ele>1685.20</ele>
	<time>2024-07-25T11:44:18.000Z</time>
</trkpt>
<trkpt lat="46.1026780" lon="10.4494100">
	<ele>1685.00</ele>
	<time>2024-07-25T11:44:19.000Z</time>
</trkpt>
<trkpt lat="46.1026610" lon="10.4493990">
	<ele>1684.80</ele>
	<time>2024-07-25T11:44:20.000Z</time>
</trkpt>
<trkpt lat="46.1026440" lon="10.4493830">
	<ele>1684.80</ele>
	<time>2024-07-25T11:44:21.000Z</time>
</trkpt>
<trkpt lat="46.1026340" lon="10.4493690">
	<ele>1684.60</ele>
	<time>2024-07-25T11:44:22.000Z</time>
</trkpt>
<trkpt lat="46.1026200" lon="10.4493580">
	<ele>1684.40</ele>
	<time>2024-07-25T11:44:23.000Z</time>
</trkpt>
<trkpt lat="46.1026110" lon="10.4493430">
	<ele>1684.40</ele>
	<time>2024-07-25T11:44:24.000Z</time>
</trkpt>
<trkpt lat="46.1025970" lon="10.4493350">
	<ele>1684.20</ele>
	<time>2024-07-25T11:44:25.000Z</time>
</trkpt>
<trkpt lat="46.1025800" lon="10.4493320">
	<ele>1684.00</ele>
	<time>2024-07-25T11:44:26.000Z</time>
</trkpt>
<trkpt lat="46.1025630" lon="10.4493270">
	<ele>1684.00</ele>
	<time>2024-07-25T11:44:27.000Z</time>
</trkpt>
<trkpt lat="46.1025450" lon="10.4493120">
	<ele>1683.80</ele>
	<time>2024-07-25T11:44:28.000Z</time>
</trkpt>
<trkpt lat="46.1025320" lon="10.4493080">
	<ele>1683.80</ele>
	<time>2024-07-25T11:44:29.000Z</time>
</trkpt>
<trkpt lat="46.1025170" lon="10.4493120">
	<ele>1683.60</ele>
	<time>2024-07-25T11:44:30.000Z</time>
</trkpt>
<trkpt lat="46.1025030" lon="10.4493150">
	<ele>1683.60</ele>
	<time>2024-07-25T11:44:31.000Z</time>
</trkpt>
<trkpt lat="46.1024870" lon="10.4493090">
	<ele>1683.40</ele>
	<time>2024-07-25T11:44:32.000Z</time>
</trkpt>
<trkpt lat="46.1024710" lon="10.4493080">
	<ele>1683.40</ele>
	<time>2024-07-25T11:44:33.000Z</time>
</trkpt>
<trkpt lat="46.1024580" lon="10.4493050">
	<ele>1683.20</ele>
	<time>2024-07-25T11:44:34.000Z</time>
</trkpt>
<trkpt lat="46.1024460" lon="10.4493040">
	<ele>1683.20</ele>
	<time>2024-07-25T11:44:35.000Z</time>
</trkpt>
<trkpt lat="46.1024370" lon="10.4492990">
	<ele>1683.00</ele>
	<time>2024-07-25T11:44:36.000Z</time>
</trkpt>
<trkpt lat="46.1024270" lon="10.4492970">
	<ele>1683.00</ele>
	<time>2024-07-25T11:44:37.000Z</time>
</trkpt>
<trkpt lat="46.1024160" lon="10.4492860">
	<ele>1682.80</ele>
	<time>2024-07-25T11:44:38.000Z</time>
</trkpt>
<trkpt lat="46.1024090" lon="10.4492820">
	<ele>1682.60</ele>
	<time>2024-07-25T11:44:39.000Z</time>
</trkpt>
<trkpt lat="46.1024020" lon="10.4492730">
	<ele>1682.60</ele>
	<time>2024-07-25T11:44:40.000Z</time>
</trkpt>
<trkpt lat="46.1023920" lon="10.4492590">
	<ele>1682.40</ele>
	<time>2024-07-25T11:44:41.000Z</time>
</trkpt>
<trkpt lat="46.1023830" lon="10.4492400">
	<ele>1682.40</ele>
	<time>2024-07-25T11:44:42.000Z</time>
</trkpt>
<trkpt lat="46.1023730" lon="10.4492240">
	<ele>1682.20</ele>
	<time>2024-07-25T11:44:43.000Z</time>
</trkpt>
<trkpt lat="46.1023620" lon="10.4492150">
	<ele>1682.00</ele>
	<time>2024-07-25T11:44:44.000Z</time>
</trkpt>
<trkpt lat="46.1023500" lon="10.4492250">
	<ele>1682.00</ele>
	<time>2024-07-25T11:44:45.000Z</time>
</trkpt>
<trkpt lat="46.1023340" lon="10.4492250">
	<ele>1681.80</ele>
	<time>2024-07-25T11:44:46.000Z</time>
</trkpt>
<trkpt lat="46.1023250" lon="10.4492270">
	<ele>1681.80</ele>
	<time>2024-07-25T11:44:47.000Z</time>
</trkpt>
<trkpt lat="46.1023270" lon="10.4492340">
	<ele>1681.60</ele>
	<time>2024-07-25T11:44:48.000Z</time>
</trkpt>
<trkpt lat="46.1023190" lon="10.4492340">
	<ele>1681.40</ele>
	<time>2024-07-25T11:44:49.000Z</time>
</trkpt>
<trkpt lat="46.1023110" lon="10.4492290">
	<ele>1681.40</ele>
	<time>2024-07-25T11:44:50.000Z</time>
</trkpt>
<trkpt lat="46.1023070" lon="10.4492130">
	<ele>1681.20</ele>
	<time>2024-07-25T11:44:51.000Z</time>
</trkpt>
<trkpt lat="46.1022990" lon="10.4491940">
	<ele>1681.20</ele>
	<time>2024-07-25T11:44:52.000Z</time>
</trkpt>
<trkpt lat="46.1022940" lon="10.4491730">
	<ele>1681.00</ele>
	<time>2024-07-25T11:44:53.000Z</time>
</trkpt>
<trkpt lat="46.1022840" lon="10.4491580">
	<ele>1681.00</ele>
	<time>2024-07-25T11:44:54.000Z</time>
</trkpt>
<trkpt lat="46.1022720" lon="10.4491400">
	<ele>1681.00</ele>
	<time>2024-07-25T11:44:55.000Z</time>
</trkpt>
<trkpt lat="46.1022630" lon="10.4491250">
	<ele>1680.80</ele>
	<time>2024-07-25T11:44:56.000Z</time>
</trkpt>
<trkpt lat="46.1022550" lon="10.4491090">
	<ele>1680.60</ele>
	<time>2024-07-25T11:44:57.000Z</time>
</trkpt>
<trkpt lat="46.1022480" lon="10.4491020">
	<ele>1680.60</ele>
	<time>2024-07-25T11:44:58.000Z</time>
</trkpt>
<trkpt lat="46.1022410" lon="10.4490830">
	<ele>1680.60</ele>
	<time>2024-07-25T11:44:59.000Z</time>
</trkpt>
<trkpt lat="46.1022320" lon="10.4490610">
	<ele>1680.40</ele>
	<time>2024-07-25T11:45:00.000Z</time>
</trkpt>
<trkpt lat="46.1022230" lon="10.4490400">
	<ele>1680.40</ele>
	<time>2024-07-25T11:45:01.000Z</time>
</trkpt>
<trkpt lat="46.1022140" lon="10.4490260">
	<ele>1680.40</ele>
	<time>2024-07-25T11:45:02.000Z</time>
</trkpt>
<trkpt lat="46.1022020" lon="10.4490130">
	<ele>1680.20</ele>
	<time>2024-07-25T11:45:03.000Z</time>
</trkpt>
<trkpt lat="46.1021940" lon="10.4489970">
	<ele>1680.20</ele>
	<time>2024-07-25T11:45:04.000Z</time>
</trkpt>
<trkpt lat="46.1021850" lon="10.4489770">
	<ele>1680.00</ele>
	<time>2024-07-25T11:45:05.000Z</time>
</trkpt>
<trkpt lat="46.1021760" lon="10.4489620">
	<ele>1680.00</ele>
	<time>2024-07-25T11:45:06.000Z</time>
</trkpt>
<trkpt lat="46.1021610" lon="10.4489510">
	<ele>1679.80</ele>
	<time>2024-07-25T11:45:07.000Z</time>
</trkpt>
<trkpt lat="46.1021490" lon="10.4489370">
	<ele>1679.60</ele>
	<time>2024-07-25T11:45:08.000Z</time>
</trkpt>
<trkpt lat="46.1021350" lon="10.4489240">
	<ele>1679.60</ele>
	<time>2024-07-25T11:45:09.000Z</time>
</trkpt>
<trkpt lat="46.1021210" lon="10.4489090">
	<ele>1679.60</ele>
	<time>2024-07-25T11:45:10.000Z</time>
</trkpt>
<trkpt lat="46.1021080" lon="10.4488960">
	<ele>1679.60</ele>
	<time>2024-07-25T11:45:11.000Z</time>
</trkpt>
<trkpt lat="46.1020910" lon="10.4488810">
	<ele>1679.40</ele>
	<time>2024-07-25T11:45:12.000Z</time>
</trkpt>
<trkpt lat="46.1020790" lon="10.4488730">
	<ele>1679.40</ele>
	<time>2024-07-25T11:45:13.000Z</time>
</trkpt>
<trkpt lat="46.1020670" lon="10.4488640">
	<ele>1679.20</ele>
	<time>2024-07-25T11:45:14.000Z</time>
</trkpt>
<trkpt lat="46.1020570" lon="10.4488500">
	<ele>1679.00</ele>
	<time>2024-07-25T11:45:15.000Z</time>
</trkpt>
<trkpt lat="46.1020510" lon="10.4488370">
	<ele>1679.00</ele>
	<time>2024-07-25T11:45:16.000Z</time>
</trkpt>
<trkpt lat="46.1020440" lon="10.4488190">
	<ele>1678.80</ele>
	<time>2024-07-25T11:45:17.000Z</time>
</trkpt>
<trkpt lat="46.1020360" lon="10.4487990">
	<ele>1678.60</ele>
	<time>2024-07-25T11:45:18.000Z</time>
</trkpt>
<trkpt lat="46.1020280" lon="10.4487780">
	<ele>1678.60</ele>
	<time>2024-07-25T11:45:19.000Z</time>
</trkpt>
<trkpt lat="46.1020200" lon="10.4487550">
	<ele>1678.40</ele>
	<time>2024-07-25T11:45:20.000Z</time>
</trkpt>
<trkpt lat="46.1020160" lon="10.4487370">
	<ele>1678.20</ele>
	<time>2024-07-25T11:45:21.000Z</time>
</trkpt>
<trkpt lat="46.1020100" lon="10.4487180">
	<ele>1677.80</ele>
	<time>2024-07-25T11:45:22.000Z</time>
</trkpt>
<trkpt lat="46.1020010" lon="10.4486960">
	<ele>1677.60</ele>
	<time>2024-07-25T11:45:23.000Z</time>
</trkpt>
<trkpt lat="46.1019940" lon="10.4486810">
	<ele>1677.40</ele>
	<time>2024-07-25T11:45:24.000Z</time>
</trkpt>
<trkpt lat="46.1019870" lon="10.4486680">
	<ele>1677.20</ele>
	<time>2024-07-25T11:45:25.000Z</time>
</trkpt>
<trkpt lat="46.1019830" lon="10.4486540">
	<ele>1677.20</ele>
	<time>2024-07-25T11:45:26.000Z</time>
</trkpt>
<trkpt lat="46.1019780" lon="10.4486380">
	<ele>1677.00</ele>
	<time>2024-07-25T11:45:27.000Z</time>
</trkpt>
<trkpt lat="46.1019700" lon="10.4486150">
	<ele>1676.80</ele>
	<time>2024-07-25T11:45:28.000Z</time>
</trkpt>
<trkpt lat="46.1019630" lon="10.4485920">
	<ele>1676.60</ele>
	<time>2024-07-25T11:45:29.000Z</time>
</trkpt>
<trkpt lat="46.1019590" lon="10.4485730">
	<ele>1676.40</ele>
	<time>2024-07-25T11:45:30.000Z</time>
</trkpt>
<trkpt lat="46.1019530" lon="10.4485550">
	<ele>1676.00</ele>
	<time>2024-07-25T11:45:31.000Z</time>
</trkpt>
<trkpt lat="46.1019470" lon="10.4485410">
	<ele>1675.80</ele>
	<time>2024-07-25T11:45:32.000Z</time>
</trkpt>
<trkpt lat="46.1019350" lon="10.4485200">
	<ele>1675.60</ele>
	<time>2024-07-25T11:45:33.000Z</time>
</trkpt>
<trkpt lat="46.1019250" lon="10.4484990">
	<ele>1675.60</ele>
	<time>2024-07-25T11:45:34.000Z</time>
</trkpt>
<trkpt lat="46.1019080" lon="10.4484820">
	<ele>1675.40</ele>
	<time>2024-07-25T11:45:35.000Z</time>
</trkpt>
<trkpt lat="46.1018930" lon="10.4484730">
	<ele>1675.40</ele>
	<time>2024-07-25T11:45:36.000Z</time>
</trkpt>
<trkpt lat="46.1018800" lon="10.4484680">
	<ele>1675.40</ele>
	<time>2024-07-25T11:45:37.000Z</time>
</trkpt>
<trkpt lat="46.1018660" lon="10.4484610">
	<ele>1675.20</ele>
	<time>2024-07-25T11:45:38.000Z</time>
</trkpt>
<trkpt lat="46.1018570" lon="10.4484590">
	<ele>1675.20</ele>
	<time>2024-07-25T11:45:39.000Z</time>
</trkpt>
<trkpt lat="46.1018470" lon="10.4484520">
	<ele>1675.20</ele>
	<time>2024-07-25T11:45:40.000Z</time>
</trkpt>
<trkpt lat="46.1018340" lon="10.4484450">
	<ele>1675.00</ele>
	<time>2024-07-25T11:45:41.000Z</time>
</trkpt>
<trkpt lat="46.1018200" lon="10.4484420">
	<ele>1675.00</ele>
	<time>2024-07-25T11:45:42.000Z</time>
</trkpt>
<trkpt lat="46.1018020" lon="10.4484340">
	<ele>1675.00</ele>
	<time>2024-07-25T11:45:43.000Z</time>
</trkpt>
<trkpt lat="46.1017860" lon="10.4484260">
	<ele>1675.00</ele>
	<time>2024-07-25T11:45:44.000Z</time>
</trkpt>
<trkpt lat="46.1017700" lon="10.4484150">
	<ele>1675.00</ele>
	<time>2024-07-25T11:45:45.000Z</time>
</trkpt>
<trkpt lat="46.1017540" lon="10.4484040">
	<ele>1674.80</ele>
	<time>2024-07-25T11:45:46.000Z</time>
</trkpt>
<trkpt lat="46.1017390" lon="10.4483950">
	<ele>1674.80</ele>
	<time>2024-07-25T11:45:47.000Z</time>
</trkpt>
<trkpt lat="46.1017250" lon="10.4483850">
	<ele>1674.80</ele>
	<time>2024-07-25T11:45:48.000Z</time>
</trkpt>
<trkpt lat="46.1017060" lon="10.4483710">
	<ele>1674.80</ele>
	<time>2024-07-25T11:45:49.000Z</time>
</trkpt>
<trkpt lat="46.1016930" lon="10.4483560">
	<ele>1675.00</ele>
	<time>2024-07-25T11:45:50.000Z</time>
</trkpt>
<trkpt lat="46.1016820" lon="10.4483470">
	<ele>1675.20</ele>
	<time>2024-07-25T11:45:51.000Z</time>
</trkpt>
<trkpt lat="46.1016730" lon="10.4483400">
	<ele>1675.20</ele>
	<time>2024-07-25T11:45:52.000Z</time>
</trkpt>
<trkpt lat="46.1016650" lon="10.4483350">
	<ele>1675.20</ele>
	<time>2024-07-25T11:45:53.000Z</time>
</trkpt>
<trkpt lat="46.1016560" lon="10.4483250">
	<ele>1675.20</ele>
	<time>2024-07-25T11:45:54.000Z</time>
</trkpt>
<trkpt lat="46.1016470" lon="10.4483190">
	<ele>1675.40</ele>
	<time>2024-07-25T11:45:55.000Z</time>
</trkpt>
<trkpt lat="46.1016410" lon="10.4483110">
	<ele>1675.40</ele>
	<time>2024-07-25T11:45:56.000Z</time>
</trkpt>
<trkpt lat="46.1016350" lon="10.4482990">
	<ele>1675.40</ele>
	<time>2024-07-25T11:45:57.000Z</time>
</trkpt>
<trkpt lat="46.1016250" lon="10.4482830">
	<ele>1675.40</ele>
	<time>2024-07-25T11:45:58.000Z</time>
</trkpt>
<trkpt lat="46.1016160" lon="10.4482680">
	<ele>1675.40</ele>
	<time>2024-07-25T11:45:59.000Z</time>
</trkpt>
<trkpt lat="46.1016050" lon="10.4482530">
	<ele>1675.40</ele>
	<time>2024-07-25T11:46:00.000Z</time>
</trkpt>
<trkpt lat="46.1015910" lon="10.4482370">
	<ele>1675.40</ele>
	<time>2024-07-25T11:46:01.000Z</time>
</trkpt>
<trkpt lat="46.1015810" lon="10.4482210">
	<ele>1675.40</ele>
	<time>2024-07-25T11:46:02.000Z</time>
</trkpt>
<trkpt lat="46.1015720" lon="10.4482100">
	<ele>1675.40</ele>
	<time>2024-07-25T11:46:03.000Z</time>
</trkpt>
<trkpt lat="46.1015580" lon="10.4481910">
	<ele>1675.40</ele>
	<time>2024-07-25T11:46:04.000Z</time>
</trkpt>
<trkpt lat="46.1015470" lon="10.4481760">
	<ele>1675.40</ele>
	<time>2024-07-25T11:46:05.000Z</time>
</trkpt>
<trkpt lat="46.1015320" lon="10.4481560">
	<ele>1675.40</ele>
	<time>2024-07-25T11:46:06.000Z</time>
</trkpt>
<trkpt lat="46.1015200" lon="10.4481380">
	<ele>1675.40</ele>
	<time>2024-07-25T11:46:07.000Z</time>
</trkpt>
<trkpt lat="46.1015120" lon="10.4481240">
	<ele>1675.40</ele>
	<time>2024-07-25T11:46:08.000Z</time>
</trkpt>
<trkpt lat="46.1015020" lon="10.4481050">
	<ele>1675.20</ele>
	<time>2024-07-25T11:46:09.000Z</time>
</trkpt>
<trkpt lat="46.1014930" lon="10.4480900">
	<ele>1675.20</ele>
	<time>2024-07-25T11:46:10.000Z</time>
</trkpt>
<trkpt lat="46.1014850" lon="10.4480810">
	<ele>1675.20</ele>
	<time>2024-07-25T11:46:11.000Z</time>
</trkpt>
<trkpt lat="46.1014750" lon="10.4480610">
	<ele>1675.20</ele>
	<time>2024-07-25T11:46:12.000Z</time>
</trkpt>
<trkpt lat="46.1014710" lon="10.4480370">
	<ele>1675.20</ele>
	<time>2024-07-25T11:46:13.000Z</time>
</trkpt>
<trkpt lat="46.1014690" lon="10.4480120">
	<ele>1675.20</ele>
	<time>2024-07-25T11:46:14.000Z</time>
</trkpt>
<trkpt lat="46.1014670" lon="10.4479920">
	<ele>1675.20</ele>
	<time>2024-07-25T11:46:15.000Z</time>
</trkpt>
<trkpt lat="46.1014630" lon="10.4479760">
	<ele>1675.40</ele>
	<time>2024-07-25T11:46:16.000Z</time>
</trkpt>
<trkpt lat="46.1014610" lon="10.4479580">
	<ele>1675.40</ele>
	<time>2024-07-25T11:46:17.000Z</time>
</trkpt>
<trkpt lat="46.1014590" lon="10.4479370">
	<ele>1675.60</ele>
	<time>2024-07-25T11:46:18.000Z</time>
</trkpt>
<trkpt lat="46.1014540" lon="10.4479170">
	<ele>1675.60</ele>
	<time>2024-07-25T11:46:19.000Z</time>
</trkpt>
<trkpt lat="46.1014510" lon="10.4479000">
	<ele>1675.60</ele>
	<time>2024-07-25T11:46:20.000Z</time>
</trkpt>
<trkpt lat="46.1014430" lon="10.4478850">
	<ele>1675.40</ele>
	<time>2024-07-25T11:46:21.000Z</time>
</trkpt>
<trkpt lat="46.1014290" lon="10.4478690">
	<ele>1675.40</ele>
	<time>2024-07-25T11:46:22.000Z</time>
</trkpt>
<trkpt lat="46.1014150" lon="10.4478500">
	<ele>1675.40</ele>
	<time>2024-07-25T11:46:23.000Z</time>
</trkpt>
<trkpt lat="46.1014040" lon="10.4478290">
	<ele>1675.40</ele>
	<time>2024-07-25T11:46:24.000Z</time>
</trkpt>
<trkpt lat="46.1013930" lon="10.4478170">
	<ele>1675.20</ele>
	<time>2024-07-25T11:46:25.000Z</time>
</trkpt>
<trkpt lat="46.1013820" lon="10.4478040">
	<ele>1675.20</ele>
	<time>2024-07-25T11:46:26.000Z</time>
</trkpt>
<trkpt lat="46.1013710" lon="10.4477890">
	<ele>1675.20</ele>
	<time>2024-07-25T11:46:27.000Z</time>
</trkpt>
<trkpt lat="46.1013590" lon="10.4477720">
	<ele>1675.20</ele>
	<time>2024-07-25T11:46:28.000Z</time>
</trkpt>
<trkpt lat="46.1013460" lon="10.4477590">
	<ele>1675.00</ele>
	<time>2024-07-25T11:46:29.000Z</time>
</trkpt>
<trkpt lat="46.1013250" lon="10.4477410">
	<ele>1674.80</ele>
	<time>2024-07-25T11:46:30.000Z</time>
</trkpt>
<trkpt lat="46.1013120" lon="10.4477350">
	<ele>1674.60</ele>
	<time>2024-07-25T11:46:31.000Z</time>
</trkpt>
<trkpt lat="46.1012970" lon="10.4477290">
	<ele>1674.60</ele>
	<time>2024-07-25T11:46:32.000Z</time>
</trkpt>
<trkpt lat="46.1012850" lon="10.4477230">
	<ele>1674.40</ele>
	<time>2024-07-25T11:46:33.000Z</time>
</trkpt>
<trkpt lat="46.1012710" lon="10.4477190">
	<ele>1674.20</ele>
	<time>2024-07-25T11:46:34.000Z</time>
</trkpt>
<trkpt lat="46.1012620" lon="10.4477180">
	<ele>1674.00</ele>
	<time>2024-07-25T11:46:35.000Z</time>
</trkpt>
<trkpt lat="46.1012510" lon="10.4477160">
	<ele>1673.80</ele>
	<time>2024-07-25T11:46:36.000Z</time>
</trkpt>
<trkpt lat="46.1012390" lon="10.4477180">
	<ele>1673.80</ele>
	<time>2024-07-25T11:46:37.000Z</time>
</trkpt>
<trkpt lat="46.1012290" lon="10.4477130">
	<ele>1673.60</ele>
	<time>2024-07-25T11:46:38.000Z</time>
</trkpt>
<trkpt lat="46.1012150" lon="10.4477040">
	<ele>1673.60</ele>
	<time>2024-07-25T11:46:39.000Z</time>
</trkpt>
<trkpt lat="46.1011960" lon="10.4476860">
	<ele>1673.40</ele>
	<time>2024-07-25T11:46:40.000Z</time>
</trkpt>
<trkpt lat="46.1011780" lon="10.4476650">
	<ele>1673.00</ele>
	<time>2024-07-25T11:46:41.000Z</time>
</trkpt>
<trkpt lat="46.1011640" lon="10.4476470">
	<ele>1672.80</ele>
	<time>2024-07-25T11:46:42.000Z</time>
</trkpt>
<trkpt lat="46.1011450" lon="10.4476160">
	<ele>1672.80</ele>
	<time>2024-07-25T11:46:43.000Z</time>
</trkpt>
<trkpt lat="46.1011310" lon="10.4476030">
	<ele>1672.60</ele>
	<time>2024-07-25T11:46:44.000Z</time>
</trkpt>
<trkpt lat="46.1011200" lon="10.4475880">
	<ele>1672.60</ele>
	<time>2024-07-25T11:46:45.000Z</time>
</trkpt>
<trkpt lat="46.1011070" lon="10.4475750">
	<ele>1672.40</ele>
	<time>2024-07-25T11:46:46.000Z</time>
</trkpt>
<trkpt lat="46.1010940" lon="10.4475650">
	<ele>1672.20</ele>
	<time>2024-07-25T11:46:47.000Z</time>
</trkpt>
<trkpt lat="46.1010810" lon="10.4475540">
	<ele>1672.00</ele>
	<time>2024-07-25T11:46:48.000Z</time>
</trkpt>
<trkpt lat="46.1010700" lon="10.4475450">
	<ele>1671.80</ele>
	<time>2024-07-25T11:46:49.000Z</time>
</trkpt>
<trkpt lat="46.1010640" lon="10.4475330">
	<ele>1671.60</ele>
	<time>2024-07-25T11:46:50.000Z</time>
</trkpt>
<trkpt lat="46.1010510" lon="10.4475130">
	<ele>1671.60</ele>
	<time>2024-07-25T11:46:51.000Z</time>
</trkpt>
<trkpt lat="46.1010420" lon="10.4475000">
	<ele>1671.40</ele>
	<time>2024-07-25T11:46:52.000Z</time>
</trkpt>
<trkpt lat="46.1010380" lon="10.4474830">
	<ele>1671.40</ele>
	<time>2024-07-25T11:46:53.000Z</time>
</trkpt>
<trkpt lat="46.1010350" lon="10.4474680">
	<ele>1671.40</ele>
	<time>2024-07-25T11:46:54.000Z</time>
</trkpt>
<trkpt lat="46.1010320" lon="10.4474480">
	<ele>1671.20</ele>
	<time>2024-07-25T11:46:55.000Z</time>
</trkpt>
<trkpt lat="46.1010250" lon="10.4474350">
	<ele>1671.20</ele>
	<time>2024-07-25T11:46:56.000Z</time>
</trkpt>
<trkpt lat="46.1010150" lon="10.4474260">
	<ele>1671.20</ele>
	<time>2024-07-25T11:46:57.000Z</time>
</trkpt>
<trkpt lat="46.1010040" lon="10.4474130">
	<ele>1671.00</ele>
	<time>2024-07-25T11:46:58.000Z</time>
</trkpt>
<trkpt lat="46.1009890" lon="10.4474090">
	<ele>1670.80</ele>
	<time>2024-07-25T11:46:59.000Z</time>
</trkpt>
<trkpt lat="46.1009730" lon="10.4474050">
	<ele>1670.60</ele>
	<time>2024-07-25T11:47:00.000Z</time>
</trkpt>
<trkpt lat="46.1009580" lon="10.4474040">
	<ele>1670.40</ele>
	<time>2024-07-25T11:47:01.000Z</time>
</trkpt>
<trkpt lat="46.1009490" lon="10.4474140">
	<ele>1670.40</ele>
	<time>2024-07-25T11:47:02.000Z</time>
</trkpt>
<trkpt lat="46.1009390" lon="10.4474190">
	<ele>1670.20</ele>
	<time>2024-07-25T11:47:03.000Z</time>
</trkpt>
<trkpt lat="46.1009250" lon="10.4474170">
	<ele>1670.20</ele>
	<time>2024-07-25T11:47:04.000Z</time>
</trkpt>
<trkpt lat="46.1009130" lon="10.4474180">
	<ele>1670.20</ele>
	<time>2024-07-25T11:47:05.000Z</time>
</trkpt>
<trkpt lat="46.1008960" lon="10.4474170">
	<ele>1670.20</ele>
	<time>2024-07-25T11:47:06.000Z</time>
</trkpt>
<trkpt lat="46.1008830" lon="10.4474230">
	<ele>1669.60</ele>
	<time>2024-07-25T11:47:07.000Z</time>
</trkpt>
<trkpt lat="46.1008740" lon="10.4474340">
	<ele>1669.40</ele>
	<time>2024-07-25T11:47:08.000Z</time>
</trkpt>
<trkpt lat="46.1008670" lon="10.4474520">
	<ele>1669.20</ele>
	<time>2024-07-25T11:47:09.000Z</time>
</trkpt>
<trkpt lat="46.1008600" lon="10.4474650">
	<ele>1669.20</ele>
	<time>2024-07-25T11:47:10.000Z</time>
</trkpt>
<trkpt lat="46.1008550" lon="10.4474740">
	<ele>1669.00</ele>
	<time>2024-07-25T11:47:11.000Z</time>
</trkpt>
<trkpt lat="46.1008480" lon="10.4474780">
	<ele>1669.00</ele>
	<time>2024-07-25T11:47:12.000Z</time>
</trkpt>
<trkpt lat="46.1008420" lon="10.4474890">
	<ele>1668.80</ele>
	<time>2024-07-25T11:47:13.000Z</time>
</trkpt>
<trkpt lat="46.1008320" lon="10.4474960">
	<ele>1668.60</ele>
	<time>2024-07-25T11:47:14.000Z</time>
</trkpt>
<trkpt lat="46.1008150" lon="10.4474880">
	<ele>1668.40</ele>
	<time>2024-07-25T11:47:15.000Z</time>
</trkpt>
<trkpt lat="46.1008040" lon="10.4474930">
	<ele>1668.40</ele>
	<time>2024-07-25T11:47:16.000Z</time>
</trkpt>
<trkpt lat="46.1007900" lon="10.4474910">
	<ele>1668.20</ele>
	<time>2024-07-25T11:47:17.000Z</time>
</trkpt>
<trkpt lat="46.1007790" lon="10.4475020">
	<ele>1668.20</ele>
	<time>2024-07-25T11:47:18.000Z</time>
</trkpt>
<trkpt lat="46.1007660" lon="10.4475030">
	<ele>1668.20</ele>
	<time>2024-07-25T11:47:19.000Z</time>
</trkpt>
<trkpt lat="46.1007560" lon="10.4475030">
	<ele>1668.00</ele>
	<time>2024-07-25T11:47:20.000Z</time>
</trkpt>
<trkpt lat="46.1007470" lon="10.4475040">
	<ele>1668.00</ele>
	<time>2024-07-25T11:47:21.000Z</time>
</trkpt>
<trkpt lat="46.1007380" lon="10.4475020">
	<ele>1667.80</ele>
	<time>2024-07-25T11:47:22.000Z</time>
</trkpt>
<trkpt lat="46.1007280" lon="10.4474990">
	<ele>1667.80</ele>
	<time>2024-07-25T11:47:23.000Z</time>
</trkpt>
<trkpt lat="46.1007170" lon="10.4474990">
	<ele>1667.60</ele>
	<time>2024-07-25T11:47:24.000Z</time>
</trkpt>
<trkpt lat="46.1007110" lon="10.4475040">
	<ele>1667.40</ele>
	<time>2024-07-25T11:47:25.000Z</time>
</trkpt>
<trkpt lat="46.1007040" lon="10.4474980">
	<ele>1667.00</ele>
	<time>2024-07-25T11:47:26.000Z</time>
</trkpt>
<trkpt lat="46.1006930" lon="10.4474880">
	<ele>1666.80</ele>
	<time>2024-07-25T11:47:27.000Z</time>
</trkpt>
<trkpt lat="46.1006820" lon="10.4474740">
	<ele>1666.40</ele>
	<time>2024-07-25T11:47:28.000Z</time>
</trkpt>
<trkpt lat="46.1006680" lon="10.4474540">
	<ele>1666.20</ele>
	<time>2024-07-25T11:47:29.000Z</time>
</trkpt>
<trkpt lat="46.1006540" lon="10.4474350">
	<ele>1666.00</ele>
	<time>2024-07-25T11:47:30.000Z</time>
</trkpt>
<trkpt lat="46.1006390" lon="10.4474150">
	<ele>1665.80</ele>
	<time>2024-07-25T11:47:31.000Z</time>
</trkpt>
<trkpt lat="46.1006270" lon="10.4474050">
	<ele>1665.60</ele>
	<time>2024-07-25T11:47:32.000Z</time>
</trkpt>
<trkpt lat="46.1006160" lon="10.4473970">
	<ele>1665.40</ele>
	<time>2024-07-25T11:47:33.000Z</time>
</trkpt>
<trkpt lat="46.1006150" lon="10.4473950">
	<ele>1665.20</ele>
	<time>2024-07-25T11:47:34.000Z</time>
</trkpt>
<trkpt lat="46.1006160" lon="10.4473990">
	<ele>1665.00</ele>
	<time>2024-07-25T11:47:35.000Z</time>
</trkpt>
<trkpt lat="46.1006130" lon="10.4473980">
	<ele>1664.80</ele>
	<time>2024-07-25T11:47:36.000Z</time>
</trkpt>
<trkpt lat="46.1006110" lon="10.4473890">
	<ele>1664.80</ele>
	<time>2024-07-25T11:47:37.000Z</time>
</trkpt>
<trkpt lat="46.1006080" lon="10.4473820">
	<ele>1664.80</ele>
	<time>2024-07-25T11:47:38.000Z</time>
</trkpt>
<trkpt lat="46.1006030" lon="10.4473690">
	<ele>1664.80</ele>
	<time>2024-07-25T11:47:39.000Z</time>
</trkpt>
<trkpt lat="46.1005950" lon="10.4473560">
	<ele>1664.60</ele>
	<time>2024-07-25T11:47:40.000Z</time>
</trkpt>
<trkpt lat="46.1005890" lon="10.4473510">
	<ele>1664.40</ele>
	<time>2024-07-25T11:47:41.000Z</time>
</trkpt>
<trkpt lat="46.1005870" lon="10.4473450">
	<ele>1664.20</ele>
	<time>2024-07-25T11:47:42.000Z</time>
</trkpt>
<trkpt lat="46.1005830" lon="10.4473430">
	<ele>1664.00</ele>
	<time>2024-07-25T11:47:43.000Z</time>
</trkpt>
<trkpt lat="46.1005860" lon="10.4473390">
	<ele>1663.80</ele>
	<time>2024-07-25T11:47:44.000Z</time>
</trkpt>
<trkpt lat="46.1005870" lon="10.4473390">
	<ele>1663.40</ele>
	<time>2024-07-25T11:47:45.000Z</time>
</trkpt>
<trkpt lat="46.1005850" lon="10.4473350">
	<ele>1663.00</ele>
	<time>2024-07-25T11:47:46.000Z</time>
</trkpt>
<trkpt lat="46.1005830" lon="10.4473330">
	<ele>1662.80</ele>
	<time>2024-07-25T11:47:47.000Z</time>
</trkpt>
<trkpt lat="46.1005800" lon="10.4473260">
	<ele>1662.60</ele>
	<time>2024-07-25T11:47:48.000Z</time>
</trkpt>
<trkpt lat="46.1005740" lon="10.4473170">
	<ele>1662.60</ele>
	<time>2024-07-25T11:47:49.000Z</time>
</trkpt>
<trkpt lat="46.1005640" lon="10.4473000">
	<ele>1662.40</ele>
	<time>2024-07-25T11:47:50.000Z</time>
</trkpt>
<trkpt lat="46.1005650" lon="10.4472930">
	<ele>1662.00</ele>
	<time>2024-07-25T11:47:51.000Z</time>
</trkpt>
<trkpt lat="46.1005600" lon="10.4472800">
	<ele>1661.80</ele>
	<time>2024-07-25T11:47:52.000Z</time>
</trkpt>
<trkpt lat="46.1005570" lon="10.4472660">
	<ele>1661.40</ele>
	<time>2024-07-25T11:47:53.000Z</time>
</trkpt>
<trkpt lat="46.1005560" lon="10.4472570">
	<ele>1661.20</ele>
	<time>2024-07-25T11:47:54.000Z</time>
</trkpt>
<trkpt lat="46.1005510" lon="10.4472490">
	<ele>1660.80</ele>
	<time>2024-07-25T11:47:55.000Z</time>
</trkpt>
<trkpt lat="46.1005510" lon="10.4472390">
	<ele>1660.60</ele>
	<time>2024-07-25T11:47:56.000Z</time>
</trkpt>
<trkpt lat="46.1005490" lon="10.4472250">
	<ele>1660.40</ele>
	<time>2024-07-25T11:47:57.000Z</time>
</trkpt>
<trkpt lat="46.1005440" lon="10.4472050">
	<ele>1660.20</ele>
	<time>2024-07-25T11:47:58.000Z</time>
</trkpt>
<trkpt lat="46.1005380" lon="10.4471840">
	<ele>1660.00</ele>
	<time>2024-07-25T11:47:59.000Z</time>
</trkpt>
<trkpt lat="46.1005360" lon="10.4471710">
	<ele>1659.80</ele>
	<time>2024-07-25T11:48:00.000Z</time>
</trkpt>
<trkpt lat="46.1005340" lon="10.4471590">
	<ele>1659.60</ele>
	<time>2024-07-25T11:48:01.000Z</time>
</trkpt>
<trkpt lat="46.1005310" lon="10.4471480">
	<ele>1659.20</ele>
	<time>2024-07-25T11:48:02.000Z</time>
</trkpt>
<trkpt lat="46.1005250" lon="10.4471300">
	<ele>1659.20</ele>
	<time>2024-07-25T11:48:03.000Z</time>
</trkpt>
<trkpt lat="46.1005200" lon="10.4471120">
	<ele>1658.80</ele>
	<time>2024-07-25T11:48:04.000Z</time>
</trkpt>
<trkpt lat="46.1005150" lon="10.4470990">
	<ele>1658.60</ele>
	<time>2024-07-25T11:48:05.000Z</time>
</trkpt>
<trkpt lat="46.1005130" lon="10.4470820">
	<ele>1658.60</ele>
	<time>2024-07-25T11:48:06.000Z</time>
</trkpt>
<trkpt lat="46.1005140" lon="10.4470700">
	<ele>1658.40</ele>
	<time>2024-07-25T11:48:07.000Z</time>
</trkpt>
<trkpt lat="46.1005080" lon="10.4470520">
	<ele>1658.00</ele>
	<time>2024-07-25T11:48:08.000Z</time>
</trkpt>
<trkpt lat="46.1005090" lon="10.4470390">
	<ele>1657.80</ele>
	<time>2024-07-25T11:48:09.000Z</time>
</trkpt>
<trkpt lat="46.1005070" lon="10.4470250">
	<ele>1657.40</ele>
	<time>2024-07-25T11:48:10.000Z</time>
</trkpt>
<trkpt lat="46.1005090" lon="10.4470230">
	<ele>1656.80</ele>
	<time>2024-07-25T11:48:11.000Z</time>
</trkpt>
<trkpt lat="46.1005090" lon="10.4470150">
	<ele>1656.40</ele>
	<time>2024-07-25T11:48:12.000Z</time>
</trkpt>
<trkpt lat="46.1005100" lon="10.4470040">
	<ele>1656.00</ele>
	<time>2024-07-25T11:48:13.000Z</time>
</trkpt>
<trkpt lat="46.1005110" lon="10.4469880">
	<ele>1655.80</ele>
	<time>2024-07-25T11:48:14.000Z</time>
</trkpt>
<trkpt lat="46.1005080" lon="10.4469740">
	<ele>1655.40</ele>
	<time>2024-07-25T11:48:15.000Z</time>
</trkpt>
<trkpt lat="46.1005040" lon="10.4469570">
	<ele>1655.40</ele>
	<time>2024-07-25T11:48:16.000Z</time>
</trkpt>
<trkpt lat="46.1004950" lon="10.4469340">
	<ele>1655.20</ele>
	<time>2024-07-25T11:48:17.000Z</time>
</trkpt>
<trkpt lat="46.1004900" lon="10.4469000">
	<ele>1655.20</ele>
	<time>2024-07-25T11:48:18.000Z</time>
</trkpt>
<trkpt lat="46.1004850" lon="10.4468640">
	<ele>1655.20</ele>
	<time>2024-07-25T11:48:19.000Z</time>
</trkpt>
<trkpt lat="46.1004750" lon="10.4468240">
	<ele>1655.20</ele>
	<time>2024-07-25T11:48:20.000Z</time>
</trkpt>
<trkpt lat="46.1004690" lon="10.4467960">
	<ele>1655.20</ele>
	<time>2024-07-25T11:48:21.000Z</time>
</trkpt>
<trkpt lat="46.1004590" lon="10.4467750">
	<ele>1655.00</ele>
	<time>2024-07-25T11:48:22.000Z</time>
</trkpt>
<trkpt lat="46.1004500" lon="10.4467430">
	<ele>1654.80</ele>
	<time>2024-07-25T11:48:23.000Z</time>
</trkpt>
<trkpt lat="46.1004580" lon="10.4467480">
	<ele>1654.80</ele>
	<time>2024-07-25T11:48:24.000Z</time>
</trkpt>
<trkpt lat="46.1004640" lon="10.4467460">
	<ele>1654.80</ele>
	<time>2024-07-25T11:48:25.000Z</time>
</trkpt>
<trkpt lat="46.1004580" lon="10.4467400">
	<ele>1654.60</ele>
	<time>2024-07-25T11:48:26.000Z</time>
</trkpt>
<trkpt lat="46.1004580" lon="10.4467360">
	<ele>1654.40</ele>
	<time>2024-07-25T11:48:27.000Z</time>
</trkpt>
<trkpt lat="46.1004490" lon="10.4467170">
	<ele>1654.20</ele>
	<time>2024-07-25T11:48:28.000Z</time>
</trkpt>
<trkpt lat="46.1004410" lon="10.4467020">
	<ele>1654.00</ele>
	<time>2024-07-25T11:48:29.000Z</time>
</trkpt>
<trkpt lat="46.1004350" lon="10.4466910">
	<ele>1653.60</ele>
	<time>2024-07-25T11:48:30.000Z</time>
</trkpt>
<trkpt lat="46.1004240" lon="10.4466750">
	<ele>1653.40</ele>
	<time>2024-07-25T11:48:31.000Z</time>
</trkpt>
<trkpt lat="46.1004180" lon="10.4466600">
	<ele>1653.20</ele>
	<time>2024-07-25T11:48:32.000Z</time>
</trkpt>
<trkpt lat="46.1004120" lon="10.4466400">
	<ele>1653.00</ele>
	<time>2024-07-25T11:48:33.000Z</time>
</trkpt>
<trkpt lat="46.1004000" lon="10.4466200">
	<ele>1652.60</ele>
	<time>2024-07-25T11:48:34.000Z</time>
</trkpt>
<trkpt lat="46.1003870" lon="10.4466040">
	<ele>1652.40</ele>
	<time>2024-07-25T11:48:35.000Z</time>
</trkpt>
<trkpt lat="46.1003750" lon="10.4465870">
	<ele>1652.00</ele>
	<time>2024-07-25T11:48:36.000Z</time>
</trkpt>
<trkpt lat="46.1003660" lon="10.4465670">
	<ele>1652.00</ele>
	<time>2024-07-25T11:48:37.000Z</time>
</trkpt>
<trkpt lat="46.1003580" lon="10.4465490">
	<ele>1651.80</ele>
	<time>2024-07-25T11:48:38.000Z</time>
</trkpt>
<trkpt lat="46.1003480" lon="10.4465310">
	<ele>1651.80</ele>
	<time>2024-07-25T11:48:39.000Z</time>
</trkpt>
<trkpt lat="46.1003320" lon="10.4465180">
	<ele>1651.40</ele>
	<time>2024-07-25T11:48:40.000Z</time>
</trkpt>
<trkpt lat="46.1003090" lon="10.4465060">
	<ele>1651.00</ele>
	<time>2024-07-25T11:48:41.000Z</time>
</trkpt>
<trkpt lat="46.1002880" lon="10.4464840">
	<ele>1650.80</ele>
	<time>2024-07-25T11:48:42.000Z</time>
</trkpt>
<trkpt lat="46.1002730" lon="10.4464600">
	<ele>1650.60</ele>
	<time>2024-07-25T11:48:43.000Z</time>
</trkpt>
<trkpt lat="46.1002610" lon="10.4464390">
	<ele>1650.60</ele>
	<time>2024-07-25T11:48:44.000Z</time>
</trkpt>
<trkpt lat="46.1002490" lon="10.4464260">
	<ele>1650.40</ele>
	<time>2024-07-25T11:48:45.000Z</time>
</trkpt>
<trkpt lat="46.1002380" lon="10.4464070">
	<ele>1650.40</ele>
	<time>2024-07-25T11:48:46.000Z</time>
</trkpt>
<trkpt lat="46.1002260" lon="10.4463890">
	<ele>1650.40</ele>
	<time>2024-07-25T11:48:47.000Z</time>
</trkpt>
<trkpt lat="46.1002110" lon="10.4463750">
	<ele>1650.20</ele>
	<time>2024-07-25T11:48:48.000Z</time>
</trkpt>
<trkpt lat="46.1001980" lon="10.4463550">
	<ele>1650.00</ele>
	<time>2024-07-25T11:48:49.000Z</time>
</trkpt>
<trkpt lat="46.1001860" lon="10.4463370">
	<ele>1649.80</ele>
	<time>2024-07-25T11:48:50.000Z</time>
</trkpt>
<trkpt lat="46.1001780" lon="10.4463170">
	<ele>1649.80</ele>
	<time>2024-07-25T11:48:51.000Z</time>
</trkpt>
<trkpt lat="46.1001700" lon="10.4463000">
	<ele>1649.60</ele>
	<time>2024-07-25T11:48:52.000Z</time>
</trkpt>
<trkpt lat="46.1001640" lon="10.4462820">
	<ele>1649.40</ele>
	<time>2024-07-25T11:48:53.000Z</time>
</trkpt>
<trkpt lat="46.1001530" lon="10.4462620">
	<ele>1649.40</ele>
	<time>2024-07-25T11:48:54.000Z</time>
</trkpt>
<trkpt lat="46.1001500" lon="10.4462480">
	<ele>1649.20</ele>
	<time>2024-07-25T11:48:55.000Z</time>
</trkpt>
<trkpt lat="46.1001480" lon="10.4462350">
	<ele>1649.00</ele>
	<time>2024-07-25T11:48:56.000Z</time>
</trkpt>
<trkpt lat="46.1001490" lon="10.4462230">
	<ele>1649.00</ele>
	<time>2024-07-25T11:48:57.000Z</time>
</trkpt>
<trkpt lat="46.1001560" lon="10.4462090">
	<ele>1648.80</ele>
	<time>2024-07-25T11:48:58.000Z</time>
</trkpt>
<trkpt lat="46.1001580" lon="10.4461930">
	<ele>1648.80</ele>
	<time>2024-07-25T11:48:59.000Z</time>
</trkpt>
<trkpt lat="46.1001630" lon="10.4461770">
	<ele>1648.60</ele>
	<time>2024-07-25T11:49:00.000Z</time>
</trkpt>
<trkpt lat="46.1001660" lon="10.4461580">
	<ele>1648.60</ele>
	<time>2024-07-25T11:49:01.000Z</time>
</trkpt>
<trkpt lat="46.1001740" lon="10.4461420">
	<ele>1648.40</ele>
	<time>2024-07-25T11:49:02.000Z</time>
</trkpt>
<trkpt lat="46.1001790" lon="10.4461280">
	<ele>1648.40</ele>
	<time>2024-07-25T11:49:03.000Z</time>
</trkpt>
<trkpt lat="46.1001810" lon="10.4461130">
	<ele>1648.20</ele>
	<time>2024-07-25T11:49:04.000Z</time>
</trkpt>
<trkpt lat="46.1001860" lon="10.4460940">
	<ele>1648.00</ele>
	<time>2024-07-25T11:49:05.000Z</time>
</trkpt>
<trkpt lat="46.1001910" lon="10.4460780">
	<ele>1647.80</ele>
	<time>2024-07-25T11:49:06.000Z</time>
</trkpt>
<trkpt lat="46.1001980" lon="10.4460670">
	<ele>1647.60</ele>
	<time>2024-07-25T11:49:07.000Z</time>
</trkpt>
<trkpt lat="46.1002050" lon="10.4460540">
	<ele>1647.20</ele>
	<time>2024-07-25T11:49:08.000Z</time>
</trkpt>
<trkpt lat="46.1002100" lon="10.4460350">
	<ele>1647.20</ele>
	<time>2024-07-25T11:49:09.000Z</time>
</trkpt>
<trkpt lat="46.1002120" lon="10.4460130">
	<ele>1647.00</ele>
	<time>2024-07-25T11:49:10.000Z</time>
</trkpt>
<trkpt lat="46.1002140" lon="10.4459890">
	<ele>1647.00</ele>
	<time>2024-07-25T11:49:11.000Z</time>
</trkpt>
<trkpt lat="46.1002150" lon="10.4459670">
	<ele>1646.80</ele>
	<time>2024-07-25T11:49:12.000Z</time>
</trkpt>
<trkpt lat="46.1002160" lon="10.4459470">
	<ele>1646.80</ele>
	<time>2024-07-25T11:49:13.000Z</time>
</trkpt>
<trkpt lat="46.1002170" lon="10.4459260">
	<ele>1646.60</ele>
	<time>2024-07-25T11:49:14.000Z</time>
</trkpt>
<trkpt lat="46.1002200" lon="10.4459090">
	<ele>1646.40</ele>
	<time>2024-07-25T11:49:15.000Z</time>
</trkpt>
<trkpt lat="46.1002240" lon="10.4458870">
	<ele>1646.20</ele>
	<time>2024-07-25T11:49:16.000Z</time>
</trkpt>
<trkpt lat="46.1002260" lon="10.4458700">
	<ele>1646.00</ele>
	<time>2024-07-25T11:49:17.000Z</time>
</trkpt>
<trkpt lat="46.1002290" lon="10.4458520">
	<ele>1646.00</ele>
	<time>2024-07-25T11:49:18.000Z</time>
</trkpt>
<trkpt lat="46.1002290" lon="10.4458330">
	<ele>1645.80</ele>
	<time>2024-07-25T11:49:19.000Z</time>
</trkpt>
<trkpt lat="46.1002290" lon="10.4458170">
	<ele>1645.60</ele>
	<time>2024-07-25T11:49:20.000Z</time>
</trkpt>
<trkpt lat="46.1002290" lon="10.4457990">
	<ele>1645.40</ele>
	<time>2024-07-25T11:49:21.000Z</time>
</trkpt>
<trkpt lat="46.1002330" lon="10.4457810">
	<ele>1645.20</ele>
	<time>2024-07-25T11:49:22.000Z</time>
</trkpt>
<trkpt lat="46.1002340" lon="10.4457640">
	<ele>1645.00</ele>
	<time>2024-07-25T11:49:23.000Z</time>
</trkpt>
<trkpt lat="46.1002340" lon="10.4457480">
	<ele>1644.80</ele>
	<time>2024-07-25T11:49:24.000Z</time>
</trkpt>
<trkpt lat="46.1002330" lon="10.4457300">
	<ele>1644.40</ele>
	<time>2024-07-25T11:49:25.000Z</time>
</trkpt>
<trkpt lat="46.1002330" lon="10.4457100">
	<ele>1644.20</ele>
	<time>2024-07-25T11:49:26.000Z</time>
</trkpt>
<trkpt lat="46.1002330" lon="10.4456930">
	<ele>1643.80</ele>
	<time>2024-07-25T11:49:27.000Z</time>
</trkpt>
<trkpt lat="46.1002320" lon="10.4456790">
	<ele>1643.40</ele>
	<time>2024-07-25T11:49:28.000Z</time>
</trkpt>
<trkpt lat="46.1002340" lon="10.4456640">
	<ele>1643.20</ele>
	<time>2024-07-25T11:49:29.000Z</time>
</trkpt>
<trkpt lat="46.1002360" lon="10.4456480">
	<ele>1642.80</ele>
	<time>2024-07-25T11:49:30.000Z</time>
</trkpt>
<trkpt lat="46.1002350" lon="10.4456320">
	<ele>1642.60</ele>
	<time>2024-07-25T11:49:31.000Z</time>
</trkpt>
<trkpt lat="46.1002310" lon="10.4456130">
	<ele>1642.40</ele>
	<time>2024-07-25T11:49:32.000Z</time>
</trkpt>
<trkpt lat="46.1002300" lon="10.4455970">
	<ele>1642.00</ele>
	<time>2024-07-25T11:49:33.000Z</time>
</trkpt>
<trkpt lat="46.1002310" lon="10.4455810">
	<ele>1641.80</ele>
	<time>2024-07-25T11:49:34.000Z</time>
</trkpt>
<trkpt lat="46.1002340" lon="10.4455650">
	<ele>1641.40</ele>
	<time>2024-07-25T11:49:35.000Z</time>
</trkpt>
<trkpt lat="46.1002350" lon="10.4455500">
	<ele>1641.00</ele>
	<time>2024-07-25T11:49:36.000Z</time>
</trkpt>
<trkpt lat="46.1002320" lon="10.4455320">
	<ele>1640.80</ele>
	<time>2024-07-25T11:49:37.000Z</time>
</trkpt>
<trkpt lat="46.1002290" lon="10.4455140">
	<ele>1640.80</ele>
	<time>2024-07-25T11:49:38.000Z</time>
</trkpt>
<trkpt lat="46.1002210" lon="10.4454960">
	<ele>1640.60</ele>
	<time>2024-07-25T11:49:39.000Z</time>
</trkpt>
<trkpt lat="46.1002150" lon="10.4454780">
	<ele>1640.40</ele>
	<time>2024-07-25T11:49:40.000Z</time>
</trkpt>
<trkpt lat="46.1002090" lon="10.4454590">
	<ele>1640.20</ele>
	<time>2024-07-25T11:49:41.000Z</time>
</trkpt>
<trkpt lat="46.1002090" lon="10.4454430">
	<ele>1640.00</ele>
	<time>2024-07-25T11:49:42.000Z</time>
</trkpt>
<trkpt lat="46.1002070" lon="10.4454260">
	<ele>1639.80</ele>
	<time>2024-07-25T11:49:43.000Z</time>
</trkpt>
<trkpt lat="46.1002060" lon="10.4454090">
	<ele>1639.60</ele>
	<time>2024-07-25T11:49:44.000Z</time>
</trkpt>
<trkpt lat="46.1002020" lon="10.4453930">
	<ele>1639.60</ele>
	<time>2024-07-25T11:49:45.000Z</time>
</trkpt>
<trkpt lat="46.1001980" lon="10.4453780">
	<ele>1639.20</ele>
	<time>2024-07-25T11:49:46.000Z</time>
</trkpt>
<trkpt lat="46.1001910" lon="10.4453650">
	<ele>1638.80</ele>
	<time>2024-07-25T11:49:47.000Z</time>
</trkpt>
<trkpt lat="46.1001860" lon="10.4453510">
	<ele>1638.60</ele>
	<time>2024-07-25T11:49:48.000Z</time>
</trkpt>
<trkpt lat="46.1001790" lon="10.4453310">
	<ele>1638.40</ele>
	<time>2024-07-25T11:49:49.000Z</time>
</trkpt>
<trkpt lat="46.1001690" lon="10.4453120">
	<ele>1638.20</ele>
	<time>2024-07-25T11:49:50.000Z</time>
</trkpt>
<trkpt lat="46.1001600" lon="10.4452990">
	<ele>1638.00</ele>
	<time>2024-07-25T11:49:51.000Z</time>
</trkpt>
<trkpt lat="46.1001580" lon="10.4452860">
	<ele>1638.00</ele>
	<time>2024-07-25T11:49:52.000Z</time>
</trkpt>
<trkpt lat="46.1001590" lon="10.4452760">
	<ele>1637.80</ele>
	<time>2024-07-25T11:49:53.000Z</time>
</trkpt>
<trkpt lat="46.1001570" lon="10.4452660">
	<ele>1637.60</ele>
	<time>2024-07-25T11:49:54.000Z</time>
</trkpt>
<trkpt lat="46.1001510" lon="10.4452510">
	<ele>1637.60</ele>
	<time>2024-07-25T11:49:55.000Z</time>
</trkpt>
<trkpt lat="46.1001380" lon="10.4452270">
	<ele>1637.40</ele>
	<time>2024-07-25T11:49:56.000Z</time>
</trkpt>
<trkpt lat="46.1001230" lon="10.4452070">
	<ele>1637.20</ele>
	<time>2024-07-25T11:49:57.000Z</time>
</trkpt>
<trkpt lat="46.1001200" lon="10.4451870">
	<ele>1637.00</ele>
	<time>2024-07-25T11:49:58.000Z</time>
</trkpt>
<trkpt lat="46.1001170" lon="10.4451680">
	<ele>1636.60</ele>
	<time>2024-07-25T11:49:59.000Z</time>
</trkpt>
<trkpt lat="46.1001130" lon="10.4451480">
	<ele>1636.40</ele>
	<time>2024-07-25T11:50:00.000Z</time>
</trkpt>
<trkpt lat="46.1001100" lon="10.4451280">
	<ele>1635.80</ele>
	<time>2024-07-25T11:50:01.000Z</time>
</trkpt>
<trkpt lat="46.1001050" lon="10.4451060">
	<ele>1635.40</ele>
	<time>2024-07-25T11:50:02.000Z</time>
</trkpt>
<trkpt lat="46.1000960" lon="10.4450820">
	<ele>1635.20</ele>
	<time>2024-07-25T11:50:03.000Z</time>
</trkpt>
<trkpt lat="46.1000880" lon="10.4450650">
	<ele>1634.80</ele>
	<time>2024-07-25T11:50:04.000Z</time>
</trkpt>
<trkpt lat="46.1000830" lon="10.4450490">
	<ele>1634.60</ele>
	<time>2024-07-25T11:50:05.000Z</time>
</trkpt>
<trkpt lat="46.1000770" lon="10.4450300">
	<ele>1634.60</ele>
	<time>2024-07-25T11:50:06.000Z</time>
</trkpt>
<trkpt lat="46.1000710" lon="10.4450100">
	<ele>1634.20</ele>
	<time>2024-07-25T11:50:07.000Z</time>
</trkpt>
<trkpt lat="46.1000640" lon="10.4449880">
	<ele>1634.20</ele>
	<time>2024-07-25T11:50:08.000Z</time>
</trkpt>
<trkpt lat="46.1000590" lon="10.4449640">
	<ele>1633.80</ele>
	<time>2024-07-25T11:50:09.000Z</time>
</trkpt>
<trkpt lat="46.1000540" lon="10.4449440">
	<ele>1633.60</ele>
	<time>2024-07-25T11:50:10.000Z</time>
</trkpt>
<trkpt lat="46.1000440" lon="10.4449240">
	<ele>1633.40</ele>
	<time>2024-07-25T11:50:11.000Z</time>
</trkpt>
<trkpt lat="46.1000360" lon="10.4449020">
	<ele>1633.00</ele>
	<time>2024-07-25T11:50:12.000Z</time>
</trkpt>
<trkpt lat="46.1000320" lon="10.4448820">
	<ele>1632.80</ele>
	<time>2024-07-25T11:50:13.000Z</time>
</trkpt>
<trkpt lat="46.1000250" lon="10.4448630">
	<ele>1632.80</ele>
	<time>2024-07-25T11:50:14.000Z</time>
</trkpt>
<trkpt lat="46.1000200" lon="10.4448450">
	<ele>1632.60</ele>
	<time>2024-07-25T11:50:15.000Z</time>
</trkpt>
<trkpt lat="46.1000160" lon="10.4448270">
	<ele>1632.60</ele>
	<time>2024-07-25T11:50:16.000Z</time>
</trkpt>
<trkpt lat="46.1000140" lon="10.4448140">
	<ele>1632.40</ele>
	<time>2024-07-25T11:50:17.000Z</time>
</trkpt>
<trkpt lat="46.1000100" lon="10.4447910">
	<ele>1632.40</ele>
	<time>2024-07-25T11:50:18.000Z</time>
</trkpt>
<trkpt lat="46.1000040" lon="10.4447760">
	<ele>1632.40</ele>
	<time>2024-07-25T11:50:19.000Z</time>
</trkpt>
<trkpt lat="46.0999950" lon="10.4447600">
	<ele>1632.20</ele>
	<time>2024-07-25T11:50:20.000Z</time>
</trkpt>
<trkpt lat="46.0999870" lon="10.4447470">
	<ele>1632.20</ele>
	<time>2024-07-25T11:50:21.000Z</time>
</trkpt>
<trkpt lat="46.0999750" lon="10.4447310">
	<ele>1632.00</ele>
	<time>2024-07-25T11:50:22.000Z</time>
</trkpt>
<trkpt lat="46.0999640" lon="10.4447170">
	<ele>1632.00</ele>
	<time>2024-07-25T11:50:23.000Z</time>
</trkpt>
<trkpt lat="46.0999550" lon="10.4447040">
	<ele>1631.80</ele>
	<time>2024-07-25T11:50:24.000Z</time>
</trkpt>
<trkpt lat="46.0999430" lon="10.4446870">
	<ele>1631.60</ele>
	<time>2024-07-25T11:50:25.000Z</time>
</trkpt>
<trkpt lat="46.0999360" lon="10.4446760">
	<ele>1631.60</ele>
	<time>2024-07-25T11:50:26.000Z</time>
</trkpt>
<trkpt lat="46.0999220" lon="10.4446570">
	<ele>1631.40</ele>
	<time>2024-07-25T11:50:27.000Z</time>
</trkpt>
<trkpt lat="46.0999080" lon="10.4446460">
	<ele>1631.40</ele>
	<time>2024-07-25T11:50:28.000Z</time>
</trkpt>
<trkpt lat="46.0998960" lon="10.4446320">
	<ele>1631.20</ele>
	<time>2024-07-25T11:50:29.000Z</time>
</trkpt>
<trkpt lat="46.0998850" lon="10.4446220">
	<ele>1631.20</ele>
	<time>2024-07-25T11:50:30.000Z</time>
</trkpt>
<trkpt lat="46.0998680" lon="10.4446040">
	<ele>1631.00</ele>
	<time>2024-07-25T11:50:31.000Z</time>
</trkpt>
<trkpt lat="46.0998560" lon="10.4445890">
	<ele>1631.00</ele>
	<time>2024-07-25T11:50:32.000Z</time>
</trkpt>
<trkpt lat="46.0998420" lon="10.4445680">
	<ele>1630.80</ele>
	<time>2024-07-25T11:50:33.000Z</time>
</trkpt>
<trkpt lat="46.0998260" lon="10.4445470">
	<ele>1630.60</ele>
	<time>2024-07-25T11:50:34.000Z</time>
</trkpt>
<trkpt lat="46.0998110" lon="10.4445230">
	<ele>1630.40</ele>
	<time>2024-07-25T11:50:35.000Z</time>
</trkpt>
<trkpt lat="46.0997970" lon="10.4445100">
	<ele>1630.40</ele>
	<time>2024-07-25T11:50:36.000Z</time>
</trkpt>
<trkpt lat="46.0997870" lon="10.4445030">
	<ele>1630.40</ele>
	<time>2024-07-25T11:50:37.000Z</time>
</trkpt>
<trkpt lat="46.0997760" lon="10.4444960">
	<ele>1630.20</ele>
	<time>2024-07-25T11:50:38.000Z</time>
</trkpt>
<trkpt lat="46.0997640" lon="10.4444890">
	<ele>1630.20</ele>
	<time>2024-07-25T11:50:39.000Z</time>
</trkpt>
<trkpt lat="46.0997540" lon="10.4444800">
	<ele>1630.20</ele>
	<time>2024-07-25T11:50:40.000Z</time>
</trkpt>
<trkpt lat="46.0997450" lon="10.4444710">
	<ele>1630.00</ele>
	<time>2024-07-25T11:50:41.000Z</time>
</trkpt>
<trkpt lat="46.0997380" lon="10.4444640">
	<ele>1629.80</ele>
	<time>2024-07-25T11:50:42.000Z</time>
</trkpt>
<trkpt lat="46.0997300" lon="10.4444560">
	<ele>1629.60</ele>
	<time>2024-07-25T11:50:43.000Z</time>
</trkpt>
<trkpt lat="46.0997220" lon="10.4444510">
	<ele>1629.40</ele>
	<time>2024-07-25T11:50:44.000Z</time>
</trkpt>
<trkpt lat="46.0997140" lon="10.4444450">
	<ele>1629.20</ele>
	<time>2024-07-25T11:50:45.000Z</time>
</trkpt>
<trkpt lat="46.0997110" lon="10.4444450">
	<ele>1629.00</ele>
	<time>2024-07-25T11:50:46.000Z</time>
</trkpt>
<trkpt lat="46.0997110" lon="10.4444500">
	<ele>1629.00</ele>
	<time>2024-07-25T11:50:47.000Z</time>
</trkpt>
<trkpt lat="46.0996970" lon="10.4444420">
	<ele>1628.80</ele>
	<time>2024-07-25T11:50:48.000Z</time>
</trkpt>
<trkpt lat="46.0996820" lon="10.4444260">
	<ele>1628.60</ele>
	<time>2024-07-25T11:50:49.000Z</time>
</trkpt>
<trkpt lat="46.0996690" lon="10.4444180">
	<ele>1628.60</ele>
	<time>2024-07-25T11:50:50.000Z</time>
</trkpt>
<trkpt lat="46.0996600" lon="10.4444130">
	<ele>1628.60</ele>
	<time>2024-07-25T11:50:51.000Z</time>
</trkpt>
<trkpt lat="46.0996520" lon="10.4444050">
	<ele>1628.40</ele>
	<time>2024-07-25T11:50:52.000Z</time>
</trkpt>
<trkpt lat="46.0996500" lon="10.4444010">
	<ele>1628.40</ele>
	<time>2024-07-25T11:50:53.000Z</time>
</trkpt>
<trkpt lat="46.0996470" lon="10.4443910">
	<ele>1628.20</ele>
	<time>2024-07-25T11:50:54.000Z</time>
</trkpt>
<trkpt lat="46.0996370" lon="10.4443750">
	<ele>1628.20</ele>
	<time>2024-07-25T11:50:55.000Z</time>
</trkpt>
<trkpt lat="46.0996200" lon="10.4443520">
	<ele>1628.00</ele>
	<time>2024-07-25T11:50:56.000Z</time>
</trkpt>
<trkpt lat="46.0996030" lon="10.4443330">
	<ele>1627.80</ele>
	<time>2024-07-25T11:50:57.000Z</time>
</trkpt>
<trkpt lat="46.0995900" lon="10.4443230">
	<ele>1627.60</ele>
	<time>2024-07-25T11:50:58.000Z</time>
</trkpt>
<trkpt lat="46.0995780" lon="10.4443210">
	<ele>1627.60</ele>
	<time>2024-07-25T11:50:59.000Z</time>
</trkpt>
<trkpt lat="46.0995650" lon="10.4443160">
	<ele>1627.60</ele>
	<time>2024-07-25T11:51:00.000Z</time>
</trkpt>
<trkpt lat="46.0995540" lon="10.4443140">
	<ele>1627.40</ele>
	<time>2024-07-25T11:51:01.000Z</time>
</trkpt>
<trkpt lat="46.0995430" lon="10.4443090">
	<ele>1627.40</ele>
	<time>2024-07-25T11:51:02.000Z</time>
</trkpt>
<trkpt lat="46.0995330" lon="10.4443050">
	<ele>1627.40</ele>
	<time>2024-07-25T11:51:03.000Z</time>
</trkpt>
<trkpt lat="46.0995230" lon="10.4443000">
	<ele>1627.20</ele>
	<time>2024-07-25T11:51:04.000Z</time>
</trkpt>
<trkpt lat="46.0995120" lon="10.4442890">
	<ele>1627.20</ele>
	<time>2024-07-25T11:51:05.000Z</time>
</trkpt>
<trkpt lat="46.0995000" lon="10.4442740">
	<ele>1627.20</ele>
	<time>2024-07-25T11:51:06.000Z</time>
</trkpt>
<trkpt lat="46.0994890" lon="10.4442580">
	<ele>1627.00</ele>
	<time>2024-07-25T11:51:07.000Z</time>
</trkpt>
<trkpt lat="46.0994780" lon="10.4442420">
	<ele>1627.00</ele>
	<time>2024-07-25T11:51:08.000Z</time>
</trkpt>
<trkpt lat="46.0994670" lon="10.4442280">
	<ele>1627.00</ele>
	<time>2024-07-25T11:51:09.000Z</time>
</trkpt>
<trkpt lat="46.0994600" lon="10.4442160">
	<ele>1626.80</ele>
	<time>2024-07-25T11:51:10.000Z</time>
</trkpt>
<trkpt lat="46.0994550" lon="10.4442050">
	<ele>1626.80</ele>
	<time>2024-07-25T11:51:11.000Z</time>
</trkpt>
<trkpt lat="46.0994470" lon="10.4441860">
	<ele>1626.80</ele>
	<time>2024-07-25T11:51:12.000Z</time>
</trkpt>
<trkpt lat="46.0994360" lon="10.4441620">
	<ele>1626.60</ele>
	<time>2024-07-25T11:51:13.000Z</time>
</trkpt>
<trkpt lat="46.0994190" lon="10.4441330">
	<ele>1626.40</ele>
	<time>2024-07-25T11:51:14.000Z</time>
</trkpt>
<trkpt lat="46.0994050" lon="10.4441060">
	<ele>1626.40</ele>
	<time>2024-07-25T11:51:15.000Z</time>
</trkpt>
<trkpt lat="46.0993990" lon="10.4440850">
	<ele>1626.20</ele>
	<time>2024-07-25T11:51:16.000Z</time>
</trkpt>
<trkpt lat="46.0993960" lon="10.4440730">
	<ele>1626.00</ele>
	<time>2024-07-25T11:51:17.000Z</time>
</trkpt>
<trkpt lat="46.0993950" lon="10.4440580">
	<ele>1625.80</ele>
	<time>2024-07-25T11:51:18.000Z</time>
</trkpt>
<trkpt lat="46.0993980" lon="10.4440460">
	<ele>1625.60</ele>
	<time>2024-07-25T11:51:19.000Z</time>
</trkpt>
<trkpt lat="46.0994030" lon="10.4440300">
	<ele>1625.60</ele>
	<time>2024-07-25T11:51:20.000Z</time>
</trkpt>
<trkpt lat="46.0994090" lon="10.4440130">
	<ele>1625.40</ele>
	<time>2024-07-25T11:51:21.000Z</time>
</trkpt>
<trkpt lat="46.0994110" lon="10.4439900">
	<ele>1625.40</ele>
	<time>2024-07-25T11:51:22.000Z</time>
</trkpt>
<trkpt lat="46.0994050" lon="10.4439630">
	<ele>1625.20</ele>
	<time>2024-07-25T11:51:23.000Z</time>
</trkpt>
<trkpt lat="46.0994000" lon="10.4439270">
	<ele>1625.20</ele>
	<time>2024-07-25T11:51:24.000Z</time>
</trkpt>
<trkpt lat="46.0993880" lon="10.4438960">
	<ele>1625.00</ele>
	<time>2024-07-25T11:51:25.000Z</time>
</trkpt>
<trkpt lat="46.0993800" lon="10.4438690">
	<ele>1624.80</ele>
	<time>2024-07-25T11:51:26.000Z</time>
</trkpt>
<trkpt lat="46.0993680" lon="10.4438470">
	<ele>1624.80</ele>
	<time>2024-07-25T11:51:27.000Z</time>
</trkpt>
<trkpt lat="46.0993610" lon="10.4438320">
	<ele>1624.60</ele>
	<time>2024-07-25T11:51:28.000Z</time>
</trkpt>
<trkpt lat="46.0993540" lon="10.4438080">
	<ele>1624.40</ele>
	<time>2024-07-25T11:51:29.000Z</time>
</trkpt>
<trkpt lat="46.0993510" lon="10.4437860">
	<ele>1624.40</ele>
	<time>2024-07-25T11:51:30.000Z</time>
</trkpt>
<trkpt lat="46.0993410" lon="10.4437690">
	<ele>1624.20</ele>
	<time>2024-07-25T11:51:31.000Z</time>
</trkpt>
<trkpt lat="46.0993340" lon="10.4437520">
	<ele>1624.20</ele>
	<time>2024-07-25T11:51:32.000Z</time>
</trkpt>
<trkpt lat="46.0993250" lon="10.4437320">
	<ele>1624.00</ele>
	<time>2024-07-25T11:51:33.000Z</time>
</trkpt>
<trkpt lat="46.0993140" lon="10.4437140">
	<ele>1623.80</ele>
	<time>2024-07-25T11:51:34.000Z</time>
</trkpt>
<trkpt lat="46.0993040" lon="10.4436960">
	<ele>1623.60</ele>
	<time>2024-07-25T11:51:35.000Z</time>
</trkpt>
<trkpt lat="46.0992860" lon="10.4436780">
	<ele>1623.60</ele>
	<time>2024-07-25T11:51:36.000Z</time>
</trkpt>
<trkpt lat="46.0992730" lon="10.4436670">
	<ele>1623.40</ele>
	<time>2024-07-25T11:51:37.000Z</time>
</trkpt>
<trkpt lat="46.0992610" lon="10.4436570">
	<ele>1623.20</ele>
	<time>2024-07-25T11:51:38.000Z</time>
</trkpt>
<trkpt lat="46.0992490" lon="10.4436350">
	<ele>1623.20</ele>
	<time>2024-07-25T11:51:39.000Z</time>
</trkpt>
<trkpt lat="46.0992380" lon="10.4436110">
	<ele>1623.00</ele>
	<time>2024-07-25T11:51:40.000Z</time>
</trkpt>
<trkpt lat="46.0992270" lon="10.4435890">
	<ele>1623.00</ele>
	<time>2024-07-25T11:51:41.000Z</time>
</trkpt>
<trkpt lat="46.0992120" lon="10.4435700">
	<ele>1623.00</ele>
	<time>2024-07-25T11:51:42.000Z</time>
</trkpt>
<trkpt lat="46.0992000" lon="10.4435550">
	<ele>1623.00</ele>
	<time>2024-07-25T11:51:43.000Z</time>
</trkpt>
<trkpt lat="46.0991870" lon="10.4435400">
	<ele>1622.80</ele>
	<time>2024-07-25T11:51:44.000Z</time>
</trkpt>
<trkpt lat="46.0991610" lon="10.4435150">
	<ele>1622.80</ele>
	<time>2024-07-25T11:51:45.000Z</time>
</trkpt>
<trkpt lat="46.0991450" lon="10.4434940">
	<ele>1622.80</ele>
	<time>2024-07-25T11:51:46.000Z</time>
</trkpt>
<trkpt lat="46.0991350" lon="10.4434740">
	<ele>1622.80</ele>
	<time>2024-07-25T11:51:47.000Z</time>
</trkpt>
<trkpt lat="46.0991240" lon="10.4434470">
	<ele>1622.60</ele>
	<time>2024-07-25T11:51:48.000Z</time>
</trkpt>
<trkpt lat="46.0991100" lon="10.4434260">
	<ele>1622.40</ele>
	<time>2024-07-25T11:51:49.000Z</time>
</trkpt>
<trkpt lat="46.0991000" lon="10.4434180">
	<ele>1622.40</ele>
	<time>2024-07-25T11:51:50.000Z</time>
</trkpt>
<trkpt lat="46.0990910" lon="10.4434080">
	<ele>1622.20</ele>
	<time>2024-07-25T11:51:51.000Z</time>
</trkpt>
<trkpt lat="46.0990830" lon="10.4434000">
	<ele>1622.00</ele>
	<time>2024-07-25T11:51:52.000Z</time>
</trkpt>
<trkpt lat="46.0990760" lon="10.4433900">
	<ele>1622.00</ele>
	<time>2024-07-25T11:51:53.000Z</time>
</trkpt>
<trkpt lat="46.0990690" lon="10.4433810">
	<ele>1622.00</ele>
	<time>2024-07-25T11:51:54.000Z</time>
</trkpt>
<trkpt lat="46.0990590" lon="10.4433670">
	<ele>1621.80</ele>
	<time>2024-07-25T11:51:55.000Z</time>
</trkpt>
<trkpt lat="46.0990490" lon="10.4433550">
	<ele>1621.60</ele>
	<time>2024-07-25T11:51:56.000Z</time>
</trkpt>
<trkpt lat="46.0990440" lon="10.4433430">
	<ele>1621.40</ele>
	<time>2024-07-25T11:51:57.000Z</time>
</trkpt>
<trkpt lat="46.0990410" lon="10.4433370">
	<ele>1621.20</ele>
	<time>2024-07-25T11:51:58.000Z</time>
</trkpt>
<trkpt lat="46.0990360" lon="10.4433360">
	<ele>1621.00</ele>
	<time>2024-07-25T11:51:59.000Z</time>
</trkpt>
<trkpt lat="46.0990300" lon="10.4433250">
	<ele>1621.00</ele>
	<time>2024-07-25T11:52:00.000Z</time>
</trkpt>
<trkpt lat="46.0990250" lon="10.4433130">
	<ele>1621.00</ele>
	<time>2024-07-25T11:52:01.000Z</time>
</trkpt>
<trkpt lat="46.0990190" lon="10.4432960">
	<ele>1620.80</ele>
	<time>2024-07-25T11:52:02.000Z</time>
</trkpt>
<trkpt lat="46.0990160" lon="10.4432720">
	<ele>1620.80</ele>
	<time>2024-07-25T11:52:03.000Z</time>
</trkpt>
<trkpt lat="46.0990080" lon="10.4432530">
	<ele>1620.60</ele>
	<time>2024-07-25T11:52:04.000Z</time>
</trkpt>
<trkpt lat="46.0989950" lon="10.4432330">
	<ele>1620.60</ele>
	<time>2024-07-25T11:52:05.000Z</time>
</trkpt>
<trkpt lat="46.0989810" lon="10.4432100">
	<ele>1620.60</ele>
	<time>2024-07-25T11:52:06.000Z</time>
</trkpt>
<trkpt lat="46.0989670" lon="10.4431870">
	<ele>1620.60</ele>
	<time>2024-07-25T11:52:07.000Z</time>
</trkpt>
<trkpt lat="46.0989530" lon="10.4431770">
	<ele>1620.60</ele>
	<time>2024-07-25T11:52:08.000Z</time>
</trkpt>
<trkpt lat="46.0989410" lon="10.4431520">
	<ele>1620.40</ele>
	<time>2024-07-25T11:52:09.000Z</time>
</trkpt>
<trkpt lat="46.0989320" lon="10.4431430">
	<ele>1620.20</ele>
	<time>2024-07-25T11:52:10.000Z</time>
</trkpt>
<trkpt lat="46.0989170" lon="10.4431390">
	<ele>1620.20</ele>
	<time>2024-07-25T11:52:11.000Z</time>
</trkpt>
<trkpt lat="46.0989040" lon="10.4431250">
	<ele>1620.00</ele>
	<time>2024-07-25T11:52:12.000Z</time>
</trkpt>
<trkpt lat="46.0988860" lon="10.4431100">
	<ele>1620.00</ele>
	<time>2024-07-25T11:52:13.000Z</time>
</trkpt>
<trkpt lat="46.0988620" lon="10.4430850">
	<ele>1620.00</ele>
	<time>2024-07-25T11:52:14.000Z</time>
</trkpt>
<trkpt lat="46.0988360" lon="10.4430390">
	<ele>1619.80</ele>
	<time>2024-07-25T11:52:15.000Z</time>
</trkpt>
<trkpt lat="46.0988150" lon="10.4430070">
	<ele>1619.80</ele>
	<time>2024-07-25T11:52:16.000Z</time>
</trkpt>
<trkpt lat="46.0987980" lon="10.4429830">
	<ele>1619.80</ele>
	<time>2024-07-25T11:52:17.000Z</time>
</trkpt>
<trkpt lat="46.0987810" lon="10.4429730">
	<ele>1619.80</ele>
	<time>2024-07-25T11:52:18.000Z</time>
</trkpt>
<trkpt lat="46.0987610" lon="10.4429650">
	<ele>1619.60</ele>
	<time>2024-07-25T11:52:19.000Z</time>
</trkpt>
<trkpt lat="46.0987420" lon="10.4429560">
	<ele>1619.60</ele>
	<time>2024-07-25T11:52:20.000Z</time>
</trkpt>
<trkpt lat="46.0987260" lon="10.4429480">
	<ele>1619.60</ele>
	<time>2024-07-25T11:52:21.000Z</time>
</trkpt>
<trkpt lat="46.0987200" lon="10.4429390">
	<ele>1619.60</ele>
	<time>2024-07-25T11:52:22.000Z</time>
</trkpt>
<trkpt lat="46.0987140" lon="10.4429270">
	<ele>1619.40</ele>
	<time>2024-07-25T11:52:23.000Z</time>
</trkpt>
<trkpt lat="46.0987090" lon="10.4429170">
	<ele>1619.20</ele>
	<time>2024-07-25T11:52:24.000Z</time>
</trkpt>
<trkpt lat="46.0987010" lon="10.4429020">
	<ele>1619.20</ele>
	<time>2024-07-25T11:52:25.000Z</time>
</trkpt>
<trkpt lat="46.0986820" lon="10.4428730">
	<ele>1619.00</ele>
	<time>2024-07-25T11:52:26.000Z</time>
</trkpt>
<trkpt lat="46.0986660" lon="10.4428520">
	<ele>1618.80</ele>
	<time>2024-07-25T11:52:27.000Z</time>
</trkpt>
<trkpt lat="46.0986530" lon="10.4428320">
	<ele>1618.80</ele>
	<time>2024-07-25T11:52:28.000Z</time>
</trkpt>
<trkpt lat="46.0986480" lon="10.4428220">
	<ele>1618.60</ele>
	<time>2024-07-25T11:52:29.000Z</time>
</trkpt>
<trkpt lat="46.0986420" lon="10.4428060">
	<ele>1618.40</ele>
	<time>2024-07-25T11:52:30.000Z</time>
</trkpt>
<trkpt lat="46.0986390" lon="10.4427970">
	<ele>1618.20</ele>
	<time>2024-07-25T11:52:31.000Z</time>
</trkpt>
<trkpt lat="46.0986320" lon="10.4427880">
	<ele>1618.00</ele>
	<time>2024-07-25T11:52:32.000Z</time>
</trkpt>
<trkpt lat="46.0986210" lon="10.4427710">
	<ele>1618.00</ele>
	<time>2024-07-25T11:52:33.000Z</time>
</trkpt>
<trkpt lat="46.0986090" lon="10.4427540">
	<ele>1617.80</ele>
	<time>2024-07-25T11:52:34.000Z</time>
</trkpt>
<trkpt lat="46.0985920" lon="10.4427390">
	<ele>1617.80</ele>
	<time>2024-07-25T11:52:35.000Z</time>
</trkpt>
<trkpt lat="46.0985750" lon="10.4427270">
	<ele>1617.60</ele>
	<time>2024-07-25T11:52:36.000Z</time>
</trkpt>
<trkpt lat="46.0985620" lon="10.4427130">
	<ele>1617.60</ele>
	<time>2024-07-25T11:52:37.000Z</time>
</trkpt>
<trkpt lat="46.0985470" lon="10.4426940">
	<ele>1617.40</ele>
	<time>2024-07-25T11:52:38.000Z</time>
</trkpt>
<trkpt lat="46.0985240" lon="10.4426700">
	<ele>1617.20</ele>
	<time>2024-07-25T11:52:39.000Z</time>
</trkpt>
<trkpt lat="46.0985020" lon="10.4426520">
	<ele>1617.00</ele>
	<time>2024-07-25T11:52:40.000Z</time>
</trkpt>
<trkpt lat="46.0984800" lon="10.4426380">
	<ele>1617.00</ele>
	<time>2024-07-25T11:52:41.000Z</time>
</trkpt>
<trkpt lat="46.0984590" lon="10.4426320">
	<ele>1616.80</ele>
	<time>2024-07-25T11:52:42.000Z</time>
</trkpt>
<trkpt lat="46.0984410" lon="10.4426210">
	<ele>1616.80</ele>
	<time>2024-07-25T11:52:43.000Z</time>
</trkpt>
<trkpt lat="46.0984270" lon="10.4426060">
	<ele>1616.60</ele>
	<time>2024-07-25T11:52:44.000Z</time>
</trkpt>
<trkpt lat="46.0984130" lon="10.4425920">
	<ele>1616.40</ele>
	<time>2024-07-25T11:52:45.000Z</time>
</trkpt>
<trkpt lat="46.0983980" lon="10.4425850">
	<ele>1616.00</ele>
	<time>2024-07-25T11:52:46.000Z</time>
</trkpt>
<trkpt lat="46.0983830" lon="10.4425780">
	<ele>1616.00</ele>
	<time>2024-07-25T11:52:47.000Z</time>
</trkpt>
<trkpt lat="46.0983650" lon="10.4425760">
	<ele>1615.80</ele>
	<time>2024-07-25T11:52:48.000Z</time>
</trkpt>
<trkpt lat="46.0983480" lon="10.4425700">
	<ele>1615.60</ele>
	<time>2024-07-25T11:52:49.000Z</time>
</trkpt>
<trkpt lat="46.0983310" lon="10.4425640">
	<ele>1615.40</ele>
	<time>2024-07-25T11:52:50.000Z</time>
</trkpt>
<trkpt lat="46.0983180" lon="10.4425670">
	<ele>1615.20</ele>
	<time>2024-07-25T11:52:51.000Z</time>
</trkpt>
<trkpt lat="46.0983020" lon="10.4425640">
	<ele>1615.00</ele>
	<time>2024-07-25T11:52:52.000Z</time>
</trkpt>
<trkpt lat="46.0982870" lon="10.4425520">
	<ele>1615.00</ele>
	<time>2024-07-25T11:52:53.000Z</time>
</trkpt>
<trkpt lat="46.0982700" lon="10.4425400">
	<ele>1614.80</ele>
	<time>2024-07-25T11:52:54.000Z</time>
</trkpt>
<trkpt lat="46.0982520" lon="10.4425210">
	<ele>1614.60</ele>
	<time>2024-07-25T11:52:55.000Z</time>
</trkpt>
<trkpt lat="46.0982370" lon="10.4425070">
	<ele>1614.40</ele>
	<time>2024-07-25T11:52:56.000Z</time>
</trkpt>
<trkpt lat="46.0982310" lon="10.4425000">
	<ele>1614.40</ele>
	<time>2024-07-25T11:52:57.000Z</time>
</trkpt>
<trkpt lat="46.0982200" lon="10.4424850">
	<ele>1614.40</ele>
	<time>2024-07-25T11:52:58.000Z</time>
</trkpt>
<trkpt lat="46.0982090" lon="10.4424710">
	<ele>1614.20</ele>
	<time>2024-07-25T11:52:59.000Z</time>
</trkpt>
<trkpt lat="46.0981980" lon="10.4424560">
	<ele>1614.00</ele>
	<time>2024-07-25T11:53:00.000Z</time>
</trkpt>
<trkpt lat="46.0981920" lon="10.4424450">
	<ele>1613.80</ele>
	<time>2024-07-25T11:53:01.000Z</time>
</trkpt>
<trkpt lat="46.0981900" lon="10.4424390">
	<ele>1613.80</ele>
	<time>2024-07-25T11:53:02.000Z</time>
</trkpt>
<trkpt lat="46.0981830" lon="10.4424160">
	<ele>1613.80</ele>
	<time>2024-07-25T11:53:03.000Z</time>
</trkpt>
<trkpt lat="46.0981770" lon="10.4424100">
	<ele>1613.60</ele>
	<time>2024-07-25T11:53:04.000Z</time>
</trkpt>
<trkpt lat="46.0981690" lon="10.4423970">
	<ele>1613.60</ele>
	<time>2024-07-25T11:53:05.000Z</time>
</trkpt>
<trkpt lat="46.0981590" lon="10.4423880">
	<ele>1613.60</ele>
	<time>2024-07-25T11:53:06.000Z</time>
</trkpt>
<trkpt lat="46.0981430" lon="10.4423740">
	<ele>1613.60</ele>
	<time>2024-07-25T11:53:07.000Z</time>
</trkpt>
<trkpt lat="46.0981290" lon="10.4423560">
	<ele>1613.60</ele>
	<time>2024-07-25T11:53:08.000Z</time>
</trkpt>
<trkpt lat="46.0981170" lon="10.4423310">
	<ele>1613.60</ele>
	<time>2024-07-25T11:53:09.000Z</time>
</trkpt>
<trkpt lat="46.0981110" lon="10.4423200">
	<ele>1613.40</ele>
	<time>2024-07-25T11:53:10.000Z</time>
</trkpt>
<trkpt lat="46.0981110" lon="10.4423110">
	<ele>1613.20</ele>
	<time>2024-07-25T11:53:11.000Z</time>
</trkpt>
<trkpt lat="46.0981020" lon="10.4422990">
	<ele>1613.20</ele>
	<time>2024-07-25T11:53:12.000Z</time>
</trkpt>
<trkpt lat="46.0980960" lon="10.4422870">
	<ele>1613.00</ele>
	<time>2024-07-25T11:53:13.000Z</time>
</trkpt>
<trkpt lat="46.0980910" lon="10.4422760">
	<ele>1613.00</ele>
	<time>2024-07-25T11:53:14.000Z</time>
</trkpt>
<trkpt lat="46.0980850" lon="10.4422660">
	<ele>1612.80</ele>
	<time>2024-07-25T11:53:15.000Z</time>
</trkpt>
<trkpt lat="46.0980750" lon="10.4422530">
	<ele>1612.60</ele>
	<time>2024-07-25T11:53:16.000Z</time>
</trkpt>
<trkpt lat="46.0980640" lon="10.4422450">
	<ele>1612.60</ele>
	<time>2024-07-25T11:53:17.000Z</time>
</trkpt>
<trkpt lat="46.0980550" lon="10.4422430">
	<ele>1612.60</ele>
	<time>2024-07-25T11:53:18.000Z</time>
</trkpt>
<trkpt lat="46.0980410" lon="10.4422300">
	<ele>1612.40</ele>
	<time>2024-07-25T11:53:19.000Z</time>
</trkpt>
<trkpt lat="46.0980230" lon="10.4422160">
	<ele>1612.00</ele>
	<time>2024-07-25T11:53:20.000Z</time>
</trkpt>
<trkpt lat="46.0980020" lon="10.4422020">
	<ele>1611.80</ele>
	<time>2024-07-25T11:53:21.000Z</time>
</trkpt>
<trkpt lat="46.0979890" lon="10.4421960">
	<ele>1611.40</ele>
	<time>2024-07-25T11:53:22.000Z</time>
</trkpt>
<trkpt lat="46.0979800" lon="10.4421970">
	<ele>1611.20</ele>
	<time>2024-07-25T11:53:23.000Z</time>
</trkpt>
<trkpt lat="46.0979680" lon="10.4421940">
	<ele>1611.00</ele>
	<time>2024-07-25T11:53:24.000Z</time>
</trkpt>
<trkpt lat="46.0979570" lon="10.4421880">
	<ele>1610.80</ele>
	<time>2024-07-25T11:53:25.000Z</time>
</trkpt>
<trkpt lat="46.0979490" lon="10.4421830">
	<ele>1610.80</ele>
	<time>2024-07-25T11:53:26.000Z</time>
</trkpt>
<trkpt lat="46.0979400" lon="10.4421930">
	<ele>1610.60</ele>
	<time>2024-07-25T11:53:27.000Z</time>
</trkpt>
<trkpt lat="46.0979360" lon="10.4422070">
	<ele>1610.40</ele>
	<time>2024-07-25T11:53:28.000Z</time>
</trkpt>
<trkpt lat="46.0979330" lon="10.4422110">
	<ele>1610.20</ele>
	<time>2024-07-25T11:53:29.000Z</time>
</trkpt>
<trkpt lat="46.0979280" lon="10.4422130">
	<ele>1610.00</ele>
	<time>2024-07-25T11:53:30.000Z</time>
</trkpt>
<trkpt lat="46.0979260" lon="10.4422190">
	<ele>1609.60</ele>
	<time>2024-07-25T11:53:31.000Z</time>
</trkpt>
<trkpt lat="46.0979160" lon="10.4422210">
	<ele>1609.40</ele>
	<time>2024-07-25T11:53:32.000Z</time>
</trkpt>
<trkpt lat="46.0979070" lon="10.4422250">
	<ele>1609.00</ele>
	<time>2024-07-25T11:53:33.000Z</time>
</trkpt>
<trkpt lat="46.0978970" lon="10.4422270">
	<ele>1609.00</ele>
	<time>2024-07-25T11:53:34.000Z</time>
</trkpt>
<trkpt lat="46.0978870" lon="10.4422210">
	<ele>1608.60</ele>
	<time>2024-07-25T11:53:35.000Z</time>
</trkpt>
<trkpt lat="46.0978740" lon="10.4422180">
	<ele>1608.40</ele>
	<time>2024-07-25T11:53:36.000Z</time>
</trkpt>
<trkpt lat="46.0978640" lon="10.4422150">
	<ele>1608.20</ele>
	<time>2024-07-25T11:53:37.000Z</time>
</trkpt>
<trkpt lat="46.0978540" lon="10.4422120">
	<ele>1608.20</ele>
	<time>2024-07-25T11:53:38.000Z</time>
</trkpt>
<trkpt lat="46.0978430" lon="10.4422140">
	<ele>1607.60</ele>
	<time>2024-07-25T11:53:39.000Z</time>
</trkpt>
<trkpt lat="46.0978360" lon="10.4422130">
	<ele>1607.40</ele>
	<time>2024-07-25T11:53:40.000Z</time>
</trkpt>
<trkpt lat="46.0978320" lon="10.4422120">
	<ele>1607.40</ele>
	<time>2024-07-25T11:53:41.000Z</time>
</trkpt>
<trkpt lat="46.0978210" lon="10.4422040">
	<ele>1607.20</ele>
	<time>2024-07-25T11:53:42.000Z</time>
</trkpt>
<trkpt lat="46.0978090" lon="10.4421910">
	<ele>1607.00</ele>
	<time>2024-07-25T11:53:43.000Z</time>
</trkpt>
<trkpt lat="46.0978000" lon="10.4421860">
	<ele>1607.00</ele>
	<time>2024-07-25T11:53:44.000Z</time>
</trkpt>
<trkpt lat="46.0977950" lon="10.4421850">
	<ele>1606.80</ele>
	<time>2024-07-25T11:53:45.000Z</time>
</trkpt>
<trkpt lat="46.0977850" lon="10.4421800">
	<ele>1606.60</ele>
	<time>2024-07-25T11:53:46.000Z</time>
</trkpt>
<trkpt lat="46.0977760" lon="10.4421770">
	<ele>1606.40</ele>
	<time>2024-07-25T11:53:47.000Z</time>
</trkpt>
<trkpt lat="46.0977660" lon="10.4421770">
	<ele>1606.00</ele>
	<time>2024-07-25T11:53:48.000Z</time>
</trkpt>
<trkpt lat="46.0977540" lon="10.4421730">
	<ele>1605.80</ele>
	<time>2024-07-25T11:53:49.000Z</time>
</trkpt>
<trkpt lat="46.0977420" lon="10.4421690">
	<ele>1605.60</ele>
	<time>2024-07-25T11:53:50.000Z</time>
</trkpt>
<trkpt lat="46.0977310" lon="10.4421620">
	<ele>1605.40</ele>
	<time>2024-07-25T11:53:51.000Z</time>
</trkpt>
<trkpt lat="46.0977180" lon="10.4421540">
	<ele>1605.20</ele>
	<time>2024-07-25T11:53:52.000Z</time>
</trkpt>
<trkpt lat="46.0977020" lon="10.4421410">
	<ele>1605.00</ele>
	<time>2024-07-25T11:53:53.000Z</time>
</trkpt>
<trkpt lat="46.0976820" lon="10.4421150">
	<ele>1604.60</ele>
	<time>2024-07-25T11:53:54.000Z</time>
</trkpt>
<trkpt lat="46.0976670" lon="10.4420920">
	<ele>1604.40</ele>
	<time>2024-07-25T11:53:55.000Z</time>
</trkpt>
<trkpt lat="46.0976560" lon="10.4420770">
	<ele>1604.20</ele>
	<time>2024-07-25T11:53:56.000Z</time>
</trkpt>
<trkpt lat="46.0976420" lon="10.4420620">
	<ele>1604.00</ele>
	<time>2024-07-25T11:53:57.000Z</time>
</trkpt>
<trkpt lat="46.0976300" lon="10.4420560">
	<ele>1603.60</ele>
	<time>2024-07-25T11:53:58.000Z</time>
</trkpt>
<trkpt lat="46.0976190" lon="10.4420520">
	<ele>1603.40</ele>
	<time>2024-07-25T11:53:59.000Z</time>
</trkpt>
<trkpt lat="46.0976080" lon="10.4420490">
	<ele>1603.40</ele>
	<time>2024-07-25T11:54:00.000Z</time>
</trkpt>
<trkpt lat="46.0975970" lon="10.4420470">
	<ele>1603.20</ele>
	<time>2024-07-25T11:54:01.000Z</time>
</trkpt>
<trkpt lat="46.0975890" lon="10.4420490">
	<ele>1603.20</ele>
	<time>2024-07-25T11:54:02.000Z</time>
</trkpt>
<trkpt lat="46.0975840" lon="10.4420540">
	<ele>1602.80</ele>
	<time>2024-07-25T11:54:03.000Z</time>
</trkpt>
<trkpt lat="46.0975760" lon="10.4420590">
	<ele>1602.40</ele>
	<time>2024-07-25T11:54:04.000Z</time>
</trkpt>
<trkpt lat="46.0975610" lon="10.4420600">
	<ele>1602.40</ele>
	<time>2024-07-25T11:54:05.000Z</time>
</trkpt>
<trkpt lat="46.0975480" lon="10.4420620">
	<ele>1602.20</ele>
	<time>2024-07-25T11:54:06.000Z</time>
</trkpt>
<trkpt lat="46.0975350" lon="10.4420680">
	<ele>1602.00</ele>
	<time>2024-07-25T11:54:07.000Z</time>
</trkpt>
<trkpt lat="46.0975230" lon="10.4420790">
	<ele>1601.80</ele>
	<time>2024-07-25T11:54:08.000Z</time>
</trkpt>
<trkpt lat="46.0975190" lon="10.4420930">
	<ele>1601.40</ele>
	<time>2024-07-25T11:54:09.000Z</time>
</trkpt>
<trkpt lat="46.0975060" lon="10.4420980">
	<ele>1601.20</ele>
	<time>2024-07-25T11:54:10.000Z</time>
</trkpt>
<trkpt lat="46.0974990" lon="10.4421090">
	<ele>1601.00</ele>
	<time>2024-07-25T11:54:11.000Z</time>
</trkpt>
<trkpt lat="46.0974850" lon="10.4421030">
	<ele>1600.80</ele>
	<time>2024-07-25T11:54:12.000Z</time>
</trkpt>
<trkpt lat="46.0974740" lon="10.4421170">
	<ele>1600.60</ele>
	<time>2024-07-25T11:54:13.000Z</time>
</trkpt>
<trkpt lat="46.0974630" lon="10.4421290">
	<ele>1600.40</ele>
	<time>2024-07-25T11:54:14.000Z</time>
</trkpt>
<trkpt lat="46.0974460" lon="10.4421290">
	<ele>1600.00</ele>
	<time>2024-07-25T11:54:15.000Z</time>
</trkpt>
<trkpt lat="46.0974370" lon="10.4421270">
	<ele>1599.60</ele>
	<time>2024-07-25T11:54:16.000Z</time>
</trkpt>
<trkpt lat="46.0974240" lon="10.4421320">
	<ele>1599.20</ele>
	<time>2024-07-25T11:54:17.000Z</time>
</trkpt>
<trkpt lat="46.0974120" lon="10.4421310">
	<ele>1598.80</ele>
	<time>2024-07-25T11:54:18.000Z</time>
</trkpt>
<trkpt lat="46.0974020" lon="10.4421310">
	<ele>1598.40</ele>
	<time>2024-07-25T11:54:19.000Z</time>
</trkpt>
<trkpt lat="46.0973960" lon="10.4421380">
	<ele>1598.20</ele>
	<time>2024-07-25T11:54:20.000Z</time>
</trkpt>
<trkpt lat="46.0973880" lon="10.4421390">
	<ele>1598.00</ele>
	<time>2024-07-25T11:54:21.000Z</time>
</trkpt>
<trkpt lat="46.0973790" lon="10.4421360">
	<ele>1597.80</ele>
	<time>2024-07-25T11:54:22.000Z</time>
</trkpt>
<trkpt lat="46.0973710" lon="10.4421380">
	<ele>1597.20</ele>
	<time>2024-07-25T11:54:23.000Z</time>
</trkpt>
<trkpt lat="46.0973600" lon="10.4421380">
	<ele>1596.80</ele>
	<time>2024-07-25T11:54:24.000Z</time>
</trkpt>
<trkpt lat="46.0973500" lon="10.4421400">
	<ele>1596.60</ele>
	<time>2024-07-25T11:54:25.000Z</time>
</trkpt>
<trkpt lat="46.0973390" lon="10.4421410">
	<ele>1596.00</ele>
	<time>2024-07-25T11:54:26.000Z</time>
</trkpt>
<trkpt lat="46.0973280" lon="10.4421480">
	<ele>1595.60</ele>
	<time>2024-07-25T11:54:27.000Z</time>
</trkpt>
<trkpt lat="46.0973150" lon="10.4421450">
	<ele>1595.00</ele>
	<time>2024-07-25T11:54:28.000Z</time>
</trkpt>
<trkpt lat="46.0973020" lon="10.4421430">
	<ele>1594.60</ele>
	<time>2024-07-25T11:54:29.000Z</time>
</trkpt>
<trkpt lat="46.0972890" lon="10.4421400">
	<ele>1594.40</ele>
	<time>2024-07-25T11:54:30.000Z</time>
</trkpt>
<trkpt lat="46.0972800" lon="10.4421430">
	<ele>1594.00</ele>
	<time>2024-07-25T11:54:31.000Z</time>
</trkpt>
<trkpt lat="46.0972730" lon="10.4421490">
	<ele>1593.40</ele>
	<time>2024-07-25T11:54:32.000Z</time>
</trkpt>
<trkpt lat="46.0972640" lon="10.4421560">
	<ele>1593.00</ele>
	<time>2024-07-25T11:54:33.000Z</time>
</trkpt>
<trkpt lat="46.0972580" lon="10.4421640">
	<ele>1592.60</ele>
	<time>2024-07-25T11:54:34.000Z</time>
</trkpt>
<trkpt lat="46.0972540" lon="10.4421700">
	<ele>1592.20</ele>
	<time>2024-07-25T11:54:35.000Z</time>
</trkpt>
<trkpt lat="46.0972480" lon="10.4421720">
	<ele>1592.00</ele>
	<time>2024-07-25T11:54:36.000Z</time>
</trkpt>
<trkpt lat="46.0972440" lon="10.4421750">
	<ele>1591.60</ele>
	<time>2024-07-25T11:54:37.000Z</time>
</trkpt>
<trkpt lat="46.0972370" lon="10.4421790">
	<ele>1591.00</ele>
	<time>2024-07-25T11:54:38.000Z</time>
</trkpt>
<trkpt lat="46.0972290" lon="10.4421850">
	<ele>1590.80</ele>
	<time>2024-07-25T11:54:39.000Z</time>
</trkpt>
<trkpt lat="46.0972180" lon="10.4421870">
	<ele>1590.40</ele>
	<time>2024-07-25T11:54:40.000Z</time>
</trkpt>
<trkpt lat="46.0972110" lon="10.4422000">
	<ele>1590.20</ele>
	<time>2024-07-25T11:54:41.000Z</time>
</trkpt>
<trkpt lat="46.0972060" lon="10.4422060">
	<ele>1590.00</ele>
	<time>2024-07-25T11:54:42.000Z</time>
</trkpt>
<trkpt lat="46.0971990" lon="10.4422100">
	<ele>1589.60</ele>
	<time>2024-07-25T11:54:43.000Z</time>
</trkpt>
<trkpt lat="46.0971900" lon="10.4422090">
	<ele>1589.40</ele>
	<time>2024-07-25T11:54:44.000Z</time>
</trkpt>
<trkpt lat="46.0971860" lon="10.4422140">
	<ele>1589.20</ele>
	<time>2024-07-25T11:54:45.000Z</time>
</trkpt>
<trkpt lat="46.0971770" lon="10.4422240">
	<ele>1588.80</ele>
	<time>2024-07-25T11:54:46.000Z</time>
</trkpt>
<trkpt lat="46.0971640" lon="10.4422360">
	<ele>1588.60</ele>
	<time>2024-07-25T11:54:47.000Z</time>
</trkpt>
<trkpt lat="46.0971520" lon="10.4422420">
	<ele>1588.40</ele>
	<time>2024-07-25T11:54:48.000Z</time>
</trkpt>
<trkpt lat="46.0971400" lon="10.4422500">
	<ele>1588.00</ele>
	<time>2024-07-25T11:54:49.000Z</time>
</trkpt>
<trkpt lat="46.0971300" lon="10.4422550">
	<ele>1587.80</ele>
	<time>2024-07-25T11:54:50.000Z</time>
</trkpt>
<trkpt lat="46.0971210" lon="10.4422580">
	<ele>1587.60</ele>
	<time>2024-07-25T11:54:51.000Z</time>
</trkpt>
<trkpt lat="46.0971090" lon="10.4422610">
	<ele>1587.40</ele>
	<time>2024-07-25T11:54:52.000Z</time>
</trkpt>
<trkpt lat="46.0971020" lon="10.4422650">
	<ele>1587.20</ele>
	<time>2024-07-25T11:54:53.000Z</time>
</trkpt>
<trkpt lat="46.0970920" lon="10.4422690">
	<ele>1587.00</ele>
	<time>2024-07-25T11:54:54.000Z</time>
</trkpt>
<trkpt lat="46.0970850" lon="10.4422740">
	<ele>1586.80</ele>
	<time>2024-07-25T11:54:55.000Z</time>
</trkpt>
<trkpt lat="46.0970760" lon="10.4422760">
	<ele>1586.60</ele>
	<time>2024-07-25T11:54:56.000Z</time>
</trkpt>
<trkpt lat="46.0970720" lon="10.4422790">
	<ele>1586.20</ele>
	<time>2024-07-25T11:54:57.000Z</time>
</trkpt>
<trkpt lat="46.0970690" lon="10.4422810">
	<ele>1586.00</ele>
	<time>2024-07-25T11:54:58.000Z</time>
</trkpt>
<trkpt lat="46.0970640" lon="10.4422710">
	<ele>1585.80</ele>
	<time>2024-07-25T11:54:59.000Z</time>
</trkpt>
<trkpt lat="46.0970540" lon="10.4422580">
	<ele>1585.40</ele>
	<time>2024-07-25T11:55:00.000Z</time>
</trkpt>
<trkpt lat="46.0970450" lon="10.4422500">
	<ele>1585.20</ele>
	<time>2024-07-25T11:55:01.000Z</time>
</trkpt>
<trkpt lat="46.0970360" lon="10.4422570">
	<ele>1585.00</ele>
	<time>2024-07-25T11:55:02.000Z</time>
</trkpt>
<trkpt lat="46.0970280" lon="10.4422700">
	<ele>1584.80</ele>
	<time>2024-07-25T11:55:03.000Z</time>
</trkpt>
<trkpt lat="46.0970170" lon="10.4422660">
	<ele>1584.60</ele>
	<time>2024-07-25T11:55:04.000Z</time>
</trkpt>
<trkpt lat="46.0970060" lon="10.4422510">
	<ele>1584.60</ele>
	<time>2024-07-25T11:55:05.000Z</time>
</trkpt>
<trkpt lat="46.0969980" lon="10.4422370">
	<ele>1584.20</ele>
	<time>2024-07-25T11:55:06.000Z</time>
</trkpt>
<trkpt lat="46.0969900" lon="10.4422150">
	<ele>1584.00</ele>
	<time>2024-07-25T11:55:07.000Z</time>
</trkpt>
<trkpt lat="46.0969800" lon="10.4421940">
	<ele>1584.00</ele>
	<time>2024-07-25T11:55:08.000Z</time>
</trkpt>
<trkpt lat="46.0969720" lon="10.4421840">
	<ele>1583.60</ele>
	<time>2024-07-25T11:55:09.000Z</time>
</trkpt>
<trkpt lat="46.0969630" lon="10.4421700">
	<ele>1583.40</ele>
	<time>2024-07-25T11:55:10.000Z</time>
</trkpt>
<trkpt lat="46.0969520" lon="10.4421560">
	<ele>1583.20</ele>
	<time>2024-07-25T11:55:11.000Z</time>
</trkpt>
<trkpt lat="46.0969380" lon="10.4421580">
	<ele>1583.00</ele>
	<time>2024-07-25T11:55:12.000Z</time>
</trkpt>
<trkpt lat="46.0969230" lon="10.4421550">
	<ele>1582.80</ele>
	<time>2024-07-25T11:55:13.000Z</time>
</trkpt>
<trkpt lat="46.0969060" lon="10.4421580">
	<ele>1582.60</ele>
	<time>2024-07-25T11:55:14.000Z</time>
</trkpt>
<trkpt lat="46.0968900" lon="10.4421610">
	<ele>1582.40</ele>
	<time>2024-07-25T11:55:15.000Z</time>
</trkpt>
<trkpt lat="46.0968770" lon="10.4421600">
	<ele>1582.20</ele>
	<time>2024-07-25T11:55:16.000Z</time>
</trkpt>
<trkpt lat="46.0968670" lon="10.4421580">
	<ele>1582.00</ele>
	<time>2024-07-25T11:55:17.000Z</time>
</trkpt>
<trkpt lat="46.0968570" lon="10.4421500">
	<ele>1582.00</ele>
	<time>2024-07-25T11:55:18.000Z</time>
</trkpt>
<trkpt lat="46.0968500" lon="10.4421420">
	<ele>1581.80</ele>
	<time>2024-07-25T11:55:19.000Z</time>
</trkpt>
<trkpt lat="46.0968370" lon="10.4421310">
	<ele>1581.60</ele>
	<time>2024-07-25T11:55:20.000Z</time>
</trkpt>
<trkpt lat="46.0968250" lon="10.4421190">
	<ele>1581.40</ele>
	<time>2024-07-25T11:55:21.000Z</time>
</trkpt>
<trkpt lat="46.0968110" lon="10.4421070">
	<ele>1581.20</ele>
	<time>2024-07-25T11:55:22.000Z</time>
</trkpt>
<trkpt lat="46.0968020" lon="10.4421030">
	<ele>1581.00</ele>
	<time>2024-07-25T11:55:23.000Z</time>
</trkpt>
<trkpt lat="46.0967880" lon="10.4420950">
	<ele>1580.80</ele>
	<time>2024-07-25T11:55:24.000Z</time>
</trkpt>
<trkpt lat="46.0967720" lon="10.4420800">
	<ele>1580.60</ele>
	<time>2024-07-25T11:55:25.000Z</time>
</trkpt>
<trkpt lat="46.0967580" lon="10.4420690">
	<ele>1580.40</ele>
	<time>2024-07-25T11:55:26.000Z</time>
</trkpt>
<trkpt lat="46.0967420" lon="10.4420520">
	<ele>1580.20</ele>
	<time>2024-07-25T11:55:27.000Z</time>
</trkpt>
<trkpt lat="46.0967320" lon="10.4420450">
	<ele>1580.00</ele>
	<time>2024-07-25T11:55:28.000Z</time>
</trkpt>
<trkpt lat="46.0967210" lon="10.4420370">
	<ele>1579.80</ele>
	<time>2024-07-25T11:55:29.000Z</time>
</trkpt>
<trkpt lat="46.0967070" lon="10.4420290">
	<ele>1579.60</ele>
	<time>2024-07-25T11:55:30.000Z</time>
</trkpt>
<trkpt lat="46.0966900" lon="10.4420220">
	<ele>1579.40</ele>
	<time>2024-07-25T11:55:31.000Z</time>
</trkpt>
<trkpt lat="46.0966750" lon="10.4420190">
	<ele>1579.20</ele>
	<time>2024-07-25T11:55:32.000Z</time>
</trkpt>
<trkpt lat="46.0966620" lon="10.4420150">
	<ele>1578.80</ele>
	<time>2024-07-25T11:55:33.000Z</time>
</trkpt>
<trkpt lat="46.0966490" lon="10.4420130">
	<ele>1578.60</ele>
	<time>2024-07-25T11:55:34.000Z</time>
</trkpt>
<trkpt lat="46.0966380" lon="10.4420120">
	<ele>1578.40</ele>
	<time>2024-07-25T11:55:35.000Z</time>
</trkpt>
<trkpt lat="46.0966310" lon="10.4420110">
	<ele>1578.20</ele>
	<time>2024-07-25T11:55:36.000Z</time>
</trkpt>
<trkpt lat="46.0966180" lon="10.4420100">
	<ele>1578.20</ele>
	<time>2024-07-25T11:55:37.000Z</time>
</trkpt>
<trkpt lat="46.0966080" lon="10.4420110">
	<ele>1578.00</ele>
	<time>2024-07-25T11:55:38.000Z</time>
</trkpt>
<trkpt lat="46.0965990" lon="10.4420120">
	<ele>1577.80</ele>
	<time>2024-07-25T11:55:39.000Z</time>
</trkpt>
<trkpt lat="46.0965900" lon="10.4420120">
	<ele>1577.80</ele>
	<time>2024-07-25T11:55:40.000Z</time>
</trkpt>
<trkpt lat="46.0965830" lon="10.4420140">
	<ele>1577.60</ele>
	<time>2024-07-25T11:55:41.000Z</time>
</trkpt>
<trkpt lat="46.0965720" lon="10.4420150">
	<ele>1577.20</ele>
	<time>2024-07-25T11:55:42.000Z</time>
</trkpt>
<trkpt lat="46.0965600" lon="10.4420150">
	<ele>1577.00</ele>
	<time>2024-07-25T11:55:43.000Z</time>
</trkpt>
<trkpt lat="46.0965490" lon="10.4420160">
	<ele>1576.80</ele>
	<time>2024-07-25T11:55:44.000Z</time>
</trkpt>
<trkpt lat="46.0965390" lon="10.4420150">
	<ele>1576.60</ele>
	<time>2024-07-25T11:55:45.000Z</time>
</trkpt>
<trkpt lat="46.0965280" lon="10.4420160">
	<ele>1576.60</ele>
	<time>2024-07-25T11:55:46.000Z</time>
</trkpt>
<trkpt lat="46.0965120" lon="10.4420120">
	<ele>1576.40</ele>
	<time>2024-07-25T11:55:47.000Z</time>
</trkpt>
<trkpt lat="46.0964980" lon="10.4420050">
	<ele>1576.20</ele>
	<time>2024-07-25T11:55:48.000Z</time>
</trkpt>
<trkpt lat="46.0964830" lon="10.4419950">
	<ele>1576.20</ele>
	<time>2024-07-25T11:55:49.000Z</time>
</trkpt>
<trkpt lat="46.0964700" lon="10.4419920">
	<ele>1576.00</ele>
	<time>2024-07-25T11:55:50.000Z</time>
</trkpt>
<trkpt lat="46.0964580" lon="10.4419900">
	<ele>1575.80</ele>
	<time>2024-07-25T11:55:51.000Z</time>
</trkpt>
<trkpt lat="46.0964540" lon="10.4419900">
	<ele>1575.60</ele>
	<time>2024-07-25T11:55:52.000Z</time>
</trkpt>
<trkpt lat="46.0964460" lon="10.4419880">
	<ele>1575.40</ele>
	<time>2024-07-25T11:55:53.000Z</time>
</trkpt>
<trkpt lat="46.0964360" lon="10.4419940">
	<ele>1575.20</ele>
	<time>2024-07-25T11:55:54.000Z</time>
</trkpt>
<trkpt lat="46.0964320" lon="10.4419970">
	<ele>1575.00</ele>
	<time>2024-07-25T11:55:55.000Z</time>
</trkpt>
<trkpt lat="46.0964400" lon="10.4420060">
	<ele>1574.60</ele>
	<time>2024-07-25T11:55:56.000Z</time>
</trkpt>
<trkpt lat="46.0964420" lon="10.4419920">
	<ele>1574.40</ele>
	<time>2024-07-25T11:55:57.000Z</time>
</trkpt>
<trkpt lat="46.0964390" lon="10.4419700">
	<ele>1574.20</ele>
	<time>2024-07-25T11:55:58.000Z</time>
</trkpt>
<trkpt lat="46.0964420" lon="10.4419610">
	<ele>1574.00</ele>
	<time>2024-07-25T11:55:59.000Z</time>
</trkpt>
<trkpt lat="46.0964450" lon="10.4419540">
	<ele>1573.80</ele>
	<time>2024-07-25T11:56:00.000Z</time>
</trkpt>
<trkpt lat="46.0964540" lon="10.4419540">
	<ele>1573.80</ele>
	<time>2024-07-25T11:56:01.000Z</time>
</trkpt>
<trkpt lat="46.0964580" lon="10.4419540">
	<ele>1573.60</ele>
	<time>2024-07-25T11:56:02.000Z</time>
</trkpt>
<trkpt lat="46.0964620" lon="10.4419460">
	<ele>1573.40</ele>
	<time>2024-07-25T11:56:03.000Z</time>
</trkpt>
<trkpt lat="46.0964600" lon="10.4419430">
	<ele>1573.20</ele>
	<time>2024-07-25T11:56:04.000Z</time>
</trkpt>
<trkpt lat="46.0964580" lon="10.4419340">
	<ele>1573.00</ele>
	<time>2024-07-25T11:56:05.000Z</time>
</trkpt>
<trkpt lat="46.0964560" lon="10.4419040">
	<ele>1573.00</ele>
	<time>2024-07-25T11:56:06.000Z</time>
</trkpt>
<trkpt lat="46.0964620" lon="10.4419030">
	<ele>1572.80</ele>
	<time>2024-07-25T11:56:07.000Z</time>
</trkpt>
<trkpt lat="46.0964660" lon="10.4418970">
	<ele>1572.60</ele>
	<time>2024-07-25T11:56:08.000Z</time>
</trkpt>
<trkpt lat="46.0964670" lon="10.4418860">
	<ele>1572.40</ele>
	<time>2024-07-25T11:56:09.000Z</time>
</trkpt>
<trkpt lat="46.0964770" lon="10.4418880">
	<ele>1572.20</ele>
	<time>2024-07-25T11:56:10.000Z</time>
</trkpt>
<trkpt lat="46.0964920" lon="10.4418930">
	<ele>1572.00</ele>
	<time>2024-07-25T11:56:11.000Z</time>
</trkpt>
<trkpt lat="46.0965120" lon="10.4419110">
	<ele>1571.80</ele>
	<time>2024-07-25T11:56:12.000Z</time>
</trkpt>
<trkpt lat="46.0965220" lon="10.4419170">
	<ele>1571.40</ele>
	<time>2024-07-25T11:56:13.000Z</time>
</trkpt>
<trkpt lat="46.0965240" lon="10.4419170">
	<ele>1571.20</ele>
	<time>2024-07-25T11:56:14.000Z</time>
</trkpt>
<trkpt lat="46.0965290" lon="10.4419180">
	<ele>1571.00</ele>
	<time>2024-07-25T11:56:15.000Z</time>
</trkpt>
<trkpt lat="46.0965340" lon="10.4419150">
	<ele>1571.00</ele>
	<time>2024-07-25T11:56:16.000Z</time>
</trkpt>
<trkpt lat="46.0965410" lon="10.4419170">
	<ele>1570.80</ele>
	<time>2024-07-25T11:56:17.000Z</time>
</trkpt>
<trkpt lat="46.0965540" lon="10.4419310">
	<ele>1570.60</ele>
	<time>2024-07-25T11:56:18.000Z</time>
</trkpt>
<trkpt lat="46.0965730" lon="10.4419370">
	<ele>1570.40</ele>
	<time>2024-07-25T11:56:19.000Z</time>
</trkpt>
<trkpt lat="46.0965910" lon="10.4419400">
	<ele>1570.20</ele>
	<time>2024-07-25T11:56:20.000Z</time>
</trkpt>
<trkpt lat="46.0966020" lon="10.4419260">
	<ele>1570.00</ele>
	<time>2024-07-25T11:56:21.000Z</time>
</trkpt>
<trkpt lat="46.0966190" lon="10.4419250">
	<ele>1569.60</ele>
	<time>2024-07-25T11:56:22.000Z</time>
</trkpt>
<trkpt lat="46.0966290" lon="10.4419200">
	<ele>1569.40</ele>
	<time>2024-07-25T11:56:23.000Z</time>
</trkpt>
<trkpt lat="46.0966460" lon="10.4419190">
	<ele>1569.20</ele>
	<time>2024-07-25T11:56:24.000Z</time>
</trkpt>
<trkpt lat="46.0966580" lon="10.4419110">
	<ele>1569.00</ele>
	<time>2024-07-25T11:56:25.000Z</time>
</trkpt>
<trkpt lat="46.0966670" lon="10.4418960">
	<ele>1569.00</ele>
	<time>2024-07-25T11:56:26.000Z</time>
</trkpt>
<trkpt lat="46.0966760" lon="10.4418790">
	<ele>1568.80</ele>
	<time>2024-07-25T11:56:27.000Z</time>
</trkpt>
<trkpt lat="46.0966920" lon="10.4418720">
	<ele>1568.60</ele>
	<time>2024-07-25T11:56:28.000Z</time>
</trkpt>
<trkpt lat="46.0966980" lon="10.4418590">
	<ele>1568.40</ele>
	<time>2024-07-25T11:56:29.000Z</time>
</trkpt>
<trkpt lat="46.0967040" lon="10.4418520">
	<ele>1568.20</ele>
	<time>2024-07-25T11:56:30.000Z</time>
</trkpt>
<trkpt lat="46.0967110" lon="10.4418430">
	<ele>1568.00</ele>
	<time>2024-07-25T11:56:31.000Z</time>
</trkpt>
<trkpt lat="46.0967110" lon="10.4418280">
	<ele>1567.60</ele>
	<time>2024-07-25T11:56:32.000Z</time>
</trkpt>
<trkpt lat="46.0967100" lon="10.4418190">
	<ele>1567.20</ele>
	<time>2024-07-25T11:56:33.000Z</time>
</trkpt>
<trkpt lat="46.0967060" lon="10.4418040">
	<ele>1567.00</ele>
	<time>2024-07-25T11:56:34.000Z</time>
</trkpt>
<trkpt lat="46.0967030" lon="10.4418010">
	<ele>1567.00</ele>
	<time>2024-07-25T11:56:35.000Z</time>
</trkpt>
<trkpt lat="46.0967000" lon="10.4418040">
	<ele>1566.80</ele>
	<time>2024-07-25T11:56:36.000Z</time>
</trkpt>
<trkpt lat="46.0966940" lon="10.4418060">
	<ele>1566.60</ele>
	<time>2024-07-25T11:56:37.000Z</time>
</trkpt>
<trkpt lat="46.0966880" lon="10.4418080">
	<ele>1566.40</ele>
	<time>2024-07-25T11:56:38.000Z</time>
</trkpt>
<trkpt lat="46.0966810" lon="10.4418060">
	<ele>1566.00</ele>
	<time>2024-07-25T11:56:39.000Z</time>
</trkpt>
<trkpt lat="46.0966710" lon="10.4418120">
	<ele>1566.00</ele>
	<time>2024-07-25T11:56:40.000Z</time>
</trkpt>
<trkpt lat="46.0966580" lon="10.4418220">
	<ele>1565.80</ele>
	<time>2024-07-25T11:56:41.000Z</time>
</trkpt>
<trkpt lat="46.0966450" lon="10.4418260">
	<ele>1565.60</ele>
	<time>2024-07-25T11:56:42.000Z</time>
</trkpt>
<trkpt lat="46.0966340" lon="10.4418350">
	<ele>1565.40</ele>
	<time>2024-07-25T11:56:43.000Z</time>
</trkpt>
<trkpt lat="46.0966240" lon="10.4418400">
	<ele>1565.00</ele>
	<time>2024-07-25T11:56:44.000Z</time>
</trkpt>
<trkpt lat="46.0966190" lon="10.4418420">
	<ele>1564.80</ele>
	<time>2024-07-25T11:56:45.000Z</time>
</trkpt>
<trkpt lat="46.0966140" lon="10.4418470">
	<ele>1564.80</ele>
	<time>2024-07-25T11:56:46.000Z</time>
</trkpt>
<trkpt lat="46.0966110" lon="10.4418490">
	<ele>1564.60</ele>
	<time>2024-07-25T11:56:47.000Z</time>
</trkpt>
<trkpt lat="46.0966030" lon="10.4418330">
	<ele>1564.40</ele>
	<time>2024-07-25T11:56:48.000Z</time>
</trkpt>
<trkpt lat="46.0966000" lon="10.4418320">
	<ele>1564.20</ele>
	<time>2024-07-25T11:56:49.000Z</time>
</trkpt>
<trkpt lat="46.0965960" lon="10.4418310">
	<ele>1564.00</ele>
	<time>2024-07-25T11:56:50.000Z</time>
</trkpt>
<trkpt lat="46.0965820" lon="10.4418010">
	<ele>1564.00</ele>
	<time>2024-07-25T11:56:51.000Z</time>
</trkpt>
<trkpt lat="46.0965650" lon="10.4417850">
	<ele>1563.80</ele>
	<time>2024-07-25T11:56:52.000Z</time>
</trkpt>
<trkpt lat="46.0965620" lon="10.4417780">
	<ele>1563.80</ele>
	<time>2024-07-25T11:56:53.000Z</time>
</trkpt>
<trkpt lat="46.0965580" lon="10.4417740">
	<ele>1563.60</ele>
	<time>2024-07-25T11:56:54.000Z</time>
</trkpt>
<trkpt lat="46.0965500" lon="10.4417660">
	<ele>1563.40</ele>
	<time>2024-07-25T11:56:55.000Z</time>
</trkpt>
<trkpt lat="46.0965390" lon="10.4417620">
	<ele>1563.20</ele>
	<time>2024-07-25T11:56:56.000Z</time>
</trkpt>
<trkpt lat="46.0965290" lon="10.4417610">
	<ele>1563.00</ele>
	<time>2024-07-25T11:56:57.000Z</time>
</trkpt>
<trkpt lat="46.0965170" lon="10.4417600">
	<ele>1562.80</ele>
	<time>2024-07-25T11:56:58.000Z</time>
</trkpt>
<trkpt lat="46.0965070" lon="10.4417620">
	<ele>1562.60</ele>
	<time>2024-07-25T11:56:59.000Z</time>
</trkpt>
<trkpt lat="46.0964950" lon="10.4417600">
	<ele>1562.40</ele>
	<time>2024-07-25T11:57:00.000Z</time>
</trkpt>
<trkpt lat="46.0964890" lon="10.4417510">
	<ele>1562.00</ele>
	<time>2024-07-25T11:57:01.000Z</time>
</trkpt>
<trkpt lat="46.0964850" lon="10.4417400">
	<ele>1561.60</ele>
	<time>2024-07-25T11:57:02.000Z</time>
</trkpt>
<trkpt lat="46.0964820" lon="10.4417360">
	<ele>1561.60</ele>
	<time>2024-07-25T11:57:03.000Z</time>
</trkpt>
<trkpt lat="46.0964750" lon="10.4417230">
	<ele>1561.40</ele>
	<time>2024-07-25T11:57:04.000Z</time>
</trkpt>
<trkpt lat="46.0964670" lon="10.4417100">
	<ele>1561.40</ele>
	<time>2024-07-25T11:57:05.000Z</time>
</trkpt>
<trkpt lat="46.0964540" lon="10.4416970">
	<ele>1561.20</ele>
	<time>2024-07-25T11:57:06.000Z</time>
</trkpt>
<trkpt lat="46.0964440" lon="10.4416730">
	<ele>1561.20</ele>
	<time>2024-07-25T11:57:07.000Z</time>
</trkpt>
<trkpt lat="46.0964400" lon="10.4416680">
	<ele>1561.00</ele>
	<time>2024-07-25T11:57:08.000Z</time>
</trkpt>
<trkpt lat="46.0964310" lon="10.4416540">
	<ele>1560.60</ele>
	<time>2024-07-25T11:57:09.000Z</time>
</trkpt>
<trkpt lat="46.0964220" lon="10.4416410">
	<ele>1560.40</ele>
	<time>2024-07-25T11:57:10.000Z</time>
</trkpt>
<trkpt lat="46.0964140" lon="10.4416410">
	<ele>1560.20</ele>
	<time>2024-07-25T11:57:11.000Z</time>
</trkpt>
<trkpt lat="46.0964020" lon="10.4416420">
	<ele>1560.00</ele>
	<time>2024-07-25T11:57:12.000Z</time>
</trkpt>
<trkpt lat="46.0963880" lon="10.4416350">
	<ele>1559.60</ele>
	<time>2024-07-25T11:57:13.000Z</time>
</trkpt>
<trkpt lat="46.0963770" lon="10.4416300">
	<ele>1559.20</ele>
	<time>2024-07-25T11:57:14.000Z</time>
</trkpt>
<trkpt lat="46.0963670" lon="10.4416320">
	<ele>1559.00</ele>
	<time>2024-07-25T11:57:15.000Z</time>
</trkpt>
<trkpt lat="46.0963570" lon="10.4416320">
	<ele>1558.80</ele>
	<time>2024-07-25T11:57:16.000Z</time>
</trkpt>
<trkpt lat="46.0963480" lon="10.4416210">
	<ele>1558.60</ele>
	<time>2024-07-25T11:57:17.000Z</time>
</trkpt>
<trkpt lat="46.0963350" lon="10.4416110">
	<ele>1558.40</ele>
	<time>2024-07-25T11:57:18.000Z</time>
</trkpt>
<trkpt lat="46.0963200" lon="10.4415920">
	<ele>1558.20</ele>
	<time>2024-07-25T11:57:19.000Z</time>
</trkpt>
<trkpt lat="46.0963050" lon="10.4415770">
	<ele>1557.80</ele>
	<time>2024-07-25T11:57:20.000Z</time>
</trkpt>
<trkpt lat="46.0962940" lon="10.4415780">
	<ele>1557.60</ele>
	<time>2024-07-25T11:57:21.000Z</time>
</trkpt>
<trkpt lat="46.0962840" lon="10.4415740">
	<ele>1557.40</ele>
	<time>2024-07-25T11:57:22.000Z</time>
</trkpt>
<trkpt lat="46.0962750" lon="10.4415670">
	<ele>1557.20</ele>
	<time>2024-07-25T11:57:23.000Z</time>
</trkpt>
<trkpt lat="46.0962640" lon="10.4415660">
	<ele>1556.80</ele>
	<time>2024-07-25T11:57:24.000Z</time>
</trkpt>
<trkpt lat="46.0962520" lon="10.4415680">
	<ele>1556.40</ele>
	<time>2024-07-25T11:57:25.000Z</time>
</trkpt>
<trkpt lat="46.0962390" lon="10.4415670">
	<ele>1556.20</ele>
	<time>2024-07-25T11:57:26.000Z</time>
</trkpt>
<trkpt lat="46.0962210" lon="10.4415630">
	<ele>1555.80</ele>
	<time>2024-07-25T11:57:27.000Z</time>
</trkpt>
<trkpt lat="46.0962080" lon="10.4415620">
	<ele>1555.60</ele>
	<time>2024-07-25T11:57:28.000Z</time>
</trkpt>
<trkpt lat="46.0961970" lon="10.4415600">
	<ele>1555.40</ele>
	<time>2024-07-25T11:57:29.000Z</time>
</trkpt>
<trkpt lat="46.0961850" lon="10.4415640">
	<ele>1555.00</ele>
	<time>2024-07-25T11:57:30.000Z</time>
</trkpt>
<trkpt lat="46.0961750" lon="10.4415730">
	<ele>1555.00</ele>
	<time>2024-07-25T11:57:31.000Z</time>
</trkpt>
<trkpt lat="46.0961650" lon="10.4415760">
	<ele>1554.80</ele>
	<time>2024-07-25T11:57:32.000Z</time>
</trkpt>
<trkpt lat="46.0961610" lon="10.4415850">
	<ele>1554.60</ele>
	<time>2024-07-25T11:57:33.000Z</time>
</trkpt>
<trkpt lat="46.0961540" lon="10.4415850">
	<ele>1554.40</ele>
	<time>2024-07-25T11:57:34.000Z</time>
</trkpt>
<trkpt lat="46.0961470" lon="10.4415840">
	<ele>1554.20</ele>
	<time>2024-07-25T11:57:35.000Z</time>
</trkpt>
<trkpt lat="46.0961260" lon="10.4415650">
	<ele>1553.80</ele>
	<time>2024-07-25T11:57:36.000Z</time>
</trkpt>
<trkpt lat="46.0961030" lon="10.4415440">
	<ele>1553.40</ele>
	<time>2024-07-25T11:57:37.000Z</time>
</trkpt>
<trkpt lat="46.0960880" lon="10.4415290">
	<ele>1553.20</ele>
	<time>2024-07-25T11:57:38.000Z</time>
</trkpt>
<trkpt lat="46.0960790" lon="10.4415170">
	<ele>1552.80</ele>
	<time>2024-07-25T11:57:39.000Z</time>
</trkpt>
<trkpt lat="46.0960690" lon="10.4415120">
	<ele>1552.60</ele>
	<time>2024-07-25T11:57:40.000Z</time>
</trkpt>
<trkpt lat="46.0960660" lon="10.4415180">
	<ele>1552.40</ele>
	<time>2024-07-25T11:57:41.000Z</time>
</trkpt>
<trkpt lat="46.0960640" lon="10.4415250">
	<ele>1552.20</ele>
	<time>2024-07-25T11:57:42.000Z</time>
</trkpt>
<trkpt lat="46.0960530" lon="10.4415200">
	<ele>1552.00</ele>
	<time>2024-07-25T11:57:43.000Z</time>
</trkpt>
<trkpt lat="46.0960460" lon="10.4415190">
	<ele>1551.80</ele>
	<time>2024-07-25T11:57:44.000Z</time>
</trkpt>
<trkpt lat="46.0960400" lon="10.4415170">
	<ele>1551.60</ele>
	<time>2024-07-25T11:57:45.000Z</time>
</trkpt>
<trkpt lat="46.0960320" lon="10.4415050">
	<ele>1551.40</ele>
	<time>2024-07-25T11:57:46.000Z</time>
</trkpt>
<trkpt lat="46.0960240" lon="10.4414980">
	<ele>1551.20</ele>
	<time>2024-07-25T11:57:47.000Z</time>
</trkpt>
<trkpt lat="46.0960120" lon="10.4414830">
	<ele>1551.00</ele>
	<time>2024-07-25T11:57:48.000Z</time>
</trkpt>
<trkpt lat="46.0959990" lon="10.4414600">
	<ele>1551.00</ele>
	<time>2024-07-25T11:57:49.000Z</time>
</trkpt>
<trkpt lat="46.0959880" lon="10.4414450">
	<ele>1550.80</ele>
	<time>2024-07-25T11:57:50.000Z</time>
</trkpt>
<trkpt lat="46.0959740" lon="10.4414330">
	<ele>1550.60</ele>
	<time>2024-07-25T11:57:51.000Z</time>
</trkpt>
<trkpt lat="46.0959640" lon="10.4414250">
	<ele>1550.20</ele>
	<time>2024-07-25T11:57:52.000Z</time>
</trkpt>
<trkpt lat="46.0959550" lon="10.4414220">
	<ele>1550.00</ele>
	<time>2024-07-25T11:57:53.000Z</time>
</trkpt>
<trkpt lat="46.0959480" lon="10.4414140">
	<ele>1549.80</ele>
	<time>2024-07-25T11:57:54.000Z</time>
</trkpt>
<trkpt lat="46.0959410" lon="10.4414090">
	<ele>1549.60</ele>
	<time>2024-07-25T11:57:55.000Z</time>
</trkpt>
<trkpt lat="46.0959300" lon="10.4414070">
	<ele>1549.40</ele>
	<time>2024-07-25T11:57:56.000Z</time>
</trkpt>
<trkpt lat="46.0959190" lon="10.4414110">
	<ele>1549.20</ele>
	<time>2024-07-25T11:57:57.000Z</time>
</trkpt>
<trkpt lat="46.0959080" lon="10.4413980">
	<ele>1548.80</ele>
	<time>2024-07-25T11:57:58.000Z</time>
</trkpt>
<trkpt lat="46.0958960" lon="10.4413840">
	<ele>1548.40</ele>
	<time>2024-07-25T11:57:59.000Z</time>
</trkpt>
<trkpt lat="46.0958900" lon="10.4413820">
	<ele>1548.20</ele>
	<time>2024-07-25T11:58:00.000Z</time>
</trkpt>
<trkpt lat="46.0958800" lon="10.4413710">
	<ele>1548.00</ele>
	<time>2024-07-25T11:58:01.000Z</time>
</trkpt>
<trkpt lat="46.0958720" lon="10.4413590">
	<ele>1547.80</ele>
	<time>2024-07-25T11:58:02.000Z</time>
</trkpt>
<trkpt lat="46.0958680" lon="10.4413580">
	<ele>1547.60</ele>
	<time>2024-07-25T11:58:03.000Z</time>
</trkpt>
<trkpt lat="46.0958620" lon="10.4413470">
	<ele>1547.20</ele>
	<time>2024-07-25T11:58:04.000Z</time>
</trkpt>
<trkpt lat="46.0958610" lon="10.4413460">
	<ele>1547.00</ele>
	<time>2024-07-25T11:58:05.000Z</time>
</trkpt>
<trkpt lat="46.0958520" lon="10.4413360">
	<ele>1546.60</ele>
	<time>2024-07-25T11:58:06.000Z</time>
</trkpt>
<trkpt lat="46.0958460" lon="10.4413320">
	<ele>1546.40</ele>
	<time>2024-07-25T11:58:07.000Z</time>
</trkpt>
<trkpt lat="46.0958410" lon="10.4413320">
	<ele>1546.00</ele>
	<time>2024-07-25T11:58:08.000Z</time>
</trkpt>
<trkpt lat="46.0958340" lon="10.4413250">
	<ele>1545.80</ele>
	<time>2024-07-25T11:58:09.000Z</time>
</trkpt>
<trkpt lat="46.0958300" lon="10.4413190">
	<ele>1545.60</ele>
	<time>2024-07-25T11:58:10.000Z</time>
</trkpt>
<trkpt lat="46.0958280" lon="10.4413120">
	<ele>1545.40</ele>
	<time>2024-07-25T11:58:11.000Z</time>
</trkpt>
<trkpt lat="46.0958230" lon="10.4413050">
	<ele>1545.20</ele>
	<time>2024-07-25T11:58:12.000Z</time>
</trkpt>
<trkpt lat="46.0958080" lon="10.4413040">
	<ele>1545.00</ele>
	<time>2024-07-25T11:58:13.000Z</time>
</trkpt>
<trkpt lat="46.0958050" lon="10.4413050">
	<ele>1544.60</ele>
	<time>2024-07-25T11:58:14.000Z</time>
</trkpt>
<trkpt lat="46.0957950" lon="10.4412990">
	<ele>1544.40</ele>
	<time>2024-07-25T11:58:15.000Z</time>
</trkpt>
<trkpt lat="46.0957950" lon="10.4413040">
	<ele>1544.40</ele>
	<time>2024-07-25T11:58:16.000Z</time>
</trkpt>
<trkpt lat="46.0957950" lon="10.4413080">
	<ele>1544.20</ele>
	<time>2024-07-25T11:58:17.000Z</time>
</trkpt>
<trkpt lat="46.0957940" lon="10.4413090">
	<ele>1544.20</ele>
	<time>2024-07-25T11:58:18.000Z</time>
</trkpt>
<trkpt lat="46.0957930" lon="10.4413120">
	<ele>1544.20</ele>
	<time>2024-07-25T11:58:19.000Z</time>
</trkpt>
<trkpt lat="46.0957920" lon="10.4413120">
	<ele>1544.20</ele>
	<time>2024-07-25T11:58:20.000Z</time>
</trkpt>
<trkpt lat="46.0957830" lon="10.4413130">
	<ele>1544.20</ele>
	<time>2024-07-25T11:58:21.000Z</time>
</trkpt>
<trkpt lat="46.0957730" lon="10.4412950">
	<ele>1544.20</ele>
	<time>2024-07-25T11:58:22.000Z</time>
</trkpt>
<trkpt lat="46.0957720" lon="10.4412890">
	<ele>1544.20</ele>
	<time>2024-07-25T11:58:23.000Z</time>
</trkpt>
<trkpt lat="46.0957650" lon="10.4412760">
	<ele>1544.20</ele>
	<time>2024-07-25T11:58:24.000Z</time>
</trkpt>
<trkpt lat="46.0957580" lon="10.4412680">
	<ele>1543.80</ele>
	<time>2024-07-25T11:58:25.000Z</time>
</trkpt>
<trkpt lat="46.0957490" lon="10.4412610">
	<ele>1543.60</ele>
	<time>2024-07-25T11:58:26.000Z</time>
</trkpt>
<trkpt lat="46.0957410" lon="10.4412670">
	<ele>1543.40</ele>
	<time>2024-07-25T11:58:27.000Z</time>
</trkpt>
<trkpt lat="46.0957320" lon="10.4412750">
	<ele>1543.20</ele>
	<time>2024-07-25T11:58:28.000Z</time>
</trkpt>
<trkpt lat="46.0957270" lon="10.4412830">
	<ele>1543.00</ele>
	<time>2024-07-25T11:58:29.000Z</time>
</trkpt>
<trkpt lat="46.0957140" lon="10.4412870">
	<ele>1542.80</ele>
	<time>2024-07-25T11:58:30.000Z</time>
</trkpt>
<trkpt lat="46.0957050" lon="10.4412870">
	<ele>1542.40</ele>
	<time>2024-07-25T11:58:31.000Z</time>
</trkpt>
<trkpt lat="46.0956950" lon="10.4412880">
	<ele>1542.20</ele>
	<time>2024-07-25T11:58:32.000Z</time>
</trkpt>
<trkpt lat="46.0956870" lon="10.4412880">
	<ele>1541.80</ele>
	<time>2024-07-25T11:58:33.000Z</time>
</trkpt>
<trkpt lat="46.0956820" lon="10.4412870">
	<ele>1541.60</ele>
	<time>2024-07-25T11:58:34.000Z</time>
</trkpt>
<trkpt lat="46.0956730" lon="10.4412930">
	<ele>1541.40</ele>
	<time>2024-07-25T11:58:35.000Z</time>
</trkpt>
<trkpt lat="46.0956680" lon="10.4413030">
	<ele>1541.20</ele>
	<time>2024-07-25T11:58:36.000Z</time>
</trkpt>
<trkpt lat="46.0956640" lon="10.4413110">
	<ele>1541.00</ele>
	<time>2024-07-25T11:58:37.000Z</time>
</trkpt>
<trkpt lat="46.0956590" lon="10.4413080">
	<ele>1540.80</ele>
	<time>2024-07-25T11:58:38.000Z</time>
</trkpt>
<trkpt lat="46.0956490" lon="10.4412990">
	<ele>1540.40</ele>
	<time>2024-07-25T11:58:39.000Z</time>
</trkpt>
<trkpt lat="46.0956360" lon="10.4412900">
	<ele>1540.20</ele>
	<time>2024-07-25T11:58:40.000Z</time>
</trkpt>
<trkpt lat="46.0956230" lon="10.4412860">
	<ele>1540.00</ele>
	<time>2024-07-25T11:58:41.000Z</time>
</trkpt>
<trkpt lat="46.0956110" lon="10.4412800">
	<ele>1539.60</ele>
	<time>2024-07-25T11:58:42.000Z</time>
</trkpt>
<trkpt lat="46.0956000" lon="10.4412790">
	<ele>1539.40</ele>
	<time>2024-07-25T11:58:43.000Z</time>
</trkpt>
<trkpt lat="46.0955870" lon="10.4412750">
	<ele>1539.20</ele>
	<time>2024-07-25T11:58:44.000Z</time>
</trkpt>
<trkpt lat="46.0955730" lon="10.4412660">
	<ele>1539.00</ele>
	<time>2024-07-25T11:58:45.000Z</time>
</trkpt>
<trkpt lat="46.0955650" lon="10.4412620">
	<ele>1538.60</ele>
	<time>2024-07-25T11:58:46.000Z</time>
</trkpt>
<trkpt lat="46.0955540" lon="10.4412590">
	<ele>1538.60</ele>
	<time>2024-07-25T11:58:47.000Z</time>
</trkpt>
<trkpt lat="46.0955410" lon="10.4412520">
	<ele>1538.40</ele>
	<time>2024-07-25T11:58:48.000Z</time>
</trkpt>
<trkpt lat="46.0955280" lon="10.4412420">
	<ele>1538.20</ele>
	<time>2024-07-25T11:58:49.000Z</time>
</trkpt>
<trkpt lat="46.0955190" lon="10.4412390">
	<ele>1538.00</ele>
	<time>2024-07-25T11:58:50.000Z</time>
</trkpt>
<trkpt lat="46.0955120" lon="10.4412430">
	<ele>1537.60</ele>
	<time>2024-07-25T11:58:51.000Z</time>
</trkpt>
<trkpt lat="46.0955060" lon="10.4412490">
	<ele>1537.40</ele>
	<time>2024-07-25T11:58:52.000Z</time>
</trkpt>
<trkpt lat="46.0954970" lon="10.4412520">
	<ele>1537.20</ele>
	<time>2024-07-25T11:58:53.000Z</time>
</trkpt>
<trkpt lat="46.0954850" lon="10.4412490">
	<ele>1537.00</ele>
	<time>2024-07-25T11:58:54.000Z</time>
</trkpt>
<trkpt lat="46.0954750" lon="10.4412470">
	<ele>1536.60</ele>
	<time>2024-07-25T11:58:55.000Z</time>
</trkpt>
<trkpt lat="46.0954590" lon="10.4412340">
	<ele>1536.40</ele>
	<time>2024-07-25T11:58:56.000Z</time>
</trkpt>
<trkpt lat="46.0954470" lon="10.4412220">
	<ele>1536.20</ele>
	<time>2024-07-25T11:58:57.000Z</time>
</trkpt>
<trkpt lat="46.0954370" lon="10.4412130">
	<ele>1536.00</ele>
	<time>2024-07-25T11:58:58.000Z</time>
</trkpt>
<trkpt lat="46.0954240" lon="10.4412070">
	<ele>1535.80</ele>
	<time>2024-07-25T11:58:59.000Z</time>
</trkpt>
<trkpt lat="46.0954090" lon="10.4411940">
	<ele>1535.60</ele>
	<time>2024-07-25T11:59:00.000Z</time>
</trkpt>
<trkpt lat="46.0953960" lon="10.4411930">
	<ele>1535.40</ele>
	<time>2024-07-25T11:59:01.000Z</time>
</trkpt>
<trkpt lat="46.0953890" lon="10.4411980">
	<ele>1535.00</ele>
	<time>2024-07-25T11:59:02.000Z</time>
</trkpt>
<trkpt lat="46.0953750" lon="10.4411920">
	<ele>1534.80</ele>
	<time>2024-07-25T11:59:03.000Z</time>
</trkpt>
<trkpt lat="46.0953650" lon="10.4411820">
	<ele>1534.60</ele>
	<time>2024-07-25T11:59:04.000Z</time>
</trkpt>
<trkpt lat="46.0953540" lon="10.4411730">
	<ele>1534.40</ele>
	<time>2024-07-25T11:59:05.000Z</time>
</trkpt>
<trkpt lat="46.0953440" lon="10.4411580">
	<ele>1534.40</ele>
	<time>2024-07-25T11:59:06.000Z</time>
</trkpt>
<trkpt lat="46.0953330" lon="10.4411440">
	<ele>1534.20</ele>
	<time>2024-07-25T11:59:07.000Z</time>
</trkpt>
<trkpt lat="46.0953190" lon="10.4411290">
	<ele>1534.00</ele>
	<time>2024-07-25T11:59:08.000Z</time>
</trkpt>
<trkpt lat="46.0953150" lon="10.4411260">
	<ele>1533.80</ele>
	<time>2024-07-25T11:59:09.000Z</time>
</trkpt>
<trkpt lat="46.0953100" lon="10.4411230">
	<ele>1533.40</ele>
	<time>2024-07-25T11:59:10.000Z</time>
</trkpt>
<trkpt lat="46.0953010" lon="10.4411170">
	<ele>1533.20</ele>
	<time>2024-07-25T11:59:11.000Z</time>
</trkpt>
<trkpt lat="46.0952970" lon="10.4411230">
	<ele>1533.00</ele>
	<time>2024-07-25T11:59:12.000Z</time>
</trkpt>
<trkpt lat="46.0952950" lon="10.4411240">
	<ele>1532.80</ele>
	<time>2024-07-25T11:59:13.000Z</time>
</trkpt>
<trkpt lat="46.0952920" lon="10.4411240">
	<ele>1532.60</ele>
	<time>2024-07-25T11:59:14.000Z</time>
</trkpt>
<trkpt lat="46.0952900" lon="10.4411240">
	<ele>1532.20</ele>
	<time>2024-07-25T11:59:15.000Z</time>
</trkpt>
<trkpt lat="46.0952780" lon="10.4411140">
	<ele>1532.00</ele>
	<time>2024-07-25T11:59:16.000Z</time>
</trkpt>
<trkpt lat="46.0952680" lon="10.4411150">
	<ele>1531.80</ele>
	<time>2024-07-25T11:59:17.000Z</time>
</trkpt>
<trkpt lat="46.0952530" lon="10.4411080">
	<ele>1531.60</ele>
	<time>2024-07-25T11:59:18.000Z</time>
</trkpt>
<trkpt lat="46.0952340" lon="10.4410840">
	<ele>1531.40</ele>
	<time>2024-07-25T11:59:19.000Z</time>
</trkpt>
<trkpt lat="46.0952200" lon="10.4410630">
	<ele>1531.20</ele>
	<time>2024-07-25T11:59:20.000Z</time>
</trkpt>
<trkpt lat="46.0952120" lon="10.4410460">
	<ele>1531.00</ele>
	<time>2024-07-25T11:59:21.000Z</time>
</trkpt>
<trkpt lat="46.0952030" lon="10.4410270">
	<ele>1530.60</ele>
	<time>2024-07-25T11:59:22.000Z</time>
</trkpt>
<trkpt lat="46.0951930" lon="10.4410130">
	<ele>1530.40</ele>
	<time>2024-07-25T11:59:23.000Z</time>
</trkpt>
<trkpt lat="46.0951820" lon="10.4409960">
	<ele>1530.20</ele>
	<time>2024-07-25T11:59:24.000Z</time>
</trkpt>
<trkpt lat="46.0951700" lon="10.4409640">
	<ele>1529.80</ele>
	<time>2024-07-25T11:59:25.000Z</time>
</trkpt>
<trkpt lat="46.0951600" lon="10.4409310">
	<ele>1529.60</ele>
	<time>2024-07-25T11:59:26.000Z</time>
</trkpt>
<trkpt lat="46.0951520" lon="10.4409050">
	<ele>1529.60</ele>
	<time>2024-07-25T11:59:27.000Z</time>
</trkpt>
<trkpt lat="46.0951420" lon="10.4408960">
	<ele>1529.40</ele>
	<time>2024-07-25T11:59:28.000Z</time>
</trkpt>
<trkpt lat="46.0951290" lon="10.4408820">
	<ele>1529.20</ele>
	<time>2024-07-25T11:59:29.000Z</time>
</trkpt>
<trkpt lat="46.0951190" lon="10.4408730">
	<ele>1529.20</ele>
	<time>2024-07-25T11:59:30.000Z</time>
</trkpt>
<trkpt lat="46.0951090" lon="10.4408670">
	<ele>1529.00</ele>
	<time>2024-07-25T11:59:31.000Z</time>
</trkpt>
<trkpt lat="46.0950900" lon="10.4408570">
	<ele>1528.80</ele>
	<time>2024-07-25T11:59:32.000Z</time>
</trkpt>
<trkpt lat="46.0950760" lon="10.4408470">
	<ele>1528.40</ele>
	<time>2024-07-25T11:59:33.000Z</time>
</trkpt>
<trkpt lat="46.0950750" lon="10.4408430">
	<ele>1528.40</ele>
	<time>2024-07-25T11:59:34.000Z</time>
</trkpt>
<trkpt lat="46.0950670" lon="10.4408460">
	<ele>1528.20</ele>
	<time>2024-07-25T11:59:35.000Z</time>
</trkpt>
<trkpt lat="46.0950570" lon="10.4408370">
	<ele>1528.00</ele>
	<time>2024-07-25T11:59:36.000Z</time>
</trkpt>
<trkpt lat="46.0950450" lon="10.4408260">
	<ele>1527.60</ele>
	<time>2024-07-25T11:59:37.000Z</time>
</trkpt>
<trkpt lat="46.0950340" lon="10.4408200">
	<ele>1527.40</ele>
	<time>2024-07-25T11:59:38.000Z</time>
</trkpt>
<trkpt lat="46.0950250" lon="10.4408140">
	<ele>1527.20</ele>
	<time>2024-07-25T11:59:39.000Z</time>
</trkpt>
<trkpt lat="46.0950160" lon="10.4408070">
	<ele>1527.00</ele>
	<time>2024-07-25T11:59:40.000Z</time>
</trkpt>
<trkpt lat="46.0950080" lon="10.4408090">
	<ele>1526.80</ele>
	<time>2024-07-25T11:59:41.000Z</time>
</trkpt>
<trkpt lat="46.0950050" lon="10.4408100">
	<ele>1526.60</ele>
	<time>2024-07-25T11:59:42.000Z</time>
</trkpt>
<trkpt lat="46.0949940" lon="10.4408120">
	<ele>1526.40</ele>
	<time>2024-07-25T11:59:43.000Z</time>
</trkpt>
<trkpt lat="46.0949820" lon="10.4408050">
	<ele>1526.20</ele>
	<time>2024-07-25T11:59:44.000Z</time>
</trkpt>
<trkpt lat="46.0949670" lon="10.4407980">
	<ele>1526.20</ele>
	<time>2024-07-25T11:59:45.000Z</time>
</trkpt>
<trkpt lat="46.0949550" lon="10.4407950">
	<ele>1525.80</ele>
	<time>2024-07-25T11:59:46.000Z</time>
</trkpt>
<trkpt lat="46.0949460" lon="10.4407950">
	<ele>1525.60</ele>
	<time>2024-07-25T11:59:47.000Z</time>
</trkpt>
<trkpt lat="46.0949320" lon="10.4407920">
	<ele>1525.40</ele>
	<time>2024-07-25T11:59:48.000Z</time>
</trkpt>
<trkpt lat="46.0949190" lon="10.4408010">
	<ele>1525.20</ele>
	<time>2024-07-25T11:59:49.000Z</time>
</trkpt>
<trkpt lat="46.0949050" lon="10.4408110">
	<ele>1525.00</ele>
	<time>2024-07-25T11:59:50.000Z</time>
</trkpt>
<trkpt lat="46.0948910" lon="10.4408140">
	<ele>1524.80</ele>
	<time>2024-07-25T11:59:51.000Z</time>
</trkpt>
<trkpt lat="46.0948800" lon="10.4408160">
	<ele>1524.60</ele>
	<time>2024-07-25T11:59:52.000Z</time>
</trkpt>
<trkpt lat="46.0948670" lon="10.4408160">
	<ele>1524.40</ele>
	<time>2024-07-25T11:59:53.000Z</time>
</trkpt>
<trkpt lat="46.0948540" lon="10.4408130">
	<ele>1524.40</ele>
	<time>2024-07-25T11:59:54.000Z</time>
</trkpt>
<trkpt lat="46.0948440" lon="10.4408130">
	<ele>1524.40</ele>
	<time>2024-07-25T11:59:55.000Z</time>
</trkpt>
<trkpt lat="46.0948320" lon="10.4408050">
	<ele>1524.20</ele>
	<time>2024-07-25T11:59:56.000Z</time>
</trkpt>
<trkpt lat="46.0948280" lon="10.4407960">
	<ele>1524.00</ele>
	<time>2024-07-25T11:59:57.000Z</time>
</trkpt>
<trkpt lat="46.0948280" lon="10.4407880">
	<ele>1523.80</ele>
	<time>2024-07-25T11:59:58.000Z</time>
</trkpt>
<trkpt lat="46.0948340" lon="10.4407810">
	<ele>1523.60</ele>
	<time>2024-07-25T11:59:59.000Z</time>
</trkpt>
<trkpt lat="46.0948420" lon="10.4407780">
	<ele>1523.60</ele>
	<time>2024-07-25T12:00:00.000Z</time>
</trkpt>
<trkpt lat="46.0948510" lon="10.4407820">
	<ele>1523.20</ele>
	<time>2024-07-25T12:00:01.000Z</time>
</trkpt>
<trkpt lat="46.0948610" lon="10.4407810">
	<ele>1523.00</ele>
	<time>2024-07-25T12:00:02.000Z</time>
</trkpt>
<trkpt lat="46.0948770" lon="10.4407840">
	<ele>1522.80</ele>
	<time>2024-07-25T12:00:03.000Z</time>
</trkpt>
<trkpt lat="46.0948920" lon="10.4407890">
	<ele>1522.80</ele>
	<time>2024-07-25T12:00:04.000Z</time>
</trkpt>
<trkpt lat="46.0949050" lon="10.4407900">
	<ele>1522.60</ele>
	<time>2024-07-25T12:00:05.000Z</time>
</trkpt>
<trkpt lat="46.0949160" lon="10.4407890">
	<ele>1522.40</ele>
	<time>2024-07-25T12:00:06.000Z</time>
</trkpt>
<trkpt lat="46.0949260" lon="10.4407890">
	<ele>1522.20</ele>
	<time>2024-07-25T12:00:07.000Z</time>
</trkpt>
<trkpt lat="46.0949420" lon="10.4407950">
	<ele>1522.20</ele>
	<time>2024-07-25T12:00:08.000Z</time>
</trkpt>
<trkpt lat="46.0949600" lon="10.4408010">
	<ele>1521.80</ele>
	<time>2024-07-25T12:00:09.000Z</time>
</trkpt>
<trkpt lat="46.0949740" lon="10.4407990">
	<ele>1521.80</ele>
	<time>2024-07-25T12:00:10.000Z</time>
</trkpt>
<trkpt lat="46.0949830" lon="10.4407890">
	<ele>1521.40</ele>
	<time>2024-07-25T12:00:11.000Z</time>
</trkpt>
<trkpt lat="46.0949960" lon="10.4407820">
	<ele>1521.00</ele>
	<time>2024-07-25T12:00:12.000Z</time>
</trkpt>
<trkpt lat="46.0950100" lon="10.4407760">
	<ele>1520.80</ele>
	<time>2024-07-25T12:00:13.000Z</time>
</trkpt>
<trkpt lat="46.0950190" lon="10.4407690">
	<ele>1520.60</ele>
	<time>2024-07-25T12:00:14.000Z</time>
</trkpt>
<trkpt lat="46.0950270" lon="10.4407600">
	<ele>1520.40</ele>
	<time>2024-07-25T12:00:15.000Z</time>
</trkpt>
<trkpt lat="46.0950350" lon="10.4407520">
	<ele>1520.20</ele>
	<time>2024-07-25T12:00:16.000Z</time>
</trkpt>
<trkpt lat="46.0950440" lon="10.4407510">
	<ele>1520.00</ele>
	<time>2024-07-25T12:00:17.000Z</time>
</trkpt>
<trkpt lat="46.0950520" lon="10.4407490">
	<ele>1519.80</ele>
	<time>2024-07-25T12:00:18.000Z</time>
</trkpt>
<trkpt lat="46.0950660" lon="10.4407540">
	<ele>1519.80</ele>
	<time>2024-07-25T12:00:19.000Z</time>
</trkpt>
<trkpt lat="46.0950760" lon="10.4407650">
	<ele>1519.40</ele>
	<time>2024-07-25T12:00:20.000Z</time>
</trkpt>
<trkpt lat="46.0950850" lon="10.4407660">
	<ele>1519.20</ele>
	<time>2024-07-25T12:00:21.000Z</time>
</trkpt>
<trkpt lat="46.0950980" lon="10.4407660">
	<ele>1519.20</ele>
	<time>2024-07-25T12:00:22.000Z</time>
</trkpt>
<trkpt lat="46.0951110" lon="10.4407720">
	<ele>1519.00</ele>
	<time>2024-07-25T12:00:23.000Z</time>
</trkpt>
<trkpt lat="46.0951190" lon="10.4407830">
	<ele>1518.80</ele>
	<time>2024-07-25T12:00:24.000Z</time>
</trkpt>
<trkpt lat="46.0951270" lon="10.4407850">
	<ele>1518.60</ele>
	<time>2024-07-25T12:00:25.000Z</time>
</trkpt>
<trkpt lat="46.0951330" lon="10.4407970">
	<ele>1518.20</ele>
	<time>2024-07-25T12:00:26.000Z</time>
</trkpt>
<trkpt lat="46.0951460" lon="10.4408040">
	<ele>1518.20</ele>
	<time>2024-07-25T12:00:27.000Z</time>
</trkpt>
<trkpt lat="46.0951550" lon="10.4407920">
	<ele>1517.80</ele>
	<time>2024-07-25T12:00:28.000Z</time>
</trkpt>
<trkpt lat="46.0951600" lon="10.4407790">
	<ele>1517.60</ele>
	<time>2024-07-25T12:00:29.000Z</time>
</trkpt>
<trkpt lat="46.0951690" lon="10.4407740">
	<ele>1517.40</ele>
	<time>2024-07-25T12:00:30.000Z</time>
</trkpt>
<trkpt lat="46.0951730" lon="10.4407790">
	<ele>1517.20</ele>
	<time>2024-07-25T12:00:31.000Z</time>
</trkpt>
<trkpt lat="46.0951760" lon="10.4407770">
	<ele>1517.00</ele>
	<time>2024-07-25T12:00:32.000Z</time>
</trkpt>
<trkpt lat="46.0951840" lon="10.4407850">
	<ele>1516.80</ele>
	<time>2024-07-25T12:00:33.000Z</time>
</trkpt>
<trkpt lat="46.0951920" lon="10.4407850">
	<ele>1516.60</ele>
	<time>2024-07-25T12:00:34.000Z</time>
</trkpt>
<trkpt lat="46.0951980" lon="10.4407770">
	<ele>1516.40</ele>
	<time>2024-07-25T12:00:35.000Z</time>
</trkpt>
<trkpt lat="46.0951990" lon="10.4407640">
	<ele>1516.00</ele>
	<time>2024-07-25T12:00:36.000Z</time>
</trkpt>
<trkpt lat="46.0952020" lon="10.4407490">
	<ele>1515.80</ele>
	<time>2024-07-25T12:00:37.000Z</time>
</trkpt>
<trkpt lat="46.0952070" lon="10.4407370">
	<ele>1515.60</ele>
	<time>2024-07-25T12:00:38.000Z</time>
</trkpt>
<trkpt lat="46.0952110" lon="10.4407300">
	<ele>1515.40</ele>
	<time>2024-07-25T12:00:39.000Z</time>
</trkpt>
<trkpt lat="46.0952140" lon="10.4407200">
	<ele>1515.20</ele>
	<time>2024-07-25T12:00:40.000Z</time>
</trkpt>
<trkpt lat="46.0952110" lon="10.4407080">
	<ele>1515.00</ele>
	<time>2024-07-25T12:00:41.000Z</time>
</trkpt>
<trkpt lat="46.0952120" lon="10.4407020">
	<ele>1515.00</ele>
	<time>2024-07-25T12:00:42.000Z</time>
</trkpt>
<trkpt lat="46.0952220" lon="10.4407050">
	<ele>1514.60</ele>
	<time>2024-07-25T12:00:43.000Z</time>
</trkpt>
<trkpt lat="46.0952320" lon="10.4407070">
	<ele>1514.40</ele>
	<time>2024-07-25T12:00:44.000Z</time>
</trkpt>
<trkpt lat="46.0952470" lon="10.4407240">
	<ele>1514.20</ele>
	<time>2024-07-25T12:00:45.000Z</time>
</trkpt>
<trkpt lat="46.0952640" lon="10.4407320">
	<ele>1514.00</ele>
	<time>2024-07-25T12:00:46.000Z</time>
</trkpt>
<trkpt lat="46.0952770" lon="10.4407370">
	<ele>1513.80</ele>
	<time>2024-07-25T12:00:47.000Z</time>
</trkpt>
<trkpt lat="46.0952900" lon="10.4407390">
	<ele>1513.60</ele>
	<time>2024-07-25T12:00:48.000Z</time>
</trkpt>
<trkpt lat="46.0952860" lon="10.4407270">
	<ele>1513.40</ele>
	<time>2024-07-25T12:00:49.000Z</time>
</trkpt>
<trkpt lat="46.0952880" lon="10.4407130">
	<ele>1513.20</ele>
	<time>2024-07-25T12:00:50.000Z</time>
</trkpt>
<trkpt lat="46.0952970" lon="10.4407010">
	<ele>1513.20</ele>
	<time>2024-07-25T12:00:51.000Z</time>
</trkpt>
<trkpt lat="46.0953100" lon="10.4406940">
	<ele>1513.00</ele>
	<time>2024-07-25T12:00:52.000Z</time>
</trkpt>
<trkpt lat="46.0953310" lon="10.4406970">
	<ele>1512.60</ele>
	<time>2024-07-25T12:00:53.000Z</time>
</trkpt>
<trkpt lat="46.0953430" lon="10.4406870">
	<ele>1512.20</ele>
	<time>2024-07-25T12:00:54.000Z</time>
</trkpt>
<trkpt lat="46.0953530" lon="10.4406780">
	<ele>1512.00</ele>
	<time>2024-07-25T12:00:55.000Z</time>
</trkpt>
<trkpt lat="46.0953670" lon="10.4406710">
	<ele>1511.60</ele>
	<time>2024-07-25T12:00:56.000Z</time>
</trkpt>
<trkpt lat="46.0953840" lon="10.4406630">
	<ele>1511.40</ele>
	<time>2024-07-25T12:00:57.000Z</time>
</trkpt>
<trkpt lat="46.0953990" lon="10.4406550">
	<ele>1511.00</ele>
	<time>2024-07-25T12:00:58.000Z</time>
</trkpt>
<trkpt lat="46.0954110" lon="10.4406430">
	<ele>1510.80</ele>
	<time>2024-07-25T12:00:59.000Z</time>
</trkpt>
<trkpt lat="46.0954250" lon="10.4406310">
	<ele>1510.60</ele>
	<time>2024-07-25T12:01:00.000Z</time>
</trkpt>
<trkpt lat="46.0954340" lon="10.4406210">
	<ele>1510.40</ele>
	<time>2024-07-25T12:01:01.000Z</time>
</trkpt>
<trkpt lat="46.0954410" lon="10.4406040">
	<ele>1510.00</ele>
	<time>2024-07-25T12:01:02.000Z</time>
</trkpt>
<trkpt lat="46.0954500" lon="10.4405910">
	<ele>1509.80</ele>
	<time>2024-07-25T12:01:03.000Z</time>
</trkpt>
<trkpt lat="46.0954600" lon="10.4405810">
	<ele>1509.60</ele>
	<time>2024-07-25T12:01:04.000Z</time>
</trkpt>
<trkpt lat="46.0954670" lon="10.4405720">
	<ele>1509.40</ele>
	<time>2024-07-25T12:01:05.000Z</time>
</trkpt>
<trkpt lat="46.0954760" lon="10.4405600">
	<ele>1509.20</ele>
	<time>2024-07-25T12:01:06.000Z</time>
</trkpt>
<trkpt lat="46.0954850" lon="10.4405480">
	<ele>1509.00</ele>
	<time>2024-07-25T12:01:07.000Z</time>
</trkpt>
<trkpt lat="46.0955020" lon="10.4405430">
	<ele>1509.00</ele>
	<time>2024-07-25T12:01:08.000Z</time>
</trkpt>
<trkpt lat="46.0955090" lon="10.4405330">
	<ele>1508.80</ele>
	<time>2024-07-25T12:01:09.000Z</time>
</trkpt>
<trkpt lat="46.0955190" lon="10.4405270">
	<ele>1508.60</ele>
	<time>2024-07-25T12:01:10.000Z</time>
</trkpt>
<trkpt lat="46.0955340" lon="10.4405290">
	<ele>1508.20</ele>
	<time>2024-07-25T12:01:11.000Z</time>
</trkpt>
<trkpt lat="46.0955530" lon="10.4405380">
	<ele>1508.00</ele>
	<time>2024-07-25T12:01:12.000Z</time>
</trkpt>
<trkpt lat="46.0955720" lon="10.4405480">
	<ele>1507.80</ele>
	<time>2024-07-25T12:01:13.000Z</time>
</trkpt>
<trkpt lat="46.0955870" lon="10.4405530">
	<ele>1507.60</ele>
	<time>2024-07-25T12:01:14.000Z</time>
</trkpt>
<trkpt lat="46.0955970" lon="10.4405540">
	<ele>1507.40</ele>
	<time>2024-07-25T12:01:15.000Z</time>
</trkpt>
<trkpt lat="46.0956080" lon="10.4405560">
	<ele>1507.20</ele>
	<time>2024-07-25T12:01:16.000Z</time>
</trkpt>
<trkpt lat="46.0956210" lon="10.4405570">
	<ele>1507.20</ele>
	<time>2024-07-25T12:01:17.000Z</time>
</trkpt>
<trkpt lat="46.0956330" lon="10.4405530">
	<ele>1507.00</ele>
	<time>2024-07-25T12:01:18.000Z</time>
</trkpt>
<trkpt lat="46.0956470" lon="10.4405540">
	<ele>1506.80</ele>
	<time>2024-07-25T12:01:19.000Z</time>
</trkpt>
<trkpt lat="46.0956590" lon="10.4405430">
	<ele>1506.40</ele>
	<time>2024-07-25T12:01:20.000Z</time>
</trkpt>
<trkpt lat="46.0956630" lon="10.4405370">
	<ele>1506.20</ele>
	<time>2024-07-25T12:01:21.000Z</time>
</trkpt>
<trkpt lat="46.0956710" lon="10.4405350">
	<ele>1506.00</ele>
	<time>2024-07-25T12:01:22.000Z</time>
</trkpt>
<trkpt lat="46.0956790" lon="10.4405370">
	<ele>1505.80</ele>
	<time>2024-07-25T12:01:23.000Z</time>
</trkpt>
<trkpt lat="46.0956870" lon="10.4405460">
	<ele>1505.60</ele>
	<time>2024-07-25T12:01:24.000Z</time>
</trkpt>
<trkpt lat="46.0956940" lon="10.4405580">
	<ele>1505.40</ele>
	<time>2024-07-25T12:01:25.000Z</time>
</trkpt>
<trkpt lat="46.0956980" lon="10.4405680">
	<ele>1505.40</ele>
	<time>2024-07-25T12:01:26.000Z</time>
</trkpt>
<trkpt lat="46.0957040" lon="10.4405750">
	<ele>1505.20</ele>
	<time>2024-07-25T12:01:27.000Z</time>
</trkpt>
<trkpt lat="46.0957100" lon="10.4405810">
	<ele>1504.80</ele>
	<time>2024-07-25T12:01:28.000Z</time>
</trkpt>
<trkpt lat="46.0957270" lon="10.4405890">
	<ele>1504.80</ele>
	<time>2024-07-25T12:01:29.000Z</time>
</trkpt>
<trkpt lat="46.0957390" lon="10.4405900">
	<ele>1504.60</ele>
	<time>2024-07-25T12:01:30.000Z</time>
</trkpt>
<trkpt lat="46.0957450" lon="10.4405930">
	<ele>1504.20</ele>
	<time>2024-07-25T12:01:31.000Z</time>
</trkpt>
<trkpt lat="46.0957530" lon="10.4405950">
	<ele>1503.80</ele>
	<time>2024-07-25T12:01:32.000Z</time>
</trkpt>
<trkpt lat="46.0957590" lon="10.4406000">
	<ele>1503.60</ele>
	<time>2024-07-25T12:01:33.000Z</time>
</trkpt>
<trkpt lat="46.0957750" lon="10.4406030">
	<ele>1503.40</ele>
	<time>2024-07-25T12:01:34.000Z</time>
</trkpt>
<trkpt lat="46.0957960" lon="10.4406200">
	<ele>1503.20</ele>
	<time>2024-07-25T12:01:35.000Z</time>
</trkpt>
<trkpt lat="46.0958140" lon="10.4406420">
	<ele>1503.00</ele>
	<time>2024-07-25T12:01:36.000Z</time>
</trkpt>
<trkpt lat="46.0958290" lon="10.4406380">
	<ele>1502.80</ele>
	<time>2024-07-25T12:01:37.000Z</time>
</trkpt>
<trkpt lat="46.0958410" lon="10.4406390">
	<ele>1502.60</ele>
	<time>2024-07-25T12:01:38.000Z</time>
</trkpt>
<trkpt lat="46.0958590" lon="10.4406490">
	<ele>1502.40</ele>
	<time>2024-07-25T12:01:39.000Z</time>
</trkpt>
<trkpt lat="46.0958710" lon="10.4406550">
	<ele>1502.00</ele>
	<time>2024-07-25T12:01:40.000Z</time>
</trkpt>
<trkpt lat="46.0958800" lon="10.4406530">
	<ele>1501.80</ele>
	<time>2024-07-25T12:01:41.000Z</time>
</trkpt>
<trkpt lat="46.0958950" lon="10.4406470">
	<ele>1501.60</ele>
	<time>2024-07-25T12:01:42.000Z</time>
</trkpt>
<trkpt lat="46.0959020" lon="10.4406420">
	<ele>1501.40</ele>
	<time>2024-07-25T12:01:43.000Z</time>
</trkpt>
<trkpt lat="46.0959110" lon="10.4406360">
	<ele>1501.20</ele>
	<time>2024-07-25T12:01:44.000Z</time>
</trkpt>
<trkpt lat="46.0959230" lon="10.4406340">
	<ele>1501.00</ele>
	<time>2024-07-25T12:01:45.000Z</time>
</trkpt>
<trkpt lat="46.0959240" lon="10.4406170">
	<ele>1500.80</ele>
	<time>2024-07-25T12:01:46.000Z</time>
</trkpt>
<trkpt lat="46.0959310" lon="10.4406070">
	<ele>1500.80</ele>
	<time>2024-07-25T12:01:47.000Z</time>
</trkpt>
<trkpt lat="46.0959380" lon="10.4405950">
	<ele>1500.60</ele>
	<time>2024-07-25T12:01:48.000Z</time>
</trkpt>
<trkpt lat="46.0959530" lon="10.4405860">
	<ele>1500.20</ele>
	<time>2024-07-25T12:01:49.000Z</time>
</trkpt>
<trkpt lat="46.0959610" lon="10.4405820">
	<ele>1500.00</ele>
	<time>2024-07-25T12:01:50.000Z</time>
</trkpt>
<trkpt lat="46.0959690" lon="10.4405720">
	<ele>1499.80</ele>
	<time>2024-07-25T12:01:51.000Z</time>
</trkpt>
<trkpt lat="46.0959770" lon="10.4405650">
	<ele>1499.60</ele>
	<time>2024-07-25T12:01:52.000Z</time>
</trkpt>
<trkpt lat="46.0959770" lon="10.4405520">
	<ele>1499.40</ele>
	<time>2024-07-25T12:01:53.000Z</time>
</trkpt>
<trkpt lat="46.0959830" lon="10.4405430">
	<ele>1499.20</ele>
	<time>2024-07-25T12:01:54.000Z</time>
</trkpt>
<trkpt lat="46.0959880" lon="10.4405340">
	<ele>1498.80</ele>
	<time>2024-07-25T12:01:55.000Z</time>
</trkpt>
<trkpt lat="46.0960000" lon="10.4405220">
	<ele>1498.60</ele>
	<time>2024-07-25T12:01:56.000Z</time>
</trkpt>
<trkpt lat="46.0960100" lon="10.4405120">
	<ele>1498.40</ele>
	<time>2024-07-25T12:01:57.000Z</time>
</trkpt>
<trkpt lat="46.0960110" lon="10.4405050">
	<ele>1498.20</ele>
	<time>2024-07-25T12:01:58.000Z</time>
</trkpt>
<trkpt lat="46.0960160" lon="10.4404910">
	<ele>1498.00</ele>
	<time>2024-07-25T12:01:59.000Z</time>
</trkpt>
<trkpt lat="46.0960330" lon="10.4404850">
	<ele>1497.80</ele>
	<time>2024-07-25T12:02:00.000Z</time>
</trkpt>
<trkpt lat="46.0960420" lon="10.4404690">
	<ele>1497.40</ele>
	<time>2024-07-25T12:02:01.000Z</time>
</trkpt>
<trkpt lat="46.0960500" lon="10.4404520">
	<ele>1497.20</ele>
	<time>2024-07-25T12:02:02.000Z</time>
</trkpt>
<trkpt lat="46.0960660" lon="10.4404480">
	<ele>1497.00</ele>
	<time>2024-07-25T12:02:03.000Z</time>
</trkpt>
<trkpt lat="46.0960800" lon="10.4404370">
	<ele>1496.80</ele>
	<time>2024-07-25T12:02:04.000Z</time>
</trkpt>
<trkpt lat="46.0960940" lon="10.4404210">
	<ele>1496.80</ele>
	<time>2024-07-25T12:02:05.000Z</time>
</trkpt>
<trkpt lat="46.0961020" lon="10.4404020">
	<ele>1496.40</ele>
	<time>2024-07-25T12:02:06.000Z</time>
</trkpt>
<trkpt lat="46.0961100" lon="10.4403880">
	<ele>1496.20</ele>
	<time>2024-07-25T12:02:07.000Z</time>
</trkpt>
<trkpt lat="46.0961100" lon="10.4403690">
	<ele>1496.00</ele>
	<time>2024-07-25T12:02:08.000Z</time>
</trkpt>
<trkpt lat="46.0961060" lon="10.4403580">
	<ele>1495.80</ele>
	<time>2024-07-25T12:02:09.000Z</time>
</trkpt>
<trkpt lat="46.0961030" lon="10.4403520">
	<ele>1495.60</ele>
	<time>2024-07-25T12:02:10.000Z</time>
</trkpt>
<trkpt lat="46.0960990" lon="10.4403590">
	<ele>1495.40</ele>
	<time>2024-07-25T12:02:11.000Z</time>
</trkpt>
<trkpt lat="46.0960940" lon="10.4403660">
	<ele>1495.20</ele>
	<time>2024-07-25T12:02:12.000Z</time>
</trkpt>
<trkpt lat="46.0960920" lon="10.4403750">
	<ele>1494.80</ele>
	<time>2024-07-25T12:02:13.000Z</time>
</trkpt>
<trkpt lat="46.0960790" lon="10.4403760">
	<ele>1494.60</ele>
	<time>2024-07-25T12:02:14.000Z</time>
</trkpt>
<trkpt lat="46.0960730" lon="10.4403810">
	<ele>1494.20</ele>
	<time>2024-07-25T12:02:15.000Z</time>
</trkpt>
<trkpt lat="46.0960710" lon="10.4403970">
	<ele>1494.00</ele>
	<time>2024-07-25T12:02:16.000Z</time>
</trkpt>
<trkpt lat="46.0960650" lon="10.4404030">
	<ele>1493.80</ele>
	<time>2024-07-25T12:02:17.000Z</time>
</trkpt>
<trkpt lat="46.0960600" lon="10.4404100">
	<ele>1493.60</ele>
	<time>2024-07-25T12:02:18.000Z</time>
</trkpt>
<trkpt lat="46.0960530" lon="10.4404130">
	<ele>1493.60</ele>
	<time>2024-07-25T12:02:19.000Z</time>
</trkpt>
<trkpt lat="46.0960440" lon="10.4404160">
	<ele>1493.40</ele>
	<time>2024-07-25T12:02:20.000Z</time>
</trkpt>
<trkpt lat="46.0960360" lon="10.4404200">
	<ele>1493.00</ele>
	<time>2024-07-25T12:02:21.000Z</time>
</trkpt>
<trkpt lat="46.0960260" lon="10.4404230">
	<ele>1492.80</ele>
	<time>2024-07-25T12:02:22.000Z</time>
</trkpt>
<trkpt lat="46.0960130" lon="10.4404210">
	<ele>1492.40</ele>
	<time>2024-07-25T12:02:23.000Z</time>
</trkpt>
<trkpt lat="46.0960080" lon="10.4404260">
	<ele>1492.20</ele>
	<time>2024-07-25T12:02:24.000Z</time>
</trkpt>
<trkpt lat="46.0959990" lon="10.4404220">
	<ele>1492.00</ele>
	<time>2024-07-25T12:02:25.000Z</time>
</trkpt>
<trkpt lat="46.0959890" lon="10.4404250">
	<ele>1491.80</ele>
	<time>2024-07-25T12:02:26.000Z</time>
</trkpt>
<trkpt lat="46.0959840" lon="10.4404380">
	<ele>1491.60</ele>
	<time>2024-07-25T12:02:27.000Z</time>
</trkpt>
<trkpt lat="46.0959750" lon="10.4404470">
	<ele>1491.40</ele>
	<time>2024-07-25T12:02:28.000Z</time>
</trkpt>
<trkpt lat="46.0959630" lon="10.4404470">
	<ele>1491.20</ele>
	<time>2024-07-25T12:02:29.000Z</time>
</trkpt>
<trkpt lat="46.0959580" lon="10.4404620">
	<ele>1491.00</ele>
	<time>2024-07-25T12:02:30.000Z</time>
</trkpt>
<trkpt lat="46.0959460" lon="10.4404550">
	<ele>1490.60</ele>
	<time>2024-07-25T12:02:31.000Z</time>
</trkpt>
<trkpt lat="46.0959380" lon="10.4404490">
	<ele>1490.40</ele>
	<time>2024-07-25T12:02:32.000Z</time>
</trkpt>
<trkpt lat="46.0959260" lon="10.4404360">
	<ele>1490.20</ele>
	<time>2024-07-25T12:02:33.000Z</time>
</trkpt>
<trkpt lat="46.0959160" lon="10.4404300">
	<ele>1490.00</ele>
	<time>2024-07-25T12:02:34.000Z</time>
</trkpt>
<trkpt lat="46.0959060" lon="10.4404320">
	<ele>1489.80</ele>
	<time>2024-07-25T12:02:35.000Z</time>
</trkpt>
<trkpt lat="46.0958970" lon="10.4404320">
	<ele>1489.80</ele>
	<time>2024-07-25T12:02:36.000Z</time>
</trkpt>
<trkpt lat="46.0958890" lon="10.4404220">
	<ele>1489.80</ele>
	<time>2024-07-25T12:02:37.000Z</time>
</trkpt>
<trkpt lat="46.0958860" lon="10.4404230">
	<ele>1489.60</ele>
	<time>2024-07-25T12:02:38.000Z</time>
</trkpt>
<trkpt lat="46.0958810" lon="10.4404180">
	<ele>1489.20</ele>
	<time>2024-07-25T12:02:39.000Z</time>
</trkpt>
<trkpt lat="46.0958900" lon="10.4404200">
	<ele>1489.00</ele>
	<time>2024-07-25T12:02:40.000Z</time>
</trkpt>
<trkpt lat="46.0958920" lon="10.4404200">
	<ele>1489.00</ele>
	<time>2024-07-25T12:02:41.000Z</time>
</trkpt>
<trkpt lat="46.0958920" lon="10.4404200">
	<ele>1488.80</ele>
	<time>2024-07-25T12:02:42.000Z</time>
</trkpt>
<trkpt lat="46.0958860" lon="10.4404050">
	<ele>1488.40</ele>
	<time>2024-07-25T12:02:43.000Z</time>
</trkpt>
<trkpt lat="46.0958850" lon="10.4404010">
	<ele>1488.00</ele>
	<time>2024-07-25T12:02:44.000Z</time>
</trkpt>
<trkpt lat="46.0958840" lon="10.4403980">
	<ele>1487.80</ele>
	<time>2024-07-25T12:02:45.000Z</time>
</trkpt>
<trkpt lat="46.0958650" lon="10.4403800">
	<ele>1487.60</ele>
	<time>2024-07-25T12:02:46.000Z</time>
</trkpt>
<trkpt lat="46.0958500" lon="10.4403500">
	<ele>1487.40</ele>
	<time>2024-07-25T12:02:47.000Z</time>
</trkpt>
<trkpt lat="46.0958340" lon="10.4403050">
	<ele>1487.20</ele>
	<time>2024-07-25T12:02:48.000Z</time>
</trkpt>
<trkpt lat="46.0958180" lon="10.4402710">
	<ele>1487.00</ele>
	<time>2024-07-25T12:02:49.000Z</time>
</trkpt>
<trkpt lat="46.0958070" lon="10.4402540">
	<ele>1486.80</ele>
	<time>2024-07-25T12:02:50.000Z</time>
</trkpt>
<trkpt lat="46.0957910" lon="10.4402360">
	<ele>1486.60</ele>
	<time>2024-07-25T12:02:51.000Z</time>
</trkpt>
<trkpt lat="46.0957820" lon="10.4402180">
	<ele>1486.40</ele>
	<time>2024-07-25T12:02:52.000Z</time>
</trkpt>
<trkpt lat="46.0957690" lon="10.4401990">
	<ele>1486.20</ele>
	<time>2024-07-25T12:02:53.000Z</time>
</trkpt>
<trkpt lat="46.0957580" lon="10.4402000">
	<ele>1486.00</ele>
	<time>2024-07-25T12:02:54.000Z</time>
</trkpt>
<trkpt lat="46.0957440" lon="10.4401810">
	<ele>1485.40</ele>
	<time>2024-07-25T12:02:55.000Z</time>
</trkpt>
<trkpt lat="46.0957290" lon="10.4401630">
	<ele>1485.20</ele>
	<time>2024-07-25T12:02:56.000Z</time>
</trkpt>
<trkpt lat="46.0957170" lon="10.4401440">
	<ele>1485.20</ele>
	<time>2024-07-25T12:02:57.000Z</time>
</trkpt>
<trkpt lat="46.0957050" lon="10.4401280">
	<ele>1484.80</ele>
	<time>2024-07-25T12:02:58.000Z</time>
</trkpt>
<trkpt lat="46.0956940" lon="10.4401190">
	<ele>1484.80</ele>
	<time>2024-07-25T12:02:59.000Z</time>
</trkpt>
<trkpt lat="46.0956850" lon="10.4401130">
	<ele>1484.60</ele>
	<time>2024-07-25T12:03:00.000Z</time>
</trkpt>
<trkpt lat="46.0956780" lon="10.4401060">
	<ele>1484.60</ele>
	<time>2024-07-25T12:03:01.000Z</time>
</trkpt>
<trkpt lat="46.0956730" lon="10.4400930">
	<ele>1484.20</ele>
	<time>2024-07-25T12:03:02.000Z</time>
</trkpt>
<trkpt lat="46.0956650" lon="10.4400760">
	<ele>1484.00</ele>
	<time>2024-07-25T12:03:03.000Z</time>
</trkpt>
<trkpt lat="46.0956580" lon="10.4400660">
	<ele>1483.80</ele>
	<time>2024-07-25T12:03:04.000Z</time>
</trkpt>
<trkpt lat="46.0956490" lon="10.4400590">
	<ele>1483.60</ele>
	<time>2024-07-25T12:03:05.000Z</time>
</trkpt>
<trkpt lat="46.0956370" lon="10.4400510">
	<ele>1483.40</ele>
	<time>2024-07-25T12:03:06.000Z</time>
</trkpt>
<trkpt lat="46.0956260" lon="10.4400500">
	<ele>1483.40</ele>
	<time>2024-07-25T12:03:07.000Z</time>
</trkpt>
<trkpt lat="46.0956200" lon="10.4400530">
	<ele>1483.20</ele>
	<time>2024-07-25T12:03:08.000Z</time>
</trkpt>
<trkpt lat="46.0956120" lon="10.4400550">
	<ele>1483.00</ele>
	<time>2024-07-25T12:03:09.000Z</time>
</trkpt>
<trkpt lat="46.0956040" lon="10.4400540">
	<ele>1482.80</ele>
	<time>2024-07-25T12:03:10.000Z</time>
</trkpt>
<trkpt lat="46.0955950" lon="10.4400460">
	<ele>1482.40</ele>
	<time>2024-07-25T12:03:11.000Z</time>
</trkpt>
<trkpt lat="46.0955840" lon="10.4400390">
	<ele>1482.40</ele>
	<time>2024-07-25T12:03:12.000Z</time>
</trkpt>
<trkpt lat="46.0955750" lon="10.4400360">
	<ele>1482.00</ele>
	<time>2024-07-25T12:03:13.000Z</time>
</trkpt>
<trkpt lat="46.0955720" lon="10.4400370">
	<ele>1481.80</ele>
	<time>2024-07-25T12:03:14.000Z</time>
</trkpt>
<trkpt lat="46.0955610" lon="10.4400340">
	<ele>1481.80</ele>
	<time>2024-07-25T12:03:15.000Z</time>
</trkpt>
<trkpt lat="46.0955510" lon="10.4400330">
	<ele>1481.40</ele>
	<time>2024-07-25T12:03:16.000Z</time>
</trkpt>
<trkpt lat="46.0955420" lon="10.4400350">
	<ele>1481.40</ele>
	<time>2024-07-25T12:03:17.000Z</time>
</trkpt>
<trkpt lat="46.0955310" lon="10.4400340">
	<ele>1481.20</ele>
	<time>2024-07-25T12:03:18.000Z</time>
</trkpt>
<trkpt lat="46.0955170" lon="10.4400290">
	<ele>1481.00</ele>
	<time>2024-07-25T12:03:19.000Z</time>
</trkpt>
<trkpt lat="46.0955070" lon="10.4400240">
	<ele>1480.80</ele>
	<time>2024-07-25T12:03:20.000Z</time>
</trkpt>
<trkpt lat="46.0954940" lon="10.4400220">
	<ele>1480.80</ele>
	<time>2024-07-25T12:03:21.000Z</time>
</trkpt>
<trkpt lat="46.0954790" lon="10.4400230">
	<ele>1480.60</ele>
	<time>2024-07-25T12:03:22.000Z</time>
</trkpt>
<trkpt lat="46.0954640" lon="10.4400230">
	<ele>1480.40</ele>
	<time>2024-07-25T12:03:23.000Z</time>
</trkpt>
<trkpt lat="46.0954550" lon="10.4400300">
	<ele>1480.20</ele>
	<time>2024-07-25T12:03:24.000Z</time>
</trkpt>
<trkpt lat="46.0954490" lon="10.4400360">
	<ele>1480.00</ele>
	<time>2024-07-25T12:03:25.000Z</time>
</trkpt>
<trkpt lat="46.0954380" lon="10.4400330">
	<ele>1480.00</ele>
	<time>2024-07-25T12:03:26.000Z</time>
</trkpt>
<trkpt lat="46.0954260" lon="10.4400320">
	<ele>1479.80</ele>
	<time>2024-07-25T12:03:27.000Z</time>
</trkpt>
<trkpt lat="46.0954140" lon="10.4400280">
	<ele>1479.80</ele>
	<time>2024-07-25T12:03:28.000Z</time>
</trkpt>
<trkpt lat="46.0954000" lon="10.4400180">
	<ele>1479.60</ele>
	<time>2024-07-25T12:03:29.000Z</time>
</trkpt>
<trkpt lat="46.0953920" lon="10.4400130">
	<ele>1479.60</ele>
	<time>2024-07-25T12:03:30.000Z</time>
</trkpt>
<trkpt lat="46.0953860" lon="10.4400040">
	<ele>1479.60</ele>
	<time>2024-07-25T12:03:31.000Z</time>
</trkpt>
<trkpt lat="46.0953800" lon="10.4400020">
	<ele>1479.40</ele>
	<time>2024-07-25T12:03:32.000Z</time>
</trkpt>
<trkpt lat="46.0953760" lon="10.4400040">
	<ele>1479.40</ele>
	<time>2024-07-25T12:03:33.000Z</time>
</trkpt>
<trkpt lat="46.0953710" lon="10.4400020">
	<ele>1479.40</ele>
	<time>2024-07-25T12:03:34.000Z</time>
</trkpt>
<trkpt lat="46.0953650" lon="10.4399980">
	<ele>1479.40</ele>
	<time>2024-07-25T12:03:35.000Z</time>
</trkpt>
<trkpt lat="46.0953640" lon="10.4399960">
	<ele>1479.20</ele>
	<time>2024-07-25T12:03:36.000Z</time>
</trkpt>
<trkpt lat="46.0953620" lon="10.4399940">
	<ele>1479.00</ele>
	<time>2024-07-25T12:03:37.000Z</time>
</trkpt>
<trkpt lat="46.0953640" lon="10.4399930">
	<ele>1479.00</ele>
	<time>2024-07-25T12:03:38.000Z</time>
</trkpt>
<trkpt lat="46.0953650" lon="10.4399950">
	<ele>1478.80</ele>
	<time>2024-07-25T12:03:39.000Z</time>
</trkpt>
<trkpt lat="46.0953680" lon="10.4399950">
	<ele>1478.80</ele>
	<time>2024-07-25T12:03:40.000Z</time>
</trkpt>
<trkpt lat="46.0953730" lon="10.4399940">
	<ele>1478.80</ele>
	<time>2024-07-25T12:03:43.000Z</time>
</trkpt>
<trkpt lat="46.0953720" lon="10.4399940">
	<ele>1478.80</ele>
	<time>2024-07-25T12:03:44.000Z</time>
</trkpt>
<trkpt lat="46.0953740" lon="10.4400050">
	<ele>1478.80</ele>
	<time>2024-07-25T12:03:45.000Z</time>
</trkpt>
<trkpt lat="46.0953750" lon="10.4400020">
	<ele>1478.80</ele>
	<time>2024-07-25T12:03:46.000Z</time>
</trkpt>
<trkpt lat="46.0953730" lon="10.4399950">
	<ele>1478.80</ele>
	<time>2024-07-25T12:03:48.000Z</time>
</trkpt>
<trkpt lat="46.0953620" lon="10.4399810">
	<ele>1478.60</ele>
	<time>2024-07-25T12:03:50.000Z</time>
</trkpt>
<trkpt lat="46.0953410" lon="10.4399840">
	<ele>1478.60</ele>
	<time>2024-07-25T12:03:51.000Z</time>
</trkpt>
<trkpt lat="46.0953290" lon="10.4400010">
	<ele>1478.60</ele>
	<time>2024-07-25T12:03:52.000Z</time>
</trkpt>
<trkpt lat="46.0953290" lon="10.4399970">
	<ele>1478.60</ele>
	<time>2024-07-25T12:03:53.000Z</time>
</trkpt>
<trkpt lat="46.0953390" lon="10.4400070">
	<ele>1478.60</ele>
	<time>2024-07-25T12:03:54.000Z</time>
</trkpt>
<trkpt lat="46.0953350" lon="10.4400230">
	<ele>1478.60</ele>
	<time>2024-07-25T12:03:55.000Z</time>
</trkpt>
<trkpt lat="46.0953200" lon="10.4400410">
	<ele>1478.60</ele>
	<time>2024-07-25T12:03:56.000Z</time>
</trkpt>
<trkpt lat="46.0953110" lon="10.4400580">
	<ele>1478.80</ele>
	<time>2024-07-25T12:03:57.000Z</time>
</trkpt>
<trkpt lat="46.0953050" lon="10.4400820">
	<ele>1478.80</ele>
	<time>2024-07-25T12:03:58.000Z</time>
</trkpt>
<trkpt lat="46.0953070" lon="10.4400880">
	<ele>1478.80</ele>
	<time>2024-07-25T12:03:59.000Z</time>
</trkpt>
<trkpt lat="46.0953140" lon="10.4401090">
	<ele>1478.80</ele>
	<time>2024-07-25T12:04:00.000Z</time>
</trkpt>
<trkpt lat="46.0953150" lon="10.4401260">
	<ele>1478.80</ele>
	<time>2024-07-25T12:04:01.000Z</time>
</trkpt>
<trkpt lat="46.0953130" lon="10.4401240">
	<ele>1478.80</ele>
	<time>2024-07-25T12:04:02.000Z</time>
</trkpt>
<trkpt lat="46.0953110" lon="10.4401160">
	<ele>1478.80</ele>
	<time>2024-07-25T12:04:03.000Z</time>
</trkpt>
<trkpt lat="46.0953110" lon="10.4401140">
	<ele>1478.80</ele>
	<time>2024-07-25T12:04:04.000Z</time>
</trkpt>
<trkpt lat="46.0953070" lon="10.4401080">
	<ele>1479.00</ele>
	<time>2024-07-25T12:04:05.000Z</time>
</trkpt>
<trkpt lat="46.0953040" lon="10.4401060">
	<ele>1479.00</ele>
	<time>2024-07-25T12:04:06.000Z</time>
</trkpt>
<trkpt lat="46.0953120" lon="10.4400990">
	<ele>1479.00</ele>
	<time>2024-07-25T12:04:07.000Z</time>
</trkpt>
<trkpt lat="46.0953240" lon="10.4400940">
	<ele>1479.00</ele>
	<time>2024-07-25T12:04:08.000Z</time>
</trkpt>
<trkpt lat="46.0953350" lon="10.4400890">
	<ele>1479.00</ele>
	<time>2024-07-25T12:04:09.000Z</time>
</trkpt>
<trkpt lat="46.0953480" lon="10.4400800">
	<ele>1479.00</ele>
	<time>2024-07-25T12:04:10.000Z</time>
</trkpt>
<trkpt lat="46.0953590" lon="10.4400670">
	<ele>1479.00</ele>
	<time>2024-07-25T12:04:11.000Z</time>
</trkpt>
<trkpt lat="46.0953700" lon="10.4400530">
	<ele>1478.80</ele>
	<time>2024-07-25T12:04:12.000Z</time>
</trkpt>
<trkpt lat="46.0953780" lon="10.4400410">
	<ele>1478.60</ele>
	<time>2024-07-25T12:04:13.000Z</time>
</trkpt>
<trkpt lat="46.0953890" lon="10.4400330">
	<ele>1478.40</ele>
	<time>2024-07-25T12:04:14.000Z</time>
</trkpt>
<trkpt lat="46.0953980" lon="10.4400260">
	<ele>1478.20</ele>
	<time>2024-07-25T12:04:15.000Z</time>
</trkpt>
<trkpt lat="46.0953980" lon="10.4400120">
	<ele>1478.00</ele>
	<time>2024-07-25T12:04:16.000Z</time>
</trkpt>
<trkpt lat="46.0954010" lon="10.4400030">
	<ele>1478.00</ele>
	<time>2024-07-25T12:04:17.000Z</time>
</trkpt>
<trkpt lat="46.0954070" lon="10.4399950">
	<ele>1477.80</ele>
	<time>2024-07-25T12:04:18.000Z</time>
</trkpt>
<trkpt lat="46.0954200" lon="10.4399930">
	<ele>1477.60</ele>
	<time>2024-07-25T12:04:19.000Z</time>
</trkpt>
<trkpt lat="46.0954350" lon="10.4399890">
	<ele>1477.20</ele>
	<time>2024-07-25T12:04:20.000Z</time>
</trkpt>
<trkpt lat="46.0954540" lon="10.4399770">
	<ele>1476.80</ele>
	<time>2024-07-25T12:04:21.000Z</time>
</trkpt>
<trkpt lat="46.0954730" lon="10.4399650">
	<ele>1476.60</ele>
	<time>2024-07-25T12:04:22.000Z</time>
</trkpt>
<trkpt lat="46.0954880" lon="10.4399560">
	<ele>1476.40</ele>
	<time>2024-07-25T12:04:23.000Z</time>
</trkpt>
<trkpt lat="46.0955040" lon="10.4399440">
	<ele>1476.20</ele>
	<time>2024-07-25T12:04:24.000Z</time>
</trkpt>
<trkpt lat="46.0955230" lon="10.4399370">
	<ele>1476.00</ele>
	<time>2024-07-25T12:04:25.000Z</time>
</trkpt>
<trkpt lat="46.0955440" lon="10.4399340">
	<ele>1475.60</ele>
	<time>2024-07-25T12:04:26.000Z</time>
</trkpt>
<trkpt lat="46.0955610" lon="10.4399320">
	<ele>1475.40</ele>
	<time>2024-07-25T12:04:27.000Z</time>
</trkpt>
<trkpt lat="46.0955790" lon="10.4399310">
	<ele>1475.20</ele>
	<time>2024-07-25T12:04:28.000Z</time>
</trkpt>
<trkpt lat="46.0955900" lon="10.4399300">
	<ele>1475.00</ele>
	<time>2024-07-25T12:04:29.000Z</time>
</trkpt>
<trkpt lat="46.0956010" lon="10.4399280">
	<ele>1475.00</ele>
	<time>2024-07-25T12:04:30.000Z</time>
</trkpt>
<trkpt lat="46.0956120" lon="10.4399270">
	<ele>1474.80</ele>
	<time>2024-07-25T12:04:31.000Z</time>
</trkpt>
<trkpt lat="46.0956240" lon="10.4399230">
	<ele>1474.60</ele>
	<time>2024-07-25T12:04:32.000Z</time>
</trkpt>
<trkpt lat="46.0956340" lon="10.4399180">
	<ele>1474.40</ele>
	<time>2024-07-25T12:04:33.000Z</time>
</trkpt>
<trkpt lat="46.0956460" lon="10.4399190">
	<ele>1474.40</ele>
	<time>2024-07-25T12:04:34.000Z</time>
</trkpt>
<trkpt lat="46.0956560" lon="10.4399210">
	<ele>1474.00</ele>
	<time>2024-07-25T12:04:35.000Z</time>
</trkpt>
<trkpt lat="46.0956680" lon="10.4399260">
	<ele>1473.80</ele>
	<time>2024-07-25T12:04:36.000Z</time>
</trkpt>
<trkpt lat="46.0956800" lon="10.4399330">
	<ele>1473.60</ele>
	<time>2024-07-25T12:04:37.000Z</time>
</trkpt>
<trkpt lat="46.0956890" lon="10.4399400">
	<ele>1473.20</ele>
	<time>2024-07-25T12:04:38.000Z</time>
</trkpt>
<trkpt lat="46.0956990" lon="10.4399550">
	<ele>1473.20</ele>
	<time>2024-07-25T12:04:39.000Z</time>
</trkpt>
<trkpt lat="46.0957110" lon="10.4399620">
	<ele>1472.80</ele>
	<time>2024-07-25T12:04:40.000Z</time>
</trkpt>
<trkpt lat="46.0957270" lon="10.4399700">
	<ele>1472.60</ele>
	<time>2024-07-25T12:04:41.000Z</time>
</trkpt>
<trkpt lat="46.0957380" lon="10.4399780">
	<ele>1472.20</ele>
	<time>2024-07-25T12:04:42.000Z</time>
</trkpt>
<trkpt lat="46.0957520" lon="10.4399830">
	<ele>1472.00</ele>
	<time>2024-07-25T12:04:43.000Z</time>
</trkpt>
<trkpt lat="46.0957690" lon="10.4399870">
	<ele>1471.60</ele>
	<time>2024-07-25T12:04:44.000Z</time>
</trkpt>
<trkpt lat="46.0957860" lon="10.4399880">
	<ele>1471.40</ele>
	<time>2024-07-25T12:04:45.000Z</time>
</trkpt>
<trkpt lat="46.0957990" lon="10.4399910">
	<ele>1471.00</ele>
	<time>2024-07-25T12:04:46.000Z</time>
</trkpt>
<trkpt lat="46.0958040" lon="10.4399880">
	<ele>1471.00</ele>
	<time>2024-07-25T12:04:47.000Z</time>
</trkpt>
<trkpt lat="46.0958110" lon="10.4399810">
	<ele>1470.60</ele>
	<time>2024-07-25T12:04:48.000Z</time>
</trkpt>
<trkpt lat="46.0958200" lon="10.4399770">
	<ele>1470.40</ele>
	<time>2024-07-25T12:04:49.000Z</time>
</trkpt>
<trkpt lat="46.0958300" lon="10.4399680">
	<ele>1470.20</ele>
	<time>2024-07-25T12:04:50.000Z</time>
</trkpt>
<trkpt lat="46.0958360" lon="10.4399600">
	<ele>1470.00</ele>
	<time>2024-07-25T12:04:51.000Z</time>
</trkpt>
<trkpt lat="46.0958420" lon="10.4399560">
	<ele>1469.80</ele>
	<time>2024-07-25T12:04:52.000Z</time>
</trkpt>
<trkpt lat="46.0958480" lon="10.4399470">
	<ele>1469.40</ele>
	<time>2024-07-25T12:04:53.000Z</time>
</trkpt>
<trkpt lat="46.0958510" lon="10.4399360">
	<ele>1469.40</ele>
	<time>2024-07-25T12:04:54.000Z</time>
</trkpt>
<trkpt lat="46.0958510" lon="10.4399260">
	<ele>1469.00</ele>
	<time>2024-07-25T12:04:55.000Z</time>
</trkpt>
<trkpt lat="46.0958590" lon="10.4399210">
	<ele>1468.80</ele>
	<time>2024-07-25T12:04:56.000Z</time>
</trkpt>
<trkpt lat="46.0958680" lon="10.4399120">
	<ele>1468.60</ele>
	<time>2024-07-25T12:04:57.000Z</time>
</trkpt>
<trkpt lat="46.0958780" lon="10.4399010">
	<ele>1468.20</ele>
	<time>2024-07-25T12:04:58.000Z</time>
</trkpt>
<trkpt lat="46.0958850" lon="10.4398930">
	<ele>1468.00</ele>
	<time>2024-07-25T12:04:59.000Z</time>
</trkpt>
<trkpt lat="46.0958970" lon="10.4398890">
	<ele>1468.00</ele>
	<time>2024-07-25T12:05:00.000Z</time>
</trkpt>
<trkpt lat="46.0959040" lon="10.4398750">
	<ele>1467.60</ele>
	<time>2024-07-25T12:05:01.000Z</time>
</trkpt>
<trkpt lat="46.0959060" lon="10.4398580">
	<ele>1467.60</ele>
	<time>2024-07-25T12:05:02.000Z</time>
</trkpt>
<trkpt lat="46.0959160" lon="10.4398500">
	<ele>1467.20</ele>
	<time>2024-07-25T12:05:03.000Z</time>
</trkpt>
<trkpt lat="46.0959250" lon="10.4398410">
	<ele>1467.20</ele>
	<time>2024-07-25T12:05:04.000Z</time>
</trkpt>
<trkpt lat="46.0959360" lon="10.4398420">
	<ele>1467.00</ele>
	<time>2024-07-25T12:05:05.000Z</time>
</trkpt>
<trkpt lat="46.0959520" lon="10.4398450">
	<ele>1466.80</ele>
	<time>2024-07-25T12:05:06.000Z</time>
</trkpt>
<trkpt lat="46.0959670" lon="10.4398440">
	<ele>1466.60</ele>
	<time>2024-07-25T12:05:07.000Z</time>
</trkpt>
<trkpt lat="46.0959790" lon="10.4398440">
	<ele>1466.40</ele>
	<time>2024-07-25T12:05:08.000Z</time>
</trkpt>
<trkpt lat="46.0959900" lon="10.4398440">
	<ele>1466.20</ele>
	<time>2024-07-25T12:05:09.000Z</time>
</trkpt>
<trkpt lat="46.0960110" lon="10.4398470">
	<ele>1465.60</ele>
	<time>2024-07-25T12:05:10.000Z</time>
</trkpt>
<trkpt lat="46.0960260" lon="10.4398430">
	<ele>1465.40</ele>
	<time>2024-07-25T12:05:11.000Z</time>
</trkpt>
<trkpt lat="46.0960420" lon="10.4398380">
	<ele>1465.20</ele>
	<time>2024-07-25T12:05:12.000Z</time>
</trkpt>
<trkpt lat="46.0960630" lon="10.4398400">
	<ele>1465.00</ele>
	<time>2024-07-25T12:05:13.000Z</time>
</trkpt>
<trkpt lat="46.0960790" lon="10.4398390">
	<ele>1464.80</ele>
	<time>2024-07-25T12:05:14.000Z</time>
</trkpt>
<trkpt lat="46.0960980" lon="10.4398460">
	<ele>1464.60</ele>
	<time>2024-07-25T12:05:15.000Z</time>
</trkpt>
<trkpt lat="46.0961140" lon="10.4398440">
	<ele>1464.40</ele>
	<time>2024-07-25T12:05:16.000Z</time>
</trkpt>
<trkpt lat="46.0961300" lon="10.4398380">
	<ele>1464.00</ele>
	<time>2024-07-25T12:05:17.000Z</time>
</trkpt>
<trkpt lat="46.0961480" lon="10.4398330">
	<ele>1464.00</ele>
	<time>2024-07-25T12:05:18.000Z</time>
</trkpt>
<trkpt lat="46.0961630" lon="10.4398290">
	<ele>1463.80</ele>
	<time>2024-07-25T12:05:19.000Z</time>
</trkpt>
<trkpt lat="46.0961710" lon="10.4398250">
	<ele>1463.40</ele>
	<time>2024-07-25T12:05:20.000Z</time>
</trkpt>
<trkpt lat="46.0961790" lon="10.4398260">
	<ele>1463.20</ele>
	<time>2024-07-25T12:05:21.000Z</time>
</trkpt>
<trkpt lat="46.0961880" lon="10.4398310">
	<ele>1463.00</ele>
	<time>2024-07-25T12:05:22.000Z</time>
</trkpt>
<trkpt lat="46.0961960" lon="10.4398330">
	<ele>1462.80</ele>
	<time>2024-07-25T12:05:23.000Z</time>
</trkpt>
<trkpt lat="46.0962070" lon="10.4398300">
	<ele>1462.60</ele>
	<time>2024-07-25T12:05:24.000Z</time>
</trkpt>
<trkpt lat="46.0962190" lon="10.4398260">
	<ele>1462.40</ele>
	<time>2024-07-25T12:05:25.000Z</time>
</trkpt>
<trkpt lat="46.0962310" lon="10.4398230">
	<ele>1462.40</ele>
	<time>2024-07-25T12:05:26.000Z</time>
</trkpt>
<trkpt lat="46.0962440" lon="10.4398190">
	<ele>1462.20</ele>
	<time>2024-07-25T12:05:27.000Z</time>
</trkpt>
<trkpt lat="46.0962570" lon="10.4398190">
	<ele>1462.00</ele>
	<time>2024-07-25T12:05:28.000Z</time>
</trkpt>
<trkpt lat="46.0962630" lon="10.4398100">
	<ele>1461.80</ele>
	<time>2024-07-25T12:05:29.000Z</time>
</trkpt>
<trkpt lat="46.0962730" lon="10.4398010">
	<ele>1461.80</ele>
	<time>2024-07-25T12:05:30.000Z</time>
</trkpt>
<trkpt lat="46.0962760" lon="10.4397860">
	<ele>1461.60</ele>
	<time>2024-07-25T12:05:31.000Z</time>
</trkpt>
<trkpt lat="46.0962820" lon="10.4397730">
	<ele>1461.40</ele>
	<time>2024-07-25T12:05:32.000Z</time>
</trkpt>
<trkpt lat="46.0962850" lon="10.4397600">
	<ele>1461.00</ele>
	<time>2024-07-25T12:05:33.000Z</time>
</trkpt>
<trkpt lat="46.0962930" lon="10.4397510">
	<ele>1461.00</ele>
	<time>2024-07-25T12:05:34.000Z</time>
</trkpt>
<trkpt lat="46.0963030" lon="10.4397440">
	<ele>1460.80</ele>
	<time>2024-07-25T12:05:35.000Z</time>
</trkpt>
<trkpt lat="46.0963120" lon="10.4397430">
	<ele>1460.60</ele>
	<time>2024-07-25T12:05:36.000Z</time>
</trkpt>
<trkpt lat="46.0963210" lon="10.4397390">
	<ele>1460.40</ele>
	<time>2024-07-25T12:05:37.000Z</time>
</trkpt>
<trkpt lat="46.0963340" lon="10.4397380">
	<ele>1460.20</ele>
	<time>2024-07-25T12:05:38.000Z</time>
</trkpt>
<trkpt lat="46.0963490" lon="10.4397380">
	<ele>1460.00</ele>
	<time>2024-07-25T12:05:39.000Z</time>
</trkpt>
<trkpt lat="46.0963590" lon="10.4397360">
	<ele>1459.80</ele>
	<time>2024-07-25T12:05:40.000Z</time>
</trkpt>
<trkpt lat="46.0963770" lon="10.4397360">
	<ele>1459.80</ele>
	<time>2024-07-25T12:05:41.000Z</time>
</trkpt>
<trkpt lat="46.0963920" lon="10.4397370">
	<ele>1459.60</ele>
	<time>2024-07-25T12:05:42.000Z</time>
</trkpt>
<trkpt lat="46.0964040" lon="10.4397410">
	<ele>1459.40</ele>
	<time>2024-07-25T12:05:43.000Z</time>
</trkpt>
<trkpt lat="46.0964180" lon="10.4397450">
	<ele>1459.40</ele>
	<time>2024-07-25T12:05:44.000Z</time>
</trkpt>
<trkpt lat="46.0964300" lon="10.4397450">
	<ele>1459.20</ele>
	<time>2024-07-25T12:05:45.000Z</time>
</trkpt>
<trkpt lat="46.0964390" lon="10.4397470">
	<ele>1459.00</ele>
	<time>2024-07-25T12:05:46.000Z</time>
</trkpt>
<trkpt lat="46.0964550" lon="10.4397460">
	<ele>1458.80</ele>
	<time>2024-07-25T12:05:47.000Z</time>
</trkpt>
<trkpt lat="46.0964660" lon="10.4397330">
	<ele>1458.60</ele>
	<time>2024-07-25T12:05:48.000Z</time>
</trkpt>
<trkpt lat="46.0964690" lon="10.4397140">
	<ele>1458.60</ele>
	<time>2024-07-25T12:05:49.000Z</time>
</trkpt>
<trkpt lat="46.0964670" lon="10.4397010">
	<ele>1458.40</ele>
	<time>2024-07-25T12:05:50.000Z</time>
</trkpt>
<trkpt lat="46.0964610" lon="10.4396810">
	<ele>1458.40</ele>
	<time>2024-07-25T12:05:51.000Z</time>
</trkpt>
<trkpt lat="46.0964500" lon="10.4396560">
	<ele>1458.40</ele>
	<time>2024-07-25T12:05:52.000Z</time>
</trkpt>
<trkpt lat="46.0964390" lon="10.4396440">
	<ele>1458.00</ele>
	<time>2024-07-25T12:05:53.000Z</time>
</trkpt>
<trkpt lat="46.0964270" lon="10.4396350">
	<ele>1457.80</ele>
	<time>2024-07-25T12:05:54.000Z</time>
</trkpt>
<trkpt lat="46.0964180" lon="10.4396270">
	<ele>1457.60</ele>
	<time>2024-07-25T12:05:55.000Z</time>
</trkpt>
<trkpt lat="46.0964100" lon="10.4396180">
	<ele>1457.40</ele>
	<time>2024-07-25T12:05:56.000Z</time>
</trkpt>
<trkpt lat="46.0964000" lon="10.4396150">
	<ele>1457.40</ele>
	<time>2024-07-25T12:05:57.000Z</time>
</trkpt>
<trkpt lat="46.0963920" lon="10.4396100">
	<ele>1457.00</ele>
	<time>2024-07-25T12:05:58.000Z</time>
</trkpt>
<trkpt lat="46.0963830" lon="10.4395980">
	<ele>1457.00</ele>
	<time>2024-07-25T12:05:59.000Z</time>
</trkpt>
<trkpt lat="46.0963660" lon="10.4395840">
	<ele>1456.80</ele>
	<time>2024-07-25T12:06:00.000Z</time>
</trkpt>
<trkpt lat="46.0963530" lon="10.4395710">
	<ele>1456.60</ele>
	<time>2024-07-25T12:06:01.000Z</time>
</trkpt>
<trkpt lat="46.0963420" lon="10.4395640">
	<ele>1456.40</ele>
	<time>2024-07-25T12:06:02.000Z</time>
</trkpt>
<trkpt lat="46.0963320" lon="10.4395580">
	<ele>1456.40</ele>
	<time>2024-07-25T12:06:03.000Z</time>
</trkpt>
<trkpt lat="46.0963290" lon="10.4395530">
	<ele>1456.20</ele>
	<time>2024-07-25T12:06:04.000Z</time>
</trkpt>
<trkpt lat="46.0963220" lon="10.4395420">
	<ele>1456.00</ele>
	<time>2024-07-25T12:06:05.000Z</time>
</trkpt>
<trkpt lat="46.0963100" lon="10.4395320">
	<ele>1455.80</ele>
	<time>2024-07-25T12:06:06.000Z</time>
</trkpt>
<trkpt lat="46.0962960" lon="10.4395270">
	<ele>1455.60</ele>
	<time>2024-07-25T12:06:07.000Z</time>
</trkpt>
<trkpt lat="46.0962910" lon="10.4395240">
	<ele>1455.40</ele>
	<time>2024-07-25T12:06:08.000Z</time>
</trkpt>
<trkpt lat="46.0962830" lon="10.4395180">
	<ele>1455.40</ele>
	<time>2024-07-25T12:06:09.000Z</time>
</trkpt>
<trkpt lat="46.0962730" lon="10.4395100">
	<ele>1455.20</ele>
	<time>2024-07-25T12:06:10.000Z</time>
</trkpt>
<trkpt lat="46.0962650" lon="10.4395070">
	<ele>1455.00</ele>
	<time>2024-07-25T12:06:11.000Z</time>
</trkpt>
<trkpt lat="46.0962580" lon="10.4395000">
	<ele>1454.80</ele>
	<time>2024-07-25T12:06:12.000Z</time>
</trkpt>
<trkpt lat="46.0962450" lon="10.4394870">
	<ele>1454.60</ele>
	<time>2024-07-25T12:06:13.000Z</time>
</trkpt>
<trkpt lat="46.0962350" lon="10.4394790">
	<ele>1454.40</ele>
	<time>2024-07-25T12:06:14.000Z</time>
</trkpt>
<trkpt lat="46.0962260" lon="10.4394710">
	<ele>1454.20</ele>
	<time>2024-07-25T12:06:15.000Z</time>
</trkpt>
<trkpt lat="46.0962180" lon="10.4394690">
	<ele>1454.00</ele>
	<time>2024-07-25T12:06:16.000Z</time>
</trkpt>
<trkpt lat="46.0962110" lon="10.4394650">
	<ele>1453.80</ele>
	<time>2024-07-25T12:06:17.000Z</time>
</trkpt>
<trkpt lat="46.0962040" lon="10.4394590">
	<ele>1453.60</ele>
	<time>2024-07-25T12:06:18.000Z</time>
</trkpt>
<trkpt lat="46.0961960" lon="10.4394520">
	<ele>1453.40</ele>
	<time>2024-07-25T12:06:19.000Z</time>
</trkpt>
<trkpt lat="46.0961890" lon="10.4394450">
	<ele>1453.20</ele>
	<time>2024-07-25T12:06:20.000Z</time>
</trkpt>
<trkpt lat="46.0961810" lon="10.4394420">
	<ele>1453.00</ele>
	<time>2024-07-25T12:06:21.000Z</time>
</trkpt>
<trkpt lat="46.0961690" lon="10.4394340">
	<ele>1452.80</ele>
	<time>2024-07-25T12:06:22.000Z</time>
</trkpt>
<trkpt lat="46.0961620" lon="10.4394320">
	<ele>1452.60</ele>
	<time>2024-07-25T12:06:23.000Z</time>
</trkpt>
<trkpt lat="46.0961510" lon="10.4394250">
	<ele>1452.40</ele>
	<time>2024-07-25T12:06:24.000Z</time>
</trkpt>
<trkpt lat="46.0961350" lon="10.4394160">
	<ele>1452.20</ele>
	<time>2024-07-25T12:06:25.000Z</time>
</trkpt>
<trkpt lat="46.0961260" lon="10.4394110">
	<ele>1451.80</ele>
	<time>2024-07-25T12:06:26.000Z</time>
</trkpt>
<trkpt lat="46.0961140" lon="10.4394070">
	<ele>1451.80</ele>
	<time>2024-07-25T12:06:27.000Z</time>
</trkpt>
<trkpt lat="46.0961060" lon="10.4394070">
	<ele>1451.60</ele>
	<time>2024-07-25T12:06:28.000Z</time>
</trkpt>
<trkpt lat="46.0960970" lon="10.4394030">
	<ele>1451.40</ele>
	<time>2024-07-25T12:06:29.000Z</time>
</trkpt>
<trkpt lat="46.0960900" lon="10.4394000">
	<ele>1451.20</ele>
	<time>2024-07-25T12:06:30.000Z</time>
</trkpt>
<trkpt lat="46.0960770" lon="10.4393910">
	<ele>1451.00</ele>
	<time>2024-07-25T12:06:31.000Z</time>
</trkpt>
<trkpt lat="46.0960670" lon="10.4393890">
	<ele>1450.80</ele>
	<time>2024-07-25T12:06:32.000Z</time>
</trkpt>
<trkpt lat="46.0960590" lon="10.4393890">
	<ele>1450.60</ele>
	<time>2024-07-25T12:06:33.000Z</time>
</trkpt>
<trkpt lat="46.0960530" lon="10.4393980">
	<ele>1450.40</ele>
	<time>2024-07-25T12:06:34.000Z</time>
</trkpt>
<trkpt lat="46.0960410" lon="10.4394030">
	<ele>1450.40</ele>
	<time>2024-07-25T12:06:35.000Z</time>
</trkpt>
<trkpt lat="46.0960330" lon="10.4394100">
	<ele>1450.20</ele>
	<time>2024-07-25T12:06:36.000Z</time>
</trkpt>
<trkpt lat="46.0960180" lon="10.4394110">
	<ele>1450.00</ele>
	<time>2024-07-25T12:06:37.000Z</time>
</trkpt>
<trkpt lat="46.0960050" lon="10.4394140">
	<ele>1449.80</ele>
	<time>2024-07-25T12:06:38.000Z</time>
</trkpt>
<trkpt lat="46.0959930" lon="10.4394190">
	<ele>1449.60</ele>
	<time>2024-07-25T12:06:39.000Z</time>
</trkpt>
<trkpt lat="46.0959830" lon="10.4394170">
	<ele>1449.40</ele>
	<time>2024-07-25T12:06:40.000Z</time>
</trkpt>
<trkpt lat="46.0959690" lon="10.4394200">
	<ele>1449.20</ele>
	<time>2024-07-25T12:06:41.000Z</time>
</trkpt>
<trkpt lat="46.0959570" lon="10.4394210">
	<ele>1449.00</ele>
	<time>2024-07-25T12:06:42.000Z</time>
</trkpt>
<trkpt lat="46.0959430" lon="10.4394250">
	<ele>1448.60</ele>
	<time>2024-07-25T12:06:43.000Z</time>
</trkpt>
<trkpt lat="46.0959280" lon="10.4394290">
	<ele>1448.40</ele>
	<time>2024-07-25T12:06:44.000Z</time>
</trkpt>
<trkpt lat="46.0959150" lon="10.4394340">
	<ele>1448.20</ele>
	<time>2024-07-25T12:06:45.000Z</time>
</trkpt>
<trkpt lat="46.0959040" lon="10.4394360">
	<ele>1448.00</ele>
	<time>2024-07-25T12:06:46.000Z</time>
</trkpt>
<trkpt lat="46.0958910" lon="10.4394370">
	<ele>1447.80</ele>
	<time>2024-07-25T12:06:47.000Z</time>
</trkpt>
<trkpt lat="46.0958770" lon="10.4394400">
	<ele>1447.60</ele>
	<time>2024-07-25T12:06:48.000Z</time>
</trkpt>
<trkpt lat="46.0958630" lon="10.4394430">
	<ele>1447.60</ele>
	<time>2024-07-25T12:06:49.000Z</time>
</trkpt>
<trkpt lat="46.0958490" lon="10.4394480">
	<ele>1447.40</ele>
	<time>2024-07-25T12:06:50.000Z</time>
</trkpt>
<trkpt lat="46.0958380" lon="10.4394460">
	<ele>1447.20</ele>
	<time>2024-07-25T12:06:51.000Z</time>
</trkpt>
<trkpt lat="46.0958300" lon="10.4394470">
	<ele>1447.00</ele>
	<time>2024-07-25T12:06:52.000Z</time>
</trkpt>
<trkpt lat="46.0958230" lon="10.4394430">
	<ele>1447.00</ele>
	<time>2024-07-25T12:06:53.000Z</time>
</trkpt>
<trkpt lat="46.0958210" lon="10.4394340">
	<ele>1446.80</ele>
	<time>2024-07-25T12:06:54.000Z</time>
</trkpt>
<trkpt lat="46.0958210" lon="10.4394180">
	<ele>1446.60</ele>
	<time>2024-07-25T12:06:55.000Z</time>
</trkpt>
<trkpt lat="46.0958210" lon="10.4394020">
	<ele>1446.40</ele>
	<time>2024-07-25T12:06:56.000Z</time>
</trkpt>
<trkpt lat="46.0958260" lon="10.4393930">
	<ele>1446.20</ele>
	<time>2024-07-25T12:06:57.000Z</time>
</trkpt>
<trkpt lat="46.0958320" lon="10.4393910">
	<ele>1446.00</ele>
	<time>2024-07-25T12:06:58.000Z</time>
</trkpt>
<trkpt lat="46.0958330" lon="10.4393890">
	<ele>1445.80</ele>
	<time>2024-07-25T12:06:59.000Z</time>
</trkpt>
<trkpt lat="46.0958290" lon="10.4393850">
	<ele>1445.60</ele>
	<time>2024-07-25T12:07:00.000Z</time>
</trkpt>
<trkpt lat="46.0958360" lon="10.4393770">
	<ele>1445.40</ele>
	<time>2024-07-25T12:07:01.000Z</time>
</trkpt>
<trkpt lat="46.0958470" lon="10.4393790">
	<ele>1445.20</ele>
	<time>2024-07-25T12:07:02.000Z</time>
</trkpt>
<trkpt lat="46.0958580" lon="10.4393800">
	<ele>1444.80</ele>
	<time>2024-07-25T12:07:03.000Z</time>
</trkpt>
<trkpt lat="46.0958710" lon="10.4393820">
	<ele>1444.60</ele>
	<time>2024-07-25T12:07:04.000Z</time>
</trkpt>
<trkpt lat="46.0958830" lon="10.4393770">
	<ele>1444.40</ele>
	<time>2024-07-25T12:07:05.000Z</time>
</trkpt>
<trkpt lat="46.0958920" lon="10.4393680">
	<ele>1444.20</ele>
	<time>2024-07-25T12:07:06.000Z</time>
</trkpt>
<trkpt lat="46.0959030" lon="10.4393570">
	<ele>1443.80</ele>
	<time>2024-07-25T12:07:07.000Z</time>
</trkpt>
<trkpt lat="46.0959160" lon="10.4393500">
	<ele>1443.60</ele>
	<time>2024-07-25T12:07:08.000Z</time>
</trkpt>
<trkpt lat="46.0959280" lon="10.4393430">
	<ele>1443.60</ele>
	<time>2024-07-25T12:07:09.000Z</time>
</trkpt>
<trkpt lat="46.0959370" lon="10.4393310">
	<ele>1443.40</ele>
	<time>2024-07-25T12:07:10.000Z</time>
</trkpt>
<trkpt lat="46.0959420" lon="10.4393170">
	<ele>1443.20</ele>
	<time>2024-07-25T12:07:11.000Z</time>
</trkpt>
<trkpt lat="46.0959500" lon="10.4393050">
	<ele>1442.80</ele>
	<time>2024-07-25T12:07:12.000Z</time>
</trkpt>
<trkpt lat="46.0959570" lon="10.4392910">
	<ele>1442.60</ele>
	<time>2024-07-25T12:07:13.000Z</time>
</trkpt>
<trkpt lat="46.0959710" lon="10.4392890">
	<ele>1442.40</ele>
	<time>2024-07-25T12:07:14.000Z</time>
</trkpt>
<trkpt lat="46.0959820" lon="10.4392880">
	<ele>1442.40</ele>
	<time>2024-07-25T12:07:15.000Z</time>
</trkpt>
<trkpt lat="46.0959860" lon="10.4392770">
	<ele>1442.20</ele>
	<time>2024-07-25T12:07:16.000Z</time>
</trkpt>
<trkpt lat="46.0959900" lon="10.4392620">
	<ele>1442.00</ele>
	<time>2024-07-25T12:07:17.000Z</time>
</trkpt>
<trkpt lat="46.0959990" lon="10.4392500">
	<ele>1442.00</ele>
	<time>2024-07-25T12:07:18.000Z</time>
</trkpt>
<trkpt lat="46.0960090" lon="10.4392350">
	<ele>1441.80</ele>
	<time>2024-07-25T12:07:19.000Z</time>
</trkpt>
<trkpt lat="46.0960220" lon="10.4392230">
	<ele>1441.40</ele>
	<time>2024-07-25T12:07:20.000Z</time>
</trkpt>
<trkpt lat="46.0960330" lon="10.4392160">
	<ele>1441.40</ele>
	<time>2024-07-25T12:07:21.000Z</time>
</trkpt>
<trkpt lat="46.0960460" lon="10.4392110">
	<ele>1441.00</ele>
	<time>2024-07-25T12:07:22.000Z</time>
</trkpt>
<trkpt lat="46.0960590" lon="10.4392080">
	<ele>1441.00</ele>
	<time>2024-07-25T12:07:23.000Z</time>
</trkpt>
<trkpt lat="46.0960710" lon="10.4392020">
	<ele>1440.60</ele>
	<time>2024-07-25T12:07:24.000Z</time>
</trkpt>
<trkpt lat="46.0960820" lon="10.4391940">
	<ele>1440.40</ele>
	<time>2024-07-25T12:07:25.000Z</time>
</trkpt>
<trkpt lat="46.0960910" lon="10.4391830">
	<ele>1440.20</ele>
	<time>2024-07-25T12:07:26.000Z</time>
</trkpt>
<trkpt lat="46.0960990" lon="10.4391740">
	<ele>1440.00</ele>
	<time>2024-07-25T12:07:27.000Z</time>
</trkpt>
<trkpt lat="46.0961000" lon="10.4391570">
	<ele>1440.00</ele>
	<time>2024-07-25T12:07:28.000Z</time>
</trkpt>
<trkpt lat="46.0961080" lon="10.4391500">
	<ele>1439.60</ele>
	<time>2024-07-25T12:07:29.000Z</time>
</trkpt>
<trkpt lat="46.0961180" lon="10.4391440">
	<ele>1439.20</ele>
	<time>2024-07-25T12:07:30.000Z</time>
</trkpt>
<trkpt lat="46.0961260" lon="10.4391360">
	<ele>1439.00</ele>
	<time>2024-07-25T12:07:31.000Z</time>
</trkpt>
<trkpt lat="46.0961330" lon="10.4391200">
	<ele>1438.60</ele>
	<time>2024-07-25T12:07:32.000Z</time>
</trkpt>
<trkpt lat="46.0961420" lon="10.4391010">
	<ele>1438.40</ele>
	<time>2024-07-25T12:07:33.000Z</time>
</trkpt>
<trkpt lat="46.0961490" lon="10.4390860">
	<ele>1438.20</ele>
	<time>2024-07-25T12:07:34.000Z</time>
</trkpt>
<trkpt lat="46.0961460" lon="10.4390700">
	<ele>1438.00</ele>
	<time>2024-07-25T12:07:35.000Z</time>
</trkpt>
<trkpt lat="46.0961400" lon="10.4390570">
	<ele>1437.80</ele>
	<time>2024-07-25T12:07:36.000Z</time>
</trkpt>
<trkpt lat="46.0961350" lon="10.4390440">
	<ele>1437.40</ele>
	<time>2024-07-25T12:07:37.000Z</time>
</trkpt>
<trkpt lat="46.0961310" lon="10.4390370">
	<ele>1437.20</ele>
	<time>2024-07-25T12:07:38.000Z</time>
</trkpt>
<trkpt lat="46.0961240" lon="10.4390320">
	<ele>1437.00</ele>
	<time>2024-07-25T12:07:39.000Z</time>
</trkpt>
<trkpt lat="46.0961130" lon="10.4390310">
	<ele>1436.80</ele>
	<time>2024-07-25T12:07:40.000Z</time>
</trkpt>
<trkpt lat="46.0961040" lon="10.4390370">
	<ele>1436.60</ele>
	<time>2024-07-25T12:07:41.000Z</time>
</trkpt>
<trkpt lat="46.0960940" lon="10.4390460">
	<ele>1436.40</ele>
	<time>2024-07-25T12:07:42.000Z</time>
</trkpt>
<trkpt lat="46.0960850" lon="10.4390550">
	<ele>1436.20</ele>
	<time>2024-07-25T12:07:43.000Z</time>
</trkpt>
<trkpt lat="46.0960740" lon="10.4390620">
	<ele>1436.00</ele>
	<time>2024-07-25T12:07:44.000Z</time>
</trkpt>
<trkpt lat="46.0960630" lon="10.4390690">
	<ele>1435.80</ele>
	<time>2024-07-25T12:07:45.000Z</time>
</trkpt>
<trkpt lat="46.0960500" lon="10.4390790">
	<ele>1435.40</ele>
	<time>2024-07-25T12:07:46.000Z</time>
</trkpt>
<trkpt lat="46.0960380" lon="10.4390870">
	<ele>1435.20</ele>
	<time>2024-07-25T12:07:47.000Z</time>
</trkpt>
<trkpt lat="46.0960270" lon="10.4390910">
	<ele>1435.00</ele>
	<time>2024-07-25T12:07:48.000Z</time>
</trkpt>
<trkpt lat="46.0960180" lon="10.4390960">
	<ele>1435.00</ele>
	<time>2024-07-25T12:07:49.000Z</time>
</trkpt>
<trkpt lat="46.0960090" lon="10.4391020">
	<ele>1434.60</ele>
	<time>2024-07-25T12:07:50.000Z</time>
</trkpt>
<trkpt lat="46.0959990" lon="10.4391070">
	<ele>1434.40</ele>
	<time>2024-07-25T12:07:51.000Z</time>
</trkpt>
<trkpt lat="46.0959900" lon="10.4391100">
	<ele>1434.20</ele>
	<time>2024-07-25T12:07:52.000Z</time>
</trkpt>
<trkpt lat="46.0959790" lon="10.4391150">
	<ele>1434.00</ele>
	<time>2024-07-25T12:07:53.000Z</time>
</trkpt>
<trkpt lat="46.0959690" lon="10.4391200">
	<ele>1433.80</ele>
	<time>2024-07-25T12:07:54.000Z</time>
</trkpt>
<trkpt lat="46.0959540" lon="10.4391210">
	<ele>1433.60</ele>
	<time>2024-07-25T12:07:55.000Z</time>
</trkpt>
<trkpt lat="46.0959420" lon="10.4391240">
	<ele>1433.40</ele>
	<time>2024-07-25T12:07:56.000Z</time>
</trkpt>
<trkpt lat="46.0959310" lon="10.4391260">
	<ele>1433.20</ele>
	<time>2024-07-25T12:07:57.000Z</time>
</trkpt>
<trkpt lat="46.0959250" lon="10.4391240">
	<ele>1433.00</ele>
	<time>2024-07-25T12:07:58.000Z</time>
</trkpt>
<trkpt lat="46.0959270" lon="10.4391230">
	<ele>1432.80</ele>
	<time>2024-07-25T12:07:59.000Z</time>
</trkpt>
<trkpt lat="46.0959270" lon="10.4391090">
	<ele>1432.60</ele>
	<time>2024-07-25T12:08:00.000Z</time>
</trkpt>
<trkpt lat="46.0959360" lon="10.4390990">
	<ele>1432.40</ele>
	<time>2024-07-25T12:08:01.000Z</time>
</trkpt>
<trkpt lat="46.0959360" lon="10.4390830">
	<ele>1432.20</ele>
	<time>2024-07-25T12:08:02.000Z</time>
</trkpt>
<trkpt lat="46.0959330" lon="10.4390700">
	<ele>1432.20</ele>
	<time>2024-07-25T12:08:03.000Z</time>
</trkpt>
<trkpt lat="46.0959410" lon="10.4390630">
	<ele>1431.80</ele>
	<time>2024-07-25T12:08:04.000Z</time>
</trkpt>
<trkpt lat="46.0959480" lon="10.4390480">
	<ele>1431.60</ele>
	<time>2024-07-25T12:08:05.000Z</time>
</trkpt>
<trkpt lat="46.0959550" lon="10.4390330">
	<ele>1431.40</ele>
	<time>2024-07-25T12:08:06.000Z</time>
</trkpt>
<trkpt lat="46.0959670" lon="10.4390260">
	<ele>1431.20</ele>
	<time>2024-07-25T12:08:07.000Z</time>
</trkpt>
<trkpt lat="46.0959770" lon="10.4390160">
	<ele>1430.80</ele>
	<time>2024-07-25T12:08:08.000Z</time>
</trkpt>
<trkpt lat="46.0959830" lon="10.4390000">
	<ele>1430.60</ele>
	<time>2024-07-25T12:08:09.000Z</time>
</trkpt>
<trkpt lat="46.0959900" lon="10.4389850">
	<ele>1430.40</ele>
	<time>2024-07-25T12:08:10.000Z</time>
</trkpt>
<trkpt lat="46.0959930" lon="10.4389690">
	<ele>1430.40</ele>
	<time>2024-07-25T12:08:11.000Z</time>
</trkpt>
<trkpt lat="46.0959940" lon="10.4389510">
	<ele>1430.20</ele>
	<time>2024-07-25T12:08:12.000Z</time>
</trkpt>
<trkpt lat="46.0959990" lon="10.4389250">
	<ele>1430.00</ele>
	<time>2024-07-25T12:08:13.000Z</time>
</trkpt>
<trkpt lat="46.0960110" lon="10.4389040">
	<ele>1429.80</ele>
	<time>2024-07-25T12:08:14.000Z</time>
</trkpt>
<trkpt lat="46.0960200" lon="10.4388940">
	<ele>1429.60</ele>
	<time>2024-07-25T12:08:15.000Z</time>
</trkpt>
<trkpt lat="46.0960250" lon="10.4388790">
	<ele>1429.40</ele>
	<time>2024-07-25T12:08:16.000Z</time>
</trkpt>
<trkpt lat="46.0960290" lon="10.4388670">
	<ele>1429.20</ele>
	<time>2024-07-25T12:08:17.000Z</time>
</trkpt>
<trkpt lat="46.0960250" lon="10.4388510">
	<ele>1429.00</ele>
	<time>2024-07-25T12:08:18.000Z</time>
</trkpt>
<trkpt lat="46.0960110" lon="10.4388460">
	<ele>1428.80</ele>
	<time>2024-07-25T12:08:19.000Z</time>
</trkpt>
<trkpt lat="46.0960000" lon="10.4388460">
	<ele>1428.80</ele>
	<time>2024-07-25T12:08:20.000Z</time>
</trkpt>
<trkpt lat="46.0959910" lon="10.4388480">
	<ele>1428.60</ele>
	<time>2024-07-25T12:08:21.000Z</time>
</trkpt>
<trkpt lat="46.0959800" lon="10.4388550">
	<ele>1428.40</ele>
	<time>2024-07-25T12:08:22.000Z</time>
</trkpt>
<trkpt lat="46.0959700" lon="10.4388640">
	<ele>1428.20</ele>
	<time>2024-07-25T12:08:23.000Z</time>
</trkpt>
<trkpt lat="46.0959640" lon="10.4388740">
	<ele>1428.00</ele>
	<time>2024-07-25T12:08:24.000Z</time>
</trkpt>
<trkpt lat="46.0959530" lon="10.4388740">
	<ele>1427.60</ele>
	<time>2024-07-25T12:08:25.000Z</time>
</trkpt>
<trkpt lat="46.0959430" lon="10.4388790">
	<ele>1427.40</ele>
	<time>2024-07-25T12:08:26.000Z</time>
</trkpt>
<trkpt lat="46.0959310" lon="10.4388830">
	<ele>1427.20</ele>
	<time>2024-07-25T12:08:27.000Z</time>
</trkpt>
<trkpt lat="46.0959170" lon="10.4388840">
	<ele>1426.80</ele>
	<time>2024-07-25T12:08:28.000Z</time>
</trkpt>
<trkpt lat="46.0959030" lon="10.4388840">
	<ele>1426.60</ele>
	<time>2024-07-25T12:08:29.000Z</time>
</trkpt>
<trkpt lat="46.0958900" lon="10.4388890">
	<ele>1426.40</ele>
	<time>2024-07-25T12:08:30.000Z</time>
</trkpt>
<trkpt lat="46.0958750" lon="10.4388950">
	<ele>1426.20</ele>
	<time>2024-07-25T12:08:31.000Z</time>
</trkpt>
<trkpt lat="46.0958630" lon="10.4388980">
	<ele>1425.80</ele>
	<time>2024-07-25T12:08:32.000Z</time>
</trkpt>
<trkpt lat="46.0958520" lon="10.4389000">
	<ele>1425.80</ele>
	<time>2024-07-25T12:08:33.000Z</time>
</trkpt>
<trkpt lat="46.0958400" lon="10.4389030">
	<ele>1425.60</ele>
	<time>2024-07-25T12:08:34.000Z</time>
</trkpt>
<trkpt lat="46.0958330" lon="10.4389130">
	<ele>1425.40</ele>
	<time>2024-07-25T12:08:35.000Z</time>
</trkpt>
<trkpt lat="46.0958220" lon="10.4389150">
	<ele>1425.20</ele>
	<time>2024-07-25T12:08:36.000Z</time>
</trkpt>
<trkpt lat="46.0958070" lon="10.4389170">
	<ele>1425.00</ele>
	<time>2024-07-25T12:08:37.000Z</time>
</trkpt>
<trkpt lat="46.0957930" lon="10.4389210">
	<ele>1424.80</ele>
	<time>2024-07-25T12:08:38.000Z</time>
</trkpt>
<trkpt lat="46.0957790" lon="10.4389230">
	<ele>1424.40</ele>
	<time>2024-07-25T12:08:39.000Z</time>
</trkpt>
<trkpt lat="46.0957660" lon="10.4389290">
	<ele>1424.20</ele>
	<time>2024-07-25T12:08:40.000Z</time>
</trkpt>
<trkpt lat="46.0957560" lon="10.4389390">
	<ele>1424.00</ele>
	<time>2024-07-25T12:08:41.000Z</time>
</trkpt>
<trkpt lat="46.0957450" lon="10.4389470">
	<ele>1423.80</ele>
	<time>2024-07-25T12:08:42.000Z</time>
</trkpt>
<trkpt lat="46.0957350" lon="10.4389580">
	<ele>1423.60</ele>
	<time>2024-07-25T12:08:43.000Z</time>
</trkpt>
<trkpt lat="46.0957240" lon="10.4389670">
	<ele>1423.40</ele>
	<time>2024-07-25T12:08:44.000Z</time>
</trkpt>
<trkpt lat="46.0957180" lon="10.4389780">
	<ele>1423.20</ele>
	<time>2024-07-25T12:08:45.000Z</time>
</trkpt>
<trkpt lat="46.0957090" lon="10.4389830">
	<ele>1423.00</ele>
	<time>2024-07-25T12:08:46.000Z</time>
</trkpt>
<trkpt lat="46.0956990" lon="10.4389940">
	<ele>1422.60</ele>
	<time>2024-07-25T12:08:47.000Z</time>
</trkpt>
<trkpt lat="46.0956900" lon="10.4390030">
	<ele>1422.40</ele>
	<time>2024-07-25T12:08:48.000Z</time>
</trkpt>
<trkpt lat="46.0956800" lon="10.4390070">
	<ele>1422.20</ele>
	<time>2024-07-25T12:08:49.000Z</time>
</trkpt>
<trkpt lat="46.0956610" lon="10.4390060">
	<ele>1421.80</ele>
	<time>2024-07-25T12:08:50.000Z</time>
</trkpt>
<trkpt lat="46.0956480" lon="10.4390140">
	<ele>1421.60</ele>
	<time>2024-07-25T12:08:51.000Z</time>
</trkpt>
<trkpt lat="46.0956380" lon="10.4390210">
	<ele>1421.40</ele>
	<time>2024-07-25T12:08:52.000Z</time>
</trkpt>
<trkpt lat="46.0956260" lon="10.4390230">
	<ele>1421.20</ele>
	<time>2024-07-25T12:08:53.000Z</time>
</trkpt>
<trkpt lat="46.0956100" lon="10.4390160">
	<ele>1421.20</ele>
	<time>2024-07-25T12:08:54.000Z</time>
</trkpt>
<trkpt lat="46.0955960" lon="10.4390170">
	<ele>1421.00</ele>
	<time>2024-07-25T12:08:55.000Z</time>
</trkpt>
<trkpt lat="46.0955820" lon="10.4390200">
	<ele>1420.60</ele>
	<time>2024-07-25T12:08:56.000Z</time>
</trkpt>
<trkpt lat="46.0955760" lon="10.4390220">
	<ele>1420.20</ele>
	<time>2024-07-25T12:08:57.000Z</time>
</trkpt>
<trkpt lat="46.0955700" lon="10.4390230">
	<ele>1420.00</ele>
	<time>2024-07-25T12:08:58.000Z</time>
</trkpt>
<trkpt lat="46.0955590" lon="10.4390180">
	<ele>1419.80</ele>
	<time>2024-07-25T12:08:59.000Z</time>
</trkpt>
<trkpt lat="46.0955500" lon="10.4390180">
	<ele>1419.60</ele>
	<time>2024-07-25T12:09:00.000Z</time>
</trkpt>
<trkpt lat="46.0955390" lon="10.4390180">
	<ele>1419.40</ele>
	<time>2024-07-25T12:09:01.000Z</time>
</trkpt>
<trkpt lat="46.0955310" lon="10.4390210">
	<ele>1419.20</ele>
	<time>2024-07-25T12:09:02.000Z</time>
</trkpt>
<trkpt lat="46.0955210" lon="10.4390240">
	<ele>1418.80</ele>
	<time>2024-07-25T12:09:03.000Z</time>
</trkpt>
<trkpt lat="46.0955150" lon="10.4390260">
	<ele>1418.80</ele>
	<time>2024-07-25T12:09:04.000Z</time>
</trkpt>
<trkpt lat="46.0955050" lon="10.4390230">
	<ele>1418.40</ele>
	<time>2024-07-25T12:09:05.000Z</time>
</trkpt>
<trkpt lat="46.0954940" lon="10.4390230">
	<ele>1418.40</ele>
	<time>2024-07-25T12:09:06.000Z</time>
</trkpt>
<trkpt lat="46.0954860" lon="10.4390310">
	<ele>1418.20</ele>
	<time>2024-07-25T12:09:07.000Z</time>
</trkpt>
<trkpt lat="46.0954770" lon="10.4390320">
	<ele>1418.00</ele>
	<time>2024-07-25T12:09:08.000Z</time>
</trkpt>
<trkpt lat="46.0954610" lon="10.4390300">
	<ele>1417.60</ele>
	<time>2024-07-25T12:09:09.000Z</time>
</trkpt>
<trkpt lat="46.0954410" lon="10.4390190">
	<ele>1417.20</ele>
	<time>2024-07-25T12:09:10.000Z</time>
</trkpt>
<trkpt lat="46.0954240" lon="10.4390090">
	<ele>1417.00</ele>
	<time>2024-07-25T12:09:11.000Z</time>
</trkpt>
<trkpt lat="46.0954110" lon="10.4390070">
	<ele>1416.80</ele>
	<time>2024-07-25T12:09:12.000Z</time>
</trkpt>
<trkpt lat="46.0954020" lon="10.4390000">
	<ele>1416.60</ele>
	<time>2024-07-25T12:09:13.000Z</time>
</trkpt>
<trkpt lat="46.0953930" lon="10.4389940">
	<ele>1416.40</ele>
	<time>2024-07-25T12:09:14.000Z</time>
</trkpt>
<trkpt lat="46.0953880" lon="10.4389950">
	<ele>1416.00</ele>
	<time>2024-07-25T12:09:15.000Z</time>
</trkpt>
<trkpt lat="46.0953800" lon="10.4389930">
	<ele>1415.60</ele>
	<time>2024-07-25T12:09:16.000Z</time>
</trkpt>
<trkpt lat="46.0953640" lon="10.4389920">
	<ele>1415.40</ele>
	<time>2024-07-25T12:09:17.000Z</time>
</trkpt>
<trkpt lat="46.0953540" lon="10.4389970">
	<ele>1415.20</ele>
	<time>2024-07-25T12:09:18.000Z</time>
</trkpt>
<trkpt lat="46.0953430" lon="10.4390000">
	<ele>1414.80</ele>
	<time>2024-07-25T12:09:19.000Z</time>
</trkpt>
<trkpt lat="46.0953310" lon="10.4390070">
	<ele>1414.60</ele>
	<time>2024-07-25T12:09:20.000Z</time>
</trkpt>
<trkpt lat="46.0953230" lon="10.4390080">
	<ele>1414.40</ele>
	<time>2024-07-25T12:09:21.000Z</time>
</trkpt>
<trkpt lat="46.0953060" lon="10.4390080">
	<ele>1414.20</ele>
	<time>2024-07-25T12:09:22.000Z</time>
</trkpt>
<trkpt lat="46.0952940" lon="10.4390090">
	<ele>1414.20</ele>
	<time>2024-07-25T12:09:23.000Z</time>
</trkpt>
<trkpt lat="46.0952770" lon="10.4390030">
	<ele>1414.00</ele>
	<time>2024-07-25T12:09:24.000Z</time>
</trkpt>
<trkpt lat="46.0952630" lon="10.4389950">
	<ele>1413.60</ele>
	<time>2024-07-25T12:09:25.000Z</time>
</trkpt>
<trkpt lat="46.0952510" lon="10.4389900">
	<ele>1413.40</ele>
	<time>2024-07-25T12:09:26.000Z</time>
</trkpt>
<trkpt lat="46.0952330" lon="10.4389650">
	<ele>1413.40</ele>
	<time>2024-07-25T12:09:27.000Z</time>
</trkpt>
<trkpt lat="46.0952200" lon="10.4389540">
	<ele>1413.20</ele>
	<time>2024-07-25T12:09:28.000Z</time>
</trkpt>
<trkpt lat="46.0952090" lon="10.4389380">
	<ele>1413.00</ele>
	<time>2024-07-25T12:09:29.000Z</time>
</trkpt>
<trkpt lat="46.0952060" lon="10.4389290">
	<ele>1412.80</ele>
	<time>2024-07-25T12:09:30.000Z</time>
</trkpt>
<trkpt lat="46.0952000" lon="10.4389160">
	<ele>1412.80</ele>
	<time>2024-07-25T12:09:31.000Z</time>
</trkpt>
<trkpt lat="46.0951930" lon="10.4389030">
	<ele>1412.40</ele>
	<time>2024-07-25T12:09:32.000Z</time>
</trkpt>
<trkpt lat="46.0951890" lon="10.4389010">
	<ele>1412.20</ele>
	<time>2024-07-25T12:09:33.000Z</time>
</trkpt>
<trkpt lat="46.0951800" lon="10.4388980">
	<ele>1412.20</ele>
	<time>2024-07-25T12:09:34.000Z</time>
</trkpt>
<trkpt lat="46.0951710" lon="10.4388930">
	<ele>1411.80</ele>
	<time>2024-07-25T12:09:35.000Z</time>
</trkpt>
<trkpt lat="46.0951700" lon="10.4388840">
	<ele>1411.60</ele>
	<time>2024-07-25T12:09:36.000Z</time>
</trkpt>
<trkpt lat="46.0951740" lon="10.4388730">
	<ele>1411.60</ele>
	<time>2024-07-25T12:09:37.000Z</time>
</trkpt>
<trkpt lat="46.0951770" lon="10.4388680">
	<ele>1411.40</ele>
	<time>2024-07-25T12:09:38.000Z</time>
</trkpt>
<trkpt lat="46.0951820" lon="10.4388630">
	<ele>1411.40</ele>
	<time>2024-07-25T12:09:39.000Z</time>
</trkpt>
<trkpt lat="46.0951870" lon="10.4388610">
	<ele>1411.20</ele>
	<time>2024-07-25T12:09:40.000Z</time>
</trkpt>
<trkpt lat="46.0951980" lon="10.4388620">
	<ele>1411.00</ele>
	<time>2024-07-25T12:09:41.000Z</time>
</trkpt>
<trkpt lat="46.0952070" lon="10.4388680">
	<ele>1410.80</ele>
	<time>2024-07-25T12:09:42.000Z</time>
</trkpt>
<trkpt lat="46.0952180" lon="10.4388770">
	<ele>1410.80</ele>
	<time>2024-07-25T12:09:43.000Z</time>
</trkpt>
<trkpt lat="46.0952290" lon="10.4388870">
	<ele>1410.60</ele>
	<time>2024-07-25T12:09:44.000Z</time>
</trkpt>
<trkpt lat="46.0952430" lon="10.4388990">
	<ele>1410.60</ele>
	<time>2024-07-25T12:09:45.000Z</time>
</trkpt>
<trkpt lat="46.0952560" lon="10.4389170">
	<ele>1410.40</ele>
	<time>2024-07-25T12:09:46.000Z</time>
</trkpt>
<trkpt lat="46.0952710" lon="10.4389240">
	<ele>1410.20</ele>
	<time>2024-07-25T12:09:47.000Z</time>
</trkpt>
<trkpt lat="46.0952850" lon="10.4389250">
	<ele>1410.00</ele>
	<time>2024-07-25T12:09:48.000Z</time>
</trkpt>
<trkpt lat="46.0953000" lon="10.4389230">
	<ele>1409.80</ele>
	<time>2024-07-25T12:09:49.000Z</time>
</trkpt>
<trkpt lat="46.0953130" lon="10.4389130">
	<ele>1409.60</ele>
	<time>2024-07-25T12:09:50.000Z</time>
</trkpt>
<trkpt lat="46.0953240" lon="10.4389050">
	<ele>1409.40</ele>
	<time>2024-07-25T12:09:51.000Z</time>
</trkpt>
<trkpt lat="46.0953360" lon="10.4388950">
	<ele>1409.20</ele>
	<time>2024-07-25T12:09:52.000Z</time>
</trkpt>
<trkpt lat="46.0953460" lon="10.4388900">
	<ele>1409.00</ele>
	<time>2024-07-25T12:09:53.000Z</time>
</trkpt>
<trkpt lat="46.0953590" lon="10.4388820">
	<ele>1408.80</ele>
	<time>2024-07-25T12:09:54.000Z</time>
</trkpt>
<trkpt lat="46.0953720" lon="10.4388730">
	<ele>1408.80</ele>
	<time>2024-07-25T12:09:55.000Z</time>
</trkpt>
<trkpt lat="46.0953850" lon="10.4388630">
	<ele>1408.60</ele>
	<time>2024-07-25T12:09:56.000Z</time>
</trkpt>
<trkpt lat="46.0953980" lon="10.4388500">
	<ele>1408.40</ele>
	<time>2024-07-25T12:09:57.000Z</time>
</trkpt>
<trkpt lat="46.0954090" lon="10.4388350">
	<ele>1408.20</ele>
	<time>2024-07-25T12:09:58.000Z</time>
</trkpt>
<trkpt lat="46.0954150" lon="10.4388190">
	<ele>1408.00</ele>
	<time>2024-07-25T12:09:59.000Z</time>
</trkpt>
<trkpt lat="46.0954220" lon="10.4388010">
	<ele>1407.80</ele>
	<time>2024-07-25T12:10:00.000Z</time>
</trkpt>
<trkpt lat="46.0954280" lon="10.4387850">
	<ele>1407.80</ele>
	<time>2024-07-25T12:10:01.000Z</time>
</trkpt>
<trkpt lat="46.0954320" lon="10.4387720">
	<ele>1407.60</ele>
	<time>2024-07-25T12:10:02.000Z</time>
</trkpt>
<trkpt lat="46.0954400" lon="10.4387560">
	<ele>1407.40</ele>
	<time>2024-07-25T12:10:03.000Z</time>
</trkpt>
<trkpt lat="46.0954470" lon="10.4387460">
	<ele>1407.20</ele>
	<time>2024-07-25T12:10:04.000Z</time>
</trkpt>
<trkpt lat="46.0954500" lon="10.4387300">
	<ele>1407.00</ele>
	<time>2024-07-25T12:10:05.000Z</time>
</trkpt>
<trkpt lat="46.0954540" lon="10.4387150">
	<ele>1406.80</ele>
	<time>2024-07-25T12:10:06.000Z</time>
</trkpt>
<trkpt lat="46.0954570" lon="10.4386990">
	<ele>1406.80</ele>
	<time>2024-07-25T12:10:07.000Z</time>
</trkpt>
<trkpt lat="46.0954570" lon="10.4386830">
	<ele>1406.40</ele>
	<time>2024-07-25T12:10:08.000Z</time>
</trkpt>
<trkpt lat="46.0954580" lon="10.4386670">
	<ele>1406.20</ele>
	<time>2024-07-25T12:10:09.000Z</time>
</trkpt>
<trkpt lat="46.0954580" lon="10.4386480">
	<ele>1406.20</ele>
	<time>2024-07-25T12:10:10.000Z</time>
</trkpt>
<trkpt lat="46.0954540" lon="10.4386350">
	<ele>1406.00</ele>
	<time>2024-07-25T12:10:11.000Z</time>
</trkpt>
<trkpt lat="46.0954600" lon="10.4386240">
	<ele>1405.80</ele>
	<time>2024-07-25T12:10:12.000Z</time>
</trkpt>
<trkpt lat="46.0954600" lon="10.4386110">
	<ele>1405.60</ele>
	<time>2024-07-25T12:10:13.000Z</time>
</trkpt>
<trkpt lat="46.0954590" lon="10.4385940">
	<ele>1405.60</ele>
	<time>2024-07-25T12:10:14.000Z</time>
</trkpt>
<trkpt lat="46.0954680" lon="10.4385820">
	<ele>1405.40</ele>
	<time>2024-07-25T12:10:15.000Z</time>
</trkpt>
<trkpt lat="46.0954740" lon="10.4385660">
	<ele>1405.40</ele>
	<time>2024-07-25T12:10:16.000Z</time>
</trkpt>
<trkpt lat="46.0954780" lon="10.4385450">
	<ele>1405.20</ele>
	<time>2024-07-25T12:10:17.000Z</time>
</trkpt>
<trkpt lat="46.0954820" lon="10.4385250">
	<ele>1405.20</ele>
	<time>2024-07-25T12:10:18.000Z</time>
</trkpt>
<trkpt lat="46.0954870" lon="10.4385110">
	<ele>1405.00</ele>
	<time>2024-07-25T12:10:19.000Z</time>
</trkpt>
<trkpt lat="46.0954960" lon="10.4384920">
	<ele>1405.00</ele>
	<time>2024-07-25T12:10:20.000Z</time>
</trkpt>
<trkpt lat="46.0955040" lon="10.4384770">
	<ele>1404.60</ele>
	<time>2024-07-25T12:10:21.000Z</time>
</trkpt>
<trkpt lat="46.0955110" lon="10.4384500">
	<ele>1404.40</ele>
	<time>2024-07-25T12:10:22.000Z</time>
</trkpt>
<trkpt lat="46.0955180" lon="10.4384300">
	<ele>1404.20</ele>
	<time>2024-07-25T12:10:23.000Z</time>
</trkpt>
<trkpt lat="46.0955240" lon="10.4384130">
	<ele>1404.00</ele>
	<time>2024-07-25T12:10:24.000Z</time>
</trkpt>
<trkpt lat="46.0955310" lon="10.4383970">
	<ele>1404.00</ele>
	<time>2024-07-25T12:10:25.000Z</time>
</trkpt>
<trkpt lat="46.0955330" lon="10.4383770">
	<ele>1403.80</ele>
	<time>2024-07-25T12:10:26.000Z</time>
</trkpt>
<trkpt lat="46.0955350" lon="10.4383580">
	<ele>1403.80</ele>
	<time>2024-07-25T12:10:27.000Z</time>
</trkpt>
<trkpt lat="46.0955380" lon="10.4383400">
	<ele>1403.80</ele>
	<time>2024-07-25T12:10:28.000Z</time>
</trkpt>
<trkpt lat="46.0955430" lon="10.4383230">
	<ele>1403.80</ele>
	<time>2024-07-25T12:10:29.000Z</time>
</trkpt>
<trkpt lat="46.0955430" lon="10.4383020">
	<ele>1403.80</ele>
	<time>2024-07-25T12:10:30.000Z</time>
</trkpt>
<trkpt lat="46.0955460" lon="10.4382860">
	<ele>1403.80</ele>
	<time>2024-07-25T12:10:31.000Z</time>
</trkpt>
<trkpt lat="46.0955490" lon="10.4382720">
	<ele>1403.80</ele>
	<time>2024-07-25T12:10:32.000Z</time>
</trkpt>
<trkpt lat="46.0955520" lon="10.4382570">
	<ele>1403.80</ele>
	<time>2024-07-25T12:10:33.000Z</time>
</trkpt>
<trkpt lat="46.0955520" lon="10.4382380">
	<ele>1403.80</ele>
	<time>2024-07-25T12:10:34.000Z</time>
</trkpt>
<trkpt lat="46.0955530" lon="10.4382160">
	<ele>1403.80</ele>
	<time>2024-07-25T12:10:35.000Z</time>
</trkpt>
<trkpt lat="46.0955550" lon="10.4381950">
	<ele>1403.80</ele>
	<time>2024-07-25T12:10:36.000Z</time>
</trkpt>
<trkpt lat="46.0955530" lon="10.4381750">
	<ele>1403.60</ele>
	<time>2024-07-25T12:10:37.000Z</time>
</trkpt>
<trkpt lat="46.0955450" lon="10.4381580">
	<ele>1403.60</ele>
	<time>2024-07-25T12:10:38.000Z</time>
</trkpt>
<trkpt lat="46.0955380" lon="10.4381440">
	<ele>1403.40</ele>
	<time>2024-07-25T12:10:39.000Z</time>
</trkpt>
<trkpt lat="46.0955260" lon="10.4381310">
	<ele>1403.40</ele>
	<time>2024-07-25T12:10:40.000Z</time>
</trkpt>
<trkpt lat="46.0955140" lon="10.4381150">
	<ele>1403.20</ele>
	<time>2024-07-25T12:10:41.000Z</time>
</trkpt>
<trkpt lat="46.0954970" lon="10.4381010">
	<ele>1403.00</ele>
	<time>2024-07-25T12:10:42.000Z</time>
</trkpt>
<trkpt lat="46.0954780" lon="10.4380880">
	<ele>1402.80</ele>
	<time>2024-07-25T12:10:43.000Z</time>
</trkpt>
<trkpt lat="46.0954570" lon="10.4380710">
	<ele>1402.60</ele>
	<time>2024-07-25T12:10:44.000Z</time>
</trkpt>
<trkpt lat="46.0954430" lon="10.4380630">
	<ele>1402.40</ele>
	<time>2024-07-25T12:10:45.000Z</time>
</trkpt>
<trkpt lat="46.0954360" lon="10.4380600">
	<ele>1402.20</ele>
	<time>2024-07-25T12:10:46.000Z</time>
</trkpt>
<trkpt lat="46.0954290" lon="10.4380580">
	<ele>1401.80</ele>
	<time>2024-07-25T12:10:47.000Z</time>
</trkpt>
<trkpt lat="46.0954200" lon="10.4380490">
	<ele>1401.80</ele>
	<time>2024-07-25T12:10:48.000Z</time>
</trkpt>
<trkpt lat="46.0954120" lon="10.4380380">
	<ele>1401.60</ele>
	<time>2024-07-25T12:10:49.000Z</time>
</trkpt>
<trkpt lat="46.0954060" lon="10.4380350">
	<ele>1401.40</ele>
	<time>2024-07-25T12:10:50.000Z</time>
</trkpt>
<trkpt lat="46.0953970" lon="10.4380310">
	<ele>1401.20</ele>
	<time>2024-07-25T12:10:51.000Z</time>
</trkpt>
<trkpt lat="46.0953810" lon="10.4380130">
	<ele>1401.20</ele>
	<time>2024-07-25T12:10:52.000Z</time>
</trkpt>
<trkpt lat="46.0953700" lon="10.4380050">
	<ele>1401.00</ele>
	<time>2024-07-25T12:10:53.000Z</time>
</trkpt>
<trkpt lat="46.0953640" lon="10.4379980">
	<ele>1400.80</ele>
	<time>2024-07-25T12:10:54.000Z</time>
</trkpt>
<trkpt lat="46.0953560" lon="10.4379940">
	<ele>1400.60</ele>
	<time>2024-07-25T12:10:55.000Z</time>
</trkpt>
<trkpt lat="46.0953400" lon="10.4379810">
	<ele>1400.40</ele>
	<time>2024-07-25T12:10:56.000Z</time>
</trkpt>
<trkpt lat="46.0953250" lon="10.4379600">
	<ele>1400.40</ele>
	<time>2024-07-25T12:10:57.000Z</time>
</trkpt>
<trkpt lat="46.0953140" lon="10.4379400">
	<ele>1400.40</ele>
	<time>2024-07-25T12:10:58.000Z</time>
</trkpt>
<trkpt lat="46.0953060" lon="10.4379280">
	<ele>1400.40</ele>
	<time>2024-07-25T12:10:59.000Z</time>
</trkpt>
<trkpt lat="46.0953040" lon="10.4379200">
	<ele>1400.20</ele>
	<time>2024-07-25T12:11:00.000Z</time>
</trkpt>
<trkpt lat="46.0952940" lon="10.4379120">
	<ele>1400.00</ele>
	<time>2024-07-25T12:11:01.000Z</time>
</trkpt>
<trkpt lat="46.0952820" lon="10.4379060">
	<ele>1399.80</ele>
	<time>2024-07-25T12:11:02.000Z</time>
</trkpt>
<trkpt lat="46.0952680" lon="10.4378990">
	<ele>1399.60</ele>
	<time>2024-07-25T12:11:03.000Z</time>
</trkpt>
<trkpt lat="46.0952620" lon="10.4378950">
	<ele>1399.20</ele>
	<time>2024-07-25T12:11:04.000Z</time>
</trkpt>
<trkpt lat="46.0952550" lon="10.4378870">
	<ele>1399.00</ele>
	<time>2024-07-25T12:11:05.000Z</time>
</trkpt>
<trkpt lat="46.0952500" lon="10.4378790">
	<ele>1398.80</ele>
	<time>2024-07-25T12:11:06.000Z</time>
</trkpt>
<trkpt lat="46.0952500" lon="10.4378760">
	<ele>1398.60</ele>
	<time>2024-07-25T12:11:07.000Z</time>
</trkpt>
<trkpt lat="46.0952460" lon="10.4378680">
	<ele>1398.60</ele>
	<time>2024-07-25T12:11:08.000Z</time>
</trkpt>
<trkpt lat="46.0952390" lon="10.4378650">
	<ele>1398.20</ele>
	<time>2024-07-25T12:11:09.000Z</time>
</trkpt>
<trkpt lat="46.0952340" lon="10.4378630">
	<ele>1398.20</ele>
	<time>2024-07-25T12:11:10.000Z</time>
</trkpt>
<trkpt lat="46.0952260" lon="10.4378610">
	<ele>1398.00</ele>
	<time>2024-07-25T12:11:11.000Z</time>
</trkpt>
<trkpt lat="46.0952180" lon="10.4378560">
	<ele>1397.80</ele>
	<time>2024-07-25T12:11:12.000Z</time>
</trkpt>
<trkpt lat="46.0952130" lon="10.4378510">
	<ele>1397.60</ele>
	<time>2024-07-25T12:11:13.000Z</time>
</trkpt>
<trkpt lat="46.0952080" lon="10.4378480">
	<ele>1397.40</ele>
	<time>2024-07-25T12:11:14.000Z</time>
</trkpt>
<trkpt lat="46.0952040" lon="10.4378350">
	<ele>1397.20</ele>
	<time>2024-07-25T12:11:15.000Z</time>
</trkpt>
<trkpt lat="46.0952030" lon="10.4378220">
	<ele>1397.00</ele>
	<time>2024-07-25T12:11:16.000Z</time>
</trkpt>
<trkpt lat="46.0952030" lon="10.4378130">
	<ele>1396.60</ele>
	<time>2024-07-25T12:11:17.000Z</time>
</trkpt>
<trkpt lat="46.0952020" lon="10.4378040">
	<ele>1396.60</ele>
	<time>2024-07-25T12:11:18.000Z</time>
</trkpt>
<trkpt lat="46.0952040" lon="10.4377930">
	<ele>1396.40</ele>
	<time>2024-07-25T12:11:19.000Z</time>
</trkpt>
<trkpt lat="46.0952060" lon="10.4377750">
	<ele>1396.20</ele>
	<time>2024-07-25T12:11:20.000Z</time>
</trkpt>
<trkpt lat="46.0952180" lon="10.4377760">
	<ele>1396.00</ele>
	<time>2024-07-25T12:11:21.000Z</time>
</trkpt>
<trkpt lat="46.0952230" lon="10.4377660">
	<ele>1395.60</ele>
	<time>2024-07-25T12:11:22.000Z</time>
</trkpt>
<trkpt lat="46.0952250" lon="10.4377460">
	<ele>1395.40</ele>
	<time>2024-07-25T12:11:23.000Z</time>
</trkpt>
<trkpt lat="46.0952320" lon="10.4377300">
	<ele>1395.40</ele>
	<time>2024-07-25T12:11:24.000Z</time>
</trkpt>
<trkpt lat="46.0952370" lon="10.4377130">
	<ele>1395.20</ele>
	<time>2024-07-25T12:11:25.000Z</time>
</trkpt>
<trkpt lat="46.0952410" lon="10.4377040">
	<ele>1395.00</ele>
	<time>2024-07-25T12:11:26.000Z</time>
</trkpt>
<trkpt lat="46.0952420" lon="10.4376910">
	<ele>1394.80</ele>
	<time>2024-07-25T12:11:27.000Z</time>
</trkpt>
<trkpt lat="46.0952460" lon="10.4376760">
	<ele>1394.60</ele>
	<time>2024-07-25T12:11:28.000Z</time>
</trkpt>
<trkpt lat="46.0952520" lon="10.4376630">
	<ele>1394.20</ele>
	<time>2024-07-25T12:11:29.000Z</time>
</trkpt>
<trkpt lat="46.0952490" lon="10.4376390">
	<ele>1394.00</ele>
	<time>2024-07-25T12:11:30.000Z</time>
</trkpt>
<trkpt lat="46.0952430" lon="10.4376170">
	<ele>1393.80</ele>
	<time>2024-07-25T12:11:31.000Z</time>
</trkpt>
<trkpt lat="46.0952400" lon="10.4375980">
	<ele>1393.60</ele>
	<time>2024-07-25T12:11:32.000Z</time>
</trkpt>
<trkpt lat="46.0952430" lon="10.4375790">
	<ele>1393.40</ele>
	<time>2024-07-25T12:11:33.000Z</time>
</trkpt>
<trkpt lat="46.0952480" lon="10.4375600">
	<ele>1393.20</ele>
	<time>2024-07-25T12:11:34.000Z</time>
</trkpt>
<trkpt lat="46.0952510" lon="10.4375450">
	<ele>1393.20</ele>
	<time>2024-07-25T12:11:35.000Z</time>
</trkpt>
<trkpt lat="46.0952490" lon="10.4375300">
	<ele>1393.00</ele>
	<time>2024-07-25T12:11:36.000Z</time>
</trkpt>
<trkpt lat="46.0952530" lon="10.4375210">
	<ele>1392.80</ele>
	<time>2024-07-25T12:11:37.000Z</time>
</trkpt>
<trkpt lat="46.0952590" lon="10.4375110">
	<ele>1392.60</ele>
	<time>2024-07-25T12:11:38.000Z</time>
</trkpt>
<trkpt lat="46.0952550" lon="10.4374880">
	<ele>1392.40</ele>
	<time>2024-07-25T12:11:39.000Z</time>
</trkpt>
<trkpt lat="46.0952560" lon="10.4374700">
	<ele>1392.20</ele>
	<time>2024-07-25T12:11:40.000Z</time>
</trkpt>
<trkpt lat="46.0952580" lon="10.4374520">
	<ele>1392.20</ele>
	<time>2024-07-25T12:11:41.000Z</time>
</trkpt>
<trkpt lat="46.0952650" lon="10.4374380">
	<ele>1392.00</ele>
	<time>2024-07-25T12:11:42.000Z</time>
</trkpt>
<trkpt lat="46.0952760" lon="10.4374270">
	<ele>1391.60</ele>
	<time>2024-07-25T12:11:43.000Z</time>
</trkpt>
<trkpt lat="46.0952890" lon="10.4374140">
	<ele>1391.40</ele>
	<time>2024-07-25T12:11:44.000Z</time>
</trkpt>
<trkpt lat="46.0953010" lon="10.4374000">
	<ele>1391.20</ele>
	<time>2024-07-25T12:11:45.000Z</time>
</trkpt>
<trkpt lat="46.0953120" lon="10.4373790">
	<ele>1391.00</ele>
	<time>2024-07-25T12:11:46.000Z</time>
</trkpt>
<trkpt lat="46.0953260" lon="10.4373650">
	<ele>1390.80</ele>
	<time>2024-07-25T12:11:47.000Z</time>
</trkpt>
<trkpt lat="46.0953400" lon="10.4373490">
	<ele>1390.60</ele>
	<time>2024-07-25T12:11:48.000Z</time>
</trkpt>
<trkpt lat="46.0953550" lon="10.4373340">
	<ele>1390.60</ele>
	<time>2024-07-25T12:11:49.000Z</time>
</trkpt>
<trkpt lat="46.0953670" lon="10.4373230">
	<ele>1390.60</ele>
	<time>2024-07-25T12:11:50.000Z</time>
</trkpt>
<trkpt lat="46.0953770" lon="10.4373160">
	<ele>1390.60</ele>
	<time>2024-07-25T12:11:51.000Z</time>
</trkpt>
<trkpt lat="46.0953890" lon="10.4373090">
	<ele>1390.60</ele>
	<time>2024-07-25T12:11:52.000Z</time>
</trkpt>
<trkpt lat="46.0953990" lon="10.4373040">
	<ele>1390.60</ele>
	<time>2024-07-25T12:11:53.000Z</time>
</trkpt>
<trkpt lat="46.0954080" lon="10.4372910">
	<ele>1390.60</ele>
	<time>2024-07-25T12:11:54.000Z</time>
</trkpt>
<trkpt lat="46.0954110" lon="10.4372630">
	<ele>1390.80</ele>
	<time>2024-07-25T12:11:55.000Z</time>
</trkpt>
<trkpt lat="46.0954180" lon="10.4372510">
	<ele>1390.80</ele>
	<time>2024-07-25T12:11:56.000Z</time>
</trkpt>
<trkpt lat="46.0954280" lon="10.4372430">
	<ele>1390.80</ele>
	<time>2024-07-25T12:11:57.000Z</time>
</trkpt>
<trkpt lat="46.0954330" lon="10.4372310">
	<ele>1391.00</ele>
	<time>2024-07-25T12:11:58.000Z</time>
</trkpt>
<trkpt lat="46.0954290" lon="10.4372080">
	<ele>1391.00</ele>
	<time>2024-07-25T12:11:59.000Z</time>
</trkpt>
<trkpt lat="46.0954270" lon="10.4371940">
	<ele>1391.00</ele>
	<time>2024-07-25T12:12:00.000Z</time>
</trkpt>
<trkpt lat="46.0954210" lon="10.4371730">
	<ele>1391.00</ele>
	<time>2024-07-25T12:12:01.000Z</time>
</trkpt>
<trkpt lat="46.0954200" lon="10.4371510">
	<ele>1390.80</ele>
	<time>2024-07-25T12:12:02.000Z</time>
</trkpt>
<trkpt lat="46.0954180" lon="10.4371310">
	<ele>1390.80</ele>
	<time>2024-07-25T12:12:03.000Z</time>
</trkpt>
<trkpt lat="46.0954170" lon="10.4371160">
	<ele>1390.80</ele>
	<time>2024-07-25T12:12:04.000Z</time>
</trkpt>
<trkpt lat="46.0954140" lon="10.4370980">
	<ele>1390.60</ele>
	<time>2024-07-25T12:12:05.000Z</time>
</trkpt>
<trkpt lat="46.0954150" lon="10.4370810">
	<ele>1390.40</ele>
	<time>2024-07-25T12:12:06.000Z</time>
</trkpt>
<trkpt lat="46.0954100" lon="10.4370700">
	<ele>1390.20</ele>
	<time>2024-07-25T12:12:07.000Z</time>
</trkpt>
<trkpt lat="46.0954000" lon="10.4370540">
	<ele>1390.20</ele>
	<time>2024-07-25T12:12:08.000Z</time>
</trkpt>
<trkpt lat="46.0953930" lon="10.4370430">
	<ele>1390.00</ele>
	<time>2024-07-25T12:12:09.000Z</time>
</trkpt>
<trkpt lat="46.0953840" lon="10.4370250">
	<ele>1390.00</ele>
	<time>2024-07-25T12:12:10.000Z</time>
</trkpt>
<trkpt lat="46.0953750" lon="10.4370060">
	<ele>1389.80</ele>
	<time>2024-07-25T12:12:11.000Z</time>
</trkpt>
<trkpt lat="46.0953680" lon="10.4369850">
	<ele>1389.80</ele>
	<time>2024-07-25T12:12:12.000Z</time>
</trkpt>
<trkpt lat="46.0953610" lon="10.4369730">
	<ele>1389.80</ele>
	<time>2024-07-25T12:12:13.000Z</time>
</trkpt>
<trkpt lat="46.0953540" lon="10.4369660">
	<ele>1389.80</ele>
	<time>2024-07-25T12:12:14.000Z</time>
</trkpt>
<trkpt lat="46.0953470" lon="10.4369560">
	<ele>1389.80</ele>
	<time>2024-07-25T12:12:15.000Z</time>
</trkpt>
<trkpt lat="46.0953370" lon="10.4369420">
	<ele>1389.80</ele>
	<time>2024-07-25T12:12:16.000Z</time>
</trkpt>
<trkpt lat="46.0953250" lon="10.4369280">
	<ele>1389.60</ele>
	<time>2024-07-25T12:12:17.000Z</time>
</trkpt>
<trkpt lat="46.0953180" lon="10.4369160">
	<ele>1389.60</ele>
	<time>2024-07-25T12:12:18.000Z</time>
</trkpt>
<trkpt lat="46.0953110" lon="10.4369030">
	<ele>1389.60</ele>
	<time>2024-07-25T12:12:19.000Z</time>
</trkpt>
<trkpt lat="46.0953060" lon="10.4368960">
	<ele>1389.40</ele>
	<time>2024-07-25T12:12:20.000Z</time>
</trkpt>
<trkpt lat="46.0952980" lon="10.4368890">
	<ele>1389.20</ele>
	<time>2024-07-25T12:12:21.000Z</time>
</trkpt>
<trkpt lat="46.0952890" lon="10.4368840">
	<ele>1389.20</ele>
	<time>2024-07-25T12:12:22.000Z</time>
</trkpt>
<trkpt lat="46.0952770" lon="10.4368770">
	<ele>1389.00</ele>
	<time>2024-07-25T12:12:23.000Z</time>
</trkpt>
<trkpt lat="46.0952670" lon="10.4368750">
	<ele>1389.00</ele>
	<time>2024-07-25T12:12:24.000Z</time>
</trkpt>
<trkpt lat="46.0952560" lon="10.4368690">
	<ele>1388.80</ele>
	<time>2024-07-25T12:12:25.000Z</time>
</trkpt>
<trkpt lat="46.0952430" lon="10.4368630">
	<ele>1388.60</ele>
	<time>2024-07-25T12:12:26.000Z</time>
</trkpt>
<trkpt lat="46.0952330" lon="10.4368640">
	<ele>1388.40</ele>
	<time>2024-07-25T12:12:27.000Z</time>
</trkpt>
<trkpt lat="46.0952220" lon="10.4368670">
	<ele>1388.40</ele>
	<time>2024-07-25T12:12:28.000Z</time>
</trkpt>
<trkpt lat="46.0952120" lon="10.4368720">
	<ele>1388.20</ele>
	<time>2024-07-25T12:12:29.000Z</time>
</trkpt>
<trkpt lat="46.0952020" lon="10.4368750">
	<ele>1388.20</ele>
	<time>2024-07-25T12:12:30.000Z</time>
</trkpt>
<trkpt lat="46.0951950" lon="10.4368820">
	<ele>1388.00</ele>
	<time>2024-07-25T12:12:31.000Z</time>
</trkpt>
<trkpt lat="46.0951880" lon="10.4368920">
	<ele>1387.80</ele>
	<time>2024-07-25T12:12:32.000Z</time>
</trkpt>
<trkpt lat="46.0951840" lon="10.4369050">
	<ele>1387.60</ele>
	<time>2024-07-25T12:12:33.000Z</time>
</trkpt>
<trkpt lat="46.0951740" lon="10.4369060">
	<ele>1387.40</ele>
	<time>2024-07-25T12:12:34.000Z</time>
</trkpt>
<trkpt lat="46.0951660" lon="10.4369030">
	<ele>1387.20</ele>
	<time>2024-07-25T12:12:35.000Z</time>
</trkpt>
<trkpt lat="46.0951560" lon="10.4369020">
	<ele>1387.20</ele>
	<time>2024-07-25T12:12:36.000Z</time>
</trkpt>
<trkpt lat="46.0951520" lon="10.4369050">
	<ele>1386.80</ele>
	<time>2024-07-25T12:12:37.000Z</time>
</trkpt>
<trkpt lat="46.0951430" lon="10.4369140">
	<ele>1386.60</ele>
	<time>2024-07-25T12:12:38.000Z</time>
</trkpt>
<trkpt lat="46.0951380" lon="10.4369180">
	<ele>1386.40</ele>
	<time>2024-07-25T12:12:39.000Z</time>
</trkpt>
<trkpt lat="46.0951330" lon="10.4369230">
	<ele>1386.00</ele>
	<time>2024-07-25T12:12:40.000Z</time>
</trkpt>
<trkpt lat="46.0951300" lon="10.4369330">
	<ele>1385.60</ele>
	<time>2024-07-25T12:12:41.000Z</time>
</trkpt>
<trkpt lat="46.0951270" lon="10.4369490">
	<ele>1385.40</ele>
	<time>2024-07-25T12:12:42.000Z</time>
</trkpt>
<trkpt lat="46.0951240" lon="10.4369550">
	<ele>1385.40</ele>
	<time>2024-07-25T12:12:43.000Z</time>
</trkpt>
<trkpt lat="46.0951200" lon="10.4369550">
	<ele>1385.20</ele>
	<time>2024-07-25T12:12:44.000Z</time>
</trkpt>
<trkpt lat="46.0951140" lon="10.4369620">
	<ele>1385.00</ele>
	<time>2024-07-25T12:12:45.000Z</time>
</trkpt>
<trkpt lat="46.0951110" lon="10.4369750">
	<ele>1384.80</ele>
	<time>2024-07-25T12:12:46.000Z</time>
</trkpt>
<trkpt lat="46.0951050" lon="10.4369840">
	<ele>1384.80</ele>
	<time>2024-07-25T12:12:47.000Z</time>
</trkpt>
<trkpt lat="46.0951070" lon="10.4369860">
	<ele>1384.40</ele>
	<time>2024-07-25T12:12:48.000Z</time>
</trkpt>
<trkpt lat="46.0951110" lon="10.4369870">
	<ele>1384.00</ele>
	<time>2024-07-25T12:12:49.000Z</time>
</trkpt>
<trkpt lat="46.0951090" lon="10.4369850">
	<ele>1383.60</ele>
	<time>2024-07-25T12:12:50.000Z</time>
</trkpt>
<trkpt lat="46.0950980" lon="10.4369820">
	<ele>1383.40</ele>
	<time>2024-07-25T12:12:51.000Z</time>
</trkpt>
<trkpt lat="46.0950980" lon="10.4369850">
	<ele>1383.40</ele>
	<time>2024-07-25T12:12:52.000Z</time>
</trkpt>
<trkpt lat="46.0950880" lon="10.4369950">
	<ele>1383.20</ele>
	<time>2024-07-25T12:12:53.000Z</time>
</trkpt>
<trkpt lat="46.0950800" lon="10.4370040">
	<ele>1383.00</ele>
	<time>2024-07-25T12:12:54.000Z</time>
</trkpt>
<trkpt lat="46.0950670" lon="10.4370080">
	<ele>1382.60</ele>
	<time>2024-07-25T12:12:55.000Z</time>
</trkpt>
<trkpt lat="46.0950590" lon="10.4370120">
	<ele>1382.40</ele>
	<time>2024-07-25T12:12:56.000Z</time>
</trkpt>
<trkpt lat="46.0950480" lon="10.4370170">
	<ele>1382.20</ele>
	<time>2024-07-25T12:12:57.000Z</time>
</trkpt>
<trkpt lat="46.0950350" lon="10.4370190">
	<ele>1382.00</ele>
	<time>2024-07-25T12:12:58.000Z</time>
</trkpt>
<trkpt lat="46.0950200" lon="10.4370160">
	<ele>1381.80</ele>
	<time>2024-07-25T12:12:59.000Z</time>
</trkpt>
<trkpt lat="46.0950100" lon="10.4370190">
	<ele>1381.60</ele>
	<time>2024-07-25T12:13:00.000Z</time>
</trkpt>
<trkpt lat="46.0950010" lon="10.4370250">
	<ele>1381.40</ele>
	<time>2024-07-25T12:13:01.000Z</time>
</trkpt>
<trkpt lat="46.0949910" lon="10.4370290">
	<ele>1381.40</ele>
	<time>2024-07-25T12:13:02.000Z</time>
</trkpt>
<trkpt lat="46.0949780" lon="10.4370310">
	<ele>1381.20</ele>
	<time>2024-07-25T12:13:03.000Z</time>
</trkpt>
<trkpt lat="46.0949700" lon="10.4370310">
	<ele>1381.20</ele>
	<time>2024-07-25T12:13:04.000Z</time>
</trkpt>
<trkpt lat="46.0949630" lon="10.4370330">
	<ele>1380.80</ele>
	<time>2024-07-25T12:13:05.000Z</time>
</trkpt>
<trkpt lat="46.0949470" lon="10.4370210">
	<ele>1380.40</ele>
	<time>2024-07-25T12:13:06.000Z</time>
</trkpt>
<trkpt lat="46.0949320" lon="10.4370080">
	<ele>1380.20</ele>
	<time>2024-07-25T12:13:07.000Z</time>
</trkpt>
<trkpt lat="46.0949200" lon="10.4369990">
	<ele>1380.00</ele>
	<time>2024-07-25T12:13:08.000Z</time>
</trkpt>
<trkpt lat="46.0949090" lon="10.4370000">
	<ele>1379.80</ele>
	<time>2024-07-25T12:13:09.000Z</time>
</trkpt>
<trkpt lat="46.0949060" lon="10.4370000">
	<ele>1379.80</ele>
	<time>2024-07-25T12:13:10.000Z</time>
</trkpt>
<trkpt lat="46.0949020" lon="10.4370000">
	<ele>1379.60</ele>
	<time>2024-07-25T12:13:11.000Z</time>
</trkpt>
<trkpt lat="46.0949010" lon="10.4370010">
	<ele>1379.60</ele>
	<time>2024-07-25T12:13:12.000Z</time>
</trkpt>
<trkpt lat="46.0948940" lon="10.4369990">
	<ele>1379.60</ele>
	<time>2024-07-25T12:13:13.000Z</time>
</trkpt>
<trkpt lat="46.0948840" lon="10.4369980">
	<ele>1379.60</ele>
	<time>2024-07-25T12:13:14.000Z</time>
</trkpt>
<trkpt lat="46.0948720" lon="10.4369920">
	<ele>1379.60</ele>
	<time>2024-07-25T12:13:15.000Z</time>
</trkpt>
<trkpt lat="46.0948600" lon="10.4369850">
	<ele>1379.40</ele>
	<time>2024-07-25T12:13:16.000Z</time>
</trkpt>
<trkpt lat="46.0948480" lon="10.4369780">
	<ele>1379.20</ele>
	<time>2024-07-25T12:13:17.000Z</time>
</trkpt>
<trkpt lat="46.0948420" lon="10.4369730">
	<ele>1379.00</ele>
	<time>2024-07-25T12:13:18.000Z</time>
</trkpt>
<trkpt lat="46.0948400" lon="10.4369690">
	<ele>1379.00</ele>
	<time>2024-07-25T12:13:19.000Z</time>
</trkpt>
<trkpt lat="46.0948380" lon="10.4369690">
	<ele>1378.80</ele>
	<time>2024-07-25T12:13:20.000Z</time>
</trkpt>
<trkpt lat="46.0948390" lon="10.4369700">
	<ele>1378.80</ele>
	<time>2024-07-25T12:13:21.000Z</time>
</trkpt>
<trkpt lat="46.0948360" lon="10.4369700">
	<ele>1378.80</ele>
	<time>2024-07-25T12:13:22.000Z</time>
</trkpt>
<trkpt lat="46.0948320" lon="10.4369690">
	<ele>1378.80</ele>
	<time>2024-07-25T12:13:23.000Z</time>
</trkpt>
<trkpt lat="46.0948300" lon="10.4369650">
	<ele>1378.60</ele>
	<time>2024-07-25T12:13:24.000Z</time>
</trkpt>
<trkpt lat="46.0948290" lon="10.4369640">
	<ele>1378.60</ele>
	<time>2024-07-25T12:13:25.000Z</time>
</trkpt>
<trkpt lat="46.0948270" lon="10.4369630">
	<ele>1378.40</ele>
	<time>2024-07-25T12:13:26.000Z</time>
</trkpt>
<trkpt lat="46.0948270" lon="10.4369630">
	<ele>1378.40</ele>
	<time>2024-07-25T12:13:27.000Z</time>
</trkpt>
<trkpt lat="46.0948280" lon="10.4369640">
	<ele>1378.40</ele>
	<time>2024-07-25T12:13:28.000Z</time>
</trkpt>
<trkpt lat="46.0948280" lon="10.4369640">
	<ele>1378.20</ele>
	<time>2024-07-25T12:13:29.000Z</time>
</trkpt>
<trkpt lat="46.0948250" lon="10.4369610">
	<ele>1378.20</ele>
	<time>2024-07-25T12:13:30.000Z</time>
</trkpt>
<trkpt lat="46.0948190" lon="10.4369590">
	<ele>1378.20</ele>
	<time>2024-07-25T12:13:31.000Z</time>
</trkpt>
<trkpt lat="46.0948110" lon="10.4369590">
	<ele>1378.20</ele>
	<time>2024-07-25T12:13:32.000Z</time>
</trkpt>
<trkpt lat="46.0948010" lon="10.4369560">
	<ele>1378.20</ele>
	<time>2024-07-25T12:13:33.000Z</time>
</trkpt>
<trkpt lat="46.0947930" lon="10.4369580">
	<ele>1378.20</ele>
	<time>2024-07-25T12:13:34.000Z</time>
</trkpt>
<trkpt lat="46.0947890" lon="10.4369590">
	<ele>1378.00</ele>
	<time>2024-07-25T12:13:35.000Z</time>
</trkpt>
<trkpt lat="46.0947820" lon="10.4369590">
	<ele>1377.80</ele>
	<time>2024-07-25T12:13:36.000Z</time>
</trkpt>
<trkpt lat="46.0947740" lon="10.4369560">
	<ele>1377.80</ele>
	<time>2024-07-25T12:13:37.000Z</time>
</trkpt>
<trkpt lat="46.0947690" lon="10.4369550">
	<ele>1377.60</ele>
	<time>2024-07-25T12:13:38.000Z</time>
</trkpt>
<trkpt lat="46.0947660" lon="10.4369540">
	<ele>1377.40</ele>
	<time>2024-07-25T12:13:39.000Z</time>
</trkpt>
<trkpt lat="46.0947630" lon="10.4369540">
	<ele>1377.40</ele>
	<time>2024-07-25T12:13:40.000Z</time>
</trkpt>
<trkpt lat="46.0947600" lon="10.4369520">
	<ele>1377.20</ele>
	<time>2024-07-25T12:13:41.000Z</time>
</trkpt>
<trkpt lat="46.0947560" lon="10.4369490">
	<ele>1377.00</ele>
	<time>2024-07-25T12:13:42.000Z</time>
</trkpt>
<trkpt lat="46.0947520" lon="10.4369480">
	<ele>1377.00</ele>
	<time>2024-07-25T12:13:43.000Z</time>
</trkpt>
<trkpt lat="46.0947470" lon="10.4369450">
	<ele>1377.00</ele>
	<time>2024-07-25T12:13:44.000Z</time>
</trkpt>
<trkpt lat="46.0947380" lon="10.4369390">
	<ele>1376.80</ele>
	<time>2024-07-25T12:13:45.000Z</time>
</trkpt>
<trkpt lat="46.0947330" lon="10.4369330">
	<ele>1376.80</ele>
	<time>2024-07-25T12:13:46.000Z</time>
</trkpt>
<trkpt lat="46.0947310" lon="10.4369330">
	<ele>1376.80</ele>
	<time>2024-07-25T12:13:47.000Z</time>
</trkpt>
<trkpt lat="46.0947310" lon="10.4369340">
	<ele>1376.80</ele>
	<time>2024-07-25T12:13:48.000Z</time>
</trkpt>
<trkpt lat="46.0947310" lon="10.4369330">
	<ele>1376.80</ele>
	<time>2024-07-25T12:13:49.000Z</time>
</trkpt>
<trkpt lat="46.0947310" lon="10.4369310">
	<ele>1376.80</ele>
	<time>2024-07-25T12:13:50.000Z</time>
</trkpt>
<trkpt lat="46.0947310" lon="10.4369310">
	<ele>1376.80</ele>
	<time>2024-07-25T12:13:51.000Z</time>
</trkpt>
<trkpt lat="46.0947310" lon="10.4369320">
	<ele>1376.80</ele>
	<time>2024-07-25T12:13:52.000Z</time>
</trkpt>
<trkpt lat="46.0947300" lon="10.4369300">
	<ele>1376.80</ele>
	<time>2024-07-25T12:13:53.000Z</time>
</trkpt>
<trkpt lat="46.0947300" lon="10.4369280">
	<ele>1376.80</ele>
	<time>2024-07-25T12:13:54.000Z</time>
</trkpt>
<trkpt lat="46.0947290" lon="10.4369260">
	<ele>1377.00</ele>
	<time>2024-07-25T12:13:55.000Z</time>
</trkpt>
<trkpt lat="46.0947280" lon="10.4369210">
	<ele>1377.00</ele>
	<time>2024-07-25T12:13:56.000Z</time>
</trkpt>
<trkpt lat="46.0947280" lon="10.4369190">
	<ele>1377.00</ele>
	<time>2024-07-25T12:13:57.000Z</time>
</trkpt>
<trkpt lat="46.0947280" lon="10.4369180">
	<ele>1376.80</ele>
	<time>2024-07-25T12:13:58.000Z</time>
</trkpt>
<trkpt lat="46.0947290" lon="10.4369190">
	<ele>1376.80</ele>
	<time>2024-07-25T12:13:59.000Z</time>
</trkpt>
<trkpt lat="46.0947290" lon="10.4369210">
	<ele>1376.80</ele>
	<time>2024-07-25T12:14:00.000Z</time>
</trkpt>
<trkpt lat="46.0947290" lon="10.4369210">
	<ele>1376.80</ele>
	<time>2024-07-25T12:14:01.000Z</time>
</trkpt>
<trkpt lat="46.0947290" lon="10.4369210">
	<ele>1376.80</ele>
	<time>2024-07-25T12:14:02.000Z</time>
</trkpt>
<trkpt lat="46.0947290" lon="10.4369210">
	<ele>1376.80</ele>
	<time>2024-07-25T12:14:03.000Z</time>
</trkpt>
<trkpt lat="46.0947290" lon="10.4369210">
	<ele>1376.80</ele>
	<time>2024-07-25T12:14:04.000Z</time>
</trkpt>
<trkpt lat="46.0947290" lon="10.4369210">
	<ele>1376.80</ele>
	<time>2024-07-25T12:14:05.000Z</time>
</trkpt>
<trkpt lat="46.0947290" lon="10.4369210">
	<ele>1376.80</ele>
	<time>2024-07-25T12:14:06.000Z</time>
</trkpt>
<trkpt lat="46.0947290" lon="10.4369210">
	<ele>1376.80</ele>
	<time>2024-07-25T12:14:07.000Z</time>
</trkpt>
<trkpt lat="46.0947290" lon="10.4369210">
	<ele>1376.80</ele>
	<time>2024-07-25T12:14:08.000Z</time>
</trkpt>
<trkpt lat="46.0947290" lon="10.4369210">
	<ele>1376.80</ele>
	<time>2024-07-25T12:14:09.000Z</time>
</trkpt>
<trkpt lat="46.0947290" lon="10.4369210">
	<ele>1376.60</ele>
	<time>2024-07-25T12:14:10.000Z</time>
</trkpt>
<trkpt lat="46.0947260" lon="10.4369240">
	<ele>1376.60</ele>
	<time>2024-07-25T12:14:11.000Z</time>
</trkpt>
<trkpt lat="46.0947110" lon="10.4369370">
	<ele>1376.40</ele>
	<time>2024-07-25T12:14:12.000Z</time>
</trkpt>
<trkpt lat="46.0946940" lon="10.4369510">
	<ele>1376.20</ele>
	<time>2024-07-25T12:14:13.000Z</time>
</trkpt>
<trkpt lat="46.0946840" lon="10.4369670">
	<ele>1376.20</ele>
	<time>2024-07-25T12:14:14.000Z</time>
</trkpt>
<trkpt lat="46.0946760" lon="10.4369830">
	<ele>1376.00</ele>
	<time>2024-07-25T12:14:15.000Z</time>
</trkpt>
<trkpt lat="46.0946680" lon="10.4369910">
	<ele>1376.00</ele>
	<time>2024-07-25T12:14:16.000Z</time>
</trkpt>
<trkpt lat="46.0946610" lon="10.4369940">
	<ele>1376.00</ele>
	<time>2024-07-25T12:14:17.000Z</time>
</trkpt>
<trkpt lat="46.0946560" lon="10.4369970">
	<ele>1375.80</ele>
	<time>2024-07-25T12:14:18.000Z</time>
</trkpt>
<trkpt lat="46.0946520" lon="10.4370000">
	<ele>1375.80</ele>
	<time>2024-07-25T12:14:19.000Z</time>
</trkpt>
<trkpt lat="46.0946480" lon="10.4370010">
	<ele>1375.80</ele>
	<time>2024-07-25T12:14:20.000Z</time>
</trkpt>
<trkpt lat="46.0946480" lon="10.4370020">
	<ele>1375.80</ele>
	<time>2024-07-25T12:14:21.000Z</time>
</trkpt>
<trkpt lat="46.0946490" lon="10.4370020">
	<ele>1375.80</ele>
	<time>2024-07-25T12:14:22.000Z</time>
</trkpt>
<trkpt lat="46.0946500" lon="10.4370050">
	<ele>1375.80</ele>
	<time>2024-07-25T12:14:23.000Z</time>
</trkpt>
<trkpt lat="46.0946500" lon="10.4370070">
	<ele>1375.80</ele>
	<time>2024-07-25T12:14:24.000Z</time>
</trkpt>
<trkpt lat="46.0946500" lon="10.4370080">
	<ele>1375.80</ele>
	<time>2024-07-25T12:14:25.000Z</time>
</trkpt>
<trkpt lat="46.0946510" lon="10.4370060">
	<ele>1375.80</ele>
	<time>2024-07-25T12:14:26.000Z</time>
</trkpt>
<trkpt lat="46.0946530" lon="10.4370040">
	<ele>1375.80</ele>
	<time>2024-07-25T12:14:27.000Z</time>
</trkpt>
<trkpt lat="46.0946570" lon="10.4370050">
	<ele>1375.80</ele>
	<time>2024-07-25T12:14:28.000Z</time>
</trkpt>
<trkpt lat="46.0946600" lon="10.4370070">
	<ele>1375.80</ele>
	<time>2024-07-25T12:14:29.000Z</time>
</trkpt>
<trkpt lat="46.0946600" lon="10.4370060">
	<ele>1375.80</ele>
	<time>2024-07-25T12:14:30.000Z</time>
</trkpt>
<trkpt lat="46.0946600" lon="10.4370060">
	<ele>1375.80</ele>
	<time>2024-07-25T12:14:31.000Z</time>
</trkpt>
<trkpt lat="46.0946600" lon="10.4370060">
	<ele>1375.80</ele>
	<time>2024-07-25T12:14:32.000Z</time>
</trkpt>
<trkpt lat="46.0946600" lon="10.4370060">
	<ele>1375.80</ele>
	<time>2024-07-25T12:14:33.000Z</time>
</trkpt>
<trkpt lat="46.0946600" lon="10.4370060">
	<ele>1375.80</ele>
	<time>2024-07-25T12:14:34.000Z</time>
</trkpt>
<trkpt lat="46.0946600" lon="10.4370060">
	<ele>1375.60</ele>
	<time>2024-07-25T12:14:35.000Z</time>
</trkpt>
<trkpt lat="46.0946600" lon="10.4370060">
	<ele>1375.60</ele>
	<time>2024-07-25T12:14:36.000Z</time>
</trkpt>
<trkpt lat="46.0946600" lon="10.4370060">
	<ele>1375.80</ele>
	<time>2024-07-25T12:14:37.000Z</time>
</trkpt>
<trkpt lat="46.0946600" lon="10.4370060">
	<ele>1375.80</ele>
	<time>2024-07-25T12:14:38.000Z</time>
</trkpt>
<trkpt lat="46.0946600" lon="10.4370060">
	<ele>1376.00</ele>
	<time>2024-07-25T12:14:39.000Z</time>
</trkpt>
<trkpt lat="46.0946550" lon="10.4370060">
	<ele>1376.00</ele>
	<time>2024-07-25T12:14:40.000Z</time>
</trkpt>
<trkpt lat="46.0946400" lon="10.4370110">
	<ele>1376.20</ele>
	<time>2024-07-25T12:14:41.000Z</time>
</trkpt>
<trkpt lat="46.0946280" lon="10.4370140">
	<ele>1376.40</ele>
	<time>2024-07-25T12:14:42.000Z</time>
</trkpt>
<trkpt lat="46.0946200" lon="10.4370190">
	<ele>1376.60</ele>
	<time>2024-07-25T12:14:43.000Z</time>
</trkpt>
<trkpt lat="46.0946090" lon="10.4370210">
	<ele>1376.80</ele>
	<time>2024-07-25T12:14:44.000Z</time>
</trkpt>
<trkpt lat="46.0946020" lon="10.4370260">
	<ele>1376.80</ele>
	<time>2024-07-25T12:14:45.000Z</time>
</trkpt>
<trkpt lat="46.0945930" lon="10.4370100">
	<ele>1376.80</ele>
	<time>2024-07-25T12:14:46.000Z</time>
</trkpt>
<trkpt lat="46.0945870" lon="10.4369910">
	<ele>1377.00</ele>
	<time>2024-07-25T12:14:47.000Z</time>
</trkpt>
<trkpt lat="46.0945830" lon="10.4369810">
	<ele>1377.00</ele>
	<time>2024-07-25T12:14:48.000Z</time>
</trkpt>
<trkpt lat="46.0945820" lon="10.4369760">
	<ele>1377.00</ele>
	<time>2024-07-25T12:14:49.000Z</time>
</trkpt>
<trkpt lat="46.0945830" lon="10.4369730">
	<ele>1377.00</ele>
	<time>2024-07-25T12:14:50.000Z</time>
</trkpt>
<trkpt lat="46.0945820" lon="10.4369700">
	<ele>1376.80</ele>
	<time>2024-07-25T12:14:51.000Z</time>
</trkpt>
<trkpt lat="46.0945830" lon="10.4369740">
	<ele>1376.80</ele>
	<time>2024-07-25T12:14:52.000Z</time>
</trkpt>
<trkpt lat="46.0945880" lon="10.4369750">
	<ele>1376.80</ele>
	<time>2024-07-25T12:14:53.000Z</time>
</trkpt>
<trkpt lat="46.0945940" lon="10.4369740">
	<ele>1376.80</ele>
	<time>2024-07-25T12:14:54.000Z</time>
</trkpt>
<trkpt lat="46.0945990" lon="10.4369740">
	<ele>1376.80</ele>
	<time>2024-07-25T12:14:55.000Z</time>
</trkpt>
<trkpt lat="46.0946030" lon="10.4369740">
	<ele>1376.80</ele>
	<time>2024-07-25T12:14:56.000Z</time>
</trkpt>
<trkpt lat="46.0946060" lon="10.4369750">
	<ele>1376.80</ele>
	<time>2024-07-25T12:14:57.000Z</time>
</trkpt>
<trkpt lat="46.0946070" lon="10.4369770">
	<ele>1376.80</ele>
	<time>2024-07-25T12:14:58.000Z</time>
</trkpt>
<trkpt lat="46.0946050" lon="10.4369760">
	<ele>1376.80</ele>
	<time>2024-07-25T12:14:59.000Z</time>
</trkpt>
<trkpt lat="46.0946030" lon="10.4369770">
	<ele>1376.80</ele>
	<time>2024-07-25T12:15:00.000Z</time>
</trkpt>
<trkpt lat="46.0946050" lon="10.4369760">
	<ele>1376.80</ele>
	<time>2024-07-25T12:15:01.000Z</time>
</trkpt>
<trkpt lat="46.0946050" lon="10.4369760">
	<ele>1376.80</ele>
	<time>2024-07-25T12:15:02.000Z</time>
</trkpt>
<trkpt lat="46.0946050" lon="10.4369760">
	<ele>1376.80</ele>
	<time>2024-07-25T12:15:03.000Z</time>
</trkpt>
<trkpt lat="46.0946050" lon="10.4369760">
	<ele>1376.80</ele>
	<time>2024-07-25T12:15:04.000Z</time>
</trkpt>
<trkpt lat="46.0946050" lon="10.4369760">
	<ele>1376.80</ele>
	<time>2024-07-25T12:15:05.000Z</time>
</trkpt>
<trkpt lat="46.0946050" lon="10.4369760">
	<ele>1376.80</ele>
	<time>2024-07-25T12:15:06.000Z</time>
</trkpt>
<trkpt lat="46.0946050" lon="10.4369760">
	<ele>1376.80</ele>
	<time>2024-07-25T12:15:07.000Z</time>
</trkpt>
<trkpt lat="46.0946050" lon="10.4369760">
	<ele>1376.80</ele>
	<time>2024-07-25T12:15:08.000Z</time>
</trkpt>
<trkpt lat="46.0946050" lon="10.4369760">
	<ele>1376.80</ele>
	<time>2024-07-25T12:15:09.000Z</time>
</trkpt>
<trkpt lat="46.0946030" lon="10.4369740">
	<ele>1376.80</ele>
	<time>2024-07-25T12:15:10.000Z</time>
</trkpt>
<trkpt lat="46.0946090" lon="10.4369770">
	<ele>1376.60</ele>
	<time>2024-07-25T12:15:11.000Z</time>
</trkpt>
<trkpt lat="46.0946090" lon="10.4369770">
	<ele>1376.60</ele>
	<time>2024-07-25T12:15:12.000Z</time>
</trkpt>
<trkpt lat="46.0946090" lon="10.4369770">
	<ele>1376.60</ele>
	<time>2024-07-25T12:15:13.000Z</time>
</trkpt>
<trkpt lat="46.0946090" lon="10.4369770">
	<ele>1376.40</ele>
	<time>2024-07-25T12:15:14.000Z</time>
</trkpt>
<trkpt lat="46.0946090" lon="10.4369770">
	<ele>1376.60</ele>
	<time>2024-07-25T12:15:15.000Z</time>
</trkpt>
<trkpt lat="46.0946090" lon="10.4369770">
	<ele>1376.60</ele>
	<time>2024-07-25T12:15:16.000Z</time>
</trkpt>
<trkpt lat="46.0946090" lon="10.4369770">
	<ele>1376.60</ele>
	<time>2024-07-25T12:15:17.000Z</time>
</trkpt>
<trkpt lat="46.0946110" lon="10.4369760">
	<ele>1376.20</ele>
	<time>2024-07-25T12:15:18.000Z</time>
</trkpt>
<trkpt lat="46.0946150" lon="10.4369750">
	<ele>1376.20</ele>
	<time>2024-07-25T12:15:19.000Z</time>
</trkpt>
<trkpt lat="46.0946220" lon="10.4369730">
	<ele>1376.20</ele>
	<time>2024-07-25T12:15:20.000Z</time>
</trkpt>
<trkpt lat="46.0946350" lon="10.4369740">
	<ele>1376.20</ele>
	<time>2024-07-25T12:15:21.000Z</time>
</trkpt>
<trkpt lat="46.0946420" lon="10.4369790">
	<ele>1376.20</ele>
	<time>2024-07-25T12:15:22.000Z</time>
</trkpt>
<trkpt lat="46.0946480" lon="10.4369740">
	<ele>1376.20</ele>
	<time>2024-07-25T12:15:23.000Z</time>
</trkpt>
<trkpt lat="46.0946570" lon="10.4369740">
	<ele>1376.20</ele>
	<time>2024-07-25T12:15:24.000Z</time>
</trkpt>
<trkpt lat="46.0946660" lon="10.4369790">
	<ele>1376.20</ele>
	<time>2024-07-25T12:15:25.000Z</time>
</trkpt>
<trkpt lat="46.0946750" lon="10.4369860">
	<ele>1376.20</ele>
	<time>2024-07-25T12:15:26.000Z</time>
</trkpt>
<trkpt lat="46.0946900" lon="10.4369850">
	<ele>1376.20</ele>
	<time>2024-07-25T12:15:28.000Z</time>
</trkpt>
<trkpt lat="46.0947060" lon="10.4369890">
	<ele>1376.20</ele>
	<time>2024-07-25T12:15:30.000Z</time>
</trkpt>
<trkpt lat="46.0947200" lon="10.4369850">
	<ele>1376.20</ele>
	<time>2024-07-25T12:15:31.000Z</time>
</trkpt>
<trkpt lat="46.0947380" lon="10.4369860">
	<ele>1376.20</ele>
	<time>2024-07-25T12:15:32.000Z</time>
</trkpt>
<trkpt lat="46.0947550" lon="10.4369840">
	<ele>1376.20</ele>
	<time>2024-07-25T12:15:33.000Z</time>
</trkpt>
<trkpt lat="46.0947630" lon="10.4369870">
	<ele>1376.20</ele>
	<time>2024-07-25T12:15:34.000Z</time>
</trkpt>
<trkpt lat="46.0947600" lon="10.4370010">
	<ele>1376.20</ele>
	<time>2024-07-25T12:15:35.000Z</time>
</trkpt>
<trkpt lat="46.0947620" lon="10.4370020">
	<ele>1376.20</ele>
	<time>2024-07-25T12:15:36.000Z</time>
</trkpt>
<trkpt lat="46.0947580" lon="10.4370050">
	<ele>1376.20</ele>
	<time>2024-07-25T12:15:37.000Z</time>
</trkpt>
<trkpt lat="46.0947810" lon="10.4369940">
	<ele>1376.20</ele>
	<time>2024-07-25T12:15:38.000Z</time>
</trkpt>
<trkpt lat="46.0947720" lon="10.4369950">
	<ele>1376.20</ele>
	<time>2024-07-25T12:15:39.000Z</time>
</trkpt>
<trkpt lat="46.0947710" lon="10.4369980">
	<ele>1376.20</ele>
	<time>2024-07-25T12:15:40.000Z</time>
</trkpt>
<trkpt lat="46.0947650" lon="10.4369700">
	<ele>1376.20</ele>
	<time>2024-07-25T12:15:41.000Z</time>
</trkpt>
<trkpt lat="46.0947630" lon="10.4369750">
	<ele>1376.20</ele>
	<time>2024-07-25T12:15:42.000Z</time>
</trkpt>
<trkpt lat="46.0947670" lon="10.4369560">
	<ele>1376.20</ele>
	<time>2024-07-25T12:15:43.000Z</time>
</trkpt>
<trkpt lat="46.0947610" lon="10.4369410">
	<ele>1376.20</ele>
	<time>2024-07-25T12:15:44.000Z</time>
</trkpt>
<trkpt lat="46.0947630" lon="10.4369430">
	<ele>1376.20</ele>
	<time>2024-07-25T12:15:45.000Z</time>
</trkpt>
<trkpt lat="46.0947550" lon="10.4369390">
	<ele>1376.20</ele>
	<time>2024-07-25T12:15:46.000Z</time>
</trkpt>
<trkpt lat="46.0947550" lon="10.4369390">
	<ele>1376.20</ele>
	<time>2024-07-25T12:15:47.000Z</time>
</trkpt>
<trkpt lat="46.0947550" lon="10.4369390">
	<ele>1376.20</ele>
	<time>2024-07-25T12:15:48.000Z</time>
</trkpt>
<trkpt lat="46.0947550" lon="10.4369390">
	<ele>1376.20</ele>
	<time>2024-07-25T12:15:49.000Z</time>
</trkpt>
<trkpt lat="46.0947550" lon="10.4369390">
	<ele>1376.20</ele>
	<time>2024-07-25T12:15:50.000Z</time>
</trkpt>
<trkpt lat="46.0947550" lon="10.4369390">
	<ele>1376.20</ele>
	<time>2024-07-25T12:15:51.000Z</time>
</trkpt>
<trkpt lat="46.0947550" lon="10.4369390">
	<ele>1376.20</ele>
	<time>2024-07-25T12:15:52.000Z</time>
</trkpt>
<trkpt lat="46.0947550" lon="10.4369390">
	<ele>1376.20</ele>
	<time>2024-07-25T12:15:53.000Z</time>
</trkpt>
<trkpt lat="46.0947520" lon="10.4369380">
	<ele>1376.20</ele>
	<time>2024-07-25T12:15:54.000Z</time>
</trkpt>
<trkpt lat="46.0947470" lon="10.4369390">
	<ele>1376.20</ele>
	<time>2024-07-25T12:15:55.000Z</time>
</trkpt>
<trkpt lat="46.0947250" lon="10.4369360">
	<ele>1376.20</ele>
	<time>2024-07-25T12:15:56.000Z</time>
</trkpt>
<trkpt lat="46.0947160" lon="10.4369410">
	<ele>1376.20</ele>
	<time>2024-07-25T12:15:57.000Z</time>
</trkpt>
<trkpt lat="46.0947030" lon="10.4369350">
	<ele>1376.20</ele>
	<time>2024-07-25T12:15:58.000Z</time>
</trkpt>
<trkpt lat="46.0946910" lon="10.4369330">
	<ele>1376.20</ele>
	<time>2024-07-25T12:15:59.000Z</time>
</trkpt>
<trkpt lat="46.0946780" lon="10.4369370">
	<ele>1376.20</ele>
	<time>2024-07-25T12:16:00.000Z</time>
</trkpt>
<trkpt lat="46.0946680" lon="10.4369290">
	<ele>1376.20</ele>
	<time>2024-07-25T12:16:01.000Z</time>
</trkpt>
<trkpt lat="46.0946630" lon="10.4369260">
	<ele>1376.20</ele>
	<time>2024-07-25T12:16:02.000Z</time>
</trkpt>
<trkpt lat="46.0946590" lon="10.4369240">
	<ele>1376.20</ele>
	<time>2024-07-25T12:16:03.000Z</time>
</trkpt>
<trkpt lat="46.0946700" lon="10.4369200">
	<ele>1376.20</ele>
	<time>2024-07-25T12:16:04.000Z</time>
</trkpt>
<trkpt lat="46.0946790" lon="10.4369260">
	<ele>1376.20</ele>
	<time>2024-07-25T12:16:05.000Z</time>
</trkpt>
<trkpt lat="46.0946790" lon="10.4369270">
	<ele>1376.20</ele>
	<time>2024-07-25T12:16:06.000Z</time>
</trkpt>
<trkpt lat="46.0946800" lon="10.4369270">
	<ele>1376.20</ele>
	<time>2024-07-25T12:16:07.000Z</time>
</trkpt>
<trkpt lat="46.0946910" lon="10.4369390">
	<ele>1376.20</ele>
	<time>2024-07-25T12:16:08.000Z</time>
</trkpt>
<trkpt lat="46.0947060" lon="10.4369530">
	<ele>1376.20</ele>
	<time>2024-07-25T12:16:09.000Z</time>
</trkpt>
<trkpt lat="46.0947060" lon="10.4369490">
	<ele>1376.20</ele>
	<time>2024-07-25T12:16:10.000Z</time>
</trkpt>
<trkpt lat="46.0947020" lon="10.4369460">
	<ele>1376.20</ele>
	<time>2024-07-25T12:16:11.000Z</time>
</trkpt>
<trkpt lat="46.0947000" lon="10.4369430">
	<ele>1376.20</ele>
	<time>2024-07-25T12:16:12.000Z</time>
</trkpt>
<trkpt lat="46.0947000" lon="10.4369410">
	<ele>1376.20</ele>
	<time>2024-07-25T12:16:13.000Z</time>
</trkpt>
<trkpt lat="46.0946910" lon="10.4369340">
	<ele>1376.20</ele>
	<time>2024-07-25T12:16:14.000Z</time>
</trkpt>
<trkpt lat="46.0946910" lon="10.4369300">
	<ele>1376.20</ele>
	<time>2024-07-25T12:16:15.000Z</time>
</trkpt>
<trkpt lat="46.0946930" lon="10.4369300">
	<ele>1376.20</ele>
	<time>2024-07-25T12:16:16.000Z</time>
</trkpt>
<trkpt lat="46.0946910" lon="10.4369290">
	<ele>1376.20</ele>
	<time>2024-07-25T12:16:17.000Z</time>
</trkpt>
<trkpt lat="46.0946910" lon="10.4369290">
	<ele>1376.20</ele>
	<time>2024-07-25T12:16:18.000Z</time>
</trkpt>
<trkpt lat="46.0946910" lon="10.4369290">
	<ele>1376.20</ele>
	<time>2024-07-25T12:16:19.000Z</time>
</trkpt>
<trkpt lat="46.0946910" lon="10.4369290">
	<ele>1376.20</ele>
	<time>2024-07-25T12:16:20.000Z</time>
</trkpt>
<trkpt lat="46.0946910" lon="10.4369290">
	<ele>1376.20</ele>
	<time>2024-07-25T12:16:21.000Z</time>
</trkpt>
<trkpt lat="46.0946910" lon="10.4369290">
	<ele>1376.20</ele>
	<time>2024-07-25T12:16:22.000Z</time>
</trkpt>
<trkpt lat="46.0946910" lon="10.4369290">
	<ele>1376.20</ele>
	<time>2024-07-25T12:16:23.000Z</time>
</trkpt>
<trkpt lat="46.0946910" lon="10.4369290">
	<ele>1376.20</ele>
	<time>2024-07-25T12:16:24.000Z</time>
</trkpt>
<trkpt lat="46.0946910" lon="10.4369290">
	<ele>1376.20</ele>
	<time>2024-07-25T12:16:25.000Z</time>
</trkpt>
<trkpt lat="46.0946910" lon="10.4369290">
	<ele>1376.20</ele>
	<time>2024-07-25T12:16:26.000Z</time>
</trkpt>
<trkpt lat="46.0946920" lon="10.4369300">
	<ele>1376.20</ele>
	<time>2024-07-25T12:16:27.000Z</time>
</trkpt>
<trkpt lat="46.0946930" lon="10.4369320">
	<ele>1376.20</ele>
	<time>2024-07-25T12:16:28.000Z</time>
</trkpt>
<trkpt lat="46.0947000" lon="10.4369290">
	<ele>1376.20</ele>
	<time>2024-07-25T12:16:29.000Z</time>
</trkpt>
<trkpt lat="46.0947020" lon="10.4369310">
	<ele>1376.20</ele>
	<time>2024-07-25T12:16:30.000Z</time>
</trkpt>
<trkpt lat="46.0947010" lon="10.4369240">
	<ele>1376.20</ele>
	<time>2024-07-25T12:16:31.000Z</time>
</trkpt>
<trkpt lat="46.0947020" lon="10.4369280">
	<ele>1376.20</ele>
	<time>2024-07-25T12:16:32.000Z</time>
</trkpt>
<trkpt lat="46.0946950" lon="10.4369290">
	<ele>1376.20</ele>
	<time>2024-07-25T12:16:33.000Z</time>
</trkpt>
<trkpt lat="46.0946920" lon="10.4369290">
	<ele>1376.20</ele>
	<time>2024-07-25T12:16:34.000Z</time>
</trkpt>
<trkpt lat="46.0946920" lon="10.4369290">
	<ele>1376.20</ele>
	<time>2024-07-25T12:16:35.000Z</time>
</trkpt>
<trkpt lat="46.0946940" lon="10.4369300">
	<ele>1376.20</ele>
	<time>2024-07-25T12:16:36.000Z</time>
</trkpt>
<trkpt lat="46.0946940" lon="10.4369300">
	<ele>1376.20</ele>
	<time>2024-07-25T12:16:37.000Z</time>
</trkpt>
<trkpt lat="46.0946940" lon="10.4369300">
	<ele>1376.20</ele>
	<time>2024-07-25T12:16:38.000Z</time>
</trkpt>
<trkpt lat="46.0946940" lon="10.4369300">
	<ele>1376.20</ele>
	<time>2024-07-25T12:16:39.000Z</time>
</trkpt>
<trkpt lat="46.0946940" lon="10.4369300">
	<ele>1376.20</ele>
	<time>2024-07-25T12:16:40.000Z</time>
</trkpt>
<trkpt lat="46.0946940" lon="10.4369300">
	<ele>1376.20</ele>
	<time>2024-07-25T12:16:41.000Z</time>
</trkpt>
<trkpt lat="46.0946940" lon="10.4369300">
	<ele>1376.20</ele>
	<time>2024-07-25T12:16:42.000Z</time>
</trkpt>
<trkpt lat="46.0946940" lon="10.4369300">
	<ele>1376.20</ele>
	<time>2024-07-25T12:16:43.000Z</time>
</trkpt>
<trkpt lat="46.0946910" lon="10.4369280">
	<ele>1376.20</ele>
	<time>2024-07-25T12:16:44.000Z</time>
</trkpt>
<trkpt lat="46.0946900" lon="10.4369280">
	<ele>1376.20</ele>
	<time>2024-07-25T12:16:45.000Z</time>
</trkpt>
<trkpt lat="46.0946820" lon="10.4369260">
	<ele>1376.20</ele>
	<time>2024-07-25T12:16:46.000Z</time>
</trkpt>
<trkpt lat="46.0946780" lon="10.4369280">
	<ele>1376.20</ele>
	<time>2024-07-25T12:16:47.000Z</time>
</trkpt>
<trkpt lat="46.0946750" lon="10.4369290">
	<ele>1376.20</ele>
	<time>2024-07-25T12:16:48.000Z</time>
</trkpt>
<trkpt lat="46.0946720" lon="10.4369310">
	<ele>1376.20</ele>
	<time>2024-07-25T12:16:49.000Z</time>
</trkpt>
<trkpt lat="46.0946690" lon="10.4369320">
	<ele>1376.20</ele>
	<time>2024-07-25T12:16:50.000Z</time>
</trkpt>
<trkpt lat="46.0946640" lon="10.4369310">
	<ele>1376.20</ele>
	<time>2024-07-25T12:16:51.000Z</time>
</trkpt>
<trkpt lat="46.0946590" lon="10.4369290">
	<ele>1376.20</ele>
	<time>2024-07-25T12:16:52.000Z</time>
</trkpt>
<trkpt lat="46.0946580" lon="10.4369210">
	<ele>1376.20</ele>
	<time>2024-07-25T12:16:53.000Z</time>
</trkpt>
<trkpt lat="46.0946520" lon="10.4369170">
	<ele>1376.20</ele>
	<time>2024-07-25T12:16:54.000Z</time>
</trkpt>
<trkpt lat="46.0946430" lon="10.4369080">
	<ele>1376.20</ele>
	<time>2024-07-25T12:16:55.000Z</time>
</trkpt>
<trkpt lat="46.0946380" lon="10.4369020">
	<ele>1376.20</ele>
	<time>2024-07-25T12:16:56.000Z</time>
</trkpt>
<trkpt lat="46.0946340" lon="10.4368940">
	<ele>1376.20</ele>
	<time>2024-07-25T12:16:57.000Z</time>
</trkpt>
<trkpt lat="46.0946300" lon="10.4368830">
	<ele>1376.20</ele>
	<time>2024-07-25T12:16:58.000Z</time>
</trkpt>
<trkpt lat="46.0946270" lon="10.4368730">
	<ele>1376.20</ele>
	<time>2024-07-25T12:16:59.000Z</time>
</trkpt>
<trkpt lat="46.0946250" lon="10.4368640">
	<ele>1376.20</ele>
	<time>2024-07-25T12:17:00.000Z</time>
</trkpt>
<trkpt lat="46.0946200" lon="10.4368520">
	<ele>1376.20</ele>
	<time>2024-07-25T12:17:01.000Z</time>
</trkpt>
<trkpt lat="46.0946180" lon="10.4368620">
	<ele>1376.20</ele>
	<time>2024-07-25T12:17:02.000Z</time>
</trkpt>
<trkpt lat="46.0946170" lon="10.4368660">
	<ele>1376.20</ele>
	<time>2024-07-25T12:17:03.000Z</time>
</trkpt>
<trkpt lat="46.0946210" lon="10.4368760">
	<ele>1376.20</ele>
	<time>2024-07-25T12:17:04.000Z</time>
</trkpt>
<trkpt lat="46.0946280" lon="10.4368900">
	<ele>1376.20</ele>
	<time>2024-07-25T12:17:05.000Z</time>
</trkpt>
<trkpt lat="46.0946300" lon="10.4368850">
	<ele>1376.20</ele>
	<time>2024-07-25T12:17:06.000Z</time>
</trkpt>
<trkpt lat="46.0946340" lon="10.4368890">
	<ele>1376.20</ele>
	<time>2024-07-25T12:17:07.000Z</time>
</trkpt>
<trkpt lat="46.0946350" lon="10.4368880">
	<ele>1376.20</ele>
	<time>2024-07-25T12:17:08.000Z</time>
</trkpt>
<trkpt lat="46.0946350" lon="10.4368740">
	<ele>1376.20</ele>
	<time>2024-07-25T12:17:09.000Z</time>
</trkpt>
<trkpt lat="46.0946370" lon="10.4368710">
	<ele>1376.20</ele>
	<time>2024-07-25T12:17:10.000Z</time>
</trkpt>
<trkpt lat="46.0946370" lon="10.4368670">
	<ele>1376.20</ele>
	<time>2024-07-25T12:17:11.000Z</time>
</trkpt>
<trkpt lat="46.0946370" lon="10.4368600">
	<ele>1376.20</ele>
	<time>2024-07-25T12:17:12.000Z</time>
</trkpt>
<trkpt lat="46.0946360" lon="10.4368640">
	<ele>1376.20</ele>
	<time>2024-07-25T12:17:13.000Z</time>
</trkpt>
<trkpt lat="46.0946500" lon="10.4368770">
	<ele>1376.20</ele>
	<time>2024-07-25T12:17:14.000Z</time>
</trkpt>
<trkpt lat="46.0946520" lon="10.4368810">
	<ele>1376.20</ele>
	<time>2024-07-25T12:17:15.000Z</time>
</trkpt>
<trkpt lat="46.0946550" lon="10.4368670">
	<ele>1376.20</ele>
	<time>2024-07-25T12:17:16.000Z</time>
</trkpt>
<trkpt lat="46.0946580" lon="10.4368710">
	<ele>1376.20</ele>
	<time>2024-07-25T12:17:17.000Z</time>
</trkpt>
<trkpt lat="46.0946580" lon="10.4368720">
	<ele>1376.20</ele>
	<time>2024-07-25T12:17:18.000Z</time>
</trkpt>
<trkpt lat="46.0946460" lon="10.4368570">
	<ele>1376.20</ele>
	<time>2024-07-25T12:17:19.000Z</time>
</trkpt>
<trkpt lat="46.0946270" lon="10.4368380">
	<ele>1376.20</ele>
	<time>2024-07-25T12:17:20.000Z</time>
</trkpt>
<trkpt lat="46.0946270" lon="10.4368380">
	<ele>1376.20</ele>
	<time>2024-07-25T12:17:21.000Z</time>
</trkpt>
<trkpt lat="46.0946250" lon="10.4368390">
	<ele>1376.20</ele>
	<time>2024-07-25T12:17:22.000Z</time>
</trkpt>
<trkpt lat="46.0946220" lon="10.4368410">
	<ele>1376.20</ele>
	<time>2024-07-25T12:17:23.000Z</time>
</trkpt>
<trkpt lat="46.0946220" lon="10.4368400">
	<ele>1376.20</ele>
	<time>2024-07-25T12:17:24.000Z</time>
</trkpt>
<trkpt lat="46.0946220" lon="10.4368420">
	<ele>1376.20</ele>
	<time>2024-07-25T12:17:25.000Z</time>
</trkpt>
<trkpt lat="46.0946240" lon="10.4368370">
	<ele>1376.20</ele>
	<time>2024-07-25T12:17:26.000Z</time>
</trkpt>
<trkpt lat="46.0946300" lon="10.4368360">
	<ele>1376.20</ele>
	<time>2024-07-25T12:17:27.000Z</time>
</trkpt>
<trkpt lat="46.0946310" lon="10.4368470">
	<ele>1376.20</ele>
	<time>2024-07-25T12:17:28.000Z</time>
</trkpt>
<trkpt lat="46.0946340" lon="10.4368510">
	<ele>1376.20</ele>
	<time>2024-07-25T12:17:29.000Z</time>
</trkpt>
<trkpt lat="46.0946360" lon="10.4368500">
	<ele>1376.20</ele>
	<time>2024-07-25T12:17:30.000Z</time>
</trkpt>
<trkpt lat="46.0946380" lon="10.4368410">
	<ele>1376.20</ele>
	<time>2024-07-25T12:17:31.000Z</time>
</trkpt>
<trkpt lat="46.0946390" lon="10.4368390">
	<ele>1376.20</ele>
	<time>2024-07-25T12:17:32.000Z</time>
</trkpt>
<trkpt lat="46.0946370" lon="10.4368370">
	<ele>1376.20</ele>
	<time>2024-07-25T12:17:33.000Z</time>
</trkpt>
<trkpt lat="46.0946370" lon="10.4368370">
	<ele>1376.20</ele>
	<time>2024-07-25T12:17:34.000Z</time>
</trkpt>
<trkpt lat="46.0946370" lon="10.4368370">
	<ele>1376.20</ele>
	<time>2024-07-25T12:17:35.000Z</time>
</trkpt>
<trkpt lat="46.0946370" lon="10.4368370">
	<ele>1376.20</ele>
	<time>2024-07-25T12:17:36.000Z</time>
</trkpt>
<trkpt lat="46.0946370" lon="10.4368370">
	<ele>1376.20</ele>
	<time>2024-07-25T12:17:37.000Z</time>
</trkpt>
<trkpt lat="46.0946370" lon="10.4368370">
	<ele>1376.20</ele>
	<time>2024-07-25T12:17:38.000Z</time>
</trkpt>
<trkpt lat="46.0946370" lon="10.4368370">
	<ele>1376.20</ele>
	<time>2024-07-25T12:17:39.000Z</time>
</trkpt>
<trkpt lat="46.0946370" lon="10.4368370">
	<ele>1376.20</ele>
	<time>2024-07-25T12:17:40.000Z</time>
</trkpt>
<trkpt lat="46.0946390" lon="10.4368370">
	<ele>1376.20</ele>
	<time>2024-07-25T12:17:41.000Z</time>
</trkpt>
<trkpt lat="46.0946420" lon="10.4368370">
	<ele>1376.20</ele>
	<time>2024-07-25T12:17:42.000Z</time>
</trkpt>
<trkpt lat="46.0946400" lon="10.4368360">
	<ele>1376.20</ele>
	<time>2024-07-25T12:17:43.000Z</time>
</trkpt>
<trkpt lat="46.0946440" lon="10.4368390">
	<ele>1376.20</ele>
	<time>2024-07-25T12:17:44.000Z</time>
</trkpt>
<trkpt lat="46.0946460" lon="10.4368410">
	<ele>1376.20</ele>
	<time>2024-07-25T12:17:45.000Z</time>
</trkpt>
<trkpt lat="46.0946570" lon="10.4368360">
	<ele>1376.20</ele>
	<time>2024-07-25T12:17:46.000Z</time>
</trkpt>
<trkpt lat="46.0946810" lon="10.4368460">
	<ele>1376.20</ele>
	<time>2024-07-25T12:17:47.000Z</time>
</trkpt>
<trkpt lat="46.0946980" lon="10.4368520">
	<ele>1376.20</ele>
	<time>2024-07-25T12:17:48.000Z</time>
</trkpt>
<trkpt lat="46.0947060" lon="10.4368540">
	<ele>1376.20</ele>
	<time>2024-07-25T12:17:49.000Z</time>
</trkpt>
<trkpt lat="46.0947170" lon="10.4368490">
	<ele>1376.20</ele>
	<time>2024-07-25T12:17:50.000Z</time>
</trkpt>
<trkpt lat="46.0947120" lon="10.4368330">
	<ele>1376.20</ele>
	<time>2024-07-25T12:17:51.000Z</time>
</trkpt>
<trkpt lat="46.0947090" lon="10.4368300">
	<ele>1376.20</ele>
	<time>2024-07-25T12:17:52.000Z</time>
</trkpt>
<trkpt lat="46.0947050" lon="10.4368270">
	<ele>1376.20</ele>
	<time>2024-07-25T12:17:53.000Z</time>
</trkpt>
<trkpt lat="46.0947050" lon="10.4368270">
	<ele>1376.20</ele>
	<time>2024-07-25T12:17:54.000Z</time>
</trkpt>
<trkpt lat="46.0947030" lon="10.4368260">
	<ele>1376.20</ele>
	<time>2024-07-25T12:17:55.000Z</time>
</trkpt>
<trkpt lat="46.0946980" lon="10.4368230">
	<ele>1376.20</ele>
	<time>2024-07-25T12:17:56.000Z</time>
</trkpt>
<trkpt lat="46.0946950" lon="10.4368200">
	<ele>1376.20</ele>
	<time>2024-07-25T12:17:57.000Z</time>
</trkpt>
<trkpt lat="46.0946940" lon="10.4368180">
	<ele>1376.20</ele>
	<time>2024-07-25T12:17:58.000Z</time>
</trkpt>
<trkpt lat="46.0946910" lon="10.4368160">
	<ele>1376.20</ele>
	<time>2024-07-25T12:17:59.000Z</time>
</trkpt>
<trkpt lat="46.0946830" lon="10.4368170">
	<ele>1376.20</ele>
	<time>2024-07-25T12:18:00.000Z</time>
</trkpt>
<trkpt lat="46.0946790" lon="10.4368160">
	<ele>1376.20</ele>
	<time>2024-07-25T12:18:01.000Z</time>
</trkpt>
<trkpt lat="46.0946790" lon="10.4368140">
	<ele>1376.20</ele>
	<time>2024-07-25T12:18:02.000Z</time>
</trkpt>
<trkpt lat="46.0946770" lon="10.4368130">
	<ele>1376.20</ele>
	<time>2024-07-25T12:18:03.000Z</time>
</trkpt>
<trkpt lat="46.0946780" lon="10.4368080">
	<ele>1376.20</ele>
	<time>2024-07-25T12:18:04.000Z</time>
</trkpt>
<trkpt lat="46.0946790" lon="10.4368060">
	<ele>1376.20</ele>
	<time>2024-07-25T12:18:05.000Z</time>
</trkpt>
<trkpt lat="46.0946790" lon="10.4368100">
	<ele>1376.20</ele>
	<time>2024-07-25T12:18:06.000Z</time>
</trkpt>
<trkpt lat="46.0946780" lon="10.4368220">
	<ele>1376.20</ele>
	<time>2024-07-25T12:18:07.000Z</time>
</trkpt>
<trkpt lat="46.0946810" lon="10.4368280">
	<ele>1376.20</ele>
	<time>2024-07-25T12:18:08.000Z</time>
</trkpt>
<trkpt lat="46.0946840" lon="10.4368330">
	<ele>1376.20</ele>
	<time>2024-07-25T12:18:09.000Z</time>
</trkpt>
<trkpt lat="46.0946850" lon="10.4368310">
	<ele>1376.20</ele>
	<time>2024-07-25T12:18:10.000Z</time>
</trkpt>
<trkpt lat="46.0946840" lon="10.4368250">
	<ele>1376.20</ele>
	<time>2024-07-25T12:18:11.000Z</time>
</trkpt>
<trkpt lat="46.0946820" lon="10.4368130">
	<ele>1376.20</ele>
	<time>2024-07-25T12:18:12.000Z</time>
</trkpt>
<trkpt lat="46.0946780" lon="10.4368070">
	<ele>1376.20</ele>
	<time>2024-07-25T12:18:13.000Z</time>
</trkpt>
<trkpt lat="46.0946820" lon="10.4368110">
	<ele>1376.20</ele>
	<time>2024-07-25T12:18:14.000Z</time>
</trkpt>
<trkpt lat="46.0946830" lon="10.4368120">
	<ele>1376.20</ele>
	<time>2024-07-25T12:18:15.000Z</time>
</trkpt>
<trkpt lat="46.0946810" lon="10.4368130">
	<ele>1376.20</ele>
	<time>2024-07-25T12:18:16.000Z</time>
</trkpt>
<trkpt lat="46.0946800" lon="10.4368120">
	<ele>1376.20</ele>
	<time>2024-07-25T12:18:17.000Z</time>
</trkpt>
<trkpt lat="46.0946800" lon="10.4368100">
	<ele>1376.20</ele>
	<time>2024-07-25T12:18:18.000Z</time>
</trkpt>
<trkpt lat="46.0946830" lon="10.4368110">
	<ele>1376.20</ele>
	<time>2024-07-25T12:18:19.000Z</time>
</trkpt>
<trkpt lat="46.0946890" lon="10.4368090">
	<ele>1376.20</ele>
	<time>2024-07-25T12:18:21.000Z</time>
</trkpt>
<trkpt lat="46.0947240" lon="10.4368140">
	<ele>1376.20</ele>
	<time>2024-07-25T12:18:30.000Z</time>
</trkpt>
<trkpt lat="46.0946510" lon="10.4368070">
	<ele>1376.20</ele>
	<time>2024-07-25T12:18:32.000Z</time>
</trkpt>
<trkpt lat="46.0946010" lon="10.4367790">
	<ele>1376.20</ele>
	<time>2024-07-25T12:18:34.000Z</time>
</trkpt>
<trkpt lat="46.0945690" lon="10.4367690">
	<ele>1376.20</ele>
	<time>2024-07-25T12:18:36.000Z</time>
</trkpt>
<trkpt lat="46.0945570" lon="10.4367590">
	<ele>1376.20</ele>
	<time>2024-07-25T12:18:37.000Z</time>
</trkpt>
<trkpt lat="46.0945420" lon="10.4367500">
	<ele>1376.20</ele>
	<time>2024-07-25T12:18:38.000Z</time>
</trkpt>
<trkpt lat="46.0945090" lon="10.4367480">
	<ele>1376.20</ele>
	<time>2024-07-25T12:18:40.000Z</time>
</trkpt>
<trkpt lat="46.0945090" lon="10.4367480">
	<ele>1376.20</ele>
	<time>2024-07-25T12:18:41.000Z</time>
</trkpt>
<trkpt lat="46.0945010" lon="10.4367500">
	<ele>1376.20</ele>
	<time>2024-07-25T12:18:43.000Z</time>
</trkpt>
<trkpt lat="46.0944980" lon="10.4367480">
	<ele>1376.00</ele>
	<time>2024-07-25T12:18:44.000Z</time>
</trkpt>
<trkpt lat="46.0944970" lon="10.4367520">
	<ele>1376.00</ele>
	<time>2024-07-25T12:18:45.000Z</time>
</trkpt>
<trkpt lat="46.0944930" lon="10.4367670">
	<ele>1375.80</ele>
	<time>2024-07-25T12:18:46.000Z</time>
</trkpt>
<trkpt lat="46.0944670" lon="10.4367720">
	<ele>1375.80</ele>
	<time>2024-07-25T12:18:47.000Z</time>
</trkpt>
<trkpt lat="46.0944520" lon="10.4367830">
	<ele>1375.80</ele>
	<time>2024-07-25T12:18:49.000Z</time>
</trkpt>
<trkpt lat="46.0944450" lon="10.4367840">
	<ele>1375.80</ele>
	<time>2024-07-25T12:18:50.000Z</time>
</trkpt>
<trkpt lat="46.0944490" lon="10.4367890">
	<ele>1375.80</ele>
	<time>2024-07-25T12:18:53.000Z</time>
</trkpt>
<trkpt lat="46.0944740" lon="10.4368190">
	<ele>1375.80</ele>
	<time>2024-07-25T12:18:55.000Z</time>
</trkpt>
<trkpt lat="46.0945230" lon="10.4368830">
	<ele>1375.80</ele>
	<time>2024-07-25T12:18:59.000Z</time>
</trkpt>
<trkpt lat="46.0945260" lon="10.4368900">
	<ele>1375.80</ele>
	<time>2024-07-25T12:19:00.000Z</time>
</trkpt>
<trkpt lat="46.0945300" lon="10.4369050">
	<ele>1375.60</ele>
	<time>2024-07-25T12:19:02.000Z</time>
</trkpt>
<trkpt lat="46.0945450" lon="10.4369080">
	<ele>1375.60</ele>
	<time>2024-07-25T12:19:03.000Z</time>
</trkpt>
<trkpt lat="46.0945260" lon="10.4369040">
	<ele>1375.60</ele>
	<time>2024-07-25T12:19:04.000Z</time>
</trkpt>
<trkpt lat="46.0945300" lon="10.4369080">
	<ele>1375.60</ele>
	<time>2024-07-25T12:19:05.000Z</time>
</trkpt>
<trkpt lat="46.0945280" lon="10.4369100">
	<ele>1375.80</ele>
	<time>2024-07-25T12:19:06.000Z</time>
</trkpt>
<trkpt lat="46.0945240" lon="10.4369070">
	<ele>1375.80</ele>
	<time>2024-07-25T12:19:07.000Z</time>
</trkpt>
<trkpt lat="46.0945440" lon="10.4368950">
	<ele>1375.80</ele>
	<time>2024-07-25T12:19:08.000Z</time>
</trkpt>
<trkpt lat="46.0945450" lon="10.4368920">
	<ele>1375.80</ele>
	<time>2024-07-25T12:19:09.000Z</time>
</trkpt>
<trkpt lat="46.0945580" lon="10.4368640">
	<ele>1375.60</ele>
	<time>2024-07-25T12:19:15.000Z</time>
</trkpt>
<trkpt lat="46.0945590" lon="10.4368660">
	<ele>1375.60</ele>
	<time>2024-07-25T12:19:16.000Z</time>
</trkpt>
<trkpt lat="46.0945670" lon="10.4368680">
	<ele>1375.60</ele>
	<time>2024-07-25T12:19:17.000Z</time>
</trkpt>
<trkpt lat="46.0945630" lon="10.4368690">
	<ele>1375.60</ele>
	<time>2024-07-25T12:19:18.000Z</time>
</trkpt>
<trkpt lat="46.0945620" lon="10.4368710">
	<ele>1375.60</ele>
	<time>2024-07-25T12:19:19.000Z</time>
</trkpt>
<trkpt lat="46.0945650" lon="10.4368820">
	<ele>1375.80</ele>
	<time>2024-07-25T12:19:20.000Z</time>
</trkpt>
<trkpt lat="46.0945700" lon="10.4368990">
	<ele>1375.80</ele>
	<time>2024-07-25T12:19:21.000Z</time>
</trkpt>
<trkpt lat="46.0945760" lon="10.4369210">
	<ele>1375.80</ele>
	<time>2024-07-25T12:19:22.000Z</time>
</trkpt>
<trkpt lat="46.0945820" lon="10.4369370">
	<ele>1375.80</ele>
	<time>2024-07-25T12:19:23.000Z</time>
</trkpt>
<trkpt lat="46.0945680" lon="10.4369320">
	<ele>1376.00</ele>
	<time>2024-07-25T12:19:24.000Z</time>
</trkpt>
<trkpt lat="46.0945560" lon="10.4369200">
	<ele>1376.00</ele>
	<time>2024-07-25T12:19:25.000Z</time>
</trkpt>
<trkpt lat="46.0945600" lon="10.4369070">
	<ele>1376.00</ele>
	<time>2024-07-25T12:19:26.000Z</time>
</trkpt>
<trkpt lat="46.0945610" lon="10.4368950">
	<ele>1375.80</ele>
	<time>2024-07-25T12:19:27.000Z</time>
</trkpt>
<trkpt lat="46.0945910" lon="10.4368470">
	<ele>1375.60</ele>
	<time>2024-07-25T12:19:37.000Z</time>
</trkpt>
<trkpt lat="46.0945940" lon="10.4368410">
	<ele>1375.60</ele>
	<time>2024-07-25T12:19:38.000Z</time>
</trkpt>
<trkpt lat="46.0945890" lon="10.4368390">
	<ele>1375.60</ele>
	<time>2024-07-25T12:19:39.000Z</time>
</trkpt>
<trkpt lat="46.0945900" lon="10.4368370">
	<ele>1375.80</ele>
	<time>2024-07-25T12:19:40.000Z</time>
</trkpt>
<trkpt lat="46.0945910" lon="10.4368340">
	<ele>1375.80</ele>
	<time>2024-07-25T12:19:41.000Z</time>
</trkpt>
<trkpt lat="46.0946100" lon="10.4368320">
	<ele>1375.60</ele>
	<time>2024-07-25T12:19:42.000Z</time>
</trkpt>
<trkpt lat="46.0946160" lon="10.4368280">
	<ele>1375.60</ele>
	<time>2024-07-25T12:19:43.000Z</time>
</trkpt>
<trkpt lat="46.0946100" lon="10.4368300">
	<ele>1375.60</ele>
	<time>2024-07-25T12:19:45.000Z</time>
</trkpt>
<trkpt lat="46.0946090" lon="10.4368480">
	<ele>1375.60</ele>
	<time>2024-07-25T12:19:46.000Z</time>
</trkpt>
<trkpt lat="46.0946280" lon="10.4368630">
	<ele>1375.60</ele>
	<time>2024-07-25T12:19:47.000Z</time>
</trkpt>
<trkpt lat="46.0946360" lon="10.4368670">
	<ele>1375.60</ele>
	<time>2024-07-25T12:19:48.000Z</time>
</trkpt>
<trkpt lat="46.0946400" lon="10.4368690">
	<ele>1375.60</ele>
	<time>2024-07-25T12:19:49.000Z</time>
</trkpt>
<trkpt lat="46.0946440" lon="10.4368700">
	<ele>1375.60</ele>
	<time>2024-07-25T12:19:50.000Z</time>
</trkpt>
<trkpt lat="46.0946540" lon="10.4368620">
	<ele>1375.60</ele>
	<time>2024-07-25T12:19:51.000Z</time>
</trkpt>
<trkpt lat="46.0946590" lon="10.4368620">
	<ele>1375.60</ele>
	<time>2024-07-25T12:19:52.000Z</time>
</trkpt>
<trkpt lat="46.0946640" lon="10.4368640">
	<ele>1375.60</ele>
	<time>2024-07-25T12:19:54.000Z</time>
</trkpt>
<trkpt lat="46.0946650" lon="10.4368640">
	<ele>1375.60</ele>
	<time>2024-07-25T12:19:55.000Z</time>
</trkpt>
<trkpt lat="46.0946660" lon="10.4368650">
	<ele>1375.60</ele>
	<time>2024-07-25T12:19:57.000Z</time>
</trkpt>
<trkpt lat="46.0946670" lon="10.4368730">
	<ele>1375.60</ele>
	<time>2024-07-25T12:19:58.000Z</time>
</trkpt>
<trkpt lat="46.0946690" lon="10.4368810">
	<ele>1375.60</ele>
	<time>2024-07-25T12:19:59.000Z</time>
</trkpt>
<trkpt lat="46.0946700" lon="10.4368860">
	<ele>1375.60</ele>
	<time>2024-07-25T12:20:00.000Z</time>
</trkpt>
<trkpt lat="46.0946640" lon="10.4368970">
	<ele>1375.60</ele>
	<time>2024-07-25T12:20:01.000Z</time>
</trkpt>
<trkpt lat="46.0946630" lon="10.4369010">
	<ele>1375.60</ele>
	<time>2024-07-25T12:20:02.000Z</time>
</trkpt>
<trkpt lat="46.0946670" lon="10.4369080">
	<ele>1375.60</ele>
	<time>2024-07-25T12:20:03.000Z</time>
</trkpt>
<trkpt lat="46.0946830" lon="10.4369040">
	<ele>1375.60</ele>
	<time>2024-07-25T12:20:04.000Z</time>
</trkpt>
<trkpt lat="46.0946980" lon="10.4368970">
	<ele>1375.60</ele>
	<time>2024-07-25T12:20:05.000Z</time>
</trkpt>
<trkpt lat="46.0947040" lon="10.4368960">
	<ele>1375.60</ele>
	<time>2024-07-25T12:20:06.000Z</time>
</trkpt>
<trkpt lat="46.0947090" lon="10.4368960">
	<ele>1375.60</ele>
	<time>2024-07-25T12:20:07.000Z</time>
</trkpt>
<trkpt lat="46.0947170" lon="10.4368960">
	<ele>1375.60</ele>
	<time>2024-07-25T12:20:08.000Z</time>
</trkpt>
<trkpt lat="46.0947250" lon="10.4368950">
	<ele>1375.60</ele>
	<time>2024-07-25T12:20:09.000Z</time>
</trkpt>
<trkpt lat="46.0947400" lon="10.4368910">
	<ele>1375.60</ele>
	<time>2024-07-25T12:20:11.000Z</time>
</trkpt>
<trkpt lat="46.0947440" lon="10.4368850">
	<ele>1375.60</ele>
	<time>2024-07-25T12:20:12.000Z</time>
</trkpt>
<trkpt lat="46.0947500" lon="10.4368780">
	<ele>1375.60</ele>
	<time>2024-07-25T12:20:13.000Z</time>
</trkpt>
<trkpt lat="46.0947330" lon="10.4368720">
	<ele>1375.60</ele>
	<time>2024-07-25T12:20:14.000Z</time>
</trkpt>
<trkpt lat="46.0947180" lon="10.4368750">
	<ele>1375.60</ele>
	<time>2024-07-25T12:20:15.000Z</time>
</trkpt>
<trkpt lat="46.0947020" lon="10.4368800">
	<ele>1375.60</ele>
	<time>2024-07-25T12:20:16.000Z</time>
</trkpt>
<trkpt lat="46.0946900" lon="10.4368750">
	<ele>1375.60</ele>
	<time>2024-07-25T12:20:18.000Z</time>
</trkpt>
<trkpt lat="46.0947000" lon="10.4368690">
	<ele>1375.60</ele>
	<time>2024-07-25T12:20:19.000Z</time>
</trkpt>
<trkpt lat="46.0947100" lon="10.4368610">
	<ele>1375.60</ele>
	<time>2024-07-25T12:20:20.000Z</time>
</trkpt>
<trkpt lat="46.0947380" lon="10.4368550">
	<ele>1375.60</ele>
	<time>2024-07-25T12:20:22.000Z</time>
</trkpt>
<trkpt lat="46.0947400" lon="10.4368420">
	<ele>1375.60</ele>
	<time>2024-07-25T12:20:23.000Z</time>
</trkpt>
<trkpt lat="46.0947330" lon="10.4368360">
	<ele>1375.60</ele>
	<time>2024-07-25T12:20:24.000Z</time>
</trkpt>
<trkpt lat="46.0947470" lon="10.4368230">
	<ele>1375.60</ele>
	<time>2024-07-25T12:20:25.000Z</time>
</trkpt>
<trkpt lat="46.0947660" lon="10.4368070">
	<ele>1375.60</ele>
	<time>2024-07-25T12:20:27.000Z</time>
</trkpt>
<trkpt lat="46.0947790" lon="10.4367930">
	<ele>1375.60</ele>
	<time>2024-07-25T12:20:28.000Z</time>
</trkpt>
<trkpt lat="46.0947690" lon="10.4367690">
	<ele>1375.60</ele>
	<time>2024-07-25T12:20:29.000Z</time>
</trkpt>
<trkpt lat="46.0947670" lon="10.4367670">
	<ele>1375.60</ele>
	<time>2024-07-25T12:20:30.000Z</time>
</trkpt>
<trkpt lat="46.0947640" lon="10.4367640">
	<ele>1375.60</ele>
	<time>2024-07-25T12:20:31.000Z</time>
</trkpt>
<trkpt lat="46.0947590" lon="10.4367660">
	<ele>1375.60</ele>
	<time>2024-07-25T12:20:32.000Z</time>
</trkpt>
<trkpt lat="46.0946600" lon="10.4368910">
	<ele>1376.00</ele>
	<time>2024-07-25T12:21:45.000Z</time>
</trkpt>
<trkpt lat="46.0946020" lon="10.4368680">
	<ele>1376.00</ele>
	<time>2024-07-25T12:21:46.000Z</time>
</trkpt>
<trkpt lat="46.0947740" lon="10.4368420">
	<ele>1376.00</ele>
	<time>2024-07-25T12:21:47.000Z</time>
</trkpt>
<trkpt lat="46.0947220" lon="10.4367650">
	<ele>1376.00</ele>
	<time>2024-07-25T12:21:48.000Z</time>
</trkpt>
<trkpt lat="46.0946810" lon="10.4367640">
	<ele>1376.00</ele>
	<time>2024-07-25T12:21:49.000Z</time>
</trkpt>
<trkpt lat="46.0946630" lon="10.4367590">
	<ele>1376.00</ele>
	<time>2024-07-25T12:21:50.000Z</time>
</trkpt>
<trkpt lat="46.0946430" lon="10.4367570">
	<ele>1376.20</ele>
	<time>2024-07-25T12:21:51.000Z</time>
</trkpt>
<trkpt lat="46.0946330" lon="10.4367590">
	<ele>1376.20</ele>
	<time>2024-07-25T12:21:52.000Z</time>
</trkpt>
<trkpt lat="46.0946230" lon="10.4367610">
	<ele>1376.20</ele>
	<time>2024-07-25T12:21:53.000Z</time>
</trkpt>
<trkpt lat="46.0945570" lon="10.4367110">
	<ele>1376.40</ele>
	<time>2024-07-25T12:21:59.000Z</time>
</trkpt>
<trkpt lat="46.0945020" lon="10.4366550">
	<ele>1376.60</ele>
	<time>2024-07-25T12:22:00.000Z</time>
</trkpt>
<trkpt lat="46.0944860" lon="10.4366670">
	<ele>1376.60</ele>
	<time>2024-07-25T12:22:01.000Z</time>
</trkpt>
<trkpt lat="46.0945150" lon="10.4366960">
	<ele>1376.60</ele>
	<time>2024-07-25T12:22:02.000Z</time>
</trkpt>
<trkpt lat="46.0944960" lon="10.4367350">
	<ele>1376.60</ele>
	<time>2024-07-25T12:22:03.000Z</time>
</trkpt>
<trkpt lat="46.0945070" lon="10.4367510">
	<ele>1376.60</ele>
	<time>2024-07-25T12:22:04.000Z</time>
</trkpt>
<trkpt lat="46.0945200" lon="10.4367760">
	<ele>1376.40</ele>
	<time>2024-07-25T12:22:05.000Z</time>
</trkpt>
<trkpt lat="46.0945360" lon="10.4368060">
	<ele>1376.40</ele>
	<time>2024-07-25T12:22:06.000Z</time>
</trkpt>
<trkpt lat="46.0945510" lon="10.4368340">
	<ele>1376.40</ele>
	<time>2024-07-25T12:22:07.000Z</time>
</trkpt>
<trkpt lat="46.0945830" lon="10.4368440">
	<ele>1376.20</ele>
	<time>2024-07-25T12:22:08.000Z</time>
</trkpt>
<trkpt lat="46.0946150" lon="10.4368190">
	<ele>1376.20</ele>
	<time>2024-07-25T12:22:09.000Z</time>
</trkpt>
<trkpt lat="46.0946080" lon="10.4367920">
	<ele>1376.20</ele>
	<time>2024-07-25T12:22:10.000Z</time>
</trkpt>
<trkpt lat="46.0945980" lon="10.4367900">
	<ele>1376.00</ele>
	<time>2024-07-25T12:22:11.000Z</time>
</trkpt>
<trkpt lat="46.0945780" lon="10.4367890">
	<ele>1376.00</ele>
	<time>2024-07-25T12:22:12.000Z</time>
</trkpt>
<trkpt lat="46.0945700" lon="10.4367830">
	<ele>1376.00</ele>
	<time>2024-07-25T12:22:13.000Z</time>
</trkpt>
<trkpt lat="46.0945690" lon="10.4367730">
	<ele>1375.80</ele>
	<time>2024-07-25T12:22:14.000Z</time>
</trkpt>
<trkpt lat="46.0945830" lon="10.4367820">
	<ele>1375.60</ele>
	<time>2024-07-25T12:22:15.000Z</time>
</trkpt>
<trkpt lat="46.0945960" lon="10.4367880">
	<ele>1375.60</ele>
	<time>2024-07-25T12:22:16.000Z</time>
</trkpt>
<trkpt lat="46.0946040" lon="10.4367830">
	<ele>1375.60</ele>
	<time>2024-07-25T12:22:17.000Z</time>
</trkpt>
<trkpt lat="46.0946030" lon="10.4367680">
	<ele>1375.40</ele>
	<time>2024-07-25T12:22:18.000Z</time>
</trkpt>
<trkpt lat="46.0946020" lon="10.4367570">
	<ele>1375.20</ele>
	<time>2024-07-25T12:22:19.000Z</time>
</trkpt>
<trkpt lat="46.0945960" lon="10.4367470">
	<ele>1374.80</ele>
	<time>2024-07-25T12:22:20.000Z</time>
</trkpt>
<trkpt lat="46.0945840" lon="10.4367320">
	<ele>1374.60</ele>
	<time>2024-07-25T12:22:21.000Z</time>
</trkpt>
<trkpt lat="46.0945760" lon="10.4367170">
	<ele>1374.60</ele>
	<time>2024-07-25T12:22:22.000Z</time>
</trkpt>
<trkpt lat="46.0945680" lon="10.4367000">
	<ele>1374.20</ele>
	<time>2024-07-25T12:22:23.000Z</time>
</trkpt>
<trkpt lat="46.0945620" lon="10.4366880">
	<ele>1374.00</ele>
	<time>2024-07-25T12:22:24.000Z</time>
</trkpt>
<trkpt lat="46.0945600" lon="10.4366770">
	<ele>1373.60</ele>
	<time>2024-07-25T12:22:25.000Z</time>
</trkpt>
<trkpt lat="46.0945670" lon="10.4366700">
	<ele>1373.40</ele>
	<time>2024-07-25T12:22:26.000Z</time>
</trkpt>
<trkpt lat="46.0945770" lon="10.4366630">
	<ele>1373.20</ele>
	<time>2024-07-25T12:22:27.000Z</time>
</trkpt>
<trkpt lat="46.0945880" lon="10.4366560">
	<ele>1373.00</ele>
	<time>2024-07-25T12:22:28.000Z</time>
</trkpt>
<trkpt lat="46.0946050" lon="10.4366470">
	<ele>1372.80</ele>
	<time>2024-07-25T12:22:29.000Z</time>
</trkpt>
<trkpt lat="46.0946150" lon="10.4366440">
	<ele>1372.60</ele>
	<time>2024-07-25T12:22:30.000Z</time>
</trkpt>
<trkpt lat="46.0946260" lon="10.4366400">
	<ele>1372.60</ele>
	<time>2024-07-25T12:22:31.000Z</time>
</trkpt>
<trkpt lat="46.0946400" lon="10.4366320">
	<ele>1372.60</ele>
	<time>2024-07-25T12:22:32.000Z</time>
</trkpt>
<trkpt lat="46.0946480" lon="10.4366210">
	<ele>1372.40</ele>
	<time>2024-07-25T12:22:33.000Z</time>
</trkpt>
<trkpt lat="46.0946560" lon="10.4366140">
	<ele>1372.20</ele>
	<time>2024-07-25T12:22:34.000Z</time>
</trkpt>
<trkpt lat="46.0946640" lon="10.4366030">
	<ele>1372.20</ele>
	<time>2024-07-25T12:22:35.000Z</time>
</trkpt>
<trkpt lat="46.0946720" lon="10.4365930">
	<ele>1372.00</ele>
	<time>2024-07-25T12:22:36.000Z</time>
</trkpt>
<trkpt lat="46.0946780" lon="10.4365830">
	<ele>1371.80</ele>
	<time>2024-07-25T12:22:37.000Z</time>
</trkpt>
<trkpt lat="46.0946850" lon="10.4365730">
	<ele>1371.60</ele>
	<time>2024-07-25T12:22:38.000Z</time>
</trkpt>
<trkpt lat="46.0946940" lon="10.4365610">
	<ele>1371.40</ele>
	<time>2024-07-25T12:22:39.000Z</time>
</trkpt>
<trkpt lat="46.0947010" lon="10.4365470">
	<ele>1371.40</ele>
	<time>2024-07-25T12:22:40.000Z</time>
</trkpt>
<trkpt lat="46.0947110" lon="10.4365280">
	<ele>1371.20</ele>
	<time>2024-07-25T12:22:41.000Z</time>
</trkpt>
<trkpt lat="46.0947190" lon="10.4365090">
	<ele>1371.00</ele>
	<time>2024-07-25T12:22:42.000Z</time>
</trkpt>
<trkpt lat="46.0947240" lon="10.4364890">
	<ele>1370.80</ele>
	<time>2024-07-25T12:22:43.000Z</time>
</trkpt>
<trkpt lat="46.0947270" lon="10.4364720">
	<ele>1370.60</ele>
	<time>2024-07-25T12:22:44.000Z</time>
</trkpt>
<trkpt lat="46.0947320" lon="10.4364570">
	<ele>1370.60</ele>
	<time>2024-07-25T12:22:45.000Z</time>
</trkpt>
<trkpt lat="46.0947350" lon="10.4364380">
	<ele>1370.40</ele>
	<time>2024-07-25T12:22:46.000Z</time>
</trkpt>
<trkpt lat="46.0947410" lon="10.4364190">
	<ele>1370.40</ele>
	<time>2024-07-25T12:22:47.000Z</time>
</trkpt>
<trkpt lat="46.0947460" lon="10.4364000">
	<ele>1370.40</ele>
	<time>2024-07-25T12:22:48.000Z</time>
</trkpt>
<trkpt lat="46.0947500" lon="10.4363790">
	<ele>1370.20</ele>
	<time>2024-07-25T12:22:49.000Z</time>
</trkpt>
<trkpt lat="46.0947540" lon="10.4363600">
	<ele>1370.00</ele>
	<time>2024-07-25T12:22:50.000Z</time>
</trkpt>
<trkpt lat="46.0947600" lon="10.4363450">
	<ele>1369.80</ele>
	<time>2024-07-25T12:22:51.000Z</time>
</trkpt>
<trkpt lat="46.0947680" lon="10.4363310">
	<ele>1369.80</ele>
	<time>2024-07-25T12:22:52.000Z</time>
</trkpt>
<trkpt lat="46.0947720" lon="10.4363170">
	<ele>1369.60</ele>
	<time>2024-07-25T12:22:53.000Z</time>
</trkpt>
<trkpt lat="46.0947770" lon="10.4363020">
	<ele>1369.60</ele>
	<time>2024-07-25T12:22:54.000Z</time>
</trkpt>
<trkpt lat="46.0947790" lon="10.4362870">
	<ele>1369.40</ele>
	<time>2024-07-25T12:22:55.000Z</time>
</trkpt>
<trkpt lat="46.0947820" lon="10.4362750">
	<ele>1369.40</ele>
	<time>2024-07-25T12:22:56.000Z</time>
</trkpt>
<trkpt lat="46.0947830" lon="10.4362620">
	<ele>1369.20</ele>
	<time>2024-07-25T12:22:57.000Z</time>
</trkpt>
<trkpt lat="46.0947850" lon="10.4362440">
	<ele>1369.00</ele>
	<time>2024-07-25T12:22:58.000Z</time>
</trkpt>
<trkpt lat="46.0947890" lon="10.4362310">
	<ele>1369.00</ele>
	<time>2024-07-25T12:22:59.000Z</time>
</trkpt>
<trkpt lat="46.0947910" lon="10.4362190">
	<ele>1369.00</ele>
	<time>2024-07-25T12:23:00.000Z</time>
</trkpt>
<trkpt lat="46.0947970" lon="10.4362030">
	<ele>1368.80</ele>
	<time>2024-07-25T12:23:01.000Z</time>
</trkpt>
<trkpt lat="46.0948040" lon="10.4361880">
	<ele>1368.80</ele>
	<time>2024-07-25T12:23:02.000Z</time>
</trkpt>
<trkpt lat="46.0948090" lon="10.4361710">
	<ele>1368.60</ele>
	<time>2024-07-25T12:23:03.000Z</time>
</trkpt>
<trkpt lat="46.0948100" lon="10.4361530">
	<ele>1368.60</ele>
	<time>2024-07-25T12:23:04.000Z</time>
</trkpt>
<trkpt lat="46.0948160" lon="10.4361360">
	<ele>1368.40</ele>
	<time>2024-07-25T12:23:05.000Z</time>
</trkpt>
<trkpt lat="46.0948260" lon="10.4361200">
	<ele>1368.40</ele>
	<time>2024-07-25T12:23:06.000Z</time>
</trkpt>
<trkpt lat="46.0948330" lon="10.4361060">
	<ele>1368.20</ele>
	<time>2024-07-25T12:23:07.000Z</time>
</trkpt>
<trkpt lat="46.0948390" lon="10.4360940">
	<ele>1368.00</ele>
	<time>2024-07-25T12:23:08.000Z</time>
</trkpt>
<trkpt lat="46.0948460" lon="10.4360840">
	<ele>1368.00</ele>
	<time>2024-07-25T12:23:09.000Z</time>
</trkpt>
<trkpt lat="46.0948510" lon="10.4360700">
	<ele>1367.60</ele>
	<time>2024-07-25T12:23:10.000Z</time>
</trkpt>
<trkpt lat="46.0948580" lon="10.4360500">
	<ele>1367.40</ele>
	<time>2024-07-25T12:23:11.000Z</time>
</trkpt>
<trkpt lat="46.0948660" lon="10.4360330">
	<ele>1367.20</ele>
	<time>2024-07-25T12:23:12.000Z</time>
</trkpt>
<trkpt lat="46.0948760" lon="10.4360170">
	<ele>1367.00</ele>
	<time>2024-07-25T12:23:13.000Z</time>
</trkpt>
<trkpt lat="46.0948860" lon="10.4360010">
	<ele>1367.00</ele>
	<time>2024-07-25T12:23:14.000Z</time>
</trkpt>
<trkpt lat="46.0948950" lon="10.4359850">
	<ele>1367.00</ele>
	<time>2024-07-25T12:23:15.000Z</time>
</trkpt>
<trkpt lat="46.0949060" lon="10.4359610">
	<ele>1367.00</ele>
	<time>2024-07-25T12:23:16.000Z</time>
</trkpt>
<trkpt lat="46.0949140" lon="10.4359450">
	<ele>1366.80</ele>
	<time>2024-07-25T12:23:17.000Z</time>
</trkpt>
<trkpt lat="46.0949260" lon="10.4359210">
	<ele>1366.80</ele>
	<time>2024-07-25T12:23:18.000Z</time>
</trkpt>
<trkpt lat="46.0949350" lon="10.4359070">
	<ele>1366.80</ele>
	<time>2024-07-25T12:23:19.000Z</time>
</trkpt>
<trkpt lat="46.0949410" lon="10.4358890">
	<ele>1366.60</ele>
	<time>2024-07-25T12:23:20.000Z</time>
</trkpt>
<trkpt lat="46.0949440" lon="10.4358690">
	<ele>1366.60</ele>
	<time>2024-07-25T12:23:21.000Z</time>
</trkpt>
<trkpt lat="46.0949460" lon="10.4358470">
	<ele>1366.40</ele>
	<time>2024-07-25T12:23:22.000Z</time>
</trkpt>
<trkpt lat="46.0949460" lon="10.4358250">
	<ele>1366.20</ele>
	<time>2024-07-25T12:23:23.000Z</time>
</trkpt>
<trkpt lat="46.0949470" lon="10.4358020">
	<ele>1366.00</ele>
	<time>2024-07-25T12:23:24.000Z</time>
</trkpt>
<trkpt lat="46.0949440" lon="10.4357800">
	<ele>1365.80</ele>
	<time>2024-07-25T12:23:25.000Z</time>
</trkpt>
<trkpt lat="46.0949410" lon="10.4357620">
	<ele>1365.80</ele>
	<time>2024-07-25T12:23:26.000Z</time>
</trkpt>
<trkpt lat="46.0949430" lon="10.4357380">
	<ele>1365.60</ele>
	<time>2024-07-25T12:23:27.000Z</time>
</trkpt>
<trkpt lat="46.0949410" lon="10.4357140">
	<ele>1365.40</ele>
	<time>2024-07-25T12:23:28.000Z</time>
</trkpt>
<trkpt lat="46.0949400" lon="10.4356890">
	<ele>1365.00</ele>
	<time>2024-07-25T12:23:29.000Z</time>
</trkpt>
<trkpt lat="46.0949370" lon="10.4356640">
	<ele>1365.00</ele>
	<time>2024-07-25T12:23:30.000Z</time>
</trkpt>
<trkpt lat="46.0949330" lon="10.4356420">
	<ele>1364.80</ele>
	<time>2024-07-25T12:23:31.000Z</time>
</trkpt>
<trkpt lat="46.0949300" lon="10.4356210">
	<ele>1364.80</ele>
	<time>2024-07-25T12:23:32.000Z</time>
</trkpt>
<trkpt lat="46.0949250" lon="10.4356000">
	<ele>1364.60</ele>
	<time>2024-07-25T12:23:33.000Z</time>
</trkpt>
<trkpt lat="46.0949230" lon="10.4355790">
	<ele>1364.40</ele>
	<time>2024-07-25T12:23:34.000Z</time>
</trkpt>
<trkpt lat="46.0949220" lon="10.4355610">
	<ele>1364.20</ele>
	<time>2024-07-25T12:23:35.000Z</time>
</trkpt>
<trkpt lat="46.0949210" lon="10.4355420">
	<ele>1364.00</ele>
	<time>2024-07-25T12:23:36.000Z</time>
</trkpt>
<trkpt lat="46.0949200" lon="10.4355190">
	<ele>1363.80</ele>
	<time>2024-07-25T12:23:37.000Z</time>
</trkpt>
<trkpt lat="46.0949220" lon="10.4354970">
	<ele>1363.60</ele>
	<time>2024-07-25T12:23:38.000Z</time>
</trkpt>
<trkpt lat="46.0949240" lon="10.4354770">
	<ele>1363.60</ele>
	<time>2024-07-25T12:23:39.000Z</time>
</trkpt>
<trkpt lat="46.0949270" lon="10.4354580">
	<ele>1363.60</ele>
	<time>2024-07-25T12:23:40.000Z</time>
</trkpt>
<trkpt lat="46.0949270" lon="10.4354420">
	<ele>1363.40</ele>
	<time>2024-07-25T12:23:41.000Z</time>
</trkpt>
<trkpt lat="46.0949290" lon="10.4354250">
	<ele>1363.20</ele>
	<time>2024-07-25T12:23:42.000Z</time>
</trkpt>
<trkpt lat="46.0949320" lon="10.4354080">
	<ele>1363.00</ele>
	<time>2024-07-25T12:23:43.000Z</time>
</trkpt>
<trkpt lat="46.0949330" lon="10.4353900">
	<ele>1363.00</ele>
	<time>2024-07-25T12:23:44.000Z</time>
</trkpt>
<trkpt lat="46.0949340" lon="10.4353730">
	<ele>1362.80</ele>
	<time>2024-07-25T12:23:45.000Z</time>
</trkpt>
<trkpt lat="46.0949350" lon="10.4353540">
	<ele>1362.80</ele>
	<time>2024-07-25T12:23:46.000Z</time>
</trkpt>
<trkpt lat="46.0949340" lon="10.4353350">
	<ele>1362.60</ele>
	<time>2024-07-25T12:23:47.000Z</time>
</trkpt>
<trkpt lat="46.0949330" lon="10.4353170">
	<ele>1362.40</ele>
	<time>2024-07-25T12:23:48.000Z</time>
</trkpt>
<trkpt lat="46.0949290" lon="10.4352990">
	<ele>1362.20</ele>
	<time>2024-07-25T12:23:49.000Z</time>
</trkpt>
<trkpt lat="46.0949240" lon="10.4352800">
	<ele>1362.20</ele>
	<time>2024-07-25T12:23:50.000Z</time>
</trkpt>
<trkpt lat="46.0949170" lon="10.4352650">
	<ele>1362.00</ele>
	<time>2024-07-25T12:23:51.000Z</time>
</trkpt>
<trkpt lat="46.0949100" lon="10.4352500">
	<ele>1361.80</ele>
	<time>2024-07-25T12:23:52.000Z</time>
</trkpt>
<trkpt lat="46.0949060" lon="10.4352320">
	<ele>1361.80</ele>
	<time>2024-07-25T12:23:53.000Z</time>
</trkpt>
<trkpt lat="46.0949020" lon="10.4352120">
	<ele>1361.40</ele>
	<time>2024-07-25T12:23:54.000Z</time>
</trkpt>
<trkpt lat="46.0948910" lon="10.4351980">
	<ele>1361.20</ele>
	<time>2024-07-25T12:23:55.000Z</time>
</trkpt>
<trkpt lat="46.0948840" lon="10.4351820">
	<ele>1361.20</ele>
	<time>2024-07-25T12:23:56.000Z</time>
</trkpt>
<trkpt lat="46.0948760" lon="10.4351660">
	<ele>1361.00</ele>
	<time>2024-07-25T12:23:57.000Z</time>
</trkpt>
<trkpt lat="46.0948660" lon="10.4351540">
	<ele>1360.80</ele>
	<time>2024-07-25T12:23:58.000Z</time>
</trkpt>
<trkpt lat="46.0948550" lon="10.4351430">
	<ele>1360.60</ele>
	<time>2024-07-25T12:23:59.000Z</time>
</trkpt>
<trkpt lat="46.0948450" lon="10.4351300">
	<ele>1360.60</ele>
	<time>2024-07-25T12:24:00.000Z</time>
</trkpt>
<trkpt lat="46.0948360" lon="10.4351160">
	<ele>1360.40</ele>
	<time>2024-07-25T12:24:01.000Z</time>
</trkpt>
<trkpt lat="46.0948270" lon="10.4351050">
	<ele>1360.40</ele>
	<time>2024-07-25T12:24:02.000Z</time>
</trkpt>
<trkpt lat="46.0948190" lon="10.4350920">
	<ele>1360.40</ele>
	<time>2024-07-25T12:24:03.000Z</time>
</trkpt>
<trkpt lat="46.0948100" lon="10.4350830">
	<ele>1360.20</ele>
	<time>2024-07-25T12:24:04.000Z</time>
</trkpt>
<trkpt lat="46.0948010" lon="10.4350750">
	<ele>1360.20</ele>
	<time>2024-07-25T12:24:05.000Z</time>
</trkpt>
<trkpt lat="46.0947910" lon="10.4350690">
	<ele>1360.00</ele>
	<time>2024-07-25T12:24:06.000Z</time>
</trkpt>
<trkpt lat="46.0947830" lon="10.4350580">
	<ele>1359.80</ele>
	<time>2024-07-25T12:24:07.000Z</time>
</trkpt>
<trkpt lat="46.0947740" lon="10.4350470">
	<ele>1359.60</ele>
	<time>2024-07-25T12:24:08.000Z</time>
</trkpt>
<trkpt lat="46.0947660" lon="10.4350380">
	<ele>1359.40</ele>
	<time>2024-07-25T12:24:09.000Z</time>
</trkpt>
<trkpt lat="46.0947590" lon="10.4350270">
	<ele>1359.00</ele>
	<time>2024-07-25T12:24:10.000Z</time>
</trkpt>
<trkpt lat="46.0947530" lon="10.4350160">
	<ele>1358.80</ele>
	<time>2024-07-25T12:24:11.000Z</time>
</trkpt>
<trkpt lat="46.0947480" lon="10.4350010">
	<ele>1358.80</ele>
	<time>2024-07-25T12:24:12.000Z</time>
</trkpt>
<trkpt lat="46.0947410" lon="10.4349870">
	<ele>1358.60</ele>
	<time>2024-07-25T12:24:13.000Z</time>
</trkpt>
<trkpt lat="46.0947360" lon="10.4349720">
	<ele>1358.60</ele>
	<time>2024-07-25T12:24:14.000Z</time>
</trkpt>
<trkpt lat="46.0947340" lon="10.4349550">
	<ele>1358.40</ele>
	<time>2024-07-25T12:24:15.000Z</time>
</trkpt>
<trkpt lat="46.0947290" lon="10.4349340">
	<ele>1358.00</ele>
	<time>2024-07-25T12:24:16.000Z</time>
</trkpt>
<trkpt lat="46.0947240" lon="10.4349140">
	<ele>1358.00</ele>
	<time>2024-07-25T12:24:17.000Z</time>
</trkpt>
<trkpt lat="46.0947200" lon="10.4348940">
	<ele>1357.80</ele>
	<time>2024-07-25T12:24:18.000Z</time>
</trkpt>
<trkpt lat="46.0947170" lon="10.4348760">
	<ele>1357.80</ele>
	<time>2024-07-25T12:24:19.000Z</time>
</trkpt>
<trkpt lat="46.0947150" lon="10.4348600">
	<ele>1357.60</ele>
	<time>2024-07-25T12:24:20.000Z</time>
</trkpt>
<trkpt lat="46.0947110" lon="10.4348460">
	<ele>1357.40</ele>
	<time>2024-07-25T12:24:21.000Z</time>
</trkpt>
<trkpt lat="46.0947060" lon="10.4348340">
	<ele>1357.20</ele>
	<time>2024-07-25T12:24:22.000Z</time>
</trkpt>
<trkpt lat="46.0947070" lon="10.4348180">
	<ele>1357.00</ele>
	<time>2024-07-25T12:24:23.000Z</time>
</trkpt>
<trkpt lat="46.0947030" lon="10.4348040">
	<ele>1356.80</ele>
	<time>2024-07-25T12:24:24.000Z</time>
</trkpt>
<trkpt lat="46.0946970" lon="10.4347890">
	<ele>1356.60</ele>
	<time>2024-07-25T12:24:25.000Z</time>
</trkpt>
<trkpt lat="46.0946900" lon="10.4347720">
	<ele>1356.40</ele>
	<time>2024-07-25T12:24:26.000Z</time>
</trkpt>
<trkpt lat="46.0946840" lon="10.4347550">
	<ele>1356.20</ele>
	<time>2024-07-25T12:24:27.000Z</time>
</trkpt>
<trkpt lat="46.0946800" lon="10.4347380">
	<ele>1356.00</ele>
	<time>2024-07-25T12:24:28.000Z</time>
</trkpt>
<trkpt lat="46.0946780" lon="10.4347190">
	<ele>1356.00</ele>
	<time>2024-07-25T12:24:29.000Z</time>
</trkpt>
<trkpt lat="46.0946770" lon="10.4347000">
	<ele>1356.00</ele>
	<time>2024-07-25T12:24:30.000Z</time>
</trkpt>
<trkpt lat="46.0946750" lon="10.4346830">
	<ele>1356.00</ele>
	<time>2024-07-25T12:24:31.000Z</time>
</trkpt>
<trkpt lat="46.0946730" lon="10.4346670">
	<ele>1355.80</ele>
	<time>2024-07-25T12:24:32.000Z</time>
</trkpt>
<trkpt lat="46.0946700" lon="10.4346470">
	<ele>1355.80</ele>
	<time>2024-07-25T12:24:33.000Z</time>
</trkpt>
<trkpt lat="46.0946670" lon="10.4346240">
	<ele>1355.40</ele>
	<time>2024-07-25T12:24:34.000Z</time>
</trkpt>
<trkpt lat="46.0946620" lon="10.4346010">
	<ele>1355.20</ele>
	<time>2024-07-25T12:24:35.000Z</time>
</trkpt>
<trkpt lat="46.0946590" lon="10.4345760">
	<ele>1355.20</ele>
	<time>2024-07-25T12:24:36.000Z</time>
</trkpt>
<trkpt lat="46.0946540" lon="10.4345530">
	<ele>1355.00</ele>
	<time>2024-07-25T12:24:37.000Z</time>
</trkpt>
<trkpt lat="46.0946500" lon="10.4345350">
	<ele>1355.00</ele>
	<time>2024-07-25T12:24:38.000Z</time>
</trkpt>
<trkpt lat="46.0946480" lon="10.4345140">
	<ele>1355.00</ele>
	<time>2024-07-25T12:24:39.000Z</time>
</trkpt>
<trkpt lat="46.0946450" lon="10.4345000">
	<ele>1354.80</ele>
	<time>2024-07-25T12:24:40.000Z</time>
</trkpt>
<trkpt lat="46.0946390" lon="10.4344870">
	<ele>1354.80</ele>
	<time>2024-07-25T12:24:41.000Z</time>
</trkpt>
<trkpt lat="46.0946330" lon="10.4344740">
	<ele>1354.80</ele>
	<time>2024-07-25T12:24:42.000Z</time>
</trkpt>
<trkpt lat="46.0946270" lon="10.4344590">
	<ele>1354.60</ele>
	<time>2024-07-25T12:24:43.000Z</time>
</trkpt>
<trkpt lat="46.0946190" lon="10.4344370">
	<ele>1354.40</ele>
	<time>2024-07-25T12:24:44.000Z</time>
</trkpt>
<trkpt lat="46.0946200" lon="10.4344100">
	<ele>1354.20</ele>
	<time>2024-07-25T12:24:45.000Z</time>
</trkpt>
<trkpt lat="46.0946190" lon="10.4343830">
	<ele>1354.20</ele>
	<time>2024-07-25T12:24:46.000Z</time>
</trkpt>
<trkpt lat="46.0946080" lon="10.4343600">
	<ele>1354.00</ele>
	<time>2024-07-25T12:24:47.000Z</time>
</trkpt>
<trkpt lat="46.0945950" lon="10.4343470">
	<ele>1354.00</ele>
	<time>2024-07-25T12:24:48.000Z</time>
</trkpt>
<trkpt lat="46.0945890" lon="10.4343360">
	<ele>1354.00</ele>
	<time>2024-07-25T12:24:49.000Z</time>
</trkpt>
<trkpt lat="46.0945830" lon="10.4343190">
	<ele>1353.80</ele>
	<time>2024-07-25T12:24:50.000Z</time>
</trkpt>
<trkpt lat="46.0945760" lon="10.4342950">
	<ele>1353.60</ele>
	<time>2024-07-25T12:24:51.000Z</time>
</trkpt>
<trkpt lat="46.0945720" lon="10.4342760">
	<ele>1353.40</ele>
	<time>2024-07-25T12:24:52.000Z</time>
</trkpt>
<trkpt lat="46.0945670" lon="10.4342580">
	<ele>1353.20</ele>
	<time>2024-07-25T12:24:53.000Z</time>
</trkpt>
<trkpt lat="46.0945630" lon="10.4342390">
	<ele>1353.00</ele>
	<time>2024-07-25T12:24:54.000Z</time>
</trkpt>
<trkpt lat="46.0945590" lon="10.4342190">
	<ele>1353.00</ele>
	<time>2024-07-25T12:24:55.000Z</time>
</trkpt>
<trkpt lat="46.0945570" lon="10.4341980">
	<ele>1352.80</ele>
	<time>2024-07-25T12:24:56.000Z</time>
</trkpt>
<trkpt lat="46.0945540" lon="10.4341790">
	<ele>1352.80</ele>
	<time>2024-07-25T12:24:57.000Z</time>
</trkpt>
<trkpt lat="46.0945510" lon="10.4341580">
	<ele>1352.80</ele>
	<time>2024-07-25T12:24:58.000Z</time>
</trkpt>
<trkpt lat="46.0945470" lon="10.4341370">
	<ele>1352.80</ele>
	<time>2024-07-25T12:24:59.000Z</time>
</trkpt>
<trkpt lat="46.0945420" lon="10.4341160">
	<ele>1352.60</ele>
	<time>2024-07-25T12:25:00.000Z</time>
</trkpt>
<trkpt lat="46.0945370" lon="10.4340950">
	<ele>1352.20</ele>
	<time>2024-07-25T12:25:01.000Z</time>
</trkpt>
<trkpt lat="46.0945340" lon="10.4340780">
	<ele>1352.20</ele>
	<time>2024-07-25T12:25:02.000Z</time>
</trkpt>
<trkpt lat="46.0945290" lon="10.4340640">
	<ele>1352.00</ele>
	<time>2024-07-25T12:25:03.000Z</time>
</trkpt>
<trkpt lat="46.0945270" lon="10.4340480">
	<ele>1352.00</ele>
	<time>2024-07-25T12:25:04.000Z</time>
</trkpt>
<trkpt lat="46.0945250" lon="10.4340310">
	<ele>1352.00</ele>
	<time>2024-07-25T12:25:05.000Z</time>
</trkpt>
<trkpt lat="46.0945240" lon="10.4340140">
	<ele>1351.80</ele>
	<time>2024-07-25T12:25:06.000Z</time>
</trkpt>
<trkpt lat="46.0945210" lon="10.4339950">
	<ele>1351.80</ele>
	<time>2024-07-25T12:25:07.000Z</time>
</trkpt>
<trkpt lat="46.0945190" lon="10.4339760">
	<ele>1351.60</ele>
	<time>2024-07-25T12:25:08.000Z</time>
</trkpt>
<trkpt lat="46.0945170" lon="10.4339610">
	<ele>1351.60</ele>
	<time>2024-07-25T12:25:09.000Z</time>
</trkpt>
<trkpt lat="46.0945160" lon="10.4339440">
	<ele>1351.60</ele>
	<time>2024-07-25T12:25:10.000Z</time>
</trkpt>
<trkpt lat="46.0945170" lon="10.4339270">
	<ele>1351.40</ele>
	<time>2024-07-25T12:25:11.000Z</time>
</trkpt>
<trkpt lat="46.0945170" lon="10.4339090">
	<ele>1351.40</ele>
	<time>2024-07-25T12:25:12.000Z</time>
</trkpt>
<trkpt lat="46.0945150" lon="10.4338910">
	<ele>1351.20</ele>
	<time>2024-07-25T12:25:13.000Z</time>
</trkpt>
<trkpt lat="46.0945140" lon="10.4338730">
	<ele>1351.20</ele>
	<time>2024-07-25T12:25:14.000Z</time>
</trkpt>
<trkpt lat="46.0945120" lon="10.4338560">
	<ele>1350.80</ele>
	<time>2024-07-25T12:25:15.000Z</time>
</trkpt>
<trkpt lat="46.0945100" lon="10.4338400">
	<ele>1350.60</ele>
	<time>2024-07-25T12:25:16.000Z</time>
</trkpt>
<trkpt lat="46.0945060" lon="10.4338240">
	<ele>1350.40</ele>
	<time>2024-07-25T12:25:17.000Z</time>
</trkpt>
<trkpt lat="46.0945040" lon="10.4338060">
	<ele>1350.40</ele>
	<time>2024-07-25T12:25:18.000Z</time>
</trkpt>
<trkpt lat="46.0945060" lon="10.4337870">
	<ele>1350.20</ele>
	<time>2024-07-25T12:25:19.000Z</time>
</trkpt>
<trkpt lat="46.0945090" lon="10.4337720">
	<ele>1350.20</ele>
	<time>2024-07-25T12:25:20.000Z</time>
</trkpt>
<trkpt lat="46.0945090" lon="10.4337610">
	<ele>1350.20</ele>
	<time>2024-07-25T12:25:21.000Z</time>
</trkpt>
<trkpt lat="46.0945070" lon="10.4337490">
	<ele>1350.00</ele>
	<time>2024-07-25T12:25:22.000Z</time>
</trkpt>
<trkpt lat="46.0945040" lon="10.4337340">
	<ele>1350.00</ele>
	<time>2024-07-25T12:25:23.000Z</time>
</trkpt>
<trkpt lat="46.0944980" lon="10.4337180">
	<ele>1350.00</ele>
	<time>2024-07-25T12:25:24.000Z</time>
</trkpt>
<trkpt lat="46.0944950" lon="10.4337020">
	<ele>1350.00</ele>
	<time>2024-07-25T12:25:25.000Z</time>
</trkpt>
<trkpt lat="46.0945000" lon="10.4336830">
	<ele>1349.60</ele>
	<time>2024-07-25T12:25:26.000Z</time>
</trkpt>
<trkpt lat="46.0945020" lon="10.4336690">
	<ele>1349.20</ele>
	<time>2024-07-25T12:25:27.000Z</time>
</trkpt>
<trkpt lat="46.0945010" lon="10.4336460">
	<ele>1349.00</ele>
	<time>2024-07-25T12:25:28.000Z</time>
</trkpt>
<trkpt lat="46.0945000" lon="10.4336290">
	<ele>1348.80</ele>
	<time>2024-07-25T12:25:29.000Z</time>
</trkpt>
<trkpt lat="46.0944990" lon="10.4336100">
	<ele>1348.60</ele>
	<time>2024-07-25T12:25:30.000Z</time>
</trkpt>
<trkpt lat="46.0944980" lon="10.4335910">
	<ele>1348.60</ele>
	<time>2024-07-25T12:25:31.000Z</time>
</trkpt>
<trkpt lat="46.0944920" lon="10.4335760">
	<ele>1348.40</ele>
	<time>2024-07-25T12:25:32.000Z</time>
</trkpt>
<trkpt lat="46.0944910" lon="10.4335560">
	<ele>1348.40</ele>
	<time>2024-07-25T12:25:33.000Z</time>
</trkpt>
<trkpt lat="46.0944920" lon="10.4335360">
	<ele>1348.20</ele>
	<time>2024-07-25T12:25:34.000Z</time>
</trkpt>
<trkpt lat="46.0944940" lon="10.4335170">
	<ele>1348.20</ele>
	<time>2024-07-25T12:25:35.000Z</time>
</trkpt>
<trkpt lat="46.0944930" lon="10.4335020">
	<ele>1348.20</ele>
	<time>2024-07-25T12:25:36.000Z</time>
</trkpt>
<trkpt lat="46.0944920" lon="10.4334850">
	<ele>1348.20</ele>
	<time>2024-07-25T12:25:37.000Z</time>
</trkpt>
<trkpt lat="46.0944930" lon="10.4334680">
	<ele>1348.20</ele>
	<time>2024-07-25T12:25:38.000Z</time>
</trkpt>
<trkpt lat="46.0944920" lon="10.4334560">
	<ele>1348.20</ele>
	<time>2024-07-25T12:25:39.000Z</time>
</trkpt>
<trkpt lat="46.0944890" lon="10.4334400">
	<ele>1348.00</ele>
	<time>2024-07-25T12:25:40.000Z</time>
</trkpt>
<trkpt lat="46.0944870" lon="10.4334210">
	<ele>1347.80</ele>
	<time>2024-07-25T12:25:41.000Z</time>
</trkpt>
<trkpt lat="46.0944870" lon="10.4334010">
	<ele>1347.60</ele>
	<time>2024-07-25T12:25:42.000Z</time>
</trkpt>
<trkpt lat="46.0944870" lon="10.4333850">
	<ele>1347.60</ele>
	<time>2024-07-25T12:25:43.000Z</time>
</trkpt>
<trkpt lat="46.0944890" lon="10.4333680">
	<ele>1347.40</ele>
	<time>2024-07-25T12:25:44.000Z</time>
</trkpt>
<trkpt lat="46.0944860" lon="10.4333530">
	<ele>1347.40</ele>
	<time>2024-07-25T12:25:45.000Z</time>
</trkpt>
<trkpt lat="46.0944830" lon="10.4333400">
	<ele>1347.20</ele>
	<time>2024-07-25T12:25:46.000Z</time>
</trkpt>
<trkpt lat="46.0944820" lon="10.4333230">
	<ele>1347.20</ele>
	<time>2024-07-25T12:25:47.000Z</time>
</trkpt>
<trkpt lat="46.0944760" lon="10.4333100">
	<ele>1347.20</ele>
	<time>2024-07-25T12:25:48.000Z</time>
</trkpt>
<trkpt lat="46.0944720" lon="10.4332910">
	<ele>1347.00</ele>
	<time>2024-07-25T12:25:49.000Z</time>
</trkpt>
<trkpt lat="46.0944660" lon="10.4332740">
	<ele>1347.00</ele>
	<time>2024-07-25T12:25:50.000Z</time>
</trkpt>
<trkpt lat="46.0944590" lon="10.4332590">
	<ele>1347.00</ele>
	<time>2024-07-25T12:25:51.000Z</time>
</trkpt>
<trkpt lat="46.0944580" lon="10.4332390">
	<ele>1346.80</ele>
	<time>2024-07-25T12:25:52.000Z</time>
</trkpt>
<trkpt lat="46.0944600" lon="10.4332170">
	<ele>1346.60</ele>
	<time>2024-07-25T12:25:53.000Z</time>
</trkpt>
<trkpt lat="46.0944600" lon="10.4332010">
	<ele>1346.40</ele>
	<time>2024-07-25T12:25:54.000Z</time>
</trkpt>
<trkpt lat="46.0944600" lon="10.4331840">
	<ele>1346.20</ele>
	<time>2024-07-25T12:25:55.000Z</time>
</trkpt>
<trkpt lat="46.0944590" lon="10.4331680">
	<ele>1346.00</ele>
	<time>2024-07-25T12:25:56.000Z</time>
</trkpt>
<trkpt lat="46.0944630" lon="10.4331490">
	<ele>1346.00</ele>
	<time>2024-07-25T12:25:57.000Z</time>
</trkpt>
<trkpt lat="46.0944640" lon="10.4331290">
	<ele>1345.80</ele>
	<time>2024-07-25T12:25:58.000Z</time>
</trkpt>
<trkpt lat="46.0944600" lon="10.4331100">
	<ele>1345.80</ele>
	<time>2024-07-25T12:25:59.000Z</time>
</trkpt>
<trkpt lat="46.0944570" lon="10.4330930">
	<ele>1345.60</ele>
	<time>2024-07-25T12:26:00.000Z</time>
</trkpt>
<trkpt lat="46.0944560" lon="10.4330750">
	<ele>1345.40</ele>
	<time>2024-07-25T12:26:01.000Z</time>
</trkpt>
<trkpt lat="46.0944540" lon="10.4330600">
	<ele>1345.20</ele>
	<time>2024-07-25T12:26:02.000Z</time>
</trkpt>
<trkpt lat="46.0944540" lon="10.4330450">
	<ele>1345.00</ele>
	<time>2024-07-25T12:26:03.000Z</time>
</trkpt>
<trkpt lat="46.0944550" lon="10.4330320">
	<ele>1344.80</ele>
	<time>2024-07-25T12:26:04.000Z</time>
</trkpt>
<trkpt lat="46.0944530" lon="10.4330160">
	<ele>1344.80</ele>
	<time>2024-07-25T12:26:05.000Z</time>
</trkpt>
<trkpt lat="46.0944520" lon="10.4329940">
	<ele>1344.60</ele>
	<time>2024-07-25T12:26:06.000Z</time>
</trkpt>
<trkpt lat="46.0944530" lon="10.4329740">
	<ele>1344.40</ele>
	<time>2024-07-25T12:26:07.000Z</time>
</trkpt>
<trkpt lat="46.0944540" lon="10.4329530">
	<ele>1344.20</ele>
	<time>2024-07-25T12:26:08.000Z</time>
</trkpt>
<trkpt lat="46.0944530" lon="10.4329320">
	<ele>1344.20</ele>
	<time>2024-07-25T12:26:09.000Z</time>
</trkpt>
<trkpt lat="46.0944500" lon="10.4329130">
	<ele>1344.20</ele>
	<time>2024-07-25T12:26:10.000Z</time>
</trkpt>
<trkpt lat="46.0944470" lon="10.4328950">
	<ele>1344.00</ele>
	<time>2024-07-25T12:26:11.000Z</time>
</trkpt>
<trkpt lat="46.0944450" lon="10.4328800">
	<ele>1343.80</ele>
	<time>2024-07-25T12:26:12.000Z</time>
</trkpt>
<trkpt lat="46.0944410" lon="10.4328630">
	<ele>1343.80</ele>
	<time>2024-07-25T12:26:13.000Z</time>
</trkpt>
<trkpt lat="46.0944350" lon="10.4328500">
	<ele>1343.60</ele>
	<time>2024-07-25T12:26:14.000Z</time>
</trkpt>
<trkpt lat="46.0944300" lon="10.4328380">
	<ele>1343.40</ele>
	<time>2024-07-25T12:26:15.000Z</time>
</trkpt>
<trkpt lat="46.0944260" lon="10.4328260">
	<ele>1343.20</ele>
	<time>2024-07-25T12:26:16.000Z</time>
</trkpt>
<trkpt lat="46.0944210" lon="10.4328230">
	<ele>1343.20</ele>
	<time>2024-07-25T12:26:17.000Z</time>
</trkpt>
<trkpt lat="46.0944150" lon="10.4328180">
	<ele>1343.00</ele>
	<time>2024-07-25T12:26:18.000Z</time>
</trkpt>
<trkpt lat="46.0944080" lon="10.4328090">
	<ele>1342.80</ele>
	<time>2024-07-25T12:26:19.000Z</time>
</trkpt>
<trkpt lat="46.0944040" lon="10.4328010">
	<ele>1342.60</ele>
	<time>2024-07-25T12:26:20.000Z</time>
</trkpt>
<trkpt lat="46.0944040" lon="10.4327950">
	<ele>1342.60</ele>
	<time>2024-07-25T12:26:21.000Z</time>
</trkpt>
<trkpt lat="46.0944000" lon="10.4327780">
	<ele>1342.40</ele>
	<time>2024-07-25T12:26:22.000Z</time>
</trkpt>
<trkpt lat="46.0943980" lon="10.4327640">
	<ele>1342.20</ele>
	<time>2024-07-25T12:26:23.000Z</time>
</trkpt>
<trkpt lat="46.0943990" lon="10.4327470">
	<ele>1342.00</ele>
	<time>2024-07-25T12:26:24.000Z</time>
</trkpt>
<trkpt lat="46.0943970" lon="10.4327270">
	<ele>1341.80</ele>
	<time>2024-07-25T12:26:25.000Z</time>
</trkpt>
<trkpt lat="46.0943910" lon="10.4327090">
	<ele>1341.60</ele>
	<time>2024-07-25T12:26:26.000Z</time>
</trkpt>
<trkpt lat="46.0943850" lon="10.4326960">
	<ele>1341.60</ele>
	<time>2024-07-25T12:26:27.000Z</time>
</trkpt>
<trkpt lat="46.0943800" lon="10.4326830">
	<ele>1341.40</ele>
	<time>2024-07-25T12:26:28.000Z</time>
</trkpt>
<trkpt lat="46.0943790" lon="10.4326730">
	<ele>1341.40</ele>
	<time>2024-07-25T12:26:29.000Z</time>
</trkpt>
<trkpt lat="46.0943750" lon="10.4326580">
	<ele>1341.40</ele>
	<time>2024-07-25T12:26:30.000Z</time>
</trkpt>
<trkpt lat="46.0943690" lon="10.4326460">
	<ele>1341.20</ele>
	<time>2024-07-25T12:26:31.000Z</time>
</trkpt>
<trkpt lat="46.0943640" lon="10.4326330">
	<ele>1341.20</ele>
	<time>2024-07-25T12:26:32.000Z</time>
</trkpt>
<trkpt lat="46.0943570" lon="10.4326220">
	<ele>1341.20</ele>
	<time>2024-07-25T12:26:33.000Z</time>
</trkpt>
<trkpt lat="46.0943500" lon="10.4326120">
	<ele>1341.00</ele>
	<time>2024-07-25T12:26:34.000Z</time>
</trkpt>
<trkpt lat="46.0943430" lon="10.4326010">
	<ele>1340.80</ele>
	<time>2024-07-25T12:26:35.000Z</time>
</trkpt>
<trkpt lat="46.0943350" lon="10.4325890">
	<ele>1340.60</ele>
	<time>2024-07-25T12:26:36.000Z</time>
</trkpt>
<trkpt lat="46.0943280" lon="10.4325720">
	<ele>1340.60</ele>
	<time>2024-07-25T12:26:37.000Z</time>
</trkpt>
<trkpt lat="46.0943220" lon="10.4325570">
	<ele>1340.40</ele>
	<time>2024-07-25T12:26:38.000Z</time>
</trkpt>
<trkpt lat="46.0943150" lon="10.4325430">
	<ele>1340.20</ele>
	<time>2024-07-25T12:26:39.000Z</time>
</trkpt>
<trkpt lat="46.0943090" lon="10.4325260">
	<ele>1340.00</ele>
	<time>2024-07-25T12:26:40.000Z</time>
</trkpt>
<trkpt lat="46.0943030" lon="10.4325120">
	<ele>1339.80</ele>
	<time>2024-07-25T12:26:41.000Z</time>
</trkpt>
<trkpt lat="46.0942960" lon="10.4324930">
	<ele>1339.60</ele>
	<time>2024-07-25T12:26:42.000Z</time>
</trkpt>
<trkpt lat="46.0942920" lon="10.4324750">
	<ele>1339.60</ele>
	<time>2024-07-25T12:26:43.000Z</time>
</trkpt>
<trkpt lat="46.0942880" lon="10.4324510">
	<ele>1339.40</ele>
	<time>2024-07-25T12:26:44.000Z</time>
</trkpt>
<trkpt lat="46.0942850" lon="10.4324300">
	<ele>1339.40</ele>
	<time>2024-07-25T12:26:45.000Z</time>
</trkpt>
<trkpt lat="46.0942820" lon="10.4324100">
	<ele>1339.40</ele>
	<time>2024-07-25T12:26:46.000Z</time>
</trkpt>
<trkpt lat="46.0942810" lon="10.4323940">
	<ele>1339.20</ele>
	<time>2024-07-25T12:26:47.000Z</time>
</trkpt>
<trkpt lat="46.0942830" lon="10.4323780">
	<ele>1339.00</ele>
	<time>2024-07-25T12:26:48.000Z</time>
</trkpt>
<trkpt lat="46.0942840" lon="10.4323600">
	<ele>1339.00</ele>
	<time>2024-07-25T12:26:49.000Z</time>
</trkpt>
<trkpt lat="46.0942870" lon="10.4323400">
	<ele>1339.00</ele>
	<time>2024-07-25T12:26:50.000Z</time>
</trkpt>
<trkpt lat="46.0942910" lon="10.4323270">
	<ele>1338.80</ele>
	<time>2024-07-25T12:26:51.000Z</time>
</trkpt>
<trkpt lat="46.0942950" lon="10.4323090">
	<ele>1338.60</ele>
	<time>2024-07-25T12:26:52.000Z</time>
</trkpt>
<trkpt lat="46.0942990" lon="10.4322900">
	<ele>1338.60</ele>
	<time>2024-07-25T12:26:53.000Z</time>
</trkpt>
<trkpt lat="46.0943020" lon="10.4322760">
	<ele>1338.40</ele>
	<time>2024-07-25T12:26:54.000Z</time>
</trkpt>
<trkpt lat="46.0943030" lon="10.4322580">
	<ele>1338.40</ele>
	<time>2024-07-25T12:26:55.000Z</time>
</trkpt>
<trkpt lat="46.0943070" lon="10.4322440">
	<ele>1338.40</ele>
	<time>2024-07-25T12:26:56.000Z</time>
</trkpt>
<trkpt lat="46.0943070" lon="10.4322300">
	<ele>1338.20</ele>
	<time>2024-07-25T12:26:57.000Z</time>
</trkpt>
<trkpt lat="46.0943120" lon="10.4322190">
	<ele>1338.20</ele>
	<time>2024-07-25T12:26:58.000Z</time>
</trkpt>
<trkpt lat="46.0943140" lon="10.4322010">
	<ele>1338.20</ele>
	<time>2024-07-25T12:26:59.000Z</time>
</trkpt>
<trkpt lat="46.0943140" lon="10.4321900">
	<ele>1338.00</ele>
	<time>2024-07-25T12:27:00.000Z</time>
</trkpt>
<trkpt lat="46.0943130" lon="10.4321740">
	<ele>1338.00</ele>
	<time>2024-07-25T12:27:01.000Z</time>
</trkpt>
<trkpt lat="46.0943080" lon="10.4321510">
	<ele>1337.80</ele>
	<time>2024-07-25T12:27:02.000Z</time>
</trkpt>
<trkpt lat="46.0942990" lon="10.4321210">
	<ele>1337.80</ele>
	<time>2024-07-25T12:27:03.000Z</time>
</trkpt>
<trkpt lat="46.0942950" lon="10.4321030">
	<ele>1337.60</ele>
	<time>2024-07-25T12:27:04.000Z</time>
</trkpt>
<trkpt lat="46.0942960" lon="10.4320800">
	<ele>1337.40</ele>
	<time>2024-07-25T12:27:05.000Z</time>
</trkpt>
<trkpt lat="46.0942990" lon="10.4320640">
	<ele>1337.40</ele>
	<time>2024-07-25T12:27:06.000Z</time>
</trkpt>
<trkpt lat="46.0942970" lon="10.4320500">
	<ele>1337.20</ele>
	<time>2024-07-25T12:27:07.000Z</time>
</trkpt>
<trkpt lat="46.0942930" lon="10.4320300">
	<ele>1337.20</ele>
	<time>2024-07-25T12:27:08.000Z</time>
</trkpt>
<trkpt lat="46.0942960" lon="10.4320140">
	<ele>1337.00</ele>
	<time>2024-07-25T12:27:09.000Z</time>
</trkpt>
<trkpt lat="46.0942930" lon="10.4319940">
	<ele>1336.80</ele>
	<time>2024-07-25T12:27:10.000Z</time>
</trkpt>
<trkpt lat="46.0942910" lon="10.4319740">
	<ele>1336.80</ele>
	<time>2024-07-25T12:27:11.000Z</time>
</trkpt>
<trkpt lat="46.0942870" lon="10.4319530">
	<ele>1336.60</ele>
	<time>2024-07-25T12:27:12.000Z</time>
</trkpt>
<trkpt lat="46.0942830" lon="10.4319320">
	<ele>1336.40</ele>
	<time>2024-07-25T12:27:13.000Z</time>
</trkpt>
<trkpt lat="46.0942780" lon="10.4319110">
	<ele>1336.40</ele>
	<time>2024-07-25T12:27:14.000Z</time>
</trkpt>
<trkpt lat="46.0942670" lon="10.4318920">
	<ele>1336.20</ele>
	<time>2024-07-25T12:27:15.000Z</time>
</trkpt>
<trkpt lat="46.0942600" lon="10.4318700">
	<ele>1336.00</ele>
	<time>2024-07-25T12:27:16.000Z</time>
</trkpt>
<trkpt lat="46.0942540" lon="10.4318490">
	<ele>1335.80</ele>
	<time>2024-07-25T12:27:17.000Z</time>
</trkpt>
<trkpt lat="46.0942510" lon="10.4318300">
	<ele>1335.60</ele>
	<time>2024-07-25T12:27:18.000Z</time>
</trkpt>
<trkpt lat="46.0942540" lon="10.4318110">
	<ele>1335.60</ele>
	<time>2024-07-25T12:27:19.000Z</time>
</trkpt>
<trkpt lat="46.0942530" lon="10.4317960">
	<ele>1335.40</ele>
	<time>2024-07-25T12:27:20.000Z</time>
</trkpt>
<trkpt lat="46.0942490" lon="10.4317760">
	<ele>1335.20</ele>
	<time>2024-07-25T12:27:21.000Z</time>
</trkpt>
<trkpt lat="46.0942440" lon="10.4317580">
	<ele>1335.00</ele>
	<time>2024-07-25T12:27:22.000Z</time>
</trkpt>
<trkpt lat="46.0942390" lon="10.4317370">
	<ele>1335.00</ele>
	<time>2024-07-25T12:27:23.000Z</time>
</trkpt>
<trkpt lat="46.0942370" lon="10.4317220">
	<ele>1334.80</ele>
	<time>2024-07-25T12:27:24.000Z</time>
</trkpt>
<trkpt lat="46.0942350" lon="10.4317080">
	<ele>1334.80</ele>
	<time>2024-07-25T12:27:25.000Z</time>
</trkpt>
<trkpt lat="46.0942330" lon="10.4316890">
	<ele>1334.60</ele>
	<time>2024-07-25T12:27:26.000Z</time>
</trkpt>
<trkpt lat="46.0942300" lon="10.4316730">
	<ele>1334.60</ele>
	<time>2024-07-25T12:27:27.000Z</time>
</trkpt>
<trkpt lat="46.0942230" lon="10.4316520">
	<ele>1334.40</ele>
	<time>2024-07-25T12:27:28.000Z</time>
</trkpt>
<trkpt lat="46.0942150" lon="10.4316350">
	<ele>1334.20</ele>
	<time>2024-07-25T12:27:29.000Z</time>
</trkpt>
<trkpt lat="46.0942100" lon="10.4316160">
	<ele>1334.00</ele>
	<time>2024-07-25T12:27:30.000Z</time>
</trkpt>
<trkpt lat="46.0942090" lon="10.4316000">
	<ele>1334.00</ele>
	<time>2024-07-25T12:27:31.000Z</time>
</trkpt>
<trkpt lat="46.0942110" lon="10.4315800">
	<ele>1333.80</ele>
	<time>2024-07-25T12:27:32.000Z</time>
</trkpt>
<trkpt lat="46.0942080" lon="10.4315630">
	<ele>1333.80</ele>
	<time>2024-07-25T12:27:33.000Z</time>
</trkpt>
<trkpt lat="46.0942050" lon="10.4315400">
	<ele>1333.80</ele>
	<time>2024-07-25T12:27:34.000Z</time>
</trkpt>
<trkpt lat="46.0942050" lon="10.4315120">
	<ele>1333.80</ele>
	<time>2024-07-25T12:27:35.000Z</time>
</trkpt>
<trkpt lat="46.0942040" lon="10.4314900">
	<ele>1333.80</ele>
	<time>2024-07-25T12:27:36.000Z</time>
</trkpt>
<trkpt lat="46.0942020" lon="10.4314710">
	<ele>1333.80</ele>
	<time>2024-07-25T12:27:37.000Z</time>
</trkpt>
<trkpt lat="46.0942010" lon="10.4314510">
	<ele>1333.60</ele>
	<time>2024-07-25T12:27:38.000Z</time>
</trkpt>
<trkpt lat="46.0942040" lon="10.4314310">
	<ele>1333.40</ele>
	<time>2024-07-25T12:27:39.000Z</time>
</trkpt>
<trkpt lat="46.0942050" lon="10.4314090">
	<ele>1333.20</ele>
	<time>2024-07-25T12:27:40.000Z</time>
</trkpt>
<trkpt lat="46.0942050" lon="10.4313900">
	<ele>1333.20</ele>
	<time>2024-07-25T12:27:41.000Z</time>
</trkpt>
<trkpt lat="46.0942030" lon="10.4313760">
	<ele>1333.00</ele>
	<time>2024-07-25T12:27:42.000Z</time>
</trkpt>
<trkpt lat="46.0942080" lon="10.4313670">
	<ele>1332.80</ele>
	<time>2024-07-25T12:27:43.000Z</time>
</trkpt>
<trkpt lat="46.0942100" lon="10.4313530">
	<ele>1332.40</ele>
	<time>2024-07-25T12:27:44.000Z</time>
</trkpt>
<trkpt lat="46.0942110" lon="10.4313330">
	<ele>1332.40</ele>
	<time>2024-07-25T12:27:45.000Z</time>
</trkpt>
<trkpt lat="46.0942130" lon="10.4313120">
	<ele>1332.20</ele>
	<time>2024-07-25T12:27:46.000Z</time>
</trkpt>
<trkpt lat="46.0942180" lon="10.4312860">
	<ele>1332.20</ele>
	<time>2024-07-25T12:27:47.000Z</time>
</trkpt>
<trkpt lat="46.0942220" lon="10.4312700">
	<ele>1332.20</ele>
	<time>2024-07-25T12:27:48.000Z</time>
</trkpt>
<trkpt lat="46.0942260" lon="10.4312510">
	<ele>1332.20</ele>
	<time>2024-07-25T12:27:49.000Z</time>
</trkpt>
<trkpt lat="46.0942280" lon="10.4312360">
	<ele>1332.00</ele>
	<time>2024-07-25T12:27:50.000Z</time>
</trkpt>
<trkpt lat="46.0942280" lon="10.4312180">
	<ele>1331.80</ele>
	<time>2024-07-25T12:27:51.000Z</time>
</trkpt>
<trkpt lat="46.0942290" lon="10.4312010">
	<ele>1331.60</ele>
	<time>2024-07-25T12:27:52.000Z</time>
</trkpt>
<trkpt lat="46.0942300" lon="10.4311870">
	<ele>1331.40</ele>
	<time>2024-07-25T12:27:53.000Z</time>
</trkpt>
<trkpt lat="46.0942310" lon="10.4311730">
	<ele>1331.40</ele>
	<time>2024-07-25T12:27:54.000Z</time>
</trkpt>
<trkpt lat="46.0942340" lon="10.4311580">
	<ele>1331.20</ele>
	<time>2024-07-25T12:27:55.000Z</time>
</trkpt>
<trkpt lat="46.0942360" lon="10.4311450">
	<ele>1331.00</ele>
	<time>2024-07-25T12:27:56.000Z</time>
</trkpt>
<trkpt lat="46.0942410" lon="10.4311280">
	<ele>1330.80</ele>
	<time>2024-07-25T12:27:57.000Z</time>
</trkpt>
<trkpt lat="46.0942460" lon="10.4311160">
	<ele>1330.60</ele>
	<time>2024-07-25T12:27:58.000Z</time>
</trkpt>
<trkpt lat="46.0942500" lon="10.4311020">
	<ele>1330.40</ele>
	<time>2024-07-25T12:27:59.000Z</time>
</trkpt>
<trkpt lat="46.0942530" lon="10.4310830">
	<ele>1330.20</ele>
	<time>2024-07-25T12:28:00.000Z</time>
</trkpt>
<trkpt lat="46.0942560" lon="10.4310650">
	<ele>1330.00</ele>
	<time>2024-07-25T12:28:01.000Z</time>
</trkpt>
<trkpt lat="46.0942580" lon="10.4310530">
	<ele>1329.80</ele>
	<time>2024-07-25T12:28:02.000Z</time>
</trkpt>
<trkpt lat="46.0942610" lon="10.4310370">
	<ele>1329.80</ele>
	<time>2024-07-25T12:28:03.000Z</time>
</trkpt>
<trkpt lat="46.0942610" lon="10.4310230">
	<ele>1329.60</ele>
	<time>2024-07-25T12:28:04.000Z</time>
</trkpt>
<trkpt lat="46.0942640" lon="10.4310070">
	<ele>1329.40</ele>
	<time>2024-07-25T12:28:05.000Z</time>
</trkpt>
<trkpt lat="46.0942660" lon="10.4309870">
	<ele>1329.20</ele>
	<time>2024-07-25T12:28:06.000Z</time>
</trkpt>
<trkpt lat="46.0942710" lon="10.4309690">
	<ele>1329.00</ele>
	<time>2024-07-25T12:28:07.000Z</time>
</trkpt>
<trkpt lat="46.0942790" lon="10.4309560">
	<ele>1329.00</ele>
	<time>2024-07-25T12:28:08.000Z</time>
</trkpt>
<trkpt lat="46.0942860" lon="10.4309390">
	<ele>1328.80</ele>
	<time>2024-07-25T12:28:09.000Z</time>
</trkpt>
<trkpt lat="46.0942900" lon="10.4309270">
	<ele>1328.60</ele>
	<time>2024-07-25T12:28:10.000Z</time>
</trkpt>
<trkpt lat="46.0942940" lon="10.4309120">
	<ele>1328.40</ele>
	<time>2024-07-25T12:28:11.000Z</time>
</trkpt>
<trkpt lat="46.0942990" lon="10.4309030">
	<ele>1328.40</ele>
	<time>2024-07-25T12:28:12.000Z</time>
</trkpt>
<trkpt lat="46.0943020" lon="10.4308940">
	<ele>1328.20</ele>
	<time>2024-07-25T12:28:13.000Z</time>
</trkpt>
<trkpt lat="46.0943050" lon="10.4308870">
	<ele>1328.00</ele>
	<time>2024-07-25T12:28:14.000Z</time>
</trkpt>
<trkpt lat="46.0943100" lon="10.4308780">
	<ele>1327.80</ele>
	<time>2024-07-25T12:28:15.000Z</time>
</trkpt>
<trkpt lat="46.0943080" lon="10.4308600">
	<ele>1327.60</ele>
	<time>2024-07-25T12:28:16.000Z</time>
</trkpt>
<trkpt lat="46.0943030" lon="10.4308430">
	<ele>1327.60</ele>
	<time>2024-07-25T12:28:17.000Z</time>
</trkpt>
<trkpt lat="46.0943000" lon="10.4308280">
	<ele>1327.40</ele>
	<time>2024-07-25T12:28:18.000Z</time>
</trkpt>
<trkpt lat="46.0942990" lon="10.4308110">
	<ele>1327.40</ele>
	<time>2024-07-25T12:28:19.000Z</time>
</trkpt>
<trkpt lat="46.0942980" lon="10.4307930">
	<ele>1327.20</ele>
	<time>2024-07-25T12:28:20.000Z</time>
</trkpt>
<trkpt lat="46.0942890" lon="10.4307700">
	<ele>1327.00</ele>
	<time>2024-07-25T12:28:21.000Z</time>
</trkpt>
<trkpt lat="46.0942860" lon="10.4307470">
	<ele>1327.00</ele>
	<time>2024-07-25T12:28:22.000Z</time>
</trkpt>
<trkpt lat="46.0942840" lon="10.4307250">
	<ele>1327.00</ele>
	<time>2024-07-25T12:28:23.000Z</time>
</trkpt>
<trkpt lat="46.0942920" lon="10.4307140">
	<ele>1326.60</ele>
	<time>2024-07-25T12:28:24.000Z</time>
</trkpt>
<trkpt lat="46.0942980" lon="10.4307050">
	<ele>1326.20</ele>
	<time>2024-07-25T12:28:25.000Z</time>
</trkpt>
<trkpt lat="46.0943020" lon="10.4306960">
	<ele>1326.00</ele>
	<time>2024-07-25T12:28:26.000Z</time>
</trkpt>
<trkpt lat="46.0943060" lon="10.4306840">
	<ele>1326.00</ele>
	<time>2024-07-25T12:28:27.000Z</time>
</trkpt>
<trkpt lat="46.0943090" lon="10.4306700">
	<ele>1325.80</ele>
	<time>2024-07-25T12:28:28.000Z</time>
</trkpt>
<trkpt lat="46.0943110" lon="10.4306540">
	<ele>1325.60</ele>
	<time>2024-07-25T12:28:29.000Z</time>
</trkpt>
<trkpt lat="46.0943110" lon="10.4306380">
	<ele>1325.40</ele>
	<time>2024-07-25T12:28:30.000Z</time>
</trkpt>
<trkpt lat="46.0943070" lon="10.4306190">
	<ele>1325.20</ele>
	<time>2024-07-25T12:28:31.000Z</time>
</trkpt>
<trkpt lat="46.0943020" lon="10.4305990">
	<ele>1325.20</ele>
	<time>2024-07-25T12:28:32.000Z</time>
</trkpt>
<trkpt lat="46.0943010" lon="10.4305820">
	<ele>1324.80</ele>
	<time>2024-07-25T12:28:33.000Z</time>
</trkpt>
<trkpt lat="46.0942990" lon="10.4305640">
	<ele>1324.60</ele>
	<time>2024-07-25T12:28:34.000Z</time>
</trkpt>
<trkpt lat="46.0943000" lon="10.4305440">
	<ele>1324.60</ele>
	<time>2024-07-25T12:28:35.000Z</time>
</trkpt>
<trkpt lat="46.0943040" lon="10.4305250">
	<ele>1324.40</ele>
	<time>2024-07-25T12:28:36.000Z</time>
</trkpt>
<trkpt lat="46.0943100" lon="10.4305070">
	<ele>1324.40</ele>
	<time>2024-07-25T12:28:37.000Z</time>
</trkpt>
<trkpt lat="46.0943140" lon="10.4304880">
	<ele>1324.40</ele>
	<time>2024-07-25T12:28:38.000Z</time>
</trkpt>
<trkpt lat="46.0943130" lon="10.4304680">
	<ele>1324.00</ele>
	<time>2024-07-25T12:28:39.000Z</time>
</trkpt>
<trkpt lat="46.0943140" lon="10.4304460">
	<ele>1323.80</ele>
	<time>2024-07-25T12:28:40.000Z</time>
</trkpt>
<trkpt lat="46.0943160" lon="10.4304250">
	<ele>1323.80</ele>
	<time>2024-07-25T12:28:41.000Z</time>
</trkpt>
<trkpt lat="46.0943180" lon="10.4303990">
	<ele>1323.60</ele>
	<time>2024-07-25T12:28:42.000Z</time>
</trkpt>
<trkpt lat="46.0943180" lon="10.4303750">
	<ele>1323.40</ele>
	<time>2024-07-25T12:28:43.000Z</time>
</trkpt>
<trkpt lat="46.0943130" lon="10.4303530">
	<ele>1323.40</ele>
	<time>2024-07-25T12:28:44.000Z</time>
</trkpt>
<trkpt lat="46.0943080" lon="10.4303250">
	<ele>1323.00</ele>
	<time>2024-07-25T12:28:45.000Z</time>
</trkpt>
<trkpt lat="46.0943060" lon="10.4303020">
	<ele>1322.80</ele>
	<time>2024-07-25T12:28:46.000Z</time>
</trkpt>
<trkpt lat="46.0943050" lon="10.4302810">
	<ele>1322.60</ele>
	<time>2024-07-25T12:28:47.000Z</time>
</trkpt>
<trkpt lat="46.0943030" lon="10.4302580">
	<ele>1322.60</ele>
	<time>2024-07-25T12:28:48.000Z</time>
</trkpt>
<trkpt lat="46.0943050" lon="10.4302430">
	<ele>1322.60</ele>
	<time>2024-07-25T12:28:49.000Z</time>
</trkpt>
<trkpt lat="46.0943050" lon="10.4302280">
	<ele>1322.60</ele>
	<time>2024-07-25T12:28:50.000Z</time>
</trkpt>
<trkpt lat="46.0943030" lon="10.4302160">
	<ele>1322.60</ele>
	<time>2024-07-25T12:28:51.000Z</time>
</trkpt>
<trkpt lat="46.0942960" lon="10.4302030">
	<ele>1322.60</ele>
	<time>2024-07-25T12:28:52.000Z</time>
</trkpt>
<trkpt lat="46.0942870" lon="10.4301910">
	<ele>1322.60</ele>
	<time>2024-07-25T12:28:53.000Z</time>
</trkpt>
<trkpt lat="46.0942770" lon="10.4301740">
	<ele>1322.80</ele>
	<time>2024-07-25T12:28:54.000Z</time>
</trkpt>
<trkpt lat="46.0942720" lon="10.4301670">
	<ele>1322.80</ele>
	<time>2024-07-25T12:28:55.000Z</time>
</trkpt>
<trkpt lat="46.0942630" lon="10.4301690">
	<ele>1322.80</ele>
	<time>2024-07-25T12:28:56.000Z</time>
</trkpt>
<trkpt lat="46.0942490" lon="10.4301710">
	<ele>1322.80</ele>
	<time>2024-07-25T12:28:57.000Z</time>
</trkpt>
<trkpt lat="46.0942370" lon="10.4301710">
	<ele>1322.60</ele>
	<time>2024-07-25T12:28:58.000Z</time>
</trkpt>
<trkpt lat="46.0942210" lon="10.4301640">
	<ele>1322.60</ele>
	<time>2024-07-25T12:28:59.000Z</time>
</trkpt>
<trkpt lat="46.0942060" lon="10.4301590">
	<ele>1322.40</ele>
	<time>2024-07-25T12:29:00.000Z</time>
</trkpt>
<trkpt lat="46.0941960" lon="10.4301540">
	<ele>1322.40</ele>
	<time>2024-07-25T12:29:01.000Z</time>
</trkpt>
<trkpt lat="46.0941840" lon="10.4301500">
	<ele>1322.40</ele>
	<time>2024-07-25T12:29:02.000Z</time>
</trkpt>
<trkpt lat="46.0941640" lon="10.4301470">
	<ele>1322.40</ele>
	<time>2024-07-25T12:29:03.000Z</time>
</trkpt>
<trkpt lat="46.0941470" lon="10.4301420">
	<ele>1322.40</ele>
	<time>2024-07-25T12:29:04.000Z</time>
</trkpt>
<trkpt lat="46.0941350" lon="10.4301430">
	<ele>1322.40</ele>
	<time>2024-07-25T12:29:05.000Z</time>
</trkpt>
<trkpt lat="46.0941290" lon="10.4301470">
	<ele>1322.20</ele>
	<time>2024-07-25T12:29:06.000Z</time>
</trkpt>
<trkpt lat="46.0941170" lon="10.4301500">
	<ele>1322.00</ele>
	<time>2024-07-25T12:29:07.000Z</time>
</trkpt>
<trkpt lat="46.0941090" lon="10.4301540">
	<ele>1321.80</ele>
	<time>2024-07-25T12:29:08.000Z</time>
</trkpt>
<trkpt lat="46.0941090" lon="10.4301570">
	<ele>1321.80</ele>
	<time>2024-07-25T12:29:09.000Z</time>
</trkpt>
<trkpt lat="46.0941040" lon="10.4301560">
	<ele>1321.60</ele>
	<time>2024-07-25T12:29:10.000Z</time>
</trkpt>
<trkpt lat="46.0940980" lon="10.4301540">
	<ele>1321.60</ele>
	<time>2024-07-25T12:29:11.000Z</time>
</trkpt>
</trkseg>
</trk>
</gpx>
